<?xml version='1.0' encoding='UTF-8'?><gpx version="1.1" creator="JPX - https://github.com/jenetics/jpx" xmlns="http://www.topografix.com/GPX/1/1"><trk><trkseg><trkpt lat="53.90743071227861" lon="30.354990639526285"><ele>173.0</ele><time>2026-05-03T08:29:23.001Z</time></trkpt><trkpt lat="53.907351450614485" lon="30.355054933650344"><ele>173.0</ele><time>2026-05-03T08:29:26.001Z</time></trkpt><trkpt lat="53.90728324890754" lon="30.35513652855789"><ele>173.0</ele><time>2026-05-03T08:29:27.001Z</time></trkpt><trkpt lat="53.907230164771256" lon="30.35522947690384"><ele>173.0</ele><time>2026-05-03T08:29:50.001Z</time></trkpt><trkpt lat="53.90715493278666" lon="30.355210153076392"><ele>173.0</ele><time>2026-05-03T08:29:52.002Z</time></trkpt><trkpt lat="53.907035953230576" lon="30.355033895476314"><ele>173.0</ele><time>2026-05-03T08:29:54.002Z</time></trkpt><trkpt lat="53.90694771931706" lon="30.3548248390716"><ele>173.0</ele><time>2026-05-03T08:29:55.002Z</time></trkpt><trkpt lat="53.90687273125421" lon="30.354571006322757"><ele>173.0</ele><time>2026-05-03T08:29:56.002Z</time></trkpt><trkpt lat="53.90677168071506" lon="30.354368143929815"><ele>173.8</ele><time>2026-05-03T08:29:57.002Z</time></trkpt><trkpt lat="53.90668955143434" lon="30.35420284242609"><ele>174.60000000000002</ele><time>2026-05-03T08:29:58.002Z</time></trkpt><trkpt lat="53.906628922355736" lon="30.354079635503346"><ele>175.39999999999998</ele><time>2026-05-03T08:29:59.002Z</time></trkpt><trkpt lat="53.9065701401003" lon="30.353960184921856"><ele>176.2</ele><time>2026-05-03T08:30:00.002Z</time></trkpt><trkpt lat="53.90651379223006" lon="30.35384568439659"><ele>177.0</ele><time>2026-05-03T08:30:02.002Z</time></trkpt><trkpt lat="53.90643085345005" lon="30.353678885239987"><ele>177.0</ele><time>2026-05-03T08:30:05.002Z</time></trkpt><trkpt lat="53.90637651972105" lon="30.35357049531611"><ele>177.0</ele><time>2026-05-03T08:30:06.002Z</time></trkpt><trkpt lat="53.90629759404394" lon="30.353413098593727"><ele>177.0</ele><time>2026-05-03T08:30:07.002Z</time></trkpt><trkpt lat="53.90623296149313" lon="30.35328515543981"><ele>177.0</ele><time>2026-05-03T08:30:08.002Z</time></trkpt><trkpt lat="53.90615794544645" lon="30.353136657671637"><ele>177.0</ele><time>2026-05-03T08:30:09.002Z</time></trkpt><trkpt lat="53.90606493290589" lon="30.35295195966851"><ele>177.0</ele><time>2026-05-03T08:30:10.002Z</time></trkpt><trkpt lat="53.905961245924715" lon="30.35274562399151"><ele>177.0</ele><time>2026-05-03T08:30:11.002Z</time></trkpt><trkpt lat="53.90587028714631" lon="30.352564999356005"><ele>177.0</ele><time>2026-05-03T08:30:12.002Z</time></trkpt><trkpt lat="53.90577912572834" lon="30.35238474837185"><ele>177.0</ele><time>2026-05-03T08:30:13.002Z</time></trkpt><trkpt lat="53.90570455213627" lon="30.35223792544918"><ele>177.39999999999998</ele><time>2026-05-03T08:30:14.002Z</time></trkpt><trkpt lat="53.90564175284998" lon="30.35212242602746"><ele>177.79999999999998</ele><time>2026-05-03T08:30:15.002Z</time></trkpt><trkpt lat="53.90558989818007" lon="30.352027007395577"><ele>178.2</ele><time>2026-05-03T08:30:16.002Z</time></trkpt><trkpt lat="53.90551664352122" lon="30.351890751574793"><ele>178.6</ele><time>2026-05-03T08:30:17.002Z</time></trkpt><trkpt lat="53.90542781241234" lon="30.3517266310041"><ele>179.0</ele><time>2026-05-03T08:30:18.002Z</time></trkpt><trkpt lat="53.90534035529745" lon="30.351565302872295"><ele>179.0</ele><time>2026-05-03T08:30:19.002Z</time></trkpt><trkpt lat="53.905246924850374" lon="30.35141589638225"><ele>179.0</ele><time>2026-05-03T08:30:20.002Z</time></trkpt><trkpt lat="53.90517019087619" lon="30.3512207824683"><ele>179.0</ele><time>2026-05-03T08:30:21.002Z</time></trkpt><trkpt lat="53.905080706177074" lon="30.351036825817474"><ele>179.0</ele><time>2026-05-03T08:30:22.002Z</time></trkpt><trkpt lat="53.90496550315081" lon="30.350801679645013"><ele>178.39999999999998</ele><time>2026-05-03T08:30:23.002Z</time></trkpt><trkpt lat="53.9048472261804" lon="30.350583896240366"><ele>177.8</ele><time>2026-05-03T08:30:24.002Z</time></trkpt><trkpt lat="53.904780983941215" lon="30.35046192439349"><ele>177.2</ele><time>2026-05-03T08:30:25.002Z</time></trkpt><trkpt lat="53.90471425121472" lon="30.35034874053638"><ele>176.60000000000002</ele><time>2026-05-03T08:30:28.002Z</time></trkpt><trkpt lat="53.904657252936794" lon="30.350272770621874"><ele>176.0</ele><time>2026-05-03T08:30:31.002Z</time></trkpt><trkpt lat="53.90455988686519" lon="30.350336001892696"><ele>176.0</ele><time>2026-05-03T08:30:33.002Z</time></trkpt><trkpt lat="53.904489090717234" lon="30.350471401149267"><ele>176.0</ele><time>2026-05-03T08:30:34.002Z</time></trkpt><trkpt lat="53.90441599319525" lon="30.350571139669455"><ele>176.0</ele><time>2026-05-03T08:30:35.002Z</time></trkpt><trkpt lat="53.90428770849259" lon="30.350747938371118"><ele>176.0</ele><time>2026-05-03T08:30:36.002Z</time></trkpt><trkpt lat="53.90410373000657" lon="30.351025490003416"><ele>176.0</ele><time>2026-05-03T08:30:37.002Z</time></trkpt><trkpt lat="53.903946370804825" lon="30.35126301903059"><ele>176.0</ele><time>2026-05-03T08:30:38.002Z</time></trkpt><trkpt lat="53.90379120241054" lon="30.351497241102596"><ele>176.0</ele><time>2026-05-03T08:30:39.002Z</time></trkpt><trkpt lat="53.903653073989986" lon="30.351705278425115"><ele>176.0</ele><time>2026-05-03T08:30:40.001Z</time></trkpt><trkpt lat="53.90355132618075" lon="30.351858599539987"><ele>176.0</ele><time>2026-05-03T08:30:41.001Z</time></trkpt><trkpt lat="53.90349815004896" lon="30.351938814821132"><ele>176.0</ele><time>2026-05-03T08:30:42.001Z</time></trkpt><trkpt lat="53.90341583324892" lon="30.352062988297384"><ele>176.0</ele><time>2026-05-03T08:30:43.001Z</time></trkpt><trkpt lat="53.9033125493478" lon="30.352206792112923"><ele>175.8</ele><time>2026-05-03T08:30:44.001Z</time></trkpt><trkpt lat="53.90323378816898" lon="30.352312647786917"><ele>175.60000000000002</ele><time>2026-05-03T08:30:45.001Z</time></trkpt><trkpt lat="53.90316315069803" lon="30.352395471456393"><ele>175.4</ele><time>2026-05-03T08:30:47.001Z</time></trkpt><trkpt lat="53.9030872636716" lon="30.352221756532437"><ele>175.2</ele><time>2026-05-03T08:30:49.001Z</time></trkpt><trkpt lat="53.903019345368115" lon="30.352110876672416"><ele>175.0</ele><time>2026-05-03T08:30:50.001Z</time></trkpt><trkpt lat="53.902930344638875" lon="30.35196557874458"><ele>174.66666666666669</ele><time>2026-05-03T08:30:51.001Z</time></trkpt><trkpt lat="53.902805907905474" lon="30.351778413256355"><ele>174.33333333333334</ele><time>2026-05-03T08:30:52.001Z</time></trkpt><trkpt lat="53.9026852178264" lon="30.35158233425686"><ele>174.0</ele><time>2026-05-03T08:30:53.001Z</time></trkpt><trkpt lat="53.902582758214024" lon="30.35145770976273"><ele>172.79999999999998</ele><time>2026-05-03T08:30:54.001Z</time></trkpt><trkpt lat="53.902527109907545" lon="30.351315713598005"><ele>171.6</ele><time>2026-05-03T08:30:55.001Z</time></trkpt><trkpt lat="53.9024657863281" lon="30.351196550468007"><ele>170.4</ele><time>2026-05-03T08:30:56.001Z</time></trkpt><trkpt lat="53.90238086622395" lon="30.3510977210183"><ele>169.2</ele><time>2026-05-03T08:30:58.001Z</time></trkpt><trkpt lat="53.902292498255186" lon="30.351037075779324"><ele>168.0</ele><time>2026-05-03T08:31:01.001Z</time></trkpt><trkpt lat="53.902235588202835" lon="30.35098733632627"><ele>168.0</ele><time>2026-05-03T08:31:02.001Z</time></trkpt><trkpt lat="53.90214207663237" lon="30.35089478102012"><ele>168.0</ele><time>2026-05-03T08:31:04.001Z</time></trkpt><trkpt lat="53.90204781970914" lon="30.350784778099165"><ele>168.0</ele><time>2026-05-03T08:31:06.001Z</time></trkpt><trkpt lat="53.90195143264239" lon="30.35067228917526"><ele>168.0</ele><time>2026-05-03T08:31:08.001Z</time></trkpt><trkpt lat="53.901852404515516" lon="30.350546544003063"><ele>168.0</ele><time>2026-05-03T08:31:10.001Z</time></trkpt><trkpt lat="53.90177223638242" lon="30.350419791165947"><ele>168.0</ele><time>2026-05-03T08:31:11.001Z</time></trkpt><trkpt lat="53.90164525000874" lon="30.350348776994817"><ele>168.0</ele><time>2026-05-03T08:31:12.001Z</time></trkpt><trkpt lat="53.901556081427884" lon="30.350265051110732"><ele>168.0</ele><time>2026-05-03T08:31:13.001Z</time></trkpt><trkpt lat="53.901490487767866" lon="30.35018958019983"><ele>168.0</ele><time>2026-05-03T08:31:14.001Z</time></trkpt><trkpt lat="53.901478883939184" lon="30.350031764211746"><ele>166.0</ele><time>2026-05-03T08:31:15.001Z</time></trkpt><trkpt lat="53.90140257843171" lon="30.349914511278193"><ele>164.0</ele><time>2026-05-03T08:31:16.001Z</time></trkpt><trkpt lat="53.9012721202816" lon="30.34971462292674"><ele>162.0</ele><time>2026-05-03T08:31:17.001Z</time></trkpt><trkpt lat="53.901187548209904" lon="30.34954315320752"><ele>160.0</ele><time>2026-05-03T08:31:18.001Z</time></trkpt><trkpt lat="53.90111274960776" lon="30.349394986970022"><ele>159.0</ele><time>2026-05-03T08:31:19.001Z</time></trkpt><trkpt lat="53.90103262929147" lon="30.349258994088455"><ele>158.0</ele><time>2026-05-03T08:31:20.001Z</time></trkpt><trkpt lat="53.90091729370177" lon="30.34913124411836"><ele>157.0</ele><time>2026-05-03T08:31:21.001Z</time></trkpt><trkpt lat="53.90084072216372" lon="30.348986797111834"><ele>156.0</ele><time>2026-05-03T08:31:22.001Z</time></trkpt><trkpt lat="53.90078113622502" lon="30.348867624988035"><ele>156.0</ele><time>2026-05-03T08:31:23.001Z</time></trkpt><trkpt lat="53.90073526697086" lon="30.34877604056554"><ele>156.0</ele><time>2026-05-03T08:31:24.001Z</time></trkpt><trkpt lat="53.900680058240376" lon="30.348665808240007"><ele>156.0</ele><time>2026-05-03T08:31:26.001Z</time></trkpt><trkpt lat="53.90053861271982" lon="30.348765932837953"><ele>156.0</ele><time>2026-05-03T08:31:28.001Z</time></trkpt><trkpt lat="53.90047211197169" lon="30.348849842963073"><ele>156.0</ele><time>2026-05-03T08:31:29.001Z</time></trkpt><trkpt lat="53.900359446223916" lon="30.348956526076627"><ele>155.66666666666666</ele><time>2026-05-03T08:31:30.001Z</time></trkpt><trkpt lat="53.90026742190296" lon="30.34904966355375"><ele>155.33333333333331</ele><time>2026-05-03T08:31:31.001Z</time></trkpt><trkpt lat="53.90011114630476" lon="30.34902108200669"><ele>155.0</ele><time>2026-05-03T08:31:32.001Z</time></trkpt><trkpt lat="53.899930606404446" lon="30.349129666442206"><ele>155.0</ele><time>2026-05-03T08:31:33.001Z</time></trkpt><trkpt lat="53.89974382008379" lon="30.349197150326855"><ele>155.0</ele><time>2026-05-03T08:31:34.001Z</time></trkpt><trkpt lat="53.89959630508865" lon="30.349209062957637"><ele>155.0</ele><time>2026-05-03T08:31:35.001Z</time></trkpt><trkpt lat="53.899475768683445" lon="30.34915167446872"><ele>155.0</ele><time>2026-05-03T08:31:36.001Z</time></trkpt><trkpt lat="53.89931366663451" lon="30.349093358999138"><ele>155.0</ele><time>2026-05-03T08:31:37.001Z</time></trkpt><trkpt lat="53.89915689121973" lon="30.349036959908414"><ele>155.0</ele><time>2026-05-03T08:31:38.001Z</time></trkpt><trkpt lat="53.89904445000046" lon="30.348996509450767"><ele>155.0</ele><time>2026-05-03T08:31:39.001Z</time></trkpt><trkpt lat="53.89893622409934" lon="30.348977211492493"><ele>154.25</ele><time>2026-05-03T08:31:40.001Z</time></trkpt><trkpt lat="53.898833263575305" lon="30.34896192608193"><ele>153.5</ele><time>2026-05-03T08:31:41.001Z</time></trkpt><trkpt lat="53.898735472092845" lon="30.34896452300555"><ele>152.75</ele><time>2026-05-03T08:31:42.001Z</time></trkpt><trkpt lat="53.89862588324354" lon="30.348950671680488"><ele>152.0</ele><time>2026-05-03T08:31:43.001Z</time></trkpt><trkpt lat="53.898467275412365" lon="30.34907188451228"><ele>151.75</ele><time>2026-05-03T08:31:44.001Z</time></trkpt><trkpt lat="53.89829267334052" lon="30.349137950482778"><ele>151.5</ele><time>2026-05-03T08:31:45.001Z</time></trkpt><trkpt lat="53.89815303828613" lon="30.349186453491882"><ele>151.25</ele><time>2026-05-03T08:31:46.001Z</time></trkpt><trkpt lat="53.89806183572796" lon="30.349217418419723"><ele>151.0</ele><time>2026-05-03T08:31:47.001Z</time></trkpt><trkpt lat="53.897992555152186" lon="30.349353533835295"><ele>151.0</ele><time>2026-05-03T08:31:48.002Z</time></trkpt><trkpt lat="53.89792133413815" lon="30.349490305746933"><ele>151.0</ele><time>2026-05-03T08:31:49.002Z</time></trkpt><trkpt lat="53.897843374095046" lon="30.34966183156117"><ele>151.0</ele><time>2026-05-03T08:31:50.002Z</time></trkpt><trkpt lat="53.897776849301145" lon="30.34977029707633"><ele>151.0</ele><time>2026-05-03T08:31:51.002Z</time></trkpt><trkpt lat="53.89766070125364" lon="30.349783409373806"><ele>151.0</ele><time>2026-05-03T08:31:52.002Z</time></trkpt><trkpt lat="53.897532770586544" lon="30.349929613803106"><ele>151.5</ele><time>2026-05-03T08:31:53.002Z</time></trkpt><trkpt lat="53.89742831700036" lon="30.349998978392815"><ele>152.0</ele><time>2026-05-03T08:31:54.002Z</time></trkpt><trkpt lat="53.89736404164709" lon="30.350035973250318"><ele>152.5</ele><time>2026-05-03T08:31:55.002Z</time></trkpt><trkpt lat="53.897291756328286" lon="30.349797773757235"><ele>153.0</ele><time>2026-05-03T08:31:58.002Z</time></trkpt><trkpt lat="53.89720147679299" lon="30.34964530217676"><ele>153.0</ele><time>2026-05-03T08:31:59.002Z</time></trkpt><trkpt lat="53.89709978579106" lon="30.349502433368784"><ele>153.0</ele><time>2026-05-03T08:32:00.002Z</time></trkpt><trkpt lat="53.897062894528666" lon="30.34934334588219"><ele>153.0</ele><time>2026-05-03T08:32:01.002Z</time></trkpt><trkpt lat="53.89712419689343" lon="30.34909617487225"><ele>153.0</ele><time>2026-05-03T08:32:03.002Z</time></trkpt><trkpt lat="53.89718403848041" lon="30.34891835136958"><ele>154.5</ele><time>2026-05-03T08:32:04.002Z</time></trkpt><trkpt lat="53.897259131379734" lon="30.348662903015448"><ele>156.0</ele><time>2026-05-03T08:32:05.002Z</time></trkpt><trkpt lat="53.897293440314385" lon="30.34848733838692"><ele>157.5</ele><time>2026-05-03T08:32:06.002Z</time></trkpt><trkpt lat="53.89732059132368" lon="30.348294958080036"><ele>159.0</ele><time>2026-05-03T08:32:07.002Z</time></trkpt><trkpt lat="53.89722706562879" lon="30.348047333180865"><ele>160.66666666666666</ele><time>2026-05-03T08:32:08.002Z</time></trkpt><trkpt lat="53.89719420963605" lon="30.347874231505443"><ele>162.33333333333334</ele><time>2026-05-03T08:32:09.002Z</time></trkpt><trkpt lat="53.89712844327514" lon="30.347792560975336"><ele>164.0</ele><time>2026-05-03T08:32:10.002Z</time></trkpt><trkpt lat="53.89709159462116" lon="30.347686932569445"><ele>165.66666666666669</ele><time>2026-05-03T08:32:11.002Z</time></trkpt><trkpt lat="53.89705823186902" lon="30.347573145684752"><ele>167.33333333333334</ele><time>2026-05-03T08:32:12.002Z</time></trkpt><trkpt lat="53.89705284896482" lon="30.347448405723096"><ele>169.0</ele><time>2026-05-03T08:32:13.002Z</time></trkpt><trkpt lat="53.8970485435118" lon="30.3473150275099"><ele>169.83333333333334</ele><time>2026-05-03T08:32:14.002Z</time></trkpt><trkpt lat="53.89704535004081" lon="30.347197265975733"><ele>170.66666666666669</ele><time>2026-05-03T08:32:15.002Z</time></trkpt><trkpt lat="53.89705618801889" lon="30.347070770540718"><ele>171.5</ele><time>2026-05-03T08:32:17.002Z</time></trkpt><trkpt lat="53.89706930688235" lon="30.346945813136188"><ele>172.33333333333334</ele><time>2026-05-03T08:32:19.002Z</time></trkpt><trkpt lat="53.897106324629334" lon="30.346764351402353"><ele>173.16666666666666</ele><time>2026-05-03T08:32:27.002Z</time></trkpt><trkpt lat="53.89714238785084" lon="30.346608121258356"><ele>174.0</ele><time>2026-05-03T08:32:28.002Z</time></trkpt><trkpt lat="53.89718582278905" lon="30.34642058797239"><ele>174.25</ele><time>2026-05-03T08:32:29.002Z</time></trkpt><trkpt lat="53.897175038307296" lon="30.34618679701181"><ele>174.5</ele><time>2026-05-03T08:32:30.002Z</time></trkpt><trkpt lat="53.897149853364006" lon="30.34599280044001"><ele>174.75</ele><time>2026-05-03T08:32:31.002Z</time></trkpt><trkpt lat="53.89709156637143" lon="30.34579429141708"><ele>175.0</ele><time>2026-05-03T08:32:32.002Z</time></trkpt><trkpt lat="53.89700320898546" lon="30.34557698322828"><ele>175.66666666666669</ele><time>2026-05-03T08:32:33.002Z</time></trkpt><trkpt lat="53.896942124204806" lon="30.345289588805553"><ele>176.33333333333334</ele><time>2026-05-03T08:32:34.002Z</time></trkpt><trkpt lat="53.896891874255864" lon="30.344963082194727"><ele>177.0</ele><time>2026-05-03T08:32:35.002Z</time></trkpt><trkpt lat="53.89686504063741" lon="30.344582117395923"><ele>178.5</ele><time>2026-05-03T08:32:36.002Z</time></trkpt><trkpt lat="53.89684559681408" lon="30.344182254576314"><ele>180.0</ele><time>2026-05-03T08:32:37.002Z</time></trkpt><trkpt lat="53.896813591634185" lon="30.34376239255209"><ele>180.5</ele><time>2026-05-03T08:32:38.002Z</time></trkpt><trkpt lat="53.89677362591389" lon="30.34331731982491"><ele>181.0</ele><time>2026-05-03T08:32:39.002Z</time></trkpt><trkpt lat="53.89674449532813" lon="30.342903705539726"><ele>178.66666666666669</ele><time>2026-05-03T08:32:40.002Z</time></trkpt><trkpt lat="53.8967113308259" lon="30.34254004382604"><ele>176.33333333333334</ele><time>2026-05-03T08:32:41.002Z</time></trkpt><trkpt lat="53.89668250785744" lon="30.342207629428458"><ele>174.0</ele><time>2026-05-03T08:32:42.002Z</time></trkpt><trkpt lat="53.89666050751048" lon="30.341901039689983"><ele>174.0</ele><time>2026-05-03T08:32:43.002Z</time></trkpt><trkpt lat="53.89663890861959" lon="30.341615162265654"><ele>174.0</ele><time>2026-05-03T08:32:44.002Z</time></trkpt><trkpt lat="53.896613595413385" lon="30.34137012327291"><ele>174.0</ele><time>2026-05-03T08:32:45.002Z</time></trkpt><trkpt lat="53.89660539369436" lon="30.341194126027187"><ele>174.0</ele><time>2026-05-03T08:32:46.002Z</time></trkpt><trkpt lat="53.89662059980244" lon="30.34105132870538"><ele>174.5</ele><time>2026-05-03T08:32:47.002Z</time></trkpt><trkpt lat="53.89669017932619" lon="30.340950573872075"><ele>175.0</ele><time>2026-05-03T08:32:48.002Z</time></trkpt><trkpt lat="53.89673384786812" lon="30.340842677950647"><ele>175.5</ele><time>2026-05-03T08:32:49.002Z</time></trkpt><trkpt lat="53.896776554875025" lon="30.34074980933855"><ele>176.0</ele><time>2026-05-03T08:32:51.002Z</time></trkpt><trkpt lat="53.89680559253574" lon="30.340653488007714"><ele>176.5</ele><time>2026-05-03T08:32:53.001Z</time></trkpt><trkpt lat="53.89685344417862" lon="30.340542596827444"><ele>177.0</ele><time>2026-05-03T08:32:56.001Z</time></trkpt><trkpt lat="53.89680379242833" lon="30.34029016776812"><ele>177.33333333333334</ele><time>2026-05-03T08:32:59.001Z</time></trkpt><trkpt lat="53.896750943716015" lon="30.340212446995345"><ele>177.66666666666666</ele><time>2026-05-03T08:33:02.001Z</time></trkpt><trkpt lat="53.896673575017246" lon="30.34010175269277"><ele>178.0</ele><time>2026-05-03T08:33:04.001Z</time></trkpt><trkpt lat="53.896640035057295" lon="30.340011319206447"><ele>178.33333333333331</ele><time>2026-05-03T08:33:05.001Z</time></trkpt><trkpt lat="53.89661178915441" lon="30.33987589328917"><ele>178.66666666666666</ele><time>2026-05-03T08:33:06.001Z</time></trkpt><trkpt lat="53.89656053494916" lon="30.33972826973089"><ele>179.0</ele><time>2026-05-03T08:33:07.001Z</time></trkpt><trkpt lat="53.89651825507287" lon="30.339607217916303"><ele>179.0</ele><time>2026-05-03T08:33:09.001Z</time></trkpt><trkpt lat="53.89642980125441" lon="30.33972497474141"><ele>179.0</ele><time>2026-05-03T08:33:14.001Z</time></trkpt><trkpt lat="53.89638175923229" lon="30.33984654593731"><ele>179.0</ele><time>2026-05-03T08:33:16.001Z</time></trkpt><trkpt lat="53.89636033867187" lon="30.33998167325758"><ele>179.0</ele><time>2026-05-03T08:33:18.001Z</time></trkpt><trkpt lat="53.89632621764992" lon="30.34007164328713"><ele>179.0</ele><time>2026-05-03T08:33:20.001Z</time></trkpt><trkpt lat="53.89629512037267" lon="30.34018492348522"><ele>179.0</ele><time>2026-05-03T08:33:24.001Z</time></trkpt><trkpt lat="53.89625732671669" lon="30.340338994396262"><ele>179.0</ele><time>2026-05-03T08:33:26.001Z</time></trkpt><trkpt lat="53.89628511947515" lon="30.340442116566432"><ele>179.0</ele><time>2026-05-03T08:33:27.001Z</time></trkpt><trkpt lat="53.89628999386893" lon="30.340579608069323"><ele>179.0</ele><time>2026-05-03T08:33:29.001Z</time></trkpt><trkpt lat="53.89629267444882" lon="30.34075894547542"><ele>179.0</ele><time>2026-05-03T08:36:14.001Z</time></trkpt><trkpt lat="53.896367287889184" lon="30.34084819481697"><ele>179.0</ele><time>2026-05-03T08:36:15.001Z</time></trkpt><trkpt lat="53.89645734495642" lon="30.340978493002478"><ele>179.2</ele><time>2026-05-03T08:36:16.001Z</time></trkpt><trkpt lat="53.89649209861163" lon="30.34107750014501"><ele>179.39999999999998</ele><time>2026-05-03T08:36:17.001Z</time></trkpt><trkpt lat="53.896544780232105" lon="30.341156061647837"><ele>179.6</ele><time>2026-05-03T08:36:21.001Z</time></trkpt><trkpt lat="53.896678967902" lon="30.340947714769143"><ele>179.8</ele><time>2026-05-03T08:36:25.001Z</time></trkpt><trkpt lat="53.89673841169297" lon="30.340820606734336"><ele>180.0</ele><time>2026-05-03T08:36:26.001Z</time></trkpt><trkpt lat="53.89678652708883" lon="30.34069434104185"><ele>180.0</ele><time>2026-05-03T08:36:27.001Z</time></trkpt><trkpt lat="53.896827984969136" lon="30.340598894871896"><ele>180.0</ele><time>2026-05-03T08:36:28.001Z</time></trkpt><trkpt lat="53.8968842382142" lon="30.340521110371856"><ele>180.0</ele><time>2026-05-03T08:36:30.001Z</time></trkpt><trkpt lat="53.896734317226105" lon="30.34021088921967"><ele>180.0</ele><time>2026-05-03T08:36:32.001Z</time></trkpt><trkpt lat="53.89667478464651" lon="30.34008050893004"><ele>180.0</ele><time>2026-05-03T08:36:33.001Z</time></trkpt><trkpt lat="53.89661580325267" lon="30.339900888942942"><ele>180.0</ele><time>2026-05-03T08:36:34Z</time></trkpt><trkpt lat="53.89654758007322" lon="30.339691148037634"><ele>180.0</ele><time>2026-05-03T08:36:35Z</time></trkpt><trkpt lat="53.8964880797822" lon="30.339520853075697"><ele>180.0</ele><time>2026-05-03T08:36:36Z</time></trkpt><trkpt lat="53.89642373699383" lon="30.339325389343767"><ele>180.0</ele><time>2026-05-03T08:36:37Z</time></trkpt><trkpt lat="53.896317128522895" lon="30.33908720629512"><ele>180.0</ele><time>2026-05-03T08:36:38Z</time></trkpt><trkpt lat="53.89624653320271" lon="30.338837610985962"><ele>180.0</ele><time>2026-05-03T08:36:39Z</time></trkpt><trkpt lat="53.89618562608825" lon="30.33862817403262"><ele>180.2</ele><time>2026-05-03T08:36:40Z</time></trkpt><trkpt lat="53.89613226772351" lon="30.33844852633372"><ele>180.4</ele><time>2026-05-03T08:36:41Z</time></trkpt><trkpt lat="53.89609106626532" lon="30.33830183897694"><ele>180.60000000000002</ele><time>2026-05-03T08:36:42Z</time></trkpt><trkpt lat="53.89604317940135" lon="30.3381922928061"><ele>180.8</ele><time>2026-05-03T08:36:43Z</time></trkpt><trkpt lat="53.895998217945845" lon="30.33805489875549"><ele>181.0</ele><time>2026-05-03T08:36:45Z</time></trkpt><trkpt lat="53.89595575925207" lon="30.33786619398465"><ele>181.0</ele><time>2026-05-03T08:36:47.001Z</time></trkpt><trkpt lat="53.89595271899477" lon="30.337731641237188"><ele>181.0</ele><time>2026-05-03T08:36:48.001Z</time></trkpt><trkpt lat="53.895991161313376" lon="30.3375837142288"><ele>181.0</ele><time>2026-05-03T08:36:49.001Z</time></trkpt><trkpt lat="53.89607790140653" lon="30.337425089413394"><ele>181.0</ele><time>2026-05-03T08:36:50.001Z</time></trkpt><trkpt lat="53.89612892388462" lon="30.337310857884045"><ele>181.0</ele><time>2026-05-03T08:36:51.001Z</time></trkpt><trkpt lat="53.89616903848194" lon="30.337221047431626"><ele>181.0</ele><time>2026-05-03T08:36:52.001Z</time></trkpt><trkpt lat="53.89622447527771" lon="30.337096931899676"><ele>181.0</ele><time>2026-05-03T08:36:54.001Z</time></trkpt><trkpt lat="53.896102911355285" lon="30.336877700790005"><ele>181.0</ele><time>2026-05-03T08:36:56.001Z</time></trkpt><trkpt lat="53.89603580637594" lon="30.336849213420763"><ele>181.0</ele><time>2026-05-03T08:36:58.001Z</time></trkpt><trkpt lat="53.89593338292689" lon="30.336736024429126"><ele>181.0</ele><time>2026-05-03T08:37:14Z</time></trkpt><trkpt lat="53.8958396660718" lon="30.33661292985197"><ele>181.0</ele><time>2026-05-03T08:37:16Z</time></trkpt><trkpt lat="53.895787369748994" lon="30.336543859748748"><ele>181.0</ele><time>2026-05-03T08:37:17Z</time></trkpt><trkpt lat="53.89569821195864" lon="30.336444471590905"><ele>181.0</ele><time>2026-05-03T08:37:18Z</time></trkpt><trkpt lat="53.895598417159746" lon="30.336276724647604"><ele>181.0</ele><time>2026-05-03T08:37:19Z</time></trkpt><trkpt lat="53.89549675135277" lon="30.336139679743887"><ele>181.0</ele><time>2026-05-03T08:37:20Z</time></trkpt><trkpt lat="53.895394447157635" lon="30.33600372662596"><ele>181.0</ele><time>2026-05-03T08:37:21Z</time></trkpt><trkpt lat="53.89529356644296" lon="30.335864082908476"><ele>181.0</ele><time>2026-05-03T08:37:22Z</time></trkpt><trkpt lat="53.89517617362913" lon="30.335703751607767"><ele>181.0</ele><time>2026-05-03T08:37:23Z</time></trkpt><trkpt lat="53.895098081388596" lon="30.335457871426097"><ele>180.33333333333334</ele><time>2026-05-03T08:37:24Z</time></trkpt><trkpt lat="53.89498979312656" lon="30.335188399713637"><ele>179.66666666666666</ele><time>2026-05-03T08:37:25Z</time></trkpt><trkpt lat="53.8948955319404" lon="30.3349357366675"><ele>179.0</ele><time>2026-05-03T08:37:26Z</time></trkpt><trkpt lat="53.89481613319704" lon="30.33468689152775"><ele>179.0</ele><time>2026-05-03T08:37:27Z</time></trkpt><trkpt lat="53.89473052692726" lon="30.334418591217375"><ele>179.0</ele><time>2026-05-03T08:37:28Z</time></trkpt><trkpt lat="53.894645404345304" lon="30.33415196174095"><ele>179.0</ele><time>2026-05-03T08:37:29Z</time></trkpt><trkpt lat="53.89455903866071" lon="30.33388114030512"><ele>178.66666666666666</ele><time>2026-05-03T08:37:30Z</time></trkpt><trkpt lat="53.89446521843728" lon="30.333586426412552"><ele>178.33333333333334</ele><time>2026-05-03T08:37:31Z</time></trkpt><trkpt lat="53.89435212615785" lon="30.333231767855125"><ele>178.0</ele><time>2026-05-03T08:37:32Z</time></trkpt><trkpt lat="53.894228033954825" lon="30.33284246099962"><ele>173.5</ele><time>2026-05-03T08:37:33Z</time></trkpt><trkpt lat="53.89410422369516" lon="30.332455349272717"><ele>169.0</ele><time>2026-05-03T08:37:34Z</time></trkpt><trkpt lat="53.89398243462743" lon="30.332072507592684"><ele>169.0</ele><time>2026-05-03T08:37:35Z</time></trkpt><trkpt lat="53.89385645048265" lon="30.331698106537576"><ele>169.0</ele><time>2026-05-03T08:37:36Z</time></trkpt><trkpt lat="53.89375051322214" lon="30.33131134720273"><ele>169.0</ele><time>2026-05-03T08:37:37Z</time></trkpt><trkpt lat="53.89363732755725" lon="30.33093616009342"><ele>169.0</ele><time>2026-05-03T08:37:38Z</time></trkpt><trkpt lat="53.89354235876528" lon="30.33059670100306"><ele>169.0</ele><time>2026-05-03T08:37:39Z</time></trkpt><trkpt lat="53.8934666913573" lon="30.330242836916693"><ele>169.0</ele><time>2026-05-03T08:37:40Z</time></trkpt><trkpt lat="53.89339714767615" lon="30.329844153766462"><ele>166.0</ele><time>2026-05-03T08:37:41Z</time></trkpt><trkpt lat="53.893358739027384" lon="30.329472189765905"><ele>163.0</ele><time>2026-05-03T08:37:42Z</time></trkpt><trkpt lat="53.89330772692626" lon="30.329125259003096"><ele>160.0</ele><time>2026-05-03T08:37:43Z</time></trkpt><trkpt lat="53.893255308397634" lon="30.32877124841582"><ele>160.0</ele><time>2026-05-03T08:37:44Z</time></trkpt><trkpt lat="53.89319870781903" lon="30.328385067807616"><ele>160.0</ele><time>2026-05-03T08:37:45Z</time></trkpt><trkpt lat="53.89314367181937" lon="30.32800143319561"><ele>160.5</ele><time>2026-05-03T08:37:46Z</time></trkpt><trkpt lat="53.89308891304535" lon="30.32761749467091"><ele>161.0</ele><time>2026-05-03T08:37:47Z</time></trkpt><trkpt lat="53.89303690994952" lon="30.327253005237406"><ele>159.66666666666666</ele><time>2026-05-03T08:37:48Z</time></trkpt><trkpt lat="53.89300977636172" lon="30.32691494701876"><ele>158.33333333333334</ele><time>2026-05-03T08:37:49Z</time></trkpt><trkpt lat="53.8930021299138" lon="30.32662319653888"><ele>157.0</ele><time>2026-05-03T08:37:50Z</time></trkpt><trkpt lat="53.8930102303468" lon="30.32638809010362"><ele>155.83333333333334</ele><time>2026-05-03T08:37:51Z</time></trkpt><trkpt lat="53.89301616164942" lon="30.32621833170286"><ele>154.66666666666669</ele><time>2026-05-03T08:37:52Z</time></trkpt><trkpt lat="53.893020462206714" lon="30.32609608705341"><ele>153.5</ele><time>2026-05-03T08:37:53Z</time></trkpt><trkpt lat="53.89302533463954" lon="30.325957585795695"><ele>152.33333333333334</ele><time>2026-05-03T08:37:55Z</time></trkpt><trkpt lat="53.893029374690556" lon="30.325842749228865"><ele>151.16666666666666</ele><time>2026-05-03T08:38:17Z</time></trkpt><trkpt lat="53.89301446480422" lon="30.325716242536323"><ele>150.0</ele><time>2026-05-03T08:38:18Z</time></trkpt><trkpt lat="53.893069933008725" lon="30.325551931955836"><ele>149.0</ele><time>2026-05-03T08:38:19Z</time></trkpt><trkpt lat="53.89307992550301" lon="30.325341539978176"><ele>148.0</ele><time>2026-05-03T08:38:20Z</time></trkpt><trkpt lat="53.89309439607254" lon="30.325078995819773"><ele>147.0</ele><time>2026-05-03T08:38:21Z</time></trkpt><trkpt lat="53.89311055716437" lon="30.324809932582916"><ele>146.0</ele><time>2026-05-03T08:38:22Z</time></trkpt><trkpt lat="53.893127376821475" lon="30.3245173822443"><ele>146.0</ele><time>2026-05-03T08:38:23Z</time></trkpt><trkpt lat="53.89314590274471" lon="30.32419206388192"><ele>146.0</ele><time>2026-05-03T08:38:24Z</time></trkpt><trkpt lat="53.89316538514992" lon="30.323849274008822"><ele>146.0</ele><time>2026-05-03T08:38:25Z</time></trkpt><trkpt lat="53.89318607725083" lon="30.323487027998294"><ele>146.33333333333331</ele><time>2026-05-03T08:38:26Z</time></trkpt><trkpt lat="53.893206929282854" lon="30.323121981965507"><ele>146.66666666666666</ele><time>2026-05-03T08:38:27Z</time></trkpt><trkpt lat="53.893226517738256" lon="30.322775126226983"><ele>147.0</ele><time>2026-05-03T08:38:28Z</time></trkpt><trkpt lat="53.89324623988431" lon="30.322431917147377"><ele>149.66666666666666</ele><time>2026-05-03T08:38:29Z</time></trkpt><trkpt lat="53.89326318703261" lon="30.322103776734433"><ele>152.33333333333331</ele><time>2026-05-03T08:38:30Z</time></trkpt><trkpt lat="53.89328003523415" lon="30.321763309135882"><ele>155.0</ele><time>2026-05-03T08:38:31Z</time></trkpt><trkpt lat="53.89329752970218" lon="30.321409781610846"><ele>156.33333333333331</ele><time>2026-05-03T08:38:32Z</time></trkpt><trkpt lat="53.89331390364972" lon="30.321072207862542"><ele>157.66666666666666</ele><time>2026-05-03T08:38:33Z</time></trkpt><trkpt lat="53.89333072016639" lon="30.32072772551295"><ele>159.0</ele><time>2026-05-03T08:38:34Z</time></trkpt><trkpt lat="53.89334688054327" lon="30.320397566961073"><ele>160.33333333333334</ele><time>2026-05-03T08:38:35Z</time></trkpt><trkpt lat="53.893363863526226" lon="30.32006318642855"><ele>161.66666666666669</ele><time>2026-05-03T08:38:36Z</time></trkpt><trkpt lat="53.893382291856746" lon="30.319726354991776"><ele>163.0</ele><time>2026-05-03T08:38:37Z</time></trkpt><trkpt lat="53.89340098796338" lon="30.319379943023545"><ele>164.33333333333334</ele><time>2026-05-03T08:38:38Z</time></trkpt><trkpt lat="53.893419005147926" lon="30.319044380443497"><ele>165.66666666666666</ele><time>2026-05-03T08:38:39Z</time></trkpt><trkpt lat="53.8934219209624" lon="30.318759344274277"><ele>167.0</ele><time>2026-05-03T08:38:40Z</time></trkpt><trkpt lat="53.893432678229814" lon="30.318513592157053"><ele>167.8</ele><time>2026-05-03T08:38:41Z</time></trkpt><trkpt lat="53.89344226833453" lon="30.318295283739953"><ele>168.6</ele><time>2026-05-03T08:38:42Z</time></trkpt><trkpt lat="53.89345518290347" lon="30.318151277669568"><ele>169.4</ele><time>2026-05-03T08:38:43Z</time></trkpt><trkpt lat="53.89347025851517" lon="30.317965757076202"><ele>170.20000000000002</ele><time>2026-05-03T08:38:45Z</time></trkpt><trkpt lat="53.8934763724143" lon="30.317835660737625"><ele>171.0</ele><time>2026-05-03T08:38:47Z</time></trkpt><trkpt lat="53.89349096274991" lon="30.317727498827335"><ele>171.60000000000002</ele><time>2026-05-03T08:38:49Z</time></trkpt><trkpt lat="53.8934952394823" lon="30.31757474823214"><ele>172.2</ele><time>2026-05-03T08:38:53.001Z</time></trkpt><trkpt lat="53.893509763288" lon="30.317423880936968"><ele>172.8</ele><time>2026-05-03T08:38:54.001Z</time></trkpt><trkpt lat="53.8935169663805" lon="30.317232741300053"><ele>173.39999999999998</ele><time>2026-05-03T08:38:55.001Z</time></trkpt><trkpt lat="53.89352424100721" lon="30.317037840226824"><ele>174.0</ele><time>2026-05-03T08:38:56.001Z</time></trkpt><trkpt lat="53.893541172455166" lon="30.316772473837556"><ele>174.66666666666666</ele><time>2026-05-03T08:38:57.001Z</time></trkpt><trkpt lat="53.893552169521634" lon="30.316519427078532"><ele>175.33333333333331</ele><time>2026-05-03T08:38:58.001Z</time></trkpt><trkpt lat="53.893584126614435" lon="30.31625423979463"><ele>176.0</ele><time>2026-05-03T08:38:59.001Z</time></trkpt><trkpt lat="53.89360239176193" lon="30.315998124844363"><ele>176.5</ele><time>2026-05-03T08:39:00.001Z</time></trkpt><trkpt lat="53.89361673863044" lon="30.315793239817207"><ele>177.0</ele><time>2026-05-03T08:39:01.001Z</time></trkpt><trkpt lat="53.89363606790417" lon="30.315556084608797"><ele>177.5</ele><time>2026-05-03T08:39:02.001Z</time></trkpt><trkpt lat="53.893657909565846" lon="30.315289407766635"><ele>178.0</ele><time>2026-05-03T08:39:03.001Z</time></trkpt><trkpt lat="53.8936994548933" lon="30.315001756423236"><ele>179.0</ele><time>2026-05-03T08:39:04.001Z</time></trkpt><trkpt lat="53.89373043372485" lon="30.314686754637208"><ele>180.0</ele><time>2026-05-03T08:39:05.001Z</time></trkpt><trkpt lat="53.89375601447772" lon="30.314366428114553"><ele>181.0</ele><time>2026-05-03T08:39:06.001Z</time></trkpt><trkpt lat="53.893782595460166" lon="30.31405767857516"><ele>180.66666666666669</ele><time>2026-05-03T08:39:07.001Z</time></trkpt><trkpt lat="53.89380409951725" lon="30.313763868697144"><ele>180.33333333333334</ele><time>2026-05-03T08:39:08.001Z</time></trkpt><trkpt lat="53.89383210523086" lon="30.31344942999263"><ele>180.0</ele><time>2026-05-03T08:39:09.001Z</time></trkpt><trkpt lat="53.89385372820683" lon="30.313108191504362"><ele>181.0</ele><time>2026-05-03T08:39:10.001Z</time></trkpt><trkpt lat="53.893858676866245" lon="30.31275738528324"><ele>182.0</ele><time>2026-05-03T08:39:11.001Z</time></trkpt><trkpt lat="53.89384335085449" lon="30.312377171158534"><ele>183.0</ele><time>2026-05-03T08:39:12.001Z</time></trkpt><trkpt lat="53.89383758533911" lon="30.31198137702253"><ele>183.66666666666666</ele><time>2026-05-03T08:39:13.001Z</time></trkpt><trkpt lat="53.89380625759263" lon="30.311601624049203"><ele>184.33333333333331</ele><time>2026-05-03T08:39:14.001Z</time></trkpt><trkpt lat="53.89378941783692" lon="30.311250332501004"><ele>185.0</ele><time>2026-05-03T08:39:15.001Z</time></trkpt><trkpt lat="53.89376626840905" lon="30.31095885414625"><ele>185.0</ele><time>2026-05-03T08:39:16.001Z</time></trkpt><trkpt lat="53.89373769866252" lon="30.310682055029847"><ele>185.0</ele><time>2026-05-03T08:39:17Z</time></trkpt><trkpt lat="53.89371188834112" lon="30.310459774888862"><ele>185.0</ele><time>2026-05-03T08:39:18Z</time></trkpt><trkpt lat="53.89368886698038" lon="30.310291461496902"><ele>185.0</ele><time>2026-05-03T08:39:19Z</time></trkpt><trkpt lat="53.893667112218935" lon="30.310126332853958"><ele>185.0</ele><time>2026-05-03T08:39:20Z</time></trkpt><trkpt lat="53.89364313844949" lon="30.310021119243626"><ele>185.0</ele><time>2026-05-03T08:39:22Z</time></trkpt><trkpt lat="53.893631098336805" lon="30.30990006351561"><ele>185.0</ele><time>2026-05-03T08:39:29Z</time></trkpt><trkpt lat="53.893591669022015" lon="30.309672754166552"><ele>185.0</ele><time>2026-05-03T08:39:31Z</time></trkpt><trkpt lat="53.89356620510508" lon="30.30952859575561"><ele>185.0</ele><time>2026-05-03T08:39:32Z</time></trkpt><trkpt lat="53.89353844043318" lon="30.309358344266233"><ele>185.0</ele><time>2026-05-03T08:39:33Z</time></trkpt><trkpt lat="53.89350693661754" lon="30.309162472260105"><ele>185.0</ele><time>2026-05-03T08:39:34Z</time></trkpt><trkpt lat="53.89347301885093" lon="30.308960385986932"><ele>185.0</ele><time>2026-05-03T08:39:35Z</time></trkpt><trkpt lat="53.893429749461845" lon="30.30873994039506"><ele>185.0</ele><time>2026-05-03T08:39:36Z</time></trkpt><trkpt lat="53.89339202341252" lon="30.30853223251426"><ele>184.66666666666666</ele><time>2026-05-03T08:39:37Z</time></trkpt><trkpt lat="53.89335508100533" lon="30.308289869779756"><ele>184.33333333333334</ele><time>2026-05-03T08:39:38Z</time></trkpt><trkpt lat="53.893307663538444" lon="30.308017494457225"><ele>184.0</ele><time>2026-05-03T08:39:39Z</time></trkpt><trkpt lat="53.89324972440764" lon="30.3077206615076"><ele>185.0</ele><time>2026-05-03T08:39:40Z</time></trkpt><trkpt lat="53.8932025162619" lon="30.307429021592203"><ele>186.0</ele><time>2026-05-03T08:39:41Z</time></trkpt><trkpt lat="53.89315896022502" lon="30.30713274934769"><ele>187.0</ele><time>2026-05-03T08:39:42Z</time></trkpt><trkpt lat="53.89310160655257" lon="30.30679667351834"><ele>187.66666666666669</ele><time>2026-05-03T08:39:43Z</time></trkpt><trkpt lat="53.89304577210539" lon="30.30646200589499"><ele>188.33333333333334</ele><time>2026-05-03T08:39:44Z</time></trkpt><trkpt lat="53.8930000908646" lon="30.306137186935846"><ele>189.0</ele><time>2026-05-03T08:39:45Z</time></trkpt><trkpt lat="53.892953806537776" lon="30.305834868953944"><ele>189.66666666666666</ele><time>2026-05-03T08:39:46Z</time></trkpt><trkpt lat="53.89290722189383" lon="30.30555538574579"><ele>190.33333333333331</ele><time>2026-05-03T08:39:47Z</time></trkpt><trkpt lat="53.8928583341003" lon="30.30525203660106"><ele>191.0</ele><time>2026-05-03T08:39:48Z</time></trkpt><trkpt lat="53.892809302624975" lon="30.304934522656097"><ele>190.33333333333331</ele><time>2026-05-03T08:39:49Z</time></trkpt><trkpt lat="53.89276512532753" lon="30.304624434771572"><ele>189.66666666666666</ele><time>2026-05-03T08:39:50Z</time></trkpt><trkpt lat="53.8927191874536" lon="30.304310661307206"><ele>189.0</ele><time>2026-05-03T08:39:51Z</time></trkpt><trkpt lat="53.89266779503414" lon="30.304018102529266"><ele>188.0</ele><time>2026-05-03T08:39:52Z</time></trkpt><trkpt lat="53.89261997442294" lon="30.30371813273733"><ele>187.0</ele><time>2026-05-03T08:39:53Z</time></trkpt><trkpt lat="53.892570919706934" lon="30.30342092022061"><ele>186.0</ele><time>2026-05-03T08:39:54Z</time></trkpt><trkpt lat="53.89252107897123" lon="30.30311254758786"><ele>186.0</ele><time>2026-05-03T08:39:55Z</time></trkpt><trkpt lat="53.892469712330744" lon="30.30280674225879"><ele>186.0</ele><time>2026-05-03T08:39:56Z</time></trkpt><trkpt lat="53.892422414820324" lon="30.302499414098616"><ele>186.0</ele><time>2026-05-03T08:39:57Z</time></trkpt><trkpt lat="53.89237693714096" lon="30.302188081234743"><ele>186.0</ele><time>2026-05-03T08:39:58Z</time></trkpt><trkpt lat="53.89233052245028" lon="30.301889599689215"><ele>186.0</ele><time>2026-05-03T08:39:59Z</time></trkpt><trkpt lat="53.89228914271034" lon="30.301642103093993"><ele>186.0</ele><time>2026-05-03T08:40:00Z</time></trkpt><trkpt lat="53.89225603222487" lon="30.301423801928017"><ele>186.0</ele><time>2026-05-03T08:40:01Z</time></trkpt><trkpt lat="53.89222279114567" lon="30.301232002024076"><ele>186.0</ele><time>2026-05-03T08:40:02Z</time></trkpt><trkpt lat="53.892189931600285" lon="30.30103746314944"><ele>186.0</ele><time>2026-05-03T08:40:03Z</time></trkpt><trkpt lat="53.89215849047876" lon="30.300835875517958"><ele>186.0</ele><time>2026-05-03T08:40:04Z</time></trkpt><trkpt lat="53.892122657844084" lon="30.300591825179982"><ele>185.66666666666666</ele><time>2026-05-03T08:40:05Z</time></trkpt><trkpt lat="53.89208525398841" lon="30.30032802267562"><ele>185.33333333333331</ele><time>2026-05-03T08:40:06Z</time></trkpt><trkpt lat="53.89204934258779" lon="30.30005488559469"><ele>185.0</ele><time>2026-05-03T08:40:07Z</time></trkpt><trkpt lat="53.89202655542588" lon="30.29980901605911"><ele>184.75</ele><time>2026-05-03T08:40:08Z</time></trkpt><trkpt lat="53.89199340370771" lon="30.29960904225325"><ele>184.5</ele><time>2026-05-03T08:40:09Z</time></trkpt><trkpt lat="53.8919744752922" lon="30.299486477218053"><ele>184.25</ele><time>2026-05-03T08:40:10Z</time></trkpt><trkpt lat="53.89199152500802" lon="30.299335771245918"><ele>184.0</ele><time>2026-05-03T08:40:12Z</time></trkpt><trkpt lat="53.892192185471885" lon="30.299196923407745"><ele>184.0</ele><time>2026-05-03T08:40:14Z</time></trkpt><trkpt lat="53.89230405393149" lon="30.299093008529354"><ele>184.0</ele><time>2026-05-03T08:40:15Z</time></trkpt><trkpt lat="53.89242285339154" lon="30.298950979782873"><ele>184.0</ele><time>2026-05-03T08:40:16Z</time></trkpt><trkpt lat="53.89256667497354" lon="30.298849245853976"><ele>184.0</ele><time>2026-05-03T08:40:17Z</time></trkpt><trkpt lat="53.89272295567323" lon="30.298704270337208"><ele>183.75</ele><time>2026-05-03T08:40:18Z</time></trkpt><trkpt lat="53.89286767901909" lon="30.298535772045337"><ele>183.5</ele><time>2026-05-03T08:40:19Z</time></trkpt><trkpt lat="53.89298918723496" lon="30.298412278013988"><ele>183.25</ele><time>2026-05-03T08:40:20Z</time></trkpt><trkpt lat="53.89307877382625" lon="30.298315643482784"><ele>183.0</ele><time>2026-05-03T08:40:21Z</time></trkpt><trkpt lat="53.89316137064135" lon="30.298280067997627"><ele>183.0</ele><time>2026-05-03T08:40:22Z</time></trkpt><trkpt lat="53.89321859538816" lon="30.298216979131485"><ele>183.0</ele><time>2026-05-03T08:40:23Z</time></trkpt><trkpt lat="53.893308919697574" lon="30.29830571938817"><ele>183.0</ele><time>2026-05-03T08:40:25Z</time></trkpt><trkpt lat="53.89334106532039" lon="30.298479335533457"><ele>183.0</ele><time>2026-05-03T08:40:27Z</time></trkpt><trkpt lat="53.89321908671944" lon="30.2986080034237"><ele>183.0</ele><time>2026-05-03T08:40:29Z</time></trkpt><trkpt lat="53.89311339007102" lon="30.29869319813623"><ele>183.0</ele><time>2026-05-03T08:40:30Z</time></trkpt><trkpt lat="53.89298366021413" lon="30.29881557755955"><ele>183.0</ele><time>2026-05-03T08:40:31Z</time></trkpt><trkpt lat="53.892828855126325" lon="30.298961695706126"><ele>183.0</ele><time>2026-05-03T08:40:32Z</time></trkpt><trkpt lat="53.892664676076116" lon="30.29911142514768"><ele>183.33333333333334</ele><time>2026-05-03T08:40:33Z</time></trkpt><trkpt lat="53.89248360394611" lon="30.299289138523218"><ele>183.66666666666669</ele><time>2026-05-03T08:40:34Z</time></trkpt><trkpt lat="53.89229148032694" lon="30.29949129646715"><ele>184.0</ele><time>2026-05-03T08:40:35Z</time></trkpt><trkpt lat="53.89210436866908" lon="30.299728498744972"><ele>184.5</ele><time>2026-05-03T08:40:36Z</time></trkpt><trkpt lat="53.891914343625835" lon="30.300019289480986"><ele>185.0</ele><time>2026-05-03T08:40:37Z</time></trkpt><trkpt lat="53.89172054036712" lon="30.300341051796195"><ele>184.5</ele><time>2026-05-03T08:40:38Z</time></trkpt><trkpt lat="53.89155243901729" lon="30.30069331653709"><ele>184.0</ele><time>2026-05-03T08:40:39Z</time></trkpt><trkpt lat="53.8913772959195" lon="30.3010267321933"><ele>183.5</ele><time>2026-05-03T08:40:40Z</time></trkpt><trkpt lat="53.891220471085" lon="30.301419216489865"><ele>183.0</ele><time>2026-05-03T08:40:41Z</time></trkpt><trkpt lat="53.89108397465443" lon="30.30180886915214"><ele>183.0</ele><time>2026-05-03T08:40:42Z</time></trkpt><trkpt lat="53.89094840294585" lon="30.302165539531575"><ele>183.0</ele><time>2026-05-03T08:40:43Z</time></trkpt><trkpt lat="53.89082757507442" lon="30.302490207865848"><ele>182.66666666666666</ele><time>2026-05-03T08:40:44Z</time></trkpt><trkpt lat="53.89070936773123" lon="30.30279572526132"><ele>182.33333333333331</ele><time>2026-05-03T08:40:45Z</time></trkpt><trkpt lat="53.89059063337303" lon="30.30309513923254"><ele>182.0</ele><time>2026-05-03T08:40:46Z</time></trkpt><trkpt lat="53.89048219057432" lon="30.303394592030596"><ele>182.0</ele><time>2026-05-03T08:40:47Z</time></trkpt><trkpt lat="53.89037332293678" lon="30.303714700749598"><ele>182.0</ele><time>2026-05-03T08:40:48Z</time></trkpt><trkpt lat="53.89026152962561" lon="30.30401058840385"><ele>182.0</ele><time>2026-05-03T08:40:49Z</time></trkpt><trkpt lat="53.89015386592016" lon="30.30427215030748"><ele>181.66666666666666</ele><time>2026-05-03T08:40:50Z</time></trkpt><trkpt lat="53.89004738472795" lon="30.30451608934229"><ele>181.33333333333334</ele><time>2026-05-03T08:40:51Z</time></trkpt><trkpt lat="53.88993916387638" lon="30.304765073060704"><ele>181.0</ele><time>2026-05-03T08:40:52Z</time></trkpt><trkpt lat="53.889851892796955" lon="30.305008859470178"><ele>180.66666666666669</ele><time>2026-05-03T08:40:53Z</time></trkpt><trkpt lat="53.889772071313885" lon="30.305287888754684"><ele>180.33333333333334</ele><time>2026-05-03T08:40:54Z</time></trkpt><trkpt lat="53.889668514639" lon="30.305573656887773"><ele>180.0</ele><time>2026-05-03T08:40:55Z</time></trkpt><trkpt lat="53.88953406801632" lon="30.3058798713249"><ele>179.0</ele><time>2026-05-03T08:40:56Z</time></trkpt><trkpt lat="53.889399417104705" lon="30.30621276679839"><ele>178.0</ele><time>2026-05-03T08:40:57Z</time></trkpt><trkpt lat="53.889262591408624" lon="30.306558695361915"><ele>177.5</ele><time>2026-05-03T08:40:58.001Z</time></trkpt><trkpt lat="53.88912608568962" lon="30.306908403108537"><ele>177.0</ele><time>2026-05-03T08:40:59.001Z</time></trkpt><trkpt lat="53.88897818250247" lon="30.307250992029598"><ele>175.0</ele><time>2026-05-03T08:41:00.001Z</time></trkpt><trkpt lat="53.888825463071825" lon="30.307596394240765"><ele>173.0</ele><time>2026-05-03T08:41:01.001Z</time></trkpt><trkpt lat="53.888686557348876" lon="30.307935487158176"><ele>173.0</ele><time>2026-05-03T08:41:02.001Z</time></trkpt><trkpt lat="53.88855037905781" lon="30.308266846881082"><ele>173.0</ele><time>2026-05-03T08:41:03.001Z</time></trkpt><trkpt lat="53.88840652805511" lon="30.3085784837534"><ele>173.0</ele><time>2026-05-03T08:41:04.001Z</time></trkpt><trkpt lat="53.888244164502176" lon="30.308861086076334"><ele>173.0</ele><time>2026-05-03T08:41:05.001Z</time></trkpt><trkpt lat="53.888089103787514" lon="30.309097556430576"><ele>173.0</ele><time>2026-05-03T08:41:06.001Z</time></trkpt><trkpt lat="53.88792282333588" lon="30.309325320586854"><ele>171.0</ele><time>2026-05-03T08:41:07.001Z</time></trkpt><trkpt lat="53.88777432334882" lon="30.3095150091905"><ele>169.0</ele><time>2026-05-03T08:41:08.001Z</time></trkpt><trkpt lat="53.88761599853217" lon="30.30970200827716"><ele>167.0</ele><time>2026-05-03T08:41:09.001Z</time></trkpt><trkpt lat="53.88747842989391" lon="30.309845354446587"><ele>165.0</ele><time>2026-05-03T08:41:10.001Z</time></trkpt><trkpt lat="53.887350020485556" lon="30.309969396145608"><ele>163.0</ele><time>2026-05-03T08:41:11.001Z</time></trkpt><trkpt lat="53.8872117446124" lon="30.310079222287317"><ele>161.0</ele><time>2026-05-03T08:41:12.001Z</time></trkpt><trkpt lat="53.887075209155476" lon="30.31017333656035"><ele>159.0</ele><time>2026-05-03T08:41:13.001Z</time></trkpt><trkpt lat="53.88692212939734" lon="30.31026565321728"><ele>159.0</ele><time>2026-05-03T08:41:14.001Z</time></trkpt><trkpt lat="53.88676916093691" lon="30.310341811799603"><ele>159.0</ele><time>2026-05-03T08:41:15.001Z</time></trkpt><trkpt lat="53.88661231059544" lon="30.310419832853313"><ele>159.0</ele><time>2026-05-03T08:41:16.001Z</time></trkpt><trkpt lat="53.886470480228866" lon="30.310519923428178"><ele>156.0</ele><time>2026-05-03T08:41:17.001Z</time></trkpt><trkpt lat="53.88631554732278" lon="30.31059915114281"><ele>153.0</ele><time>2026-05-03T08:41:18.001Z</time></trkpt><trkpt lat="53.88614957093592" lon="30.31060138076544"><ele>150.0</ele><time>2026-05-03T08:41:19.001Z</time></trkpt><trkpt lat="53.88598814829109" lon="30.310669242215216"><ele>149.0</ele><time>2026-05-03T08:41:20.001Z</time></trkpt><trkpt lat="53.88581889379331" lon="30.31074323748776"><ele>148.0</ele><time>2026-05-03T08:41:21.001Z</time></trkpt><trkpt lat="53.88564157295915" lon="30.310817552330537"><ele>147.0</ele><time>2026-05-03T08:41:22.001Z</time></trkpt><trkpt lat="53.885484394286465" lon="30.310867309216334"><ele>147.0</ele><time>2026-05-03T08:41:23.001Z</time></trkpt><trkpt lat="53.88531462515029" lon="30.310928115277083"><ele>147.0</ele><time>2026-05-03T08:41:24.001Z</time></trkpt><trkpt lat="53.88515213807916" lon="30.310986002589775"><ele>147.0</ele><time>2026-05-03T08:41:25.001Z</time></trkpt><trkpt lat="53.884989758089034" lon="30.31104893096586"><ele>145.0</ele><time>2026-05-03T08:41:26.001Z</time></trkpt><trkpt lat="53.8848256495347" lon="30.31110689929356"><ele>143.0</ele><time>2026-05-03T08:41:27.001Z</time></trkpt><trkpt lat="53.88466018409489" lon="30.311171454173856"><ele>141.0</ele><time>2026-05-03T08:41:28.001Z</time></trkpt><trkpt lat="53.884491069697404" lon="30.311245097056304"><ele>141.0</ele><time>2026-05-03T08:41:29.001Z</time></trkpt><trkpt lat="53.884341490746664" lon="30.31129357666491"><ele>141.0</ele><time>2026-05-03T08:41:30.001Z</time></trkpt><trkpt lat="53.88418454636931" lon="30.31135523860885"><ele>141.0</ele><time>2026-05-03T08:41:31.001Z</time></trkpt><trkpt lat="53.8840317045533" lon="30.311412086446218"><ele>142.0</ele><time>2026-05-03T08:41:32.001Z</time></trkpt><trkpt lat="53.88388036638018" lon="30.31146562910134"><ele>143.0</ele><time>2026-05-03T08:41:33.001Z</time></trkpt><trkpt lat="53.88372648650346" lon="30.31154302819554"><ele>144.0</ele><time>2026-05-03T08:41:34.001Z</time></trkpt><trkpt lat="53.883555813406545" lon="30.311591075420644"><ele>144.66666666666666</ele><time>2026-05-03T08:41:35.001Z</time></trkpt><trkpt lat="53.88339121916971" lon="30.311654665450646"><ele>145.33333333333331</ele><time>2026-05-03T08:41:36Z</time></trkpt><trkpt lat="53.88322498761979" lon="30.31171910831694"><ele>146.0</ele><time>2026-05-03T08:41:37Z</time></trkpt><trkpt lat="53.88306291630219" lon="30.31178448253383"><ele>146.0</ele><time>2026-05-03T08:41:38Z</time></trkpt><trkpt lat="53.882898316126514" lon="30.311842289987617"><ele>146.0</ele><time>2026-05-03T08:41:39Z</time></trkpt><trkpt lat="53.88274044741287" lon="30.311902491099207"><ele>146.0</ele><time>2026-05-03T08:41:40Z</time></trkpt><trkpt lat="53.88257439309139" lon="30.311966530866037"><ele>145.66666666666666</ele><time>2026-05-03T08:41:41Z</time></trkpt><trkpt lat="53.882405459628366" lon="30.312029457897534"><ele>145.33333333333334</ele><time>2026-05-03T08:41:42Z</time></trkpt><trkpt lat="53.88223403075932" lon="30.312092880515692"><ele>145.0</ele><time>2026-05-03T08:41:43Z</time></trkpt><trkpt lat="53.8820555971139" lon="30.312153643811563"><ele>145.0</ele><time>2026-05-03T08:41:44Z</time></trkpt><trkpt lat="53.881878779303655" lon="30.312218086744664"><ele>145.0</ele><time>2026-05-03T08:41:45Z</time></trkpt><trkpt lat="53.881702949337466" lon="30.31228401531008"><ele>145.0</ele><time>2026-05-03T08:41:46Z</time></trkpt><trkpt lat="53.88152179435358" lon="30.312347652777156"><ele>144.33333333333334</ele><time>2026-05-03T08:41:47Z</time></trkpt><trkpt lat="53.88134160741337" lon="30.31240903136864"><ele>143.66666666666666</ele><time>2026-05-03T08:41:48Z</time></trkpt><trkpt lat="53.88116205154288" lon="30.312471428575783"><ele>143.0</ele><time>2026-05-03T08:41:49Z</time></trkpt><trkpt lat="53.88098468805129" lon="30.312531665167732"><ele>143.0</ele><time>2026-05-03T08:41:50Z</time></trkpt><trkpt lat="53.880834977266474" lon="30.312583197398087"><ele>143.0</ele><time>2026-05-03T08:41:51Z</time></trkpt><trkpt lat="53.88072155544553" lon="30.312624644848942"><ele>143.0</ele><time>2026-05-03T08:41:52Z</time></trkpt><trkpt lat="53.88063426434428" lon="30.312656873690766"><ele>143.0</ele><time>2026-05-03T08:41:53Z</time></trkpt><trkpt lat="53.880558263704124" lon="30.312686520363293"><ele>143.0</ele><time>2026-05-03T08:41:54Z</time></trkpt><trkpt lat="53.88048255535176" lon="30.312713195080295"><ele>143.0</ele><time>2026-05-03T08:41:56Z</time></trkpt><trkpt lat="53.88036151654394" lon="30.31277104275367"><ele>143.0</ele><time>2026-05-03T08:42:17Z</time></trkpt><trkpt lat="53.880267032561825" lon="30.312813372067858"><ele>143.0</ele><time>2026-05-03T08:42:18Z</time></trkpt><trkpt lat="53.880151529019386" lon="30.312867732656755"><ele>143.0</ele><time>2026-05-03T08:42:19Z</time></trkpt><trkpt lat="53.88001077360248" lon="30.312931337750324"><ele>143.0</ele><time>2026-05-03T08:42:20Z</time></trkpt><trkpt lat="53.87983816135559" lon="30.313002213966108"><ele>143.0</ele><time>2026-05-03T08:42:21Z</time></trkpt><trkpt lat="53.87965357892982" lon="30.313068141045594"><ele>143.0</ele><time>2026-05-03T08:42:22Z</time></trkpt><trkpt lat="53.87946966385128" lon="30.313138400245265"><ele>143.33333333333331</ele><time>2026-05-03T08:42:23Z</time></trkpt><trkpt lat="53.87928005476282" lon="30.3132121103299"><ele>143.66666666666666</ele><time>2026-05-03T08:42:24Z</time></trkpt><trkpt lat="53.879086434457456" lon="30.313283134102562"><ele>144.0</ele><time>2026-05-03T08:42:25Z</time></trkpt><trkpt lat="53.87889390870263" lon="30.313358828260313"><ele>144.0</ele><time>2026-05-03T08:42:26Z</time></trkpt><trkpt lat="53.878690877130126" lon="30.31343187114293"><ele>144.0</ele><time>2026-05-03T08:42:27Z</time></trkpt><trkpt lat="53.87848472510658" lon="30.313485909987772"><ele>144.0</ele><time>2026-05-03T08:42:28Z</time></trkpt><trkpt lat="53.87828584705372" lon="30.31350805620352"><ele>144.0</ele><time>2026-05-03T08:42:29Z</time></trkpt><trkpt lat="53.878082437327656" lon="30.313513964824274"><ele>144.0</ele><time>2026-05-03T08:42:30Z</time></trkpt><trkpt lat="53.87787904580541" lon="30.313505847789244"><ele>144.0</ele><time>2026-05-03T08:42:31Z</time></trkpt><trkpt lat="53.877684642907276" lon="30.31349133191692"><ele>143.33333333333334</ele><time>2026-05-03T08:42:32Z</time></trkpt><trkpt lat="53.87748887916003" lon="30.313468830370574"><ele>142.66666666666669</ele><time>2026-05-03T08:42:33Z</time></trkpt><trkpt lat="53.87729048668366" lon="30.313438032926257"><ele>142.0</ele><time>2026-05-03T08:42:34Z</time></trkpt><trkpt lat="53.87709072360156" lon="30.31339836899469"><ele>142.0</ele><time>2026-05-03T08:42:35Z</time></trkpt><trkpt lat="53.87689181442368" lon="30.31334814245456"><ele>142.0</ele><time>2026-05-03T08:42:36Z</time></trkpt><trkpt lat="53.87669415313748" lon="30.31327289646939"><ele>142.0</ele><time>2026-05-03T08:42:37Z</time></trkpt><trkpt lat="53.87649551693527" lon="30.313179103880852"><ele>143.0</ele><time>2026-05-03T08:42:38Z</time></trkpt><trkpt lat="53.87630748038985" lon="30.31308543291631"><ele>144.0</ele><time>2026-05-03T08:42:39Z</time></trkpt><trkpt lat="53.876146998940285" lon="30.312997413574845"><ele>145.0</ele><time>2026-05-03T08:42:40Z</time></trkpt><trkpt lat="53.876013400215456" lon="30.312911497410116"><ele>145.6</ele><time>2026-05-03T08:42:41Z</time></trkpt><trkpt lat="53.87590946091756" lon="30.31284400317665"><ele>146.2</ele><time>2026-05-03T08:42:42Z</time></trkpt><trkpt lat="53.875826584349554" lon="30.31279622566595"><ele>146.8</ele><time>2026-05-03T08:42:43Z</time></trkpt><trkpt lat="53.875743073313615" lon="30.312747945639725"><ele>147.4</ele><time>2026-05-03T08:42:44Z</time></trkpt><trkpt lat="53.87565477197376" lon="30.31269664066394"><ele>148.0</ele><time>2026-05-03T08:42:45Z</time></trkpt><trkpt lat="53.875530493278006" lon="30.312621610656237"><ele>148.0</ele><time>2026-05-03T08:42:46Z</time></trkpt><trkpt lat="53.87537286736712" lon="30.31252346436786"><ele>148.0</ele><time>2026-05-03T08:42:47Z</time></trkpt><trkpt lat="53.875198926954106" lon="30.312428019539215"><ele>148.0</ele><time>2026-05-03T08:42:48Z</time></trkpt><trkpt lat="53.87499769103605" lon="30.312365008211177"><ele>147.5</ele><time>2026-05-03T08:42:49Z</time></trkpt><trkpt lat="53.87476139944517" lon="30.312330032666587"><ele>147.0</ele><time>2026-05-03T08:42:50Z</time></trkpt><trkpt lat="53.87451483164933" lon="30.31231233448856"><ele>147.0</ele><time>2026-05-03T08:42:51Z</time></trkpt><trkpt lat="53.874312125423934" lon="30.312313513380122"><ele>147.0</ele><time>2026-05-03T08:42:52Z</time></trkpt><trkpt lat="53.87411958838174" lon="30.312356460260975"><ele>147.0</ele><time>2026-05-03T08:42:53Z</time></trkpt><trkpt lat="53.87393227355931" lon="30.312419666126463"><ele>147.66666666666666</ele><time>2026-05-03T08:42:54Z</time></trkpt><trkpt lat="53.87375912855949" lon="30.312462804883907"><ele>148.33333333333331</ele><time>2026-05-03T08:42:55Z</time></trkpt><trkpt lat="53.873616421720556" lon="30.312486615081355"><ele>149.0</ele><time>2026-05-03T08:42:56Z</time></trkpt><trkpt lat="53.873486035095816" lon="30.31252636180373"><ele>148.75</ele><time>2026-05-03T08:42:57Z</time></trkpt><trkpt lat="53.87336492778463" lon="30.312557811444776"><ele>148.5</ele><time>2026-05-03T08:42:58Z</time></trkpt><trkpt lat="53.873227400559074" lon="30.312587060249072"><ele>148.25</ele><time>2026-05-03T08:42:59Z</time></trkpt><trkpt lat="53.87305427565926" lon="30.312607915947154"><ele>148.0</ele><time>2026-05-03T08:43:00Z</time></trkpt><trkpt lat="53.872856626406275" lon="30.312632389207707"><ele>148.0</ele><time>2026-05-03T08:43:01Z</time></trkpt><trkpt lat="53.87264298776812" lon="30.312689529008225"><ele>148.0</ele><time>2026-05-03T08:43:02Z</time></trkpt><trkpt lat="53.87241730325518" lon="30.31276367047678"><ele>148.0</ele><time>2026-05-03T08:43:03Z</time></trkpt><trkpt lat="53.872191602927344" lon="30.312824338104825"><ele>148.33333333333334</ele><time>2026-05-03T08:43:04.002Z</time></trkpt><trkpt lat="53.87197966068006" lon="30.312874554351158"><ele>148.66666666666666</ele><time>2026-05-03T08:43:05.002Z</time></trkpt><trkpt lat="53.871767104947274" lon="30.312926827474005"><ele>149.0</ele><time>2026-05-03T08:43:06.002Z</time></trkpt><trkpt lat="53.87154694635149" lon="30.312985389635116"><ele>148.66666666666666</ele><time>2026-05-03T08:43:07.002Z</time></trkpt><trkpt lat="53.871330330670645" lon="30.313046712633675"><ele>148.33333333333334</ele><time>2026-05-03T08:43:08.002Z</time></trkpt><trkpt lat="53.871115191191286" lon="30.313106349153497"><ele>148.0</ele><time>2026-05-03T08:43:09.002Z</time></trkpt><trkpt lat="53.87089789668975" lon="30.31316107990803"><ele>148.0</ele><time>2026-05-03T08:43:10.001Z</time></trkpt><trkpt lat="53.87067604407782" lon="30.313222905912113"><ele>148.0</ele><time>2026-05-03T08:43:11.001Z</time></trkpt><trkpt lat="53.87045763986482" lon="30.313284846433415"><ele>148.0</ele><time>2026-05-03T08:43:12.001Z</time></trkpt><trkpt lat="53.87023879222251" lon="30.313351135105417"><ele>148.33333333333334</ele><time>2026-05-03T08:43:13.001Z</time></trkpt><trkpt lat="53.87002327887972" lon="30.313407547445813"><ele>148.66666666666666</ele><time>2026-05-03T08:43:14.001Z</time></trkpt><trkpt lat="53.869810473407284" lon="30.313465022157757"><ele>149.0</ele><time>2026-05-03T08:43:15.001Z</time></trkpt><trkpt lat="53.86962510720012" lon="30.313516296095226"><ele>149.0</ele><time>2026-05-03T08:43:16.001Z</time></trkpt><trkpt lat="53.86943214440247" lon="30.313564408022348"><ele>149.0</ele><time>2026-05-03T08:43:17.001Z</time></trkpt><trkpt lat="53.869228943193114" lon="30.31362352464138"><ele>149.0</ele><time>2026-05-03T08:43:18.001Z</time></trkpt><trkpt lat="53.869012815948324" lon="30.313700114579614"><ele>149.0</ele><time>2026-05-03T08:43:19.001Z</time></trkpt><trkpt lat="53.86879166096897" lon="30.313780939799027"><ele>149.0</ele><time>2026-05-03T08:43:20.001Z</time></trkpt><trkpt lat="53.868559343876704" lon="30.313851580644833"><ele>148.0</ele><time>2026-05-03T08:43:21.001Z</time></trkpt><trkpt lat="53.868320747200855" lon="30.313917825984365"><ele>147.0</ele><time>2026-05-03T08:43:22.001Z</time></trkpt><trkpt lat="53.86808860428983" lon="30.31399944592997"><ele>147.0</ele><time>2026-05-03T08:43:23.001Z</time></trkpt><trkpt lat="53.867871716661284" lon="30.314102863212327"><ele>147.0</ele><time>2026-05-03T08:43:24.001Z</time></trkpt><trkpt lat="53.86767363800374" lon="30.31421868821672"><ele>147.0</ele><time>2026-05-03T08:43:25.001Z</time></trkpt><trkpt lat="53.867487359335975" lon="30.31433164428128"><ele>147.33333333333334</ele><time>2026-05-03T08:43:26.001Z</time></trkpt><trkpt lat="53.86732570553957" lon="30.314453321279313"><ele>147.66666666666669</ele><time>2026-05-03T08:43:27.001Z</time></trkpt><trkpt lat="53.867192073538696" lon="30.314561333640427"><ele>148.0</ele><time>2026-05-03T08:43:28.001Z</time></trkpt><trkpt lat="53.86705995987972" lon="30.314655675487483"><ele>148.0</ele><time>2026-05-03T08:43:29.001Z</time></trkpt><trkpt lat="53.86694764355766" lon="30.314759492709964"><ele>148.0</ele><time>2026-05-03T08:43:30.001Z</time></trkpt><trkpt lat="53.86685745664847" lon="30.314865841970555"><ele>148.0</ele><time>2026-05-03T08:43:31.001Z</time></trkpt><trkpt lat="53.86677738378095" lon="30.314952753187477"><ele>148.0</ele><time>2026-05-03T08:43:32.001Z</time></trkpt><trkpt lat="53.866710193920284" lon="30.31503620286798"><ele>148.0</ele><time>2026-05-03T08:43:33.001Z</time></trkpt><trkpt lat="53.86664712381903" lon="30.315111225284564"><ele>148.0</ele><time>2026-05-03T08:43:34.001Z</time></trkpt><trkpt lat="53.866590179256285" lon="30.315168996901374"><ele>148.0</ele><time>2026-05-03T08:43:35.001Z</time></trkpt><trkpt lat="53.86650658419915" lon="30.315269116209535"><ele>148.0</ele><time>2026-05-03T08:43:51Z</time></trkpt><trkpt lat="53.86642753317517" lon="30.31536343257576"><ele>148.0</ele><time>2026-05-03T08:43:52Z</time></trkpt><trkpt lat="53.866340323684874" lon="30.31547473790538"><ele>148.0</ele><time>2026-05-03T08:43:53Z</time></trkpt><trkpt lat="53.86625496404012" lon="30.315603889526116"><ele>148.0</ele><time>2026-05-03T08:43:54Z</time></trkpt><trkpt lat="53.86616373576351" lon="30.315746425510014"><ele>148.0</ele><time>2026-05-03T08:43:55Z</time></trkpt><trkpt lat="53.86606454053002" lon="30.3158939522051"><ele>148.0</ele><time>2026-05-03T08:43:56Z</time></trkpt><trkpt lat="53.86595634717007" lon="30.316052507489033"><ele>148.0</ele><time>2026-05-03T08:43:57Z</time></trkpt><trkpt lat="53.86584538435375" lon="30.316213144489176"><ele>148.0</ele><time>2026-05-03T08:43:58Z</time></trkpt><trkpt lat="53.86573379204358" lon="30.316383545269016"><ele>148.0</ele><time>2026-05-03T08:43:59Z</time></trkpt><trkpt lat="53.86561862632853" lon="30.31655764023238"><ele>148.0</ele><time>2026-05-03T08:44:00Z</time></trkpt><trkpt lat="53.86549955854308" lon="30.316733549259197"><ele>147.66666666666669</ele><time>2026-05-03T08:44:01Z</time></trkpt><trkpt lat="53.86538097791348" lon="30.316905548490794"><ele>147.33333333333334</ele><time>2026-05-03T08:44:02Z</time></trkpt><trkpt lat="53.86526078936112" lon="30.317084102659553"><ele>147.0</ele><time>2026-05-03T08:44:03Z</time></trkpt><trkpt lat="53.86513870210599" lon="30.317267352250322"><ele>147.66666666666666</ele><time>2026-05-03T08:44:04Z</time></trkpt><trkpt lat="53.865015613793844" lon="30.317446210460826"><ele>148.33333333333331</ele><time>2026-05-03T08:44:05Z</time></trkpt><trkpt lat="53.864899751552244" lon="30.317612577778952"><ele>149.0</ele><time>2026-05-03T08:44:06Z</time></trkpt><trkpt lat="53.86479172331664" lon="30.317780467069664"><ele>149.0</ele><time>2026-05-03T08:44:07Z</time></trkpt><trkpt lat="53.86468293909895" lon="30.31794314438728"><ele>149.0</ele><time>2026-05-03T08:44:08Z</time></trkpt><trkpt lat="53.86455312231681" lon="30.318136583979964"><ele>149.0</ele><time>2026-05-03T08:44:09Z</time></trkpt><trkpt lat="53.86443608132037" lon="30.318306552793544"><ele>148.33333333333331</ele><time>2026-05-03T08:44:10Z</time></trkpt><trkpt lat="53.864317173597506" lon="30.318482296797207"><ele>147.66666666666666</ele><time>2026-05-03T08:44:11Z</time></trkpt><trkpt lat="53.86419938497272" lon="30.318659903841894"><ele>147.0</ele><time>2026-05-03T08:44:12Z</time></trkpt><trkpt lat="53.86408607709065" lon="30.31883317789159"><ele>146.33333333333334</ele><time>2026-05-03T08:44:13Z</time></trkpt><trkpt lat="53.86396665617086" lon="30.319019257564122"><ele>145.66666666666669</ele><time>2026-05-03T08:44:14Z</time></trkpt><trkpt lat="53.86384733564757" lon="30.319195598697775"><ele>145.0</ele><time>2026-05-03T08:44:15Z</time></trkpt><trkpt lat="53.86372557415356" lon="30.319368888039186"><ele>145.0</ele><time>2026-05-03T08:44:16Z</time></trkpt><trkpt lat="53.863608642886085" lon="30.319544457103817"><ele>145.0</ele><time>2026-05-03T08:44:17Z</time></trkpt><trkpt lat="53.86348745500764" lon="30.31971517765573"><ele>145.0</ele><time>2026-05-03T08:44:18Z</time></trkpt><trkpt lat="53.86337085229458" lon="30.319884072359855"><ele>145.33333333333334</ele><time>2026-05-03T08:44:19Z</time></trkpt><trkpt lat="53.863253780053874" lon="30.320063619281626"><ele>145.66666666666666</ele><time>2026-05-03T08:44:20Z</time></trkpt><trkpt lat="53.86313781500811" lon="30.32024830230683"><ele>146.0</ele><time>2026-05-03T08:44:21Z</time></trkpt><trkpt lat="53.86301632272533" lon="30.320439591608096"><ele>146.0</ele><time>2026-05-03T08:44:22Z</time></trkpt><trkpt lat="53.86289298066827" lon="30.320628288875266"><ele>146.0</ele><time>2026-05-03T08:44:23Z</time></trkpt><trkpt lat="53.86275957771097" lon="30.320820285327688"><ele>146.0</ele><time>2026-05-03T08:44:24Z</time></trkpt><trkpt lat="53.86262443982313" lon="30.321012992138463"><ele>147.0</ele><time>2026-05-03T08:44:25Z</time></trkpt><trkpt lat="53.86249157452339" lon="30.321205452364616"><ele>148.0</ele><time>2026-05-03T08:44:26Z</time></trkpt><trkpt lat="53.86236159155222" lon="30.321403411749092"><ele>149.0</ele><time>2026-05-03T08:44:27Z</time></trkpt><trkpt lat="53.86223648978871" lon="30.321585911620847"><ele>149.0</ele><time>2026-05-03T08:44:28Z</time></trkpt><trkpt lat="53.86211502032715" lon="30.321765785463025"><ele>149.0</ele><time>2026-05-03T08:44:29Z</time></trkpt><trkpt lat="53.86199415469526" lon="30.321949872169416"><ele>149.0</ele><time>2026-05-03T08:44:30Z</time></trkpt><trkpt lat="53.861861434816355" lon="30.322153227322964"><ele>149.0</ele><time>2026-05-03T08:44:31Z</time></trkpt><trkpt lat="53.86173021973481" lon="30.322339948704574"><ele>149.0</ele><time>2026-05-03T08:44:32Z</time></trkpt><trkpt lat="53.861596302669064" lon="30.322531233093056"><ele>149.0</ele><time>2026-05-03T08:44:33Z</time></trkpt><trkpt lat="53.86146442778144" lon="30.322739480258743"><ele>149.0</ele><time>2026-05-03T08:44:34Z</time></trkpt><trkpt lat="53.861326891126986" lon="30.322941681691184"><ele>149.0</ele><time>2026-05-03T08:44:35Z</time></trkpt><trkpt lat="53.861187036360704" lon="30.323142689509513"><ele>149.0</ele><time>2026-05-03T08:44:36Z</time></trkpt><trkpt lat="53.861051823924946" lon="30.323355460139535"><ele>148.66666666666666</ele><time>2026-05-03T08:44:37Z</time></trkpt><trkpt lat="53.860911628040625" lon="30.323560642020716"><ele>148.33333333333334</ele><time>2026-05-03T08:44:38Z</time></trkpt><trkpt lat="53.86076905638109" lon="30.323768565673777"><ele>148.0</ele><time>2026-05-03T08:44:39Z</time></trkpt><trkpt lat="53.860633566315805" lon="30.323988373355476"><ele>148.0</ele><time>2026-05-03T08:44:40Z</time></trkpt><trkpt lat="53.86049088759813" lon="30.324201667644946"><ele>148.0</ele><time>2026-05-03T08:44:41Z</time></trkpt><trkpt lat="53.86034644382183" lon="30.324411325332452"><ele>148.0</ele><time>2026-05-03T08:44:42Z</time></trkpt><trkpt lat="53.86020397777173" lon="30.324619170136582"><ele>147.33333333333334</ele><time>2026-05-03T08:44:43Z</time></trkpt><trkpt lat="53.86005842183284" lon="30.324834564972615"><ele>146.66666666666666</ele><time>2026-05-03T08:44:44Z</time></trkpt><trkpt lat="53.85991217638206" lon="30.32504656550942"><ele>146.0</ele><time>2026-05-03T08:44:45Z</time></trkpt><trkpt lat="53.85977245054721" lon="30.325262253702558"><ele>146.0</ele><time>2026-05-03T08:44:46Z</time></trkpt><trkpt lat="53.859634917899896" lon="30.325480891814486"><ele>146.0</ele><time>2026-05-03T08:44:47Z</time></trkpt><trkpt lat="53.85948893616976" lon="30.325692142894223"><ele>146.0</ele><time>2026-05-03T08:44:48Z</time></trkpt><trkpt lat="53.859334956628025" lon="30.325912645117317"><ele>146.33333333333331</ele><time>2026-05-03T08:44:49Z</time></trkpt><trkpt lat="53.859191695274724" lon="30.326126614680412"><ele>146.66666666666666</ele><time>2026-05-03T08:44:50Z</time></trkpt><trkpt lat="53.859039972354964" lon="30.326344063892673"><ele>147.0</ele><time>2026-05-03T08:44:51Z</time></trkpt><trkpt lat="53.858903803516334" lon="30.326551750284903"><ele>147.0</ele><time>2026-05-03T08:44:52Z</time></trkpt><trkpt lat="53.8587606480214" lon="30.32676047682636"><ele>147.0</ele><time>2026-05-03T08:44:53Z</time></trkpt><trkpt lat="53.85861486249177" lon="30.326975520232033"><ele>147.0</ele><time>2026-05-03T08:44:54Z</time></trkpt><trkpt lat="53.85848373746213" lon="30.32718200121359"><ele>147.0</ele><time>2026-05-03T08:44:55Z</time></trkpt><trkpt lat="53.85834280353861" lon="30.32741064180491"><ele>147.0</ele><time>2026-05-03T08:44:56Z</time></trkpt><trkpt lat="53.85820115076541" lon="30.327631319566535"><ele>147.0</ele><time>2026-05-03T08:44:57Z</time></trkpt><trkpt lat="53.858039265672325" lon="30.327857161015597"><ele>147.0</ele><time>2026-05-03T08:44:58Z</time></trkpt><trkpt lat="53.85786715706779" lon="30.328124543740564"><ele>147.0</ele><time>2026-05-03T08:44:59Z</time></trkpt><trkpt lat="53.85780234244188" lon="30.328186778651286"><ele>147.0</ele><time>2026-05-03T08:45:00Z</time></trkpt><trkpt lat="53.85767947621029" lon="30.328306380383427"><ele>147.0</ele><time>2026-05-03T08:45:01Z</time></trkpt><trkpt lat="53.85761117385639" lon="30.328492380200544"><ele>147.0</ele><time>2026-05-03T08:45:02Z</time></trkpt><trkpt lat="53.85747896691543" lon="30.328680505487043"><ele>147.0</ele><time>2026-05-03T08:45:03Z</time></trkpt><trkpt lat="53.85733752239864" lon="30.328893486859492"><ele>146.66666666666666</ele><time>2026-05-03T08:45:04Z</time></trkpt><trkpt lat="53.857182631294314" lon="30.329122666672834"><ele>146.33333333333331</ele><time>2026-05-03T08:45:05Z</time></trkpt><trkpt lat="53.85701716725711" lon="30.32936171461576"><ele>146.0</ele><time>2026-05-03T08:45:06Z</time></trkpt><trkpt lat="53.8568493470451" lon="30.329610707604385"><ele>147.0</ele><time>2026-05-03T08:45:07Z</time></trkpt><trkpt lat="53.8566770453795" lon="30.32987388320455"><ele>148.0</ele><time>2026-05-03T08:45:08Z</time></trkpt><trkpt lat="53.85650107766139" lon="30.330134730215565"><ele>148.0</ele><time>2026-05-03T08:45:09Z</time></trkpt><trkpt lat="53.856321573912375" lon="30.330400867499815"><ele>148.0</ele><time>2026-05-03T08:45:10.001Z</time></trkpt><trkpt lat="53.856144381945" lon="30.330676200200603"><ele>148.0</ele><time>2026-05-03T08:45:11.001Z</time></trkpt><trkpt lat="53.85596597315179" lon="30.3309461248752"><ele>148.0</ele><time>2026-05-03T08:45:12.001Z</time></trkpt><trkpt lat="53.85578831526504" lon="30.33120941389717"><ele>147.5</ele><time>2026-05-03T08:45:13.001Z</time></trkpt><trkpt lat="53.85560512422441" lon="30.331480908869576"><ele>147.0</ele><time>2026-05-03T08:45:14.001Z</time></trkpt><trkpt lat="53.85542053091018" lon="30.331754993130858"><ele>147.0</ele><time>2026-05-03T08:45:15.001Z</time></trkpt><trkpt lat="53.85523529912654" lon="30.332016090941675"><ele>147.0</ele><time>2026-05-03T08:45:16.001Z</time></trkpt><trkpt lat="53.855054677768834" lon="30.332301053896074"><ele>147.0</ele><time>2026-05-03T08:45:17.001Z</time></trkpt><trkpt lat="53.854874119972976" lon="30.332579218829856"><ele>147.0</ele><time>2026-05-03T08:45:18.001Z</time></trkpt><trkpt lat="53.85469465923346" lon="30.332848939044208"><ele>146.5</ele><time>2026-05-03T08:45:19.001Z</time></trkpt><trkpt lat="53.854507023417995" lon="30.333124590249202"><ele>146.0</ele><time>2026-05-03T08:45:20.001Z</time></trkpt><trkpt lat="53.854323737054465" lon="30.33339162932013"><ele>146.0</ele><time>2026-05-03T08:45:21.001Z</time></trkpt><trkpt lat="53.85414295689476" lon="30.333666776633287"><ele>146.0</ele><time>2026-05-03T08:45:22.001Z</time></trkpt><trkpt lat="53.8539614565076" lon="30.333940685938483"><ele>146.0</ele><time>2026-05-03T08:45:23.001Z</time></trkpt><trkpt lat="53.85377669794062" lon="30.334213413991957"><ele>146.0</ele><time>2026-05-03T08:45:24.001Z</time></trkpt><trkpt lat="53.85359604981534" lon="30.33447321602324"><ele>146.5</ele><time>2026-05-03T08:45:25.001Z</time></trkpt><trkpt lat="53.85342031050397" lon="30.334723694696756"><ele>147.0</ele><time>2026-05-03T08:45:26.001Z</time></trkpt><trkpt lat="53.8532412738768" lon="30.334994351065436"><ele>147.0</ele><time>2026-05-03T08:45:27.001Z</time></trkpt><trkpt lat="53.85305305049153" lon="30.33526469413458"><ele>147.0</ele><time>2026-05-03T08:45:28.001Z</time></trkpt><trkpt lat="53.8528853514774" lon="30.335519540629203"><ele>146.66666666666666</ele><time>2026-05-03T08:45:29.001Z</time></trkpt><trkpt lat="53.852731878003226" lon="30.33575459075742"><ele>146.33333333333331</ele><time>2026-05-03T08:45:30.001Z</time></trkpt><trkpt lat="53.8525971070102" lon="30.335943971324845"><ele>146.0</ele><time>2026-05-03T08:45:31.001Z</time></trkpt><trkpt lat="53.85247525032383" lon="30.336133161919143"><ele>146.0</ele><time>2026-05-03T08:45:32.001Z</time></trkpt><trkpt lat="53.852364161461566" lon="30.336301756193464"><ele>146.0</ele><time>2026-05-03T08:45:33.001Z</time></trkpt><trkpt lat="53.85226517143644" lon="30.3364147116282"><ele>146.0</ele><time>2026-05-03T08:45:34.001Z</time></trkpt><trkpt lat="53.85218195208903" lon="30.33651024421445"><ele>146.0</ele><time>2026-05-03T08:45:35.001Z</time></trkpt><trkpt lat="53.85202208445811" lon="30.336487457267918"><ele>146.33333333333331</ele><time>2026-05-03T08:45:36.001Z</time></trkpt><trkpt lat="53.85187151899034" lon="30.33650679652979"><ele>146.66666666666666</ele><time>2026-05-03T08:45:37.001Z</time></trkpt><trkpt lat="53.85173174562046" lon="30.336519884762392"><ele>147.0</ele><time>2026-05-03T08:45:38.001Z</time></trkpt><trkpt lat="53.85156960923111" lon="30.336526388066932"><ele>147.0</ele><time>2026-05-03T08:45:39.001Z</time></trkpt><trkpt lat="53.8514025500833" lon="30.33651316870667"><ele>147.0</ele><time>2026-05-03T08:45:40.001Z</time></trkpt><trkpt lat="53.85122213540586" lon="30.33650660363296"><ele>147.0</ele><time>2026-05-03T08:45:41.001Z</time></trkpt><trkpt lat="53.851034780108805" lon="30.336517646124076"><ele>147.33333333333334</ele><time>2026-05-03T08:45:42.001Z</time></trkpt><trkpt lat="53.85083382595541" lon="30.336516703593603"><ele>147.66666666666669</ele><time>2026-05-03T08:45:43.001Z</time></trkpt><trkpt lat="53.850625999018646" lon="30.336513089468863"><ele>148.0</ele><time>2026-05-03T08:45:44Z</time></trkpt><trkpt lat="53.850416442289855" lon="30.33651179841993"><ele>148.0</ele><time>2026-05-03T08:45:45Z</time></trkpt><trkpt lat="53.85020845275353" lon="30.33651229413287"><ele>148.0</ele><time>2026-05-03T08:45:46Z</time></trkpt><trkpt lat="53.84999897263287" lon="30.336513239151763"><ele>148.0</ele><time>2026-05-03T08:45:47Z</time></trkpt><trkpt lat="53.84978478378034" lon="30.33651473226012"><ele>148.0</ele><time>2026-05-03T08:45:48Z</time></trkpt><trkpt lat="53.84956809612939" lon="30.33651365138718"><ele>148.0</ele><time>2026-05-03T08:45:49Z</time></trkpt><trkpt lat="53.849344488335824" lon="30.336514601991787"><ele>148.0</ele><time>2026-05-03T08:45:50Z</time></trkpt><trkpt lat="53.84912009299583" lon="30.336513782503648"><ele>148.0</ele><time>2026-05-03T08:45:51Z</time></trkpt><trkpt lat="53.848897332396994" lon="30.336517898605056"><ele>148.0</ele><time>2026-05-03T08:45:52Z</time></trkpt><trkpt lat="53.8486742507517" lon="30.33651995544417"><ele>148.0</ele><time>2026-05-03T08:45:53Z</time></trkpt><trkpt lat="53.848454677880156" lon="30.336523321178994"><ele>148.0</ele><time>2026-05-03T08:45:54Z</time></trkpt><trkpt lat="53.84824224909279" lon="30.336524617587518"><ele>148.0</ele><time>2026-05-03T08:45:55Z</time></trkpt><trkpt lat="53.84802197681327" lon="30.33652197610989"><ele>148.0</ele><time>2026-05-03T08:45:56Z</time></trkpt><trkpt lat="53.84779325198271" lon="30.336520070349557"><ele>148.66666666666669</ele><time>2026-05-03T08:45:57Z</time></trkpt><trkpt lat="53.8475723574926" lon="30.3365218153992"><ele>149.33333333333334</ele><time>2026-05-03T08:45:58Z</time></trkpt><trkpt lat="53.84734893181602" lon="30.336523076653684"><ele>150.0</ele><time>2026-05-03T08:45:59Z</time></trkpt><trkpt lat="53.84712687774569" lon="30.33652372880796"><ele>150.0</ele><time>2026-05-03T08:46:00Z</time></trkpt><trkpt lat="53.84690616341066" lon="30.336494542643546"><ele>150.0</ele><time>2026-05-03T08:46:01Z</time></trkpt><trkpt lat="53.846681518927696" lon="30.33649200213797"><ele>150.0</ele><time>2026-05-03T08:46:02Z</time></trkpt><trkpt lat="53.846462828930456" lon="30.336489265469737"><ele>150.66666666666666</ele><time>2026-05-03T08:46:03Z</time></trkpt><trkpt lat="53.846242512754024" lon="30.33648637923605"><ele>151.33333333333331</ele><time>2026-05-03T08:46:04Z</time></trkpt><trkpt lat="53.846019262135414" lon="30.33648414033039"><ele>152.0</ele><time>2026-05-03T08:46:05Z</time></trkpt><trkpt lat="53.84579912536763" lon="30.336482897710077"><ele>153.66666666666666</ele><time>2026-05-03T08:46:06Z</time></trkpt><trkpt lat="53.84557859791095" lon="30.336485834555948"><ele>155.33333333333334</ele><time>2026-05-03T08:46:07Z</time></trkpt><trkpt lat="53.8453565200324" lon="30.336487792790752"><ele>157.0</ele><time>2026-05-03T08:46:08Z</time></trkpt><trkpt lat="53.84512957149977" lon="30.33648946242379"><ele>160.0</ele><time>2026-05-03T08:46:09Z</time></trkpt><trkpt lat="53.84490238798381" lon="30.33649199412825"><ele>163.0</ele><time>2026-05-03T08:46:10Z</time></trkpt><trkpt lat="53.84467646245409" lon="30.336521468109055"><ele>163.0</ele><time>2026-05-03T08:46:11Z</time></trkpt><trkpt lat="53.84445185765499" lon="30.33652097916206"><ele>163.0</ele><time>2026-05-03T08:46:12Z</time></trkpt><trkpt lat="53.84422839766938" lon="30.336513849780147"><ele>163.0</ele><time>2026-05-03T08:46:13Z</time></trkpt><trkpt lat="53.844002938765584" lon="30.33651387597795"><ele>165.0</ele><time>2026-05-03T08:46:14Z</time></trkpt><trkpt lat="53.843775969090196" lon="30.336512183095966"><ele>167.0</ele><time>2026-05-03T08:46:15Z</time></trkpt><trkpt lat="53.84355301703486" lon="30.336513089328122"><ele>168.5</ele><time>2026-05-03T08:46:16Z</time></trkpt><trkpt lat="53.84332631321552" lon="30.336510735844683"><ele>170.0</ele><time>2026-05-03T08:46:17Z</time></trkpt><trkpt lat="53.84310290309117" lon="30.336515617752184"><ele>170.0</ele><time>2026-05-03T08:46:18Z</time></trkpt><trkpt lat="53.84287627323356" lon="30.336519197379374"><ele>170.0</ele><time>2026-05-03T08:46:19Z</time></trkpt><trkpt lat="53.84264724253007" lon="30.336517019102523"><ele>170.5</ele><time>2026-05-03T08:46:20Z</time></trkpt><trkpt lat="53.84242296263357" lon="30.336519166607673"><ele>171.0</ele><time>2026-05-03T08:46:21Z</time></trkpt><trkpt lat="53.842193648786285" lon="30.33651783413517"><ele>171.0</ele><time>2026-05-03T08:46:22Z</time></trkpt><trkpt lat="53.84196996249083" lon="30.336523538927455"><ele>171.0</ele><time>2026-05-03T08:46:23Z</time></trkpt><trkpt lat="53.84173736975591" lon="30.336522940611417"><ele>171.5</ele><time>2026-05-03T08:46:24Z</time></trkpt><trkpt lat="53.84150765648766" lon="30.336521155887954"><ele>172.0</ele><time>2026-05-03T08:46:25Z</time></trkpt><trkpt lat="53.8412764336572" lon="30.336519199861023"><ele>172.0</ele><time>2026-05-03T08:46:26Z</time></trkpt><trkpt lat="53.84104663325632" lon="30.336516353634384"><ele>172.0</ele><time>2026-05-03T08:46:27Z</time></trkpt><trkpt lat="53.84081637957216" lon="30.336515329749034"><ele>171.0</ele><time>2026-05-03T08:46:28Z</time></trkpt><trkpt lat="53.84058736655218" lon="30.3365148169445"><ele>170.0</ele><time>2026-05-03T08:46:29Z</time></trkpt><trkpt lat="53.84035995432005" lon="30.33651604149852"><ele>170.0</ele><time>2026-05-03T08:46:30Z</time></trkpt><trkpt lat="53.84016072644552" lon="30.336519159052347"><ele>170.0</ele><time>2026-05-03T08:46:31Z</time></trkpt><trkpt lat="53.839990253484544" lon="30.336516245346193"><ele>170.0</ele><time>2026-05-03T08:46:32Z</time></trkpt><trkpt lat="53.83984247880783" lon="30.336515445739987"><ele>170.2</ele><time>2026-05-03T08:46:33Z</time></trkpt><trkpt lat="53.839716889102576" lon="30.336519933342256"><ele>170.4</ele><time>2026-05-03T08:46:34Z</time></trkpt><trkpt lat="53.83963738739164" lon="30.33652106176236"><ele>170.60000000000002</ele><time>2026-05-03T08:46:35Z</time></trkpt><trkpt lat="53.839567947941774" lon="30.336520092766545"><ele>170.8</ele><time>2026-05-03T08:46:36Z</time></trkpt><trkpt lat="53.839475315023385" lon="30.336517547853067"><ele>171.0</ele><time>2026-05-03T08:46:37Z</time></trkpt><trkpt lat="53.839337144376394" lon="30.336517872343272"><ele>171.66666666666666</ele><time>2026-05-03T08:46:38Z</time></trkpt><trkpt lat="53.83915947622485" lon="30.33651917338094"><ele>172.33333333333331</ele><time>2026-05-03T08:46:39Z</time></trkpt><trkpt lat="53.838963565699686" lon="30.33651667208564"><ele>173.0</ele><time>2026-05-03T08:46:40Z</time></trkpt><trkpt lat="53.838774212799194" lon="30.33651463167546"><ele>173.0</ele><time>2026-05-03T08:46:41Z</time></trkpt><trkpt lat="53.83858120884828" lon="30.336508570511434"><ele>173.0</ele><time>2026-05-03T08:46:42Z</time></trkpt><trkpt lat="53.83837905330737" lon="30.33650238994061"><ele>173.0</ele><time>2026-05-03T08:46:43Z</time></trkpt><trkpt lat="53.83816183986879" lon="30.33650449703509"><ele>173.33333333333331</ele><time>2026-05-03T08:46:44Z</time></trkpt><trkpt lat="53.83794013378334" lon="30.33650951888084"><ele>173.66666666666666</ele><time>2026-05-03T08:46:45Z</time></trkpt><trkpt lat="53.8377134096357" lon="30.33651156854937"><ele>174.0</ele><time>2026-05-03T08:46:46Z</time></trkpt><trkpt lat="53.83748194996093" lon="30.336508889153563"><ele>175.0</ele><time>2026-05-03T08:46:47Z</time></trkpt><trkpt lat="53.8372441889727" lon="30.33650209205758"><ele>176.0</ele><time>2026-05-03T08:46:48Z</time></trkpt><trkpt lat="53.83700224627817" lon="30.336501589583722"><ele>176.0</ele><time>2026-05-03T08:46:49Z</time></trkpt><trkpt lat="53.836760422307584" lon="30.33650505508603"><ele>176.0</ele><time>2026-05-03T08:46:50Z</time></trkpt><trkpt lat="53.83651444444882" lon="30.336510919712143"><ele>176.0</ele><time>2026-05-03T08:46:51Z</time></trkpt><trkpt lat="53.836273476436" lon="30.336512789641663"><ele>176.0</ele><time>2026-05-03T08:46:52Z</time></trkpt><trkpt lat="53.83605223452286" lon="30.336512653595463"><ele>176.0</ele><time>2026-05-03T08:46:53Z</time></trkpt><trkpt lat="53.835838820778086" lon="30.336523071185024"><ele>176.0</ele><time>2026-05-03T08:46:54Z</time></trkpt><trkpt lat="53.83564248780405" lon="30.33651724521431"><ele>176.0</ele><time>2026-05-03T08:46:55Z</time></trkpt><trkpt lat="53.83545961555329" lon="30.336515350688977"><ele>176.0</ele><time>2026-05-03T08:46:56Z</time></trkpt><trkpt lat="53.835279155233046" lon="30.336516809034002"><ele>176.0</ele><time>2026-05-03T08:46:57Z</time></trkpt><trkpt lat="53.83510840495943" lon="30.33651639643868"><ele>176.0</ele><time>2026-05-03T08:46:58Z</time></trkpt><trkpt lat="53.834969504643254" lon="30.336514045739705"><ele>175.60000000000002</ele><time>2026-05-03T08:46:59Z</time></trkpt><trkpt lat="53.834853046186986" lon="30.33650979443369"><ele>175.2</ele><time>2026-05-03T08:47:00Z</time></trkpt><trkpt lat="53.83475681850225" lon="30.336504986399483"><ele>174.8</ele><time>2026-05-03T08:47:01Z</time></trkpt><trkpt lat="53.834662150150656" lon="30.336493091194164"><ele>174.39999999999998</ele><time>2026-05-03T08:47:01.999Z</time></trkpt><trkpt lat="53.83458359701562" lon="30.336440475969177"><ele>174.0</ele><time>2026-05-03T08:47:02.999Z</time></trkpt><trkpt lat="53.83450485101071" lon="30.33641848262071"><ele>174.0</ele><time>2026-05-03T08:47:03.999Z</time></trkpt><trkpt lat="53.83441816555174" lon="30.336439153864028"><ele>174.0</ele><time>2026-05-03T08:47:04.999Z</time></trkpt><trkpt lat="53.83430317783915" lon="30.336490949723185"><ele>174.0</ele><time>2026-05-03T08:47:05.999Z</time></trkpt><trkpt lat="53.83415460473912" lon="30.336525061092974"><ele>174.0</ele><time>2026-05-03T08:47:06.999Z</time></trkpt><trkpt lat="53.833984731913226" lon="30.336528994417662"><ele>173.33333333333334</ele><time>2026-05-03T08:47:07.999Z</time></trkpt><trkpt lat="53.833806057665676" lon="30.336520170077556"><ele>172.66666666666669</ele><time>2026-05-03T08:47:08.999Z</time></trkpt><trkpt lat="53.83362898507745" lon="30.336521892786024"><ele>172.0</ele><time>2026-05-03T08:47:09.999Z</time></trkpt><trkpt lat="53.833435920173095" lon="30.33652219563851"><ele>171.66666666666669</ele><time>2026-05-03T08:47:10.999Z</time></trkpt><trkpt lat="53.833239339845534" lon="30.336526416748466"><ele>171.33333333333334</ele><time>2026-05-03T08:47:11.999Z</time></trkpt><trkpt lat="53.83303848419684" lon="30.336529856266143"><ele>171.0</ele><time>2026-05-03T08:47:12.999Z</time></trkpt><trkpt lat="53.83282164754409" lon="30.336529135749334"><ele>170.33333333333334</ele><time>2026-05-03T08:47:13.999Z</time></trkpt><trkpt lat="53.83261194826841" lon="30.33653289612612"><ele>169.66666666666669</ele><time>2026-05-03T08:47:14.999Z</time></trkpt><trkpt lat="53.83239153718554" lon="30.336537102057836"><ele>169.0</ele><time>2026-05-03T08:47:16.001Z</time></trkpt><trkpt lat="53.83217137642965" lon="30.336537659959987"><ele>169.0</ele><time>2026-05-03T08:47:17.001Z</time></trkpt><trkpt lat="53.83194378124704" lon="30.336536245914225"><ele>169.0</ele><time>2026-05-03T08:47:18.001Z</time></trkpt><trkpt lat="53.8317122025643" lon="30.33653558519592"><ele>168.5</ele><time>2026-05-03T08:47:19.001Z</time></trkpt><trkpt lat="53.831481383395655" lon="30.336534540676457"><ele>168.0</ele><time>2026-05-03T08:47:20.001Z</time></trkpt><trkpt lat="53.83125008915006" lon="30.336537734978272"><ele>168.0</ele><time>2026-05-03T08:47:21.001Z</time></trkpt><trkpt lat="53.83101277655662" lon="30.336535006046894"><ele>168.0</ele><time>2026-05-03T08:47:22.001Z</time></trkpt><trkpt lat="53.83077476881122" lon="30.3365330552526"><ele>167.5</ele><time>2026-05-03T08:47:23.001Z</time></trkpt><trkpt lat="53.83053901867094" lon="30.33653526947842"><ele>167.0</ele><time>2026-05-03T08:47:24.001Z</time></trkpt><trkpt lat="53.830292193083494" lon="30.336531975584133"><ele>165.5</ele><time>2026-05-03T08:47:25.001Z</time></trkpt><trkpt lat="53.83005248325943" lon="30.336536577145736"><ele>164.0</ele><time>2026-05-03T08:47:26.001Z</time></trkpt><trkpt lat="53.82980448662628" lon="30.336538668640966"><ele>164.0</ele><time>2026-05-03T08:47:27.001Z</time></trkpt><trkpt lat="53.829556659474946" lon="30.33653824225193"><ele>164.0</ele><time>2026-05-03T08:47:28.001Z</time></trkpt><trkpt lat="53.82933159622392" lon="30.336537656822514"><ele>163.33333333333331</ele><time>2026-05-03T08:47:29.001Z</time></trkpt><trkpt lat="53.829125279191054" lon="30.33653253479941"><ele>162.66666666666666</ele><time>2026-05-03T08:47:30.001Z</time></trkpt><trkpt lat="53.82891300796719" lon="30.33654422830334"><ele>162.0</ele><time>2026-05-03T08:47:31.001Z</time></trkpt><trkpt lat="53.82869498103524" lon="30.33654165004682"><ele>161.33333333333334</ele><time>2026-05-03T08:47:32.001Z</time></trkpt><trkpt lat="53.82846965868703" lon="30.33653917223524"><ele>160.66666666666669</ele><time>2026-05-03T08:47:33.001Z</time></trkpt><trkpt lat="53.82824782259876" lon="30.336539880045258"><ele>160.0</ele><time>2026-05-03T08:47:34.001Z</time></trkpt><trkpt lat="53.82801885103237" lon="30.336536582898628"><ele>160.0</ele><time>2026-05-03T08:47:35.001Z</time></trkpt><trkpt lat="53.82780379587712" lon="30.336537530296827"><ele>160.0</ele><time>2026-05-03T08:47:36.001Z</time></trkpt><trkpt lat="53.82762252058392" lon="30.33653439487823"><ele>160.0</ele><time>2026-05-03T08:47:37.001Z</time></trkpt><trkpt lat="53.82749564140931" lon="30.336535033226927"><ele>160.0</ele><time>2026-05-03T08:47:38.001Z</time></trkpt><trkpt lat="53.827407656460366" lon="30.336531569775584"><ele>160.0</ele><time>2026-05-03T08:47:39.001Z</time></trkpt><trkpt lat="53.827318394554716" lon="30.336532035929313"><ele>160.0</ele><time>2026-05-03T08:47:40Z</time></trkpt><trkpt lat="53.82718683249327" lon="30.336530084524917"><ele>160.0</ele><time>2026-05-03T08:47:41Z</time></trkpt><trkpt lat="53.82704694261087" lon="30.3365319125723"><ele>160.0</ele><time>2026-05-03T08:47:42Z</time></trkpt><trkpt lat="53.82693014367772" lon="30.33653231427044"><ele>160.0</ele><time>2026-05-03T08:47:43Z</time></trkpt><trkpt lat="53.82681014067905" lon="30.33653198566408"><ele>160.0</ele><time>2026-05-03T08:47:44Z</time></trkpt><trkpt lat="53.826671129730215" lon="30.336535028845496"><ele>160.0</ele><time>2026-05-03T08:47:45Z</time></trkpt><trkpt lat="53.82650253508983" lon="30.336535735066736"><ele>160.0</ele><time>2026-05-03T08:47:46Z</time></trkpt><trkpt lat="53.82632001718073" lon="30.33653400914322"><ele>160.0</ele><time>2026-05-03T08:47:47Z</time></trkpt><trkpt lat="53.82614037790797" lon="30.33653162814677"><ele>160.0</ele><time>2026-05-03T08:47:48Z</time></trkpt><trkpt lat="53.82595694216522" lon="30.3365304768939"><ele>160.0</ele><time>2026-05-03T08:47:49Z</time></trkpt><trkpt lat="53.825761598102474" lon="30.336530090067498"><ele>159.66666666666669</ele><time>2026-05-03T08:47:50Z</time></trkpt><trkpt lat="53.825555115174" lon="30.336533043142204"><ele>159.33333333333334</ele><time>2026-05-03T08:47:51Z</time></trkpt><trkpt lat="53.82534571417886" lon="30.3365345239695"><ele>159.0</ele><time>2026-05-03T08:47:52Z</time></trkpt><trkpt lat="53.825133297033354" lon="30.336542538346613"><ele>159.0</ele><time>2026-05-03T08:47:53Z</time></trkpt><trkpt lat="53.824911337126515" lon="30.336548014721952"><ele>159.0</ele><time>2026-05-03T08:47:54Z</time></trkpt><trkpt lat="53.8246854105214" lon="30.336553041425514"><ele>159.0</ele><time>2026-05-03T08:47:55Z</time></trkpt><trkpt lat="53.82446482717245" lon="30.336548964178306"><ele>158.5</ele><time>2026-05-03T08:47:56Z</time></trkpt><trkpt lat="53.82424038618965" lon="30.336548161942982"><ele>158.0</ele><time>2026-05-03T08:47:57Z</time></trkpt><trkpt lat="53.82401433593727" lon="30.336550145702493"><ele>158.0</ele><time>2026-05-03T08:47:58Z</time></trkpt><trkpt lat="53.82379314223932" lon="30.336551351013963"><ele>158.0</ele><time>2026-05-03T08:47:59Z</time></trkpt><trkpt lat="53.82357027289019" lon="30.336548195274535"><ele>158.0</ele><time>2026-05-03T08:48:00Z</time></trkpt><trkpt lat="53.823348503576106" lon="30.336543908274788"><ele>157.5</ele><time>2026-05-03T08:48:01Z</time></trkpt><trkpt lat="53.823109689237754" lon="30.336548110586477"><ele>157.0</ele><time>2026-05-03T08:48:02Z</time></trkpt><trkpt lat="53.822836887358775" lon="30.336546393028467"><ele>157.5</ele><time>2026-05-03T08:48:03Z</time></trkpt><trkpt lat="53.82254627974052" lon="30.336544383977362"><ele>158.0</ele><time>2026-05-03T08:48:04Z</time></trkpt><trkpt lat="53.82224950993592" lon="30.336537864858144"><ele>158.0</ele><time>2026-05-03T08:48:05Z</time></trkpt><trkpt lat="53.82196140873628" lon="30.33652789804343"><ele>158.0</ele><time>2026-05-03T08:48:06Z</time></trkpt><trkpt lat="53.821707465878134" lon="30.336522139358728"><ele>158.0</ele><time>2026-05-03T08:48:07Z</time></trkpt><trkpt lat="53.82148079109526" lon="30.336526676580167"><ele>158.0</ele><time>2026-05-03T08:48:08Z</time></trkpt><trkpt lat="53.82130635263762" lon="30.336532089913433"><ele>158.0</ele><time>2026-05-03T08:48:09Z</time></trkpt><trkpt lat="53.82118630013755" lon="30.336529385785965"><ele>158.0</ele><time>2026-05-03T08:48:10Z</time></trkpt><trkpt lat="53.82107189250261" lon="30.3365289597968"><ele>158.0</ele><time>2026-05-03T08:48:11Z</time></trkpt><trkpt lat="53.820944533011286" lon="30.33652808158801"><ele>158.0</ele><time>2026-05-03T08:48:12Z</time></trkpt><trkpt lat="53.820792710077136" lon="30.336531735819367"><ele>158.0</ele><time>2026-05-03T08:48:13Z</time></trkpt><trkpt lat="53.820607704819324" lon="30.336534777957123"><ele>158.0</ele><time>2026-05-03T08:48:14Z</time></trkpt><trkpt lat="53.82039956035765" lon="30.33653370975481"><ele>158.0</ele><time>2026-05-03T08:48:15Z</time></trkpt><trkpt lat="53.820160038771355" lon="30.336529435576267"><ele>158.0</ele><time>2026-05-03T08:48:16Z</time></trkpt><trkpt lat="53.81989901310029" lon="30.336539195469424"><ele>158.0</ele><time>2026-05-03T08:48:17Z</time></trkpt><trkpt lat="53.8196132937116" lon="30.336528024614747"><ele>158.0</ele><time>2026-05-03T08:48:18Z</time></trkpt><trkpt lat="53.819303644298905" lon="30.336532094984268"><ele>159.0</ele><time>2026-05-03T08:48:19Z</time></trkpt><trkpt lat="53.819000612654" lon="30.336532687342782"><ele>160.0</ele><time>2026-05-03T08:48:20Z</time></trkpt><trkpt lat="53.81870718511624" lon="30.336538218874015"><ele>160.0</ele><time>2026-05-03T08:48:21Z</time></trkpt><trkpt lat="53.818409622696855" lon="30.336540510478248"><ele>160.0</ele><time>2026-05-03T08:48:22Z</time></trkpt><trkpt lat="53.81811445466765" lon="30.336537058805746"><ele>160.0</ele><time>2026-05-03T08:48:23Z</time></trkpt><trkpt lat="53.81782312855476" lon="30.336532147382346"><ele>160.0</ele><time>2026-05-03T08:48:24Z</time></trkpt><trkpt lat="53.81753154195853" lon="30.336539672903072"><ele>160.0</ele><time>2026-05-03T08:48:25Z</time></trkpt><trkpt lat="53.81725079948966" lon="30.336533543067794"><ele>160.0</ele><time>2026-05-03T08:48:26Z</time></trkpt><trkpt lat="53.8169650441352" lon="30.336531189537702"><ele>160.0</ele><time>2026-05-03T08:48:27Z</time></trkpt><trkpt lat="53.81668240344331" lon="30.33652723774123"><ele>160.0</ele><time>2026-05-03T08:48:28Z</time></trkpt><trkpt lat="53.816407357523246" lon="30.336520929811073"><ele>160.0</ele><time>2026-05-03T08:48:29Z</time></trkpt><trkpt lat="53.81613316338445" lon="30.33651942753046"><ele>160.0</ele><time>2026-05-03T08:48:30Z</time></trkpt><trkpt lat="53.815859040990375" lon="30.336521640280292"><ele>160.0</ele><time>2026-05-03T08:48:31Z</time></trkpt><trkpt lat="53.81558955885785" lon="30.33652893995267"><ele>160.0</ele><time>2026-05-03T08:48:32Z</time></trkpt><trkpt lat="53.81532410705174" lon="30.336534132142774"><ele>159.66666666666669</ele><time>2026-05-03T08:48:33Z</time></trkpt><trkpt lat="53.81507045075215" lon="30.336532795135735"><ele>159.33333333333334</ele><time>2026-05-03T08:48:34Z</time></trkpt><trkpt lat="53.81487549217493" lon="30.33653284467059"><ele>159.0</ele><time>2026-05-03T08:48:35Z</time></trkpt><trkpt lat="53.81473265029469" lon="30.33653204498423"><ele>159.0</ele><time>2026-05-03T08:48:36Z</time></trkpt><trkpt lat="53.81462558656543" lon="30.33653629209066"><ele>159.0</ele><time>2026-05-03T08:48:37Z</time></trkpt><trkpt lat="53.81451387635942" lon="30.33654287279246"><ele>159.0</ele><time>2026-05-03T08:48:38Z</time></trkpt><trkpt lat="53.814391440491065" lon="30.33657056934347"><ele>159.0</ele><time>2026-05-03T08:48:39Z</time></trkpt><trkpt lat="53.81422537250377" lon="30.336539590268032"><ele>159.33333333333334</ele><time>2026-05-03T08:48:40Z</time></trkpt><trkpt lat="53.814058391400096" lon="30.336538938381054"><ele>159.66666666666669</ele><time>2026-05-03T08:48:41Z</time></trkpt><trkpt lat="53.8138779721167" lon="30.336543778125563"><ele>160.0</ele><time>2026-05-03T08:48:42Z</time></trkpt><trkpt lat="53.81368315897107" lon="30.33654365980286"><ele>160.66666666666669</ele><time>2026-05-03T08:48:43Z</time></trkpt><trkpt lat="53.8134836117371" lon="30.3365311150287"><ele>161.33333333333334</ele><time>2026-05-03T08:48:44Z</time></trkpt><trkpt lat="53.81327469594258" lon="30.336542147815496"><ele>162.0</ele><time>2026-05-03T08:48:44.999Z</time></trkpt><trkpt lat="53.813066099603816" lon="30.336554312369255"><ele>162.0</ele><time>2026-05-03T08:48:45.999Z</time></trkpt><trkpt lat="53.8128962482916" lon="30.336569292546958"><ele>162.0</ele><time>2026-05-03T08:48:46.999Z</time></trkpt><trkpt lat="53.81270119817119" lon="30.33654761059295"><ele>162.0</ele><time>2026-05-03T08:48:47.999Z</time></trkpt><trkpt lat="53.812492924355325" lon="30.33653758871087"><ele>162.0</ele><time>2026-05-03T08:48:48.999Z</time></trkpt><trkpt lat="53.8122869180796" lon="30.336526586383172"><ele>162.0</ele><time>2026-05-03T08:48:49.999Z</time></trkpt><trkpt lat="53.81208029826329" lon="30.336524531999903"><ele>162.0</ele><time>2026-05-03T08:48:50.999Z</time></trkpt><trkpt lat="53.811881742899935" lon="30.336519491177555"><ele>162.66666666666666</ele><time>2026-05-03T08:48:51.999Z</time></trkpt><trkpt lat="53.811686689596804" lon="30.336515386533204"><ele>163.33333333333331</ele><time>2026-05-03T08:48:52.999Z</time></trkpt><trkpt lat="53.811498624502214" lon="30.336512887438133"><ele>164.0</ele><time>2026-05-03T08:48:53.999Z</time></trkpt><trkpt lat="53.81130280192909" lon="30.33651437239196"><ele>164.0</ele><time>2026-05-03T08:48:54.999Z</time></trkpt><trkpt lat="53.811101915312264" lon="30.33652121410866"><ele>164.0</ele><time>2026-05-03T08:48:55.999Z</time></trkpt><trkpt lat="53.81089718018971" lon="30.33653236138123"><ele>164.0</ele><time>2026-05-03T08:48:56.999Z</time></trkpt><trkpt lat="53.81069094664124" lon="30.336534044398906"><ele>163.66666666666666</ele><time>2026-05-03T08:48:57.999Z</time></trkpt><trkpt lat="53.810477647316915" lon="30.33653256152855"><ele>163.33333333333334</ele><time>2026-05-03T08:48:58.999Z</time></trkpt><trkpt lat="53.8102660022297" lon="30.33652416275593"><ele>163.0</ele><time>2026-05-03T08:48:59.999Z</time></trkpt><trkpt lat="53.810053501548225" lon="30.336523851020665"><ele>162.33333333333334</ele><time>2026-05-03T08:49:00.999Z</time></trkpt><trkpt lat="53.809834915922536" lon="30.336523967685963"><ele>161.66666666666666</ele><time>2026-05-03T08:49:01.999Z</time></trkpt><trkpt lat="53.80961491795482" lon="30.33652455496739"><ele>161.0</ele><time>2026-05-03T08:49:02.999Z</time></trkpt><trkpt lat="53.80939398915605" lon="30.336517739026352"><ele>161.33333333333331</ele><time>2026-05-03T08:49:03.999Z</time></trkpt><trkpt lat="53.80917190448711" lon="30.336519071907727"><ele>161.66666666666666</ele><time>2026-05-03T08:49:04.999Z</time></trkpt><trkpt lat="53.80894806648554" lon="30.336523748860422"><ele>162.0</ele><time>2026-05-03T08:49:05.999Z</time></trkpt><trkpt lat="53.80872587113936" lon="30.33652928832057"><ele>162.0</ele><time>2026-05-03T08:49:06.999Z</time></trkpt><trkpt lat="53.80852556581431" lon="30.336530637464286"><ele>162.0</ele><time>2026-05-03T08:49:07.999Z</time></trkpt><trkpt lat="53.808338032731456" lon="30.33652636241091"><ele>162.0</ele><time>2026-05-03T08:49:08.999Z</time></trkpt><trkpt lat="53.808166036360994" lon="30.336530061966062"><ele>162.0</ele><time>2026-05-03T08:49:09.999Z</time></trkpt><trkpt lat="53.80799311032012" lon="30.33653940862344"><ele>162.0</ele><time>2026-05-03T08:49:10.999Z</time></trkpt><trkpt lat="53.80781078104177" lon="30.33653317862157"><ele>162.0</ele><time>2026-05-03T08:49:11.999Z</time></trkpt><trkpt lat="53.807611842585835" lon="30.33653510015062"><ele>161.66666666666666</ele><time>2026-05-03T08:49:12.999Z</time></trkpt><trkpt lat="53.8074032363583" lon="30.33653335639506"><ele>161.33333333333331</ele><time>2026-05-03T08:49:13.999Z</time></trkpt><trkpt lat="53.807212095729504" lon="30.336533184864223"><ele>161.0</ele><time>2026-05-03T08:49:14.999Z</time></trkpt><trkpt lat="53.807029176457384" lon="30.33653631214951"><ele>161.0</ele><time>2026-05-03T08:49:15.999Z</time></trkpt><trkpt lat="53.80685719764809" lon="30.336535910350356"><ele>161.0</ele><time>2026-05-03T08:49:16.999Z</time></trkpt><trkpt lat="53.80669067505789" lon="30.33653458597636"><ele>161.0</ele><time>2026-05-03T08:49:17.999Z</time></trkpt><trkpt lat="53.80651281535325" lon="30.336531562402765"><ele>161.0</ele><time>2026-05-03T08:49:18.999Z</time></trkpt><trkpt lat="53.80633193493834" lon="30.33653428093956"><ele>161.0</ele><time>2026-05-03T08:49:19.999Z</time></trkpt><trkpt lat="53.80614423608711" lon="30.3365400024204"><ele>161.0</ele><time>2026-05-03T08:49:20.999Z</time></trkpt><trkpt lat="53.80595498936639" lon="30.33654583206088"><ele>160.66666666666666</ele><time>2026-05-03T08:49:22.001Z</time></trkpt><trkpt lat="53.805772796981" lon="30.33654603389121"><ele>160.33333333333334</ele><time>2026-05-03T08:49:23.001Z</time></trkpt><trkpt lat="53.805574893869526" lon="30.336538308000943"><ele>160.0</ele><time>2026-05-03T08:49:24.001Z</time></trkpt><trkpt lat="53.80538510351293" lon="30.336529943194112"><ele>160.0</ele><time>2026-05-03T08:49:25.001Z</time></trkpt><trkpt lat="53.805180891627025" lon="30.336528827069234"><ele>160.0</ele><time>2026-05-03T08:49:26.001Z</time></trkpt><trkpt lat="53.80498774429058" lon="30.336534372254917"><ele>160.0</ele><time>2026-05-03T08:49:27.001Z</time></trkpt><trkpt lat="53.80481334055297" lon="30.336544449318804"><ele>160.0</ele><time>2026-05-03T08:49:28.001Z</time></trkpt><trkpt lat="53.804647656299885" lon="30.33654638703602"><ele>160.0</ele><time>2026-05-03T08:49:29.001Z</time></trkpt><trkpt lat="53.80448585413931" lon="30.33654190925224"><ele>160.0</ele><time>2026-05-03T08:49:30.001Z</time></trkpt><trkpt lat="53.804328567507305" lon="30.33653499229177"><ele>160.0</ele><time>2026-05-03T08:49:31.001Z</time></trkpt><trkpt lat="53.804165061051684" lon="30.336539022788084"><ele>160.0</ele><time>2026-05-03T08:49:32.001Z</time></trkpt><trkpt lat="53.804005346884644" lon="30.336543949084035"><ele>160.0</ele><time>2026-05-03T08:49:33.001Z</time></trkpt><trkpt lat="53.80384987641625" lon="30.336544729040465"><ele>160.0</ele><time>2026-05-03T08:49:34Z</time></trkpt><trkpt lat="53.80369596874175" lon="30.336545637955645"><ele>160.0</ele><time>2026-05-03T08:49:35Z</time></trkpt><trkpt lat="53.803532341344855" lon="30.336546107277314"><ele>160.0</ele><time>2026-05-03T08:49:36Z</time></trkpt><trkpt lat="53.80337800364282" lon="30.336543277240814"><ele>160.25</ele><time>2026-05-03T08:49:37Z</time></trkpt><trkpt lat="53.80324124570266" lon="30.336547889505326"><ele>160.5</ele><time>2026-05-03T08:49:38Z</time></trkpt><trkpt lat="53.803150859369616" lon="30.336554665728205"><ele>160.75</ele><time>2026-05-03T08:49:39Z</time></trkpt><trkpt lat="53.803077072426255" lon="30.336538874731158"><ele>161.0</ele><time>2026-05-03T08:49:41Z</time></trkpt><trkpt lat="53.803036482433576" lon="30.336827212779205"><ele>161.0</ele><time>2026-05-03T08:49:43Z</time></trkpt><trkpt lat="53.803015553120915" lon="30.336972763437352"><ele>161.0</ele><time>2026-05-03T08:49:44Z</time></trkpt><trkpt lat="53.8030211808163" lon="30.337176608477932"><ele>161.0</ele><time>2026-05-03T08:49:45Z</time></trkpt><trkpt lat="53.803021305833596" lon="30.33741282920186"><ele>161.0</ele><time>2026-05-03T08:49:46Z</time></trkpt><trkpt lat="53.80301004183448" lon="30.337659435153384"><ele>161.0</ele><time>2026-05-03T08:49:47Z</time></trkpt><trkpt lat="53.80301811462976" lon="30.33787920494694"><ele>161.0</ele><time>2026-05-03T08:49:48Z</time></trkpt><trkpt lat="53.803019415492095" lon="30.338100052318143"><ele>161.0</ele><time>2026-05-03T08:49:49Z</time></trkpt><trkpt lat="53.80301874041319" lon="30.338330478606494"><ele>161.0</ele><time>2026-05-03T08:49:50Z</time></trkpt><trkpt lat="53.80301650410263" lon="30.338569000138392"><ele>161.0</ele><time>2026-05-03T08:49:51Z</time></trkpt><trkpt lat="53.80301280585319" lon="30.338817001704555"><ele>161.0</ele><time>2026-05-03T08:49:52Z</time></trkpt><trkpt lat="53.803011844899736" lon="30.33906688413227"><ele>161.0</ele><time>2026-05-03T08:49:53Z</time></trkpt><trkpt lat="53.80301324126258" lon="30.339335293333647"><ele>161.25</ele><time>2026-05-03T08:49:54Z</time></trkpt><trkpt lat="53.803015188756376" lon="30.339589352029556"><ele>161.5</ele><time>2026-05-03T08:49:55Z</time></trkpt><trkpt lat="53.80301769479158" lon="30.33984400499306"><ele>161.75</ele><time>2026-05-03T08:49:56Z</time></trkpt><trkpt lat="53.80301590503877" lon="30.340093505038077"><ele>162.0</ele><time>2026-05-03T08:49:57Z</time></trkpt><trkpt lat="53.80301996222052" lon="30.340305694314512"><ele>162.0</ele><time>2026-05-03T08:49:58Z</time></trkpt><trkpt lat="53.80302421302069" lon="30.340463826890936"><ele>162.0</ele><time>2026-05-03T08:49:59Z</time></trkpt><trkpt lat="53.80302358110785" lon="30.340614473977258"><ele>162.0</ele><time>2026-05-03T08:50:00Z</time></trkpt><trkpt lat="53.803024214866866" lon="30.340761818288513"><ele>162.0</ele><time>2026-05-03T08:50:01Z</time></trkpt><trkpt lat="53.80302845805875" lon="30.34092835657123"><ele>162.0</ele><time>2026-05-03T08:50:02Z</time></trkpt><trkpt lat="53.803035594261196" lon="30.34108854400705"><ele>162.0</ele><time>2026-05-03T08:50:03Z</time></trkpt><trkpt lat="53.80304363343849" lon="30.34126836035561"><ele>162.0</ele><time>2026-05-03T08:50:04Z</time></trkpt><trkpt lat="53.80304328260218" lon="30.34144333094596"><ele>162.0</ele><time>2026-05-03T08:50:05Z</time></trkpt><trkpt lat="53.8030440040102" lon="30.341651185744187"><ele>162.0</ele><time>2026-05-03T08:50:06Z</time></trkpt><trkpt lat="53.80304281483742" lon="30.341902916713266"><ele>162.0</ele><time>2026-05-03T08:50:07Z</time></trkpt><trkpt lat="53.80303597944046" lon="30.34218298237399"><ele>162.0</ele><time>2026-05-03T08:50:08Z</time></trkpt><trkpt lat="53.80303118685723" lon="30.342478884677497"><ele>162.0</ele><time>2026-05-03T08:50:09Z</time></trkpt><trkpt lat="53.803029507014436" lon="30.342776200141206"><ele>161.33333333333334</ele><time>2026-05-03T08:50:10Z</time></trkpt><trkpt lat="53.80302678073222" lon="30.34306159772841"><ele>160.66666666666669</ele><time>2026-05-03T08:50:11Z</time></trkpt><trkpt lat="53.803020106998694" lon="30.343341588334933"><ele>160.0</ele><time>2026-05-03T08:50:12Z</time></trkpt><trkpt lat="53.80301833063567" lon="30.343644352254106"><ele>160.66666666666669</ele><time>2026-05-03T08:50:13Z</time></trkpt><trkpt lat="53.803019485805116" lon="30.343935942977744"><ele>161.33333333333334</ele><time>2026-05-03T08:50:14Z</time></trkpt><trkpt lat="53.803022326453224" lon="30.344190268586996"><ele>162.0</ele><time>2026-05-03T08:50:15Z</time></trkpt><trkpt lat="53.80301925216044" lon="30.344447407136975"><ele>162.0</ele><time>2026-05-03T08:50:16Z</time></trkpt><trkpt lat="53.80301032034799" lon="30.34471279875785"><ele>162.0</ele><time>2026-05-03T08:50:17Z</time></trkpt><trkpt lat="53.803011289049365" lon="30.34498539131003"><ele>162.0</ele><time>2026-05-03T08:50:18Z</time></trkpt><trkpt lat="53.803016563511584" lon="30.345285928681864"><ele>160.66666666666666</ele><time>2026-05-03T08:50:19Z</time></trkpt><trkpt lat="53.80301677307472" lon="30.345612241967235"><ele>159.33333333333331</ele><time>2026-05-03T08:50:20Z</time></trkpt><trkpt lat="53.80301479017174" lon="30.345926847160953"><ele>158.0</ele><time>2026-05-03T08:50:21Z</time></trkpt><trkpt lat="53.803011839535294" lon="30.346259300704034"><ele>158.0</ele><time>2026-05-03T08:50:22Z</time></trkpt><trkpt lat="53.803010866606996" lon="30.346613549188277"><ele>158.0</ele><time>2026-05-03T08:50:23Z</time></trkpt><trkpt lat="53.80301562044781" lon="30.346980561799878"><ele>158.0</ele><time>2026-05-03T08:50:24Z</time></trkpt><trkpt lat="53.803011120745275" lon="30.347355814863302"><ele>158.0</ele><time>2026-05-03T08:50:25Z</time></trkpt><trkpt lat="53.80301390404689" lon="30.347723905719242"><ele>158.0</ele><time>2026-05-03T08:50:26Z</time></trkpt><trkpt lat="53.803016064540344" lon="30.34809583128975"><ele>158.0</ele><time>2026-05-03T08:50:27Z</time></trkpt><trkpt lat="53.80301542618923" lon="30.34846637863366"><ele>158.0</ele><time>2026-05-03T08:50:28Z</time></trkpt><trkpt lat="53.80301280909609" lon="30.348844740572563"><ele>158.0</ele><time>2026-05-03T08:50:29Z</time></trkpt><trkpt lat="53.80300979449608" lon="30.34923495537836"><ele>158.0</ele><time>2026-05-03T08:50:30Z</time></trkpt><trkpt lat="53.80301047445109" lon="30.349623312985987"><ele>158.0</ele><time>2026-05-03T08:50:31Z</time></trkpt><trkpt lat="53.80301352511789" lon="30.35000748852896"><ele>157.5</ele><time>2026-05-03T08:50:31.999Z</time></trkpt><trkpt lat="53.80301535815156" lon="30.350398634674495"><ele>157.0</ele><time>2026-05-03T08:50:32.999Z</time></trkpt><trkpt lat="53.80301440841126" lon="30.35078847700442"><ele>159.0</ele><time>2026-05-03T08:50:33.999Z</time></trkpt><trkpt lat="53.803014649382526" lon="30.351173902598738"><ele>161.0</ele><time>2026-05-03T08:50:34.999Z</time></trkpt><trkpt lat="53.80301800994834" lon="30.351574544387528"><ele>162.0</ele><time>2026-05-03T08:50:35.999Z</time></trkpt><trkpt lat="53.803020403243586" lon="30.351961077786985"><ele>163.0</ele><time>2026-05-03T08:50:36.999Z</time></trkpt><trkpt lat="53.80302269816773" lon="30.35235639918461"><ele>163.5</ele><time>2026-05-03T08:50:37.999Z</time></trkpt><trkpt lat="53.8030253568145" lon="30.35275205003469"><ele>164.0</ele><time>2026-05-03T08:50:38.999Z</time></trkpt><trkpt lat="53.80302706568135" lon="30.353144770129433"><ele>164.0</ele><time>2026-05-03T08:50:39.999Z</time></trkpt><trkpt lat="53.80302800239244" lon="30.353548333147845"><ele>164.0</ele><time>2026-05-03T08:50:40.999Z</time></trkpt><trkpt lat="53.80302601597451" lon="30.353958016277648"><ele>163.5</ele><time>2026-05-03T08:50:41.999Z</time></trkpt><trkpt lat="53.80301952150179" lon="30.354373209311746"><ele>163.0</ele><time>2026-05-03T08:50:42.999Z</time></trkpt><trkpt lat="53.80301118419714" lon="30.354791265101824"><ele>162.5</ele><time>2026-05-03T08:50:43.999Z</time></trkpt><trkpt lat="53.803004611062704" lon="30.355215191306712"><ele>162.0</ele><time>2026-05-03T08:50:44.999Z</time></trkpt><trkpt lat="53.80299645993173" lon="30.355639224631506"><ele>162.0</ele><time>2026-05-03T08:50:45.999Z</time></trkpt><trkpt lat="53.8029941307817" lon="30.356074562300453"><ele>162.0</ele><time>2026-05-03T08:50:46.999Z</time></trkpt><trkpt lat="53.802986984940176" lon="30.356503979539486"><ele>163.0</ele><time>2026-05-03T08:50:47.999Z</time></trkpt><trkpt lat="53.80297884872633" lon="30.35693636394702"><ele>164.0</ele><time>2026-05-03T08:50:48.999Z</time></trkpt><trkpt lat="53.802968771639684" lon="30.357373104035034"><ele>164.5</ele><time>2026-05-03T08:50:49.999Z</time></trkpt><trkpt lat="53.802962743659975" lon="30.357812181554568"><ele>165.0</ele><time>2026-05-03T08:50:50.999Z</time></trkpt><trkpt lat="53.802959234287975" lon="30.358248856250288"><ele>164.0</ele><time>2026-05-03T08:50:51.999Z</time></trkpt><trkpt lat="53.802951165881815" lon="30.35868996617851"><ele>163.0</ele><time>2026-05-03T08:50:52.999Z</time></trkpt><trkpt lat="53.802959457381085" lon="30.35914145618051"><ele>163.0</ele><time>2026-05-03T08:50:53.999Z</time></trkpt><trkpt lat="53.80295420115203" lon="30.359557464084062"><ele>163.0</ele><time>2026-05-03T08:50:54.999Z</time></trkpt><trkpt lat="53.80294916691115" lon="30.359942296995385"><ele>163.0</ele><time>2026-05-03T08:50:55.999Z</time></trkpt><trkpt lat="53.80293122793943" lon="30.360304859370412"><ele>163.0</ele><time>2026-05-03T08:50:56.999Z</time></trkpt><trkpt lat="53.80292454921192" lon="30.360639491398118"><ele>163.0</ele><time>2026-05-03T08:50:57.999Z</time></trkpt><trkpt lat="53.8029361199821" lon="30.360959095082322"><ele>163.0</ele><time>2026-05-03T08:50:58.999Z</time></trkpt><trkpt lat="53.802932518067344" lon="30.361257126087096"><ele>163.0</ele><time>2026-05-03T08:50:59.999Z</time></trkpt><trkpt lat="53.802928727694834" lon="30.361543096252472"><ele>163.0</ele><time>2026-05-03T08:51:00.999Z</time></trkpt><trkpt lat="53.80292571677895" lon="30.361777335297145"><ele>163.0</ele><time>2026-05-03T08:51:01.999Z</time></trkpt><trkpt lat="53.802923751911415" lon="30.361925590640517"><ele>163.0</ele><time>2026-05-03T08:51:02.999Z</time></trkpt><trkpt lat="53.80292232828142" lon="30.362033007899125"><ele>163.0</ele><time>2026-05-03T08:51:03.999Z</time></trkpt><trkpt lat="53.80272793040445" lon="30.362141486554087"><ele>163.0</ele><time>2026-05-03T08:51:06.999Z</time></trkpt><trkpt lat="53.802636292028026" lon="30.362165082086058"><ele>163.0</ele><time>2026-05-03T08:51:07.999Z</time></trkpt><trkpt lat="53.80251086056081" lon="30.362171346361073"><ele>163.0</ele><time>2026-05-03T08:51:08.999Z</time></trkpt><trkpt lat="53.80236697263213" lon="30.362173288498877"><ele>163.0</ele><time>2026-05-03T08:51:09.999Z</time></trkpt><trkpt lat="53.802211777709935" lon="30.362179234550084"><ele>163.0</ele><time>2026-05-03T08:51:10.999Z</time></trkpt><trkpt lat="53.80204745236424" lon="30.362191874071044"><ele>163.66666666666669</ele><time>2026-05-03T08:51:11.999Z</time></trkpt><trkpt lat="53.80186414837129" lon="30.362211061034618"><ele>164.33333333333334</ele><time>2026-05-03T08:51:12.999Z</time></trkpt><trkpt lat="53.80166548299662" lon="30.362227564322104"><ele>165.0</ele><time>2026-05-03T08:51:13.999Z</time></trkpt><trkpt lat="53.80145659995617" lon="30.362246334148935"><ele>165.0</ele><time>2026-05-03T08:51:14.999Z</time></trkpt><trkpt lat="53.80124491232398" lon="30.362266079472988"><ele>165.0</ele><time>2026-05-03T08:51:15.999Z</time></trkpt><trkpt lat="53.80102357923596" lon="30.362287033424156"><ele>165.0</ele><time>2026-05-03T08:51:16.999Z</time></trkpt><trkpt lat="53.800789757555144" lon="30.362306631336907"><ele>165.0</ele><time>2026-05-03T08:51:17.999Z</time></trkpt><trkpt lat="53.800551500649036" lon="30.362324396478257"><ele>165.0</ele><time>2026-05-03T08:51:18.999Z</time></trkpt><trkpt lat="53.800313660124786" lon="30.362343641345472"><ele>165.0</ele><time>2026-05-03T08:51:19.999Z</time></trkpt><trkpt lat="53.80006207817466" lon="30.362362196256893"><ele>165.0</ele><time>2026-05-03T08:51:20.999Z</time></trkpt><trkpt lat="53.79981202686176" lon="30.36237616119955"><ele>165.0</ele><time>2026-05-03T08:51:21.999Z</time></trkpt><trkpt lat="53.7995524775805" lon="30.362388174816335"><ele>165.0</ele><time>2026-05-03T08:51:22.999Z</time></trkpt><trkpt lat="53.79929432117529" lon="30.3624061098689"><ele>164.5</ele><time>2026-05-03T08:51:23.999Z</time></trkpt><trkpt lat="53.79902990456441" lon="30.362424590606224"><ele>164.0</ele><time>2026-05-03T08:51:24.999Z</time></trkpt><trkpt lat="53.798767789404934" lon="30.362444655139726"><ele>164.0</ele><time>2026-05-03T08:51:25.999Z</time></trkpt><trkpt lat="53.79850133621383" lon="30.362461575058536"><ele>164.0</ele><time>2026-05-03T08:51:26.999Z</time></trkpt><trkpt lat="53.798237923266576" lon="30.362478922936216"><ele>165.0</ele><time>2026-05-03T08:51:28Z</time></trkpt><trkpt lat="53.79797675034078" lon="30.36249763747637"><ele>166.0</ele><time>2026-05-03T08:51:29Z</time></trkpt><trkpt lat="53.79771868689625" lon="30.36251452141065"><ele>165.0</ele><time>2026-05-03T08:51:30Z</time></trkpt><trkpt lat="53.797456369063" lon="30.36252522221017"><ele>164.0</ele><time>2026-05-03T08:51:31Z</time></trkpt><trkpt lat="53.79719383159847" lon="30.362541093548252"><ele>164.0</ele><time>2026-05-03T08:51:32Z</time></trkpt><trkpt lat="53.79692579286885" lon="30.362560269701987"><ele>164.0</ele><time>2026-05-03T08:51:33Z</time></trkpt><trkpt lat="53.796666295631404" lon="30.362580368664243"><ele>164.5</ele><time>2026-05-03T08:51:34Z</time></trkpt><trkpt lat="53.796403931572186" lon="30.362597543630738"><ele>165.0</ele><time>2026-05-03T08:51:35Z</time></trkpt><trkpt lat="53.79613934755479" lon="30.362609900467007"><ele>164.5</ele><time>2026-05-03T08:51:36Z</time></trkpt><trkpt lat="53.79588786014283" lon="30.362625923282167"><ele>164.0</ele><time>2026-05-03T08:51:37Z</time></trkpt><trkpt lat="53.79564470268392" lon="30.36264495040123"><ele>164.0</ele><time>2026-05-03T08:51:38Z</time></trkpt><trkpt lat="53.79540194572433" lon="30.36266210854671"><ele>164.0</ele><time>2026-05-03T08:51:39Z</time></trkpt><trkpt lat="53.79516005948229" lon="30.362673881115064"><ele>162.5</ele><time>2026-05-03T08:51:40Z</time></trkpt><trkpt lat="53.794912071339034" lon="30.36269284711566"><ele>161.0</ele><time>2026-05-03T08:51:41Z</time></trkpt><trkpt lat="53.79467096451473" lon="30.36270897674469"><ele>161.0</ele><time>2026-05-03T08:51:42Z</time></trkpt><trkpt lat="53.79442624307088" lon="30.36273520059471"><ele>161.0</ele><time>2026-05-03T08:51:43Z</time></trkpt><trkpt lat="53.79417982297089" lon="30.362771148124306"><ele>160.33333333333331</ele><time>2026-05-03T08:51:44Z</time></trkpt><trkpt lat="53.79397257060501" lon="30.362741424955576"><ele>159.66666666666666</ele><time>2026-05-03T08:51:45Z</time></trkpt><trkpt lat="53.79374298413629" lon="30.362761194089916"><ele>159.0</ele><time>2026-05-03T08:51:46Z</time></trkpt><trkpt lat="53.79351747323755" lon="30.362771909864136"><ele>158.5</ele><time>2026-05-03T08:51:47Z</time></trkpt><trkpt lat="53.79329068844632" lon="30.362786035854054"><ele>158.0</ele><time>2026-05-03T08:51:48Z</time></trkpt><trkpt lat="53.79306651629337" lon="30.36280252052581"><ele>158.0</ele><time>2026-05-03T08:51:49Z</time></trkpt><trkpt lat="53.79283765893732" lon="30.36282167446659"><ele>158.0</ele><time>2026-05-03T08:51:50Z</time></trkpt><trkpt lat="53.7926021804256" lon="30.362842027201932"><ele>157.0</ele><time>2026-05-03T08:51:51Z</time></trkpt><trkpt lat="53.79236329747238" lon="30.36285275686961"><ele>156.0</ele><time>2026-05-03T08:51:52Z</time></trkpt><trkpt lat="53.79212024241815" lon="30.36287324592433"><ele>156.0</ele><time>2026-05-03T08:51:53Z</time></trkpt><trkpt lat="53.791880116706054" lon="30.362888848614705"><ele>156.0</ele><time>2026-05-03T08:51:54Z</time></trkpt><trkpt lat="53.7916565239421" lon="30.3629018741719"><ele>155.33333333333334</ele><time>2026-05-03T08:51:55Z</time></trkpt><trkpt lat="53.79144039629679" lon="30.36291238147692"><ele>154.66666666666669</ele><time>2026-05-03T08:51:56Z</time></trkpt><trkpt lat="53.791216293634236" lon="30.362923423188473"><ele>154.0</ele><time>2026-05-03T08:51:57Z</time></trkpt><trkpt lat="53.79099279757366" lon="30.362935550090203"><ele>153.0</ele><time>2026-05-03T08:51:58Z</time></trkpt><trkpt lat="53.79075938607957" lon="30.362949072447027"><ele>152.0</ele><time>2026-05-03T08:51:59Z</time></trkpt><trkpt lat="53.79052668113761" lon="30.36296690041323"><ele>152.0</ele><time>2026-05-03T08:52:00Z</time></trkpt><trkpt lat="53.790290336355724" lon="30.362981580831917"><ele>152.0</ele><time>2026-05-03T08:52:01Z</time></trkpt><trkpt lat="53.79005721923347" lon="30.36299856468861"><ele>150.5</ele><time>2026-05-03T08:52:02Z</time></trkpt><trkpt lat="53.78982258272295" lon="30.363008130508412"><ele>149.0</ele><time>2026-05-03T08:52:03Z</time></trkpt><trkpt lat="53.789583683314795" lon="30.363021635758663"><ele>147.5</ele><time>2026-05-03T08:52:04Z</time></trkpt><trkpt lat="53.78934119091346" lon="30.36303570555451"><ele>146.0</ele><time>2026-05-03T08:52:05Z</time></trkpt><trkpt lat="53.78910597624019" lon="30.36304958089817"><ele>146.0</ele><time>2026-05-03T08:52:06Z</time></trkpt><trkpt lat="53.78887219371116" lon="30.36306200923479"><ele>146.0</ele><time>2026-05-03T08:52:07Z</time></trkpt><trkpt lat="53.788638249351514" lon="30.36308427514341"><ele>147.5</ele><time>2026-05-03T08:52:08Z</time></trkpt><trkpt lat="53.78840956828005" lon="30.363094727606917"><ele>149.0</ele><time>2026-05-03T08:52:09Z</time></trkpt><trkpt lat="53.788184669562334" lon="30.36310750068827"><ele>149.0</ele><time>2026-05-03T08:52:10Z</time></trkpt><trkpt lat="53.78796927808508" lon="30.363121129308936"><ele>149.0</ele><time>2026-05-03T08:52:11Z</time></trkpt><trkpt lat="53.78775684462346" lon="30.36313484727666"><ele>149.0</ele><time>2026-05-03T08:52:12Z</time></trkpt><trkpt lat="53.7875275916096" lon="30.363152405392878"><ele>151.33333333333331</ele><time>2026-05-03T08:52:13Z</time></trkpt><trkpt lat="53.78730625799239" lon="30.36316189019795"><ele>153.66666666666666</ele><time>2026-05-03T08:52:14Z</time></trkpt><trkpt lat="53.78708009299044" lon="30.36317720224443"><ele>156.0</ele><time>2026-05-03T08:52:15Z</time></trkpt><trkpt lat="53.786852496647455" lon="30.36319995535586"><ele>157.0</ele><time>2026-05-03T08:52:16Z</time></trkpt><trkpt lat="53.78662632543188" lon="30.363208376411166"><ele>158.0</ele><time>2026-05-03T08:52:17Z</time></trkpt><trkpt lat="53.78640209422383" lon="30.363227425432516"><ele>158.0</ele><time>2026-05-03T08:52:18Z</time></trkpt><trkpt lat="53.78618869851778" lon="30.363242739778713"><ele>158.0</ele><time>2026-05-03T08:52:19Z</time></trkpt><trkpt lat="53.78598966942635" lon="30.363260495858082"><ele>158.0</ele><time>2026-05-03T08:52:20Z</time></trkpt><trkpt lat="53.78579880904181" lon="30.36326889192217"><ele>157.0</ele><time>2026-05-03T08:52:21Z</time></trkpt><trkpt lat="53.78560408528562" lon="30.363268137284084"><ele>156.0</ele><time>2026-05-03T08:52:22Z</time></trkpt><trkpt lat="53.78540275080851" lon="30.363296377139513"><ele>155.0</ele><time>2026-05-03T08:52:23Z</time></trkpt><trkpt lat="53.785190888169765" lon="30.363312632901476"><ele>154.66666666666666</ele><time>2026-05-03T08:52:24Z</time></trkpt><trkpt lat="53.784977960108264" lon="30.3633273732721"><ele>154.33333333333334</ele><time>2026-05-03T08:52:24.999Z</time></trkpt><trkpt lat="53.784761237466974" lon="30.36334398495385"><ele>154.0</ele><time>2026-05-03T08:52:25.999Z</time></trkpt><trkpt lat="53.78453649165707" lon="30.36335332807298"><ele>154.0</ele><time>2026-05-03T08:52:26.999Z</time></trkpt><trkpt lat="53.784315515046174" lon="30.363369362089696"><ele>154.0</ele><time>2026-05-03T08:52:27.999Z</time></trkpt><trkpt lat="53.784088082928825" lon="30.363382735620362"><ele>154.0</ele><time>2026-05-03T08:52:28.999Z</time></trkpt><trkpt lat="53.78385975193397" lon="30.363396396729108"><ele>154.0</ele><time>2026-05-03T08:52:29.999Z</time></trkpt><trkpt lat="53.78363187329571" lon="30.36341354395301"><ele>154.0</ele><time>2026-05-03T08:52:30.999Z</time></trkpt><trkpt lat="53.78339665637851" lon="30.363425593086614"><ele>151.0</ele><time>2026-05-03T08:52:31.999Z</time></trkpt><trkpt lat="53.78315682559926" lon="30.363437542792415"><ele>148.0</ele><time>2026-05-03T08:52:32.999Z</time></trkpt><trkpt lat="53.78292660483783" lon="30.36345215230298"><ele>148.0</ele><time>2026-05-03T08:52:33.999Z</time></trkpt><trkpt lat="53.782692221597294" lon="30.363465011153977"><ele>148.0</ele><time>2026-05-03T08:52:34.999Z</time></trkpt><trkpt lat="53.78245366698701" lon="30.363481237504995"><ele>146.5</ele><time>2026-05-03T08:52:35.999Z</time></trkpt><trkpt lat="53.782210936886734" lon="30.36349565027341"><ele>145.0</ele><time>2026-05-03T08:52:36.999Z</time></trkpt><trkpt lat="53.78197332238214" lon="30.363512436747975"><ele>145.0</ele><time>2026-05-03T08:52:37.999Z</time></trkpt><trkpt lat="53.781725190513846" lon="30.363529965479934"><ele>145.0</ele><time>2026-05-03T08:52:38.999Z</time></trkpt><trkpt lat="53.78148342289525" lon="30.36354804227304"><ele>145.0</ele><time>2026-05-03T08:52:39.999Z</time></trkpt><trkpt lat="53.781243720822154" lon="30.36356322025675"><ele>145.0</ele><time>2026-05-03T08:52:40.999Z</time></trkpt><trkpt lat="53.78101164977995" lon="30.363577956489415"><ele>147.0</ele><time>2026-05-03T08:52:41.999Z</time></trkpt><trkpt lat="53.78078459943593" lon="30.36359456363244"><ele>149.0</ele><time>2026-05-03T08:52:42.999Z</time></trkpt><trkpt lat="53.78055714170043" lon="30.363614392700445"><ele>149.0</ele><time>2026-05-03T08:52:43.999Z</time></trkpt><trkpt lat="53.78032329878084" lon="30.363620886442227"><ele>149.0</ele><time>2026-05-03T08:52:44.999Z</time></trkpt><trkpt lat="53.7800819472016" lon="30.36363207451318"><ele>154.5</ele><time>2026-05-03T08:52:45.999Z</time></trkpt><trkpt lat="53.779840949212755" lon="30.363643556680287"><ele>160.0</ele><time>2026-05-03T08:52:46.999Z</time></trkpt><trkpt lat="53.77959688332262" lon="30.363657134801265"><ele>163.0</ele><time>2026-05-03T08:52:47.999Z</time></trkpt><trkpt lat="53.779349162168295" lon="30.363671855804284"><ele>166.0</ele><time>2026-05-03T08:52:48.999Z</time></trkpt><trkpt lat="53.779113831928875" lon="30.363685582712996"><ele>166.0</ele><time>2026-05-03T08:52:49.999Z</time></trkpt><trkpt lat="53.77889506952847" lon="30.36369894729285"><ele>166.0</ele><time>2026-05-03T08:52:50.999Z</time></trkpt><trkpt lat="53.778683337589854" lon="30.36371306700781"><ele>166.0</ele><time>2026-05-03T08:52:51.999Z</time></trkpt><trkpt lat="53.77846772526503" lon="30.363719632059247"><ele>168.0</ele><time>2026-05-03T08:52:52.999Z</time></trkpt><trkpt lat="53.77824986569499" lon="30.363739652775944"><ele>170.0</ele><time>2026-05-03T08:52:53.999Z</time></trkpt><trkpt lat="53.77803213603037" lon="30.363724022055468"><ele>172.0</ele><time>2026-05-03T08:52:54.999Z</time></trkpt><trkpt lat="53.77782186113863" lon="30.36373495374241"><ele>172.66666666666669</ele><time>2026-05-03T08:52:55.999Z</time></trkpt><trkpt lat="53.777614463125275" lon="30.363745266759686"><ele>173.33333333333334</ele><time>2026-05-03T08:52:56.999Z</time></trkpt><trkpt lat="53.77739989544894" lon="30.363756420779584"><ele>174.0</ele><time>2026-05-03T08:52:57.999Z</time></trkpt><trkpt lat="53.7771778974867" lon="30.36377360209442"><ele>174.0</ele><time>2026-05-03T08:52:58.999Z</time></trkpt><trkpt lat="53.77695693406058" lon="30.363818563149053"><ele>174.0</ele><time>2026-05-03T08:52:59.999Z</time></trkpt><trkpt lat="53.776736096716455" lon="30.363828986496294"><ele>174.0</ele><time>2026-05-03T08:53:00.999Z</time></trkpt><trkpt lat="53.77651556025417" lon="30.363841653052553"><ele>173.66666666666666</ele><time>2026-05-03T08:53:01.999Z</time></trkpt><trkpt lat="53.776307933657044" lon="30.36385328880088"><ele>173.33333333333331</ele><time>2026-05-03T08:53:02.999Z</time></trkpt><trkpt lat="53.77609141767167" lon="30.363868360779193"><ele>173.0</ele><time>2026-05-03T08:53:03.999Z</time></trkpt><trkpt lat="53.775879929046425" lon="30.363877531368445"><ele>172.33333333333331</ele><time>2026-05-03T08:53:04.999Z</time></trkpt><trkpt lat="53.77565276284687" lon="30.36389192247827"><ele>171.66666666666666</ele><time>2026-05-03T08:53:05.999Z</time></trkpt><trkpt lat="53.77543621711934" lon="30.363902845049523"><ele>171.0</ele><time>2026-05-03T08:53:06.999Z</time></trkpt><trkpt lat="53.77521498558218" lon="30.36391339475483"><ele>171.0</ele><time>2026-05-03T08:53:07.999Z</time></trkpt><trkpt lat="53.77499722050171" lon="30.363921568513362"><ele>171.0</ele><time>2026-05-03T08:53:08.999Z</time></trkpt><trkpt lat="53.77477296182443" lon="30.363946598786708"><ele>171.0</ele><time>2026-05-03T08:53:09.999Z</time></trkpt><trkpt lat="53.77455327939767" lon="30.36396492381866"><ele>172.0</ele><time>2026-05-03T08:53:10.999Z</time></trkpt><trkpt lat="53.774336275544826" lon="30.363978010776094"><ele>173.0</ele><time>2026-05-03T08:53:11.999Z</time></trkpt><trkpt lat="53.77412405719851" lon="30.363989401757042"><ele>174.0</ele><time>2026-05-03T08:53:12.999Z</time></trkpt><trkpt lat="53.77390467736851" lon="30.363997438322627"><ele>174.0</ele><time>2026-05-03T08:53:13.999Z</time></trkpt><trkpt lat="53.77368362032041" lon="30.364015428625372"><ele>174.0</ele><time>2026-05-03T08:53:14.999Z</time></trkpt><trkpt lat="53.77346508347444" lon="30.36402725136456"><ele>174.0</ele><time>2026-05-03T08:53:15.999Z</time></trkpt><trkpt lat="53.77325198416392" lon="30.364033498164225"><ele>174.33333333333334</ele><time>2026-05-03T08:53:16.999Z</time></trkpt><trkpt lat="53.77304278219324" lon="30.3640430815788"><ele>174.66666666666669</ele><time>2026-05-03T08:53:17.999Z</time></trkpt><trkpt lat="53.77284408863667" lon="30.364052935904237"><ele>175.0</ele><time>2026-05-03T08:53:18.999Z</time></trkpt><trkpt lat="53.77264647538911" lon="30.364070513092347"><ele>175.66666666666669</ele><time>2026-05-03T08:53:19.999Z</time></trkpt><trkpt lat="53.77244496902776" lon="30.36408385983432"><ele>176.33333333333334</ele><time>2026-05-03T08:53:20.999Z</time></trkpt><trkpt lat="53.77224377011399" lon="30.36409498987508"><ele>177.0</ele><time>2026-05-03T08:53:21.999Z</time></trkpt><trkpt lat="53.77204467414934" lon="30.36410558200115"><ele>176.33333333333334</ele><time>2026-05-03T08:53:22.999Z</time></trkpt><trkpt lat="53.77184345038299" lon="30.36411748235413"><ele>175.66666666666669</ele><time>2026-05-03T08:53:23.999Z</time></trkpt><trkpt lat="53.7716360446527" lon="30.36413043634525"><ele>175.0</ele><time>2026-05-03T08:53:24.999Z</time></trkpt><trkpt lat="53.771435435811696" lon="30.364144698674405"><ele>175.0</ele><time>2026-05-03T08:53:25.999Z</time></trkpt><trkpt lat="53.77126409299649" lon="30.364158079560205"><ele>175.0</ele><time>2026-05-03T08:53:26.999Z</time></trkpt><trkpt lat="53.77110887300156" lon="30.364164326063364"><ele>175.0</ele><time>2026-05-03T08:53:27.999Z</time></trkpt><trkpt lat="53.77095833413238" lon="30.36417077587381"><ele>175.33333333333334</ele><time>2026-05-03T08:53:28.999Z</time></trkpt><trkpt lat="53.770786032483166" lon="30.364189695822535"><ele>175.66666666666666</ele><time>2026-05-03T08:53:29.999Z</time></trkpt><trkpt lat="53.77058397551581" lon="30.364225640512636"><ele>176.0</ele><time>2026-05-03T08:53:30.999Z</time></trkpt><trkpt lat="53.7703757293497" lon="30.36424768803561"><ele>175.5</ele><time>2026-05-03T08:53:31.999Z</time></trkpt><trkpt lat="53.77015381601609" lon="30.364263673455724"><ele>175.0</ele><time>2026-05-03T08:53:32.999Z</time></trkpt><trkpt lat="53.769917189711734" lon="30.3642750237507"><ele>175.0</ele><time>2026-05-03T08:53:34Z</time></trkpt><trkpt lat="53.76967712864895" lon="30.364275115735463"><ele>175.0</ele><time>2026-05-03T08:53:35Z</time></trkpt><trkpt lat="53.76945643020094" lon="30.364274430371655"><ele>175.33333333333334</ele><time>2026-05-03T08:53:36Z</time></trkpt><trkpt lat="53.76925639468061" lon="30.364279357913567"><ele>175.66666666666666</ele><time>2026-05-03T08:53:37Z</time></trkpt><trkpt lat="53.76906319874098" lon="30.36428652251775"><ele>176.0</ele><time>2026-05-03T08:53:38Z</time></trkpt><trkpt lat="53.768887589098895" lon="30.36430107850297"><ele>176.0</ele><time>2026-05-03T08:53:39Z</time></trkpt><trkpt lat="53.76872516538401" lon="30.364307568176816"><ele>176.0</ele><time>2026-05-03T08:53:40Z</time></trkpt><trkpt lat="53.7685718602838" lon="30.364315324576562"><ele>176.0</ele><time>2026-05-03T08:53:41Z</time></trkpt><trkpt lat="53.76843763096567" lon="30.364317006531717"><ele>176.0</ele><time>2026-05-03T08:53:42Z</time></trkpt><trkpt lat="53.76833356090131" lon="30.36428199535099"><ele>176.0</ele><time>2026-05-03T08:53:43Z</time></trkpt><trkpt lat="53.768252064000954" lon="30.36419845386548"><ele>176.0</ele><time>2026-05-03T08:53:44Z</time></trkpt><trkpt lat="53.76818689023125" lon="30.364094381490116"><ele>176.0</ele><time>2026-05-03T08:53:45Z</time></trkpt><trkpt lat="53.768119135598525" lon="30.363970042746985"><ele>176.0</ele><time>2026-05-03T08:53:46Z</time></trkpt><trkpt lat="53.76805035161326" lon="30.363901364523475"><ele>176.0</ele><time>2026-05-03T08:53:47Z</time></trkpt><trkpt lat="53.76794832949039" lon="30.36386654694569"><ele>176.0</ele><time>2026-05-03T08:53:48Z</time></trkpt><trkpt lat="53.76785581560184" lon="30.363867192286826"><ele>176.0</ele><time>2026-05-03T08:53:49Z</time></trkpt><trkpt lat="53.76776928480431" lon="30.36391477878398"><ele>176.0</ele><time>2026-05-03T08:53:50Z</time></trkpt><trkpt lat="53.76768220689249" lon="30.36400029328758"><ele>176.0</ele><time>2026-05-03T08:53:51Z</time></trkpt><trkpt lat="53.767621758717254" lon="30.364106008731998"><ele>175.4</ele><time>2026-05-03T08:53:52Z</time></trkpt><trkpt lat="53.76756449956274" lon="30.364220817218342"><ele>174.8</ele><time>2026-05-03T08:53:53Z</time></trkpt><trkpt lat="53.767499851198544" lon="30.364300532267933"><ele>174.20000000000002</ele><time>2026-05-03T08:53:54Z</time></trkpt><trkpt lat="53.76742050648875" lon="30.36434714968775"><ele>173.60000000000002</ele><time>2026-05-03T08:53:55Z</time></trkpt><trkpt lat="53.76731954215264" lon="30.364371851059087"><ele>173.0</ele><time>2026-05-03T08:53:56Z</time></trkpt><trkpt lat="53.76720024121835" lon="30.36438454147184"><ele>173.0</ele><time>2026-05-03T08:53:57Z</time></trkpt><trkpt lat="53.76706243451645" lon="30.364395956770885"><ele>173.0</ele><time>2026-05-03T08:53:58Z</time></trkpt><trkpt lat="53.766913527856794" lon="30.364410468036994"><ele>173.0</ele><time>2026-05-03T08:53:59Z</time></trkpt><trkpt lat="53.766757493710976" lon="30.36442532673435"><ele>173.0</ele><time>2026-05-03T08:54:00Z</time></trkpt><trkpt lat="53.76659279583174" lon="30.364438769258633"><ele>174.0</ele><time>2026-05-03T08:54:01Z</time></trkpt><trkpt lat="53.7664292896478" lon="30.364451009262112"><ele>175.0</ele><time>2026-05-03T08:54:02Z</time></trkpt><trkpt lat="53.76627099326047" lon="30.364459740130684"><ele>176.0</ele><time>2026-05-03T08:54:03Z</time></trkpt><trkpt lat="53.76609926621212" lon="30.36446900639117"><ele>176.0</ele><time>2026-05-03T08:54:04Z</time></trkpt><trkpt lat="53.76591848350093" lon="30.364481514726457"><ele>176.0</ele><time>2026-05-03T08:54:05Z</time></trkpt><trkpt lat="53.76572333665439" lon="30.364493283807636"><ele>176.0</ele><time>2026-05-03T08:54:06Z</time></trkpt><trkpt lat="53.76552774544741" lon="30.364505886214758"><ele>176.0</ele><time>2026-05-03T08:54:07Z</time></trkpt><trkpt lat="53.7653293255965" lon="30.36452169794139"><ele>176.0</ele><time>2026-05-03T08:54:08Z</time></trkpt><trkpt lat="53.76512952231656" lon="30.364537434363545"><ele>176.0</ele><time>2026-05-03T08:54:09Z</time></trkpt><trkpt lat="53.76493075296949" lon="30.364547989491392"><ele>176.0</ele><time>2026-05-03T08:54:10Z</time></trkpt><trkpt lat="53.76473498142997" lon="30.364558700629942"><ele>176.0</ele><time>2026-05-03T08:54:11Z</time></trkpt><trkpt lat="53.76453744128375" lon="30.364572628517635"><ele>176.0</ele><time>2026-05-03T08:54:12Z</time></trkpt><trkpt lat="53.76433480918874" lon="30.3645835905094"><ele>175.33333333333331</ele><time>2026-05-03T08:54:13Z</time></trkpt><trkpt lat="53.7641281151644" lon="30.36458988347569"><ele>174.66666666666666</ele><time>2026-05-03T08:54:14Z</time></trkpt><trkpt lat="53.76392112044323" lon="30.36459373260242"><ele>174.0</ele><time>2026-05-03T08:54:15Z</time></trkpt><trkpt lat="53.76371026589754" lon="30.364607270140258"><ele>174.0</ele><time>2026-05-03T08:54:16Z</time></trkpt><trkpt lat="53.763518574872705" lon="30.364618392456634"><ele>174.0</ele><time>2026-05-03T08:54:17Z</time></trkpt><trkpt lat="53.76333809020305" lon="30.364626759573202"><ele>174.0</ele><time>2026-05-03T08:54:18Z</time></trkpt><trkpt lat="53.76317069356824" lon="30.36463700297986"><ele>174.0</ele><time>2026-05-03T08:54:19Z</time></trkpt><trkpt lat="53.762998949488924" lon="30.364650160692605"><ele>174.0</ele><time>2026-05-03T08:54:20Z</time></trkpt><trkpt lat="53.7628186557204" lon="30.3646620606678"><ele>174.0</ele><time>2026-05-03T08:54:21Z</time></trkpt><trkpt lat="53.76263363303389" lon="30.36467347636432"><ele>174.0</ele><time>2026-05-03T08:54:22Z</time></trkpt><trkpt lat="53.762438805807534" lon="30.36468649113854"><ele>174.0</ele><time>2026-05-03T08:54:23Z</time></trkpt><trkpt lat="53.76224229808454" lon="30.364699218216863"><ele>174.0</ele><time>2026-05-03T08:54:24Z</time></trkpt><trkpt lat="53.76203193047422" lon="30.364709651127722"><ele>173.66666666666666</ele><time>2026-05-03T08:54:25Z</time></trkpt><trkpt lat="53.7618205743461" lon="30.36472551460881"><ele>173.33333333333331</ele><time>2026-05-03T08:54:26Z</time></trkpt><trkpt lat="53.76161091314006" lon="30.364739613836257"><ele>173.0</ele><time>2026-05-03T08:54:27Z</time></trkpt><trkpt lat="53.76139761611632" lon="30.36475592569666"><ele>173.0</ele><time>2026-05-03T08:54:27.999Z</time></trkpt><trkpt lat="53.76117372892692" lon="30.364767082498474"><ele>173.0</ele><time>2026-05-03T08:54:28.999Z</time></trkpt><trkpt lat="53.76095669386975" lon="30.364782259190083"><ele>173.0</ele><time>2026-05-03T08:54:29.999Z</time></trkpt><trkpt lat="53.76073789883519" lon="30.364793528036923"><ele>172.0</ele><time>2026-05-03T08:54:30.999Z</time></trkpt><trkpt lat="53.760520926584775" lon="30.36480566141661"><ele>171.0</ele><time>2026-05-03T08:54:31.999Z</time></trkpt><trkpt lat="53.760308888734755" lon="30.364816902712583"><ele>170.0</ele><time>2026-05-03T08:54:32.999Z</time></trkpt><trkpt lat="53.76009211247105" lon="30.36482740194528"><ele>168.66666666666666</ele><time>2026-05-03T08:54:33.999Z</time></trkpt><trkpt lat="53.75987936839784" lon="30.36483822576648"><ele>167.33333333333334</ele><time>2026-05-03T08:54:34.999Z</time></trkpt><trkpt lat="53.75967343649562" lon="30.364850641522345"><ele>166.0</ele><time>2026-05-03T08:54:35.999Z</time></trkpt><trkpt lat="53.75948123901707" lon="30.364865071342553"><ele>163.66666666666669</ele><time>2026-05-03T08:54:36.999Z</time></trkpt><trkpt lat="53.759281714950575" lon="30.364877790239646"><ele>161.33333333333334</ele><time>2026-05-03T08:54:37.999Z</time></trkpt><trkpt lat="53.75909604926608" lon="30.36488875503696"><ele>159.0</ele><time>2026-05-03T08:54:38.999Z</time></trkpt><trkpt lat="53.758924624379986" lon="30.364902326762035"><ele>159.0</ele><time>2026-05-03T08:54:39.999Z</time></trkpt><trkpt lat="53.75876570514441" lon="30.36491306984779"><ele>159.0</ele><time>2026-05-03T08:54:40.999Z</time></trkpt><trkpt lat="53.758620017839135" lon="30.3649196261853"><ele>159.0</ele><time>2026-05-03T08:54:41.999Z</time></trkpt><trkpt lat="53.758471311701435" lon="30.364927467365174"><ele>158.25</ele><time>2026-05-03T08:54:42.999Z</time></trkpt><trkpt lat="53.758324613617134" lon="30.36493561754913"><ele>157.5</ele><time>2026-05-03T08:54:43.999Z</time></trkpt><trkpt lat="53.75817820973546" lon="30.364949096383384"><ele>156.75</ele><time>2026-05-03T08:54:44.999Z</time></trkpt><trkpt lat="53.75803050018903" lon="30.364958165123383"><ele>156.0</ele><time>2026-05-03T08:54:45.999Z</time></trkpt><trkpt lat="53.75789808012739" lon="30.36496601537249"><ele>156.0</ele><time>2026-05-03T08:54:46.999Z</time></trkpt><trkpt lat="53.75776191712905" lon="30.36497680086776"><ele>156.0</ele><time>2026-05-03T08:54:47.999Z</time></trkpt><trkpt lat="53.75761312273475" lon="30.364985739994356"><ele>156.0</ele><time>2026-05-03T08:54:48.999Z</time></trkpt><trkpt lat="53.75745651348156" lon="30.36499439163016"><ele>156.0</ele><time>2026-05-03T08:54:49.999Z</time></trkpt><trkpt lat="53.7573042369066" lon="30.365003335142713"><ele>157.0</ele><time>2026-05-03T08:54:50.999Z</time></trkpt><trkpt lat="53.757156430979606" lon="30.365007680585983"><ele>158.0</ele><time>2026-05-03T08:54:51.999Z</time></trkpt><trkpt lat="53.75701220672193" lon="30.365018374171168"><ele>159.0</ele><time>2026-05-03T08:54:52.999Z</time></trkpt><trkpt lat="53.75686497794336" lon="30.365030595118412"><ele>160.0</ele><time>2026-05-03T08:54:53.999Z</time></trkpt><trkpt lat="53.75671324117662" lon="30.365042254383187"><ele>160.5</ele><time>2026-05-03T08:54:54.999Z</time></trkpt><trkpt lat="53.75656211648424" lon="30.36505631230033"><ele>161.0</ele><time>2026-05-03T08:54:55.999Z</time></trkpt><trkpt lat="53.75641650215493" lon="30.365066412656798"><ele>161.5</ele><time>2026-05-03T08:54:56.999Z</time></trkpt><trkpt lat="53.756285087945386" lon="30.365071196728127"><ele>162.0</ele><time>2026-05-03T08:54:57.999Z</time></trkpt><trkpt lat="53.75615725899913" lon="30.3650742606622"><ele>162.25</ele><time>2026-05-03T08:54:58.999Z</time></trkpt><trkpt lat="53.75602372682694" lon="30.36508252009808"><ele>162.5</ele><time>2026-05-03T08:54:59.999Z</time></trkpt><trkpt lat="53.75588259972424" lon="30.365093491303874"><ele>162.75</ele><time>2026-05-03T08:55:00.999Z</time></trkpt><trkpt lat="53.75573533468006" lon="30.36510138101997"><ele>163.0</ele><time>2026-05-03T08:55:01.999Z</time></trkpt><trkpt lat="53.75558454337125" lon="30.36510938193977"><ele>163.0</ele><time>2026-05-03T08:55:02.999Z</time></trkpt><trkpt lat="53.755422111506185" lon="30.365119352387897"><ele>163.0</ele><time>2026-05-03T08:55:03.999Z</time></trkpt><trkpt lat="53.75526623215208" lon="30.36512857800538"><ele>163.0</ele><time>2026-05-03T08:55:04.999Z</time></trkpt><trkpt lat="53.755105011226526" lon="30.365141443820455"><ele>164.0</ele><time>2026-05-03T08:55:05.999Z</time></trkpt><trkpt lat="53.75494659292935" lon="30.365150896414843"><ele>165.0</ele><time>2026-05-03T08:55:06.999Z</time></trkpt><trkpt lat="53.75478723984644" lon="30.365159711395783"><ele>166.0</ele><time>2026-05-03T08:55:07.999Z</time></trkpt><trkpt lat="53.75462648507506" lon="30.36517362324813"><ele>166.0</ele><time>2026-05-03T08:55:08.999Z</time></trkpt><trkpt lat="53.75445902723164" lon="30.36518355115829"><ele>166.0</ele><time>2026-05-03T08:55:09.999Z</time></trkpt><trkpt lat="53.754292633354936" lon="30.365194811792467"><ele>166.0</ele><time>2026-05-03T08:55:10.999Z</time></trkpt><trkpt lat="53.7541198685088" lon="30.365206172172734"><ele>166.66666666666669</ele><time>2026-05-03T08:55:11.999Z</time></trkpt><trkpt lat="53.753965604925696" lon="30.36521735086354"><ele>167.33333333333334</ele><time>2026-05-03T08:55:12.999Z</time></trkpt><trkpt lat="53.753813680351854" lon="30.36522041695886"><ele>168.0</ele><time>2026-05-03T08:55:13.999Z</time></trkpt><trkpt lat="53.75365307552807" lon="30.365232341077387"><ele>168.66666666666666</ele><time>2026-05-03T08:55:14.999Z</time></trkpt><trkpt lat="53.7534916051814" lon="30.36524779826156"><ele>169.33333333333331</ele><time>2026-05-03T08:55:15.999Z</time></trkpt><trkpt lat="53.753317942925776" lon="30.365261088026408"><ele>170.0</ele><time>2026-05-03T08:55:16.999Z</time></trkpt><trkpt lat="53.75315046901826" lon="30.365271190834722"><ele>170.0</ele><time>2026-05-03T08:55:17.999Z</time></trkpt><trkpt lat="53.75296707460013" lon="30.3652909699572"><ele>170.0</ele><time>2026-05-03T08:55:18.999Z</time></trkpt><trkpt lat="53.75278539892223" lon="30.36530423354562"><ele>170.0</ele><time>2026-05-03T08:55:19.999Z</time></trkpt><trkpt lat="53.752606121415276" lon="30.365315118933236"><ele>169.33333333333331</ele><time>2026-05-03T08:55:20.999Z</time></trkpt><trkpt lat="53.75242277906298" lon="30.365330774763954"><ele>168.66666666666666</ele><time>2026-05-03T08:55:21.999Z</time></trkpt><trkpt lat="53.75224075404592" lon="30.365334841100704"><ele>168.0</ele><time>2026-05-03T08:55:22.999Z</time></trkpt><trkpt lat="53.752048398346936" lon="30.365341242369748"><ele>168.66666666666666</ele><time>2026-05-03T08:55:23.999Z</time></trkpt><trkpt lat="53.751850339818155" lon="30.365351186981517"><ele>169.33333333333331</ele><time>2026-05-03T08:55:24.999Z</time></trkpt><trkpt lat="53.75164658977887" lon="30.36536512586962"><ele>170.0</ele><time>2026-05-03T08:55:25.999Z</time></trkpt><trkpt lat="53.75143251977289" lon="30.36537793955347"><ele>170.0</ele><time>2026-05-03T08:55:26.999Z</time></trkpt><trkpt lat="53.75121701614611" lon="30.365391500977445"><ele>170.0</ele><time>2026-05-03T08:55:27.999Z</time></trkpt><trkpt lat="53.75099233226166" lon="30.365414362599335"><ele>170.0</ele><time>2026-05-03T08:55:28.999Z</time></trkpt><trkpt lat="53.75076432897947" lon="30.365436803369793"><ele>170.0</ele><time>2026-05-03T08:55:29.999Z</time></trkpt><trkpt lat="53.75054164186089" lon="30.365448972560795"><ele>170.0</ele><time>2026-05-03T08:55:30.999Z</time></trkpt><trkpt lat="53.75031528472272" lon="30.36546207213494"><ele>170.0</ele><time>2026-05-03T08:55:31.999Z</time></trkpt><trkpt lat="53.75008650302878" lon="30.36547474889179"><ele>171.0</ele><time>2026-05-03T08:55:32.999Z</time></trkpt><trkpt lat="53.74985912568183" lon="30.36548512331208"><ele>172.0</ele><time>2026-05-03T08:55:33.999Z</time></trkpt><trkpt lat="53.749632048344004" lon="30.365495002025376"><ele>172.0</ele><time>2026-05-03T08:55:34.999Z</time></trkpt><trkpt lat="53.74940515528375" lon="30.365501595365227"><ele>172.0</ele><time>2026-05-03T08:55:35.999Z</time></trkpt><trkpt lat="53.749177345232404" lon="30.36551937748177"><ele>172.5</ele><time>2026-05-03T08:55:36.999Z</time></trkpt><trkpt lat="53.74894538015825" lon="30.36554605085384"><ele>173.0</ele><time>2026-05-03T08:55:37.999Z</time></trkpt><trkpt lat="53.748714030809694" lon="30.365561311390138"><ele>172.0</ele><time>2026-05-03T08:55:38.999Z</time></trkpt><trkpt lat="53.74847941752436" lon="30.365578728028574"><ele>171.0</ele><time>2026-05-03T08:55:40Z</time></trkpt><trkpt lat="53.74824396971195" lon="30.36558249697088"><ele>171.0</ele><time>2026-05-03T08:55:41Z</time></trkpt><trkpt lat="53.748007272805225" lon="30.365594412285336"><ele>171.0</ele><time>2026-05-03T08:55:42Z</time></trkpt><trkpt lat="53.747769169470324" lon="30.365607557184312"><ele>171.5</ele><time>2026-05-03T08:55:43Z</time></trkpt><trkpt lat="53.7475309576296" lon="30.365624545258804"><ele>172.0</ele><time>2026-05-03T08:55:44Z</time></trkpt><trkpt lat="53.74729301301387" lon="30.365640445507825"><ele>172.0</ele><time>2026-05-03T08:55:45Z</time></trkpt><trkpt lat="53.74705380630424" lon="30.365649151646693"><ele>172.0</ele><time>2026-05-03T08:55:46Z</time></trkpt><trkpt lat="53.746813559789466" lon="30.36567166733088"><ele>172.0</ele><time>2026-05-03T08:55:47Z</time></trkpt><trkpt lat="53.746570617325204" lon="30.365686531295047"><ele>172.0</ele><time>2026-05-03T08:55:48Z</time></trkpt><trkpt lat="53.74632511545162" lon="30.365703540279984"><ele>172.0</ele><time>2026-05-03T08:55:49Z</time></trkpt><trkpt lat="53.746076494550984" lon="30.36571489443147"><ele>172.0</ele><time>2026-05-03T08:55:50Z</time></trkpt><trkpt lat="53.7458225577758" lon="30.365725092541336"><ele>172.0</ele><time>2026-05-03T08:55:51Z</time></trkpt><trkpt lat="53.74557070381249" lon="30.365742099598823"><ele>172.0</ele><time>2026-05-03T08:55:52Z</time></trkpt><trkpt lat="53.74531401596837" lon="30.365759690995905"><ele>171.0</ele><time>2026-05-03T08:55:53Z</time></trkpt><trkpt lat="53.745061639429174" lon="30.365778786647777"><ele>170.0</ele><time>2026-05-03T08:55:54Z</time></trkpt><trkpt lat="53.744797040860746" lon="30.365795210468278"><ele>170.0</ele><time>2026-05-03T08:55:55Z</time></trkpt><trkpt lat="53.74454065421804" lon="30.365808573031405"><ele>170.0</ele><time>2026-05-03T08:55:56Z</time></trkpt><trkpt lat="53.74428535038215" lon="30.365822385077255"><ele>170.5</ele><time>2026-05-03T08:55:57Z</time></trkpt><trkpt lat="53.74403145472318" lon="30.365845079398046"><ele>171.0</ele><time>2026-05-03T08:55:58Z</time></trkpt><trkpt lat="53.74377526669526" lon="30.365859998962016"><ele>171.0</ele><time>2026-05-03T08:55:59Z</time></trkpt><trkpt lat="53.74351972203991" lon="30.365880356758755"><ele>171.0</ele><time>2026-05-03T08:56:00Z</time></trkpt><trkpt lat="53.7432675227832" lon="30.36590229548255"><ele>171.0</ele><time>2026-05-03T08:56:01Z</time></trkpt><trkpt lat="53.74301766482342" lon="30.36591198143106"><ele>171.0</ele><time>2026-05-03T08:56:02Z</time></trkpt><trkpt lat="53.74276623268191" lon="30.365924313914725"><ele>171.0</ele><time>2026-05-03T08:56:03Z</time></trkpt><trkpt lat="53.74251227726676" lon="30.36593319902842"><ele>171.0</ele><time>2026-05-03T08:56:04Z</time></trkpt><trkpt lat="53.74226028736991" lon="30.365952112789827"><ele>171.0</ele><time>2026-05-03T08:56:05Z</time></trkpt><trkpt lat="53.742018298117316" lon="30.365961579753044"><ele>171.0</ele><time>2026-05-03T08:56:06Z</time></trkpt><trkpt lat="53.74178659773658" lon="30.365973747720066"><ele>171.0</ele><time>2026-05-03T08:56:07Z</time></trkpt><trkpt lat="53.74156022241282" lon="30.365987343390472"><ele>171.0</ele><time>2026-05-03T08:56:08Z</time></trkpt><trkpt lat="53.74134360384107" lon="30.366006364333852"><ele>171.0</ele><time>2026-05-03T08:56:09Z</time></trkpt><trkpt lat="53.74113365867368" lon="30.366016917034685"><ele>170.33333333333334</ele><time>2026-05-03T08:56:10Z</time></trkpt><trkpt lat="53.74093115723776" lon="30.366038127894107"><ele>169.66666666666669</ele><time>2026-05-03T08:56:11Z</time></trkpt><trkpt lat="53.740734417552005" lon="30.366052485166048"><ele>169.0</ele><time>2026-05-03T08:56:12Z</time></trkpt><trkpt lat="53.740542120438604" lon="30.366060124375743"><ele>169.0</ele><time>2026-05-03T08:56:13Z</time></trkpt><trkpt lat="53.74035792350084" lon="30.366068562235803"><ele>169.0</ele><time>2026-05-03T08:56:14Z</time></trkpt><trkpt lat="53.740178279793604" lon="30.36607369957708"><ele>169.0</ele><time>2026-05-03T08:56:15Z</time></trkpt><trkpt lat="53.74000621189268" lon="30.366093175459696"><ele>168.0</ele><time>2026-05-03T08:56:16Z</time></trkpt><trkpt lat="53.73983867197494" lon="30.366103288564172"><ele>167.0</ele><time>2026-05-03T08:56:17Z</time></trkpt><trkpt lat="53.739675517457634" lon="30.36611253092343"><ele>166.0</ele><time>2026-05-03T08:56:18Z</time></trkpt><trkpt lat="53.739517808132625" lon="30.36611987381985"><ele>166.33333333333334</ele><time>2026-05-03T08:56:19Z</time></trkpt><trkpt lat="53.739362693743786" lon="30.3661296433522"><ele>166.66666666666666</ele><time>2026-05-03T08:56:20Z</time></trkpt><trkpt lat="53.73920990879675" lon="30.366131489549176"><ele>167.0</ele><time>2026-05-03T08:56:21Z</time></trkpt><trkpt lat="53.73906544167579" lon="30.366134482681563"><ele>167.0</ele><time>2026-05-03T08:56:22Z</time></trkpt><trkpt lat="53.73893939966635" lon="30.366141849646052"><ele>167.0</ele><time>2026-05-03T08:56:23Z</time></trkpt><trkpt lat="53.73882778919863" lon="30.366148654675655"><ele>167.0</ele><time>2026-05-03T08:56:24Z</time></trkpt><trkpt lat="53.7387194688376" lon="30.36615271215896"><ele>167.0</ele><time>2026-05-03T08:56:25Z</time></trkpt><trkpt lat="53.73860485085578" lon="30.366165359547153"><ele>166.66666666666666</ele><time>2026-05-03T08:56:26Z</time></trkpt><trkpt lat="53.73846150765383" lon="30.366183300925506"><ele>166.33333333333334</ele><time>2026-05-03T08:56:27Z</time></trkpt><trkpt lat="53.73830198193552" lon="30.366200126649954"><ele>166.0</ele><time>2026-05-03T08:56:28Z</time></trkpt><trkpt lat="53.73814160942503" lon="30.3662102170714"><ele>166.0</ele><time>2026-05-03T08:56:29Z</time></trkpt><trkpt lat="53.73796820660272" lon="30.366219070198785"><ele>166.0</ele><time>2026-05-03T08:56:30Z</time></trkpt><trkpt lat="53.737780279680905" lon="30.36623353605723"><ele>166.0</ele><time>2026-05-03T08:56:31Z</time></trkpt><trkpt lat="53.737580347978046" lon="30.36625093692381"><ele>164.66666666666669</ele><time>2026-05-03T08:56:32Z</time></trkpt><trkpt lat="53.73737033673078" lon="30.366264374652395"><ele>163.33333333333334</ele><time>2026-05-03T08:56:33Z</time></trkpt><trkpt lat="53.73715957292643" lon="30.36627283903813"><ele>162.0</ele><time>2026-05-03T08:56:34Z</time></trkpt><trkpt lat="53.73693909551078" lon="30.366286347793352"><ele>162.66666666666666</ele><time>2026-05-03T08:56:35Z</time></trkpt><trkpt lat="53.736719430845866" lon="30.366299220386612"><ele>163.33333333333331</ele><time>2026-05-03T08:56:36Z</time></trkpt><trkpt lat="53.736504258323905" lon="30.366307505683515"><ele>164.0</ele><time>2026-05-03T08:56:37Z</time></trkpt><trkpt lat="53.736271375973146" lon="30.366328375505155"><ele>164.0</ele><time>2026-05-03T08:56:38Z</time></trkpt><trkpt lat="53.73604088522862" lon="30.366337625901505"><ele>164.0</ele><time>2026-05-03T08:56:39Z</time></trkpt><trkpt lat="53.73581776122429" lon="30.366364508081137"><ele>164.0</ele><time>2026-05-03T08:56:40Z</time></trkpt><trkpt lat="53.735593659848604" lon="30.366377257442608"><ele>164.0</ele><time>2026-05-03T08:56:41Z</time></trkpt><trkpt lat="53.73536239271249" lon="30.366392766868394"><ele>164.5</ele><time>2026-05-03T08:56:42Z</time></trkpt><trkpt lat="53.73512907494617" lon="30.36640650538014"><ele>165.0</ele><time>2026-05-03T08:56:43Z</time></trkpt><trkpt lat="53.73488896885777" lon="30.366420089130056"><ele>165.0</ele><time>2026-05-03T08:56:43.999Z</time></trkpt><trkpt lat="53.73464660729769" lon="30.366430778129292"><ele>165.0</ele><time>2026-05-03T08:56:44.999Z</time></trkpt><trkpt lat="53.734400740387926" lon="30.366445744850694"><ele>165.0</ele><time>2026-05-03T08:56:45.999Z</time></trkpt><trkpt lat="53.73415301081279" lon="30.36646543224353"><ele>165.0</ele><time>2026-05-03T08:56:46.999Z</time></trkpt><trkpt lat="53.73390522942829" lon="30.366482079106994"><ele>165.0</ele><time>2026-05-03T08:56:47.999Z</time></trkpt><trkpt lat="53.73365776562072" lon="30.366493037054227"><ele>165.0</ele><time>2026-05-03T08:56:48.999Z</time></trkpt><trkpt lat="53.73342307100403" lon="30.36651145076015"><ele>165.0</ele><time>2026-05-03T08:56:49.999Z</time></trkpt><trkpt lat="53.73322437617807" lon="30.366518734222833"><ele>165.0</ele><time>2026-05-03T08:56:50.999Z</time></trkpt><trkpt lat="53.733069088099434" lon="30.36653125353684"><ele>165.0</ele><time>2026-05-03T08:56:51.999Z</time></trkpt><trkpt lat="53.73294696209939" lon="30.366542286521174"><ele>165.0</ele><time>2026-05-03T08:56:52.999Z</time></trkpt><trkpt lat="53.73283543918331" lon="30.366539220929017"><ele>165.0</ele><time>2026-05-03T08:56:53.999Z</time></trkpt><trkpt lat="53.732774335366884" lon="30.366501652784688"><ele>165.0</ele><time>2026-05-03T08:56:54.999Z</time></trkpt><trkpt lat="53.732722500528965" lon="30.366425759521494"><ele>165.0</ele><time>2026-05-03T08:56:55.999Z</time></trkpt><trkpt lat="53.73268385788583" lon="30.366326560845053"><ele>165.0</ele><time>2026-05-03T08:56:56.999Z</time></trkpt><trkpt lat="53.73265637890915" lon="30.36619668603142"><ele>165.0</ele><time>2026-05-03T08:56:57.999Z</time></trkpt><trkpt lat="53.73263992082411" lon="30.366048099744393"><ele>164.75</ele><time>2026-05-03T08:56:58.999Z</time></trkpt><trkpt lat="53.732635008776434" lon="30.365869619887373"><ele>164.5</ele><time>2026-05-03T08:56:59.999Z</time></trkpt><trkpt lat="53.73263051043354" lon="30.365638823610897"><ele>164.25</ele><time>2026-05-03T08:57:00.999Z</time></trkpt><trkpt lat="53.73261178580358" lon="30.36541382923835"><ele>164.0</ele><time>2026-05-03T08:57:01.999Z</time></trkpt><trkpt lat="53.732596744769616" lon="30.365160924576422"><ele>164.0</ele><time>2026-05-03T08:57:02.999Z</time></trkpt><trkpt lat="53.73258131082691" lon="30.36488976464528"><ele>164.0</ele><time>2026-05-03T08:57:03.999Z</time></trkpt><trkpt lat="53.73255982339297" lon="30.364599705130335"><ele>164.0</ele><time>2026-05-03T08:57:04.999Z</time></trkpt><trkpt lat="53.73253581534168" lon="30.36431199302224"><ele>164.0</ele><time>2026-05-03T08:57:05.999Z</time></trkpt><trkpt lat="53.73251103236811" lon="30.3640017233631"><ele>164.0</ele><time>2026-05-03T08:57:06.999Z</time></trkpt><trkpt lat="53.73248836060129" lon="30.363689236755786"><ele>164.0</ele><time>2026-05-03T08:57:07.999Z</time></trkpt><trkpt lat="53.73246256088097" lon="30.36337218617296"><ele>164.0</ele><time>2026-05-03T08:57:08.999Z</time></trkpt><trkpt lat="53.73243891742316" lon="30.363068526532732"><ele>164.0</ele><time>2026-05-03T08:57:09.999Z</time></trkpt><trkpt lat="53.73241847576684" lon="30.362754353604316"><ele>164.0</ele><time>2026-05-03T08:57:10.999Z</time></trkpt><trkpt lat="53.7323970875379" lon="30.362436452348643"><ele>164.33333333333331</ele><time>2026-05-03T08:57:11.999Z</time></trkpt><trkpt lat="53.732374078956354" lon="30.362110369128928"><ele>164.66666666666666</ele><time>2026-05-03T08:57:12.999Z</time></trkpt><trkpt lat="53.73239856853252" lon="30.361772405015476"><ele>165.0</ele><time>2026-05-03T08:57:13.999Z</time></trkpt><trkpt lat="53.73237556629773" lon="30.361449391485912"><ele>164.66666666666666</ele><time>2026-05-03T08:57:14.999Z</time></trkpt><trkpt lat="53.7323523410994" lon="30.3611261398707"><ele>164.33333333333331</ele><time>2026-05-03T08:57:15.999Z</time></trkpt><trkpt lat="53.73232951601792" lon="30.360808541260752"><ele>164.0</ele><time>2026-05-03T08:57:16.999Z</time></trkpt><trkpt lat="53.7323053779584" lon="30.360474051046392"><ele>164.0</ele><time>2026-05-03T08:57:17.999Z</time></trkpt><trkpt lat="53.732283527956916" lon="30.360171267201626"><ele>164.0</ele><time>2026-05-03T08:57:18.999Z</time></trkpt><trkpt lat="53.73225891347876" lon="30.35982218867394"><ele>164.0</ele><time>2026-05-03T08:57:19.999Z</time></trkpt><trkpt lat="53.732235956905704" lon="30.35948919589848"><ele>164.0</ele><time>2026-05-03T08:57:20.999Z</time></trkpt><trkpt lat="53.732213095033366" lon="30.359161687796405"><ele>164.0</ele><time>2026-05-03T08:57:21.999Z</time></trkpt><trkpt lat="53.73219070024789" lon="30.358840870579815"><ele>164.0</ele><time>2026-05-03T08:57:22.999Z</time></trkpt><trkpt lat="53.732166785238476" lon="30.35849827540767"><ele>163.66666666666666</ele><time>2026-05-03T08:57:23.999Z</time></trkpt><trkpt lat="53.732142548080425" lon="30.358148877737484"><ele>163.33333333333334</ele><time>2026-05-03T08:57:24.999Z</time></trkpt><trkpt lat="53.732120472974195" lon="30.357826674030562"><ele>163.0</ele><time>2026-05-03T08:57:25.999Z</time></trkpt><trkpt lat="53.73209901561358" lon="30.357519243787465"><ele>163.0</ele><time>2026-05-03T08:57:26.999Z</time></trkpt><trkpt lat="53.73207609645758" lon="30.357190869663373"><ele>163.0</ele><time>2026-05-03T08:57:27.999Z</time></trkpt><trkpt lat="53.73205337756191" lon="30.35685996740071"><ele>163.0</ele><time>2026-05-03T08:57:28.999Z</time></trkpt><trkpt lat="53.732030865705006" lon="30.356536318212633"><ele>163.33333333333334</ele><time>2026-05-03T08:57:29.999Z</time></trkpt><trkpt lat="53.73201058559921" lon="30.356244754591856"><ele>163.66666666666666</ele><time>2026-05-03T08:57:30.999Z</time></trkpt><trkpt lat="53.73199194115847" lon="30.355976706528416"><ele>164.0</ele><time>2026-05-03T08:57:31.999Z</time></trkpt><trkpt lat="53.73197358496824" lon="30.35571143821268"><ele>163.66666666666666</ele><time>2026-05-03T08:57:32.999Z</time></trkpt><trkpt lat="53.73195475638302" lon="30.355438770192627"><ele>163.33333333333334</ele><time>2026-05-03T08:57:33.999Z</time></trkpt><trkpt lat="53.731936186335524" lon="30.355171159009657"><ele>163.0</ele><time>2026-05-03T08:57:34.999Z</time></trkpt><trkpt lat="53.73191333975452" lon="30.354845662450483"><ele>163.0</ele><time>2026-05-03T08:57:35.999Z</time></trkpt><trkpt lat="53.73189236075917" lon="30.354546773470222"><ele>163.0</ele><time>2026-05-03T08:57:36.999Z</time></trkpt><trkpt lat="53.73186993440946" lon="30.354221199430036"><ele>163.0</ele><time>2026-05-03T08:57:37.999Z</time></trkpt><trkpt lat="53.73184769536246" lon="30.35389255230317"><ele>162.66666666666669</ele><time>2026-05-03T08:57:38.999Z</time></trkpt><trkpt lat="53.73182632854238" lon="30.3535873813779"><ele>162.33333333333334</ele><time>2026-05-03T08:57:39.999Z</time></trkpt><trkpt lat="53.731804457751885" lon="30.35327589894562"><ele>162.0</ele><time>2026-05-03T08:57:40.999Z</time></trkpt><trkpt lat="53.73178205401883" lon="30.352953585293896"><ele>161.33333333333334</ele><time>2026-05-03T08:57:41.999Z</time></trkpt><trkpt lat="53.73176316048644" lon="30.352675650532515"><ele>160.66666666666669</ele><time>2026-05-03T08:57:42.999Z</time></trkpt><trkpt lat="53.731741335087236" lon="30.35236933624087"><ele>160.0</ele><time>2026-05-03T08:57:43.999Z</time></trkpt><trkpt lat="53.73172093487692" lon="30.352066625918987"><ele>160.0</ele><time>2026-05-03T08:57:44.999Z</time></trkpt><trkpt lat="53.73169937020864" lon="30.351764653132562"><ele>160.0</ele><time>2026-05-03T08:57:46Z</time></trkpt><trkpt lat="53.73168257956165" lon="30.351472336546355"><ele>160.0</ele><time>2026-05-03T08:57:47Z</time></trkpt><trkpt lat="53.7316660542043" lon="30.35120954441615"><ele>160.33333333333334</ele><time>2026-05-03T08:57:48Z</time></trkpt><trkpt lat="53.731649156717474" lon="30.350940849929785"><ele>160.66666666666666</ele><time>2026-05-03T08:57:49Z</time></trkpt><trkpt lat="53.731630429877484" lon="30.35064306601779"><ele>161.0</ele><time>2026-05-03T08:57:50Z</time></trkpt><trkpt lat="53.731611939171216" lon="30.350349036989787"><ele>161.0</ele><time>2026-05-03T08:57:51Z</time></trkpt><trkpt lat="53.7315927296201" lon="30.350047796150577"><ele>161.0</ele><time>2026-05-03T08:57:52Z</time></trkpt><trkpt lat="53.7315741590954" lon="30.349757586170103"><ele>161.0</ele><time>2026-05-03T08:57:53Z</time></trkpt><trkpt lat="53.73155477242619" lon="30.349450533760823"><ele>161.0</ele><time>2026-05-03T08:57:54Z</time></trkpt><trkpt lat="53.7315359309308" lon="30.34915172609651"><ele>161.0</ele><time>2026-05-03T08:57:55Z</time></trkpt><trkpt lat="53.73151702984052" lon="30.348851912368428"><ele>161.0</ele><time>2026-05-03T08:57:56Z</time></trkpt><trkpt lat="53.73149837074486" lon="30.348555480336262"><ele>161.0</ele><time>2026-05-03T08:57:57Z</time></trkpt><trkpt lat="53.731478446940756" lon="30.348239528336197"><ele>161.0</ele><time>2026-05-03T08:57:58Z</time></trkpt><trkpt lat="53.73145971961362" lon="30.347943885899458"><ele>161.0</ele><time>2026-05-03T08:57:59Z</time></trkpt><trkpt lat="53.73144408585493" lon="30.347698347510082"><ele>161.0</ele><time>2026-05-03T08:58:00Z</time></trkpt><trkpt lat="53.73143129607459" lon="30.347497475641863"><ele>161.0</ele><time>2026-05-03T08:58:01Z</time></trkpt><trkpt lat="53.73142074018927" lon="30.347331688518985"><ele>161.0</ele><time>2026-05-03T08:58:02Z</time></trkpt><trkpt lat="53.7314082791004" lon="30.34713597896325"><ele>161.0</ele><time>2026-05-03T08:58:03Z</time></trkpt><trkpt lat="53.73139359321856" lon="30.346905327551212"><ele>160.66666666666666</ele><time>2026-05-03T08:58:04Z</time></trkpt><trkpt lat="53.73137764522778" lon="30.34665222817717"><ele>160.33333333333334</ele><time>2026-05-03T08:58:05Z</time></trkpt><trkpt lat="53.73135930642376" lon="30.34638402607688"><ele>160.0</ele><time>2026-05-03T08:58:06Z</time></trkpt><trkpt lat="53.731337386337636" lon="30.346097835983443"><ele>160.0</ele><time>2026-05-03T08:58:07Z</time></trkpt><trkpt lat="53.731314226376824" lon="30.34579545791888"><ele>160.0</ele><time>2026-05-03T08:58:08Z</time></trkpt><trkpt lat="53.73129111950635" lon="30.34549377296393"><ele>160.0</ele><time>2026-05-03T08:58:09Z</time></trkpt><trkpt lat="53.73126797349211" lon="30.345191576985485"><ele>159.66666666666669</ele><time>2026-05-03T08:58:10Z</time></trkpt><trkpt lat="53.731242757386035" lon="30.34486235377621"><ele>159.33333333333334</ele><time>2026-05-03T08:58:11Z</time></trkpt><trkpt lat="53.73121810313545" lon="30.34454046613138"><ele>159.0</ele><time>2026-05-03T08:58:12Z</time></trkpt><trkpt lat="53.731193484970376" lon="30.34421883505312"><ele>158.33333333333334</ele><time>2026-05-03T08:58:13Z</time></trkpt><trkpt lat="53.73117006132399" lon="30.343908829324793"><ele>157.66666666666669</ele><time>2026-05-03T08:58:14Z</time></trkpt><trkpt lat="53.731149594608205" lon="30.34363795781943"><ele>157.0</ele><time>2026-05-03T08:58:15Z</time></trkpt><trkpt lat="53.731129161507425" lon="30.343370797341752"><ele>156.75</ele><time>2026-05-03T08:58:16Z</time></trkpt><trkpt lat="53.731110515875564" lon="30.343128667631703"><ele>156.5</ele><time>2026-05-03T08:58:17Z</time></trkpt><trkpt lat="53.73109235012311" lon="30.342892769625873"><ele>156.25</ele><time>2026-05-03T08:58:18Z</time></trkpt><trkpt lat="53.73107335514482" lon="30.34264610339424"><ele>156.0</ele><time>2026-05-03T08:58:19Z</time></trkpt><trkpt lat="53.73105306012428" lon="30.342382554729966"><ele>157.25</ele><time>2026-05-03T08:58:20Z</time></trkpt><trkpt lat="53.73103309495035" lon="30.342118569383082"><ele>158.5</ele><time>2026-05-03T08:58:21Z</time></trkpt><trkpt lat="53.731014173394115" lon="30.341868524557007"><ele>159.75</ele><time>2026-05-03T08:58:22Z</time></trkpt><trkpt lat="53.73099645816972" lon="30.341633636457516"><ele>161.0</ele><time>2026-05-03T08:58:23Z</time></trkpt><trkpt lat="53.730980296301816" lon="30.341418900124253"><ele>160.5</ele><time>2026-05-03T08:58:24Z</time></trkpt><trkpt lat="53.73096224998586" lon="30.341179125823796"><ele>160.0</ele><time>2026-05-03T08:58:25Z</time></trkpt><trkpt lat="53.73094474039924" lon="30.34094648287718"><ele>159.5</ele><time>2026-05-03T08:58:26Z</time></trkpt><trkpt lat="53.73092749245185" lon="30.340717029342844"><ele>159.0</ele><time>2026-05-03T08:58:27Z</time></trkpt><trkpt lat="53.73091108872028" lon="30.34049967966716"><ele>157.8</ele><time>2026-05-03T08:58:28Z</time></trkpt><trkpt lat="53.73089592543275" lon="30.340299498365564"><ele>156.60000000000002</ele><time>2026-05-03T08:58:29Z</time></trkpt><trkpt lat="53.73088261216095" lon="30.34012364880299"><ele>155.4</ele><time>2026-05-03T08:58:30Z</time></trkpt><trkpt lat="53.73087024714928" lon="30.339964308592215"><ele>154.20000000000002</ele><time>2026-05-03T08:58:31Z</time></trkpt><trkpt lat="53.730853575680854" lon="30.339753156461672"><ele>153.0</ele><time>2026-05-03T08:58:32Z</time></trkpt><trkpt lat="53.730839049461906" lon="30.339562393000882"><ele>152.0</ele><time>2026-05-03T08:58:33Z</time></trkpt><trkpt lat="53.73082324482175" lon="30.339354840810472"><ele>151.0</ele><time>2026-05-03T08:58:34Z</time></trkpt><trkpt lat="53.73080695985165" lon="30.339141201272287"><ele>150.0</ele><time>2026-05-03T08:58:35Z</time></trkpt><trkpt lat="53.73079164046254" lon="30.33894169855109"><ele>149.0</ele><time>2026-05-03T08:58:36Z</time></trkpt><trkpt lat="53.73077527760542" lon="30.338728706402097"><ele>148.0</ele><time>2026-05-03T08:58:37Z</time></trkpt><trkpt lat="53.73075834462209" lon="30.33850829297411"><ele>147.0</ele><time>2026-05-03T08:58:38Z</time></trkpt><trkpt lat="53.73074323313722" lon="30.338313694845205"><ele>146.0</ele><time>2026-05-03T08:58:39Z</time></trkpt><trkpt lat="53.730727259993195" lon="30.33810800983817"><ele>145.0</ele><time>2026-05-03T08:58:40Z</time></trkpt><trkpt lat="53.73071233136394" lon="30.337914624602075"><ele>145.0</ele><time>2026-05-03T08:58:41Z</time></trkpt><trkpt lat="53.73069749083951" lon="30.337720194856303"><ele>145.0</ele><time>2026-05-03T08:58:42Z</time></trkpt><trkpt lat="53.730680305495504" lon="30.337497671950512"><ele>145.0</ele><time>2026-05-03T08:58:43Z</time></trkpt><trkpt lat="53.730663213942876" lon="30.337273701555198"><ele>145.0</ele><time>2026-05-03T08:58:44Z</time></trkpt><trkpt lat="53.730645261932715" lon="30.33704046540041"><ele>145.0</ele><time>2026-05-03T08:58:45Z</time></trkpt><trkpt lat="53.730627590321426" lon="30.33680875896326"><ele>145.0</ele><time>2026-05-03T08:58:46Z</time></trkpt><trkpt lat="53.73061110679674" lon="30.336592630452966"><ele>145.0</ele><time>2026-05-03T08:58:47Z</time></trkpt><trkpt lat="53.73059523788342" lon="30.33638811694854"><ele>145.0</ele><time>2026-05-03T08:58:48Z</time></trkpt><trkpt lat="53.730577650811824" lon="30.336165811303882"><ele>145.0</ele><time>2026-05-03T08:58:49Z</time></trkpt><trkpt lat="53.73056171207506" lon="30.335946481963315"><ele>145.0</ele><time>2026-05-03T08:58:50Z</time></trkpt><trkpt lat="53.730541707587726" lon="30.335708333522515"><ele>145.0</ele><time>2026-05-03T08:58:51Z</time></trkpt><trkpt lat="53.730522785058746" lon="30.33547356192064"><ele>145.0</ele><time>2026-05-03T08:58:52Z</time></trkpt><trkpt lat="53.73050338606215" lon="30.335232878642227"><ele>144.66666666666669</ele><time>2026-05-03T08:58:53Z</time></trkpt><trkpt lat="53.730482847231684" lon="30.334978053214872"><ele>144.33333333333334</ele><time>2026-05-03T08:58:54Z</time></trkpt><trkpt lat="53.73046211606243" lon="30.334720841890018"><ele>144.0</ele><time>2026-05-03T08:58:55Z</time></trkpt><trkpt lat="53.73044288080959" lon="30.334479719654095"><ele>144.0</ele><time>2026-05-03T08:58:56Z</time></trkpt><trkpt lat="53.73042406774732" lon="30.33424630269866"><ele>144.0</ele><time>2026-05-03T08:58:57Z</time></trkpt><trkpt lat="53.73040416284835" lon="30.333999273218502"><ele>144.0</ele><time>2026-05-03T08:58:58Z</time></trkpt><trkpt lat="53.73038299406548" lon="30.33373645675993"><ele>144.0</ele><time>2026-05-03T08:58:59Z</time></trkpt><trkpt lat="53.73036383430625" lon="30.3334985827849"><ele>144.0</ele><time>2026-05-03T08:59:00Z</time></trkpt><trkpt lat="53.73034613024211" lon="30.333274321269496"><ele>144.0</ele><time>2026-05-03T08:59:01Z</time></trkpt><trkpt lat="53.73032719020307" lon="30.333039880921447"><ele>144.0</ele><time>2026-05-03T08:59:02Z</time></trkpt><trkpt lat="53.730307088360675" lon="30.33279046297686"><ele>144.0</ele><time>2026-05-03T08:59:03Z</time></trkpt><trkpt lat="53.73028613149418" lon="30.332529751572437"><ele>144.33333333333334</ele><time>2026-05-03T08:59:04Z</time></trkpt><trkpt lat="53.73026446067315" lon="30.332257376763497"><ele>144.66666666666669</ele><time>2026-05-03T08:59:05Z</time></trkpt><trkpt lat="53.7302411693905" lon="30.331969543737532"><ele>145.0</ele><time>2026-05-03T08:59:06Z</time></trkpt><trkpt lat="53.73021735517997" lon="30.331671031266712"><ele>144.33333333333334</ele><time>2026-05-03T08:59:07Z</time></trkpt><trkpt lat="53.73019478550148" lon="30.33139073540909"><ele>143.66666666666666</ele><time>2026-05-03T08:59:08Z</time></trkpt><trkpt lat="53.730174238680206" lon="30.33113586993255"><ele>143.0</ele><time>2026-05-03T08:59:09Z</time></trkpt><trkpt lat="53.73015310976559" lon="30.330872813970696"><ele>143.0</ele><time>2026-05-03T08:59:10Z</time></trkpt><trkpt lat="53.73013259287547" lon="30.33061182116044"><ele>143.0</ele><time>2026-05-03T08:59:10.999Z</time></trkpt><trkpt lat="53.730113909990884" lon="30.330381007229683"><ele>143.0</ele><time>2026-05-03T08:59:11.999Z</time></trkpt><trkpt lat="53.7300802889664" lon="30.33017233914091"><ele>143.0</ele><time>2026-05-03T08:59:12.999Z</time></trkpt><trkpt lat="53.73008096667882" lon="30.32997217191231"><ele>143.75</ele><time>2026-05-03T08:59:13.999Z</time></trkpt><trkpt lat="53.73006602577638" lon="30.329783348723254"><ele>144.5</ele><time>2026-05-03T08:59:14.999Z</time></trkpt><trkpt lat="53.73005051424134" lon="30.329585911859198"><ele>145.25</ele><time>2026-05-03T08:59:15.999Z</time></trkpt><trkpt lat="53.730034508908005" lon="30.329377724847028"><ele>146.0</ele><time>2026-05-03T08:59:16.999Z</time></trkpt><trkpt lat="53.730018360040546" lon="30.329170674137064"><ele>146.6</ele><time>2026-05-03T08:59:17.999Z</time></trkpt><trkpt lat="53.73000392276663" lon="30.328986726198927"><ele>147.2</ele><time>2026-05-03T08:59:18.999Z</time></trkpt><trkpt lat="53.729990602058884" lon="30.328816384523737"><ele>147.8</ele><time>2026-05-03T08:59:19.999Z</time></trkpt><trkpt lat="53.72997852374356" lon="30.32866192915125"><ele>148.4</ele><time>2026-05-03T08:59:20.999Z</time></trkpt><trkpt lat="53.72996779650464" lon="30.328520566858536"><ele>149.0</ele><time>2026-05-03T08:59:21.999Z</time></trkpt><trkpt lat="53.72994065554359" lon="30.32836948351414"><ele>149.75</ele><time>2026-05-03T08:59:22.999Z</time></trkpt><trkpt lat="53.729936610015855" lon="30.328182315247176"><ele>150.5</ele><time>2026-05-03T08:59:23.999Z</time></trkpt><trkpt lat="53.72992473310257" lon="30.32798966401149"><ele>151.25</ele><time>2026-05-03T08:59:24.999Z</time></trkpt><trkpt lat="53.72991020122129" lon="30.32778274969098"><ele>152.0</ele><time>2026-05-03T08:59:25.999Z</time></trkpt><trkpt lat="53.729892406194246" lon="30.327570704318568"><ele>152.0</ele><time>2026-05-03T08:59:26.999Z</time></trkpt><trkpt lat="53.72987539908673" lon="30.327356057124675"><ele>152.0</ele><time>2026-05-03T08:59:27.999Z</time></trkpt><trkpt lat="53.72985516305921" lon="30.327142150182457"><ele>152.0</ele><time>2026-05-03T08:59:28.999Z</time></trkpt><trkpt lat="53.729837973765925" lon="30.32694003261955"><ele>152.0</ele><time>2026-05-03T08:59:29.999Z</time></trkpt><trkpt lat="53.72981910114633" lon="30.326750476669503"><ele>152.0</ele><time>2026-05-03T08:59:30.999Z</time></trkpt><trkpt lat="53.72980660656824" lon="30.32658978209535"><ele>152.0</ele><time>2026-05-03T08:59:31.999Z</time></trkpt><trkpt lat="53.72979396818678" lon="30.326411617620373"><ele>152.0</ele><time>2026-05-03T08:59:32.999Z</time></trkpt><trkpt lat="53.729780930857494" lon="30.326220317221214"><ele>152.0</ele><time>2026-05-03T08:59:33.999Z</time></trkpt><trkpt lat="53.729766240708095" lon="30.326048718730227"><ele>152.0</ele><time>2026-05-03T08:59:34.999Z</time></trkpt><trkpt lat="53.72975264486582" lon="30.325929326372155"><ele>151.79999999999998</ele><time>2026-05-03T08:59:35.999Z</time></trkpt><trkpt lat="53.7297474738506" lon="30.325712512643825"><ele>151.6</ele><time>2026-05-03T08:59:37.999Z</time></trkpt><trkpt lat="53.72973850632255" lon="30.32557273998836"><ele>151.39999999999998</ele><time>2026-05-03T08:59:38.999Z</time></trkpt><trkpt lat="53.72972668001117" lon="30.32542421896772"><ele>151.2</ele><time>2026-05-03T08:59:39.999Z</time></trkpt><trkpt lat="53.729708371597894" lon="30.32526602937947"><ele>151.0</ele><time>2026-05-03T08:59:40.999Z</time></trkpt><trkpt lat="53.72969010526559" lon="30.325082802328662"><ele>151.0</ele><time>2026-05-03T08:59:41.999Z</time></trkpt><trkpt lat="53.729674754573516" lon="30.32490654557258"><ele>151.0</ele><time>2026-05-03T08:59:42.999Z</time></trkpt><trkpt lat="53.72966783851671" lon="30.32474263821885"><ele>151.0</ele><time>2026-05-03T08:59:43.999Z</time></trkpt><trkpt lat="53.7296508080285" lon="30.324572525519986"><ele>151.0</ele><time>2026-05-03T08:59:44.999Z</time></trkpt><trkpt lat="53.729641772861335" lon="30.324389104296774"><ele>151.0</ele><time>2026-05-03T08:59:45.999Z</time></trkpt><trkpt lat="53.72962717281654" lon="30.324204784804607"><ele>152.2</ele><time>2026-05-03T08:59:46.999Z</time></trkpt><trkpt lat="53.72960975483993" lon="30.324016851388883"><ele>153.39999999999998</ele><time>2026-05-03T08:59:47.999Z</time></trkpt><trkpt lat="53.72959377371804" lon="30.323833748766866"><ele>154.6</ele><time>2026-05-03T08:59:48.999Z</time></trkpt><trkpt lat="53.72958373795525" lon="30.32367688831062"><ele>155.79999999999998</ele><time>2026-05-03T08:59:49.999Z</time></trkpt><trkpt lat="53.729575050321756" lon="30.323524297330177"><ele>157.0</ele><time>2026-05-03T08:59:50.999Z</time></trkpt><trkpt lat="53.72957052664296" lon="30.323375994427078"><ele>157.2</ele><time>2026-05-03T08:59:52Z</time></trkpt><trkpt lat="53.729556981865564" lon="30.323237051545"><ele>157.39999999999998</ele><time>2026-05-03T08:59:53Z</time></trkpt><trkpt lat="53.72953747234656" lon="30.32308748493336"><ele>157.60000000000002</ele><time>2026-05-03T08:59:54Z</time></trkpt><trkpt lat="53.72953572936018" lon="30.3229273511344"><ele>157.8</ele><time>2026-05-03T08:59:55Z</time></trkpt><trkpt lat="53.72952125591537" lon="30.322766796610985"><ele>158.0</ele><time>2026-05-03T08:59:56Z</time></trkpt><trkpt lat="53.72950989617788" lon="30.32258002487438"><ele>158.0</ele><time>2026-05-03T08:59:57Z</time></trkpt><trkpt lat="53.72949114353403" lon="30.322396881686785"><ele>158.0</ele><time>2026-05-03T08:59:58Z</time></trkpt><trkpt lat="53.729480158925426" lon="30.322228908577234"><ele>158.0</ele><time>2026-05-03T08:59:59Z</time></trkpt><trkpt lat="53.72946119308197" lon="30.322074931607638"><ele>158.0</ele><time>2026-05-03T09:00:00Z</time></trkpt><trkpt lat="53.729451130230565" lon="30.32194093225808"><ele>158.0</ele><time>2026-05-03T09:00:01Z</time></trkpt><trkpt lat="53.72944230760841" lon="30.3218074967661"><ele>158.0</ele><time>2026-05-03T09:00:02Z</time></trkpt><trkpt lat="53.72943662486534" lon="30.32167373874312"><ele>158.0</ele><time>2026-05-03T09:00:03Z</time></trkpt><trkpt lat="53.729422645709406" lon="30.32155882567095"><ele>158.0</ele><time>2026-05-03T09:00:04Z</time></trkpt><trkpt lat="53.72941493807849" lon="30.32143535187929"><ele>158.0</ele><time>2026-05-03T09:00:05Z</time></trkpt><trkpt lat="53.72940514592508" lon="30.321313430586944"><ele>158.0</ele><time>2026-05-03T09:00:06Z</time></trkpt><trkpt lat="53.729391607331614" lon="30.32112731585069"><ele>158.0</ele><time>2026-05-03T09:00:07Z</time></trkpt><trkpt lat="53.72939209525966" lon="30.32095175984522"><ele>158.0</ele><time>2026-05-03T09:00:08Z</time></trkpt><trkpt lat="53.729378466532886" lon="30.320773036662384"><ele>158.0</ele><time>2026-05-03T09:00:09Z</time></trkpt><trkpt lat="53.729361822238744" lon="30.32055255791215"><ele>158.0</ele><time>2026-05-03T09:00:10Z</time></trkpt><trkpt lat="53.729341154509356" lon="30.320279999480476"><ele>158.0</ele><time>2026-05-03T09:00:11Z</time></trkpt><trkpt lat="53.729303907566695" lon="30.319991585480228"><ele>156.5</ele><time>2026-05-03T09:00:12Z</time></trkpt><trkpt lat="53.72929958817718" lon="30.319711120227574"><ele>155.0</ele><time>2026-05-03T09:00:13Z</time></trkpt><trkpt lat="53.729293985789845" lon="30.319490041794115"><ele>153.5</ele><time>2026-05-03T09:00:14Z</time></trkpt><trkpt lat="53.72927556522637" lon="30.319291677601747"><ele>152.0</ele><time>2026-05-03T09:00:15Z</time></trkpt><trkpt lat="53.729260793792406" lon="30.319180825110557"><ele>152.0</ele><time>2026-05-03T09:00:17Z</time></trkpt><trkpt lat="53.72924026081642" lon="30.319029724622357"><ele>152.0</ele><time>2026-05-03T09:00:23Z</time></trkpt><trkpt lat="53.72923259301132" lon="30.318904458262985"><ele>152.0</ele><time>2026-05-03T09:00:24Z</time></trkpt><trkpt lat="53.72922233401597" lon="30.318762328866626"><ele>152.0</ele><time>2026-05-03T09:00:26Z</time></trkpt><trkpt lat="53.729208808966504" lon="30.31863536532187"><ele>152.0</ele><time>2026-05-03T09:00:28Z</time></trkpt><trkpt lat="53.72919463706285" lon="30.318410684060783"><ele>152.5</ele><time>2026-05-03T09:00:30Z</time></trkpt><trkpt lat="53.72918813183506" lon="30.318292521565485"><ele>153.0</ele><time>2026-05-03T09:00:31Z</time></trkpt><trkpt lat="53.72918043031327" lon="30.318165911340564"><ele>153.5</ele><time>2026-05-03T09:00:32Z</time></trkpt><trkpt lat="53.7291736420414" lon="30.318049746089656"><ele>154.0</ele><time>2026-05-03T09:00:33Z</time></trkpt><trkpt lat="53.72916224682381" lon="30.317904880064987"><ele>154.5</ele><time>2026-05-03T09:00:35Z</time></trkpt><trkpt lat="53.72917288277044" lon="30.318011126752832"><ele>155.0</ele><time>2026-05-03T09:01:00.999Z</time></trkpt><trkpt lat="53.729158066800004" lon="30.318187649164"><ele>155.0</ele><time>2026-05-03T09:08:59.999Z</time></trkpt><trkpt lat="53.7291703351281" lon="30.31833483936532"><ele>155.0</ele><time>2026-05-03T09:09:00.999Z</time></trkpt><trkpt lat="53.729191293615706" lon="30.318559260921084"><ele>155.0</ele><time>2026-05-03T09:09:02.999Z</time></trkpt><trkpt lat="53.72919644389054" lon="30.318722173086393"><ele>155.0</ele><time>2026-05-03T09:09:03.999Z</time></trkpt><trkpt lat="53.72921290104508" lon="30.318867433624373"><ele>155.0</ele><time>2026-05-03T09:09:04.999Z</time></trkpt><trkpt lat="53.72921848058642" lon="30.318977098071198"><ele>154.83333333333331</ele><time>2026-05-03T09:09:05.999Z</time></trkpt><trkpt lat="53.72922645782192" lon="30.31913881712515"><ele>154.66666666666666</ele><time>2026-05-03T09:09:07.999Z</time></trkpt><trkpt lat="53.72924118219821" lon="30.31925526653177"><ele>154.5</ele><time>2026-05-03T09:09:09.999Z</time></trkpt><trkpt lat="53.72925711661346" lon="30.319405998656325"><ele>154.33333333333334</ele><time>2026-05-03T09:09:11.999Z</time></trkpt><trkpt lat="53.72925086889387" lon="30.319527040771273"><ele>154.16666666666669</ele><time>2026-05-03T09:09:12.999Z</time></trkpt><trkpt lat="53.72926043783378" lon="30.319654270810997"><ele>154.0</ele><time>2026-05-03T09:09:13.999Z</time></trkpt><trkpt lat="53.72927168944886" lon="30.319803874569946"><ele>154.0</ele><time>2026-05-03T09:09:14.999Z</time></trkpt><trkpt lat="53.729285908827805" lon="30.319993034834976"><ele>154.0</ele><time>2026-05-03T09:09:15.999Z</time></trkpt><trkpt lat="53.72931862317814" lon="30.32020758891267"><ele>154.0</ele><time>2026-05-03T09:09:16.999Z</time></trkpt><trkpt lat="53.72932798098841" lon="30.320433082339743"><ele>154.0</ele><time>2026-05-03T09:09:17.999Z</time></trkpt><trkpt lat="53.729355004504065" lon="30.320704703025545"><ele>155.33333333333334</ele><time>2026-05-03T09:09:18.999Z</time></trkpt><trkpt lat="53.72937368515964" lon="30.321017373483876"><ele>156.66666666666666</ele><time>2026-05-03T09:09:19.999Z</time></trkpt><trkpt lat="53.729396475740295" lon="30.321305534137657"><ele>158.0</ele><time>2026-05-03T09:09:20.999Z</time></trkpt><trkpt lat="53.72941825998366" lon="30.32160560428828"><ele>158.0</ele><time>2026-05-03T09:09:21.999Z</time></trkpt><trkpt lat="53.729440374061355" lon="30.32188779485521"><ele>158.0</ele><time>2026-05-03T09:09:22.999Z</time></trkpt><trkpt lat="53.72946321512513" lon="30.322166140445514"><ele>158.0</ele><time>2026-05-03T09:09:23.999Z</time></trkpt><trkpt lat="53.729484118777265" lon="30.32243170199845"><ele>158.0</ele><time>2026-05-03T09:09:24.999Z</time></trkpt><trkpt lat="53.7295021997798" lon="30.32268953842889"><ele>158.0</ele><time>2026-05-03T09:09:25.999Z</time></trkpt><trkpt lat="53.72951943440177" lon="30.322934716787557"><ele>158.0</ele><time>2026-05-03T09:09:26.999Z</time></trkpt><trkpt lat="53.72954161905418" lon="30.323162969262405"><ele>158.0</ele><time>2026-05-03T09:09:27.999Z</time></trkpt><trkpt lat="53.72955644456119" lon="30.32340813111762"><ele>158.0</ele><time>2026-05-03T09:09:28.999Z</time></trkpt><trkpt lat="53.729569070735145" lon="30.323623966627924"><ele>158.0</ele><time>2026-05-03T09:09:29.999Z</time></trkpt><trkpt lat="53.7295839302383" lon="30.323803847611654"><ele>158.0</ele><time>2026-05-03T09:09:30.999Z</time></trkpt><trkpt lat="53.729595465189824" lon="30.323975639829644"><ele>158.0</ele><time>2026-05-03T09:09:31.999Z</time></trkpt><trkpt lat="53.72960473668219" lon="30.324126856908702"><ele>158.0</ele><time>2026-05-03T09:09:32.999Z</time></trkpt><trkpt lat="53.7296192215635" lon="30.32429358433673"><ele>157.75</ele><time>2026-05-03T09:09:33.999Z</time></trkpt><trkpt lat="53.729640450558364" lon="30.324496501134725"><ele>157.5</ele><time>2026-05-03T09:09:34.999Z</time></trkpt><trkpt lat="53.72964850986966" lon="30.324699874833087"><ele>157.25</ele><time>2026-05-03T09:09:35.999Z</time></trkpt><trkpt lat="53.72966397180623" lon="30.324915639313385"><ele>157.0</ele><time>2026-05-03T09:09:36.999Z</time></trkpt><trkpt lat="53.729677587241724" lon="30.325133948383094"><ele>155.5</ele><time>2026-05-03T09:09:37.999Z</time></trkpt><trkpt lat="53.72969281731444" lon="30.325336648027363"><ele>154.0</ele><time>2026-05-03T09:09:38.999Z</time></trkpt><trkpt lat="53.72971409991103" lon="30.32553321691638"><ele>152.5</ele><time>2026-05-03T09:09:39.999Z</time></trkpt><trkpt lat="53.72973137879818" lon="30.325723872827375"><ele>151.0</ele><time>2026-05-03T09:09:40.999Z</time></trkpt><trkpt lat="53.72974462406962" lon="30.325914627953264"><ele>150.75</ele><time>2026-05-03T09:09:41.999Z</time></trkpt><trkpt lat="53.72975478199075" lon="30.326102552461236"><ele>150.5</ele><time>2026-05-03T09:09:42.999Z</time></trkpt><trkpt lat="53.72976855157175" lon="30.326291924867846"><ele>150.25</ele><time>2026-05-03T09:09:43.999Z</time></trkpt><trkpt lat="53.72978788057098" lon="30.32650439693859"><ele>150.0</ele><time>2026-05-03T09:09:44.999Z</time></trkpt><trkpt lat="53.729806945525695" lon="30.326735379284493"><ele>150.5</ele><time>2026-05-03T09:09:45.999Z</time></trkpt><trkpt lat="53.729822371861566" lon="30.32696988137888"><ele>151.0</ele><time>2026-05-03T09:09:46.999Z</time></trkpt><trkpt lat="53.72983976198698" lon="30.327168375577987"><ele>151.5</ele><time>2026-05-03T09:09:47.999Z</time></trkpt><trkpt lat="53.72985254791582" lon="30.32733910669386"><ele>152.0</ele><time>2026-05-03T09:09:48.999Z</time></trkpt><trkpt lat="53.72987049174239" lon="30.32751895484246"><ele>152.0</ele><time>2026-05-03T09:09:49.999Z</time></trkpt><trkpt lat="53.72988275529129" lon="30.327722745963737"><ele>152.0</ele><time>2026-05-03T09:09:50.999Z</time></trkpt><trkpt lat="53.72990252319845" lon="30.32796018751027"><ele>152.0</ele><time>2026-05-03T09:09:51.999Z</time></trkpt><trkpt lat="53.72992326871558" lon="30.32820479163753"><ele>152.0</ele><time>2026-05-03T09:09:52.999Z</time></trkpt><trkpt lat="53.729942431355894" lon="30.328460865620627"><ele>152.0</ele><time>2026-05-03T09:09:53.999Z</time></trkpt><trkpt lat="53.72995551567738" lon="30.328695404909084"><ele>152.0</ele><time>2026-05-03T09:09:54.999Z</time></trkpt><trkpt lat="53.72996718319704" lon="30.328902496662156"><ele>152.0</ele><time>2026-05-03T09:09:55.999Z</time></trkpt><trkpt lat="53.729982780135835" lon="30.329091420002076"><ele>152.0</ele><time>2026-05-03T09:09:56.999Z</time></trkpt><trkpt lat="53.72999818205442" lon="30.329301917625266"><ele>151.25</ele><time>2026-05-03T09:09:57.999Z</time></trkpt><trkpt lat="53.73001397851851" lon="30.32951733935037"><ele>150.5</ele><time>2026-05-03T09:09:58.999Z</time></trkpt><trkpt lat="53.73002836006394" lon="30.329751247138493"><ele>149.75</ele><time>2026-05-03T09:09:59.999Z</time></trkpt><trkpt lat="53.73004788316053" lon="30.32998272027183"><ele>149.0</ele><time>2026-05-03T09:10:00.999Z</time></trkpt><trkpt lat="53.73007223170569" lon="30.330201948608305"><ele>148.25</ele><time>2026-05-03T09:10:01.999Z</time></trkpt><trkpt lat="53.730093068970184" lon="30.330406669435344"><ele>147.5</ele><time>2026-05-03T09:10:02.999Z</time></trkpt><trkpt lat="53.73010571033347" lon="30.330623022009366"><ele>146.75</ele><time>2026-05-03T09:10:03.999Z</time></trkpt><trkpt lat="53.730120981973066" lon="30.330848503603992"><ele>146.0</ele><time>2026-05-03T09:10:04.999Z</time></trkpt><trkpt lat="53.7301417374205" lon="30.33111427812448"><ele>145.0</ele><time>2026-05-03T09:10:05.999Z</time></trkpt><trkpt lat="53.73016618490861" lon="30.331441792947466"><ele>144.0</ele><time>2026-05-03T09:10:06.999Z</time></trkpt><trkpt lat="53.73019537549206" lon="30.33180027974862"><ele>143.0</ele><time>2026-05-03T09:10:07.999Z</time></trkpt><trkpt lat="53.7302239156091" lon="30.33217544806727"><ele>143.33333333333331</ele><time>2026-05-03T09:10:08.999Z</time></trkpt><trkpt lat="53.73024951860623" lon="30.332502644999025"><ele>143.66666666666666</ele><time>2026-05-03T09:10:09.999Z</time></trkpt><trkpt lat="53.73027144471887" lon="30.332793073643437"><ele>144.0</ele><time>2026-05-03T09:10:10.999Z</time></trkpt><trkpt lat="53.730290458102694" lon="30.333078241703095"><ele>144.0</ele><time>2026-05-03T09:10:11.998Z</time></trkpt><trkpt lat="53.73030930152787" lon="30.33336291621162"><ele>144.0</ele><time>2026-05-03T09:10:12.998Z</time></trkpt><trkpt lat="53.73033089275235" lon="30.33364532540849"><ele>144.0</ele><time>2026-05-03T09:10:13.998Z</time></trkpt><trkpt lat="53.730361198674025" lon="30.33395343129916"><ele>144.0</ele><time>2026-05-03T09:10:14.998Z</time></trkpt><trkpt lat="53.7303880359226" lon="30.334314051943405"><ele>144.0</ele><time>2026-05-03T09:10:15.998Z</time></trkpt><trkpt lat="53.73041656639723" lon="30.33470537130385"><ele>144.0</ele><time>2026-05-03T09:10:16.998Z</time></trkpt><trkpt lat="53.7304506619816" lon="30.335029450380183"><ele>144.0</ele><time>2026-05-03T09:10:17.998Z</time></trkpt><trkpt lat="53.73048331794702" lon="30.335318538980626"><ele>144.0</ele><time>2026-05-03T09:10:18.998Z</time></trkpt><trkpt lat="53.730516730924954" lon="30.335640877799595"><ele>144.0</ele><time>2026-05-03T09:10:19.998Z</time></trkpt><trkpt lat="53.73052958018798" lon="30.335974054049053"><ele>144.0</ele><time>2026-05-03T09:10:20.998Z</time></trkpt><trkpt lat="53.73055561190376" lon="30.3362502226911"><ele>144.0</ele><time>2026-05-03T09:10:21.999Z</time></trkpt><trkpt lat="53.73057253769944" lon="30.336527971331453"><ele>144.0</ele><time>2026-05-03T09:10:22.999Z</time></trkpt><trkpt lat="53.73059718911466" lon="30.33684001444796"><ele>144.0</ele><time>2026-05-03T09:10:23.999Z</time></trkpt><trkpt lat="53.730620418642815" lon="30.337125628339194"><ele>144.0</ele><time>2026-05-03T09:10:24.999Z</time></trkpt><trkpt lat="53.73064219781702" lon="30.3374119511001"><ele>144.0</ele><time>2026-05-03T09:10:25.999Z</time></trkpt><trkpt lat="53.730663077128504" lon="30.337714232078234"><ele>144.33333333333334</ele><time>2026-05-03T09:10:26.999Z</time></trkpt><trkpt lat="53.73068813163564" lon="30.338033919276832"><ele>144.66666666666669</ele><time>2026-05-03T09:10:27.999Z</time></trkpt><trkpt lat="53.73071908796947" lon="30.33833634153195"><ele>145.0</ele><time>2026-05-03T09:10:28.999Z</time></trkpt><trkpt lat="53.7307428986901" lon="30.338591425114195"><ele>145.0</ele><time>2026-05-03T09:10:29.999Z</time></trkpt><trkpt lat="53.730758961114645" lon="30.338823894122136"><ele>145.0</ele><time>2026-05-03T09:10:30.999Z</time></trkpt><trkpt lat="53.73077441466636" lon="30.339089994345944"><ele>145.0</ele><time>2026-05-03T09:10:31.999Z</time></trkpt><trkpt lat="53.730794129988766" lon="30.339391372101602"><ele>146.33333333333334</ele><time>2026-05-03T09:10:32.999Z</time></trkpt><trkpt lat="53.73081540750758" lon="30.339714357027713"><ele>147.66666666666666</ele><time>2026-05-03T09:10:33.999Z</time></trkpt><trkpt lat="53.73083341603289" lon="30.340011656746707"><ele>149.0</ele><time>2026-05-03T09:10:34.999Z</time></trkpt><trkpt lat="53.73084841363872" lon="30.340284656972624"><ele>150.33333333333331</ele><time>2026-05-03T09:10:35.999Z</time></trkpt><trkpt lat="53.730864867111215" lon="30.34054488681574"><ele>151.66666666666666</ele><time>2026-05-03T09:10:36.999Z</time></trkpt><trkpt lat="53.73088793559821" lon="30.3407931381568"><ele>153.0</ele><time>2026-05-03T09:10:37.999Z</time></trkpt><trkpt lat="53.73090829382999" lon="30.341045605248926"><ele>155.0</ele><time>2026-05-03T09:10:38.999Z</time></trkpt><trkpt lat="53.73091850025728" lon="30.341315069818894"><ele>157.0</ele><time>2026-05-03T09:10:39.999Z</time></trkpt><trkpt lat="53.730936758593245" lon="30.341600942562486"><ele>159.0</ele><time>2026-05-03T09:10:40.999Z</time></trkpt><trkpt lat="53.730959554584516" lon="30.341890674721142"><ele>159.66666666666666</ele><time>2026-05-03T09:10:41.999Z</time></trkpt><trkpt lat="53.73097877476223" lon="30.342186916685044"><ele>160.33333333333331</ele><time>2026-05-03T09:10:42.999Z</time></trkpt><trkpt lat="53.731005936866836" lon="30.34248076353949"><ele>161.0</ele><time>2026-05-03T09:10:43.999Z</time></trkpt><trkpt lat="53.73102999841626" lon="30.342786551012995"><ele>161.0</ele><time>2026-05-03T09:10:44.999Z</time></trkpt><trkpt lat="53.73105405373428" lon="30.343098963722127"><ele>161.0</ele><time>2026-05-03T09:10:45.999Z</time></trkpt><trkpt lat="53.731081812591945" lon="30.343427488937802"><ele>161.0</ele><time>2026-05-03T09:10:46.999Z</time></trkpt><trkpt lat="53.731107285376375" lon="30.343770956433584"><ele>160.33333333333331</ele><time>2026-05-03T09:10:47.999Z</time></trkpt><trkpt lat="53.731133799743205" lon="30.344108542242925"><ele>159.66666666666666</ele><time>2026-05-03T09:10:48.999Z</time></trkpt><trkpt lat="53.73116059164529" lon="30.34446486062091"><ele>159.0</ele><time>2026-05-03T09:10:49.999Z</time></trkpt><trkpt lat="53.73118813447303" lon="30.344827680183194"><ele>159.0</ele><time>2026-05-03T09:10:50.999Z</time></trkpt><trkpt lat="53.73121911387054" lon="30.345194859556994"><ele>159.0</ele><time>2026-05-03T09:10:51.999Z</time></trkpt><trkpt lat="53.73124599001963" lon="30.345539171909518"><ele>159.0</ele><time>2026-05-03T09:10:52.999Z</time></trkpt><trkpt lat="53.73126776071217" lon="30.34584083905516"><ele>159.33333333333334</ele><time>2026-05-03T09:10:53.999Z</time></trkpt><trkpt lat="53.73128924667163" lon="30.346168952941497"><ele>159.66666666666669</ele><time>2026-05-03T09:10:54.999Z</time></trkpt><trkpt lat="53.73131934351163" lon="30.34652628983339"><ele>160.0</ele><time>2026-05-03T09:10:55.999Z</time></trkpt><trkpt lat="53.731354530604996" lon="30.34692425448195"><ele>160.33333333333334</ele><time>2026-05-03T09:10:56.999Z</time></trkpt><trkpt lat="53.731390083918434" lon="30.34731744365219"><ele>160.66666666666666</ele><time>2026-05-03T09:10:57.999Z</time></trkpt><trkpt lat="53.73140293323383" lon="30.347631621060632"><ele>161.0</ele><time>2026-05-03T09:10:58.999Z</time></trkpt><trkpt lat="53.731418079663115" lon="30.34790873913517"><ele>161.0</ele><time>2026-05-03T09:10:59.999Z</time></trkpt><trkpt lat="53.731434247364916" lon="30.348178849428614"><ele>161.0</ele><time>2026-05-03T09:11:00.999Z</time></trkpt><trkpt lat="53.73144937068369" lon="30.348482935610004"><ele>161.0</ele><time>2026-05-03T09:11:01.999Z</time></trkpt><trkpt lat="53.731468987946705" lon="30.34881537876386"><ele>161.0</ele><time>2026-05-03T09:11:02.999Z</time></trkpt><trkpt lat="53.731491615122884" lon="30.349177528622665"><ele>161.0</ele><time>2026-05-03T09:11:03.999Z</time></trkpt><trkpt lat="53.731518453085876" lon="30.349581226330116"><ele>161.0</ele><time>2026-05-03T09:11:04.999Z</time></trkpt><trkpt lat="53.731546060691905" lon="30.35002093087903"><ele>161.0</ele><time>2026-05-03T09:11:05.999Z</time></trkpt><trkpt lat="53.731570094911184" lon="30.35046184920332"><ele>161.0</ele><time>2026-05-03T09:11:06.999Z</time></trkpt><trkpt lat="53.73158809137088" lon="30.350859369300434"><ele>161.0</ele><time>2026-05-03T09:11:07.999Z</time></trkpt><trkpt lat="53.731608235013745" lon="30.351228991714446"><ele>160.66666666666666</ele><time>2026-05-03T09:11:08.999Z</time></trkpt><trkpt lat="53.731626006516734" lon="30.35161029655559"><ele>160.33333333333334</ele><time>2026-05-03T09:11:09.999Z</time></trkpt><trkpt lat="53.73165655198331" lon="30.351971876368037"><ele>160.0</ele><time>2026-05-03T09:11:10.999Z</time></trkpt><trkpt lat="53.73167625152431" lon="30.352307586936202"><ele>160.0</ele><time>2026-05-03T09:11:11.999Z</time></trkpt><trkpt lat="53.73169620898564" lon="30.35267466388428"><ele>160.0</ele><time>2026-05-03T09:11:12.999Z</time></trkpt><trkpt lat="53.7317394862661" lon="30.353064516901497"><ele>161.0</ele><time>2026-05-03T09:11:13.999Z</time></trkpt><trkpt lat="53.731766602012506" lon="30.35345188006779"><ele>162.0</ele><time>2026-05-03T09:11:14.999Z</time></trkpt><trkpt lat="53.731793805613975" lon="30.353839961709845"><ele>162.0</ele><time>2026-05-03T09:11:15.999Z</time></trkpt><trkpt lat="53.73182087447331" lon="30.35423789193933"><ele>162.0</ele><time>2026-05-03T09:11:16.999Z</time></trkpt><trkpt lat="53.731848223027214" lon="30.354633314496986"><ele>161.5</ele><time>2026-05-03T09:11:17.999Z</time></trkpt><trkpt lat="53.73187587429014" lon="30.355027263750948"><ele>161.0</ele><time>2026-05-03T09:11:18.999Z</time></trkpt><trkpt lat="53.7319045211862" lon="30.355438273686957"><ele>162.5</ele><time>2026-05-03T09:11:19.999Z</time></trkpt><trkpt lat="53.73193222437229" lon="30.35583945978936"><ele>164.0</ele><time>2026-05-03T09:11:20.999Z</time></trkpt><trkpt lat="53.73196012004916" lon="30.356241020313032"><ele>163.5</ele><time>2026-05-03T09:11:21.999Z</time></trkpt><trkpt lat="53.73198900986998" lon="30.35665636457312"><ele>163.0</ele><time>2026-05-03T09:11:22.999Z</time></trkpt><trkpt lat="53.73201702673636" lon="30.35706390576957"><ele>163.0</ele><time>2026-05-03T09:11:23.999Z</time></trkpt><trkpt lat="53.73204776791665" lon="30.357504350070972"><ele>163.0</ele><time>2026-05-03T09:11:24.999Z</time></trkpt><trkpt lat="53.732075512494454" lon="30.35790268479932"><ele>163.0</ele><time>2026-05-03T09:11:25.999Z</time></trkpt><trkpt lat="53.73210593011192" lon="30.358345753354428"><ele>163.0</ele><time>2026-05-03T09:11:26.999Z</time></trkpt><trkpt lat="53.73213656455539" lon="30.35878460794265"><ele>163.5</ele><time>2026-05-03T09:11:27.999Z</time></trkpt><trkpt lat="53.732167495518134" lon="30.359227710394297"><ele>164.0</ele><time>2026-05-03T09:11:28.999Z</time></trkpt><trkpt lat="53.732181927571965" lon="30.359672039151796"><ele>163.5</ele><time>2026-05-03T09:11:29.999Z</time></trkpt><trkpt lat="53.73221210043729" lon="30.360089418570908"><ele>163.0</ele><time>2026-05-03T09:11:30.999Z</time></trkpt><trkpt lat="53.732243717328636" lon="30.360506493598663"><ele>163.5</ele><time>2026-05-03T09:11:31.999Z</time></trkpt><trkpt lat="53.732286507324595" lon="30.36090894540285"><ele>164.0</ele><time>2026-05-03T09:11:32.999Z</time></trkpt><trkpt lat="53.73231664128706" lon="30.36132835412707"><ele>164.5</ele><time>2026-05-03T09:11:33.999Z</time></trkpt><trkpt lat="53.73234525412188" lon="30.36172897092693"><ele>165.0</ele><time>2026-05-03T09:11:34.999Z</time></trkpt><trkpt lat="53.732375743465084" lon="30.3621572141641"><ele>164.5</ele><time>2026-05-03T09:11:35.999Z</time></trkpt><trkpt lat="53.73240525437539" lon="30.36256571999183"><ele>164.0</ele><time>2026-05-03T09:11:36.999Z</time></trkpt><trkpt lat="53.73243219506074" lon="30.362949174816926"><ele>164.0</ele><time>2026-05-03T09:11:37.999Z</time></trkpt><trkpt lat="53.73245765049968" lon="30.36331109414591"><ele>164.0</ele><time>2026-05-03T09:11:38.999Z</time></trkpt><trkpt lat="53.732480858337965" lon="30.3636368401941"><ele>164.0</ele><time>2026-05-03T09:11:39.999Z</time></trkpt><trkpt lat="53.732503287838476" lon="30.363950922087202"><ele>164.0</ele><time>2026-05-03T09:11:40.999Z</time></trkpt><trkpt lat="53.73251136927898" lon="30.364272019953386"><ele>164.0</ele><time>2026-05-03T09:11:41.999Z</time></trkpt><trkpt lat="53.73253829320381" lon="30.364633662162756"><ele>164.0</ele><time>2026-05-03T09:11:42.999Z</time></trkpt><trkpt lat="53.732565592224276" lon="30.3649988164081"><ele>164.0</ele><time>2026-05-03T09:11:43.999Z</time></trkpt><trkpt lat="53.73258978551353" lon="30.365361584762702"><ele>164.0</ele><time>2026-05-03T09:11:44.999Z</time></trkpt><trkpt lat="53.732611589591386" lon="30.365686215554"><ele>164.0</ele><time>2026-05-03T09:11:45.999Z</time></trkpt><trkpt lat="53.73263253259775" lon="30.365984674766494"><ele>164.0</ele><time>2026-05-03T09:11:46.999Z</time></trkpt><trkpt lat="53.73265492092134" lon="30.366206467033887"><ele>164.0</ele><time>2026-05-03T09:11:47.999Z</time></trkpt><trkpt lat="53.73266092085866" lon="30.36634588651996"><ele>164.0</ele><time>2026-05-03T09:11:48.999Z</time></trkpt><trkpt lat="53.7327089890573" lon="30.366518403397055"><ele>164.0</ele><time>2026-05-03T09:11:50.999Z</time></trkpt><trkpt lat="53.73283160861379" lon="30.36664349845454"><ele>164.25</ele><time>2026-05-03T09:11:52.999Z</time></trkpt><trkpt lat="53.73291821956125" lon="30.36664753943281"><ele>164.5</ele><time>2026-05-03T09:11:53.999Z</time></trkpt><trkpt lat="53.7330356832071" lon="30.36662559546825"><ele>164.75</ele><time>2026-05-03T09:11:54.999Z</time></trkpt><trkpt lat="53.73317778728468" lon="30.36660286189648"><ele>165.0</ele><time>2026-05-03T09:11:55.999Z</time></trkpt><trkpt lat="53.73334116632509" lon="30.366593392368596"><ele>165.0</ele><time>2026-05-03T09:11:56.999Z</time></trkpt><trkpt lat="53.73352108972415" lon="30.366584482191552"><ele>165.0</ele><time>2026-05-03T09:11:57.999Z</time></trkpt><trkpt lat="53.73371765678967" lon="30.366576379110647"><ele>165.0</ele><time>2026-05-03T09:11:58.999Z</time></trkpt><trkpt lat="53.73392189757326" lon="30.366563263596838"><ele>165.0</ele><time>2026-05-03T09:11:59.999Z</time></trkpt><trkpt lat="53.73413785572608" lon="30.36654627136246"><ele>165.0</ele><time>2026-05-03T09:12:00.999Z</time></trkpt><trkpt lat="53.73434258874152" lon="30.366529427758522"><ele>165.0</ele><time>2026-05-03T09:12:01.999Z</time></trkpt><trkpt lat="53.73456626155987" lon="30.366511412728883"><ele>165.0</ele><time>2026-05-03T09:12:02.999Z</time></trkpt><trkpt lat="53.73478890053524" lon="30.36649472394714"><ele>165.0</ele><time>2026-05-03T09:12:03.999Z</time></trkpt><trkpt lat="53.735018728253586" lon="30.36647656246661"><ele>164.5</ele><time>2026-05-03T09:12:04.999Z</time></trkpt><trkpt lat="53.73525116496428" lon="30.366462959363265"><ele>164.0</ele><time>2026-05-03T09:12:05.999Z</time></trkpt><trkpt lat="53.73549131448792" lon="30.36644576176268"><ele>164.0</ele><time>2026-05-03T09:12:06.999Z</time></trkpt><trkpt lat="53.73572895126309" lon="30.36643762166996"><ele>164.0</ele><time>2026-05-03T09:12:07.999Z</time></trkpt><trkpt lat="53.73598052649976" lon="30.36644073615954"><ele>164.5</ele><time>2026-05-03T09:12:08.999Z</time></trkpt><trkpt lat="53.73622045793815" lon="30.366403049656277"><ele>165.0</ele><time>2026-05-03T09:12:09.999Z</time></trkpt><trkpt lat="53.73646498045613" lon="30.36638784087979"><ele>165.0</ele><time>2026-05-03T09:12:10.999Z</time></trkpt><trkpt lat="53.73670711526166" lon="30.366372228873775"><ele>165.0</ele><time>2026-05-03T09:12:11.999Z</time></trkpt><trkpt lat="53.73694925191542" lon="30.366378370834425"><ele>163.5</ele><time>2026-05-03T09:12:12.999Z</time></trkpt><trkpt lat="53.737196111396514" lon="30.366340071604636"><ele>162.0</ele><time>2026-05-03T09:12:13.999Z</time></trkpt><trkpt lat="53.737441301024425" lon="30.366329261295615"><ele>162.0</ele><time>2026-05-03T09:12:14.999Z</time></trkpt><trkpt lat="53.73769232292789" lon="30.366310390626033"><ele>162.0</ele><time>2026-05-03T09:12:15.999Z</time></trkpt><trkpt lat="53.73794137764615" lon="30.366296891132432"><ele>164.0</ele><time>2026-05-03T09:12:16.999Z</time></trkpt><trkpt lat="53.73819070818195" lon="30.366281927047574"><ele>166.0</ele><time>2026-05-03T09:12:17.999Z</time></trkpt><trkpt lat="53.73844360786867" lon="30.366262144071918"><ele>166.5</ele><time>2026-05-03T09:12:18.999Z</time></trkpt><trkpt lat="53.73869731878081" lon="30.366248995162728"><ele>167.0</ele><time>2026-05-03T09:12:19.999Z</time></trkpt><trkpt lat="53.738950758834534" lon="30.36622814649314"><ele>167.0</ele><time>2026-05-03T09:12:20.999Z</time></trkpt><trkpt lat="53.73920522913322" lon="30.36621983427841"><ele>167.0</ele><time>2026-05-03T09:12:21.999Z</time></trkpt><trkpt lat="53.739461968227005" lon="30.366207879291046"><ele>166.5</ele><time>2026-05-03T09:12:22.999Z</time></trkpt><trkpt lat="53.73972183657934" lon="30.366179165801398"><ele>166.0</ele><time>2026-05-03T09:12:23.999Z</time></trkpt><trkpt lat="53.73998038963484" lon="30.366168398704826"><ele>167.5</ele><time>2026-05-03T09:12:24.999Z</time></trkpt><trkpt lat="53.74024208915218" lon="30.36614443109064"><ele>169.0</ele><time>2026-05-03T09:12:25.999Z</time></trkpt><trkpt lat="53.740503749291456" lon="30.3661361904055"><ele>169.0</ele><time>2026-05-03T09:12:26.999Z</time></trkpt><trkpt lat="53.740767963004295" lon="30.366119063814374"><ele>169.0</ele><time>2026-05-03T09:12:28Z</time></trkpt><trkpt lat="53.741034019360676" lon="30.3661071420127"><ele>170.0</ele><time>2026-05-03T09:12:29Z</time></trkpt><trkpt lat="53.741301780795176" lon="30.366087399261588"><ele>171.0</ele><time>2026-05-03T09:12:30Z</time></trkpt><trkpt lat="53.74156577463699" lon="30.366078867772114"><ele>171.0</ele><time>2026-05-03T09:12:31Z</time></trkpt><trkpt lat="53.74180782283305" lon="30.36604336096425"><ele>171.0</ele><time>2026-05-03T09:12:32Z</time></trkpt><trkpt lat="53.74202600957761" lon="30.36603278324696"><ele>171.0</ele><time>2026-05-03T09:12:33Z</time></trkpt><trkpt lat="53.74223586757553" lon="30.366039249845105"><ele>171.0</ele><time>2026-05-03T09:12:34Z</time></trkpt><trkpt lat="53.74243053480075" lon="30.366000062775164"><ele>171.0</ele><time>2026-05-03T09:12:35Z</time></trkpt><trkpt lat="53.742622351345986" lon="30.366014491624707"><ele>171.0</ele><time>2026-05-03T09:12:36Z</time></trkpt><trkpt lat="53.74283818643133" lon="30.365981468598996"><ele>171.0</ele><time>2026-05-03T09:12:37Z</time></trkpt><trkpt lat="53.74306384392668" lon="30.365972573123933"><ele>171.0</ele><time>2026-05-03T09:12:38Z</time></trkpt><trkpt lat="53.743292153535705" lon="30.365962873992807"><ele>171.0</ele><time>2026-05-03T09:12:39Z</time></trkpt><trkpt lat="53.74352864016969" lon="30.36594632507802"><ele>171.0</ele><time>2026-05-03T09:12:40Z</time></trkpt><trkpt lat="53.74376977387835" lon="30.36593133199968"><ele>171.0</ele><time>2026-05-03T09:12:41Z</time></trkpt><trkpt lat="53.744017488271716" lon="30.365917704513468"><ele>171.0</ele><time>2026-05-03T09:12:42Z</time></trkpt><trkpt lat="53.744261370744326" lon="30.36590986081704"><ele>170.5</ele><time>2026-05-03T09:12:43Z</time></trkpt><trkpt lat="53.744499404877935" lon="30.36588973521453"><ele>170.0</ele><time>2026-05-03T09:12:44Z</time></trkpt><trkpt lat="53.74474254026145" lon="30.365876544591337"><ele>170.0</ele><time>2026-05-03T09:12:45Z</time></trkpt><trkpt lat="53.744989681224006" lon="30.36585559535596"><ele>170.0</ele><time>2026-05-03T09:12:46Z</time></trkpt><trkpt lat="53.7452410744613" lon="30.365837473448384"><ele>171.0</ele><time>2026-05-03T09:12:47Z</time></trkpt><trkpt lat="53.7454913019512" lon="30.365823274671172"><ele>172.0</ele><time>2026-05-03T09:12:48Z</time></trkpt><trkpt lat="53.74574966420725" lon="30.365809396752415"><ele>172.0</ele><time>2026-05-03T09:12:49Z</time></trkpt><trkpt lat="53.74600687141153" lon="30.36579668046764"><ele>172.0</ele><time>2026-05-03T09:12:50Z</time></trkpt><trkpt lat="53.74627246883553" lon="30.365784944117348"><ele>172.0</ele><time>2026-05-03T09:12:51Z</time></trkpt><trkpt lat="53.746531804065675" lon="30.365764624143463"><ele>172.0</ele><time>2026-05-03T09:12:52Z</time></trkpt><trkpt lat="53.746800241231455" lon="30.365747681546143"><ele>172.0</ele><time>2026-05-03T09:12:53Z</time></trkpt><trkpt lat="53.74707391949934" lon="30.365731141777307"><ele>172.0</ele><time>2026-05-03T09:12:54Z</time></trkpt><trkpt lat="53.74734397609622" lon="30.365711503622176"><ele>172.0</ele><time>2026-05-03T09:12:55Z</time></trkpt><trkpt lat="53.747622720063134" lon="30.365691971846793"><ele>172.0</ele><time>2026-05-03T09:12:56Z</time></trkpt><trkpt lat="53.747901981460714" lon="30.36567637009404"><ele>171.5</ele><time>2026-05-03T09:12:57Z</time></trkpt><trkpt lat="53.74818919560214" lon="30.365657963018286"><ele>171.0</ele><time>2026-05-03T09:12:58Z</time></trkpt><trkpt lat="53.74847528251918" lon="30.36564014211698"><ele>172.0</ele><time>2026-05-03T09:12:59Z</time></trkpt><trkpt lat="53.748762937741695" lon="30.365622772544185"><ele>173.0</ele><time>2026-05-03T09:13:00Z</time></trkpt><trkpt lat="53.74905293394561" lon="30.365608346285867"><ele>173.0</ele><time>2026-05-03T09:13:01Z</time></trkpt><trkpt lat="53.749346516701614" lon="30.36559010423845"><ele>173.0</ele><time>2026-05-03T09:13:02Z</time></trkpt><trkpt lat="53.7496397732079" lon="30.36556733950082"><ele>173.0</ele><time>2026-05-03T09:13:03Z</time></trkpt><trkpt lat="53.74993683634447" lon="30.365546734079423"><ele>173.0</ele><time>2026-05-03T09:13:04Z</time></trkpt><trkpt lat="53.75023416055648" lon="30.36552697285921"><ele>171.5</ele><time>2026-05-03T09:13:05Z</time></trkpt><trkpt lat="53.75053710721168" lon="30.36550700202249"><ele>170.0</ele><time>2026-05-03T09:13:06Z</time></trkpt><trkpt lat="53.750837914513724" lon="30.36548774794663"><ele>170.0</ele><time>2026-05-03T09:13:07Z</time></trkpt><trkpt lat="53.75114666508116" lon="30.365465591537745"><ele>170.0</ele><time>2026-05-03T09:13:08Z</time></trkpt><trkpt lat="53.75145711881334" lon="30.365446184228563"><ele>170.0</ele><time>2026-05-03T09:13:09Z</time></trkpt><trkpt lat="53.75176291033996" lon="30.365434577577158"><ele>170.0</ele><time>2026-05-03T09:13:10Z</time></trkpt><trkpt lat="53.75205120900242" lon="30.365415816495343"><ele>169.0</ele><time>2026-05-03T09:13:11Z</time></trkpt><trkpt lat="53.752316818530524" lon="30.36539612268079"><ele>168.0</ele><time>2026-05-03T09:13:12Z</time></trkpt><trkpt lat="53.75258019380508" lon="30.365376460505285"><ele>169.0</ele><time>2026-05-03T09:13:13Z</time></trkpt><trkpt lat="53.752847654772175" lon="30.365358847592827"><ele>170.0</ele><time>2026-05-03T09:13:14Z</time></trkpt><trkpt lat="53.753091325416726" lon="30.365340365467688"><ele>170.0</ele><time>2026-05-03T09:13:15Z</time></trkpt><trkpt lat="53.753320079941695" lon="30.36532276218513"><ele>170.0</ele><time>2026-05-03T09:13:16Z</time></trkpt><trkpt lat="53.75352592278575" lon="30.36531096986865"><ele>170.0</ele><time>2026-05-03T09:13:17Z</time></trkpt><trkpt lat="53.75370980388976" lon="30.365300651228658"><ele>169.33333333333331</ele><time>2026-05-03T09:13:18Z</time></trkpt><trkpt lat="53.75388512111969" lon="30.365287273746215"><ele>168.66666666666666</ele><time>2026-05-03T09:13:19Z</time></trkpt><trkpt lat="53.75406103830716" lon="30.36526936236183"><ele>168.0</ele><time>2026-05-03T09:13:20Z</time></trkpt><trkpt lat="53.75424014503236" lon="30.365258223555728"><ele>167.33333333333334</ele><time>2026-05-03T09:13:21Z</time></trkpt><trkpt lat="53.75442332409341" lon="30.365247523568616"><ele>166.66666666666669</ele><time>2026-05-03T09:13:22Z</time></trkpt><trkpt lat="53.754593486284264" lon="30.365234337338006"><ele>166.0</ele><time>2026-05-03T09:13:23Z</time></trkpt><trkpt lat="53.754769286938334" lon="30.365224535630226"><ele>166.0</ele><time>2026-05-03T09:13:24Z</time></trkpt><trkpt lat="53.75494407579683" lon="30.365211147907875"><ele>166.0</ele><time>2026-05-03T09:13:25Z</time></trkpt><trkpt lat="53.75511829357762" lon="30.36520168579043"><ele>166.0</ele><time>2026-05-03T09:13:26Z</time></trkpt><trkpt lat="53.75527490148652" lon="30.365190736081903"><ele>165.0</ele><time>2026-05-03T09:13:27Z</time></trkpt><trkpt lat="53.755433118431625" lon="30.36518274202753"><ele>164.0</ele><time>2026-05-03T09:13:28Z</time></trkpt><trkpt lat="53.75558671691289" lon="30.36517515306717"><ele>163.0</ele><time>2026-05-03T09:13:29Z</time></trkpt><trkpt lat="53.75574367651438" lon="30.36516750500666"><ele>163.0</ele><time>2026-05-03T09:13:30Z</time></trkpt><trkpt lat="53.75589762287685" lon="30.365159281729824"><ele>163.0</ele><time>2026-05-03T09:13:31Z</time></trkpt><trkpt lat="53.756057147387466" lon="30.36515009388865"><ele>163.0</ele><time>2026-05-03T09:13:32Z</time></trkpt><trkpt lat="53.75621422561421" lon="30.365138314907146"><ele>162.66666666666669</ele><time>2026-05-03T09:13:33Z</time></trkpt><trkpt lat="53.75637911873084" lon="30.365122318957944"><ele>162.33333333333334</ele><time>2026-05-03T09:13:34Z</time></trkpt><trkpt lat="53.75652877960748" lon="30.36511164933748"><ele>162.0</ele><time>2026-05-03T09:13:35Z</time></trkpt><trkpt lat="53.756697684283104" lon="30.36510383114738"><ele>161.33333333333334</ele><time>2026-05-03T09:13:36Z</time></trkpt><trkpt lat="53.75687783324201" lon="30.365092769513307"><ele>160.66666666666669</ele><time>2026-05-03T09:13:37Z</time></trkpt><trkpt lat="53.75707328749189" lon="30.365085655047697"><ele>160.0</ele><time>2026-05-03T09:13:38Z</time></trkpt><trkpt lat="53.75728289862929" lon="30.365076902353973"><ele>160.0</ele><time>2026-05-03T09:13:39Z</time></trkpt><trkpt lat="53.75750758182518" lon="30.365066601662615"><ele>160.0</ele><time>2026-05-03T09:13:40Z</time></trkpt><trkpt lat="53.757722786029454" lon="30.36505000385473"><ele>160.0</ele><time>2026-05-03T09:13:41Z</time></trkpt><trkpt lat="53.75796113764041" lon="30.365028948898537"><ele>158.0</ele><time>2026-05-03T09:13:42Z</time></trkpt><trkpt lat="53.758205616368144" lon="30.365009013467994"><ele>156.0</ele><time>2026-05-03T09:13:43Z</time></trkpt><trkpt lat="53.75844931421527" lon="30.364991781505594"><ele>157.5</ele><time>2026-05-03T09:13:44Z</time></trkpt><trkpt lat="53.75869866067742" lon="30.3649755143962"><ele>159.0</ele><time>2026-05-03T09:13:45Z</time></trkpt><trkpt lat="53.758947697417" lon="30.364960990379146"><ele>159.0</ele><time>2026-05-03T09:13:46Z</time></trkpt><trkpt lat="53.75920487955153" lon="30.364951854319948"><ele>159.0</ele><time>2026-05-03T09:13:47Z</time></trkpt><trkpt lat="53.759457809619725" lon="30.36493593709463"><ele>162.5</ele><time>2026-05-03T09:13:48Z</time></trkpt><trkpt lat="53.759710498579146" lon="30.36491836012408"><ele>166.0</ele><time>2026-05-03T09:13:49Z</time></trkpt><trkpt lat="53.759967793223446" lon="30.364901875406574"><ele>168.0</ele><time>2026-05-03T09:13:50Z</time></trkpt><trkpt lat="53.76022888735325" lon="30.364889631223168"><ele>170.0</ele><time>2026-05-03T09:13:51Z</time></trkpt><trkpt lat="53.76049037874836" lon="30.364875047969715"><ele>170.0</ele><time>2026-05-03T09:13:52Z</time></trkpt><trkpt lat="53.760757609287616" lon="30.364857116628404"><ele>170.0</ele><time>2026-05-03T09:13:53Z</time></trkpt><trkpt lat="53.76102207772009" lon="30.36484316947958"><ele>171.5</ele><time>2026-05-03T09:13:54Z</time></trkpt><trkpt lat="53.76129527917159" lon="30.364820573595672"><ele>173.0</ele><time>2026-05-03T09:13:55Z</time></trkpt><trkpt lat="53.761565425347456" lon="30.364808862848637"><ele>173.0</ele><time>2026-05-03T09:13:56Z</time></trkpt><trkpt lat="53.76183854232169" lon="30.364795315361217"><ele>173.0</ele><time>2026-05-03T09:13:57Z</time></trkpt><trkpt lat="53.76211759332527" lon="30.36476882237928"><ele>173.0</ele><time>2026-05-03T09:13:58Z</time></trkpt><trkpt lat="53.76239724352343" lon="30.36474943829815"><ele>173.0</ele><time>2026-05-03T09:13:59Z</time></trkpt><trkpt lat="53.76267516313394" lon="30.364743511927855"><ele>173.5</ele><time>2026-05-03T09:14:00Z</time></trkpt><trkpt lat="53.762954098501815" lon="30.36473950878436"><ele>174.0</ele><time>2026-05-03T09:14:01Z</time></trkpt><trkpt lat="53.76323540637988" lon="30.36472450267859"><ele>174.0</ele><time>2026-05-03T09:14:02Z</time></trkpt><trkpt lat="53.76351413102962" lon="30.364701060898025"><ele>174.0</ele><time>2026-05-03T09:14:03Z</time></trkpt><trkpt lat="53.76379466291829" lon="30.364684017098057"><ele>174.0</ele><time>2026-05-03T09:14:04Z</time></trkpt><trkpt lat="53.76409201672878" lon="30.36468076963675"><ele>174.0</ele><time>2026-05-03T09:14:05Z</time></trkpt><trkpt lat="53.76439877196313" lon="30.364677895474383"><ele>174.0</ele><time>2026-05-03T09:14:06Z</time></trkpt><trkpt lat="53.76468549915993" lon="30.364698705508257"><ele>174.0</ele><time>2026-05-03T09:14:07Z</time></trkpt><trkpt lat="53.76494835399993" lon="30.364683804838084"><ele>175.0</ele><time>2026-05-03T09:14:08Z</time></trkpt><trkpt lat="53.765197287877015" lon="30.364670893524643"><ele>176.0</ele><time>2026-05-03T09:14:09Z</time></trkpt><trkpt lat="53.76544200904992" lon="30.364657135694287"><ele>176.0</ele><time>2026-05-03T09:14:10Z</time></trkpt><trkpt lat="53.76570118562687" lon="30.364662378389312"><ele>176.0</ele><time>2026-05-03T09:14:11Z</time></trkpt><trkpt lat="53.76593445122126" lon="30.364700754024806"><ele>172.5</ele><time>2026-05-03T09:14:12Z</time></trkpt><trkpt lat="53.7661585484627" lon="30.364788457930793"><ele>169.0</ele><time>2026-05-03T09:14:13Z</time></trkpt><trkpt lat="53.76638627012772" lon="30.364922248225014"><ele>169.0</ele><time>2026-05-03T09:14:14Z</time></trkpt><trkpt lat="53.766616169121875" lon="30.365100254249235"><ele>169.0</ele><time>2026-05-03T09:14:15Z</time></trkpt><trkpt lat="53.766836023181554" lon="30.36531143214497"><ele>170.5</ele><time>2026-05-03T09:14:16Z</time></trkpt><trkpt lat="53.76705347045968" lon="30.365540324574987"><ele>172.0</ele><time>2026-05-03T09:14:17Z</time></trkpt><trkpt lat="53.76726856513392" lon="30.36577456394893"><ele>172.0</ele><time>2026-05-03T09:14:18Z</time></trkpt><trkpt lat="53.76748210481527" lon="30.366026741522024"><ele>172.0</ele><time>2026-05-03T09:14:19Z</time></trkpt><trkpt lat="53.76769751162998" lon="30.366276128937635"><ele>172.0</ele><time>2026-05-03T09:14:20Z</time></trkpt><trkpt lat="53.767914094120705" lon="30.36652861905244"><ele>172.0</ele><time>2026-05-03T09:14:21Z</time></trkpt><trkpt lat="53.768129672059715" lon="30.366771476272937"><ele>172.0</ele><time>2026-05-03T09:14:22Z</time></trkpt><trkpt lat="53.76834601092212" lon="30.367024312215406"><ele>172.0</ele><time>2026-05-03T09:14:23Z</time></trkpt><trkpt lat="53.76856568472398" lon="30.367283329044344"><ele>174.0</ele><time>2026-05-03T09:14:24Z</time></trkpt><trkpt lat="53.76878563142218" lon="30.367542990235115"><ele>176.0</ele><time>2026-05-03T09:14:25Z</time></trkpt><trkpt lat="53.76900691237331" lon="30.36780533394805"><ele>176.5</ele><time>2026-05-03T09:14:26Z</time></trkpt><trkpt lat="53.76922907696857" lon="30.36806371638787"><ele>177.0</ele><time>2026-05-03T09:14:27Z</time></trkpt><trkpt lat="53.76945806093013" lon="30.368316939065547"><ele>177.0</ele><time>2026-05-03T09:14:28Z</time></trkpt><trkpt lat="53.769687892438725" lon="30.368569363917462"><ele>177.0</ele><time>2026-05-03T09:14:29Z</time></trkpt><trkpt lat="53.76992239734894" lon="30.36883198357318"><ele>176.5</ele><time>2026-05-03T09:14:30Z</time></trkpt><trkpt lat="53.77015460947486" lon="30.369092359477204"><ele>176.0</ele><time>2026-05-03T09:14:31Z</time></trkpt><trkpt lat="53.77038575479862" lon="30.369358643777677"><ele>176.0</ele><time>2026-05-03T09:14:32Z</time></trkpt><trkpt lat="53.77060676368092" lon="30.369618361818688"><ele>176.0</ele><time>2026-05-03T09:14:33Z</time></trkpt><trkpt lat="53.77081412263754" lon="30.369878312228114"><ele>175.5</ele><time>2026-05-03T09:14:34.002Z</time></trkpt><trkpt lat="53.77099785465372" lon="30.37019250996678"><ele>175.0</ele><time>2026-05-03T09:14:35.002Z</time></trkpt><trkpt lat="53.771152322468524" lon="30.37047191185418"><ele>175.5</ele><time>2026-05-03T09:14:36.002Z</time></trkpt><trkpt lat="53.771311427742816" lon="30.370782989726596"><ele>176.0</ele><time>2026-05-03T09:14:37.002Z</time></trkpt><trkpt lat="53.7714161604128" lon="30.371156393416932"><ele>176.0</ele><time>2026-05-03T09:14:38.002Z</time></trkpt><trkpt lat="53.77152349574125" lon="30.37152706701694"><ele>176.0</ele><time>2026-05-03T09:14:39.002Z</time></trkpt><trkpt lat="53.77164063962302" lon="30.37188236397881"><ele>176.0</ele><time>2026-05-03T09:14:40.002Z</time></trkpt><trkpt lat="53.771711804473014" lon="30.372244006146264"><ele>176.0</ele><time>2026-05-03T09:14:41.002Z</time></trkpt><trkpt lat="53.77178672862091" lon="30.372601393115254"><ele>176.0</ele><time>2026-05-03T09:14:42.002Z</time></trkpt><trkpt lat="53.77186386383817" lon="30.37296932785756"><ele>176.5</ele><time>2026-05-03T09:14:43.002Z</time></trkpt><trkpt lat="53.7719423948106" lon="30.373343830296793"><ele>177.0</ele><time>2026-05-03T09:14:44.002Z</time></trkpt><trkpt lat="53.77202333563661" lon="30.373729818355457"><ele>176.5</ele><time>2026-05-03T09:14:45.002Z</time></trkpt><trkpt lat="53.7721066532144" lon="30.37412699223305"><ele>176.0</ele><time>2026-05-03T09:14:46.002Z</time></trkpt><trkpt lat="53.77219070242036" lon="30.374525583773817"><ele>174.5</ele><time>2026-05-03T09:14:47.001Z</time></trkpt><trkpt lat="53.77227677961577" lon="30.3749353571364"><ele>173.0</ele><time>2026-05-03T09:14:48.001Z</time></trkpt><trkpt lat="53.77237848873912" lon="30.375341875786365"><ele>173.5</ele><time>2026-05-03T09:14:49.001Z</time></trkpt><trkpt lat="53.77246399550763" lon="30.375769529996894"><ele>174.0</ele><time>2026-05-03T09:14:50.001Z</time></trkpt><trkpt lat="53.772556513143215" lon="30.376201681470636"><ele>174.5</ele><time>2026-05-03T09:14:51.001Z</time></trkpt><trkpt lat="53.77265144338932" lon="30.376636407442984"><ele>175.0</ele><time>2026-05-03T09:14:52.001Z</time></trkpt><trkpt lat="53.772750915667515" lon="30.37707933847671"><ele>176.0</ele><time>2026-05-03T09:14:53.001Z</time></trkpt><trkpt lat="53.77284693416379" lon="30.37752930284841"><ele>177.0</ele><time>2026-05-03T09:14:54.001Z</time></trkpt><trkpt lat="53.77293294124023" lon="30.377950544475567"><ele>177.0</ele><time>2026-05-03T09:14:55.001Z</time></trkpt><trkpt lat="53.77302584594018" lon="30.37838377990961"><ele>177.0</ele><time>2026-05-03T09:14:56.001Z</time></trkpt><trkpt lat="53.77311013642193" lon="30.378824962327194"><ele>177.0</ele><time>2026-05-03T09:14:57.001Z</time></trkpt><trkpt lat="53.77320287635505" lon="30.37926213246138"><ele>177.0</ele><time>2026-05-03T09:14:58.001Z</time></trkpt><trkpt lat="53.773293469224356" lon="30.37969188899489"><ele>176.0</ele><time>2026-05-03T09:14:59.001Z</time></trkpt><trkpt lat="53.77338625242218" lon="30.38011754836337"><ele>175.0</ele><time>2026-05-03T09:15:00.001Z</time></trkpt><trkpt lat="53.773478050749944" lon="30.380539216698036"><ele>175.0</ele><time>2026-05-03T09:15:01.001Z</time></trkpt><trkpt lat="53.77356959691804" lon="30.380968345714003"><ele>175.0</ele><time>2026-05-03T09:15:02.001Z</time></trkpt><trkpt lat="53.77365685933508" lon="30.3813955730956"><ele>175.0</ele><time>2026-05-03T09:15:03.001Z</time></trkpt><trkpt lat="53.77374562170042" lon="30.381825609914053"><ele>175.0</ele><time>2026-05-03T09:15:04.001Z</time></trkpt><trkpt lat="53.77383999408391" lon="30.382267320628937"><ele>174.0</ele><time>2026-05-03T09:15:05.001Z</time></trkpt><trkpt lat="53.77393726533458" lon="30.382710260531177"><ele>173.0</ele><time>2026-05-03T09:15:06.001Z</time></trkpt><trkpt lat="53.774037549055855" lon="30.383152475972892"><ele>173.0</ele><time>2026-05-03T09:15:07.001Z</time></trkpt><trkpt lat="53.774138650647366" lon="30.38359935768537"><ele>173.0</ele><time>2026-05-03T09:15:08.001Z</time></trkpt><trkpt lat="53.77424350341394" lon="30.384042907299712"><ele>173.0</ele><time>2026-05-03T09:15:09.001Z</time></trkpt><trkpt lat="53.77435437202562" lon="30.38448945550289"><ele>173.0</ele><time>2026-05-03T09:15:10.001Z</time></trkpt><trkpt lat="53.77447027690032" lon="30.384931473984235"><ele>170.0</ele><time>2026-05-03T09:15:11.001Z</time></trkpt><trkpt lat="53.77459714385242" lon="30.38537294116611"><ele>167.0</ele><time>2026-05-03T09:15:12.001Z</time></trkpt><trkpt lat="53.77472428342074" lon="30.38581213755187"><ele>167.0</ele><time>2026-05-03T09:15:13.001Z</time></trkpt><trkpt lat="53.77485266234823" lon="30.386260248081943"><ele>167.0</ele><time>2026-05-03T09:15:14.001Z</time></trkpt><trkpt lat="53.77497558793867" lon="30.386708087847826"><ele>167.0</ele><time>2026-05-03T09:15:15.001Z</time></trkpt><trkpt lat="53.77510501290497" lon="30.38715767421334"><ele>167.0</ele><time>2026-05-03T09:15:16.001Z</time></trkpt><trkpt lat="53.77523873008896" lon="30.38761296820798"><ele>163.0</ele><time>2026-05-03T09:15:17.001Z</time></trkpt><trkpt lat="53.77537334287055" lon="30.388057771233456"><ele>159.0</ele><time>2026-05-03T09:15:18.001Z</time></trkpt><trkpt lat="53.775528049298714" lon="30.388514389604182"><ele>155.5</ele><time>2026-05-03T09:15:19.001Z</time></trkpt><trkpt lat="53.77567069072407" lon="30.38895532745231"><ele>152.0</ele><time>2026-05-03T09:15:20.001Z</time></trkpt><trkpt lat="53.77581636210709" lon="30.389405600828844"><ele>152.0</ele><time>2026-05-03T09:15:21.001Z</time></trkpt><trkpt lat="53.775966254731955" lon="30.38984914356719"><ele>152.0</ele><time>2026-05-03T09:15:22.001Z</time></trkpt><trkpt lat="53.77611273901076" lon="30.39026511815329"><ele>153.0</ele><time>2026-05-03T09:15:23.001Z</time></trkpt><trkpt lat="53.77627008507202" lon="30.390689964906496"><ele>154.0</ele><time>2026-05-03T09:15:24.001Z</time></trkpt><trkpt lat="53.77642552986201" lon="30.391108067226586"><ele>153.5</ele><time>2026-05-03T09:15:25.001Z</time></trkpt><trkpt lat="53.776583419231685" lon="30.391527471401695"><ele>153.0</ele><time>2026-05-03T09:15:26.001Z</time></trkpt><trkpt lat="53.776737309425386" lon="30.391941942782527"><ele>158.5</ele><time>2026-05-03T09:15:27.001Z</time></trkpt><trkpt lat="53.77689558264339" lon="30.3923475085922"><ele>164.0</ele><time>2026-05-03T09:15:28.001Z</time></trkpt><trkpt lat="53.77706212601361" lon="30.39275674788936"><ele>162.5</ele><time>2026-05-03T09:15:29.001Z</time></trkpt><trkpt lat="53.777224960898515" lon="30.393165718141653"><ele>161.0</ele><time>2026-05-03T09:15:30.001Z</time></trkpt><trkpt lat="53.777387713142666" lon="30.3935700032429"><ele>159.5</ele><time>2026-05-03T09:15:31.001Z</time></trkpt><trkpt lat="53.77755500910591" lon="30.393977472757665"><ele>158.0</ele><time>2026-05-03T09:15:32.001Z</time></trkpt><trkpt lat="53.77771952805486" lon="30.39438337313563"><ele>163.0</ele><time>2026-05-03T09:15:33.001Z</time></trkpt><trkpt lat="53.77788460107065" lon="30.394782078678833"><ele>168.0</ele><time>2026-05-03T09:15:34.001Z</time></trkpt><trkpt lat="53.77805122773384" lon="30.39518847492058"><ele>165.5</ele><time>2026-05-03T09:15:35.001Z</time></trkpt><trkpt lat="53.778217503795766" lon="30.39559790658256"><ele>163.0</ele><time>2026-05-03T09:15:36.001Z</time></trkpt><trkpt lat="53.77838245196785" lon="30.396010301297924"><ele>165.5</ele><time>2026-05-03T09:15:37.001Z</time></trkpt><trkpt lat="53.77854285142135" lon="30.39642116122413"><ele>168.0</ele><time>2026-05-03T09:15:38.001Z</time></trkpt><trkpt lat="53.77870940775093" lon="30.396833638492097"><ele>166.0</ele><time>2026-05-03T09:15:39.001Z</time></trkpt><trkpt lat="53.77887235313554" lon="30.397243759497794"><ele>164.0</ele><time>2026-05-03T09:15:40.001Z</time></trkpt><trkpt lat="53.779042427634295" lon="30.397656276465185"><ele>164.0</ele><time>2026-05-03T09:15:41.001Z</time></trkpt><trkpt lat="53.779211366357096" lon="30.39807050119653"><ele>164.0</ele><time>2026-05-03T09:15:42.001Z</time></trkpt><trkpt lat="53.77938197867942" lon="30.398487776089826"><ele>166.0</ele><time>2026-05-03T09:15:43.001Z</time></trkpt><trkpt lat="53.779544964683446" lon="30.398901835486637"><ele>168.0</ele><time>2026-05-03T09:15:44.001Z</time></trkpt><trkpt lat="53.779715420261525" lon="30.399323571222467"><ele>165.0</ele><time>2026-05-03T09:15:45.001Z</time></trkpt><trkpt lat="53.77988520061825" lon="30.399740974551005"><ele>162.0</ele><time>2026-05-03T09:15:46.001Z</time></trkpt><trkpt lat="53.7800485155665" lon="30.40016441066981"><ele>165.0</ele><time>2026-05-03T09:15:47.001Z</time></trkpt><trkpt lat="53.78021687391307" lon="30.400588163232428"><ele>168.0</ele><time>2026-05-03T09:15:48.001Z</time></trkpt><trkpt lat="53.78039143930534" lon="30.401012968771855"><ele>165.0</ele><time>2026-05-03T09:15:49.001Z</time></trkpt><trkpt lat="53.78056438012833" lon="30.40143500046161"><ele>162.0</ele><time>2026-05-03T09:15:50.001Z</time></trkpt><trkpt lat="53.78073436809913" lon="30.40186038239371"><ele>159.5</ele><time>2026-05-03T09:15:51.001Z</time></trkpt><trkpt lat="53.780906491623846" lon="30.402279636672255"><ele>157.0</ele><time>2026-05-03T09:15:52.001Z</time></trkpt><trkpt lat="53.781079822163754" lon="30.4026959703078"><ele>160.0</ele><time>2026-05-03T09:15:53.001Z</time></trkpt><trkpt lat="53.78124692940369" lon="30.40312453313817"><ele>163.0</ele><time>2026-05-03T09:15:54.001Z</time></trkpt><trkpt lat="53.78141314453185" lon="30.403550036544907"><ele>160.5</ele><time>2026-05-03T09:15:55.001Z</time></trkpt><trkpt lat="53.781581180617245" lon="30.403969157136505"><ele>158.0</ele><time>2026-05-03T09:15:56.001Z</time></trkpt><trkpt lat="53.781752575395004" lon="30.404382120965856"><ele>157.0</ele><time>2026-05-03T09:15:57.001Z</time></trkpt><trkpt lat="53.781918901561085" lon="30.404797074125373"><ele>156.0</ele><time>2026-05-03T09:15:58.001Z</time></trkpt><trkpt lat="53.78208569373722" lon="30.405214742407075"><ele>153.5</ele><time>2026-05-03T09:15:59.001Z</time></trkpt><trkpt lat="53.78225189337105" lon="30.405636216508004"><ele>151.0</ele><time>2026-05-03T09:16:00.001Z</time></trkpt><trkpt lat="53.78241935435805" lon="30.40605502927463"><ele>151.0</ele><time>2026-05-03T09:16:01.001Z</time></trkpt><trkpt lat="53.78258067146907" lon="30.406469844142723"><ele>151.0</ele><time>2026-05-03T09:16:02.001Z</time></trkpt><trkpt lat="53.78274441680467" lon="30.406885133991295"><ele>150.0</ele><time>2026-05-03T09:16:03.001Z</time></trkpt><trkpt lat="53.78291188599518" lon="30.407291509516902"><ele>149.0</ele><time>2026-05-03T09:16:04.001Z</time></trkpt><trkpt lat="53.78307824329296" lon="30.407697518204824"><ele>150.0</ele><time>2026-05-03T09:16:05.001Z</time></trkpt><trkpt lat="53.78324367737269" lon="30.408098800751397"><ele>151.0</ele><time>2026-05-03T09:16:06.001Z</time></trkpt><trkpt lat="53.783402480085826" lon="30.408505148517758"><ele>152.0</ele><time>2026-05-03T09:16:07.001Z</time></trkpt><trkpt lat="53.783562470633115" lon="30.408905089790082"><ele>153.0</ele><time>2026-05-03T09:16:08.001Z</time></trkpt><trkpt lat="53.78372490145202" lon="30.409306741913586"><ele>153.0</ele><time>2026-05-03T09:16:09.001Z</time></trkpt><trkpt lat="53.78388739852607" lon="30.409709590963775"><ele>153.0</ele><time>2026-05-03T09:16:10.001Z</time></trkpt><trkpt lat="53.78404812111795" lon="30.41011264721809"><ele>153.5</ele><time>2026-05-03T09:16:11.001Z</time></trkpt><trkpt lat="53.78420883421128" lon="30.410513040078172"><ele>154.0</ele><time>2026-05-03T09:16:12.001Z</time></trkpt><trkpt lat="53.78436954726354" lon="30.410911888116594"><ele>154.0</ele><time>2026-05-03T09:16:13.001Z</time></trkpt><trkpt lat="53.7845303242932" lon="30.411317011843177"><ele>154.0</ele><time>2026-05-03T09:16:14.001Z</time></trkpt><trkpt lat="53.784688603559204" lon="30.41171407740526"><ele>155.5</ele><time>2026-05-03T09:16:15.001Z</time></trkpt><trkpt lat="53.78484838794595" lon="30.412115405203647"><ele>157.0</ele><time>2026-05-03T09:16:16.001Z</time></trkpt><trkpt lat="53.78500592357893" lon="30.412511668389048"><ele>157.5</ele><time>2026-05-03T09:16:17.001Z</time></trkpt><trkpt lat="53.78516572855457" lon="30.412914715569926"><ele>158.0</ele><time>2026-05-03T09:16:18.001Z</time></trkpt><trkpt lat="53.78533048516819" lon="30.41330547375397"><ele>158.5</ele><time>2026-05-03T09:16:19.001Z</time></trkpt><trkpt lat="53.78549283324966" lon="30.41370885728941"><ele>159.0</ele><time>2026-05-03T09:16:20.001Z</time></trkpt><trkpt lat="53.785652594441515" lon="30.41410526117184"><ele>160.5</ele><time>2026-05-03T09:16:21.001Z</time></trkpt><trkpt lat="53.78579264857536" lon="30.41446594941876"><ele>162.0</ele><time>2026-05-03T09:16:22.001Z</time></trkpt><trkpt lat="53.78591987626875" lon="30.414792756834927"><ele>162.66666666666666</ele><time>2026-05-03T09:16:23.001Z</time></trkpt><trkpt lat="53.78604043850129" lon="30.415097971344032"><ele>163.33333333333331</ele><time>2026-05-03T09:16:24.001Z</time></trkpt><trkpt lat="53.78616683905375" lon="30.415422663881085"><ele>164.0</ele><time>2026-05-03T09:16:25.001Z</time></trkpt><trkpt lat="53.786302051401876" lon="30.415765259237382"><ele>165.0</ele><time>2026-05-03T09:16:26.001Z</time></trkpt><trkpt lat="53.78644694125758" lon="30.416108876374192"><ele>166.0</ele><time>2026-05-03T09:16:27.001Z</time></trkpt><trkpt lat="53.78658127158361" lon="30.41643788080345"><ele>166.33333333333334</ele><time>2026-05-03T09:16:28.001Z</time></trkpt><trkpt lat="53.786696308596106" lon="30.41674598717673"><ele>166.66666666666666</ele><time>2026-05-03T09:16:29.001Z</time></trkpt><trkpt lat="53.78680897098581" lon="30.417013464779625"><ele>167.0</ele><time>2026-05-03T09:16:30.001Z</time></trkpt><trkpt lat="53.78691979478176" lon="30.41731285795938"><ele>167.0</ele><time>2026-05-03T09:16:31.001Z</time></trkpt><trkpt lat="53.78703475156953" lon="30.41759690412088"><ele>167.0</ele><time>2026-05-03T09:16:32.001Z</time></trkpt><trkpt lat="53.787152928325156" lon="30.417898481981073"><ele>167.0</ele><time>2026-05-03T09:16:33.001Z</time></trkpt><trkpt lat="53.787273941530884" lon="30.41820873992637"><ele>167.0</ele><time>2026-05-03T09:16:34.001Z</time></trkpt><trkpt lat="53.78739885130984" lon="30.41852387538316"><ele>167.0</ele><time>2026-05-03T09:16:35.001Z</time></trkpt><trkpt lat="53.78752728991366" lon="30.418842470108036"><ele>166.5</ele><time>2026-05-03T09:16:36.001Z</time></trkpt><trkpt lat="53.787657064665396" lon="30.419160915724227"><ele>166.0</ele><time>2026-05-03T09:16:37.001Z</time></trkpt><trkpt lat="53.787788143475076" lon="30.419487484159063"><ele>167.0</ele><time>2026-05-03T09:16:38.001Z</time></trkpt><trkpt lat="53.78792349810522" lon="30.419821701663682"><ele>168.0</ele><time>2026-05-03T09:16:39.001Z</time></trkpt><trkpt lat="53.788062236288866" lon="30.42015342894416"><ele>166.5</ele><time>2026-05-03T09:16:40.002Z</time></trkpt><trkpt lat="53.78819580813032" lon="30.42048498913324"><ele>165.0</ele><time>2026-05-03T09:16:41.002Z</time></trkpt><trkpt lat="53.78833449747878" lon="30.420818345816617"><ele>165.0</ele><time>2026-05-03T09:16:42.002Z</time></trkpt><trkpt lat="53.78847191257317" lon="30.421157872902423"><ele>165.0</ele><time>2026-05-03T09:16:43.002Z</time></trkpt><trkpt lat="53.788610921720554" lon="30.421508412443153"><ele>165.5</ele><time>2026-05-03T09:16:44.002Z</time></trkpt><trkpt lat="53.78874937849551" lon="30.421850308244082"><ele>166.0</ele><time>2026-05-03T09:16:45.002Z</time></trkpt><trkpt lat="53.78889239042665" lon="30.4221961430164"><ele>166.0</ele><time>2026-05-03T09:16:46.002Z</time></trkpt><trkpt lat="53.789030910841376" lon="30.422545208410135"><ele>166.0</ele><time>2026-05-03T09:16:47.002Z</time></trkpt><trkpt lat="53.789169478644936" lon="30.422898786691455"><ele>166.5</ele><time>2026-05-03T09:16:48.002Z</time></trkpt><trkpt lat="53.789315762566034" lon="30.423248657069077"><ele>167.0</ele><time>2026-05-03T09:16:49.002Z</time></trkpt><trkpt lat="53.789459742500995" lon="30.423594519555284"><ele>166.5</ele><time>2026-05-03T09:16:50.002Z</time></trkpt><trkpt lat="53.78960150626524" lon="30.423953056287036"><ele>166.0</ele><time>2026-05-03T09:16:51.002Z</time></trkpt><trkpt lat="53.78974837359103" lon="30.42431038153889"><ele>165.5</ele><time>2026-05-03T09:16:52.002Z</time></trkpt><trkpt lat="53.789893849483775" lon="30.42466963172285"><ele>165.0</ele><time>2026-05-03T09:16:53.002Z</time></trkpt><trkpt lat="53.79003679301077" lon="30.42503080557348"><ele>165.0</ele><time>2026-05-03T09:16:54.002Z</time></trkpt><trkpt lat="53.79017545566667" lon="30.425387461141824"><ele>165.0</ele><time>2026-05-03T09:16:55.002Z</time></trkpt><trkpt lat="53.790317075752725" lon="30.42574924954884"><ele>165.0</ele><time>2026-05-03T09:16:56.002Z</time></trkpt><trkpt lat="53.79046147891512" lon="30.426107529587522"><ele>165.0</ele><time>2026-05-03T09:16:57.002Z</time></trkpt><trkpt lat="53.790606468854115" lon="30.426462158248704"><ele>165.0</ele><time>2026-05-03T09:16:58.002Z</time></trkpt><trkpt lat="53.79074976403742" lon="30.426811906287107"><ele>165.0</ele><time>2026-05-03T09:16:59.002Z</time></trkpt><trkpt lat="53.79089797318687" lon="30.427159581731292"><ele>165.0</ele><time>2026-05-03T09:17:00.002Z</time></trkpt><trkpt lat="53.79104350362332" lon="30.42751699200078"><ele>165.0</ele><time>2026-05-03T09:17:01.002Z</time></trkpt><trkpt lat="53.79119397024602" lon="30.427877632638996"><ele>164.0</ele><time>2026-05-03T09:17:02.002Z</time></trkpt><trkpt lat="53.79134773740689" lon="30.428225400158322"><ele>163.0</ele><time>2026-05-03T09:17:03.001Z</time></trkpt><trkpt lat="53.7915060660122" lon="30.428577601934762"><ele>162.5</ele><time>2026-05-03T09:17:04.001Z</time></trkpt><trkpt lat="53.79167334703895" lon="30.42893416607934"><ele>162.0</ele><time>2026-05-03T09:17:05.001Z</time></trkpt><trkpt lat="53.79184208599705" lon="30.42928964356271"><ele>161.0</ele><time>2026-05-03T09:17:06.001Z</time></trkpt><trkpt lat="53.79200898919958" lon="30.429651561677126"><ele>160.0</ele><time>2026-05-03T09:17:07.001Z</time></trkpt><trkpt lat="53.79218204161327" lon="30.430013243266682"><ele>160.0</ele><time>2026-05-03T09:17:08.001Z</time></trkpt><trkpt lat="53.79235079427041" lon="30.430373398613373"><ele>160.0</ele><time>2026-05-03T09:17:09.001Z</time></trkpt><trkpt lat="53.79252560460746" lon="30.43073399882052"><ele>160.5</ele><time>2026-05-03T09:17:10.001Z</time></trkpt><trkpt lat="53.79270509287506" lon="30.431096755177602"><ele>161.0</ele><time>2026-05-03T09:17:11.001Z</time></trkpt><trkpt lat="53.79288658424245" lon="30.43146513527875"><ele>162.0</ele><time>2026-05-03T09:17:12.001Z</time></trkpt><trkpt lat="53.793066627102476" lon="30.431814873773927"><ele>163.0</ele><time>2026-05-03T09:17:13.001Z</time></trkpt><trkpt lat="53.79325322489573" lon="30.432170497183648"><ele>163.0</ele><time>2026-05-03T09:17:14.001Z</time></trkpt><trkpt lat="53.793436460961956" lon="30.43252951600032"><ele>163.0</ele><time>2026-05-03T09:17:15.001Z</time></trkpt><trkpt lat="53.793619452264295" lon="30.432897214006974"><ele>163.5</ele><time>2026-05-03T09:17:16.001Z</time></trkpt><trkpt lat="53.79380361365477" lon="30.43325999891574"><ele>164.0</ele><time>2026-05-03T09:17:17.001Z</time></trkpt><trkpt lat="53.79398723479724" lon="30.43362345766848"><ele>164.5</ele><time>2026-05-03T09:17:18.001Z</time></trkpt><trkpt lat="53.79417786587599" lon="30.433983572028055"><ele>165.0</ele><time>2026-05-03T09:17:19.001Z</time></trkpt><trkpt lat="53.79437002040318" lon="30.43434092491001"><ele>165.5</ele><time>2026-05-03T09:17:20.001Z</time></trkpt><trkpt lat="53.79456426394435" lon="30.434697152392037"><ele>166.0</ele><time>2026-05-03T09:17:21.001Z</time></trkpt><trkpt lat="53.794767657210734" lon="30.435041670448435"><ele>166.0</ele><time>2026-05-03T09:17:22.001Z</time></trkpt><trkpt lat="53.794970352242245" lon="30.435391797415225"><ele>166.0</ele><time>2026-05-03T09:17:23.001Z</time></trkpt><trkpt lat="53.79517755123419" lon="30.435735124812386"><ele>165.5</ele><time>2026-05-03T09:17:24.001Z</time></trkpt><trkpt lat="53.795382476282875" lon="30.436085533370267"><ele>165.0</ele><time>2026-05-03T09:17:25.001Z</time></trkpt><trkpt lat="53.79558298952912" lon="30.43643471302581"><ele>165.0</ele><time>2026-05-03T09:17:26.001Z</time></trkpt><trkpt lat="53.79578082179376" lon="30.43678134170701"><ele>165.0</ele><time>2026-05-03T09:17:27.001Z</time></trkpt><trkpt lat="53.79599291642587" lon="30.43711677890146"><ele>164.5</ele><time>2026-05-03T09:17:28.001Z</time></trkpt><trkpt lat="53.79619428505704" lon="30.437459343404946"><ele>164.0</ele><time>2026-05-03T09:17:29.001Z</time></trkpt><trkpt lat="53.796402655900714" lon="30.437786578845955"><ele>164.5</ele><time>2026-05-03T09:17:30.001Z</time></trkpt><trkpt lat="53.79660743733148" lon="30.43812416745784"><ele>165.0</ele><time>2026-05-03T09:17:31.001Z</time></trkpt><trkpt lat="53.7968163410752" lon="30.438452790090864"><ele>165.0</ele><time>2026-05-03T09:17:32.001Z</time></trkpt><trkpt lat="53.79702503232021" lon="30.438774144594188"><ele>165.0</ele><time>2026-05-03T09:17:33.001Z</time></trkpt><trkpt lat="53.797234991945906" lon="30.439097810386695"><ele>165.5</ele><time>2026-05-03T09:17:34.001Z</time></trkpt><trkpt lat="53.79744305024959" lon="30.439420237122413"><ele>166.0</ele><time>2026-05-03T09:17:35.001Z</time></trkpt><trkpt lat="53.79765456068388" lon="30.439736910316736"><ele>165.0</ele><time>2026-05-03T09:17:36.001Z</time></trkpt><trkpt lat="53.7978679636635" lon="30.44005127104129"><ele>164.0</ele><time>2026-05-03T09:17:37.001Z</time></trkpt><trkpt lat="53.798082532225415" lon="30.440361178273815"><ele>164.5</ele><time>2026-05-03T09:17:38.001Z</time></trkpt><trkpt lat="53.79829338385813" lon="30.440677107874837"><ele>165.0</ele><time>2026-05-03T09:17:39.001Z</time></trkpt><trkpt lat="53.79850933071126" lon="30.440989092317267"><ele>165.5</ele><time>2026-05-03T09:17:40.001Z</time></trkpt><trkpt lat="53.79872505219419" lon="30.44129979616249"><ele>166.0</ele><time>2026-05-03T09:17:41.001Z</time></trkpt><trkpt lat="53.798948056758235" lon="30.441585341620982"><ele>166.0</ele><time>2026-05-03T09:17:42.001Z</time></trkpt><trkpt lat="53.799164068660424" lon="30.44189504140252"><ele>166.0</ele><time>2026-05-03T09:17:43.001Z</time></trkpt><trkpt lat="53.799382110196966" lon="30.442173731834195"><ele>165.5</ele><time>2026-05-03T09:17:44.001Z</time></trkpt><trkpt lat="53.79961146889757" lon="30.442476131667036"><ele>165.0</ele><time>2026-05-03T09:17:45.001Z</time></trkpt><trkpt lat="53.79983594583536" lon="30.442765923100236"><ele>164.5</ele><time>2026-05-03T09:17:46.001Z</time></trkpt><trkpt lat="53.80004508842877" lon="30.443027418565958"><ele>164.0</ele><time>2026-05-03T09:17:47.001Z</time></trkpt><trkpt lat="53.8002430436192" lon="30.443301897850837"><ele>164.0</ele><time>2026-05-03T09:17:48.001Z</time></trkpt><trkpt lat="53.80044541015008" lon="30.443560974351"><ele>164.0</ele><time>2026-05-03T09:17:49.001Z</time></trkpt><trkpt lat="53.80064467741705" lon="30.44382971073443"><ele>163.5</ele><time>2026-05-03T09:17:50.001Z</time></trkpt><trkpt lat="53.80083039668537" lon="30.4440938903628"><ele>163.0</ele><time>2026-05-03T09:17:51.001Z</time></trkpt><trkpt lat="53.80101408891889" lon="30.444340900493895"><ele>164.5</ele><time>2026-05-03T09:17:52.001Z</time></trkpt><trkpt lat="53.801198006796966" lon="30.44456497474646"><ele>166.0</ele><time>2026-05-03T09:17:53.001Z</time></trkpt><trkpt lat="53.801394639880634" lon="30.4447906235454"><ele>167.0</ele><time>2026-05-03T09:17:54.001Z</time></trkpt><trkpt lat="53.801582364095154" lon="30.44501465219794"><ele>168.0</ele><time>2026-05-03T09:17:55.001Z</time></trkpt><trkpt lat="53.801775561244895" lon="30.445240745106098"><ele>170.0</ele><time>2026-05-03T09:17:56.001Z</time></trkpt><trkpt lat="53.80196642414161" lon="30.44546237335995"><ele>172.0</ele><time>2026-05-03T09:17:57.001Z</time></trkpt><trkpt lat="53.80215670054433" lon="30.44568520033192"><ele>172.0</ele><time>2026-05-03T09:17:58.001Z</time></trkpt><trkpt lat="53.80234728760027" lon="30.445915367828707"><ele>172.0</ele><time>2026-05-03T09:17:59.001Z</time></trkpt><trkpt lat="53.80253805441832" lon="30.446143704581573"><ele>173.5</ele><time>2026-05-03T09:18:00.001Z</time></trkpt><trkpt lat="53.80273158000935" lon="30.446376739307986"><ele>175.0</ele><time>2026-05-03T09:18:01.001Z</time></trkpt><trkpt lat="53.802925535354326" lon="30.446610553743692"><ele>175.0</ele><time>2026-05-03T09:18:02.001Z</time></trkpt><trkpt lat="53.803115911086266" lon="30.44683049625844"><ele>175.0</ele><time>2026-05-03T09:18:03.001Z</time></trkpt><trkpt lat="53.80331696243744" lon="30.44705288369827"><ele>174.5</ele><time>2026-05-03T09:18:04.001Z</time></trkpt><trkpt lat="53.803507642116365" lon="30.447273046799832"><ele>174.0</ele><time>2026-05-03T09:18:05.001Z</time></trkpt><trkpt lat="53.80369594814567" lon="30.447496066727915"><ele>174.0</ele><time>2026-05-03T09:18:06.001Z</time></trkpt><trkpt lat="53.80389239989799" lon="30.44772047947054"><ele>174.0</ele><time>2026-05-03T09:18:07.001Z</time></trkpt><trkpt lat="53.804083586175864" lon="30.44794577160124"><ele>173.5</ele><time>2026-05-03T09:18:08.001Z</time></trkpt><trkpt lat="53.804273469472314" lon="30.4481684716969"><ele>173.0</ele><time>2026-05-03T09:18:09.001Z</time></trkpt><trkpt lat="53.80447228644813" lon="30.44839827064529"><ele>171.5</ele><time>2026-05-03T09:18:10.001Z</time></trkpt><trkpt lat="53.8046623207607" lon="30.448628261180957"><ele>170.0</ele><time>2026-05-03T09:18:11.001Z</time></trkpt><trkpt lat="53.80485511344814" lon="30.448855056515132"><ele>168.5</ele><time>2026-05-03T09:18:12.001Z</time></trkpt><trkpt lat="53.80505699115486" lon="30.449084000995818"><ele>167.0</ele><time>2026-05-03T09:18:13.001Z</time></trkpt><trkpt lat="53.805256323809495" lon="30.449313674830233"><ele>166.0</ele><time>2026-05-03T09:18:14.001Z</time></trkpt><trkpt lat="53.80544849117917" lon="30.449543946651836"><ele>165.0</ele><time>2026-05-03T09:18:15.001Z</time></trkpt><trkpt lat="53.80564634029494" lon="30.449777081842324"><ele>165.0</ele><time>2026-05-03T09:18:16.001Z</time></trkpt><trkpt lat="53.80584805562496" lon="30.45000817198511"><ele>165.0</ele><time>2026-05-03T09:18:17.001Z</time></trkpt><trkpt lat="53.80605147761914" lon="30.45024686604064"><ele>165.5</ele><time>2026-05-03T09:18:18.001Z</time></trkpt><trkpt lat="53.80625466821833" lon="30.450488039957165"><ele>166.0</ele><time>2026-05-03T09:18:19.001Z</time></trkpt><trkpt lat="53.80645907523428" lon="30.450732169477945"><ele>166.0</ele><time>2026-05-03T09:18:20.001Z</time></trkpt><trkpt lat="53.806670351166396" lon="30.450976202654466"><ele>166.0</ele><time>2026-05-03T09:18:21.001Z</time></trkpt><trkpt lat="53.806879572071914" lon="30.451214355123167"><ele>165.5</ele><time>2026-05-03T09:18:22.001Z</time></trkpt><trkpt lat="53.80708630102768" lon="30.451451442993427"><ele>165.0</ele><time>2026-05-03T09:18:23.001Z</time></trkpt><trkpt lat="53.80728927731494" lon="30.45168345638329"><ele>165.0</ele><time>2026-05-03T09:18:24.001Z</time></trkpt><trkpt lat="53.807465796157736" lon="30.451901296684042"><ele>165.0</ele><time>2026-05-03T09:18:25.001Z</time></trkpt><trkpt lat="53.80765983314463" lon="30.452121676099456"><ele>166.0</ele><time>2026-05-03T09:18:26.001Z</time></trkpt><trkpt lat="53.80785916785911" lon="30.45234989092382"><ele>167.0</ele><time>2026-05-03T09:18:27Z</time></trkpt><trkpt lat="53.808050797778876" lon="30.45257473411669"><ele>167.0</ele><time>2026-05-03T09:18:28Z</time></trkpt><trkpt lat="53.80824446966987" lon="30.452796568339252"><ele>167.0</ele><time>2026-05-03T09:18:29Z</time></trkpt><trkpt lat="53.808438758888144" lon="30.45301713262938"><ele>167.5</ele><time>2026-05-03T09:18:30Z</time></trkpt><trkpt lat="53.80863255121054" lon="30.45324073757397"><ele>168.0</ele><time>2026-05-03T09:18:31Z</time></trkpt><trkpt lat="53.80882647326068" lon="30.453456708906636"><ele>168.0</ele><time>2026-05-03T09:18:32Z</time></trkpt><trkpt lat="53.809018761712544" lon="30.45368293870475"><ele>168.0</ele><time>2026-05-03T09:18:33Z</time></trkpt><trkpt lat="53.809211426216635" lon="30.453908921931752"><ele>169.5</ele><time>2026-05-03T09:18:34Z</time></trkpt><trkpt lat="53.80939994245657" lon="30.454134049199734"><ele>171.0</ele><time>2026-05-03T09:18:35Z</time></trkpt><trkpt lat="53.80959336692863" lon="30.45435831382951"><ele>171.0</ele><time>2026-05-03T09:18:36Z</time></trkpt><trkpt lat="53.809785571169975" lon="30.45457919803794"><ele>171.0</ele><time>2026-05-03T09:18:37Z</time></trkpt><trkpt lat="53.80997621221086" lon="30.45479788689303"><ele>172.5</ele><time>2026-05-03T09:18:38Z</time></trkpt><trkpt lat="53.81016438017535" lon="30.455026389465864"><ele>174.0</ele><time>2026-05-03T09:18:39Z</time></trkpt><trkpt lat="53.8103531518127" lon="30.455247679409435"><ele>174.5</ele><time>2026-05-03T09:18:40Z</time></trkpt><trkpt lat="53.81054839537146" lon="30.455477151078096"><ele>175.0</ele><time>2026-05-03T09:18:41Z</time></trkpt><trkpt lat="53.810746706096126" lon="30.455701345045586"><ele>175.0</ele><time>2026-05-03T09:18:42Z</time></trkpt><trkpt lat="53.810941509979315" lon="30.45592322185264"><ele>175.0</ele><time>2026-05-03T09:18:43Z</time></trkpt><trkpt lat="53.811138532662994" lon="30.456149121334246"><ele>175.0</ele><time>2026-05-03T09:18:44Z</time></trkpt><trkpt lat="53.81134175817847" lon="30.456380657627"><ele>175.0</ele><time>2026-05-03T09:18:45.002Z</time></trkpt><trkpt lat="53.81154464695224" lon="30.45661323052503"><ele>175.0</ele><time>2026-05-03T09:18:46.002Z</time></trkpt><trkpt lat="53.81174517273308" lon="30.456851587260076"><ele>175.0</ele><time>2026-05-03T09:18:47.002Z</time></trkpt><trkpt lat="53.811928421452855" lon="30.457075319692244"><ele>174.33333333333334</ele><time>2026-05-03T09:18:48.002Z</time></trkpt><trkpt lat="53.81209697736779" lon="30.457268103542596"><ele>173.66666666666666</ele><time>2026-05-03T09:18:49.002Z</time></trkpt><trkpt lat="53.81227586915812" lon="30.45747022113587"><ele>173.0</ele><time>2026-05-03T09:18:50.002Z</time></trkpt><trkpt lat="53.812454973713535" lon="30.457670628223916"><ele>173.0</ele><time>2026-05-03T09:18:51.002Z</time></trkpt><trkpt lat="53.81262916569832" lon="30.457872427103204"><ele>173.0</ele><time>2026-05-03T09:18:52.002Z</time></trkpt><trkpt lat="53.81279996451156" lon="30.458075494078646"><ele>173.0</ele><time>2026-05-03T09:18:53.002Z</time></trkpt><trkpt lat="53.81297658402336" lon="30.458284338504264"><ele>173.66666666666666</ele><time>2026-05-03T09:18:54.002Z</time></trkpt><trkpt lat="53.813159119217886" lon="30.45849840951692"><ele>174.33333333333334</ele><time>2026-05-03T09:18:55.002Z</time></trkpt><trkpt lat="53.813346924945115" lon="30.45871405777425"><ele>175.0</ele><time>2026-05-03T09:18:56.002Z</time></trkpt><trkpt lat="53.81354890401697" lon="30.45893621537234"><ele>175.0</ele><time>2026-05-03T09:18:57.002Z</time></trkpt><trkpt lat="53.81374238430058" lon="30.45915916543731"><ele>175.0</ele><time>2026-05-03T09:18:58.002Z</time></trkpt><trkpt lat="53.813939403157214" lon="30.459390300619223"><ele>174.5</ele><time>2026-05-03T09:18:59.002Z</time></trkpt><trkpt lat="53.814135717411624" lon="30.459624516196342"><ele>174.0</ele><time>2026-05-03T09:19:00.002Z</time></trkpt><trkpt lat="53.81434166042532" lon="30.459859907060537"><ele>173.0</ele><time>2026-05-03T09:19:01.002Z</time></trkpt><trkpt lat="53.8145435830768" lon="30.460093646776883"><ele>172.0</ele><time>2026-05-03T09:19:02.002Z</time></trkpt><trkpt lat="53.814749615035765" lon="30.460326868413727"><ele>171.5</ele><time>2026-05-03T09:19:03.002Z</time></trkpt><trkpt lat="53.814951955056195" lon="30.46055945919597"><ele>171.0</ele><time>2026-05-03T09:19:04.001Z</time></trkpt><trkpt lat="53.815152870016874" lon="30.460796883536194"><ele>170.5</ele><time>2026-05-03T09:19:05.001Z</time></trkpt><trkpt lat="53.81535624183644" lon="30.461035528569028"><ele>170.0</ele><time>2026-05-03T09:19:06.001Z</time></trkpt><trkpt lat="53.81556079058551" lon="30.46127563965502"><ele>169.66666666666666</ele><time>2026-05-03T09:19:07.001Z</time></trkpt><trkpt lat="53.815732998245515" lon="30.46151311968167"><ele>169.33333333333334</ele><time>2026-05-03T09:19:08.001Z</time></trkpt><trkpt lat="53.815912002735054" lon="30.461724020997984"><ele>169.0</ele><time>2026-05-03T09:19:09.001Z</time></trkpt><trkpt lat="53.81608266920368" lon="30.461923029774972"><ele>169.33333333333334</ele><time>2026-05-03T09:19:10.001Z</time></trkpt><trkpt lat="53.81625828125134" lon="30.462127805433752"><ele>169.66666666666666</ele><time>2026-05-03T09:19:11.001Z</time></trkpt><trkpt lat="53.816454152349465" lon="30.46231183701372"><ele>170.0</ele><time>2026-05-03T09:19:12.001Z</time></trkpt><trkpt lat="53.81663995542855" lon="30.46252792435426"><ele>169.66666666666666</ele><time>2026-05-03T09:19:13.001Z</time></trkpt><trkpt lat="53.81682198382434" lon="30.462736795068754"><ele>169.33333333333334</ele><time>2026-05-03T09:19:14.001Z</time></trkpt><trkpt lat="53.81700813333688" lon="30.462952120528623"><ele>169.0</ele><time>2026-05-03T09:19:15.001Z</time></trkpt><trkpt lat="53.81719447602733" lon="30.463174597657947"><ele>169.0</ele><time>2026-05-03T09:19:16.001Z</time></trkpt><trkpt lat="53.81738020739098" lon="30.46339409772516"><ele>169.0</ele><time>2026-05-03T09:19:17.001Z</time></trkpt><trkpt lat="53.81756799467684" lon="30.463605699478833"><ele>170.0</ele><time>2026-05-03T09:19:18.001Z</time></trkpt><trkpt lat="53.817762222834226" lon="30.463822387350213"><ele>171.0</ele><time>2026-05-03T09:19:19.001Z</time></trkpt><trkpt lat="53.817947909987986" lon="30.464039909369976"><ele>171.0</ele><time>2026-05-03T09:19:20.001Z</time></trkpt><trkpt lat="53.81813745230145" lon="30.46425990818289"><ele>171.0</ele><time>2026-05-03T09:19:21.001Z</time></trkpt><trkpt lat="53.818324745455904" lon="30.46447916509962"><ele>171.0</ele><time>2026-05-03T09:19:22.001Z</time></trkpt><trkpt lat="53.81851403260311" lon="30.464701131605967"><ele>171.0</ele><time>2026-05-03T09:19:23.001Z</time></trkpt><trkpt lat="53.81871209388037" lon="30.464925722939814"><ele>171.0</ele><time>2026-05-03T09:19:24.001Z</time></trkpt><trkpt lat="53.81890876683408" lon="30.46515074713594"><ele>171.0</ele><time>2026-05-03T09:19:25.001Z</time></trkpt><trkpt lat="53.81910252118316" lon="30.46537975452864"><ele>171.5</ele><time>2026-05-03T09:19:26.001Z</time></trkpt><trkpt lat="53.81930006915129" lon="30.465610887836448"><ele>172.0</ele><time>2026-05-03T09:19:27.001Z</time></trkpt><trkpt lat="53.81950226636791" lon="30.46584066380567"><ele>171.5</ele><time>2026-05-03T09:19:28.001Z</time></trkpt><trkpt lat="53.819705032497275" lon="30.466069067871107"><ele>171.0</ele><time>2026-05-03T09:19:29.001Z</time></trkpt><trkpt lat="53.8199062836225" lon="30.466307192756663"><ele>171.0</ele><time>2026-05-03T09:19:30.001Z</time></trkpt><trkpt lat="53.82010676094624" lon="30.466547909942808"><ele>171.0</ele><time>2026-05-03T09:19:31.001Z</time></trkpt><trkpt lat="53.820308602971814" lon="30.466785505507893"><ele>170.5</ele><time>2026-05-03T09:19:32.001Z</time></trkpt><trkpt lat="53.82051048729835" lon="30.467031187427445"><ele>170.0</ele><time>2026-05-03T09:19:33.001Z</time></trkpt><trkpt lat="53.820719357460696" lon="30.467260932405487"><ele>170.0</ele><time>2026-05-03T09:19:34.001Z</time></trkpt><trkpt lat="53.82092414062282" lon="30.467500482581315"><ele>170.0</ele><time>2026-05-03T09:19:35.001Z</time></trkpt><trkpt lat="53.82113210152432" lon="30.46773477043382"><ele>169.5</ele><time>2026-05-03T09:19:36.001Z</time></trkpt><trkpt lat="53.82133816365646" lon="30.467977429103787"><ele>169.0</ele><time>2026-05-03T09:19:37.001Z</time></trkpt><trkpt lat="53.82154574115631" lon="30.468218813826443"><ele>169.0</ele><time>2026-05-03T09:19:38.001Z</time></trkpt><trkpt lat="53.8217528119002" lon="30.46846115170946"><ele>169.0</ele><time>2026-05-03T09:19:39.001Z</time></trkpt><trkpt lat="53.821961868152" lon="30.4687044882057"><ele>170.5</ele><time>2026-05-03T09:19:40.001Z</time></trkpt><trkpt lat="53.8221569251814" lon="30.468940590085143"><ele>172.0</ele><time>2026-05-03T09:19:41.001Z</time></trkpt><trkpt lat="53.82233741894408" lon="30.46915504724607"><ele>172.0</ele><time>2026-05-03T09:19:42.001Z</time></trkpt><trkpt lat="53.82251360860146" lon="30.469354269074167"><ele>172.0</ele><time>2026-05-03T09:19:43.001Z</time></trkpt><trkpt lat="53.82269701297325" lon="30.469565601029707"><ele>172.0</ele><time>2026-05-03T09:19:44.001Z</time></trkpt><trkpt lat="53.82288070576107" lon="30.46978225111996"><ele>172.0</ele><time>2026-05-03T09:19:45.001Z</time></trkpt><trkpt lat="53.82306496661974" lon="30.469996843535004"><ele>172.0</ele><time>2026-05-03T09:19:46.001Z</time></trkpt><trkpt lat="53.82324918400958" lon="30.47021249479423"><ele>172.0</ele><time>2026-05-03T09:19:47.001Z</time></trkpt><trkpt lat="53.823432718808014" lon="30.470428003405797"><ele>172.5</ele><time>2026-05-03T09:19:48.001Z</time></trkpt><trkpt lat="53.82361842642803" lon="30.47064218831796"><ele>173.0</ele><time>2026-05-03T09:19:49.001Z</time></trkpt><trkpt lat="53.82380550069436" lon="30.47086020393229"><ele>173.0</ele><time>2026-05-03T09:19:50.001Z</time></trkpt><trkpt lat="53.82399306302774" lon="30.47107677906551"><ele>173.0</ele><time>2026-05-03T09:19:51.001Z</time></trkpt><trkpt lat="53.824179336418304" lon="30.47130007834115"><ele>173.0</ele><time>2026-05-03T09:19:52.001Z</time></trkpt><trkpt lat="53.82436843750294" lon="30.471530895686158"><ele>173.0</ele><time>2026-05-03T09:19:53.001Z</time></trkpt><trkpt lat="53.82456532165366" lon="30.47174739339588"><ele>173.0</ele><time>2026-05-03T09:19:54.001Z</time></trkpt><trkpt lat="53.824752964128486" lon="30.471985200293776"><ele>173.0</ele><time>2026-05-03T09:19:55.001Z</time></trkpt><trkpt lat="53.82494924077975" lon="30.472199337443143"><ele>173.5</ele><time>2026-05-03T09:19:56.001Z</time></trkpt><trkpt lat="53.82514058981995" lon="30.472422017338307"><ele>174.0</ele><time>2026-05-03T09:19:57.001Z</time></trkpt><trkpt lat="53.8253322258988" lon="30.47265030417319"><ele>174.0</ele><time>2026-05-03T09:19:58.001Z</time></trkpt><trkpt lat="53.82552248775687" lon="30.472865437972988"><ele>174.0</ele><time>2026-05-03T09:19:59.001Z</time></trkpt><trkpt lat="53.82571697582581" lon="30.47308207481872"><ele>174.0</ele><time>2026-05-03T09:20:00.001Z</time></trkpt><trkpt lat="53.825913027736654" lon="30.473308578386465"><ele>174.0</ele><time>2026-05-03T09:20:01.001Z</time></trkpt><trkpt lat="53.82611093216453" lon="30.47353138345101"><ele>174.0</ele><time>2026-05-03T09:20:02.001Z</time></trkpt><trkpt lat="53.82631116432047" lon="30.473754533353624"><ele>174.0</ele><time>2026-05-03T09:20:03Z</time></trkpt><trkpt lat="53.826520614070795" lon="30.473961756879117"><ele>174.5</ele><time>2026-05-03T09:20:04Z</time></trkpt><trkpt lat="53.826732231551816" lon="30.474166932490427"><ele>175.0</ele><time>2026-05-03T09:20:05Z</time></trkpt><trkpt lat="53.82694543288972" lon="30.47436918554878"><ele>175.5</ele><time>2026-05-03T09:20:06Z</time></trkpt><trkpt lat="53.82716539988476" lon="30.474572514517504"><ele>176.0</ele><time>2026-05-03T09:20:07Z</time></trkpt><trkpt lat="53.82738453806528" lon="30.47477104128574"><ele>176.0</ele><time>2026-05-03T09:20:08Z</time></trkpt><trkpt lat="53.82760581519055" lon="30.474973127977158"><ele>176.0</ele><time>2026-05-03T09:20:09Z</time></trkpt><trkpt lat="53.82781840297761" lon="30.47517742143242"><ele>176.0</ele><time>2026-05-03T09:20:10Z</time></trkpt><trkpt lat="53.82803954637524" lon="30.475391530346744"><ele>176.0</ele><time>2026-05-03T09:20:11Z</time></trkpt><trkpt lat="53.82825944483242" lon="30.47558093435081"><ele>175.0</ele><time>2026-05-03T09:20:12Z</time></trkpt><trkpt lat="53.82847648698671" lon="30.475755612789776"><ele>174.0</ele><time>2026-05-03T09:20:13Z</time></trkpt><trkpt lat="53.828698346848704" lon="30.47593664209186"><ele>174.0</ele><time>2026-05-03T09:20:14Z</time></trkpt><trkpt lat="53.82892106238526" lon="30.476104830203276"><ele>174.0</ele><time>2026-05-03T09:20:15Z</time></trkpt><trkpt lat="53.82913920853504" lon="30.476275771327476"><ele>174.5</ele><time>2026-05-03T09:20:16Z</time></trkpt><trkpt lat="53.829356705030456" lon="30.476456469391017"><ele>175.0</ele><time>2026-05-03T09:20:17Z</time></trkpt><trkpt lat="53.82957418888206" lon="30.476631045027823"><ele>175.0</ele><time>2026-05-03T09:20:18Z</time></trkpt><trkpt lat="53.829791013652326" lon="30.476788785888473"><ele>175.0</ele><time>2026-05-03T09:20:19Z</time></trkpt><trkpt lat="53.83000784017639" lon="30.476949319331695"><ele>175.0</ele><time>2026-05-03T09:20:20Z</time></trkpt><trkpt lat="53.83023831612322" lon="30.477102338447928"><ele>175.0</ele><time>2026-05-03T09:20:21Z</time></trkpt><trkpt lat="53.83046239276018" lon="30.477248286073277"><ele>175.0</ele><time>2026-05-03T09:20:22Z</time></trkpt><trkpt lat="53.830686501472826" lon="30.47738649348549"><ele>175.0</ele><time>2026-05-03T09:20:23Z</time></trkpt><trkpt lat="53.83091700441819" lon="30.477501525877226"><ele>175.0</ele><time>2026-05-03T09:20:24Z</time></trkpt><trkpt lat="53.83115038192327" lon="30.477626560663886"><ele>175.0</ele><time>2026-05-03T09:20:25Z</time></trkpt><trkpt lat="53.83137978695298" lon="30.47773033319894"><ele>175.0</ele><time>2026-05-03T09:20:26Z</time></trkpt><trkpt lat="53.831613393158094" lon="30.477853171722945"><ele>175.0</ele><time>2026-05-03T09:20:27Z</time></trkpt><trkpt lat="53.831847446952594" lon="30.477957178571334"><ele>175.5</ele><time>2026-05-03T09:20:28Z</time></trkpt><trkpt lat="53.83208404386537" lon="30.47806307607268"><ele>176.0</ele><time>2026-05-03T09:20:29Z</time></trkpt><trkpt lat="53.83232030999443" lon="30.478164333995387"><ele>176.0</ele><time>2026-05-03T09:20:30Z</time></trkpt><trkpt lat="53.83255875119128" lon="30.478273893871883"><ele>176.0</ele><time>2026-05-03T09:20:31Z</time></trkpt><trkpt lat="53.83278922685086" lon="30.478381677088645"><ele>174.5</ele><time>2026-05-03T09:20:32Z</time></trkpt><trkpt lat="53.83302932580023" lon="30.47848728687601"><ele>173.0</ele><time>2026-05-03T09:20:33Z</time></trkpt><trkpt lat="53.83326483767848" lon="30.478592581229307"><ele>172.5</ele><time>2026-05-03T09:20:34Z</time></trkpt><trkpt lat="53.83350116326632" lon="30.47869178606537"><ele>172.0</ele><time>2026-05-03T09:20:35Z</time></trkpt><trkpt lat="53.833739487471405" lon="30.478787802538847"><ele>171.5</ele><time>2026-05-03T09:20:36Z</time></trkpt><trkpt lat="53.833974482946" lon="30.478883950568196"><ele>171.0</ele><time>2026-05-03T09:20:37Z</time></trkpt><trkpt lat="53.83420993371015" lon="30.478979625587684"><ele>170.5</ele><time>2026-05-03T09:20:38Z</time></trkpt><trkpt lat="53.834445049499195" lon="30.479075172747045"><ele>170.0</ele><time>2026-05-03T09:20:39Z</time></trkpt><trkpt lat="53.83468710468002" lon="30.479164107670027"><ele>170.0</ele><time>2026-05-03T09:20:40Z</time></trkpt><trkpt lat="53.83492529245055" lon="30.47924429143468"><ele>170.0</ele><time>2026-05-03T09:20:41Z</time></trkpt><trkpt lat="53.83516634253795" lon="30.479323824879756"><ele>170.0</ele><time>2026-05-03T09:20:42Z</time></trkpt><trkpt lat="53.83541286512068" lon="30.4794054638494"><ele>170.0</ele><time>2026-05-03T09:20:43Z</time></trkpt><trkpt lat="53.83565848870172" lon="30.47947957195607"><ele>170.0</ele><time>2026-05-03T09:20:44Z</time></trkpt><trkpt lat="53.83590808999661" lon="30.47954475942549"><ele>170.0</ele><time>2026-05-03T09:20:45Z</time></trkpt><trkpt lat="53.83616040539116" lon="30.47961181913307"><ele>169.5</ele><time>2026-05-03T09:20:46Z</time></trkpt><trkpt lat="53.836412996217" lon="30.479678288806838"><ele>169.0</ele><time>2026-05-03T09:20:47Z</time></trkpt><trkpt lat="53.83666679129795" lon="30.479743349070866"><ele>169.0</ele><time>2026-05-03T09:20:48Z</time></trkpt><trkpt lat="53.836921314897786" lon="30.47980571676669"><ele>169.0</ele><time>2026-05-03T09:20:49Z</time></trkpt><trkpt lat="53.83717914351124" lon="30.479858254327485"><ele>169.0</ele><time>2026-05-03T09:20:50Z</time></trkpt><trkpt lat="53.83743679732441" lon="30.47991193214086"><ele>169.0</ele><time>2026-05-03T09:20:51.001Z</time></trkpt><trkpt lat="53.83769353612155" lon="30.479955708058768"><ele>169.5</ele><time>2026-05-03T09:20:52.002Z</time></trkpt><trkpt lat="53.83795224847061" lon="30.47999681382393"><ele>170.0</ele><time>2026-05-03T09:20:53.001Z</time></trkpt><trkpt lat="53.838213107965515" lon="30.480040092869594"><ele>170.0</ele><time>2026-05-03T09:20:54.001Z</time></trkpt><trkpt lat="53.83847079574459" lon="30.48007534288449"><ele>170.0</ele><time>2026-05-03T09:20:55.001Z</time></trkpt><trkpt lat="53.83872888515281" lon="30.480121939079126"><ele>170.0</ele><time>2026-05-03T09:20:56.001Z</time></trkpt><trkpt lat="53.83898757281967" lon="30.48013500104866"><ele>170.0</ele><time>2026-05-03T09:20:57.001Z</time></trkpt><trkpt lat="53.83924958558847" lon="30.48014996111214"><ele>169.5</ele><time>2026-05-03T09:20:58.001Z</time></trkpt><trkpt lat="53.83950685577407" lon="30.48015844248859"><ele>169.0</ele><time>2026-05-03T09:20:59.001Z</time></trkpt><trkpt lat="53.83976464654949" lon="30.480161942055425"><ele>169.0</ele><time>2026-05-03T09:21:00.001Z</time></trkpt><trkpt lat="53.84002426604767" lon="30.48018147474193"><ele>169.0</ele><time>2026-05-03T09:21:01.001Z</time></trkpt><trkpt lat="53.84028138266889" lon="30.480170281929446"><ele>168.0</ele><time>2026-05-03T09:21:02.001Z</time></trkpt><trkpt lat="53.840540142221265" lon="30.480162624089257"><ele>167.0</ele><time>2026-05-03T09:21:03.001Z</time></trkpt><trkpt lat="53.840802834379325" lon="30.48016998777758"><ele>167.66666666666666</ele><time>2026-05-03T09:21:04.001Z</time></trkpt><trkpt lat="53.841048956198996" lon="30.480167034945605"><ele>168.33333333333334</ele><time>2026-05-03T09:21:05.001Z</time></trkpt><trkpt lat="53.841251408580696" lon="30.480167577399843"><ele>169.0</ele><time>2026-05-03T09:21:06.001Z</time></trkpt><trkpt lat="53.84143846020283" lon="30.480175496781566"><ele>169.0</ele><time>2026-05-03T09:21:07.001Z</time></trkpt><trkpt lat="53.841653860145215" lon="30.48016201722652"><ele>169.0</ele><time>2026-05-03T09:21:08.001Z</time></trkpt><trkpt lat="53.84187026510272" lon="30.480140963512458"><ele>169.0</ele><time>2026-05-03T09:21:09.001Z</time></trkpt><trkpt lat="53.84209798549825" lon="30.480138789615992"><ele>169.5</ele><time>2026-05-03T09:21:10.001Z</time></trkpt><trkpt lat="53.84232385275478" lon="30.480146370654666"><ele>170.0</ele><time>2026-05-03T09:21:11.001Z</time></trkpt><trkpt lat="53.842554747840694" lon="30.48014800448312"><ele>171.0</ele><time>2026-05-03T09:21:12.001Z</time></trkpt><trkpt lat="53.84278881247525" lon="30.480145657566585"><ele>172.0</ele><time>2026-05-03T09:21:13.001Z</time></trkpt><trkpt lat="53.84302746091816" lon="30.48014210696395"><ele>172.0</ele><time>2026-05-03T09:21:14.001Z</time></trkpt><trkpt lat="53.84326018222088" lon="30.480134187776635"><ele>172.0</ele><time>2026-05-03T09:21:15.001Z</time></trkpt><trkpt lat="53.843496054114205" lon="30.480139154508862"><ele>172.5</ele><time>2026-05-03T09:21:16.001Z</time></trkpt><trkpt lat="53.84373599604183" lon="30.480128766451497"><ele>173.0</ele><time>2026-05-03T09:21:17.001Z</time></trkpt><trkpt lat="53.84397020004698" lon="30.480128748032307"><ele>173.0</ele><time>2026-05-03T09:21:18.001Z</time></trkpt><trkpt lat="53.84420083966428" lon="30.480129589893032"><ele>173.0</ele><time>2026-05-03T09:21:19.001Z</time></trkpt><trkpt lat="53.84442852530611" lon="30.48012794203278"><ele>172.5</ele><time>2026-05-03T09:21:20.001Z</time></trkpt><trkpt lat="53.844659608347044" lon="30.480127167122646"><ele>172.0</ele><time>2026-05-03T09:21:21.001Z</time></trkpt><trkpt lat="53.84489193109868" lon="30.480117590178057"><ele>172.0</ele><time>2026-05-03T09:21:22.001Z</time></trkpt><trkpt lat="53.84512550456912" lon="30.480100448720034"><ele>172.0</ele><time>2026-05-03T09:21:23.001Z</time></trkpt><trkpt lat="53.845362424031435" lon="30.480104539881197"><ele>172.0</ele><time>2026-05-03T09:21:24.001Z</time></trkpt><trkpt lat="53.84561245989521" lon="30.48011097465321"><ele>172.0</ele><time>2026-05-03T09:21:25.001Z</time></trkpt><trkpt lat="53.84585837279039" lon="30.480116618790305"><ele>172.0</ele><time>2026-05-03T09:21:26.001Z</time></trkpt><trkpt lat="53.846099188945544" lon="30.480113123253282"><ele>172.0</ele><time>2026-05-03T09:21:27.001Z</time></trkpt><trkpt lat="53.84633121345803" lon="30.480111617907337"><ele>172.0</ele><time>2026-05-03T09:21:28.001Z</time></trkpt><trkpt lat="53.846567147159135" lon="30.480106901422253"><ele>172.0</ele><time>2026-05-03T09:21:29.001Z</time></trkpt><trkpt lat="53.846812232775676" lon="30.48010166049142"><ele>171.5</ele><time>2026-05-03T09:21:30.001Z</time></trkpt><trkpt lat="53.84705649603703" lon="30.48009925987347"><ele>171.0</ele><time>2026-05-03T09:21:31.001Z</time></trkpt><trkpt lat="53.84729385432178" lon="30.480100836120368"><ele>171.0</ele><time>2026-05-03T09:21:32.001Z</time></trkpt><trkpt lat="53.847504294100595" lon="30.48009793921112"><ele>171.0</ele><time>2026-05-03T09:21:33.001Z</time></trkpt><trkpt lat="53.84772153835516" lon="30.48009657046132"><ele>171.0</ele><time>2026-05-03T09:21:34.001Z</time></trkpt><trkpt lat="53.847925776901164" lon="30.480096017438004"><ele>171.0</ele><time>2026-05-03T09:21:35.001Z</time></trkpt><trkpt lat="53.848139848590556" lon="30.48009826760072"><ele>171.0</ele><time>2026-05-03T09:21:36.001Z</time></trkpt><trkpt lat="53.84835056695251" lon="30.480100931727616"><ele>171.0</ele><time>2026-05-03T09:21:37.001Z</time></trkpt><trkpt lat="53.84856213301957" lon="30.480092828232532"><ele>170.33333333333334</ele><time>2026-05-03T09:21:38.001Z</time></trkpt><trkpt lat="53.84877044064795" lon="30.480089194718214"><ele>169.66666666666669</ele><time>2026-05-03T09:21:39.001Z</time></trkpt><trkpt lat="53.848984551156335" lon="30.480083060876947"><ele>169.0</ele><time>2026-05-03T09:21:40.001Z</time></trkpt><trkpt lat="53.84919342964168" lon="30.480071102615483"><ele>169.33333333333334</ele><time>2026-05-03T09:21:41.001Z</time></trkpt><trkpt lat="53.849415094636875" lon="30.480075190516445"><ele>169.66666666666666</ele><time>2026-05-03T09:21:42.001Z</time></trkpt><trkpt lat="53.849630088846766" lon="30.480078996267522"><ele>170.0</ele><time>2026-05-03T09:21:43.001Z</time></trkpt><trkpt lat="53.849835667611224" lon="30.48007923744478"><ele>170.0</ele><time>2026-05-03T09:21:44Z</time></trkpt><trkpt lat="53.850038025364626" lon="30.480077632278476"><ele>170.0</ele><time>2026-05-03T09:21:45Z</time></trkpt><trkpt lat="53.85024288653251" lon="30.48007458053564"><ele>170.0</ele><time>2026-05-03T09:21:46Z</time></trkpt><trkpt lat="53.85044787298208" lon="30.480075476399385"><ele>169.66666666666666</ele><time>2026-05-03T09:21:47Z</time></trkpt><trkpt lat="53.85065244508203" lon="30.480074047300675"><ele>169.33333333333334</ele><time>2026-05-03T09:21:48Z</time></trkpt><trkpt lat="53.85085961125589" lon="30.48007545521747"><ele>169.0</ele><time>2026-05-03T09:21:49Z</time></trkpt><trkpt lat="53.851067208479286" lon="30.48007157536334"><ele>168.66666666666669</ele><time>2026-05-03T09:21:50Z</time></trkpt><trkpt lat="53.851274200551345" lon="30.480063256159383"><ele>168.33333333333334</ele><time>2026-05-03T09:21:51Z</time></trkpt><trkpt lat="53.85149016119008" lon="30.480060042513237"><ele>168.0</ele><time>2026-05-03T09:21:52Z</time></trkpt><trkpt lat="53.851700652176774" lon="30.480061700854638"><ele>167.66666666666666</ele><time>2026-05-03T09:21:53Z</time></trkpt><trkpt lat="53.851913230242516" lon="30.48006007250862"><ele>167.33333333333331</ele><time>2026-05-03T09:21:54Z</time></trkpt><trkpt lat="53.85212449573992" lon="30.480057323763244"><ele>167.0</ele><time>2026-05-03T09:21:55Z</time></trkpt><trkpt lat="53.85233495171338" lon="30.480054452625012"><ele>167.0</ele><time>2026-05-03T09:21:56Z</time></trkpt><trkpt lat="53.85255167404951" lon="30.480049445436684"><ele>167.0</ele><time>2026-05-03T09:21:57Z</time></trkpt><trkpt lat="53.8527651746412" lon="30.48004105446866"><ele>167.0</ele><time>2026-05-03T09:21:58Z</time></trkpt><trkpt lat="53.852979806173735" lon="30.48003996973826"><ele>168.0</ele><time>2026-05-03T09:21:59Z</time></trkpt><trkpt lat="53.85319088256698" lon="30.480045441541414"><ele>169.0</ele><time>2026-05-03T09:22:00Z</time></trkpt><trkpt lat="53.85341182937994" lon="30.480037486902198"><ele>170.0</ele><time>2026-05-03T09:22:01Z</time></trkpt><trkpt lat="53.85362706340819" lon="30.48004028687563"><ele>170.0</ele><time>2026-05-03T09:22:02Z</time></trkpt><trkpt lat="53.85384608567461" lon="30.480045496436954"><ele>170.0</ele><time>2026-05-03T09:22:03Z</time></trkpt><trkpt lat="53.85407307777738" lon="30.480034580257904"><ele>170.0</ele><time>2026-05-03T09:22:04Z</time></trkpt><trkpt lat="53.85429538678852" lon="30.48003377928707"><ele>170.0</ele><time>2026-05-03T09:22:05Z</time></trkpt><trkpt lat="53.854521603298075" lon="30.48002869798101"><ele>170.0</ele><time>2026-05-03T09:22:06Z</time></trkpt><trkpt lat="53.85474508474258" lon="30.4800261326016"><ele>170.0</ele><time>2026-05-03T09:22:07Z</time></trkpt><trkpt lat="53.854965418845126" lon="30.480031998666533"><ele>170.0</ele><time>2026-05-03T09:22:08Z</time></trkpt><trkpt lat="53.855191539678096" lon="30.4800284836694"><ele>170.0</ele><time>2026-05-03T09:22:09Z</time></trkpt><trkpt lat="53.85542066947429" lon="30.480026825157854"><ele>171.0</ele><time>2026-05-03T09:22:10Z</time></trkpt><trkpt lat="53.85564864160101" lon="30.48001756313161"><ele>172.0</ele><time>2026-05-03T09:22:11Z</time></trkpt><trkpt lat="53.85587336311688" lon="30.48001116378375"><ele>172.66666666666669</ele><time>2026-05-03T09:22:12Z</time></trkpt><trkpt lat="53.85609233304372" lon="30.480032213050233"><ele>173.33333333333334</ele><time>2026-05-03T09:22:13Z</time></trkpt><trkpt lat="53.85631647609735" lon="30.48002223445849"><ele>174.0</ele><time>2026-05-03T09:22:14Z</time></trkpt><trkpt lat="53.856541751409985" lon="30.480003482561273"><ele>174.0</ele><time>2026-05-03T09:22:15Z</time></trkpt><trkpt lat="53.85676448898811" lon="30.480006736223498"><ele>174.0</ele><time>2026-05-03T09:22:16Z</time></trkpt><trkpt lat="53.85696836472073" lon="30.480000321179904"><ele>174.0</ele><time>2026-05-03T09:22:17Z</time></trkpt><trkpt lat="53.85716484479912" lon="30.480004330833285"><ele>174.33333333333334</ele><time>2026-05-03T09:22:18Z</time></trkpt><trkpt lat="53.85735906372365" lon="30.480000524017278"><ele>174.66666666666669</ele><time>2026-05-03T09:22:19Z</time></trkpt><trkpt lat="53.85754967628651" lon="30.479994456531475"><ele>175.0</ele><time>2026-05-03T09:22:20Z</time></trkpt><trkpt lat="53.85774858618367" lon="30.479996114552993"><ele>175.66666666666669</ele><time>2026-05-03T09:22:21Z</time></trkpt><trkpt lat="53.85796303599073" lon="30.48000632992216"><ele>176.33333333333334</ele><time>2026-05-03T09:22:22Z</time></trkpt><trkpt lat="53.85816524245286" lon="30.479992005488004"><ele>177.0</ele><time>2026-05-03T09:22:23Z</time></trkpt><trkpt lat="53.85834829136397" lon="30.479988062453998"><ele>176.33333333333334</ele><time>2026-05-03T09:22:24Z</time></trkpt><trkpt lat="53.85853286459394" lon="30.480015359837658"><ele>175.66666666666669</ele><time>2026-05-03T09:22:25Z</time></trkpt><trkpt lat="53.85875509473475" lon="30.480005059476298"><ele>175.0</ele><time>2026-05-03T09:22:26Z</time></trkpt><trkpt lat="53.858953113497506" lon="30.48000532413466"><ele>175.0</ele><time>2026-05-03T09:22:27Z</time></trkpt><trkpt lat="53.85915533808282" lon="30.479999717425056"><ele>175.0</ele><time>2026-05-03T09:22:28Z</time></trkpt><trkpt lat="53.8593679237893" lon="30.480023849887925"><ele>175.0</ele><time>2026-05-03T09:22:29Z</time></trkpt><trkpt lat="53.8595788612572" lon="30.480051138917595"><ele>175.0</ele><time>2026-05-03T09:22:30Z</time></trkpt><trkpt lat="53.859781157728875" lon="30.48006646287883"><ele>175.0</ele><time>2026-05-03T09:22:31Z</time></trkpt><trkpt lat="53.85998491322618" lon="30.480101754377518"><ele>175.0</ele><time>2026-05-03T09:22:32Z</time></trkpt><trkpt lat="53.86018945188923" lon="30.48012863681521"><ele>175.0</ele><time>2026-05-03T09:22:33Z</time></trkpt><trkpt lat="53.860386756991026" lon="30.48015742815396"><ele>175.0</ele><time>2026-05-03T09:22:34Z</time></trkpt><trkpt lat="53.8605903215929" lon="30.480191766054965"><ele>175.0</ele><time>2026-05-03T09:22:35Z</time></trkpt><trkpt lat="53.86079204776721" lon="30.480232005384106"><ele>175.0</ele><time>2026-05-03T09:22:36Z</time></trkpt><trkpt lat="53.86099260272318" lon="30.480261165343332"><ele>175.0</ele><time>2026-05-03T09:22:37Z</time></trkpt><trkpt lat="53.86118394018692" lon="30.48030101049021"><ele>175.0</ele><time>2026-05-03T09:22:38Z</time></trkpt><trkpt lat="53.86136837097983" lon="30.48035251021701"><ele>175.0</ele><time>2026-05-03T09:22:39Z</time></trkpt><trkpt lat="53.861562545533644" lon="30.480394296683652"><ele>175.0</ele><time>2026-05-03T09:22:40Z</time></trkpt><trkpt lat="53.861756418567495" lon="30.48043768684517"><ele>175.0</ele><time>2026-05-03T09:22:41Z</time></trkpt><trkpt lat="53.86195251082741" lon="30.480488276295517"><ele>175.0</ele><time>2026-05-03T09:22:42Z</time></trkpt><trkpt lat="53.862149770923935" lon="30.48054140915802"><ele>175.0</ele><time>2026-05-03T09:22:43Z</time></trkpt><trkpt lat="53.86234595297842" lon="30.480595176437497"><ele>175.0</ele><time>2026-05-03T09:22:44Z</time></trkpt><trkpt lat="53.86254781292824" lon="30.48065506047722"><ele>175.66666666666669</ele><time>2026-05-03T09:22:45Z</time></trkpt><trkpt lat="53.86274239042886" lon="30.480711149320253"><ele>176.33333333333334</ele><time>2026-05-03T09:22:46Z</time></trkpt><trkpt lat="53.86295025119464" lon="30.4807714820672"><ele>177.0</ele><time>2026-05-03T09:22:47Z</time></trkpt><trkpt lat="53.863150016283065" lon="30.48083113912632"><ele>177.0</ele><time>2026-05-03T09:22:48Z</time></trkpt><trkpt lat="53.8633477755757" lon="30.48090063269527"><ele>177.0</ele><time>2026-05-03T09:22:49Z</time></trkpt><trkpt lat="53.86354855121721" lon="30.48097522424558"><ele>177.0</ele><time>2026-05-03T09:22:50Z</time></trkpt><trkpt lat="53.86374922097312" lon="30.481050789049434"><ele>177.66666666666666</ele><time>2026-05-03T09:22:51Z</time></trkpt><trkpt lat="53.86394584035887" lon="30.48113599760496"><ele>178.33333333333331</ele><time>2026-05-03T09:22:52Z</time></trkpt><trkpt lat="53.864145040252794" lon="30.4812170059711"><ele>179.0</ele><time>2026-05-03T09:22:53Z</time></trkpt><trkpt lat="53.86434357122144" lon="30.48130663012738"><ele>179.0</ele><time>2026-05-03T09:22:54Z</time></trkpt><trkpt lat="53.86454511193533" lon="30.481395871050147"><ele>179.0</ele><time>2026-05-03T09:22:55Z</time></trkpt><trkpt lat="53.86474711971103" lon="30.48148939195746"><ele>179.0</ele><time>2026-05-03T09:22:56Z</time></trkpt><trkpt lat="53.86495205634003" lon="30.481583150676837"><ele>179.66666666666666</ele><time>2026-05-03T09:22:57.001Z</time></trkpt><trkpt lat="53.8651612958598" lon="30.48167723696102"><ele>180.33333333333334</ele><time>2026-05-03T09:22:58.001Z</time></trkpt><trkpt lat="53.86537216144486" lon="30.481780416563947"><ele>181.0</ele><time>2026-05-03T09:22:59.001Z</time></trkpt><trkpt lat="53.865591867239075" lon="30.48189497585938"><ele>181.0</ele><time>2026-05-03T09:23:00.001Z</time></trkpt><trkpt lat="53.86580418524002" lon="30.48200363546391"><ele>181.0</ele><time>2026-05-03T09:23:01.001Z</time></trkpt><trkpt lat="53.8659889008797" lon="30.48209624374881"><ele>181.0</ele><time>2026-05-03T09:23:02.001Z</time></trkpt><trkpt lat="53.86617079843772" lon="30.48218678302365"><ele>180.33333333333334</ele><time>2026-05-03T09:23:03.001Z</time></trkpt><trkpt lat="53.86633793301574" lon="30.482269539503008"><ele>179.66666666666666</ele><time>2026-05-03T09:23:04.001Z</time></trkpt><trkpt lat="53.866498449109955" lon="30.48234141690096"><ele>179.0</ele><time>2026-05-03T09:23:05.001Z</time></trkpt><trkpt lat="53.866655876664254" lon="30.482416507014623"><ele>178.66666666666666</ele><time>2026-05-03T09:23:06.001Z</time></trkpt><trkpt lat="53.866826004022016" lon="30.482511970647593"><ele>178.33333333333334</ele><time>2026-05-03T09:23:07.001Z</time></trkpt><trkpt lat="53.867005633361906" lon="30.4826045888065"><ele>178.0</ele><time>2026-05-03T09:23:08.001Z</time></trkpt><trkpt lat="53.86718769671869" lon="30.482694382236335"><ele>178.0</ele><time>2026-05-03T09:23:09.001Z</time></trkpt><trkpt lat="53.867375538700024" lon="30.482786826426587"><ele>178.0</ele><time>2026-05-03T09:23:10.001Z</time></trkpt><trkpt lat="53.86756313000775" lon="30.48287747537776"><ele>178.0</ele><time>2026-05-03T09:23:11.001Z</time></trkpt><trkpt lat="53.86775209100123" lon="30.482972778303655"><ele>179.33333333333334</ele><time>2026-05-03T09:23:12.001Z</time></trkpt><trkpt lat="53.86794067041552" lon="30.483068538983837"><ele>180.66666666666666</ele><time>2026-05-03T09:23:13.001Z</time></trkpt><trkpt lat="53.86813416690942" lon="30.483163761916707"><ele>182.0</ele><time>2026-05-03T09:23:14.001Z</time></trkpt><trkpt lat="53.868324188647065" lon="30.483260800777998"><ele>182.33333333333331</ele><time>2026-05-03T09:23:15.001Z</time></trkpt><trkpt lat="53.86851767129169" lon="30.48335949261906"><ele>182.66666666666666</ele><time>2026-05-03T09:23:16.001Z</time></trkpt><trkpt lat="53.8687131535904" lon="30.483459557221114"><ele>183.0</ele><time>2026-05-03T09:23:17.001Z</time></trkpt><trkpt lat="53.8689082471312" lon="30.4835591584239"><ele>183.0</ele><time>2026-05-03T09:23:18.001Z</time></trkpt><trkpt lat="53.86910369184823" lon="30.483655171036542"><ele>183.0</ele><time>2026-05-03T09:23:19.001Z</time></trkpt><trkpt lat="53.86929049883753" lon="30.483750803564444"><ele>183.0</ele><time>2026-05-03T09:23:20.001Z</time></trkpt><trkpt lat="53.86948754124623" lon="30.483843154547813"><ele>183.33333333333334</ele><time>2026-05-03T09:23:21.001Z</time></trkpt><trkpt lat="53.869678966847445" lon="30.48393843332843"><ele>183.66666666666669</ele><time>2026-05-03T09:23:22.001Z</time></trkpt><trkpt lat="53.869872194191394" lon="30.484039572486843"><ele>184.0</ele><time>2026-05-03T09:23:23.001Z</time></trkpt><trkpt lat="53.87006571838124" lon="30.484143099092535"><ele>184.0</ele><time>2026-05-03T09:23:24.001Z</time></trkpt><trkpt lat="53.87025998296785" lon="30.484244408123693"><ele>184.0</ele><time>2026-05-03T09:23:25.001Z</time></trkpt><trkpt lat="53.87046416620129" lon="30.484335635965117"><ele>184.0</ele><time>2026-05-03T09:23:26.001Z</time></trkpt><trkpt lat="53.87066519369305" lon="30.484436576260215"><ele>184.0</ele><time>2026-05-03T09:23:27.001Z</time></trkpt><trkpt lat="53.87086560919372" lon="30.48454204734631"><ele>184.0</ele><time>2026-05-03T09:23:28.001Z</time></trkpt><trkpt lat="53.8710695459787" lon="30.48463570778985"><ele>184.0</ele><time>2026-05-03T09:23:29.001Z</time></trkpt><trkpt lat="53.87127324881631" lon="30.484731225455537"><ele>184.0</ele><time>2026-05-03T09:23:30.001Z</time></trkpt><trkpt lat="53.87147506251184" lon="30.484833359815102"><ele>184.0</ele><time>2026-05-03T09:23:31.001Z</time></trkpt><trkpt lat="53.87167790459703" lon="30.484928677870343"><ele>184.0</ele><time>2026-05-03T09:23:32.001Z</time></trkpt><trkpt lat="53.87188027451286" lon="30.485035767315125"><ele>184.0</ele><time>2026-05-03T09:23:33.001Z</time></trkpt><trkpt lat="53.87208453412001" lon="30.485141422986747"><ele>184.0</ele><time>2026-05-03T09:23:34.001Z</time></trkpt><trkpt lat="53.87229074236167" lon="30.48524852524042"><ele>184.0</ele><time>2026-05-03T09:23:35.001Z</time></trkpt><trkpt lat="53.87249419154335" lon="30.485359927053047"><ele>183.33333333333334</ele><time>2026-05-03T09:23:36.001Z</time></trkpt><trkpt lat="53.87270304571998" lon="30.485454315988"><ele>182.66666666666666</ele><time>2026-05-03T09:23:37Z</time></trkpt><trkpt lat="53.8729087339462" lon="30.48555811340949"><ele>182.0</ele><time>2026-05-03T09:23:38Z</time></trkpt><trkpt lat="53.87310984477294" lon="30.485659870591018"><ele>182.0</ele><time>2026-05-03T09:23:39Z</time></trkpt><trkpt lat="53.87331065813822" lon="30.485757470700182"><ele>182.0</ele><time>2026-05-03T09:23:40Z</time></trkpt><trkpt lat="53.87351321353897" lon="30.485864028630647"><ele>182.0</ele><time>2026-05-03T09:23:41Z</time></trkpt><trkpt lat="53.87371475285786" lon="30.485975214045922"><ele>182.0</ele><time>2026-05-03T09:23:42Z</time></trkpt><trkpt lat="53.87392134915664" lon="30.486074612404217"><ele>182.0</ele><time>2026-05-03T09:23:43Z</time></trkpt><trkpt lat="53.874122647235026" lon="30.486172124637182"><ele>182.0</ele><time>2026-05-03T09:23:44Z</time></trkpt><trkpt lat="53.874319280233024" lon="30.486261459518268"><ele>181.66666666666666</ele><time>2026-05-03T09:23:45Z</time></trkpt><trkpt lat="53.8745200147934" lon="30.48636811701582"><ele>181.33333333333334</ele><time>2026-05-03T09:23:46Z</time></trkpt><trkpt lat="53.874711682814834" lon="30.48646784208115"><ele>181.0</ele><time>2026-05-03T09:23:47Z</time></trkpt><trkpt lat="53.874918853189605" lon="30.486570973539862"><ele>180.66666666666669</ele><time>2026-05-03T09:23:48Z</time></trkpt><trkpt lat="53.875117933094764" lon="30.486667216407472"><ele>180.33333333333334</ele><time>2026-05-03T09:23:49Z</time></trkpt><trkpt lat="53.87529964209021" lon="30.486754997286795"><ele>180.0</ele><time>2026-05-03T09:23:50Z</time></trkpt><trkpt lat="53.87550387842499" lon="30.486847530082784"><ele>180.0</ele><time>2026-05-03T09:23:51Z</time></trkpt><trkpt lat="53.875696660938985" lon="30.486934560948583"><ele>180.0</ele><time>2026-05-03T09:23:52Z</time></trkpt><trkpt lat="53.87589083201127" lon="30.487023751686515"><ele>180.0</ele><time>2026-05-03T09:23:53Z</time></trkpt><trkpt lat="53.87608893663222" lon="30.487117165709417"><ele>180.33333333333334</ele><time>2026-05-03T09:23:54Z</time></trkpt><trkpt lat="53.87628608803912" lon="30.48719403630626"><ele>180.66666666666669</ele><time>2026-05-03T09:23:55Z</time></trkpt><trkpt lat="53.876480647706764" lon="30.487278066792825"><ele>181.0</ele><time>2026-05-03T09:23:56Z</time></trkpt><trkpt lat="53.87667984146245" lon="30.487349457777686"><ele>181.33333333333334</ele><time>2026-05-03T09:23:57Z</time></trkpt><trkpt lat="53.87687684452396" lon="30.487416765931883"><ele>181.66666666666666</ele><time>2026-05-03T09:23:58Z</time></trkpt><trkpt lat="53.877066418846105" lon="30.487477818647942"><ele>182.0</ele><time>2026-05-03T09:23:59Z</time></trkpt><trkpt lat="53.87724141661497" lon="30.487536954506396"><ele>182.0</ele><time>2026-05-03T09:24:00Z</time></trkpt><trkpt lat="53.877400873555516" lon="30.48759402891928"><ele>182.0</ele><time>2026-05-03T09:24:01Z</time></trkpt><trkpt lat="53.87755416395969" lon="30.487642964822413"><ele>182.0</ele><time>2026-05-03T09:24:02Z</time></trkpt><trkpt lat="53.87769930089266" lon="30.487676832368464"><ele>181.75</ele><time>2026-05-03T09:24:03Z</time></trkpt><trkpt lat="53.87783425814324" lon="30.48772357238306"><ele>181.5</ele><time>2026-05-03T09:24:04Z</time></trkpt><trkpt lat="53.87796178025424" lon="30.487768259131084"><ele>181.25</ele><time>2026-05-03T09:24:05Z</time></trkpt><trkpt lat="53.87807951728304" lon="30.487794473494027"><ele>181.0</ele><time>2026-05-03T09:24:06Z</time></trkpt><trkpt lat="53.87819332610661" lon="30.48782404566343"><ele>181.0</ele><time>2026-05-03T09:24:07Z</time></trkpt><trkpt lat="53.87830016619856" lon="30.48784673417238"><ele>181.0</ele><time>2026-05-03T09:24:08Z</time></trkpt><trkpt lat="53.87840450922408" lon="30.487875987546442"><ele>181.0</ele><time>2026-05-03T09:24:09Z</time></trkpt><trkpt lat="53.8785035902835" lon="30.487906166357075"><ele>181.0</ele><time>2026-05-03T09:24:10Z</time></trkpt><trkpt lat="53.878598011680715" lon="30.487927451717823"><ele>181.0</ele><time>2026-05-03T09:24:11Z</time></trkpt><trkpt lat="53.8786940118002" lon="30.487959341521506"><ele>181.0</ele><time>2026-05-03T09:24:12Z</time></trkpt><trkpt lat="53.87879416960677" lon="30.48798058670468"><ele>181.0</ele><time>2026-05-03T09:24:13Z</time></trkpt><trkpt lat="53.878895163685584" lon="30.488001324484422"><ele>181.0</ele><time>2026-05-03T09:24:14Z</time></trkpt><trkpt lat="53.87899797002189" lon="30.48802567277445"><ele>181.0</ele><time>2026-05-03T09:24:15Z</time></trkpt><trkpt lat="53.87911274537785" lon="30.488048791557667"><ele>181.0</ele><time>2026-05-03T09:24:16Z</time></trkpt><trkpt lat="53.8792282974482" lon="30.48807262982615"><ele>180.5</ele><time>2026-05-03T09:24:17Z</time></trkpt><trkpt lat="53.8793581392395" lon="30.488098814989634"><ele>180.0</ele><time>2026-05-03T09:24:18Z</time></trkpt><trkpt lat="53.879492281876786" lon="30.48812326350488"><ele>179.5</ele><time>2026-05-03T09:24:19Z</time></trkpt><trkpt lat="53.879632970925606" lon="30.488150292091124"><ele>179.0</ele><time>2026-05-03T09:24:20Z</time></trkpt><trkpt lat="53.87977726884606" lon="30.48818255575361"><ele>179.0</ele><time>2026-05-03T09:24:21Z</time></trkpt><trkpt lat="53.87993290450504" lon="30.488205329275488"><ele>179.0</ele><time>2026-05-03T09:24:22Z</time></trkpt><trkpt lat="53.88010399466476" lon="30.48823086670424"><ele>179.0</ele><time>2026-05-03T09:24:23Z</time></trkpt><trkpt lat="53.88028149203888" lon="30.48825912395748"><ele>178.66666666666666</ele><time>2026-05-03T09:24:24Z</time></trkpt><trkpt lat="53.88046935597456" lon="30.488279126120652"><ele>178.33333333333334</ele><time>2026-05-03T09:24:25Z</time></trkpt><trkpt lat="53.880661425445254" lon="30.488298264160274"><ele>178.0</ele><time>2026-05-03T09:24:26Z</time></trkpt><trkpt lat="53.88084904034788" lon="30.48831177802656"><ele>178.0</ele><time>2026-05-03T09:24:27Z</time></trkpt><trkpt lat="53.88103379603111" lon="30.488325180151957"><ele>178.0</ele><time>2026-05-03T09:24:28Z</time></trkpt><trkpt lat="53.8812293998478" lon="30.488335808354243"><ele>178.0</ele><time>2026-05-03T09:24:29Z</time></trkpt><trkpt lat="53.88142684909963" lon="30.488345913171575"><ele>178.0</ele><time>2026-05-03T09:24:30Z</time></trkpt><trkpt lat="53.881623731306576" lon="30.48836375484233"><ele>178.0</ele><time>2026-05-03T09:24:30.999Z</time></trkpt><trkpt lat="53.881829181662916" lon="30.488374657487224"><ele>178.0</ele><time>2026-05-03T09:24:31.999Z</time></trkpt><trkpt lat="53.88203399213206" lon="30.488394238685743"><ele>177.66666666666669</ele><time>2026-05-03T09:24:32.999Z</time></trkpt><trkpt lat="53.882244413263884" lon="30.488394438817597"><ele>177.33333333333334</ele><time>2026-05-03T09:24:33.999Z</time></trkpt><trkpt lat="53.88245006372855" lon="30.488405806724497"><ele>177.0</ele><time>2026-05-03T09:24:34.999Z</time></trkpt><trkpt lat="53.88265828339454" lon="30.488412485726332"><ele>178.0</ele><time>2026-05-03T09:24:35.999Z</time></trkpt><trkpt lat="53.88287538148527" lon="30.488401119851556"><ele>179.0</ele><time>2026-05-03T09:24:36.999Z</time></trkpt><trkpt lat="53.88308702186926" lon="30.488410924828248"><ele>180.0</ele><time>2026-05-03T09:24:37.999Z</time></trkpt><trkpt lat="53.88329922841526" lon="30.48839409661256"><ele>179.66666666666666</ele><time>2026-05-03T09:24:38.999Z</time></trkpt><trkpt lat="53.88351731373212" lon="30.488390123811456"><ele>179.33333333333331</ele><time>2026-05-03T09:24:39.999Z</time></trkpt><trkpt lat="53.8837331501706" lon="30.48838540307704"><ele>179.0</ele><time>2026-05-03T09:24:40.999Z</time></trkpt><trkpt lat="53.88394986802709" lon="30.488371746163473"><ele>179.0</ele><time>2026-05-03T09:24:41.999Z</time></trkpt><trkpt lat="53.88416389338763" lon="30.48834009945463"><ele>179.0</ele><time>2026-05-03T09:24:42.999Z</time></trkpt><trkpt lat="53.884379183168726" lon="30.488305548298083"><ele>179.0</ele><time>2026-05-03T09:24:43.999Z</time></trkpt><trkpt lat="53.88459874760682" lon="30.488265993781468"><ele>180.5</ele><time>2026-05-03T09:24:44.999Z</time></trkpt><trkpt lat="53.884821102284235" lon="30.488221887359412"><ele>182.0</ele><time>2026-05-03T09:24:45.999Z</time></trkpt><trkpt lat="53.88504747266964" lon="30.488178171094507"><ele>184.5</ele><time>2026-05-03T09:24:46.999Z</time></trkpt><trkpt lat="53.88527973325651" lon="30.488135785670323"><ele>187.0</ele><time>2026-05-03T09:24:47.999Z</time></trkpt><trkpt lat="53.88551148013106" lon="30.48808175055948"><ele>187.0</ele><time>2026-05-03T09:24:48.999Z</time></trkpt><trkpt lat="53.885747302982026" lon="30.488034373153756"><ele>187.0</ele><time>2026-05-03T09:24:49.999Z</time></trkpt><trkpt lat="53.88598684743648" lon="30.487975001494352"><ele>188.5</ele><time>2026-05-03T09:24:50.999Z</time></trkpt><trkpt lat="53.88622921436355" lon="30.487914729982204"><ele>190.0</ele><time>2026-05-03T09:24:51.999Z</time></trkpt><trkpt lat="53.886474931299695" lon="30.487853760870284"><ele>190.0</ele><time>2026-05-03T09:24:52.998Z</time></trkpt><trkpt lat="53.88672211185059" lon="30.487791929916632"><ele>190.0</ele><time>2026-05-03T09:24:53.998Z</time></trkpt><trkpt lat="53.88697002513678" lon="30.487726827800202"><ele>189.5</ele><time>2026-05-03T09:24:54.998Z</time></trkpt><trkpt lat="53.88719799303417" lon="30.487655085709072"><ele>189.0</ele><time>2026-05-03T09:24:55.998Z</time></trkpt><trkpt lat="53.887438855574494" lon="30.487584118638036"><ele>189.5</ele><time>2026-05-03T09:24:56.998Z</time></trkpt><trkpt lat="53.88768162235848" lon="30.487504784214384"><ele>190.0</ele><time>2026-05-03T09:24:57.998Z</time></trkpt><trkpt lat="53.88792567115384" lon="30.48742259478932"><ele>190.0</ele><time>2026-05-03T09:24:58.998Z</time></trkpt><trkpt lat="53.88816624316823" lon="30.487340956083774"><ele>190.0</ele><time>2026-05-03T09:24:59.998Z</time></trkpt><trkpt lat="53.88841123150892" lon="30.48725072558043"><ele>189.5</ele><time>2026-05-03T09:25:00.998Z</time></trkpt><trkpt lat="53.88865590027193" lon="30.48714628071323"><ele>189.0</ele><time>2026-05-03T09:25:01.998Z</time></trkpt><trkpt lat="53.88890325088579" lon="30.487044230980956"><ele>188.0</ele><time>2026-05-03T09:25:03Z</time></trkpt><trkpt lat="53.88915066959286" lon="30.486934222363086"><ele>187.0</ele><time>2026-05-03T09:25:04Z</time></trkpt><trkpt lat="53.88940277889821" lon="30.486822623195998"><ele>187.0</ele><time>2026-05-03T09:25:05Z</time></trkpt><trkpt lat="53.88965724563874" lon="30.48672228858492"><ele>187.0</ele><time>2026-05-03T09:25:06Z</time></trkpt><trkpt lat="53.889916362263875" lon="30.4866047464899"><ele>185.5</ele><time>2026-05-03T09:25:07Z</time></trkpt><trkpt lat="53.890177023279335" lon="30.486480665271603"><ele>184.0</ele><time>2026-05-03T09:25:08Z</time></trkpt><trkpt lat="53.8904345569023" lon="30.486371750635644"><ele>185.5</ele><time>2026-05-03T09:25:09Z</time></trkpt><trkpt lat="53.89069486000715" lon="30.486237682544903"><ele>187.0</ele><time>2026-05-03T09:25:10Z</time></trkpt><trkpt lat="53.89095582890472" lon="30.48611817662273"><ele>187.0</ele><time>2026-05-03T09:25:11Z</time></trkpt><trkpt lat="53.89121664484718" lon="30.48601679656951"><ele>187.0</ele><time>2026-05-03T09:25:12Z</time></trkpt><trkpt lat="53.89147953820822" lon="30.485891175154354"><ele>187.0</ele><time>2026-05-03T09:25:13Z</time></trkpt><trkpt lat="53.89173769271359" lon="30.485763392991615"><ele>187.0</ele><time>2026-05-03T09:25:14Z</time></trkpt><trkpt lat="53.89199238739702" lon="30.485643636526405"><ele>186.5</ele><time>2026-05-03T09:25:15Z</time></trkpt><trkpt lat="53.89224680988964" lon="30.485455585956814"><ele>186.0</ele><time>2026-05-03T09:25:16Z</time></trkpt><trkpt lat="53.89249325817969" lon="30.485311381828595"><ele>186.0</ele><time>2026-05-03T09:25:17Z</time></trkpt><trkpt lat="53.892725512375335" lon="30.485112443064462"><ele>186.0</ele><time>2026-05-03T09:25:18Z</time></trkpt><trkpt lat="53.89296490102162" lon="30.484913166188306"><ele>186.0</ele><time>2026-05-03T09:25:19Z</time></trkpt><trkpt lat="53.89319803623259" lon="30.484708003527157"><ele>186.0</ele><time>2026-05-03T09:25:20Z</time></trkpt><trkpt lat="53.893431212423316" lon="30.484500086412744"><ele>184.0</ele><time>2026-05-03T09:25:21Z</time></trkpt><trkpt lat="53.89366425776753" lon="30.484293233626133"><ele>182.0</ele><time>2026-05-03T09:25:22Z</time></trkpt><trkpt lat="53.8938995622671" lon="30.48408573861436"><ele>182.0</ele><time>2026-05-03T09:25:23Z</time></trkpt><trkpt lat="53.89413939625518" lon="30.483885264197685"><ele>182.0</ele><time>2026-05-03T09:25:24Z</time></trkpt><trkpt lat="53.894383288026845" lon="30.483674075801"><ele>178.5</ele><time>2026-05-03T09:25:25Z</time></trkpt><trkpt lat="53.894626124420924" lon="30.48346751176077"><ele>175.0</ele><time>2026-05-03T09:25:26Z</time></trkpt><trkpt lat="53.894870442042134" lon="30.4832553307368"><ele>174.5</ele><time>2026-05-03T09:25:27Z</time></trkpt><trkpt lat="53.89511768122366" lon="30.483035686984483"><ele>174.0</ele><time>2026-05-03T09:25:28Z</time></trkpt><trkpt lat="53.8953593729931" lon="30.482814999108452"><ele>174.0</ele><time>2026-05-03T09:25:29Z</time></trkpt><trkpt lat="53.89560019298869" lon="30.48259567270694"><ele>174.0</ele><time>2026-05-03T09:25:30Z</time></trkpt><trkpt lat="53.89583670660664" lon="30.482374313379164"><ele>174.0</ele><time>2026-05-03T09:25:31Z</time></trkpt><trkpt lat="53.896073005912406" lon="30.482139467128395"><ele>174.0</ele><time>2026-05-03T09:25:32Z</time></trkpt><trkpt lat="53.896308257732976" lon="30.481900908987967"><ele>174.0</ele><time>2026-05-03T09:25:33Z</time></trkpt><trkpt lat="53.89653536990676" lon="30.481662607689238"><ele>174.0</ele><time>2026-05-03T09:25:34Z</time></trkpt><trkpt lat="53.896738525653554" lon="30.481441201134192"><ele>174.0</ele><time>2026-05-03T09:25:35Z</time></trkpt><trkpt lat="53.8969276255012" lon="30.48123358095059"><ele>174.0</ele><time>2026-05-03T09:25:36Z</time></trkpt><trkpt lat="53.89710639772721" lon="30.481034956867635"><ele>174.0</ele><time>2026-05-03T09:25:37Z</time></trkpt><trkpt lat="53.89730393527925" lon="30.480823578790634"><ele>174.0</ele><time>2026-05-03T09:25:37.999Z</time></trkpt><trkpt lat="53.89751710991037" lon="30.48059081823948"><ele>174.0</ele><time>2026-05-03T09:25:38.999Z</time></trkpt><trkpt lat="53.89772794151274" lon="30.480339861401774"><ele>172.5</ele><time>2026-05-03T09:25:39.999Z</time></trkpt><trkpt lat="53.897950770920815" lon="30.480067735592634"><ele>171.0</ele><time>2026-05-03T09:25:40.999Z</time></trkpt><trkpt lat="53.8981742823878" lon="30.479787517264196"><ele>171.0</ele><time>2026-05-03T09:25:41.999Z</time></trkpt><trkpt lat="53.89840520811819" lon="30.47948803259239"><ele>171.0</ele><time>2026-05-03T09:25:42.999Z</time></trkpt><trkpt lat="53.8986448810532" lon="30.479174134567593"><ele>171.0</ele><time>2026-05-03T09:25:43.999Z</time></trkpt><trkpt lat="53.89888635263949" lon="30.47885967751598"><ele>171.0</ele><time>2026-05-03T09:25:44.999Z</time></trkpt><trkpt lat="53.89912696796489" lon="30.47854665954991"><ele>170.5</ele><time>2026-05-03T09:25:45.999Z</time></trkpt><trkpt lat="53.89936450941486" lon="30.478231772205195"><ele>170.0</ele><time>2026-05-03T09:25:46.999Z</time></trkpt><trkpt lat="53.899598832885836" lon="30.477905225053224"><ele>167.5</ele><time>2026-05-03T09:25:47.999Z</time></trkpt><trkpt lat="53.899819096022725" lon="30.477544929363088"><ele>165.0</ele><time>2026-05-03T09:25:48.999Z</time></trkpt><trkpt lat="53.900028567731454" lon="30.477165361549858"><ele>163.0</ele><time>2026-05-03T09:25:49.999Z</time></trkpt><trkpt lat="53.900227730230476" lon="30.476765431033535"><ele>161.0</ele><time>2026-05-03T09:25:50.999Z</time></trkpt><trkpt lat="53.900411951968" lon="30.476348648766844"><ele>161.0</ele><time>2026-05-03T09:25:51.999Z</time></trkpt><trkpt lat="53.900592859816534" lon="30.475911370107823"><ele>161.0</ele><time>2026-05-03T09:25:52.999Z</time></trkpt><trkpt lat="53.90076087366586" lon="30.47547780806081"><ele>160.5</ele><time>2026-05-03T09:25:53.999Z</time></trkpt><trkpt lat="53.900929457351474" lon="30.475035015277264"><ele>160.0</ele><time>2026-05-03T09:25:54.999Z</time></trkpt><trkpt lat="53.90109901389351" lon="30.474597779276447"><ele>158.5</ele><time>2026-05-03T09:25:55.999Z</time></trkpt><trkpt lat="53.90126457041304" lon="30.474191559676413"><ele>157.0</ele><time>2026-05-03T09:25:56.999Z</time></trkpt><trkpt lat="53.9014299153662" lon="30.473820435361606"><ele>157.5</ele><time>2026-05-03T09:25:57.999Z</time></trkpt><trkpt lat="53.901599557119326" lon="30.473483447617813"><ele>158.0</ele><time>2026-05-03T09:25:58.999Z</time></trkpt><trkpt lat="53.90178535091852" lon="30.473127680388664"><ele>157.5</ele><time>2026-05-03T09:25:59.999Z</time></trkpt><trkpt lat="53.90198267512554" lon="30.472794002062447"><ele>157.0</ele><time>2026-05-03T09:26:00.999Z</time></trkpt><trkpt lat="53.90219586885007" lon="30.472491567494416"><ele>157.0</ele><time>2026-05-03T09:26:01.999Z</time></trkpt><trkpt lat="53.902418626612274" lon="30.472209945877918"><ele>157.0</ele><time>2026-05-03T09:26:02.999Z</time></trkpt><trkpt lat="53.90265092810931" lon="30.47192309599329"><ele>156.5</ele><time>2026-05-03T09:26:03.999Z</time></trkpt><trkpt lat="53.90289079088297" lon="30.471650815395353"><ele>156.0</ele><time>2026-05-03T09:26:04.999Z</time></trkpt><trkpt lat="53.903141563736355" lon="30.471406534333937"><ele>154.5</ele><time>2026-05-03T09:26:05.999Z</time></trkpt><trkpt lat="53.903397565164674" lon="30.471202696456977"><ele>153.0</ele><time>2026-05-03T09:26:06.999Z</time></trkpt><trkpt lat="53.90366512489822" lon="30.471010889407296"><ele>153.0</ele><time>2026-05-03T09:26:07.999Z</time></trkpt><trkpt lat="53.90393614176961" lon="30.470849189584346"><ele>153.0</ele><time>2026-05-03T09:26:08.999Z</time></trkpt><trkpt lat="53.90420714607095" lon="30.47071801635876"><ele>153.5</ele><time>2026-05-03T09:26:09.999Z</time></trkpt><trkpt lat="53.90448055743141" lon="30.47060084870201"><ele>154.0</ele><time>2026-05-03T09:26:10.999Z</time></trkpt><trkpt lat="53.90475416756705" lon="30.47051082304733"><ele>155.0</ele><time>2026-05-03T09:26:11.999Z</time></trkpt><trkpt lat="53.905036463254156" lon="30.47043135875466"><ele>156.0</ele><time>2026-05-03T09:26:12.999Z</time></trkpt><trkpt lat="53.905315799766285" lon="30.470393210038026"><ele>157.0</ele><time>2026-05-03T09:26:13.999Z</time></trkpt><trkpt lat="53.90559578290206" lon="30.470368564462795"><ele>158.0</ele><time>2026-05-03T09:26:14.999Z</time></trkpt><trkpt lat="53.905876593291474" lon="30.4703507950994"><ele>157.5</ele><time>2026-05-03T09:26:15.999Z</time></trkpt><trkpt lat="53.90616473318707" lon="30.47033769876482"><ele>157.0</ele><time>2026-05-03T09:26:16.999Z</time></trkpt><trkpt lat="53.906451980238344" lon="30.470321137902513"><ele>157.0</ele><time>2026-05-03T09:26:17.999Z</time></trkpt><trkpt lat="53.90673930420843" lon="30.470301932806304"><ele>157.0</ele><time>2026-05-03T09:26:18.999Z</time></trkpt><trkpt lat="53.90703176456127" lon="30.470275531561224"><ele>157.0</ele><time>2026-05-03T09:26:19.999Z</time></trkpt><trkpt lat="53.90732113163239" lon="30.470257848120546"><ele>157.0</ele><time>2026-05-03T09:26:20.999Z</time></trkpt><trkpt lat="53.90761068909594" lon="30.470249670269"><ele>156.5</ele><time>2026-05-03T09:26:21.999Z</time></trkpt><trkpt lat="53.907904637058635" lon="30.470232929417957"><ele>156.0</ele><time>2026-05-03T09:26:22.999Z</time></trkpt><trkpt lat="53.90819769692757" lon="30.47022133048095"><ele>155.0</ele><time>2026-05-03T09:26:23.999Z</time></trkpt><trkpt lat="53.90849134994531" lon="30.47020413305784"><ele>154.0</ele><time>2026-05-03T09:26:24.999Z</time></trkpt><trkpt lat="53.90878214390536" lon="30.470191473190074"><ele>154.0</ele><time>2026-05-03T09:26:25.999Z</time></trkpt><trkpt lat="53.90907587423703" lon="30.470177355254226"><ele>154.0</ele><time>2026-05-03T09:26:26.999Z</time></trkpt><trkpt lat="53.90936776089293" lon="30.470158804610815"><ele>152.0</ele><time>2026-05-03T09:26:27.999Z</time></trkpt><trkpt lat="53.909655560033556" lon="30.47017297743312"><ele>150.0</ele><time>2026-05-03T09:26:28.999Z</time></trkpt><trkpt lat="53.909922059647" lon="30.47013014459617"><ele>149.5</ele><time>2026-05-03T09:26:29.999Z</time></trkpt><trkpt lat="53.910196326346316" lon="30.470119518458922"><ele>149.0</ele><time>2026-05-03T09:26:30.999Z</time></trkpt><trkpt lat="53.91047448182868" lon="30.470104971237234"><ele>149.0</ele><time>2026-05-03T09:26:31.999Z</time></trkpt><trkpt lat="53.91074892337095" lon="30.470091444416347"><ele>149.0</ele><time>2026-05-03T09:26:32.999Z</time></trkpt><trkpt lat="53.911020979879545" lon="30.470070740337754"><ele>150.0</ele><time>2026-05-03T09:26:33.999Z</time></trkpt><trkpt lat="53.911289628048145" lon="30.47005657469454"><ele>151.0</ele><time>2026-05-03T09:26:34.999Z</time></trkpt><trkpt lat="53.9115618105044" lon="30.470048533087578"><ele>150.5</ele><time>2026-05-03T09:26:35.999Z</time></trkpt><trkpt lat="53.91183635873647" lon="30.47002932101367"><ele>150.0</ele><time>2026-05-03T09:26:36.999Z</time></trkpt><trkpt lat="53.91211134107949" lon="30.470019501266474"><ele>150.0</ele><time>2026-05-03T09:26:37.999Z</time></trkpt><trkpt lat="53.91238784213887" lon="30.470006526450167"><ele>150.0</ele><time>2026-05-03T09:26:38.999Z</time></trkpt><trkpt lat="53.91266260581616" lon="30.469992668115026"><ele>150.0</ele><time>2026-05-03T09:26:39.999Z</time></trkpt><trkpt lat="53.912936617514006" lon="30.469972679580657"><ele>150.0</ele><time>2026-05-03T09:26:40.999Z</time></trkpt><trkpt lat="53.913207934630094" lon="30.469957231310115"><ele>149.5</ele><time>2026-05-03T09:26:41.999Z</time></trkpt><trkpt lat="53.91348102854344" lon="30.46994251471984"><ele>149.0</ele><time>2026-05-03T09:26:42.999Z</time></trkpt><trkpt lat="53.91375693530258" lon="30.469929458525314"><ele>149.0</ele><time>2026-05-03T09:26:43.999Z</time></trkpt><trkpt lat="53.91403118521112" lon="30.46991670779686"><ele>149.0</ele><time>2026-05-03T09:26:44.999Z</time></trkpt><trkpt lat="53.91430407752483" lon="30.46990285524115"><ele>149.0</ele><time>2026-05-03T09:26:45.999Z</time></trkpt><trkpt lat="53.91457878164924" lon="30.469885293815995"><ele>149.0</ele><time>2026-05-03T09:26:46.999Z</time></trkpt><trkpt lat="53.914861665932726" lon="30.469872081190704"><ele>149.5</ele><time>2026-05-03T09:26:47.999Z</time></trkpt><trkpt lat="53.915134654506375" lon="30.469860422509075"><ele>150.0</ele><time>2026-05-03T09:26:48.999Z</time></trkpt><trkpt lat="53.915413021629206" lon="30.469842459660725"><ele>150.0</ele><time>2026-05-03T09:26:49.998Z</time></trkpt><trkpt lat="53.91569464463036" lon="30.469825972195647"><ele>150.0</ele><time>2026-05-03T09:26:50.998Z</time></trkpt><trkpt lat="53.91597491888772" lon="30.46981007399779"><ele>150.0</ele><time>2026-05-03T09:26:51.998Z</time></trkpt><trkpt lat="53.91625050580699" lon="30.46979648490333"><ele>150.0</ele><time>2026-05-03T09:26:52.998Z</time></trkpt><trkpt lat="53.91652750880518" lon="30.46978184267733"><ele>151.0</ele><time>2026-05-03T09:26:53.998Z</time></trkpt><trkpt lat="53.91682053427556" lon="30.469762615608218"><ele>152.0</ele><time>2026-05-03T09:26:54.998Z</time></trkpt><trkpt lat="53.91710565269996" lon="30.46976519469628"><ele>152.0</ele><time>2026-05-03T09:26:55.998Z</time></trkpt><trkpt lat="53.91739342278495" lon="30.469748539176347"><ele>152.0</ele><time>2026-05-03T09:26:56.998Z</time></trkpt><trkpt lat="53.917681316201815" lon="30.469735217685848"><ele>150.5</ele><time>2026-05-03T09:26:57.998Z</time></trkpt><trkpt lat="53.91796803777572" lon="30.469712085112075"><ele>149.0</ele><time>2026-05-03T09:26:58.998Z</time></trkpt><trkpt lat="53.91825763238933" lon="30.46971048241488"><ele>150.0</ele><time>2026-05-03T09:26:59.998Z</time></trkpt><trkpt lat="53.91856406514266" lon="30.46969024829405"><ele>151.0</ele><time>2026-05-03T09:27:00.998Z</time></trkpt><trkpt lat="53.9188704520928" lon="30.469676304405333"><ele>151.0</ele><time>2026-05-03T09:27:01.998Z</time></trkpt><trkpt lat="53.91917296364778" lon="30.46966053420602"><ele>151.0</ele><time>2026-05-03T09:27:02.998Z</time></trkpt><trkpt lat="53.91947427712868" lon="30.46964378549464"><ele>151.0</ele><time>2026-05-03T09:27:03.998Z</time></trkpt><trkpt lat="53.91977045826484" lon="30.469629815491203"><ele>151.0</ele><time>2026-05-03T09:27:04.998Z</time></trkpt><trkpt lat="53.92006836605035" lon="30.46961296658243"><ele>151.5</ele><time>2026-05-03T09:27:05.998Z</time></trkpt><trkpt lat="53.92037247881383" lon="30.469593190760275"><ele>152.0</ele><time>2026-05-03T09:27:06.998Z</time></trkpt><trkpt lat="53.92066484300252" lon="30.469582973353045"><ele>151.5</ele><time>2026-05-03T09:27:07.998Z</time></trkpt><trkpt lat="53.92097155743295" lon="30.46955892474804"><ele>151.0</ele><time>2026-05-03T09:27:09Z</time></trkpt><trkpt lat="53.92127151242284" lon="30.469539850040494"><ele>151.0</ele><time>2026-05-03T09:27:10Z</time></trkpt><trkpt lat="53.9215675502115" lon="30.46953323899464"><ele>151.0</ele><time>2026-05-03T09:27:11Z</time></trkpt><trkpt lat="53.921872055811434" lon="30.46951682701033"><ele>151.5</ele><time>2026-05-03T09:27:12Z</time></trkpt><trkpt lat="53.922176197567595" lon="30.469501133668476"><ele>152.0</ele><time>2026-05-03T09:27:13Z</time></trkpt><trkpt lat="53.922480967049786" lon="30.469484461353115"><ele>151.5</ele><time>2026-05-03T09:27:14Z</time></trkpt><trkpt lat="53.92278494454864" lon="30.469455536931047"><ele>151.0</ele><time>2026-05-03T09:27:15Z</time></trkpt><trkpt lat="53.9230885773674" lon="30.46944222770259"><ele>151.0</ele><time>2026-05-03T09:27:16Z</time></trkpt><trkpt lat="53.92339319291607" lon="30.469424277512033"><ele>151.0</ele><time>2026-05-03T09:27:17Z</time></trkpt><trkpt lat="53.92369629547435" lon="30.469411137355248"><ele>150.5</ele><time>2026-05-03T09:27:18Z</time></trkpt><trkpt lat="53.924003465329214" lon="30.469395327625858"><ele>150.0</ele><time>2026-05-03T09:27:19Z</time></trkpt><trkpt lat="53.924307510241796" lon="30.469368536658795"><ele>150.0</ele><time>2026-05-03T09:27:20Z</time></trkpt><trkpt lat="53.924614977084836" lon="30.46935299527647"><ele>150.0</ele><time>2026-05-03T09:27:21Z</time></trkpt><trkpt lat="53.9249222501183" lon="30.469335299881294"><ele>150.5</ele><time>2026-05-03T09:27:22Z</time></trkpt><trkpt lat="53.925233726339215" lon="30.469317037423554"><ele>151.0</ele><time>2026-05-03T09:27:23Z</time></trkpt><trkpt lat="53.92554144149188" lon="30.469305982093633"><ele>151.0</ele><time>2026-05-03T09:27:24Z</time></trkpt><trkpt lat="53.92584742496652" lon="30.469286979170604"><ele>151.0</ele><time>2026-05-03T09:27:25Z</time></trkpt><trkpt lat="53.92615639481676" lon="30.469268501968866"><ele>151.5</ele><time>2026-05-03T09:27:26Z</time></trkpt><trkpt lat="53.92646412446868" lon="30.469250873756433"><ele>152.0</ele><time>2026-05-03T09:27:27Z</time></trkpt><trkpt lat="53.92676906904325" lon="30.469235518760527"><ele>152.5</ele><time>2026-05-03T09:27:28Z</time></trkpt><trkpt lat="53.927073115062214" lon="30.469222411115002"><ele>153.0</ele><time>2026-05-03T09:27:29Z</time></trkpt><trkpt lat="53.92737721222991" lon="30.469207871738856"><ele>153.0</ele><time>2026-05-03T09:27:30Z</time></trkpt><trkpt lat="53.92768280545636" lon="30.46918735244992"><ele>153.0</ele><time>2026-05-03T09:27:31Z</time></trkpt><trkpt lat="53.92799348819674" lon="30.4691696870069"><ele>153.0</ele><time>2026-05-03T09:27:32Z</time></trkpt><trkpt lat="53.92829412293912" lon="30.46915537606862"><ele>153.0</ele><time>2026-05-03T09:27:33Z</time></trkpt><trkpt lat="53.92859858009144" lon="30.469143173058473"><ele>153.0</ele><time>2026-05-03T09:27:34Z</time></trkpt><trkpt lat="53.928900905588364" lon="30.469128013650355"><ele>153.0</ele><time>2026-05-03T09:27:35Z</time></trkpt><trkpt lat="53.929208816517416" lon="30.469110910865314"><ele>154.0</ele><time>2026-05-03T09:27:36Z</time></trkpt><trkpt lat="53.929508344784196" lon="30.469090779668843"><ele>155.0</ele><time>2026-05-03T09:27:37Z</time></trkpt><trkpt lat="53.92979952839499" lon="30.469075208985533"><ele>155.5</ele><time>2026-05-03T09:27:38Z</time></trkpt><trkpt lat="53.93009966924975" lon="30.46905385346646"><ele>156.0</ele><time>2026-05-03T09:27:39Z</time></trkpt><trkpt lat="53.93040050513646" lon="30.46903363635388"><ele>156.0</ele><time>2026-05-03T09:27:40Z</time></trkpt><trkpt lat="53.93069502032457" lon="30.469023483031755"><ele>156.0</ele><time>2026-05-03T09:27:41Z</time></trkpt><trkpt lat="53.93099475678467" lon="30.468992029112588"><ele>156.5</ele><time>2026-05-03T09:27:41.999Z</time></trkpt><trkpt lat="53.93128785624054" lon="30.468979275623653"><ele>157.0</ele><time>2026-05-03T09:27:42.999Z</time></trkpt><trkpt lat="53.93158356258592" lon="30.468964750822277"><ele>156.0</ele><time>2026-05-03T09:27:43.999Z</time></trkpt><trkpt lat="53.93187809207423" lon="30.46894948317341"><ele>155.0</ele><time>2026-05-03T09:27:44.999Z</time></trkpt><trkpt lat="53.93214737082909" lon="30.46893275653339"><ele>155.0</ele><time>2026-05-03T09:27:45.999Z</time></trkpt><trkpt lat="53.932406891659305" lon="30.46893420618389"><ele>155.0</ele><time>2026-05-03T09:27:46.999Z</time></trkpt><trkpt lat="53.93266396838636" lon="30.468924129913123"><ele>156.0</ele><time>2026-05-03T09:27:47.999Z</time></trkpt><trkpt lat="53.932929916905834" lon="30.468902140349364"><ele>157.0</ele><time>2026-05-03T09:27:48.999Z</time></trkpt><trkpt lat="53.933189560336515" lon="30.468882652271216"><ele>158.0</ele><time>2026-05-03T09:27:49.999Z</time></trkpt><trkpt lat="53.933462318591175" lon="30.468875008466558"><ele>159.0</ele><time>2026-05-03T09:27:50.999Z</time></trkpt><trkpt lat="53.933730981153616" lon="30.468860536757923"><ele>159.0</ele><time>2026-05-03T09:27:51.999Z</time></trkpt><trkpt lat="53.934001860436766" lon="30.46884598364002"><ele>159.0</ele><time>2026-05-03T09:27:52.999Z</time></trkpt><trkpt lat="53.934274521298214" lon="30.46882950611986"><ele>160.0</ele><time>2026-05-03T09:27:53.999Z</time></trkpt><trkpt lat="53.93454706553732" lon="30.4688122380933"><ele>161.0</ele><time>2026-05-03T09:27:54.999Z</time></trkpt><trkpt lat="53.934818587975826" lon="30.468799217868828"><ele>161.0</ele><time>2026-05-03T09:27:55.999Z</time></trkpt><trkpt lat="53.93509422929042" lon="30.468779722060567"><ele>161.0</ele><time>2026-05-03T09:27:56.999Z</time></trkpt><trkpt lat="53.93536852044463" lon="30.46876524872548"><ele>159.0</ele><time>2026-05-03T09:27:57.999Z</time></trkpt><trkpt lat="53.93564909398741" lon="30.468745752549378"><ele>157.0</ele><time>2026-05-03T09:27:58.999Z</time></trkpt><trkpt lat="53.93592618331496" lon="30.46873539079007"><ele>157.0</ele><time>2026-05-03T09:27:59.999Z</time></trkpt><trkpt lat="53.93620309242773" lon="30.468725862493642"><ele>157.0</ele><time>2026-05-03T09:28:00.999Z</time></trkpt><trkpt lat="53.93648440056525" lon="30.468708423949117"><ele>157.5</ele><time>2026-05-03T09:28:01.999Z</time></trkpt><trkpt lat="53.93676246688436" lon="30.468693774659457"><ele>158.0</ele><time>2026-05-03T09:28:02.999Z</time></trkpt><trkpt lat="53.937040722418985" lon="30.468672934999184"><ele>158.0</ele><time>2026-05-03T09:28:03.999Z</time></trkpt><trkpt lat="53.93731781950249" lon="30.468661350421193"><ele>158.0</ele><time>2026-05-03T09:28:04.999Z</time></trkpt><trkpt lat="53.93759478796089" lon="30.468648937815946"><ele>159.0</ele><time>2026-05-03T09:28:05.999Z</time></trkpt><trkpt lat="53.937870632331204" lon="30.468637428309396"><ele>160.0</ele><time>2026-05-03T09:28:06.999Z</time></trkpt><trkpt lat="53.93815077354613" lon="30.468624529186965"><ele>160.0</ele><time>2026-05-03T09:28:07.999Z</time></trkpt><trkpt lat="53.93842961841694" lon="30.468601389350944"><ele>160.0</ele><time>2026-05-03T09:28:08.999Z</time></trkpt><trkpt lat="53.93870568729674" lon="30.46858453075756"><ele>160.0</ele><time>2026-05-03T09:28:09.999Z</time></trkpt><trkpt lat="53.938982507276314" lon="30.468576404712994"><ele>160.0</ele><time>2026-05-03T09:28:10.999Z</time></trkpt><trkpt lat="53.93926290600577" lon="30.468567468820225"><ele>160.0</ele><time>2026-05-03T09:28:11.999Z</time></trkpt><trkpt lat="53.93954691630196" lon="30.468559374148676"><ele>160.0</ele><time>2026-05-03T09:28:12.999Z</time></trkpt><trkpt lat="53.939827950913106" lon="30.46853813971971"><ele>161.0</ele><time>2026-05-03T09:28:13.999Z</time></trkpt><trkpt lat="53.94010681255645" lon="30.46851752353126"><ele>162.0</ele><time>2026-05-03T09:28:14.999Z</time></trkpt><trkpt lat="53.94038801808678" lon="30.468504991521684"><ele>162.0</ele><time>2026-05-03T09:28:15.999Z</time></trkpt><trkpt lat="53.940668981576394" lon="30.468495027752397"><ele>162.0</ele><time>2026-05-03T09:28:16.999Z</time></trkpt><trkpt lat="53.94095705461646" lon="30.468478272742665"><ele>164.0</ele><time>2026-05-03T09:28:17.999Z</time></trkpt><trkpt lat="53.94124513016331" lon="30.468455122477906"><ele>166.0</ele><time>2026-05-03T09:28:18.999Z</time></trkpt><trkpt lat="53.94153171204455" lon="30.468438697696648"><ele>166.0</ele><time>2026-05-03T09:28:19.999Z</time></trkpt><trkpt lat="53.941815865936924" lon="30.46842766589191"><ele>166.0</ele><time>2026-05-03T09:28:20.999Z</time></trkpt><trkpt lat="53.94210415093924" lon="30.46841517220958"><ele>166.0</ele><time>2026-05-03T09:28:21.999Z</time></trkpt><trkpt lat="53.942395832859326" lon="30.46839435283492"><ele>166.0</ele><time>2026-05-03T09:28:22.999Z</time></trkpt><trkpt lat="53.942679655646955" lon="30.468372117315155"><ele>168.0</ele><time>2026-05-03T09:28:23.999Z</time></trkpt><trkpt lat="53.94296591853246" lon="30.46835678548574"><ele>170.0</ele><time>2026-05-03T09:28:24.999Z</time></trkpt><trkpt lat="53.94325931978758" lon="30.468351171003807"><ele>171.0</ele><time>2026-05-03T09:28:25.999Z</time></trkpt><trkpt lat="53.94354799819651" lon="30.468336647018457"><ele>172.0</ele><time>2026-05-03T09:28:26.999Z</time></trkpt><trkpt lat="53.94384225226878" lon="30.4683175868552"><ele>172.0</ele><time>2026-05-03T09:28:27.999Z</time></trkpt><trkpt lat="53.944136219529994" lon="30.46831101247592"><ele>172.0</ele><time>2026-05-03T09:28:28.999Z</time></trkpt><trkpt lat="53.94442723542557" lon="30.46829038692718"><ele>171.5</ele><time>2026-05-03T09:28:29.999Z</time></trkpt><trkpt lat="53.944712416561615" lon="30.468266487711134"><ele>171.0</ele><time>2026-05-03T09:28:30.999Z</time></trkpt><trkpt lat="53.945007647932066" lon="30.468267568227247"><ele>170.0</ele><time>2026-05-03T09:28:31.999Z</time></trkpt><trkpt lat="53.945303291493985" lon="30.46825362345086"><ele>169.0</ele><time>2026-05-03T09:28:32.999Z</time></trkpt><trkpt lat="53.94559668285063" lon="30.468213612404444"><ele>171.5</ele><time>2026-05-03T09:28:33.999Z</time></trkpt><trkpt lat="53.94588947357753" lon="30.46820438317968"><ele>174.0</ele><time>2026-05-03T09:28:34.999Z</time></trkpt><trkpt lat="53.946185957603234" lon="30.46819458104128"><ele>174.0</ele><time>2026-05-03T09:28:35.999Z</time></trkpt><trkpt lat="53.94648577307432" lon="30.46817897038421"><ele>174.0</ele><time>2026-05-03T09:28:36.999Z</time></trkpt><trkpt lat="53.94677618714622" lon="30.46816921036253"><ele>176.0</ele><time>2026-05-03T09:28:37.999Z</time></trkpt><trkpt lat="53.94707391696272" lon="30.468151540085174"><ele>178.0</ele><time>2026-05-03T09:28:38.999Z</time></trkpt><trkpt lat="53.947375747639505" lon="30.468136767670106"><ele>178.0</ele><time>2026-05-03T09:28:39.999Z</time></trkpt><trkpt lat="53.94766146327222" lon="30.468121201343056"><ele>178.0</ele><time>2026-05-03T09:28:40.999Z</time></trkpt><trkpt lat="53.947960880086214" lon="30.468096227273282"><ele>178.0</ele><time>2026-05-03T09:28:41.999Z</time></trkpt><trkpt lat="53.948255672570674" lon="30.46808012296161"><ele>178.0</ele><time>2026-05-03T09:28:42.999Z</time></trkpt><trkpt lat="53.94855203691228" lon="30.46806408887471"><ele>177.5</ele><time>2026-05-03T09:28:43.999Z</time></trkpt><trkpt lat="53.94884785978738" lon="30.46804644646938"><ele>177.0</ele><time>2026-05-03T09:28:44.999Z</time></trkpt><trkpt lat="53.94914584660786" lon="30.468023427723907"><ele>179.0</ele><time>2026-05-03T09:28:45.999Z</time></trkpt><trkpt lat="53.94944021492073" lon="30.468009105295536"><ele>181.0</ele><time>2026-05-03T09:28:46.999Z</time></trkpt><trkpt lat="53.949739873407474" lon="30.467994844272784"><ele>181.0</ele><time>2026-05-03T09:28:47.999Z</time></trkpt><trkpt lat="53.95003790834764" lon="30.467982865538453"><ele>181.0</ele><time>2026-05-03T09:28:48.999Z</time></trkpt><trkpt lat="53.95033599166886" lon="30.467972974201032"><ele>181.5</ele><time>2026-05-03T09:28:49.999Z</time></trkpt><trkpt lat="53.95063773547962" lon="30.46795579891698"><ele>182.0</ele><time>2026-05-03T09:28:50.998Z</time></trkpt><trkpt lat="53.950943057288626" lon="30.467932704176395"><ele>179.0</ele><time>2026-05-03T09:28:51.998Z</time></trkpt><trkpt lat="53.95124890062804" lon="30.467912198403358"><ele>176.0</ele><time>2026-05-03T09:28:52.998Z</time></trkpt><trkpt lat="53.951551850286194" lon="30.467898901385148"><ele>170.0</ele><time>2026-05-03T09:28:53.998Z</time></trkpt><trkpt lat="53.95186129673794" lon="30.467884116566655"><ele>164.0</ele><time>2026-05-03T09:28:54.998Z</time></trkpt><trkpt lat="53.952169126892365" lon="30.4678613358635"><ele>164.0</ele><time>2026-05-03T09:28:55.998Z</time></trkpt><trkpt lat="53.95245834027748" lon="30.467849608861115"><ele>164.0</ele><time>2026-05-03T09:28:56.998Z</time></trkpt><trkpt lat="53.95272805430767" lon="30.467834386623977"><ele>161.5</ele><time>2026-05-03T09:28:57.998Z</time></trkpt><trkpt lat="53.95299609181967" lon="30.46781453956263"><ele>159.0</ele><time>2026-05-03T09:28:58.998Z</time></trkpt><trkpt lat="53.95326763397066" lon="30.467804264465844"><ele>161.5</ele><time>2026-05-03T09:28:59.998Z</time></trkpt><trkpt lat="53.95353700989135" lon="30.467795162743286"><ele>164.0</ele><time>2026-05-03T09:29:00.998Z</time></trkpt><trkpt lat="53.953782424027914" lon="30.46777870346822"><ele>164.0</ele><time>2026-05-03T09:29:01.998Z</time></trkpt><trkpt lat="53.95401947977398" lon="30.467766254317805"><ele>164.0</ele><time>2026-05-03T09:29:02.998Z</time></trkpt><trkpt lat="53.95425564522085" lon="30.46774809262031"><ele>167.0</ele><time>2026-05-03T09:29:03.998Z</time></trkpt><trkpt lat="53.954495712395435" lon="30.4677292594123"><ele>170.0</ele><time>2026-05-03T09:29:04.998Z</time></trkpt><trkpt lat="53.954730083520275" lon="30.467710396092187"><ele>170.0</ele><time>2026-05-03T09:29:05.998Z</time></trkpt><trkpt lat="53.95496824933418" lon="30.467699789067684"><ele>170.0</ele><time>2026-05-03T09:29:06.998Z</time></trkpt><trkpt lat="53.955194867247364" lon="30.467694782521136"><ele>173.5</ele><time>2026-05-03T09:29:07.998Z</time></trkpt><trkpt lat="53.95542613361439" lon="30.46768413003623"><ele>177.0</ele><time>2026-05-03T09:29:08.998Z</time></trkpt><trkpt lat="53.95565975150658" lon="30.467666544872422"><ele>178.0</ele><time>2026-05-03T09:29:09.998Z</time></trkpt><trkpt lat="53.95588400487974" lon="30.467655854722842"><ele>179.0</ele><time>2026-05-03T09:29:10.998Z</time></trkpt><trkpt lat="53.95611053553833" lon="30.467642850932585"><ele>179.0</ele><time>2026-05-03T09:29:11.998Z</time></trkpt><trkpt lat="53.956325035474485" lon="30.46762816407613"><ele>179.0</ele><time>2026-05-03T09:29:12.998Z</time></trkpt><trkpt lat="53.95652355109832" lon="30.46761972359874"><ele>179.0</ele><time>2026-05-03T09:29:13.998Z</time></trkpt><trkpt lat="53.95670788449398" lon="30.46760379460412"><ele>179.0</ele><time>2026-05-03T09:29:15Z</time></trkpt><trkpt lat="53.956875507234145" lon="30.467602329866562"><ele>179.0</ele><time>2026-05-03T09:29:16Z</time></trkpt><trkpt lat="53.957027760635846" lon="30.467606266655007"><ele>179.0</ele><time>2026-05-03T09:29:17Z</time></trkpt><trkpt lat="53.957179040779586" lon="30.467597316042568"><ele>179.0</ele><time>2026-05-03T09:29:18Z</time></trkpt><trkpt lat="53.95731846167855" lon="30.46759004023527"><ele>179.0</ele><time>2026-05-03T09:29:19Z</time></trkpt><trkpt lat="53.95746651546201" lon="30.46758197601453"><ele>179.0</ele><time>2026-05-03T09:29:20Z</time></trkpt><trkpt lat="53.95762113211413" lon="30.467573489873413"><ele>179.0</ele><time>2026-05-03T09:29:21Z</time></trkpt><trkpt lat="53.95777855682902" lon="30.46756765062046"><ele>178.33333333333331</ele><time>2026-05-03T09:29:22Z</time></trkpt><trkpt lat="53.95794149091869" lon="30.46755598958247"><ele>177.66666666666666</ele><time>2026-05-03T09:29:23Z</time></trkpt><trkpt lat="53.95810405284991" lon="30.46754778506467"><ele>177.0</ele><time>2026-05-03T09:29:24Z</time></trkpt><trkpt lat="53.95826656398789" lon="30.467543174968768"><ele>177.0</ele><time>2026-05-03T09:29:25Z</time></trkpt><trkpt lat="53.95843943261529" lon="30.467520970685197"><ele>177.0</ele><time>2026-05-03T09:29:26Z</time></trkpt><trkpt lat="53.958610445275674" lon="30.467509671990758"><ele>177.0</ele><time>2026-05-03T09:29:27Z</time></trkpt><trkpt lat="53.95878142321134" lon="30.46749953913771"><ele>177.0</ele><time>2026-05-03T09:29:28Z</time></trkpt><trkpt lat="53.958953060986474" lon="30.467502045798838"><ele>177.0</ele><time>2026-05-03T09:29:29Z</time></trkpt><trkpt lat="53.95912601698575" lon="30.467493945693864"><ele>177.0</ele><time>2026-05-03T09:29:30Z</time></trkpt><trkpt lat="53.959292719895345" lon="30.467481968549894"><ele>178.0</ele><time>2026-05-03T09:29:31Z</time></trkpt><trkpt lat="53.959459167307664" lon="30.46747340231548"><ele>179.0</ele><time>2026-05-03T09:29:32Z</time></trkpt><trkpt lat="53.95962389938552" lon="30.467474316850108"><ele>180.0</ele><time>2026-05-03T09:29:33Z</time></trkpt><trkpt lat="53.959784899624516" lon="30.4674541097884"><ele>180.0</ele><time>2026-05-03T09:29:34Z</time></trkpt><trkpt lat="53.95994586013609" lon="30.467444676521463"><ele>180.0</ele><time>2026-05-03T09:29:35Z</time></trkpt><trkpt lat="53.96011462332717" lon="30.467450020674846"><ele>180.0</ele><time>2026-05-03T09:29:36Z</time></trkpt><trkpt lat="53.96028313485031" lon="30.467445042596392"><ele>180.33333333333334</ele><time>2026-05-03T09:29:37Z</time></trkpt><trkpt lat="53.960451435395754" lon="30.4674330194687"><ele>180.66666666666669</ele><time>2026-05-03T09:29:38Z</time></trkpt><trkpt lat="53.96062040516437" lon="30.467421174511877"><ele>181.0</ele><time>2026-05-03T09:29:39Z</time></trkpt><trkpt lat="53.96078638788248" lon="30.467405826369053"><ele>181.66666666666669</ele><time>2026-05-03T09:29:40Z</time></trkpt><trkpt lat="53.960956234621605" lon="30.467397200780123"><ele>182.33333333333334</ele><time>2026-05-03T09:29:41Z</time></trkpt><trkpt lat="53.96112632894217" lon="30.46738319476525"><ele>183.0</ele><time>2026-05-03T09:29:42Z</time></trkpt><trkpt lat="53.96129482198399" lon="30.46735893839975"><ele>183.0</ele><time>2026-05-03T09:29:43Z</time></trkpt><trkpt lat="53.96147905085413" lon="30.467358330389157"><ele>183.0</ele><time>2026-05-03T09:29:44Z</time></trkpt><trkpt lat="53.961657270319506" lon="30.467349799368474"><ele>183.0</ele><time>2026-05-03T09:29:45Z</time></trkpt><trkpt lat="53.961838757599956" lon="30.467334313647722"><ele>182.66666666666666</ele><time>2026-05-03T09:29:46Z</time></trkpt><trkpt lat="53.9620225044854" lon="30.467325412374233"><ele>182.33333333333331</ele><time>2026-05-03T09:29:47Z</time></trkpt><trkpt lat="53.96220273106363" lon="30.467319208268766"><ele>182.0</ele><time>2026-05-03T09:29:48Z</time></trkpt><trkpt lat="53.96238945931385" lon="30.467314441677697"><ele>181.66666666666666</ele><time>2026-05-03T09:29:49Z</time></trkpt><trkpt lat="53.96256871521692" lon="30.467302384001446"><ele>181.33333333333334</ele><time>2026-05-03T09:29:50Z</time></trkpt><trkpt lat="53.962749528582776" lon="30.46729576059773"><ele>181.0</ele><time>2026-05-03T09:29:51Z</time></trkpt><trkpt lat="53.96293840051257" lon="30.467283395827895"><ele>181.0</ele><time>2026-05-03T09:29:51.999Z</time></trkpt><trkpt lat="53.963125200789506" lon="30.467269686579893"><ele>181.0</ele><time>2026-05-03T09:29:52.999Z</time></trkpt><trkpt lat="53.96331270788123" lon="30.467261934497113"><ele>181.0</ele><time>2026-05-03T09:29:53.999Z</time></trkpt><trkpt lat="53.96350235657257" lon="30.467250413721406"><ele>181.66666666666669</ele><time>2026-05-03T09:29:54.999Z</time></trkpt><trkpt lat="53.963688723974954" lon="30.467248561403018"><ele>182.33333333333334</ele><time>2026-05-03T09:29:55.999Z</time></trkpt><trkpt lat="53.96388198383757" lon="30.467234829604255"><ele>183.0</ele><time>2026-05-03T09:29:56.999Z</time></trkpt><trkpt lat="53.96407508112064" lon="30.467223679691244"><ele>183.33333333333334</ele><time>2026-05-03T09:29:57.999Z</time></trkpt><trkpt lat="53.96426683002675" lon="30.467216307088886"><ele>183.66666666666669</ele><time>2026-05-03T09:29:58.999Z</time></trkpt><trkpt lat="53.964458020768056" lon="30.46720034278017"><ele>184.0</ele><time>2026-05-03T09:29:59.999Z</time></trkpt><trkpt lat="53.964649991513" lon="30.467190428661485"><ele>184.0</ele><time>2026-05-03T09:30:00.999Z</time></trkpt><trkpt lat="53.96484365736193" lon="30.467176841571924"><ele>184.0</ele><time>2026-05-03T09:30:01.999Z</time></trkpt><trkpt lat="53.965036627940556" lon="30.467173853876808"><ele>184.0</ele><time>2026-05-03T09:30:02.999Z</time></trkpt><trkpt lat="53.96522851179177" lon="30.467156525789918"><ele>184.33333333333334</ele><time>2026-05-03T09:30:03.999Z</time></trkpt><trkpt lat="53.965421565594696" lon="30.467150370271288"><ele>184.66666666666666</ele><time>2026-05-03T09:30:04.999Z</time></trkpt><trkpt lat="53.96561464136596" lon="30.467140866429038"><ele>185.0</ele><time>2026-05-03T09:30:05.999Z</time></trkpt><trkpt lat="53.965806620868335" lon="30.467115574238694"><ele>185.0</ele><time>2026-05-03T09:30:06.999Z</time></trkpt><trkpt lat="53.96600353173837" lon="30.467110107549086"><ele>185.0</ele><time>2026-05-03T09:30:07.999Z</time></trkpt><trkpt lat="53.966197596564264" lon="30.46709416776509"><ele>185.0</ele><time>2026-05-03T09:30:08.999Z</time></trkpt><trkpt lat="53.96639098399604" lon="30.467080138818375"><ele>185.0</ele><time>2026-05-03T09:30:09.999Z</time></trkpt><trkpt lat="53.96658315044431" lon="30.467074819909907"><ele>185.0</ele><time>2026-05-03T09:30:10.999Z</time></trkpt><trkpt lat="53.96677104209664" lon="30.467063693694676"><ele>185.0</ele><time>2026-05-03T09:30:11.999Z</time></trkpt><trkpt lat="53.96695685717923" lon="30.4670544443896"><ele>186.66666666666666</ele><time>2026-05-03T09:30:12.999Z</time></trkpt><trkpt lat="53.96715043213017" lon="30.46704783125462"><ele>188.33333333333334</ele><time>2026-05-03T09:30:13.999Z</time></trkpt><trkpt lat="53.967345368138325" lon="30.467038317714977"><ele>190.0</ele><time>2026-05-03T09:30:14.999Z</time></trkpt><trkpt lat="53.9675316032501" lon="30.46702285849082"><ele>190.0</ele><time>2026-05-03T09:30:15.999Z</time></trkpt><trkpt lat="53.96771851154885" lon="30.4670084996541"><ele>190.0</ele><time>2026-05-03T09:30:16.999Z</time></trkpt><trkpt lat="53.96790037148739" lon="30.46699897431207"><ele>190.0</ele><time>2026-05-03T09:30:17.999Z</time></trkpt><trkpt lat="53.968079290228765" lon="30.466986755716785"><ele>190.0</ele><time>2026-05-03T09:30:18.999Z</time></trkpt><trkpt lat="53.96824543354404" lon="30.466976516545117"><ele>190.0</ele><time>2026-05-03T09:30:19.999Z</time></trkpt><trkpt lat="53.968401019020625" lon="30.46697306023312"><ele>190.0</ele><time>2026-05-03T09:30:20.999Z</time></trkpt><trkpt lat="53.96855999805804" lon="30.46696677840202"><ele>190.66666666666669</ele><time>2026-05-03T09:30:21.999Z</time></trkpt><trkpt lat="53.96873250396723" lon="30.46694871884505"><ele>191.33333333333334</ele><time>2026-05-03T09:30:22.999Z</time></trkpt><trkpt lat="53.96890041732995" lon="30.46693792348369"><ele>192.0</ele><time>2026-05-03T09:30:23.999Z</time></trkpt><trkpt lat="53.96906942154982" lon="30.466924284965373"><ele>193.0</ele><time>2026-05-03T09:30:24.999Z</time></trkpt><trkpt lat="53.9692383911147" lon="30.466911987357083"><ele>194.0</ele><time>2026-05-03T09:30:25.999Z</time></trkpt><trkpt lat="53.96940966863749" lon="30.466900839441585"><ele>195.0</ele><time>2026-05-03T09:30:26.999Z</time></trkpt><trkpt lat="53.96957704813715" lon="30.466897552101134"><ele>195.0</ele><time>2026-05-03T09:30:27.999Z</time></trkpt><trkpt lat="53.96973518103991" lon="30.46688106846791"><ele>195.0</ele><time>2026-05-03T09:30:28.999Z</time></trkpt><trkpt lat="53.96989428397236" lon="30.46687006173254"><ele>195.0</ele><time>2026-05-03T09:30:29.999Z</time></trkpt><trkpt lat="53.970058080967135" lon="30.466863559507413"><ele>195.66666666666669</ele><time>2026-05-03T09:30:30.999Z</time></trkpt><trkpt lat="53.97021828521066" lon="30.4668572805449"><ele>196.33333333333334</ele><time>2026-05-03T09:30:31.999Z</time></trkpt><trkpt lat="53.97038521273482" lon="30.46687284263666"><ele>197.0</ele><time>2026-05-03T09:30:32.999Z</time></trkpt><trkpt lat="53.97054986620297" lon="30.466835146118942"><ele>197.0</ele><time>2026-05-03T09:30:33.999Z</time></trkpt><trkpt lat="53.97071596533191" lon="30.466853268179978"><ele>197.0</ele><time>2026-05-03T09:30:34.999Z</time></trkpt><trkpt lat="53.970879085313435" lon="30.466844045260597"><ele>197.0</ele><time>2026-05-03T09:30:35.999Z</time></trkpt><trkpt lat="53.97104193489815" lon="30.46680903574667"><ele>198.0</ele><time>2026-05-03T09:30:36.999Z</time></trkpt><trkpt lat="53.97121038728553" lon="30.46679803154563"><ele>199.0</ele><time>2026-05-03T09:30:37.999Z</time></trkpt><trkpt lat="53.971382544702124" lon="30.466815238429653"><ele>200.0</ele><time>2026-05-03T09:30:38.999Z</time></trkpt><trkpt lat="53.97156072302177" lon="30.466805505168455"><ele>199.66666666666669</ele><time>2026-05-03T09:30:39.999Z</time></trkpt><trkpt lat="53.97174098733829" lon="30.466796501049252"><ele>199.33333333333331</ele><time>2026-05-03T09:30:40.999Z</time></trkpt><trkpt lat="53.971934006312935" lon="30.466788645555464"><ele>199.0</ele><time>2026-05-03T09:30:41.999Z</time></trkpt><trkpt lat="53.97212634990993" lon="30.466775237388603"><ele>199.0</ele><time>2026-05-03T09:30:42.999Z</time></trkpt><trkpt lat="53.97231898997233" lon="30.46674559512755"><ele>199.0</ele><time>2026-05-03T09:30:43.999Z</time></trkpt><trkpt lat="53.972519530631885" lon="30.466734684188303"><ele>199.0</ele><time>2026-05-03T09:30:44.999Z</time></trkpt><trkpt lat="53.97272252107251" lon="30.466717980798233"><ele>199.0</ele><time>2026-05-03T09:30:45.999Z</time></trkpt><trkpt lat="53.97292779296737" lon="30.46673093672006"><ele>199.0</ele><time>2026-05-03T09:30:46.999Z</time></trkpt><trkpt lat="53.973128938321494" lon="30.466692856979414"><ele>199.0</ele><time>2026-05-03T09:30:47.999Z</time></trkpt><trkpt lat="53.97333661146254" lon="30.46670774397051"><ele>199.0</ele><time>2026-05-03T09:30:48.999Z</time></trkpt><trkpt lat="53.97354292558531" lon="30.466696811830317"><ele>199.0</ele><time>2026-05-03T09:30:49.999Z</time></trkpt><trkpt lat="53.973749427794765" lon="30.46668546391414"><ele>199.0</ele><time>2026-05-03T09:30:50.999Z</time></trkpt><trkpt lat="53.973957994028574" lon="30.466673983604394"><ele>199.0</ele><time>2026-05-03T09:30:51.999Z</time></trkpt><trkpt lat="53.974171581390884" lon="30.466662779921474"><ele>199.0</ele><time>2026-05-03T09:30:52.999Z</time></trkpt><trkpt lat="53.97439145253209" lon="30.46662630027395"><ele>199.0</ele><time>2026-05-03T09:30:53.999Z</time></trkpt><trkpt lat="53.97461570406458" lon="30.466624717531428"><ele>199.33333333333331</ele><time>2026-05-03T09:30:54.999Z</time></trkpt><trkpt lat="53.97482344914419" lon="30.46660340098294"><ele>199.66666666666669</ele><time>2026-05-03T09:30:55.999Z</time></trkpt><trkpt lat="53.97503279431688" lon="30.46661518359874"><ele>200.0</ele><time>2026-05-03T09:30:56.999Z</time></trkpt><trkpt lat="53.9752511945309" lon="30.46660322797567"><ele>200.33333333333334</ele><time>2026-05-03T09:30:57.999Z</time></trkpt><trkpt lat="53.9754725296895" lon="30.466591597286214"><ele>200.66666666666669</ele><time>2026-05-03T09:30:58.999Z</time></trkpt><trkpt lat="53.97569827004559" lon="30.46657935440796"><ele>201.0</ele><time>2026-05-03T09:30:59.999Z</time></trkpt><trkpt lat="53.97592566014556" lon="30.46656694987893"><ele>201.0</ele><time>2026-05-03T09:31:00.999Z</time></trkpt><trkpt lat="53.97615400946044" lon="30.466554793586663"><ele>201.0</ele><time>2026-05-03T09:31:01.999Z</time></trkpt><trkpt lat="53.9763873376194" lon="30.466541024860817"><ele>201.0</ele><time>2026-05-03T09:31:02.999Z</time></trkpt><trkpt lat="53.97662213887206" lon="30.46652867062612"><ele>201.0</ele><time>2026-05-03T09:31:03.998Z</time></trkpt><trkpt lat="53.97685778977698" lon="30.466516135382278"><ele>202.5</ele><time>2026-05-03T09:31:04.998Z</time></trkpt><trkpt lat="53.97708787428278" lon="30.466478149426454"><ele>204.0</ele><time>2026-05-03T09:31:05.998Z</time></trkpt><trkpt lat="53.977316065787576" lon="30.466467529750815"><ele>203.33333333333331</ele><time>2026-05-03T09:31:06.998Z</time></trkpt><trkpt lat="53.977540801846914" lon="30.466478166725267"><ele>202.66666666666666</ele><time>2026-05-03T09:31:07.998Z</time></trkpt><trkpt lat="53.97773599810448" lon="30.466439900134496"><ele>202.0</ele><time>2026-05-03T09:31:08.998Z</time></trkpt><trkpt lat="53.97792407323321" lon="30.46645716119684"><ele>202.0</ele><time>2026-05-03T09:31:09.998Z</time></trkpt><trkpt lat="53.97810041350248" lon="30.46644857138193"><ele>202.0</ele><time>2026-05-03T09:31:10.998Z</time></trkpt><trkpt lat="53.97826496588318" lon="30.466439390197568"><ele>202.0</ele><time>2026-05-03T09:31:11.998Z</time></trkpt><trkpt lat="53.97840050087118" lon="30.466432281908112"><ele>201.8</ele><time>2026-05-03T09:31:12.998Z</time></trkpt><trkpt lat="53.97848041680052" lon="30.46642785547379"><ele>201.6</ele><time>2026-05-03T09:31:13.998Z</time></trkpt><trkpt lat="53.97855964382912" lon="30.466422802412158"><ele>201.4</ele><time>2026-05-03T09:31:15.998Z</time></trkpt><trkpt lat="53.97857969432338" lon="30.4661208853839"><ele>201.20000000000002</ele><time>2026-05-03T09:31:17.998Z</time></trkpt><trkpt lat="53.97859249676016" lon="30.466013880100782"><ele>201.0</ele><time>2026-05-03T09:31:18.998Z</time></trkpt><trkpt lat="53.97858738310788" lon="30.46582992270193"><ele>200.75</ele><time>2026-05-03T09:31:19.998Z</time></trkpt><trkpt lat="53.97858116797051" lon="30.465611269734662"><ele>200.5</ele><time>2026-05-03T09:31:21Z</time></trkpt><trkpt lat="53.978574552304394" lon="30.4653761855444"><ele>200.25</ele><time>2026-05-03T09:31:22Z</time></trkpt><trkpt lat="53.97856691440595" lon="30.46510477693123"><ele>200.0</ele><time>2026-05-03T09:31:23Z</time></trkpt><trkpt lat="53.978570959769506" lon="30.46483324396029"><ele>200.33333333333334</ele><time>2026-05-03T09:31:24Z</time></trkpt><trkpt lat="53.978607725829164" lon="30.464554958417573"><ele>200.66666666666669</ele><time>2026-05-03T09:31:25Z</time></trkpt><trkpt lat="53.97853805141567" lon="30.464334419605066"><ele>201.0</ele><time>2026-05-03T09:31:26Z</time></trkpt><trkpt lat="53.978533533854225" lon="30.46406442827349"><ele>201.0</ele><time>2026-05-03T09:31:27Z</time></trkpt><trkpt lat="53.97852452997726" lon="30.463789732497006"><ele>201.0</ele><time>2026-05-03T09:31:28Z</time></trkpt><trkpt lat="53.97851619291171" lon="30.463514592553356"><ele>201.0</ele><time>2026-05-03T09:31:29Z</time></trkpt><trkpt lat="53.97852554861657" lon="30.463274947987284"><ele>201.0</ele><time>2026-05-03T09:31:30Z</time></trkpt><trkpt lat="53.97852308901134" lon="30.463052825290976"><ele>201.0</ele><time>2026-05-03T09:31:31Z</time></trkpt><trkpt lat="53.978520872011266" lon="30.462849424207157"><ele>201.0</ele><time>2026-05-03T09:31:32Z</time></trkpt><trkpt lat="53.978519106704674" lon="30.46268746433285"><ele>201.0</ele><time>2026-05-03T09:31:33Z</time></trkpt><trkpt lat="53.978517827252496" lon="30.462570079582814"><ele>201.0</ele><time>2026-05-03T09:31:34Z</time></trkpt><trkpt lat="53.97851505269594" lon="30.46231932146383"><ele>201.0</ele><time>2026-05-03T09:31:36Z</time></trkpt><trkpt lat="53.97851304514299" lon="30.462138228665683"><ele>201.0</ele><time>2026-05-03T09:31:37Z</time></trkpt><trkpt lat="53.97851078961133" lon="30.461934766431565"><ele>201.0</ele><time>2026-05-03T09:31:38Z</time></trkpt><trkpt lat="53.978508479068395" lon="30.461726341499375"><ele>201.0</ele><time>2026-05-03T09:31:39Z</time></trkpt><trkpt lat="53.97850626515686" lon="30.461526641336597"><ele>200.5</ele><time>2026-05-03T09:31:40Z</time></trkpt><trkpt lat="53.978501651415556" lon="30.46133700506994"><ele>200.0</ele><time>2026-05-03T09:31:41Z</time></trkpt><trkpt lat="53.97849967685879" lon="30.461151121739924"><ele>199.5</ele><time>2026-05-03T09:31:42Z</time></trkpt><trkpt lat="53.97849754758086" lon="30.460950673142857"><ele>199.0</ele><time>2026-05-03T09:31:43Z</time></trkpt><trkpt lat="53.97849509061439" lon="30.460719376080213"><ele>199.0</ele><time>2026-05-03T09:31:44Z</time></trkpt><trkpt lat="53.97849235822602" lon="30.46046215131307"><ele>199.0</ele><time>2026-05-03T09:31:45Z</time></trkpt><trkpt lat="53.97848960798179" lon="30.46020324550904"><ele>199.0</ele><time>2026-05-03T09:31:46Z</time></trkpt><trkpt lat="53.978486350931455" lon="30.459937113708648"><ele>199.0</ele><time>2026-05-03T09:31:47Z</time></trkpt><trkpt lat="53.97848311499472" lon="30.45965191875368"><ele>199.0</ele><time>2026-05-03T09:31:48Z</time></trkpt><trkpt lat="53.97847868654294" lon="30.459355519433775"><ele>199.0</ele><time>2026-05-03T09:31:49Z</time></trkpt><trkpt lat="53.97847318302568" lon="30.459051337873777"><ele>197.66666666666666</ele><time>2026-05-03T09:31:50Z</time></trkpt><trkpt lat="53.97846730314462" lon="30.458736253224835"><ele>196.33333333333331</ele><time>2026-05-03T09:31:51Z</time></trkpt><trkpt lat="53.97846130957384" lon="30.458415076891544"><ele>195.0</ele><time>2026-05-03T09:31:52Z</time></trkpt><trkpt lat="53.97845533181011" lon="30.45808819867803"><ele>195.0</ele><time>2026-05-03T09:31:53Z</time></trkpt><trkpt lat="53.978450017271975" lon="30.45778001463635"><ele>195.0</ele><time>2026-05-03T09:31:54Z</time></trkpt><trkpt lat="53.978444069739915" lon="30.457460982788145"><ele>195.0</ele><time>2026-05-03T09:31:55Z</time></trkpt><trkpt lat="53.97843502446923" lon="30.457151950188685"><ele>195.0</ele><time>2026-05-03T09:31:56Z</time></trkpt><trkpt lat="53.978426843046115" lon="30.45682163939139"><ele>195.0</ele><time>2026-05-03T09:31:57Z</time></trkpt><trkpt lat="53.97841893379174" lon="30.45649518742667"><ele>195.0</ele><time>2026-05-03T09:31:58Z</time></trkpt><trkpt lat="53.97841009549599" lon="30.45615870139501"><ele>195.0</ele><time>2026-05-03T09:31:59Z</time></trkpt><trkpt lat="53.9784018630981" lon="30.45582160612422"><ele>195.0</ele><time>2026-05-03T09:31:59.999Z</time></trkpt><trkpt lat="53.9783935063355" lon="30.455479150392865"><ele>195.0</ele><time>2026-05-03T09:32:00.999Z</time></trkpt><trkpt lat="53.97838507146508" lon="30.455133462208938"><ele>194.33333333333331</ele><time>2026-05-03T09:32:01.999Z</time></trkpt><trkpt lat="53.9783791009662" lon="30.45477870673542"><ele>193.66666666666666</ele><time>2026-05-03T09:32:02.999Z</time></trkpt><trkpt lat="53.97837283543605" lon="30.45442099562014"><ele>193.0</ele><time>2026-05-03T09:32:03.999Z</time></trkpt><trkpt lat="53.978366852753574" lon="30.454059626536544"><ele>192.66666666666666</ele><time>2026-05-03T09:32:04.999Z</time></trkpt><trkpt lat="53.97835996767996" lon="30.45370173712364"><ele>192.33333333333331</ele><time>2026-05-03T09:32:05.999Z</time></trkpt><trkpt lat="53.97835416471251" lon="30.45336755980405"><ele>192.0</ele><time>2026-05-03T09:32:06.999Z</time></trkpt><trkpt lat="53.97834816934881" lon="30.45302231134573"><ele>192.33333333333331</ele><time>2026-05-03T09:32:07.999Z</time></trkpt><trkpt lat="53.97834191272983" lon="30.45267690141132"><ele>192.66666666666666</ele><time>2026-05-03T09:32:08.999Z</time></trkpt><trkpt lat="53.978336386789515" lon="30.452338115483137"><ele>193.0</ele><time>2026-05-03T09:32:09.999Z</time></trkpt><trkpt lat="53.97833166075502" lon="30.452006893779142"><ele>193.33333333333331</ele><time>2026-05-03T09:32:10.999Z</time></trkpt><trkpt lat="53.97832697525752" lon="30.451678513002435"><ele>193.66666666666669</ele><time>2026-05-03T09:32:11.999Z</time></trkpt><trkpt lat="53.978322165392015" lon="30.451353690475678"><ele>194.0</ele><time>2026-05-03T09:32:12.999Z</time></trkpt><trkpt lat="53.97831784036829" lon="30.451047210926394"><ele>194.0</ele><time>2026-05-03T09:32:13.999Z</time></trkpt><trkpt lat="53.9783150178307" lon="30.450751132536016"><ele>194.0</ele><time>2026-05-03T09:32:14.999Z</time></trkpt><trkpt lat="53.978312291826875" lon="30.450442661154376"><ele>194.0</ele><time>2026-05-03T09:32:15.999Z</time></trkpt><trkpt lat="53.978309610915126" lon="30.45013929246395"><ele>194.0</ele><time>2026-05-03T09:32:16.999Z</time></trkpt><trkpt lat="53.978306903892395" lon="30.449832969352936"><ele>194.0</ele><time>2026-05-03T09:32:17.999Z</time></trkpt><trkpt lat="53.97830439764983" lon="30.449549419431808"><ele>194.0</ele><time>2026-05-03T09:32:18.999Z</time></trkpt><trkpt lat="53.97830187086182" lon="30.44927999267332"><ele>194.0</ele><time>2026-05-03T09:32:19.999Z</time></trkpt><trkpt lat="53.97830009808905" lon="30.449067031288664"><ele>194.0</ele><time>2026-05-03T09:32:20.999Z</time></trkpt><trkpt lat="53.978298397563634" lon="30.44887742716191"><ele>194.0</ele><time>2026-05-03T09:32:21.999Z</time></trkpt><trkpt lat="53.97825242969265" lon="30.448687438970143"><ele>194.0</ele><time>2026-05-03T09:32:22.999Z</time></trkpt><trkpt lat="53.97821942274768" lon="30.448507291324585"><ele>194.0</ele><time>2026-05-03T09:32:23.999Z</time></trkpt><trkpt lat="53.9781467952352" lon="30.448288323041485"><ele>194.0</ele><time>2026-05-03T09:32:24.999Z</time></trkpt><trkpt lat="53.97805347549086" lon="30.448068390536278"><ele>194.0</ele><time>2026-05-03T09:32:25.999Z</time></trkpt><trkpt lat="53.977961414434056" lon="30.447853065764395"><ele>194.0</ele><time>2026-05-03T09:32:26.999Z</time></trkpt><trkpt lat="53.97786470675822" lon="30.447626038267536"><ele>194.0</ele><time>2026-05-03T09:32:27.999Z</time></trkpt><trkpt lat="53.97776278288952" lon="30.447386613922298"><ele>194.0</ele><time>2026-05-03T09:32:28.999Z</time></trkpt><trkpt lat="53.977657463790536" lon="30.4471392147505"><ele>194.0</ele><time>2026-05-03T09:32:29.999Z</time></trkpt><trkpt lat="53.977548070165746" lon="30.446882244400033"><ele>194.0</ele><time>2026-05-03T09:32:30.999Z</time></trkpt><trkpt lat="53.97743335754171" lon="30.446612919736605"><ele>194.0</ele><time>2026-05-03T09:32:31.999Z</time></trkpt><trkpt lat="53.97731587398359" lon="30.446337701008815"><ele>193.0</ele><time>2026-05-03T09:32:32.999Z</time></trkpt><trkpt lat="53.9771944128807" lon="30.446052422258987"><ele>192.0</ele><time>2026-05-03T09:32:33.999Z</time></trkpt><trkpt lat="53.97707076052468" lon="30.445762158199837"><ele>191.0</ele><time>2026-05-03T09:32:34.999Z</time></trkpt><trkpt lat="53.97694359813081" lon="30.445463654801916"><ele>191.0</ele><time>2026-05-03T09:32:35.999Z</time></trkpt><trkpt lat="53.976817560633386" lon="30.44516779182953"><ele>191.0</ele><time>2026-05-03T09:32:36.999Z</time></trkpt><trkpt lat="53.97668206335733" lon="30.444849609617584"><ele>191.0</ele><time>2026-05-03T09:32:37.999Z</time></trkpt><trkpt lat="53.97654429971164" lon="30.44452543295999"><ele>191.0</ele><time>2026-05-03T09:32:38.999Z</time></trkpt><trkpt lat="53.976395333079346" lon="30.44418170021837"><ele>191.0</ele><time>2026-05-03T09:32:39.999Z</time></trkpt><trkpt lat="53.9762508213156" lon="30.443854094953398"><ele>190.0</ele><time>2026-05-03T09:32:40.999Z</time></trkpt><trkpt lat="53.97610830192192" lon="30.443530996779035"><ele>189.0</ele><time>2026-05-03T09:32:41.999Z</time></trkpt><trkpt lat="53.975972681030036" lon="30.44319780003644"><ele>187.5</ele><time>2026-05-03T09:32:42.999Z</time></trkpt><trkpt lat="53.975841270332836" lon="30.44284570492259"><ele>186.0</ele><time>2026-05-03T09:32:43.999Z</time></trkpt><trkpt lat="53.975712424698166" lon="30.442498232474716"><ele>185.5</ele><time>2026-05-03T09:32:44.999Z</time></trkpt><trkpt lat="53.975587864568226" lon="30.442129786554183"><ele>185.0</ele><time>2026-05-03T09:32:45.999Z</time></trkpt><trkpt lat="53.9754741442261" lon="30.44179331129058"><ele>185.0</ele><time>2026-05-03T09:32:46.999Z</time></trkpt><trkpt lat="53.97535547573417" lon="30.44144267153223"><ele>185.0</ele><time>2026-05-03T09:32:47.999Z</time></trkpt><trkpt lat="53.97523701028983" lon="30.441091997297406"><ele>184.5</ele><time>2026-05-03T09:32:48.999Z</time></trkpt><trkpt lat="53.9751203033229" lon="30.440745965693683"><ele>184.0</ele><time>2026-05-03T09:32:49.999Z</time></trkpt><trkpt lat="53.97500621378132" lon="30.440407962577684"><ele>183.0</ele><time>2026-05-03T09:32:50.999Z</time></trkpt><trkpt lat="53.97489024890687" lon="30.440064389204675"><ele>182.0</ele><time>2026-05-03T09:32:51.999Z</time></trkpt><trkpt lat="53.97477384342913" lon="30.43971907434749"><ele>181.5</ele><time>2026-05-03T09:32:52.999Z</time></trkpt><trkpt lat="53.974656645737724" lon="30.439373164899443"><ele>181.0</ele><time>2026-05-03T09:32:53.999Z</time></trkpt><trkpt lat="53.974534917262794" lon="30.439014791075437"><ele>180.0</ele><time>2026-05-03T09:32:54.999Z</time></trkpt><trkpt lat="53.9744148058195" lon="30.438661032460182"><ele>179.0</ele><time>2026-05-03T09:32:55.999Z</time></trkpt><trkpt lat="53.97429141361317" lon="30.438297576700922"><ele>177.0</ele><time>2026-05-03T09:32:56.999Z</time></trkpt><trkpt lat="53.974165762230314" lon="30.437927466607093"><ele>175.0</ele><time>2026-05-03T09:32:57.999Z</time></trkpt><trkpt lat="53.974038402849565" lon="30.437552574979442"><ele>175.0</ele><time>2026-05-03T09:32:58.999Z</time></trkpt><trkpt lat="53.97391103521393" lon="30.437177903855787"><ele>175.0</ele><time>2026-05-03T09:32:59.999Z</time></trkpt><trkpt lat="53.97378447392975" lon="30.436805192359316"><ele>173.5</ele><time>2026-05-03T09:33:00.999Z</time></trkpt><trkpt lat="53.97365612548311" lon="30.436427192275826"><ele>172.0</ele><time>2026-05-03T09:33:01.999Z</time></trkpt><trkpt lat="53.97352693876723" lon="30.43604757304813"><ele>171.0</ele><time>2026-05-03T09:33:02.999Z</time></trkpt><trkpt lat="53.97339801507559" lon="30.435668974271472"><ele>170.0</ele><time>2026-05-03T09:33:03.999Z</time></trkpt><trkpt lat="53.97326630285485" lon="30.435280570064833"><ele>169.5</ele><time>2026-05-03T09:33:04.999Z</time></trkpt><trkpt lat="53.973139984199484" lon="30.434907839190615"><ele>169.0</ele><time>2026-05-03T09:33:05.999Z</time></trkpt><trkpt lat="53.973022712543866" lon="30.43456355849692"><ele>169.0</ele><time>2026-05-03T09:33:06.999Z</time></trkpt><trkpt lat="53.97290236744763" lon="30.434208633350156"><ele>169.0</ele><time>2026-05-03T09:33:07.998Z</time></trkpt><trkpt lat="53.972775143405585" lon="30.433833418525655"><ele>169.5</ele><time>2026-05-03T09:33:08.998Z</time></trkpt><trkpt lat="53.972646056624214" lon="30.433452702239226"><ele>170.0</ele><time>2026-05-03T09:33:09.998Z</time></trkpt><trkpt lat="53.97251925309776" lon="30.433078719969284"><ele>167.5</ele><time>2026-05-03T09:33:10.998Z</time></trkpt><trkpt lat="53.972363848219956" lon="30.43271749685885"><ele>165.0</ele><time>2026-05-03T09:33:11.998Z</time></trkpt><trkpt lat="53.972245841254804" lon="30.43235256662192"><ele>163.5</ele><time>2026-05-03T09:33:12.998Z</time></trkpt><trkpt lat="53.97212521471547" lon="30.431974059165896"><ele>162.0</ele><time>2026-05-03T09:33:13.998Z</time></trkpt><trkpt lat="53.9720134232161" lon="30.431599200495636"><ele>161.0</ele><time>2026-05-03T09:33:14.998Z</time></trkpt><trkpt lat="53.97191894968348" lon="30.431219630370336"><ele>160.0</ele><time>2026-05-03T09:33:15.998Z</time></trkpt><trkpt lat="53.97182706716066" lon="30.430825349276347"><ele>159.0</ele><time>2026-05-03T09:33:16.998Z</time></trkpt><trkpt lat="53.97175240212275" lon="30.430438030501264"><ele>158.0</ele><time>2026-05-03T09:33:17.998Z</time></trkpt><trkpt lat="53.971677023693786" lon="30.43004073289102"><ele>157.5</ele><time>2026-05-03T09:33:18.998Z</time></trkpt><trkpt lat="53.97160353449757" lon="30.42964005833794"><ele>157.0</ele><time>2026-05-03T09:33:19.998Z</time></trkpt><trkpt lat="53.971536753381244" lon="30.42923579339988"><ele>157.0</ele><time>2026-05-03T09:33:20.998Z</time></trkpt><trkpt lat="53.971475016475374" lon="30.42882388816201"><ele>157.0</ele><time>2026-05-03T09:33:21.998Z</time></trkpt><trkpt lat="53.97141671315244" lon="30.428409799094716"><ele>156.0</ele><time>2026-05-03T09:33:22.998Z</time></trkpt><trkpt lat="53.97136400362651" lon="30.427995392396177"><ele>155.0</ele><time>2026-05-03T09:33:23.998Z</time></trkpt><trkpt lat="53.97131936778527" lon="30.42756901335757"><ele>156.0</ele><time>2026-05-03T09:33:24.998Z</time></trkpt><trkpt lat="53.97129825532517" lon="30.427141355557556"><ele>157.0</ele><time>2026-05-03T09:33:26Z</time></trkpt><trkpt lat="53.97129256443235" lon="30.426713985800852"><ele>159.0</ele><time>2026-05-03T09:33:27Z</time></trkpt><trkpt lat="53.97130020299444" lon="30.426288148610272"><ele>161.0</ele><time>2026-05-03T09:33:28Z</time></trkpt><trkpt lat="53.971305347545304" lon="30.425867793319707"><ele>164.5</ele><time>2026-05-03T09:33:29Z</time></trkpt><trkpt lat="53.971304418490234" lon="30.425447968277776"><ele>168.0</ele><time>2026-05-03T09:33:30Z</time></trkpt><trkpt lat="53.97130041566005" lon="30.425031234721633"><ele>170.0</ele><time>2026-05-03T09:33:31Z</time></trkpt><trkpt lat="53.97130037166342" lon="30.424619523812563"><ele>172.0</ele><time>2026-05-03T09:33:32Z</time></trkpt><trkpt lat="53.97130794093732" lon="30.42421551849005"><ele>173.0</ele><time>2026-05-03T09:33:33Z</time></trkpt><trkpt lat="53.97131318167697" lon="30.423795754481333"><ele>174.0</ele><time>2026-05-03T09:33:34Z</time></trkpt><trkpt lat="53.97131963318341" lon="30.42338477250858"><ele>174.5</ele><time>2026-05-03T09:33:35Z</time></trkpt><trkpt lat="53.97132620316723" lon="30.42296894338766"><ele>175.0</ele><time>2026-05-03T09:33:36Z</time></trkpt><trkpt lat="53.97133271937854" lon="30.42254699467189"><ele>175.5</ele><time>2026-05-03T09:33:37Z</time></trkpt><trkpt lat="53.97134841051915" lon="30.422130096528413"><ele>176.0</ele><time>2026-05-03T09:33:38Z</time></trkpt><trkpt lat="53.97135196460496" lon="30.421701755144504"><ele>175.5</ele><time>2026-05-03T09:33:39Z</time></trkpt><trkpt lat="53.97136545346825" lon="30.421273825842626"><ele>175.0</ele><time>2026-05-03T09:33:40Z</time></trkpt><trkpt lat="53.97137334238492" lon="30.420845894945767"><ele>175.5</ele><time>2026-05-03T09:33:41Z</time></trkpt><trkpt lat="53.971377302424344" lon="30.420412189328744"><ele>176.0</ele><time>2026-05-03T09:33:42Z</time></trkpt><trkpt lat="53.971380258274245" lon="30.419975179431272"><ele>176.0</ele><time>2026-05-03T09:33:43Z</time></trkpt><trkpt lat="53.97138773028548" lon="30.419540211490396"><ele>176.0</ele><time>2026-05-03T09:33:44Z</time></trkpt><trkpt lat="53.97140247017884" lon="30.419104198727446"><ele>177.0</ele><time>2026-05-03T09:33:45Z</time></trkpt><trkpt lat="53.971406424274186" lon="30.418669868778085"><ele>178.0</ele><time>2026-05-03T09:33:46Z</time></trkpt><trkpt lat="53.97141492070537" lon="30.418232294899187"><ele>177.5</ele><time>2026-05-03T09:33:47Z</time></trkpt><trkpt lat="53.971421892102924" lon="30.41779865587384"><ele>177.0</ele><time>2026-05-03T09:33:48Z</time></trkpt><trkpt lat="53.97143489763341" lon="30.417360496402793"><ele>176.0</ele><time>2026-05-03T09:33:49Z</time></trkpt><trkpt lat="53.97145608436737" lon="30.41692419953069"><ele>175.0</ele><time>2026-05-03T09:33:50Z</time></trkpt><trkpt lat="53.97148102349339" lon="30.416487229334653"><ele>175.0</ele><time>2026-05-03T09:33:51Z</time></trkpt><trkpt lat="53.971504661692" lon="30.41605114116141"><ele>175.0</ele><time>2026-05-03T09:33:52Z</time></trkpt><trkpt lat="53.971528827697405" lon="30.415614979730133"><ele>174.5</ele><time>2026-05-03T09:33:53Z</time></trkpt><trkpt lat="53.971549714529004" lon="30.41517669549081"><ele>174.0</ele><time>2026-05-03T09:33:54Z</time></trkpt><trkpt lat="53.971571506571024" lon="30.41473353931053"><ele>172.5</ele><time>2026-05-03T09:33:55Z</time></trkpt><trkpt lat="53.97158867160693" lon="30.414286261783012"><ele>171.0</ele><time>2026-05-03T09:33:56Z</time></trkpt><trkpt lat="53.971597669853196" lon="30.413843559327884"><ele>169.5</ele><time>2026-05-03T09:33:57Z</time></trkpt><trkpt lat="53.97160484671165" lon="30.413394913784902"><ele>168.0</ele><time>2026-05-03T09:33:58Z</time></trkpt><trkpt lat="53.971604132818264" lon="30.412936649814124"><ele>167.0</ele><time>2026-05-03T09:33:59Z</time></trkpt><trkpt lat="53.97160128535807" lon="30.412491156741563"><ele>166.0</ele><time>2026-05-03T09:34:00Z</time></trkpt><trkpt lat="53.97160455283676" lon="30.41202694900351"><ele>164.5</ele><time>2026-05-03T09:34:01Z</time></trkpt><trkpt lat="53.97161201881702" lon="30.411565035601903"><ele>163.0</ele><time>2026-05-03T09:34:02Z</time></trkpt><trkpt lat="53.971637725086886" lon="30.41109028213015"><ele>162.0</ele><time>2026-05-03T09:34:03Z</time></trkpt><trkpt lat="53.97167258311376" lon="30.410598254844274"><ele>161.0</ele><time>2026-05-03T09:34:04Z</time></trkpt><trkpt lat="53.97165568573909" lon="30.410279621479603"><ele>161.66666666666666</ele><time>2026-05-03T09:34:05Z</time></trkpt><trkpt lat="53.9716823724429" lon="30.409902454957912"><ele>162.33333333333334</ele><time>2026-05-03T09:34:06Z</time></trkpt><trkpt lat="53.971702358995714" lon="30.409546286882936"><ele>163.0</ele><time>2026-05-03T09:34:07Z</time></trkpt><trkpt lat="53.97173180550506" lon="30.40920466047423"><ele>163.0</ele><time>2026-05-03T09:34:08Z</time></trkpt><trkpt lat="53.9717745185635" lon="30.408885344524677"><ele>163.0</ele><time>2026-05-03T09:34:09Z</time></trkpt><trkpt lat="53.97183300843626" lon="30.408587409027852"><ele>163.0</ele><time>2026-05-03T09:34:10Z</time></trkpt><trkpt lat="53.9719034278098" lon="30.4083145999861"><ele>161.33333333333334</ele><time>2026-05-03T09:34:10.999Z</time></trkpt><trkpt lat="53.97198883073182" lon="30.408087970156213"><ele>159.66666666666666</ele><time>2026-05-03T09:34:11.999Z</time></trkpt><trkpt lat="53.972071587161444" lon="30.407849368986675"><ele>158.0</ele><time>2026-05-03T09:34:12.999Z</time></trkpt><trkpt lat="53.97215391622359" lon="30.407646563541203"><ele>157.0</ele><time>2026-05-03T09:34:13.999Z</time></trkpt><trkpt lat="53.9722346092247" lon="30.407457040166435"><ele>156.0</ele><time>2026-05-03T09:34:14.999Z</time></trkpt><trkpt lat="53.972314472093835" lon="30.40729297687974"><ele>155.0</ele><time>2026-05-03T09:34:15.999Z</time></trkpt><trkpt lat="53.97243549351197" lon="30.407223436534057"><ele>154.0</ele><time>2026-05-03T09:34:16.999Z</time></trkpt><trkpt lat="53.9725094293588" lon="30.40710045440262"><ele>155.16666666666669</ele><time>2026-05-03T09:34:17.999Z</time></trkpt><trkpt lat="53.97256273758992" lon="30.407012043851218"><ele>156.33333333333334</ele><time>2026-05-03T09:34:18.999Z</time></trkpt><trkpt lat="53.97260874954149" lon="30.406935626000603"><ele>157.5</ele><time>2026-05-03T09:34:20.999Z</time></trkpt><trkpt lat="53.972678880964196" lon="30.40701091281691"><ele>158.66666666666666</ele><time>2026-05-03T09:34:25.999Z</time></trkpt><trkpt lat="53.97271238210849" lon="30.407131919254677"><ele>159.83333333333331</ele><time>2026-05-03T09:34:33.999Z</time></trkpt><trkpt lat="53.97278737847155" lon="30.407179497992622"><ele>161.0</ele><time>2026-05-03T09:34:40.999Z</time></trkpt><trkpt lat="53.9728528088289" lon="30.407320420310867"><ele>161.66666666666666</ele><time>2026-05-03T09:34:43.999Z</time></trkpt><trkpt lat="53.972903227156614" lon="30.40740123397266"><ele>162.33333333333331</ele><time>2026-05-03T09:34:44.999Z</time></trkpt><trkpt lat="53.972957636204754" lon="30.4074880641592"><ele>163.0</ele><time>2026-05-03T09:34:45.999Z</time></trkpt><trkpt lat="53.97302663515723" lon="30.407575493406924"><ele>163.66666666666666</ele><time>2026-05-03T09:34:46.999Z</time></trkpt><trkpt lat="53.973085953293406" lon="30.407668185852945"><ele>164.33333333333334</ele><time>2026-05-03T09:34:47.999Z</time></trkpt><trkpt lat="53.97313750578875" lon="30.407757916531605"><ele>165.0</ele><time>2026-05-03T09:34:48.999Z</time></trkpt><trkpt lat="53.9731904197891" lon="30.40784878875295"><ele>165.6</ele><time>2026-05-03T09:34:49.999Z</time></trkpt><trkpt lat="53.97329106710301" lon="30.408024598967042"><ele>166.2</ele><time>2026-05-03T09:34:51.999Z</time></trkpt><trkpt lat="53.97334133004646" lon="30.408105088650956"><ele>166.8</ele><time>2026-05-03T09:34:52.999Z</time></trkpt><trkpt lat="53.97340998846801" lon="30.4082149986011"><ele>167.4</ele><time>2026-05-03T09:34:54.999Z</time></trkpt><trkpt lat="53.97345204520112" lon="30.40829869245878"><ele>168.0</ele><time>2026-05-03T09:34:55.999Z</time></trkpt><trkpt lat="53.97351891599029" lon="30.4084583972483"><ele>168.83333333333334</ele><time>2026-05-03T09:34:57.999Z</time></trkpt><trkpt lat="53.9735849348336" lon="30.408614665185382"><ele>169.66666666666666</ele><time>2026-05-03T09:34:59.999Z</time></trkpt><trkpt lat="53.973610924784126" lon="30.40871494545731"><ele>170.5</ele><time>2026-05-03T09:35:00.999Z</time></trkpt><trkpt lat="53.97365955098915" lon="30.40880436234742"><ele>171.33333333333331</ele><time>2026-05-03T09:35:01.999Z</time></trkpt><trkpt lat="53.97369905464568" lon="30.408889839152963"><ele>172.16666666666666</ele><time>2026-05-03T09:35:02.999Z</time></trkpt><trkpt lat="53.97374031508337" lon="30.408980956086342"><ele>173.0</ele><time>2026-05-03T09:35:03.999Z</time></trkpt><trkpt lat="53.97377625992024" lon="30.409085105048028"><ele>173.0</ele><time>2026-05-03T09:35:04.999Z</time></trkpt><trkpt lat="53.97381139704597" lon="30.409194549029795"><ele>173.0</ele><time>2026-05-03T09:35:05.999Z</time></trkpt><trkpt lat="53.97386677584856" lon="30.409284791007913"><ele>173.0</ele><time>2026-05-03T09:35:06.999Z</time></trkpt><trkpt lat="53.97390897698682" lon="30.40938507944612"><ele>173.0</ele><time>2026-05-03T09:35:07.999Z</time></trkpt><trkpt lat="53.973951024217065" lon="30.409485047769795"><ele>173.0</ele><time>2026-05-03T09:35:08.999Z</time></trkpt><trkpt lat="53.97399486538281" lon="30.40958929319093"><ele>173.0</ele><time>2026-05-03T09:35:09.999Z</time></trkpt><trkpt lat="53.97403793723968" lon="30.40969170968407"><ele>173.0</ele><time>2026-05-03T09:35:10.999Z</time></trkpt><trkpt lat="53.97408274262671" lon="30.409798220038674"><ele>173.2</ele><time>2026-05-03T09:35:11.999Z</time></trkpt><trkpt lat="53.97414328804658" lon="30.409942899647387"><ele>173.4</ele><time>2026-05-03T09:35:13.999Z</time></trkpt><trkpt lat="53.97421203913564" lon="30.410106367944387"><ele>173.6</ele><time>2026-05-03T09:35:15.999Z</time></trkpt><trkpt lat="53.97427630357681" lon="30.41025948146244"><ele>173.79999999999998</ele><time>2026-05-03T09:35:17.999Z</time></trkpt><trkpt lat="53.974320757558736" lon="30.4103646560628"><ele>174.0</ele><time>2026-05-03T09:35:19.998Z</time></trkpt><trkpt lat="53.974510332522335" lon="30.410264735533975"><ele>173.0</ele><time>2026-05-03T09:35:22.998Z</time></trkpt><trkpt lat="53.97460769558622" lon="30.410189835213608"><ele>172.0</ele><time>2026-05-03T09:35:24.998Z</time></trkpt><trkpt lat="53.97467181484251" lon="30.41012178100962"><ele>171.0</ele><time>2026-05-03T09:35:25.998Z</time></trkpt><trkpt lat="53.97475004397537" lon="30.410052962735104"><ele>170.0</ele><time>2026-05-03T09:35:26.998Z</time></trkpt><trkpt lat="53.97484392778629" lon="30.409978169822637"><ele>169.0</ele><time>2026-05-03T09:35:27.998Z</time></trkpt><trkpt lat="53.974933003415174" lon="30.409918416994604"><ele>169.0</ele><time>2026-05-03T09:35:28.998Z</time></trkpt><trkpt lat="53.975005575775825" lon="30.409874562907465"><ele>169.0</ele><time>2026-05-03T09:35:29.998Z</time></trkpt><trkpt lat="53.975074836395265" lon="30.409850256792573"><ele>169.0</ele><time>2026-05-03T09:35:31Z</time></trkpt><trkpt lat="53.975139299839306" lon="30.409834872767735"><ele>169.0</ele><time>2026-05-03T09:35:32Z</time></trkpt><trkpt lat="53.975243616694236" lon="30.409807373886466"><ele>169.0</ele><time>2026-05-03T09:35:34Z</time></trkpt><trkpt lat="53.97536061436434" lon="30.40981498726234"><ele>169.0</ele><time>2026-05-03T09:35:36Z</time></trkpt><trkpt lat="53.97548189759258" lon="30.409822397085733"><ele>169.5</ele><time>2026-05-03T09:35:38Z</time></trkpt><trkpt lat="53.97554922868628" lon="30.409845740756964"><ele>170.0</ele><time>2026-05-03T09:35:39Z</time></trkpt><trkpt lat="53.975618482629265" lon="30.409874299033547"><ele>170.5</ele><time>2026-05-03T09:35:40Z</time></trkpt><trkpt lat="53.97567900401257" lon="30.40992281328368"><ele>171.0</ele><time>2026-05-03T09:35:41Z</time></trkpt><trkpt lat="53.975760515877184" lon="30.409994344225026"><ele>171.5</ele><time>2026-05-03T09:35:43Z</time></trkpt><trkpt lat="53.97586097390278" lon="30.410056385427474"><ele>172.0</ele><time>2026-05-03T09:35:45Z</time></trkpt><trkpt lat="53.97592162801877" lon="30.410088803695587"><ele>173.0</ele><time>2026-05-03T09:35:46Z</time></trkpt><trkpt lat="53.975984795540086" lon="30.410113642196354"><ele>174.0</ele><time>2026-05-03T09:35:47Z</time></trkpt><trkpt lat="53.97604766339033" lon="30.41013541668497"><ele>175.0</ele><time>2026-05-03T09:35:48Z</time></trkpt><trkpt lat="53.97610972581587" lon="30.410156812615785"><ele>176.0</ele><time>2026-05-03T09:35:49Z</time></trkpt><trkpt lat="53.97622540833994" lon="30.4101835412793"><ele>177.0</ele><time>2026-05-03T09:35:51Z</time></trkpt><trkpt lat="53.976336707362805" lon="30.41020922020768"><ele>178.0</ele><time>2026-05-03T09:35:53Z</time></trkpt><trkpt lat="53.97645641690397" lon="30.410245218839293"><ele>178.0</ele><time>2026-05-03T09:35:55Z</time></trkpt><trkpt lat="53.9765671770168" lon="30.41028336332961"><ele>178.0</ele><time>2026-05-03T09:35:57Z</time></trkpt><trkpt lat="53.97665026620553" lon="30.410291513313126"><ele>178.0</ele><time>2026-05-03T09:35:59Z</time></trkpt><trkpt lat="53.97676746665608" lon="30.410261510720055"><ele>178.0</ele><time>2026-05-03T09:36:01Z</time></trkpt><trkpt lat="53.97688960878136" lon="30.410213435691844"><ele>178.0</ele><time>2026-05-03T09:36:03Z</time></trkpt><trkpt lat="53.97702336703457" lon="30.41015317491085"><ele>178.33333333333334</ele><time>2026-05-03T09:36:05Z</time></trkpt><trkpt lat="53.9770915255286" lon="30.4101187691989"><ele>178.66666666666669</ele><time>2026-05-03T09:36:06Z</time></trkpt><trkpt lat="53.97715737223305" lon="30.4100822768197"><ele>179.0</ele><time>2026-05-03T09:36:07Z</time></trkpt><trkpt lat="53.97725072002502" lon="30.410005569169055"><ele>179.33333333333334</ele><time>2026-05-03T09:36:09Z</time></trkpt><trkpt lat="53.977324502351514" lon="30.409913472272745"><ele>179.66666666666666</ele><time>2026-05-03T09:36:11Z</time></trkpt><trkpt lat="53.977377840521505" lon="30.409849149746847"><ele>180.0</ele><time>2026-05-03T09:36:12Z</time></trkpt><trkpt lat="53.97745324616427" lon="30.409757600808437"><ele>179.8</ele><time>2026-05-03T09:36:14Z</time></trkpt><trkpt lat="53.97748345937956" lon="30.409618905530692"><ele>179.6</ele><time>2026-05-03T09:36:16Z</time></trkpt><trkpt lat="53.97749750729118" lon="30.409447353526414"><ele>179.39999999999998</ele><time>2026-05-03T09:36:17.999Z</time></trkpt><trkpt lat="53.97752051896782" lon="30.409307547858162"><ele>179.2</ele><time>2026-05-03T09:36:19.999Z</time></trkpt><trkpt lat="53.97755847991514" lon="30.40913222343676"><ele>179.0</ele><time>2026-05-03T09:36:22.999Z</time></trkpt><trkpt lat="53.977601276060206" lon="30.408980551157644"><ele>179.42857142857144</ele><time>2026-05-03T09:36:25.999Z</time></trkpt><trkpt lat="53.977636873950615" lon="30.408871226732447"><ele>179.85714285714286</ele><time>2026-05-03T09:36:27.999Z</time></trkpt><trkpt lat="53.97766126198963" lon="30.40876801576069"><ele>180.28571428571428</ele><time>2026-05-03T09:36:29.999Z</time></trkpt><trkpt lat="53.97769631216403" lon="30.408655661176745"><ele>180.71428571428572</ele><time>2026-05-03T09:36:31.999Z</time></trkpt><trkpt lat="53.97776991952148" lon="30.408628860845234"><ele>181.14285714285714</ele><time>2026-05-03T09:36:34.999Z</time></trkpt><trkpt lat="53.97783475270609" lon="30.408581911654867"><ele>181.57142857142858</ele><time>2026-05-03T09:36:39.999Z</time></trkpt><trkpt lat="53.97786552335971" lon="30.408439213924748"><ele>182.0</ele><time>2026-05-03T09:36:41.999Z</time></trkpt><trkpt lat="53.97788884941465" lon="30.40833360549588"><ele>182.0</ele><time>2026-05-03T09:36:42.999Z</time></trkpt><trkpt lat="53.977956206298124" lon="30.408195885289896"><ele>182.0</ele><time>2026-05-03T09:36:44.999Z</time></trkpt><trkpt lat="53.97800832624436" lon="30.408062464997048"><ele>182.0</ele><time>2026-05-03T09:36:46.999Z</time></trkpt><trkpt lat="53.97804866321424" lon="30.407921907818462"><ele>182.0</ele><time>2026-05-03T09:36:48.999Z</time></trkpt><trkpt lat="53.97805839349148" lon="30.407809830815868"><ele>182.0</ele><time>2026-05-03T09:37:18.999Z</time></trkpt><trkpt lat="53.97798923401387" lon="30.407796096027013"><ele>182.0</ele><time>2026-05-03T09:43:02.999Z</time></trkpt><trkpt lat="53.97797639618274" lon="30.407918296645313"><ele>182.0</ele><time>2026-05-03T09:43:41.999Z</time></trkpt><trkpt lat="53.978000683595674" lon="30.408035522609932"><ele>182.0</ele><time>2026-05-03T09:43:48.999Z</time></trkpt><trkpt lat="53.977964076845836" lon="30.40818570372917"><ele>182.0</ele><time>2026-05-03T09:45:22.999Z</time></trkpt><trkpt lat="53.97792125059275" lon="30.408286491555224"><ele>182.0</ele><time>2026-05-03T09:45:23.999Z</time></trkpt><trkpt lat="53.97786752748536" lon="30.40841013846547"><ele>182.0</ele><time>2026-05-03T09:45:24.999Z</time></trkpt><trkpt lat="53.97782927824494" lon="30.408499294511472"><ele>182.0</ele><time>2026-05-03T09:45:25.999Z</time></trkpt><trkpt lat="53.97778433454955" lon="30.408600702312793"><ele>182.0</ele><time>2026-05-03T09:45:26.999Z</time></trkpt><trkpt lat="53.97773988597959" lon="30.408679656782663"><ele>182.0</ele><time>2026-05-03T09:45:27.999Z</time></trkpt><trkpt lat="53.97769320291721" lon="30.408787546336463"><ele>182.0</ele><time>2026-05-03T09:45:28.999Z</time></trkpt><trkpt lat="53.97765735904356" lon="30.40891291318194"><ele>182.0</ele><time>2026-05-03T09:45:29.999Z</time></trkpt><trkpt lat="53.977617603464665" lon="30.409032457625333"><ele>182.0</ele><time>2026-05-03T09:45:30.999Z</time></trkpt><trkpt lat="53.97759109069689" lon="30.409155817845885"><ele>182.0</ele><time>2026-05-03T09:45:31.999Z</time></trkpt><trkpt lat="53.977551197565916" lon="30.409327745513526"><ele>181.66666666666666</ele><time>2026-05-03T09:45:32.999Z</time></trkpt><trkpt lat="53.97751645636955" lon="30.409489907856198"><ele>181.33333333333331</ele><time>2026-05-03T09:45:33.999Z</time></trkpt><trkpt lat="53.977486295627884" lon="30.40958565334709"><ele>181.0</ele><time>2026-05-03T09:45:34.999Z</time></trkpt><trkpt lat="53.97740882714013" lon="30.409724632559925"><ele>180.66666666666666</ele><time>2026-05-03T09:45:36.999Z</time></trkpt><trkpt lat="53.97736323962188" lon="30.409815996412323"><ele>180.33333333333334</ele><time>2026-05-03T09:45:37.999Z</time></trkpt><trkpt lat="53.97729775821449" lon="30.409920458039263"><ele>180.0</ele><time>2026-05-03T09:45:39.999Z</time></trkpt><trkpt lat="53.97724159049205" lon="30.410009009863597"><ele>180.0</ele><time>2026-05-03T09:45:40.999Z</time></trkpt><trkpt lat="53.977169024239494" lon="30.410074013516876"><ele>180.0</ele><time>2026-05-03T09:45:42.999Z</time></trkpt><trkpt lat="53.97704898539635" lon="30.41014850470196"><ele>180.0</ele><time>2026-05-03T09:45:44.999Z</time></trkpt><trkpt lat="53.97696315874693" lon="30.41019298754588"><ele>180.0</ele><time>2026-05-03T09:45:45.999Z</time></trkpt><trkpt lat="53.97687063690209" lon="30.41023367399826"><ele>180.0</ele><time>2026-05-03T09:45:46.999Z</time></trkpt><trkpt lat="53.97678396987787" lon="30.410272090014242"><ele>180.0</ele><time>2026-05-03T09:45:47.999Z</time></trkpt><trkpt lat="53.97668671643623" lon="30.410307865858286"><ele>180.0</ele><time>2026-05-03T09:45:48.999Z</time></trkpt><trkpt lat="53.97660885826856" lon="30.410321830477205"><ele>180.0</ele><time>2026-05-03T09:45:49.999Z</time></trkpt><trkpt lat="53.976540289652014" lon="30.410298096630587"><ele>180.0</ele><time>2026-05-03T09:45:50.999Z</time></trkpt><trkpt lat="53.97646697264189" lon="30.41026456407499"><ele>180.0</ele><time>2026-05-03T09:45:51.999Z</time></trkpt><trkpt lat="53.976399821913155" lon="30.410235194934305"><ele>180.0</ele><time>2026-05-03T09:45:52.999Z</time></trkpt><trkpt lat="53.97629951996916" lon="30.41020334028898"><ele>179.6</ele><time>2026-05-03T09:45:53.999Z</time></trkpt><trkpt lat="53.976200815731545" lon="30.41017844039483"><ele>179.2</ele><time>2026-05-03T09:45:54.999Z</time></trkpt><trkpt lat="53.97608248169003" lon="30.41015325230375"><ele>178.8</ele><time>2026-05-03T09:45:55.999Z</time></trkpt><trkpt lat="53.97597978303545" lon="30.410127281917596"><ele>178.4</ele><time>2026-05-03T09:45:56.999Z</time></trkpt><trkpt lat="53.97590084033031" lon="30.410089127856764"><ele>178.0</ele><time>2026-05-03T09:45:57.999Z</time></trkpt><trkpt lat="53.97579157801027" lon="30.41002388245938"><ele>176.8</ele><time>2026-05-03T09:45:58.999Z</time></trkpt><trkpt lat="53.975677636548795" lon="30.409941701299825"><ele>175.60000000000002</ele><time>2026-05-03T09:46:00Z</time></trkpt><trkpt lat="53.975563639776105" lon="30.409864963034988"><ele>174.39999999999998</ele><time>2026-05-03T09:46:01Z</time></trkpt><trkpt lat="53.97547227629548" lon="30.409823516163815"><ele>173.2</ele><time>2026-05-03T09:46:02Z</time></trkpt><trkpt lat="53.97540403325115" lon="30.409819208569868"><ele>172.0</ele><time>2026-05-03T09:46:03Z</time></trkpt><trkpt lat="53.97533242467147" lon="30.409822996639672"><ele>172.0</ele><time>2026-05-03T09:46:04Z</time></trkpt><trkpt lat="53.97526297242874" lon="30.40982876132237"><ele>172.0</ele><time>2026-05-03T09:46:05Z</time></trkpt><trkpt lat="53.97518325135457" lon="30.409834218367678"><ele>172.0</ele><time>2026-05-03T09:46:06Z</time></trkpt><trkpt lat="53.975064621710644" lon="30.409871779206963"><ele>172.0</ele><time>2026-05-03T09:46:08Z</time></trkpt><trkpt lat="53.97497760352634" lon="30.409902627832032"><ele>172.0</ele><time>2026-05-03T09:46:10Z</time></trkpt><trkpt lat="53.974905726986776" lon="30.409955473749665"><ele>172.0</ele><time>2026-05-03T09:46:11Z</time></trkpt><trkpt lat="53.974795700900806" lon="30.41003722303237"><ele>171.5</ele><time>2026-05-03T09:46:12Z</time></trkpt><trkpt lat="53.974677502665045" lon="30.410099827071168"><ele>171.0</ele><time>2026-05-03T09:46:13Z</time></trkpt><trkpt lat="53.97459761559917" lon="30.410160670783053"><ele>170.5</ele><time>2026-05-03T09:46:14Z</time></trkpt><trkpt lat="53.97452716638456" lon="30.41022713179413"><ele>170.0</ele><time>2026-05-03T09:46:15Z</time></trkpt><trkpt lat="53.974458134312385" lon="30.41027223193974"><ele>169.5</ele><time>2026-05-03T09:46:16Z</time></trkpt><trkpt lat="53.97439617579066" lon="30.41030204236041"><ele>169.0</ele><time>2026-05-03T09:46:17Z</time></trkpt><trkpt lat="53.97428211968946" lon="30.410334881559685"><ele>169.0</ele><time>2026-05-03T09:46:19Z</time></trkpt><trkpt lat="53.974188561974394" lon="30.410299148668173"><ele>169.0</ele><time>2026-05-03T09:46:21Z</time></trkpt><trkpt lat="53.97410591223145" lon="30.410173143706583"><ele>169.0</ele><time>2026-05-03T09:46:23Z</time></trkpt><trkpt lat="53.97418182939198" lon="30.409937338659528"><ele>169.0</ele><time>2026-05-03T09:46:24Z</time></trkpt><trkpt lat="53.974129445210764" lon="30.409813518186127"><ele>169.66666666666669</ele><time>2026-05-03T09:46:25Z</time></trkpt><trkpt lat="53.97408486321941" lon="30.4097062140678"><ele>170.33333333333334</ele><time>2026-05-03T09:46:26Z</time></trkpt><trkpt lat="53.97403585319457" lon="30.409589662869838"><ele>171.0</ele><time>2026-05-03T09:46:27Z</time></trkpt><trkpt lat="53.973987402612956" lon="30.40947445731632"><ele>171.66666666666666</ele><time>2026-05-03T09:46:28Z</time></trkpt><trkpt lat="53.97393680157654" lon="30.409354148305226"><ele>172.33333333333331</ele><time>2026-05-03T09:46:29Z</time></trkpt><trkpt lat="53.97388145396031" lon="30.409222619510544"><ele>173.0</ele><time>2026-05-03T09:46:30Z</time></trkpt><trkpt lat="53.97381856138064" lon="30.409073160196204"><ele>173.0</ele><time>2026-05-03T09:46:31Z</time></trkpt><trkpt lat="53.97375631120765" lon="30.40892513538013"><ele>173.0</ele><time>2026-05-03T09:46:32Z</time></trkpt><trkpt lat="53.97370506884244" lon="30.408803198892485"><ele>173.0</ele><time>2026-05-03T09:46:33Z</time></trkpt><trkpt lat="53.97365752651077" lon="30.408690067340196"><ele>173.0</ele><time>2026-05-03T09:46:34Z</time></trkpt><trkpt lat="53.973580272535884" lon="30.40850682992555"><ele>173.0</ele><time>2026-05-03T09:46:36Z</time></trkpt><trkpt lat="53.973540238849736" lon="30.40841206933355"><ele>173.0</ele><time>2026-05-03T09:46:37Z</time></trkpt><trkpt lat="53.97347020515076" lon="30.40824473981074"><ele>173.0</ele><time>2026-05-03T09:46:39Z</time></trkpt><trkpt lat="53.97341723007055" lon="30.408149061610104"><ele>173.0</ele><time>2026-05-03T09:46:40Z</time></trkpt><trkpt lat="53.97333335984457" lon="30.408014799749346"><ele>173.0</ele><time>2026-05-03T09:46:42Z</time></trkpt><trkpt lat="53.97328633109248" lon="30.407939449373913"><ele>173.0</ele><time>2026-05-03T09:46:43Z</time></trkpt><trkpt lat="53.97321963793911" lon="30.407832373697378"><ele>171.4</ele><time>2026-05-03T09:46:44Z</time></trkpt><trkpt lat="53.973135746471314" lon="30.40769775604308"><ele>169.8</ele><time>2026-05-03T09:46:45Z</time></trkpt><trkpt lat="53.973074361590164" lon="30.407598417364"><ele>168.2</ele><time>2026-05-03T09:46:46Z</time></trkpt><trkpt lat="53.973010358162895" lon="30.407521148849543"><ele>166.6</ele><time>2026-05-03T09:46:47Z</time></trkpt><trkpt lat="53.97293594678064" lon="30.407413798542688"><ele>165.0</ele><time>2026-05-03T09:46:49Z</time></trkpt><trkpt lat="53.972890808322695" lon="30.407303654084174"><ele>165.0</ele><time>2026-05-03T09:46:51Z</time></trkpt><trkpt lat="53.97283478018371" lon="30.407213733258747"><ele>165.0</ele><time>2026-05-03T09:46:53.999Z</time></trkpt><trkpt lat="53.97278735767731" lon="30.407137197948796"><ele>165.0</ele><time>2026-05-03T09:46:58.999Z</time></trkpt><trkpt lat="53.972702629386035" lon="30.40701134393431"><ele>165.0</ele><time>2026-05-03T09:47:02.999Z</time></trkpt><trkpt lat="53.97264241230662" lon="30.406881120252617"><ele>165.0</ele><time>2026-05-03T09:47:04.999Z</time></trkpt><trkpt lat="53.97272410956225" lon="30.406780912382143"><ele>164.0</ele><time>2026-05-03T09:47:05.999Z</time></trkpt><trkpt lat="53.97281302609429" lon="30.40666525674342"><ele>163.0</ele><time>2026-05-03T09:47:07.999Z</time></trkpt><trkpt lat="53.97289144793676" lon="30.406564640413954"><ele>162.0</ele><time>2026-05-03T09:47:08.999Z</time></trkpt><trkpt lat="53.972997533664255" lon="30.406426734543135"><ele>161.0</ele><time>2026-05-03T09:47:09.999Z</time></trkpt><trkpt lat="53.9731108448492" lon="30.406280268932406"><ele>162.66666666666666</ele><time>2026-05-03T09:47:10.999Z</time></trkpt><trkpt lat="53.973240560176016" lon="30.406111572640725"><ele>164.33333333333334</ele><time>2026-05-03T09:47:11.999Z</time></trkpt><trkpt lat="53.97337939226106" lon="30.405931423143677"><ele>166.0</ele><time>2026-05-03T09:47:12.999Z</time></trkpt><trkpt lat="53.97351933211255" lon="30.405750356566482"><ele>166.0</ele><time>2026-05-03T09:47:13.999Z</time></trkpt><trkpt lat="53.97365219734465" lon="30.405578482875125"><ele>166.0</ele><time>2026-05-03T09:47:14.999Z</time></trkpt><trkpt lat="53.97379521618115" lon="30.405392817018413"><ele>166.0</ele><time>2026-05-03T09:47:15.999Z</time></trkpt><trkpt lat="53.97393828674664" lon="30.405207004941982"><ele>167.0</ele><time>2026-05-03T09:47:16.999Z</time></trkpt><trkpt lat="53.974096928347514" lon="30.405000970175642"><ele>168.0</ele><time>2026-05-03T09:47:17.999Z</time></trkpt><trkpt lat="53.97425019128183" lon="30.40480251030307"><ele>169.0</ele><time>2026-05-03T09:47:18.999Z</time></trkpt><trkpt lat="53.97440646503993" lon="30.404600621933913"><ele>165.33333333333334</ele><time>2026-05-03T09:47:19.999Z</time></trkpt><trkpt lat="53.97456883397775" lon="30.404389987058376"><ele>161.66666666666666</ele><time>2026-05-03T09:47:20.999Z</time></trkpt><trkpt lat="53.974728785847695" lon="30.404182937116577"><ele>158.0</ele><time>2026-05-03T09:47:21.999Z</time></trkpt><trkpt lat="53.97489301240977" lon="30.403976753290554"><ele>160.0</ele><time>2026-05-03T09:47:22.999Z</time></trkpt><trkpt lat="53.97504924019326" lon="30.403781494984432"><ele>162.0</ele><time>2026-05-03T09:47:23.999Z</time></trkpt><trkpt lat="53.97519283943384" lon="30.40360074489952"><ele>164.0</ele><time>2026-05-03T09:47:24.999Z</time></trkpt><trkpt lat="53.97534500299547" lon="30.40340957130364"><ele>164.0</ele><time>2026-05-03T09:47:25.999Z</time></trkpt><trkpt lat="53.97549731653453" lon="30.40321862166825"><ele>164.0</ele><time>2026-05-03T09:47:26.999Z</time></trkpt><trkpt lat="53.97563950629446" lon="30.40304033895136"><ele>164.0</ele><time>2026-05-03T09:47:27.999Z</time></trkpt><trkpt lat="53.97578669836717" lon="30.402856038561158"><ele>163.66666666666666</ele><time>2026-05-03T09:47:28.999Z</time></trkpt><trkpt lat="53.97593350386638" lon="30.40265917214507"><ele>163.33333333333334</ele><time>2026-05-03T09:47:29.999Z</time></trkpt><trkpt lat="53.976098566431986" lon="30.402478715658148"><ele>163.0</ele><time>2026-05-03T09:47:30.999Z</time></trkpt><trkpt lat="53.97626547980297" lon="30.40228945915744"><ele>161.33333333333334</ele><time>2026-05-03T09:47:31.999Z</time></trkpt><trkpt lat="53.97643914798281" lon="30.402096741450936"><ele>159.66666666666666</ele><time>2026-05-03T09:47:32.999Z</time></trkpt><trkpt lat="53.976613823789556" lon="30.40191279570349"><ele>158.0</ele><time>2026-05-03T09:47:33.999Z</time></trkpt><trkpt lat="53.976773976905946" lon="30.4017420837569"><ele>158.0</ele><time>2026-05-03T09:47:34.999Z</time></trkpt><trkpt lat="53.976923908799904" lon="30.401568871172053"><ele>158.0</ele><time>2026-05-03T09:47:35.999Z</time></trkpt><trkpt lat="53.97705883831267" lon="30.40145814741276"><ele>158.0</ele><time>2026-05-03T09:47:36.999Z</time></trkpt><trkpt lat="53.977198149639634" lon="30.401351405874912"><ele>156.0</ele><time>2026-05-03T09:47:37.999Z</time></trkpt><trkpt lat="53.977351248142455" lon="30.401260116488157"><ele>154.0</ele><time>2026-05-03T09:47:38.999Z</time></trkpt><trkpt lat="53.977512536178" lon="30.401183982540733"><ele>152.0</ele><time>2026-05-03T09:47:39.999Z</time></trkpt><trkpt lat="53.977688929621884" lon="30.401116812622387"><ele>152.0</ele><time>2026-05-03T09:47:40.999Z</time></trkpt><trkpt lat="53.97786449612706" lon="30.401079000454722"><ele>152.0</ele><time>2026-05-03T09:47:41.999Z</time></trkpt><trkpt lat="53.97805142141376" lon="30.401037209641768"><ele>152.0</ele><time>2026-05-03T09:47:42.999Z</time></trkpt><trkpt lat="53.97824257430719" lon="30.401002979569277"><ele>153.0</ele><time>2026-05-03T09:47:43.999Z</time></trkpt><trkpt lat="53.978429286838676" lon="30.400987284609585"><ele>154.0</ele><time>2026-05-03T09:47:44.999Z</time></trkpt><trkpt lat="53.97863783403932" lon="30.400925824408652"><ele>155.0</ele><time>2026-05-03T09:47:45.999Z</time></trkpt><trkpt lat="53.978839343096915" lon="30.40088176167033"><ele>155.0</ele><time>2026-05-03T09:47:46.999Z</time></trkpt><trkpt lat="53.979037308317096" lon="30.400837542290596"><ele>155.0</ele><time>2026-05-03T09:47:47.999Z</time></trkpt><trkpt lat="53.979241354514386" lon="30.40079575302688"><ele>155.0</ele><time>2026-05-03T09:47:48.999Z</time></trkpt><trkpt lat="53.97944346243441" lon="30.40075355020858"><ele>156.0</ele><time>2026-05-03T09:47:49.999Z</time></trkpt><trkpt lat="53.9796358765737" lon="30.400710810746542"><ele>157.0</ele><time>2026-05-03T09:47:50.999Z</time></trkpt><trkpt lat="53.979806106018835" lon="30.40066514788464"><ele>158.0</ele><time>2026-05-03T09:47:51.999Z</time></trkpt><trkpt lat="53.97999727891813" lon="30.400633860354272"><ele>158.33333333333331</ele><time>2026-05-03T09:47:52.999Z</time></trkpt><trkpt lat="53.980175348573795" lon="30.40059633328797"><ele>158.66666666666666</ele><time>2026-05-03T09:47:53.999Z</time></trkpt><trkpt lat="53.98032718812192" lon="30.40056846923321"><ele>159.0</ele><time>2026-05-03T09:47:54.999Z</time></trkpt><trkpt lat="53.98046558440149" lon="30.400540407796946"><ele>159.0</ele><time>2026-05-03T09:47:55.999Z</time></trkpt><trkpt lat="53.98058106135939" lon="30.400532746124036"><ele>159.0</ele><time>2026-05-03T09:47:56.999Z</time></trkpt><trkpt lat="53.980692082343424" lon="30.400521631257803"><ele>159.0</ele><time>2026-05-03T09:47:57.999Z</time></trkpt><trkpt lat="53.98078257092133" lon="30.400510825320097"><ele>159.0</ele><time>2026-05-03T09:47:58.999Z</time></trkpt><trkpt lat="53.98084594761182" lon="30.40049730384377"><ele>159.0</ele><time>2026-05-03T09:47:59.999Z</time></trkpt><trkpt lat="53.980923858368826" lon="30.400592633248138"><ele>158.2</ele><time>2026-05-03T09:48:00.999Z</time></trkpt><trkpt lat="53.9809529510489" lon="30.400734037617074"><ele>157.4</ele><time>2026-05-03T09:48:01.999Z</time></trkpt><trkpt lat="53.98102120021244" lon="30.400837038168813"><ele>156.6</ele><time>2026-05-03T09:48:02.999Z</time></trkpt><trkpt lat="53.981086078103296" lon="30.400970057819084"><ele>155.8</ele><time>2026-05-03T09:48:03.999Z</time></trkpt><trkpt lat="53.9811438754145" lon="30.401126033071716"><ele>155.0</ele><time>2026-05-03T09:48:04.999Z</time></trkpt><trkpt lat="53.98118196616066" lon="30.401288395511084"><ele>156.0</ele><time>2026-05-03T09:48:06Z</time></trkpt><trkpt lat="53.9812238089211" lon="30.401414450565753"><ele>157.0</ele><time>2026-05-03T09:48:07Z</time></trkpt><trkpt lat="53.981271719657265" lon="30.401542100219586"><ele>158.0</ele><time>2026-05-03T09:48:09Z</time></trkpt><trkpt lat="53.98129253308764" lon="30.40165972939589"><ele>159.0</ele><time>2026-05-03T09:48:11Z</time></trkpt><trkpt lat="53.981363350953664" lon="30.40177784790393"><ele>160.0</ele><time>2026-05-03T09:48:13Z</time></trkpt><trkpt lat="53.981410495178416" lon="30.40185219679802"><ele>161.0</ele><time>2026-05-03T09:48:14Z</time></trkpt><trkpt lat="53.98148845569777" lon="30.40191195248373"><ele>161.0</ele><time>2026-05-03T09:48:15Z</time></trkpt><trkpt lat="53.98150679687826" lon="30.402029164362435"><ele>161.0</ele><time>2026-05-03T09:48:16Z</time></trkpt><trkpt lat="53.98153217990283" lon="30.402192266274454"><ele>161.0</ele><time>2026-05-03T09:48:17Z</time></trkpt><trkpt lat="53.981423293089286" lon="30.402453332751186"><ele>161.0</ele><time>2026-05-03T09:48:18Z</time></trkpt><trkpt lat="53.98143574746881" lon="30.402703721454987"><ele>162.0</ele><time>2026-05-03T09:48:19Z</time></trkpt><trkpt lat="53.98144801336094" lon="30.402977342057042"><ele>163.0</ele><time>2026-05-03T09:48:20Z</time></trkpt><trkpt lat="53.98148085211715" lon="30.403271100749777"><ele>164.0</ele><time>2026-05-03T09:48:21Z</time></trkpt><trkpt lat="53.981529514964926" lon="30.403548981698627"><ele>164.0</ele><time>2026-05-03T09:48:22Z</time></trkpt><trkpt lat="53.981572450744416" lon="30.40379058504846"><ele>164.0</ele><time>2026-05-03T09:48:23Z</time></trkpt><trkpt lat="53.98163463851442" lon="30.403995051042457"><ele>164.0</ele><time>2026-05-03T09:48:24Z</time></trkpt><trkpt lat="53.9817204439475" lon="30.404158855684024"><ele>164.0</ele><time>2026-05-03T09:48:25Z</time></trkpt><trkpt lat="53.98180349756937" lon="30.404314141952653"><ele>166.25</ele><time>2026-05-03T09:48:26Z</time></trkpt><trkpt lat="53.98185759304539" lon="30.404501567607447"><ele>168.5</ele><time>2026-05-03T09:48:27Z</time></trkpt><trkpt lat="53.981905707882184" lon="30.40474498598242"><ele>170.75</ele><time>2026-05-03T09:48:28Z</time></trkpt><trkpt lat="53.981940151119204" lon="30.405028064069278"><ele>173.0</ele><time>2026-05-03T09:48:29Z</time></trkpt><trkpt lat="53.98197227015078" lon="30.405368162429106"><ele>172.0</ele><time>2026-05-03T09:48:30Z</time></trkpt><trkpt lat="53.98202878590414" lon="30.405755614187353"><ele>171.0</ele><time>2026-05-03T09:48:31Z</time></trkpt><trkpt lat="53.98209256658698" lon="30.40617018275948"><ele>171.0</ele><time>2026-05-03T09:48:32Z</time></trkpt><trkpt lat="53.98215952010389" lon="30.4066023501442"><ele>171.0</ele><time>2026-05-03T09:48:33Z</time></trkpt><trkpt lat="53.98222165622169" lon="30.40708141865462"><ele>171.0</ele><time>2026-05-03T09:48:34Z</time></trkpt><trkpt lat="53.98228389464881" lon="30.407598692333508"><ele>171.0</ele><time>2026-05-03T09:48:35Z</time></trkpt><trkpt lat="53.98234452782359" lon="30.408094221598024"><ele>171.0</ele><time>2026-05-03T09:48:36Z</time></trkpt><trkpt lat="53.982413550670394" lon="30.40861114384869"><ele>171.0</ele><time>2026-05-03T09:48:37Z</time></trkpt><trkpt lat="53.982486553284396" lon="30.409137438165015"><ele>175.5</ele><time>2026-05-03T09:48:38Z</time></trkpt><trkpt lat="53.98256573991513" lon="30.409672484388526"><ele>180.0</ele><time>2026-05-03T09:48:39Z</time></trkpt><trkpt lat="53.982646652321485" lon="30.41021896231582"><ele>179.5</ele><time>2026-05-03T09:48:40Z</time></trkpt><trkpt lat="53.98272408754115" lon="30.41076413938897"><ele>179.0</ele><time>2026-05-03T09:48:41Z</time></trkpt><trkpt lat="53.98280130984284" lon="30.411318798913175"><ele>178.0</ele><time>2026-05-03T09:48:42Z</time></trkpt><trkpt lat="53.982874307849876" lon="30.411874260330777"><ele>177.0</ele><time>2026-05-03T09:48:43Z</time></trkpt><trkpt lat="53.98294785362932" lon="30.412403935786127"><ele>176.0</ele><time>2026-05-03T09:48:44Z</time></trkpt><trkpt lat="53.98302373656274" lon="30.412931586567066"><ele>175.0</ele><time>2026-05-03T09:48:45Z</time></trkpt><trkpt lat="53.98309973678386" lon="30.413456277560613"><ele>174.0</ele><time>2026-05-03T09:48:46Z</time></trkpt><trkpt lat="53.98317888985571" lon="30.413980023635844"><ele>173.0</ele><time>2026-05-03T09:48:47Z</time></trkpt><trkpt lat="53.98325891849891" lon="30.41449714417571"><ele>172.5</ele><time>2026-05-03T09:48:48Z</time></trkpt><trkpt lat="53.9833402304422" lon="30.415019300464536"><ele>172.0</ele><time>2026-05-03T09:48:49Z</time></trkpt><trkpt lat="53.98342109320103" lon="30.415544356377243"><ele>175.5</ele><time>2026-05-03T09:48:50Z</time></trkpt><trkpt lat="53.9835049329218" lon="30.416062400409213"><ele>179.0</ele><time>2026-05-03T09:48:51Z</time></trkpt><trkpt lat="53.98358974259957" lon="30.416580092347512"><ele>179.0</ele><time>2026-05-03T09:48:52Z</time></trkpt><trkpt lat="53.98367724780078" lon="30.41709373950415"><ele>179.0</ele><time>2026-05-03T09:48:53Z</time></trkpt><trkpt lat="53.98376748042674" lon="30.417605348192808"><ele>176.5</ele><time>2026-05-03T09:48:54Z</time></trkpt><trkpt lat="53.98386362637532" lon="30.418114840436672"><ele>174.0</ele><time>2026-05-03T09:48:55Z</time></trkpt><trkpt lat="53.98396222113865" lon="30.41863108084083"><ele>174.5</ele><time>2026-05-03T09:48:56Z</time></trkpt><trkpt lat="53.98405704653858" lon="30.419140093425543"><ele>175.0</ele><time>2026-05-03T09:48:57Z</time></trkpt><trkpt lat="53.98414760459882" lon="30.419638624423737"><ele>176.5</ele><time>2026-05-03T09:48:58Z</time></trkpt><trkpt lat="53.98423974946987" lon="30.42013126396062"><ele>178.0</ele><time>2026-05-03T09:48:59Z</time></trkpt><trkpt lat="53.984334311679675" lon="30.42060517436812"><ele>175.0</ele><time>2026-05-03T09:49:00Z</time></trkpt><trkpt lat="53.98442764999485" lon="30.421082362692594"><ele>172.0</ele><time>2026-05-03T09:49:01Z</time></trkpt><trkpt lat="53.98452106074664" lon="30.42157519005287"><ele>171.0</ele><time>2026-05-03T09:49:01.999Z</time></trkpt><trkpt lat="53.98461322975831" lon="30.42207886403065"><ele>170.0</ele><time>2026-05-03T09:49:02.999Z</time></trkpt><trkpt lat="53.9847085497391" lon="30.42258558292607"><ele>171.0</ele><time>2026-05-03T09:49:03.999Z</time></trkpt><trkpt lat="53.98480573272433" lon="30.423094832602853"><ele>172.0</ele><time>2026-05-03T09:49:04.999Z</time></trkpt><trkpt lat="53.984898589424105" lon="30.423589663943936"><ele>171.5</ele><time>2026-05-03T09:49:05.998Z</time></trkpt><trkpt lat="53.984995368837666" lon="30.42408845965867"><ele>171.0</ele><time>2026-05-03T09:49:06.998Z</time></trkpt><trkpt lat="53.985093031808404" lon="30.424591563857316"><ele>171.5</ele><time>2026-05-03T09:49:07.998Z</time></trkpt><trkpt lat="53.985191102153216" lon="30.42509431345104"><ele>172.0</ele><time>2026-05-03T09:49:08.998Z</time></trkpt><trkpt lat="53.985284238151465" lon="30.425589840688637"><ele>172.0</ele><time>2026-05-03T09:49:09.998Z</time></trkpt><trkpt lat="53.98537874802711" lon="30.42609484833298"><ele>172.0</ele><time>2026-05-03T09:49:10.998Z</time></trkpt><trkpt lat="53.98548197503878" lon="30.42659823895216"><ele>171.5</ele><time>2026-05-03T09:49:11.998Z</time></trkpt><trkpt lat="53.98558265139289" lon="30.427100160481334"><ele>171.0</ele><time>2026-05-03T09:49:12.998Z</time></trkpt><trkpt lat="53.98567763491349" lon="30.42759793290675"><ele>171.5</ele><time>2026-05-03T09:49:13.998Z</time></trkpt><trkpt lat="53.985778103386096" lon="30.428100907149293"><ele>172.0</ele><time>2026-05-03T09:49:14.998Z</time></trkpt><trkpt lat="53.98587597153657" lon="30.42859907101102"><ele>175.0</ele><time>2026-05-03T09:49:15.998Z</time></trkpt><trkpt lat="53.985974856238045" lon="30.429097046146467"><ele>178.0</ele><time>2026-05-03T09:49:16.998Z</time></trkpt><trkpt lat="53.98607801116437" lon="30.429598650787128"><ele>180.5</ele><time>2026-05-03T09:49:17.998Z</time></trkpt><trkpt lat="53.98617431924256" lon="30.430101764154287"><ele>183.0</ele><time>2026-05-03T09:49:18.998Z</time></trkpt><trkpt lat="53.986269301997744" lon="30.43060731568696"><ele>183.5</ele><time>2026-05-03T09:49:19.998Z</time></trkpt><trkpt lat="53.98636217165908" lon="30.43111595854611"><ele>184.0</ele><time>2026-05-03T09:49:20.998Z</time></trkpt><trkpt lat="53.98646143040594" lon="30.43162132121701"><ele>184.5</ele><time>2026-05-03T09:49:21.998Z</time></trkpt><trkpt lat="53.98656273372144" lon="30.43212859457627"><ele>185.0</ele><time>2026-05-03T09:49:22.998Z</time></trkpt><trkpt lat="53.986667131292414" lon="30.432633315555062"><ele>186.5</ele><time>2026-05-03T09:49:23.998Z</time></trkpt><trkpt lat="53.98676566629489" lon="30.433143664394063"><ele>188.0</ele><time>2026-05-03T09:49:24.998Z</time></trkpt><trkpt lat="53.98686507358553" lon="30.433649128532"><ele>187.5</ele><time>2026-05-03T09:49:25.998Z</time></trkpt><trkpt lat="53.98695961535335" lon="30.43416409299595"><ele>187.0</ele><time>2026-05-03T09:49:26.998Z</time></trkpt><trkpt lat="53.98706406385858" lon="30.43466806057563"><ele>187.0</ele><time>2026-05-03T09:49:27.998Z</time></trkpt><trkpt lat="53.98716577476697" lon="30.435172665762384"><ele>187.0</ele><time>2026-05-03T09:49:28.998Z</time></trkpt><trkpt lat="53.98726631748144" lon="30.43568646893515"><ele>187.0</ele><time>2026-05-03T09:49:29.998Z</time></trkpt><trkpt lat="53.987365336372456" lon="30.436198417515467"><ele>187.0</ele><time>2026-05-03T09:49:30.998Z</time></trkpt><trkpt lat="53.987463262030076" lon="30.436711720344665"><ele>186.5</ele><time>2026-05-03T09:49:31.998Z</time></trkpt><trkpt lat="53.9875630120699" lon="30.437235656481974"><ele>186.0</ele><time>2026-05-03T09:49:32.998Z</time></trkpt><trkpt lat="53.98766606394369" lon="30.437757425727327"><ele>187.0</ele><time>2026-05-03T09:49:33.998Z</time></trkpt><trkpt lat="53.98776534493427" lon="30.438276389733215"><ele>188.0</ele><time>2026-05-03T09:49:34.998Z</time></trkpt><trkpt lat="53.98786435177219" lon="30.43880233311699"><ele>188.5</ele><time>2026-05-03T09:49:35.998Z</time></trkpt><trkpt lat="53.987967061157015" lon="30.43932496745077"><ele>189.0</ele><time>2026-05-03T09:49:36.998Z</time></trkpt><trkpt lat="53.98807438853761" lon="30.439854238406017"><ele>189.5</ele><time>2026-05-03T09:49:37.998Z</time></trkpt><trkpt lat="53.98817838522087" lon="30.440382026511436"><ele>190.0</ele><time>2026-05-03T09:49:38.998Z</time></trkpt><trkpt lat="53.98827623577953" lon="30.44091761493223"><ele>188.5</ele><time>2026-05-03T09:49:39.998Z</time></trkpt><trkpt lat="53.98837974061191" lon="30.44143569578404"><ele>187.0</ele><time>2026-05-03T09:49:40.998Z</time></trkpt><trkpt lat="53.98848249366771" lon="30.441978009139774"><ele>188.0</ele><time>2026-05-03T09:49:41.998Z</time></trkpt><trkpt lat="53.988584513359505" lon="30.442517472271156"><ele>189.0</ele><time>2026-05-03T09:49:42.998Z</time></trkpt><trkpt lat="53.98868943678691" lon="30.443027721003663"><ele>189.5</ele><time>2026-05-03T09:49:43.998Z</time></trkpt><trkpt lat="53.98879450526934" lon="30.443573076134662"><ele>190.0</ele><time>2026-05-03T09:49:44.998Z</time></trkpt><trkpt lat="53.98889909984149" lon="30.44410302916139"><ele>190.5</ele><time>2026-05-03T09:49:45.998Z</time></trkpt><trkpt lat="53.98900621672617" lon="30.444641230177652"><ele>191.0</ele><time>2026-05-03T09:49:46.998Z</time></trkpt><trkpt lat="53.98911272839814" lon="30.445171528507704"><ele>191.0</ele><time>2026-05-03T09:49:47.998Z</time></trkpt><trkpt lat="53.98922497582148" lon="30.445708467835406"><ele>191.0</ele><time>2026-05-03T09:49:48.998Z</time></trkpt><trkpt lat="53.98931865784199" lon="30.446251537490376"><ele>191.0</ele><time>2026-05-03T09:49:49.998Z</time></trkpt><trkpt lat="53.98942896077429" lon="30.44678861042328"><ele>191.0</ele><time>2026-05-03T09:49:50.998Z</time></trkpt><trkpt lat="53.98953258141965" lon="30.447336399977882"><ele>191.5</ele><time>2026-05-03T09:49:51.998Z</time></trkpt><trkpt lat="53.989637832159126" lon="30.447878569265626"><ele>192.0</ele><time>2026-05-03T09:49:52.998Z</time></trkpt><trkpt lat="53.98974296206454" lon="30.44842046720795"><ele>192.0</ele><time>2026-05-03T09:49:53.998Z</time></trkpt><trkpt lat="53.989847785764944" lon="30.44896387580233"><ele>192.0</ele><time>2026-05-03T09:49:54.998Z</time></trkpt><trkpt lat="53.989947911476705" lon="30.44950819912204"><ele>192.0</ele><time>2026-05-03T09:49:55.998Z</time></trkpt><trkpt lat="53.99004229134225" lon="30.45006086176651"><ele>192.0</ele><time>2026-05-03T09:49:56.998Z</time></trkpt><trkpt lat="53.99013049771747" lon="30.45062143557425"><ele>192.5</ele><time>2026-05-03T09:49:57.998Z</time></trkpt><trkpt lat="53.99021281415978" lon="30.451176169806004"><ele>193.0</ele><time>2026-05-03T09:49:58.998Z</time></trkpt><trkpt lat="53.99029090732466" lon="30.451735149031947"><ele>193.5</ele><time>2026-05-03T09:49:59.998Z</time></trkpt><trkpt lat="53.99036627701777" lon="30.45229300034861"><ele>194.0</ele><time>2026-05-03T09:50:00.998Z</time></trkpt><trkpt lat="53.99043892377584" lon="30.4528568420348"><ele>194.0</ele><time>2026-05-03T09:50:01.998Z</time></trkpt><trkpt lat="53.9905074019199" lon="30.453414172430726"><ele>194.0</ele><time>2026-05-03T09:50:02.998Z</time></trkpt><trkpt lat="53.99058149371707" lon="30.453981003979578"><ele>194.5</ele><time>2026-05-03T09:50:03.998Z</time></trkpt><trkpt lat="53.99065124435934" lon="30.45453975323051"><ele>195.0</ele><time>2026-05-03T09:50:04.998Z</time></trkpt><trkpt lat="53.99072369497983" lon="30.45510687576513"><ele>195.5</ele><time>2026-05-03T09:50:05.998Z</time></trkpt><trkpt lat="53.99077454102259" lon="30.45566536211064"><ele>196.0</ele><time>2026-05-03T09:50:06.998Z</time></trkpt><trkpt lat="53.990821323394435" lon="30.456228857562238"><ele>196.0</ele><time>2026-05-03T09:50:07.998Z</time></trkpt><trkpt lat="53.99085611793061" lon="30.456786718921443"><ele>196.0</ele><time>2026-05-03T09:50:08.998Z</time></trkpt><trkpt lat="53.9908914484409" lon="30.457350677258553"><ele>195.5</ele><time>2026-05-03T09:50:09.998Z</time></trkpt><trkpt lat="53.99092322203106" lon="30.457911866525905"><ele>195.0</ele><time>2026-05-03T09:50:10.998Z</time></trkpt><trkpt lat="53.99094859479667" lon="30.45847704012787"><ele>195.0</ele><time>2026-05-03T09:50:11.999Z</time></trkpt><trkpt lat="53.99097695006652" lon="30.45903518248981"><ele>195.0</ele><time>2026-05-03T09:50:12.999Z</time></trkpt><trkpt lat="53.99100587667516" lon="30.459592116343153"><ele>195.5</ele><time>2026-05-03T09:50:13.999Z</time></trkpt><trkpt lat="53.991028715872254" lon="30.460145659912683"><ele>196.0</ele><time>2026-05-03T09:50:14.999Z</time></trkpt><trkpt lat="53.99104295765785" lon="30.46070468356299"><ele>196.0</ele><time>2026-05-03T09:50:15.999Z</time></trkpt><trkpt lat="53.99105426814536" lon="30.461212658695835"><ele>196.0</ele><time>2026-05-03T09:50:16.999Z</time></trkpt><trkpt lat="53.991062761139666" lon="30.46167898884165"><ele>196.5</ele><time>2026-05-03T09:50:17.999Z</time></trkpt><trkpt lat="53.99107013934349" lon="30.462128585896664"><ele>197.0</ele><time>2026-05-03T09:50:18.999Z</time></trkpt><trkpt lat="53.99107312569031" lon="30.46255376137014"><ele>197.0</ele><time>2026-05-03T09:50:19.999Z</time></trkpt><trkpt lat="53.99107049392715" lon="30.46296271993342"><ele>197.0</ele><time>2026-05-03T09:50:20.999Z</time></trkpt><trkpt lat="53.99107652929655" lon="30.463376558169305"><ele>197.0</ele><time>2026-05-03T09:50:21.999Z</time></trkpt><trkpt lat="53.99108671036982" lon="30.463758632234324"><ele>197.0</ele><time>2026-05-03T09:50:22.999Z</time></trkpt><trkpt lat="53.991091502668134" lon="30.464100060925464"><ele>197.0</ele><time>2026-05-03T09:50:23.999Z</time></trkpt><trkpt lat="53.99109927197111" lon="30.46442077530448"><ele>197.0</ele><time>2026-05-03T09:50:24.999Z</time></trkpt><trkpt lat="53.99110016679702" lon="30.464726700544272"><ele>197.0</ele><time>2026-05-03T09:50:25.999Z</time></trkpt><trkpt lat="53.991101424111186" lon="30.465015477919696"><ele>197.0</ele><time>2026-05-03T09:50:26.999Z</time></trkpt><trkpt lat="53.99110730927861" lon="30.465288254817633"><ele>197.0</ele><time>2026-05-03T09:50:27.999Z</time></trkpt><trkpt lat="53.991108131469375" lon="30.46553831977484"><ele>197.0</ele><time>2026-05-03T09:50:28.999Z</time></trkpt><trkpt lat="53.99111341951495" lon="30.46577136689791"><ele>197.0</ele><time>2026-05-03T09:50:29.999Z</time></trkpt><trkpt lat="53.991113457313894" lon="30.465994580025015"><ele>197.0</ele><time>2026-05-03T09:50:30.999Z</time></trkpt><trkpt lat="53.99111673998084" lon="30.466207565006222"><ele>197.0</ele><time>2026-05-03T09:50:31.999Z</time></trkpt><trkpt lat="53.9911234136956" lon="30.466401522419318"><ele>197.0</ele><time>2026-05-03T09:50:32.999Z</time></trkpt><trkpt lat="53.99113280090989" lon="30.466589717146142"><ele>197.0</ele><time>2026-05-03T09:50:33.999Z</time></trkpt><trkpt lat="53.9911318113455" lon="30.46680583951833"><ele>197.0</ele><time>2026-05-03T09:50:34.999Z</time></trkpt><trkpt lat="53.99112929903904" lon="30.467025067014596"><ele>197.25</ele><time>2026-05-03T09:50:35.999Z</time></trkpt><trkpt lat="53.99106608721595" lon="30.467227276892267"><ele>197.5</ele><time>2026-05-03T09:50:36.999Z</time></trkpt><trkpt lat="53.99101617117184" lon="30.467402047109882"><ele>197.75</ele><time>2026-05-03T09:50:37.999Z</time></trkpt><trkpt lat="53.990949304478896" lon="30.46755197237221"><ele>198.0</ele><time>2026-05-03T09:50:38.999Z</time></trkpt><trkpt lat="53.990880326240735" lon="30.46767649357286"><ele>198.0</ele><time>2026-05-03T09:50:39.999Z</time></trkpt><trkpt lat="53.99079777333927" lon="30.46777443912922"><ele>198.0</ele><time>2026-05-03T09:50:40.999Z</time></trkpt><trkpt lat="53.99069705814836" lon="30.467848736919247"><ele>198.0</ele><time>2026-05-03T09:50:41.999Z</time></trkpt><trkpt lat="53.99058486998487" lon="30.46788240852478"><ele>198.0</ele><time>2026-05-03T09:50:42.999Z</time></trkpt><trkpt lat="53.99048166534929" lon="30.46787756151051"><ele>198.0</ele><time>2026-05-03T09:50:43.999Z</time></trkpt><trkpt lat="53.990379193262065" lon="30.4678268589333"><ele>198.0</ele><time>2026-05-03T09:50:44.999Z</time></trkpt><trkpt lat="53.99028607767901" lon="30.467755544844344"><ele>198.0</ele><time>2026-05-03T09:50:45.999Z</time></trkpt><trkpt lat="53.99019851665675" lon="30.467668119034805"><ele>198.0</ele><time>2026-05-03T09:50:46.999Z</time></trkpt><trkpt lat="53.99012629042093" lon="30.46754916989217"><ele>198.0</ele><time>2026-05-03T09:50:47.999Z</time></trkpt><trkpt lat="53.990072219246485" lon="30.4674119765214"><ele>198.0</ele><time>2026-05-03T09:50:48.999Z</time></trkpt><trkpt lat="53.99003895453471" lon="30.467274843244144"><ele>198.0</ele><time>2026-05-03T09:50:49.999Z</time></trkpt><trkpt lat="53.99001719250228" lon="30.46711167084537"><ele>198.0</ele><time>2026-05-03T09:50:50.999Z</time></trkpt><trkpt lat="53.99001315550613" lon="30.46695472731857"><ele>198.0</ele><time>2026-05-03T09:50:51.999Z</time></trkpt><trkpt lat="53.99002082798302" lon="30.46678346206551"><ele>198.0</ele><time>2026-05-03T09:50:52.999Z</time></trkpt><trkpt lat="53.99004421049261" lon="30.466619795713534"><ele>198.0</ele><time>2026-05-03T09:50:53.999Z</time></trkpt><trkpt lat="53.99008947250553" lon="30.466445277464416"><ele>197.8</ele><time>2026-05-03T09:50:54.999Z</time></trkpt><trkpt lat="53.99015205062969" lon="30.466300167307413"><ele>197.60000000000002</ele><time>2026-05-03T09:50:55.999Z</time></trkpt><trkpt lat="53.990230820190945" lon="30.466180533471807"><ele>197.39999999999998</ele><time>2026-05-03T09:50:56.999Z</time></trkpt><trkpt lat="53.99031707249781" lon="30.466092304194312"><ele>197.2</ele><time>2026-05-03T09:50:57.999Z</time></trkpt><trkpt lat="53.99041278648312" lon="30.4660407617281"><ele>197.0</ele><time>2026-05-03T09:50:58.999Z</time></trkpt><trkpt lat="53.9905129561621" lon="30.46601607116178"><ele>197.0</ele><time>2026-05-03T09:50:59.999Z</time></trkpt><trkpt lat="53.990631238995526" lon="30.466002108963327"><ele>197.0</ele><time>2026-05-03T09:51:00.999Z</time></trkpt><trkpt lat="53.99074850291668" lon="30.466000582647208"><ele>197.0</ele><time>2026-05-03T09:51:01.999Z</time></trkpt><trkpt lat="53.990865432951715" lon="30.465988044872006"><ele>197.0</ele><time>2026-05-03T09:51:02.999Z</time></trkpt><trkpt lat="53.990993218311" lon="30.465978009345392"><ele>197.0</ele><time>2026-05-03T09:51:03.999Z</time></trkpt><trkpt lat="53.99114047426367" lon="30.465971517766153"><ele>197.0</ele><time>2026-05-03T09:51:04.999Z</time></trkpt><trkpt lat="53.99129499032239" lon="30.465964945910653"><ele>197.0</ele><time>2026-05-03T09:51:05.999Z</time></trkpt><trkpt lat="53.991448847621605" lon="30.465961430621594"><ele>197.0</ele><time>2026-05-03T09:51:06.999Z</time></trkpt><trkpt lat="53.99160531816464" lon="30.46594642507191"><ele>197.0</ele><time>2026-05-03T09:51:07.999Z</time></trkpt><trkpt lat="53.99175899368457" lon="30.465937971661276"><ele>197.0</ele><time>2026-05-03T09:51:08.999Z</time></trkpt><trkpt lat="53.991908654718706" lon="30.46592731014536"><ele>196.33333333333334</ele><time>2026-05-03T09:51:09.999Z</time></trkpt><trkpt lat="53.99206850613172" lon="30.46591578226579"><ele>195.66666666666669</ele><time>2026-05-03T09:51:10.999Z</time></trkpt><trkpt lat="53.99223058243827" lon="30.46589798172278"><ele>195.0</ele><time>2026-05-03T09:51:11.999Z</time></trkpt><trkpt lat="53.992401520712306" lon="30.465873023937284"><ele>195.0</ele><time>2026-05-03T09:51:12.999Z</time></trkpt><trkpt lat="53.99257750550659" lon="30.465846056043777"><ele>195.0</ele><time>2026-05-03T09:51:13.999Z</time></trkpt><trkpt lat="53.992759346321634" lon="30.465816070668296"><ele>195.0</ele><time>2026-05-03T09:51:14.999Z</time></trkpt><trkpt lat="53.99294265467863" lon="30.465786483102036"><ele>195.0</ele><time>2026-05-03T09:51:15.999Z</time></trkpt><trkpt lat="53.99312830006607" lon="30.46576201175036"><ele>195.0</ele><time>2026-05-03T09:51:16.999Z</time></trkpt><trkpt lat="53.99330266044234" lon="30.465731222573794"><ele>195.0</ele><time>2026-05-03T09:51:17.999Z</time></trkpt><trkpt lat="53.99347192441978" lon="30.465704745692328"><ele>195.0</ele><time>2026-05-03T09:51:18.999Z</time></trkpt><trkpt lat="53.993648684637016" lon="30.465672079814148"><ele>195.0</ele><time>2026-05-03T09:51:19.999Z</time></trkpt><trkpt lat="53.9938358587189" lon="30.465638589200818"><ele>195.0</ele><time>2026-05-03T09:51:20.999Z</time></trkpt><trkpt lat="53.9940222367628" lon="30.465613253022298"><ele>195.0</ele><time>2026-05-03T09:51:21.999Z</time></trkpt><trkpt lat="53.99421406989099" lon="30.465598630300914"><ele>195.0</ele><time>2026-05-03T09:51:22.999Z</time></trkpt><trkpt lat="53.99438678126264" lon="30.465589242784095"><ele>195.0</ele><time>2026-05-03T09:51:23.999Z</time></trkpt><trkpt lat="53.99454991456139" lon="30.465580096979302"><ele>195.0</ele><time>2026-05-03T09:51:24.999Z</time></trkpt><trkpt lat="53.99470881436142" lon="30.46556502167985"><ele>195.0</ele><time>2026-05-03T09:51:25.999Z</time></trkpt><trkpt lat="53.994885635292576" lon="30.465553307896915"><ele>195.0</ele><time>2026-05-03T09:51:26.999Z</time></trkpt><trkpt lat="53.99507670169538" lon="30.465536253585423"><ele>194.66666666666669</ele><time>2026-05-03T09:51:27.999Z</time></trkpt><trkpt lat="53.99528291466637" lon="30.465527162208783"><ele>194.33333333333334</ele><time>2026-05-03T09:51:28.999Z</time></trkpt><trkpt lat="53.99548921188137" lon="30.4655126862204"><ele>194.0</ele><time>2026-05-03T09:51:29.999Z</time></trkpt><trkpt lat="53.99570870029345" lon="30.46549999667511"><ele>194.0</ele><time>2026-05-03T09:51:30.999Z</time></trkpt><trkpt lat="53.99592989646604" lon="30.4654829412498"><ele>194.0</ele><time>2026-05-03T09:51:31.999Z</time></trkpt><trkpt lat="53.99615215499326" lon="30.465461243499913"><ele>194.0</ele><time>2026-05-03T09:51:32.999Z</time></trkpt><trkpt lat="53.99637527379427" lon="30.465438690936328"><ele>194.0</ele><time>2026-05-03T09:51:33.999Z</time></trkpt><trkpt lat="53.99659926778431" lon="30.465414556677967"><ele>194.0</ele><time>2026-05-03T09:51:34.999Z</time></trkpt><trkpt lat="53.9968165856212" lon="30.4653915565133"><ele>194.0</ele><time>2026-05-03T09:51:35.999Z</time></trkpt><trkpt lat="53.99702511424515" lon="30.465378864934188"><ele>194.0</ele><time>2026-05-03T09:51:36.999Z</time></trkpt><trkpt lat="53.99722772743594" lon="30.465371679161205"><ele>194.0</ele><time>2026-05-03T09:51:37.999Z</time></trkpt><trkpt lat="53.99742583457617" lon="30.46536905248205"><ele>194.0</ele><time>2026-05-03T09:51:38.999Z</time></trkpt><trkpt lat="53.99762102573371" lon="30.46535595760934"><ele>193.33333333333334</ele><time>2026-05-03T09:51:39.999Z</time></trkpt><trkpt lat="53.99780849371205" lon="30.46534653897398"><ele>192.66666666666669</ele><time>2026-05-03T09:51:40.999Z</time></trkpt><trkpt lat="53.99799828387705" lon="30.465330777663056"><ele>192.0</ele><time>2026-05-03T09:51:41.999Z</time></trkpt><trkpt lat="53.99819877644862" lon="30.465316087719295"><ele>191.33333333333334</ele><time>2026-05-03T09:51:42.999Z</time></trkpt><trkpt lat="53.99839749376377" lon="30.465304496575907"><ele>190.66666666666669</ele><time>2026-05-03T09:51:43.999Z</time></trkpt><trkpt lat="53.998586721679445" lon="30.465302783802688"><ele>190.0</ele><time>2026-05-03T09:51:44.999Z</time></trkpt><trkpt lat="53.998765401470386" lon="30.46528693941459"><ele>190.0</ele><time>2026-05-03T09:51:45.999Z</time></trkpt><trkpt lat="53.99893913791712" lon="30.46527891179399"><ele>190.0</ele><time>2026-05-03T09:51:46.999Z</time></trkpt><trkpt lat="53.99911514987131" lon="30.46527733513851"><ele>190.0</ele><time>2026-05-03T09:51:47.999Z</time></trkpt><trkpt lat="53.99930153066349" lon="30.46527237972839"><ele>188.66666666666669</ele><time>2026-05-03T09:51:48.999Z</time></trkpt><trkpt lat="53.999495189502824" lon="30.465259664370834"><ele>187.33333333333334</ele><time>2026-05-03T09:51:49.999Z</time></trkpt><trkpt lat="53.99968510910853" lon="30.465243994361593"><ele>186.0</ele><time>2026-05-03T09:51:50.998Z</time></trkpt><trkpt lat="53.999877173927665" lon="30.46523039513784"><ele>186.0</ele><time>2026-05-03T09:51:51.998Z</time></trkpt><trkpt lat="54.00006845585235" lon="30.465218823401834"><ele>186.0</ele><time>2026-05-03T09:51:52.998Z</time></trkpt><trkpt lat="54.000260935628134" lon="30.46520889164501"><ele>186.0</ele><time>2026-05-03T09:51:53.998Z</time></trkpt><trkpt lat="54.00045248112857" lon="30.465205319374054"><ele>186.0</ele><time>2026-05-03T09:51:54.998Z</time></trkpt><trkpt lat="54.000651006480375" lon="30.465197058012283"><ele>186.0</ele><time>2026-05-03T09:51:55.998Z</time></trkpt><trkpt lat="54.000852290700735" lon="30.465180298725336"><ele>186.0</ele><time>2026-05-03T09:51:56.998Z</time></trkpt><trkpt lat="54.00105500974907" lon="30.465162580282104"><ele>186.0</ele><time>2026-05-03T09:51:57.998Z</time></trkpt><trkpt lat="54.00126591423972" lon="30.465147724639916"><ele>186.0</ele><time>2026-05-03T09:51:58.998Z</time></trkpt><trkpt lat="54.00147383754974" lon="30.46514035201118"><ele>186.0</ele><time>2026-05-03T09:51:59.998Z</time></trkpt><trkpt lat="54.00169033974091" lon="30.46513084574057"><ele>186.66666666666666</ele><time>2026-05-03T09:52:00.998Z</time></trkpt><trkpt lat="54.00191115816254" lon="30.46512555249529"><ele>187.33333333333331</ele><time>2026-05-03T09:52:01.998Z</time></trkpt><trkpt lat="54.0021379303604" lon="30.465106280093117"><ele>188.0</ele><time>2026-05-03T09:52:02.998Z</time></trkpt><trkpt lat="54.002366806932855" lon="30.465089362267864"><ele>187.0</ele><time>2026-05-03T09:52:03.998Z</time></trkpt><trkpt lat="54.00260271186815" lon="30.465065455038207"><ele>186.0</ele><time>2026-05-03T09:52:04.998Z</time></trkpt><trkpt lat="54.00283430583558" lon="30.465035440902014"><ele>186.0</ele><time>2026-05-03T09:52:05.998Z</time></trkpt><trkpt lat="54.00307251224419" lon="30.465007242946843"><ele>186.0</ele><time>2026-05-03T09:52:06.998Z</time></trkpt><trkpt lat="54.00331113259153" lon="30.464997601227665"><ele>185.0</ele><time>2026-05-03T09:52:07.998Z</time></trkpt><trkpt lat="54.0035653604225" lon="30.464976794841835"><ele>184.0</ele><time>2026-05-03T09:52:08.998Z</time></trkpt><trkpt lat="54.003825463012525" lon="30.46495712395663"><ele>184.0</ele><time>2026-05-03T09:52:09.998Z</time></trkpt><trkpt lat="54.00408247622297" lon="30.464948496427667"><ele>184.0</ele><time>2026-05-03T09:52:10.998Z</time></trkpt><trkpt lat="54.0043485027398" lon="30.46493378925678"><ele>181.5</ele><time>2026-05-03T09:52:11.998Z</time></trkpt><trkpt lat="54.00460994748853" lon="30.464936399505437"><ele>179.0</ele><time>2026-05-03T09:52:12.998Z</time></trkpt><trkpt lat="54.00486278705311" lon="30.46492737696292"><ele>178.5</ele><time>2026-05-03T09:52:13.998Z</time></trkpt><trkpt lat="54.00511530878342" lon="30.464921505536513"><ele>178.0</ele><time>2026-05-03T09:52:14.998Z</time></trkpt><trkpt lat="54.0053733712542" lon="30.464907163276838"><ele>178.0</ele><time>2026-05-03T09:52:15.998Z</time></trkpt><trkpt lat="54.00563902861435" lon="30.46487985609802"><ele>178.0</ele><time>2026-05-03T09:52:17Z</time></trkpt><trkpt lat="54.00589547488333" lon="30.46486765479786"><ele>178.0</ele><time>2026-05-03T09:52:18Z</time></trkpt><trkpt lat="54.00615836937127" lon="30.46485469953234"><ele>178.0</ele><time>2026-05-03T09:52:19Z</time></trkpt><trkpt lat="54.00642143094531" lon="30.4648430031851"><ele>177.5</ele><time>2026-05-03T09:52:20Z</time></trkpt><trkpt lat="54.00668261939237" lon="30.46482999138383"><ele>177.0</ele><time>2026-05-03T09:52:21Z</time></trkpt><trkpt lat="54.00694843522713" lon="30.46481080623162"><ele>177.0</ele><time>2026-05-03T09:52:22Z</time></trkpt><trkpt lat="54.007214014335254" lon="30.46479267676097"><ele>177.0</ele><time>2026-05-03T09:52:23Z</time></trkpt><trkpt lat="54.00747519708224" lon="30.464776040038572"><ele>177.5</ele><time>2026-05-03T09:52:24Z</time></trkpt><trkpt lat="54.00773811207919" lon="30.464763519952"><ele>178.0</ele><time>2026-05-03T09:52:25Z</time></trkpt><trkpt lat="54.007999821782256" lon="30.46474860961653"><ele>178.0</ele><time>2026-05-03T09:52:26Z</time></trkpt><trkpt lat="54.00826220943573" lon="30.464732392868587"><ele>178.0</ele><time>2026-05-03T09:52:27Z</time></trkpt><trkpt lat="54.008527644512796" lon="30.464714954369658"><ele>180.5</ele><time>2026-05-03T09:52:28Z</time></trkpt><trkpt lat="54.00879129869915" lon="30.464705892169142"><ele>183.0</ele><time>2026-05-03T09:52:29Z</time></trkpt><trkpt lat="54.009059725515584" lon="30.464695443213124"><ele>188.0</ele><time>2026-05-03T09:52:30Z</time></trkpt><trkpt lat="54.00933056011925" lon="30.464672110661688"><ele>193.0</ele><time>2026-05-03T09:52:31Z</time></trkpt><trkpt lat="54.00960195094746" lon="30.46466185859096"><ele>193.0</ele><time>2026-05-03T09:52:32Z</time></trkpt><trkpt lat="54.0098709325966" lon="30.464641317127438"><ele>193.0</ele><time>2026-05-03T09:52:33Z</time></trkpt><trkpt lat="54.01014351313874" lon="30.464628554599884"><ele>196.0</ele><time>2026-05-03T09:52:34Z</time></trkpt><trkpt lat="54.010412299300036" lon="30.464612519173315"><ele>199.0</ele><time>2026-05-03T09:52:35Z</time></trkpt><trkpt lat="54.010682550802905" lon="30.46459430052514"><ele>199.0</ele><time>2026-05-03T09:52:36Z</time></trkpt><trkpt lat="54.01095600118071" lon="30.464586074586403"><ele>199.0</ele><time>2026-05-03T09:52:37Z</time></trkpt><trkpt lat="54.01123395423403" lon="30.46457321655464"><ele>199.0</ele><time>2026-05-03T09:52:38Z</time></trkpt><trkpt lat="54.01150645745471" lon="30.464555724348806"><ele>199.0</ele><time>2026-05-03T09:52:39Z</time></trkpt><trkpt lat="54.01176784799385" lon="30.46453899632308"><ele>198.5</ele><time>2026-05-03T09:52:40Z</time></trkpt><trkpt lat="54.01203779787472" lon="30.46452242164689"><ele>198.0</ele><time>2026-05-03T09:52:41Z</time></trkpt><trkpt lat="54.01230964881384" lon="30.46449917391845"><ele>197.5</ele><time>2026-05-03T09:52:42Z</time></trkpt><trkpt lat="54.01258428275271" lon="30.464478408065514"><ele>197.0</ele><time>2026-05-03T09:52:43Z</time></trkpt><trkpt lat="54.01286217410384" lon="30.46446330821727"><ele>197.0</ele><time>2026-05-03T09:52:44Z</time></trkpt><trkpt lat="54.01314205589503" lon="30.464444445519725"><ele>197.0</ele><time>2026-05-03T09:52:45Z</time></trkpt><trkpt lat="54.013422555722414" lon="30.464428702378942"><ele>196.5</ele><time>2026-05-03T09:52:46Z</time></trkpt><trkpt lat="54.01370408488562" lon="30.46441983086047"><ele>196.0</ele><time>2026-05-03T09:52:47Z</time></trkpt><trkpt lat="54.013988191698985" lon="30.46441003824584"><ele>196.0</ele><time>2026-05-03T09:52:47.999Z</time></trkpt><trkpt lat="54.01427206638219" lon="30.464392294673278"><ele>196.0</ele><time>2026-05-03T09:52:48.999Z</time></trkpt><trkpt lat="54.01455839070817" lon="30.464373520738377"><ele>196.0</ele><time>2026-05-03T09:52:49.999Z</time></trkpt><trkpt lat="54.01484841864507" lon="30.464360269788646"><ele>196.0</ele><time>2026-05-03T09:52:50.999Z</time></trkpt><trkpt lat="54.01513761101578" lon="30.464342712071826"><ele>197.0</ele><time>2026-05-03T09:52:51.999Z</time></trkpt><trkpt lat="54.01542592235548" lon="30.464321487935955"><ele>198.0</ele><time>2026-05-03T09:52:52.999Z</time></trkpt><trkpt lat="54.01571417646854" lon="30.464300757554337"><ele>199.0</ele><time>2026-05-03T09:52:53.999Z</time></trkpt><trkpt lat="54.01599492770937" lon="30.46427256878377"><ele>200.0</ele><time>2026-05-03T09:52:54.999Z</time></trkpt><trkpt lat="54.016283524180444" lon="30.464261735514242"><ele>200.0</ele><time>2026-05-03T09:52:55.999Z</time></trkpt><trkpt lat="54.01657765160204" lon="30.46425357270312"><ele>200.0</ele><time>2026-05-03T09:52:56.999Z</time></trkpt><trkpt lat="54.01687178460382" lon="30.464240684082686"><ele>200.5</ele><time>2026-05-03T09:52:57.999Z</time></trkpt><trkpt lat="54.01716154476008" lon="30.46422067020873"><ele>201.0</ele><time>2026-05-03T09:52:58.999Z</time></trkpt><trkpt lat="54.017455504290794" lon="30.464198741938183"><ele>201.5</ele><time>2026-05-03T09:52:59.999Z</time></trkpt><trkpt lat="54.017749067896574" lon="30.46418745132392"><ele>202.0</ele><time>2026-05-03T09:53:00.999Z</time></trkpt><trkpt lat="54.01804078646701" lon="30.46417397749734"><ele>201.0</ele><time>2026-05-03T09:53:01.999Z</time></trkpt><trkpt lat="54.01833522019972" lon="30.464156997256435"><ele>200.0</ele><time>2026-05-03T09:53:02.999Z</time></trkpt><trkpt lat="54.01863242127076" lon="30.464140506148834"><ele>200.0</ele><time>2026-05-03T09:53:03.999Z</time></trkpt><trkpt lat="54.018925172410746" lon="30.464120219810038"><ele>200.0</ele><time>2026-05-03T09:53:04.999Z</time></trkpt><trkpt lat="54.019223735441" lon="30.464100832238707"><ele>201.0</ele><time>2026-05-03T09:53:05.999Z</time></trkpt><trkpt lat="54.01951881965555" lon="30.46408780916408"><ele>202.0</ele><time>2026-05-03T09:53:06.999Z</time></trkpt><trkpt lat="54.01981594240832" lon="30.464074537653104"><ele>202.0</ele><time>2026-05-03T09:53:07.999Z</time></trkpt><trkpt lat="54.0201150225112" lon="30.46405762577234"><ele>202.0</ele><time>2026-05-03T09:53:08.999Z</time></trkpt><trkpt lat="54.02041181456087" lon="30.464040605472007"><ele>202.0</ele><time>2026-05-03T09:53:09.999Z</time></trkpt><trkpt lat="54.02071125249737" lon="30.46401789851617"><ele>202.0</ele><time>2026-05-03T09:53:10.999Z</time></trkpt><trkpt lat="54.02101251015703" lon="30.464002156935365"><ele>201.0</ele><time>2026-05-03T09:53:11.999Z</time></trkpt><trkpt lat="54.02131321046799" lon="30.463984572875834"><ele>200.0</ele><time>2026-05-03T09:53:12.999Z</time></trkpt><trkpt lat="54.02161283262303" lon="30.463964236306033"><ele>199.5</ele><time>2026-05-03T09:53:13.999Z</time></trkpt><trkpt lat="54.02191503283538" lon="30.463941383462856"><ele>199.0</ele><time>2026-05-03T09:53:14.999Z</time></trkpt><trkpt lat="54.02221801106849" lon="30.463932237625222"><ele>198.5</ele><time>2026-05-03T09:53:15.999Z</time></trkpt><trkpt lat="54.022519475021085" lon="30.46391977171894"><ele>198.0</ele><time>2026-05-03T09:53:16.999Z</time></trkpt><trkpt lat="54.022823466658586" lon="30.463904825635353"><ele>198.0</ele><time>2026-05-03T09:53:17.999Z</time></trkpt><trkpt lat="54.02312553619355" lon="30.46388550765348"><ele>198.0</ele><time>2026-05-03T09:53:18.999Z</time></trkpt><trkpt lat="54.02342665848905" lon="30.463868722441983"><ele>198.5</ele><time>2026-05-03T09:53:19.999Z</time></trkpt><trkpt lat="54.02372520591813" lon="30.463853346778098"><ele>199.0</ele><time>2026-05-03T09:53:20.999Z</time></trkpt><trkpt lat="54.02402448637999" lon="30.463843588429338"><ele>198.5</ele><time>2026-05-03T09:53:21.999Z</time></trkpt><trkpt lat="54.02432323947756" lon="30.46382574275731"><ele>198.0</ele><time>2026-05-03T09:53:22.999Z</time></trkpt><trkpt lat="54.02462307789922" lon="30.463797092527237"><ele>198.5</ele><time>2026-05-03T09:53:23.999Z</time></trkpt><trkpt lat="54.02492286457568" lon="30.463773921719273"><ele>199.0</ele><time>2026-05-03T09:53:24.999Z</time></trkpt><trkpt lat="54.02522085364835" lon="30.46375236140353"><ele>199.0</ele><time>2026-05-03T09:53:25.999Z</time></trkpt><trkpt lat="54.02551577104517" lon="30.46373166005809"><ele>199.0</ele><time>2026-05-03T09:53:26.999Z</time></trkpt><trkpt lat="54.025810459903056" lon="30.46370880757621"><ele>197.0</ele><time>2026-05-03T09:53:27.999Z</time></trkpt><trkpt lat="54.02610533667288" lon="30.46369296125957"><ele>195.0</ele><time>2026-05-03T09:53:28.999Z</time></trkpt><trkpt lat="54.02640820061598" lon="30.46368570160141"><ele>191.5</ele><time>2026-05-03T09:53:29.999Z</time></trkpt><trkpt lat="54.02670131051881" lon="30.46367376744721"><ele>188.0</ele><time>2026-05-03T09:53:30.999Z</time></trkpt><trkpt lat="54.0269816747313" lon="30.463659648773245"><ele>188.0</ele><time>2026-05-03T09:53:31.999Z</time></trkpt><trkpt lat="54.0272365261988" lon="30.46364417787111"><ele>188.0</ele><time>2026-05-03T09:53:32.999Z</time></trkpt><trkpt lat="54.02747776785952" lon="30.46363144634984"><ele>189.5</ele><time>2026-05-03T09:53:33.999Z</time></trkpt><trkpt lat="54.027718891473" lon="30.463616390220814"><ele>191.0</ele><time>2026-05-03T09:53:34.999Z</time></trkpt><trkpt lat="54.027958517392214" lon="30.463607044504652"><ele>191.0</ele><time>2026-05-03T09:53:35.999Z</time></trkpt><trkpt lat="54.028197600125736" lon="30.463598666948034"><ele>191.0</ele><time>2026-05-03T09:53:36.999Z</time></trkpt><trkpt lat="54.028435605069106" lon="30.463583537012724"><ele>189.0</ele><time>2026-05-03T09:53:37.999Z</time></trkpt><trkpt lat="54.02867446156741" lon="30.463570769930847"><ele>187.0</ele><time>2026-05-03T09:53:38.999Z</time></trkpt><trkpt lat="54.028913395953616" lon="30.463550099821365"><ele>187.0</ele><time>2026-05-03T09:53:39.999Z</time></trkpt><trkpt lat="54.02915324106876" lon="30.463537729590637"><ele>187.0</ele><time>2026-05-03T09:53:40.999Z</time></trkpt><trkpt lat="54.029393229289866" lon="30.463521656017587"><ele>187.0</ele><time>2026-05-03T09:53:41.999Z</time></trkpt><trkpt lat="54.02963165218797" lon="30.46350700309706"><ele>187.0</ele><time>2026-05-03T09:53:42.999Z</time></trkpt><trkpt lat="54.029866981915575" lon="30.46350096125966"><ele>187.0</ele><time>2026-05-03T09:53:43.999Z</time></trkpt><trkpt lat="54.03009251163004" lon="30.46348646757458"><ele>187.0</ele><time>2026-05-03T09:53:44.999Z</time></trkpt><trkpt lat="54.030309885138074" lon="30.463473887432656"><ele>187.0</ele><time>2026-05-03T09:53:45.999Z</time></trkpt><trkpt lat="54.03052592144732" lon="30.463464603853758"><ele>187.0</ele><time>2026-05-03T09:53:46.999Z</time></trkpt><trkpt lat="54.03070746941875" lon="30.46345576009727"><ele>187.0</ele><time>2026-05-03T09:53:47.999Z</time></trkpt><trkpt lat="54.03084070755281" lon="30.46344341281853"><ele>187.0</ele><time>2026-05-03T09:53:48.999Z</time></trkpt><trkpt lat="54.03097329003199" lon="30.463437794819995"><ele>187.0</ele><time>2026-05-03T09:53:49.999Z</time></trkpt><trkpt lat="54.03110993176719" lon="30.46342327296607"><ele>187.5</ele><time>2026-05-03T09:53:50.999Z</time></trkpt><trkpt lat="54.03125109532374" lon="30.463417663809885"><ele>188.0</ele><time>2026-05-03T09:53:51.999Z</time></trkpt><trkpt lat="54.03139105307061" lon="30.46340690495958"><ele>188.5</ele><time>2026-05-03T09:53:52.999Z</time></trkpt><trkpt lat="54.03153774264202" lon="30.46339839853134"><ele>189.0</ele><time>2026-05-03T09:53:53.999Z</time></trkpt><trkpt lat="54.03168644171994" lon="30.463389824613625"><ele>189.0</ele><time>2026-05-03T09:53:54.999Z</time></trkpt><trkpt lat="54.0318314056724" lon="30.463383039487876"><ele>189.0</ele><time>2026-05-03T09:53:55.999Z</time></trkpt><trkpt lat="54.031975441201716" lon="30.46337308204131"><ele>189.0</ele><time>2026-05-03T09:53:56.999Z</time></trkpt><trkpt lat="54.03211500442007" lon="30.463368394318984"><ele>189.0</ele><time>2026-05-03T09:53:57.999Z</time></trkpt><trkpt lat="54.032255349992965" lon="30.463365383847556"><ele>189.0</ele><time>2026-05-03T09:53:58.999Z</time></trkpt><trkpt lat="54.03240567092763" lon="30.463357228736854"><ele>189.0</ele><time>2026-05-03T09:53:59.999Z</time></trkpt><trkpt lat="54.03255871292748" lon="30.463348424089464"><ele>189.0</ele><time>2026-05-03T09:54:00.999Z</time></trkpt><trkpt lat="54.03271329585225" lon="30.46333819805688"><ele>188.33333333333334</ele><time>2026-05-03T09:54:01.999Z</time></trkpt><trkpt lat="54.0328805153133" lon="30.463327567953737"><ele>187.66666666666669</ele><time>2026-05-03T09:54:02.999Z</time></trkpt><trkpt lat="54.03304201272669" lon="30.463312888778695"><ele>187.0</ele><time>2026-05-03T09:54:03.999Z</time></trkpt><trkpt lat="54.033196631218146" lon="30.463299959799272"><ele>186.33333333333334</ele><time>2026-05-03T09:54:04.999Z</time></trkpt><trkpt lat="54.03334823443886" lon="30.463289597548254"><ele>185.66666666666666</ele><time>2026-05-03T09:54:05.999Z</time></trkpt><trkpt lat="54.03351493423591" lon="30.463286012832704"><ele>185.0</ele><time>2026-05-03T09:54:06.999Z</time></trkpt><trkpt lat="54.03366657851507" lon="30.463273929975248"><ele>185.0</ele><time>2026-05-03T09:54:07.999Z</time></trkpt><trkpt lat="54.033831503018156" lon="30.46326777395929"><ele>185.0</ele><time>2026-05-03T09:54:08.999Z</time></trkpt><trkpt lat="54.03399121256057" lon="30.463262337278696"><ele>185.0</ele><time>2026-05-03T09:54:09.999Z</time></trkpt><trkpt lat="54.0341370045108" lon="30.46325423690607"><ele>184.33333333333331</ele><time>2026-05-03T09:54:10.998Z</time></trkpt><trkpt lat="54.0342908847844" lon="30.46324876902982"><ele>183.66666666666666</ele><time>2026-05-03T09:54:11.998Z</time></trkpt><trkpt lat="54.03445902883561" lon="30.463227939480333"><ele>183.0</ele><time>2026-05-03T09:54:12.998Z</time></trkpt><trkpt lat="54.03460267464997" lon="30.46323536497858"><ele>183.0</ele><time>2026-05-03T09:54:13.998Z</time></trkpt><trkpt lat="54.0347576004725" lon="30.46321879433401"><ele>183.0</ele><time>2026-05-03T09:54:14.998Z</time></trkpt><trkpt lat="54.03490855970789" lon="30.46321490762256"><ele>183.0</ele><time>2026-05-03T09:54:15.998Z</time></trkpt><trkpt lat="54.03506667633433" lon="30.463198413792647"><ele>182.33333333333334</ele><time>2026-05-03T09:54:16.998Z</time></trkpt><trkpt lat="54.035220596054316" lon="30.463194036165117"><ele>181.66666666666669</ele><time>2026-05-03T09:54:17.998Z</time></trkpt><trkpt lat="54.0353778026066" lon="30.46318410244996"><ele>181.0</ele><time>2026-05-03T09:54:18.998Z</time></trkpt><trkpt lat="54.03553110663924" lon="30.463167881449138"><ele>181.0</ele><time>2026-05-03T09:54:19.998Z</time></trkpt><trkpt lat="54.03568716287453" lon="30.463173238728633"><ele>181.0</ele><time>2026-05-03T09:54:20.998Z</time></trkpt><trkpt lat="54.03584803649985" lon="30.46315747907586"><ele>181.0</ele><time>2026-05-03T09:54:21.998Z</time></trkpt><trkpt lat="54.0360119008698" lon="30.463135835614217"><ele>179.66666666666669</ele><time>2026-05-03T09:54:23Z</time></trkpt><trkpt lat="54.03617149770399" lon="30.463126041202365"><ele>178.33333333333334</ele><time>2026-05-03T09:54:24Z</time></trkpt><trkpt lat="54.03633297084795" lon="30.46312364203944"><ele>177.0</ele><time>2026-05-03T09:54:25Z</time></trkpt><trkpt lat="54.036497805864585" lon="30.463113646732953"><ele>176.0</ele><time>2026-05-03T09:54:26Z</time></trkpt><trkpt lat="54.036663992245444" lon="30.463102872727323"><ele>175.0</ele><time>2026-05-03T09:54:27Z</time></trkpt><trkpt lat="54.03682687024736" lon="30.463081592493843"><ele>174.0</ele><time>2026-05-03T09:54:28Z</time></trkpt><trkpt lat="54.03699110199706" lon="30.463081127926994"><ele>174.0</ele><time>2026-05-03T09:54:29Z</time></trkpt><trkpt lat="54.03715993624162" lon="30.46306919693544"><ele>174.0</ele><time>2026-05-03T09:54:30Z</time></trkpt><trkpt lat="54.03732777849591" lon="30.463061537081877"><ele>174.0</ele><time>2026-05-03T09:54:31Z</time></trkpt><trkpt lat="54.037493270283505" lon="30.46304256778671"><ele>173.0</ele><time>2026-05-03T09:54:32Z</time></trkpt><trkpt lat="54.03766937548748" lon="30.463042652585536"><ele>172.0</ele><time>2026-05-03T09:54:33Z</time></trkpt><trkpt lat="54.03784255663937" lon="30.463023602512035"><ele>171.0</ele><time>2026-05-03T09:54:34Z</time></trkpt><trkpt lat="54.038019283941004" lon="30.463012467794496"><ele>171.0</ele><time>2026-05-03T09:54:35Z</time></trkpt><trkpt lat="54.03819834370497" lon="30.46299816002249"><ele>171.0</ele><time>2026-05-03T09:54:36Z</time></trkpt><trkpt lat="54.038376507013396" lon="30.46298764700874"><ele>171.0</ele><time>2026-05-03T09:54:37Z</time></trkpt><trkpt lat="54.03855957782353" lon="30.46298495520208"><ele>170.0</ele><time>2026-05-03T09:54:38Z</time></trkpt><trkpt lat="54.038741766541975" lon="30.46297078926651"><ele>169.0</ele><time>2026-05-03T09:54:39Z</time></trkpt><trkpt lat="54.03891909788824" lon="30.46296179377856"><ele>168.0</ele><time>2026-05-03T09:54:40Z</time></trkpt><trkpt lat="54.0390988224016" lon="30.462950510686937"><ele>166.33333333333334</ele><time>2026-05-03T09:54:41Z</time></trkpt><trkpt lat="54.039269327281794" lon="30.462939667453565"><ele>164.66666666666669</ele><time>2026-05-03T09:54:42Z</time></trkpt><trkpt lat="54.039433340996275" lon="30.4629327520606"><ele>163.0</ele><time>2026-05-03T09:54:43Z</time></trkpt><trkpt lat="54.03958397570329" lon="30.462928104535305"><ele>163.0</ele><time>2026-05-03T09:54:44Z</time></trkpt><trkpt lat="54.039755646249105" lon="30.462918570615045"><ele>163.0</ele><time>2026-05-03T09:54:45Z</time></trkpt><trkpt lat="54.03991943641356" lon="30.462913362986093"><ele>163.0</ele><time>2026-05-03T09:54:46Z</time></trkpt><trkpt lat="54.04007685561981" lon="30.462907028000867"><ele>163.66666666666669</ele><time>2026-05-03T09:54:47Z</time></trkpt><trkpt lat="54.040236310648375" lon="30.462893132215424"><ele>164.33333333333334</ele><time>2026-05-03T09:54:48Z</time></trkpt><trkpt lat="54.040388153745425" lon="30.46288577480037"><ele>165.0</ele><time>2026-05-03T09:54:49Z</time></trkpt><trkpt lat="54.04054653489606" lon="30.462875217257647"><ele>165.0</ele><time>2026-05-03T09:54:50Z</time></trkpt><trkpt lat="54.040700184178746" lon="30.462863265243286"><ele>165.0</ele><time>2026-05-03T09:54:51Z</time></trkpt><trkpt lat="54.04085523219365" lon="30.4628552302761"><ele>165.0</ele><time>2026-05-03T09:54:52Z</time></trkpt><trkpt lat="54.04101826785335" lon="30.46284778288457"><ele>167.0</ele><time>2026-05-03T09:54:53Z</time></trkpt><trkpt lat="54.04117286768242" lon="30.46283869379077"><ele>169.0</ele><time>2026-05-03T09:54:54Z</time></trkpt><trkpt lat="54.04133462064446" lon="30.46282799470178"><ele>171.0</ele><time>2026-05-03T09:54:55Z</time></trkpt><trkpt lat="54.04149753918266" lon="30.462826967864657"><ele>172.66666666666666</ele><time>2026-05-03T09:54:56Z</time></trkpt><trkpt lat="54.041656929384224" lon="30.46282328193686"><ele>174.33333333333331</ele><time>2026-05-03T09:54:57Z</time></trkpt><trkpt lat="54.04181469444182" lon="30.4628109880284"><ele>176.0</ele><time>2026-05-03T09:54:58Z</time></trkpt><trkpt lat="54.041974683242415" lon="30.462799865694173"><ele>176.0</ele><time>2026-05-03T09:54:58.999Z</time></trkpt><trkpt lat="54.0421322682002" lon="30.46279051708976"><ele>176.0</ele><time>2026-05-03T09:54:59.999Z</time></trkpt><trkpt lat="54.0422874504375" lon="30.462775563164687"><ele>176.0</ele><time>2026-05-03T09:55:00.999Z</time></trkpt><trkpt lat="54.04242554619399" lon="30.46278404462398"><ele>176.75</ele><time>2026-05-03T09:55:01.999Z</time></trkpt><trkpt lat="54.04256804305101" lon="30.462771964054905"><ele>177.5</ele><time>2026-05-03T09:55:02.999Z</time></trkpt><trkpt lat="54.042718326612025" lon="30.462755367356564"><ele>178.25</ele><time>2026-05-03T09:55:03.999Z</time></trkpt><trkpt lat="54.04287032447294" lon="30.46274590899468"><ele>179.0</ele><time>2026-05-03T09:55:04.999Z</time></trkpt><trkpt lat="54.04302617644075" lon="30.462738052077377"><ele>179.0</ele><time>2026-05-03T09:55:05.999Z</time></trkpt><trkpt lat="54.04318012251808" lon="30.46273522794279"><ele>179.0</ele><time>2026-05-03T09:55:06.999Z</time></trkpt><trkpt lat="54.04333193264903" lon="30.462733146324823"><ele>179.0</ele><time>2026-05-03T09:55:07.999Z</time></trkpt><trkpt lat="54.04349056511" lon="30.462725158733953"><ele>179.66666666666666</ele><time>2026-05-03T09:55:08.999Z</time></trkpt><trkpt lat="54.04365341146348" lon="30.462720899933327"><ele>180.33333333333334</ele><time>2026-05-03T09:55:09.999Z</time></trkpt><trkpt lat="54.04381258268438" lon="30.46272085106318"><ele>181.0</ele><time>2026-05-03T09:55:10.999Z</time></trkpt><trkpt lat="54.04394167457993" lon="30.462717268276837"><ele>181.0</ele><time>2026-05-03T09:55:11.999Z</time></trkpt><trkpt lat="54.044046235894875" lon="30.462699336868365"><ele>181.0</ele><time>2026-05-03T09:55:12.999Z</time></trkpt><trkpt lat="54.044147026187126" lon="30.462693873029156"><ele>181.0</ele><time>2026-05-03T09:55:13.999Z</time></trkpt><trkpt lat="54.04424639339809" lon="30.462694480050462"><ele>181.0</ele><time>2026-05-03T09:55:14.999Z</time></trkpt><trkpt lat="54.044346494231874" lon="30.46268998210124"><ele>181.0</ele><time>2026-05-03T09:55:15.999Z</time></trkpt><trkpt lat="54.044453542162124" lon="30.462686786500345"><ele>181.0</ele><time>2026-05-03T09:55:16.999Z</time></trkpt><trkpt lat="54.0445695467839" lon="30.46267095405939"><ele>181.0</ele><time>2026-05-03T09:55:17.999Z</time></trkpt><trkpt lat="54.04469506860751" lon="30.462656585994385"><ele>181.0</ele><time>2026-05-03T09:55:18.999Z</time></trkpt><trkpt lat="54.04483841429239" lon="30.46264946378835"><ele>181.0</ele><time>2026-05-03T09:55:19.999Z</time></trkpt><trkpt lat="54.04499217404546" lon="30.46264383275011"><ele>181.66666666666669</ele><time>2026-05-03T09:55:20.999Z</time></trkpt><trkpt lat="54.04516350079772" lon="30.46263508071798"><ele>182.33333333333334</ele><time>2026-05-03T09:55:21.999Z</time></trkpt><trkpt lat="54.045344301623885" lon="30.462621636170432"><ele>183.0</ele><time>2026-05-03T09:55:22.999Z</time></trkpt><trkpt lat="54.04554040896433" lon="30.46260839175987"><ele>183.0</ele><time>2026-05-03T09:55:23.999Z</time></trkpt><trkpt lat="54.04574541652647" lon="30.462596996836325"><ele>183.0</ele><time>2026-05-03T09:55:24.999Z</time></trkpt><trkpt lat="54.045959793685455" lon="30.462586923013745"><ele>183.0</ele><time>2026-05-03T09:55:25.999Z</time></trkpt><trkpt lat="54.046189339445526" lon="30.46257650874888"><ele>180.0</ele><time>2026-05-03T09:55:26.999Z</time></trkpt><trkpt lat="54.04641593470806" lon="30.46256794146737"><ele>177.0</ele><time>2026-05-03T09:55:27.999Z</time></trkpt><trkpt lat="54.04665642190616" lon="30.462550055234722"><ele>171.5</ele><time>2026-05-03T09:55:28.999Z</time></trkpt><trkpt lat="54.046897960547916" lon="30.462526193860338"><ele>166.0</ele><time>2026-05-03T09:55:29.999Z</time></trkpt><trkpt lat="54.04714409914612" lon="30.46250709626961"><ele>166.0</ele><time>2026-05-03T09:55:30.999Z</time></trkpt><trkpt lat="54.04738739252253" lon="30.462504547583134"><ele>166.0</ele><time>2026-05-03T09:55:31.999Z</time></trkpt><trkpt lat="54.047617112796594" lon="30.462482552034544"><ele>163.5</ele><time>2026-05-03T09:55:32.999Z</time></trkpt><trkpt lat="54.047850110256825" lon="30.462470706227013"><ele>161.0</ele><time>2026-05-03T09:55:33.999Z</time></trkpt><trkpt lat="54.04808765937625" lon="30.46245411893231"><ele>159.5</ele><time>2026-05-03T09:55:34.999Z</time></trkpt><trkpt lat="54.04831551370883" lon="30.46244552629501"><ele>158.0</ele><time>2026-05-03T09:55:35.999Z</time></trkpt><trkpt lat="54.04855335612725" lon="30.462427441682195"><ele>158.0</ele><time>2026-05-03T09:55:36.999Z</time></trkpt><trkpt lat="54.04878950416883" lon="30.462404624668658"><ele>158.0</ele><time>2026-05-03T09:55:37.999Z</time></trkpt><trkpt lat="54.04902186697325" lon="30.462383777545714"><ele>158.5</ele><time>2026-05-03T09:55:38.999Z</time></trkpt><trkpt lat="54.04925737744037" lon="30.46237372505662"><ele>159.0</ele><time>2026-05-03T09:55:39.999Z</time></trkpt><trkpt lat="54.049498353890655" lon="30.462361526883974"><ele>159.0</ele><time>2026-05-03T09:55:40.999Z</time></trkpt><trkpt lat="54.049737442540646" lon="30.4623506718732"><ele>159.0</ele><time>2026-05-03T09:55:41.999Z</time></trkpt><trkpt lat="54.049982615044044" lon="30.462336674529844"><ele>158.5</ele><time>2026-05-03T09:55:42.999Z</time></trkpt><trkpt lat="54.05022499174778" lon="30.46233081805974"><ele>158.0</ele><time>2026-05-03T09:55:43.999Z</time></trkpt><trkpt lat="54.05047434615542" lon="30.462314104982354"><ele>158.0</ele><time>2026-05-03T09:55:44.999Z</time></trkpt><trkpt lat="54.050726445933144" lon="30.462299561482155"><ele>158.0</ele><time>2026-05-03T09:55:45.999Z</time></trkpt><trkpt lat="54.05097636249164" lon="30.46228483646159"><ele>158.0</ele><time>2026-05-03T09:55:46.999Z</time></trkpt><trkpt lat="54.05123067634867" lon="30.46227020149396"><ele>158.0</ele><time>2026-05-03T09:55:47.999Z</time></trkpt><trkpt lat="54.051480735318364" lon="30.462259955806708"><ele>158.0</ele><time>2026-05-03T09:55:48.999Z</time></trkpt><trkpt lat="54.051736273006114" lon="30.46224358939442"><ele>158.0</ele><time>2026-05-03T09:55:49.999Z</time></trkpt><trkpt lat="54.05199216627827" lon="30.462233959330398"><ele>158.0</ele><time>2026-05-03T09:55:50.999Z</time></trkpt><trkpt lat="54.05224604535103" lon="30.462220602540786"><ele>158.0</ele><time>2026-05-03T09:55:51.999Z</time></trkpt><trkpt lat="54.05250140010382" lon="30.46220446676423"><ele>158.5</ele><time>2026-05-03T09:55:52.999Z</time></trkpt><trkpt lat="54.05275730734912" lon="30.462177117684966"><ele>159.0</ele><time>2026-05-03T09:55:53.999Z</time></trkpt><trkpt lat="54.05300680995307" lon="30.462165896993795"><ele>159.0</ele><time>2026-05-03T09:55:54.999Z</time></trkpt><trkpt lat="54.05325970513669" lon="30.46215946648525"><ele>159.0</ele><time>2026-05-03T09:55:55.999Z</time></trkpt><trkpt lat="54.05351444108769" lon="30.462150863016003"><ele>159.5</ele><time>2026-05-03T09:55:56.999Z</time></trkpt><trkpt lat="54.0537723285198" lon="30.46214349279214"><ele>160.0</ele><time>2026-05-03T09:55:57.999Z</time></trkpt><trkpt lat="54.05403227903359" lon="30.462135387320032"><ele>160.0</ele><time>2026-05-03T09:55:58.999Z</time></trkpt><trkpt lat="54.05429467102221" lon="30.462126516775605"><ele>160.0</ele><time>2026-05-03T09:55:59.999Z</time></trkpt><trkpt lat="54.05455889782122" lon="30.462125835899865"><ele>160.0</ele><time>2026-05-03T09:56:00.999Z</time></trkpt><trkpt lat="54.05482443293687" lon="30.46213481501779"><ele>160.0</ele><time>2026-05-03T09:56:01.999Z</time></trkpt><trkpt lat="54.05508954993095" lon="30.462152418968603"><ele>159.0</ele><time>2026-05-03T09:56:02.999Z</time></trkpt><trkpt lat="54.055357854709676" lon="30.462160535745785"><ele>158.0</ele><time>2026-05-03T09:56:03.999Z</time></trkpt><trkpt lat="54.0556266417369" lon="30.462168462354814"><ele>157.0</ele><time>2026-05-03T09:56:04.999Z</time></trkpt><trkpt lat="54.055892583903386" lon="30.462175991147248"><ele>156.0</ele><time>2026-05-03T09:56:05.999Z</time></trkpt><trkpt lat="54.05616229226094" lon="30.46217273584567"><ele>156.0</ele><time>2026-05-03T09:56:06.999Z</time></trkpt><trkpt lat="54.056429426942" lon="30.462174143987365"><ele>156.0</ele><time>2026-05-03T09:56:07.999Z</time></trkpt><trkpt lat="54.05669739170845" lon="30.462175915553875"><ele>156.5</ele><time>2026-05-03T09:56:08.999Z</time></trkpt><trkpt lat="54.05696208449657" lon="30.46218268672032"><ele>157.0</ele><time>2026-05-03T09:56:09.999Z</time></trkpt><trkpt lat="54.05723029458075" lon="30.462191690540912"><ele>159.0</ele><time>2026-05-03T09:56:10.999Z</time></trkpt><trkpt lat="54.05749909772929" lon="30.46219979711812"><ele>161.0</ele><time>2026-05-03T09:56:11.999Z</time></trkpt><trkpt lat="54.05776375874181" lon="30.46218857182675"><ele>161.0</ele><time>2026-05-03T09:56:12.999Z</time></trkpt><trkpt lat="54.05802795132404" lon="30.462189609781685"><ele>161.0</ele><time>2026-05-03T09:56:13.999Z</time></trkpt><trkpt lat="54.05829580398616" lon="30.462182676855065"><ele>166.0</ele><time>2026-05-03T09:56:14.999Z</time></trkpt><trkpt lat="54.058561598426316" lon="30.462176554888263"><ele>171.0</ele><time>2026-05-03T09:56:15.999Z</time></trkpt><trkpt lat="54.05883362456283" lon="30.462175865756006"><ele>171.0</ele><time>2026-05-03T09:56:16.999Z</time></trkpt><trkpt lat="54.059097437492724" lon="30.46218711258353"><ele>171.0</ele><time>2026-05-03T09:56:17.999Z</time></trkpt><trkpt lat="54.059363779098305" lon="30.462150594187083"><ele>171.5</ele><time>2026-05-03T09:56:18.999Z</time></trkpt><trkpt lat="54.05962536301898" lon="30.462144466789617"><ele>172.0</ele><time>2026-05-03T09:56:19.999Z</time></trkpt><trkpt lat="54.059889911922106" lon="30.46213325850824"><ele>172.0</ele><time>2026-05-03T09:56:20.999Z</time></trkpt><trkpt lat="54.06015456766513" lon="30.46213019981944"><ele>172.0</ele><time>2026-05-03T09:56:21.998Z</time></trkpt><trkpt lat="54.06042369279163" lon="30.462123685965945"><ele>173.5</ele><time>2026-05-03T09:56:22.998Z</time></trkpt><trkpt lat="54.06068895899193" lon="30.462108198297898"><ele>175.0</ele><time>2026-05-03T09:56:23.998Z</time></trkpt><trkpt lat="54.06096468254068" lon="30.46209738756079"><ele>175.0</ele><time>2026-05-03T09:56:24.998Z</time></trkpt><trkpt lat="54.06122555617169" lon="30.462076557400017"><ele>175.0</ele><time>2026-05-03T09:56:25.998Z</time></trkpt><trkpt lat="54.06149657315476" lon="30.462059600161954"><ele>176.0</ele><time>2026-05-03T09:56:26.998Z</time></trkpt><trkpt lat="54.061731238531266" lon="30.46205113588276"><ele>177.0</ele><time>2026-05-03T09:56:28Z</time></trkpt><trkpt lat="54.06196726973542" lon="30.462048785203873"><ele>177.0</ele><time>2026-05-03T09:56:29Z</time></trkpt><trkpt lat="54.062285509483665" lon="30.46202018344534"><ele>177.0</ele><time>2026-05-03T09:56:30Z</time></trkpt><trkpt lat="54.06257376133217" lon="30.462002585402573"><ele>179.5</ele><time>2026-05-03T09:56:31Z</time></trkpt><trkpt lat="54.06286940542777" lon="30.461974314936644"><ele>182.0</ele><time>2026-05-03T09:56:32Z</time></trkpt><trkpt lat="54.063178365494245" lon="30.461941115094184"><ele>184.0</ele><time>2026-05-03T09:56:33Z</time></trkpt><trkpt lat="54.06349089612511" lon="30.461923903745717"><ele>186.0</ele><time>2026-05-03T09:56:34Z</time></trkpt><trkpt lat="54.063814107018565" lon="30.46190807892436"><ele>185.5</ele><time>2026-05-03T09:56:35Z</time></trkpt><trkpt lat="54.064144407947076" lon="30.461883037021227"><ele>185.0</ele><time>2026-05-03T09:56:36Z</time></trkpt><trkpt lat="54.064437909984335" lon="30.461871041951625"><ele>185.0</ele><time>2026-05-03T09:56:37Z</time></trkpt><trkpt lat="54.0647304634641" lon="30.461861685141713"><ele>185.0</ele><time>2026-05-03T09:56:38Z</time></trkpt><trkpt lat="54.06501704208207" lon="30.461843804583836"><ele>183.0</ele><time>2026-05-03T09:56:39Z</time></trkpt><trkpt lat="54.0652890828473" lon="30.461821015618025"><ele>181.0</ele><time>2026-05-03T09:56:40Z</time></trkpt><trkpt lat="54.06554994226791" lon="30.461794255486268"><ele>179.0</ele><time>2026-05-03T09:56:41Z</time></trkpt><trkpt lat="54.065807995558224" lon="30.46177533831006"><ele>177.0</ele><time>2026-05-03T09:56:42Z</time></trkpt><trkpt lat="54.066072928983424" lon="30.461747386806746"><ele>177.0</ele><time>2026-05-03T09:56:43Z</time></trkpt><trkpt lat="54.06634514211174" lon="30.461721451699983"><ele>177.0</ele><time>2026-05-03T09:56:44Z</time></trkpt><trkpt lat="54.06661914378459" lon="30.46169327719904"><ele>178.0</ele><time>2026-05-03T09:56:45Z</time></trkpt><trkpt lat="54.06689119577963" lon="30.461670009943425"><ele>179.0</ele><time>2026-05-03T09:56:46Z</time></trkpt><trkpt lat="54.067165596702786" lon="30.46166696415135"><ele>179.0</ele><time>2026-05-03T09:56:47Z</time></trkpt><trkpt lat="54.06744229625191" lon="30.461669737739243"><ele>179.0</ele><time>2026-05-03T09:56:48Z</time></trkpt><trkpt lat="54.06772320900115" lon="30.461655281593963"><ele>182.0</ele><time>2026-05-03T09:56:49Z</time></trkpt><trkpt lat="54.06800314408999" lon="30.46162844202756"><ele>185.0</ele><time>2026-05-03T09:56:50Z</time></trkpt><trkpt lat="54.06828507821377" lon="30.46160893108559"><ele>188.5</ele><time>2026-05-03T09:56:51Z</time></trkpt><trkpt lat="54.06856564304332" lon="30.46158500811685"><ele>192.0</ele><time>2026-05-03T09:56:52Z</time></trkpt><trkpt lat="54.06885017563598" lon="30.46157119924194"><ele>193.0</ele><time>2026-05-03T09:56:53Z</time></trkpt><trkpt lat="54.06913188222513" lon="30.461558448675955"><ele>194.0</ele><time>2026-05-03T09:56:54Z</time></trkpt><trkpt lat="54.06941296274359" lon="30.461539108622976"><ele>194.0</ele><time>2026-05-03T09:56:55Z</time></trkpt><trkpt lat="54.06969678778223" lon="30.46151499543857"><ele>194.0</ele><time>2026-05-03T09:56:56Z</time></trkpt><trkpt lat="54.069980634992355" lon="30.461503275069454"><ele>194.0</ele><time>2026-05-03T09:56:57Z</time></trkpt><trkpt lat="54.07026560882127" lon="30.461488565520657"><ele>194.0</ele><time>2026-05-03T09:56:58Z</time></trkpt><trkpt lat="54.07055571608717" lon="30.46146737460093"><ele>193.5</ele><time>2026-05-03T09:56:59Z</time></trkpt><trkpt lat="54.07084775877315" lon="30.461452240139764"><ele>193.0</ele><time>2026-05-03T09:57:00Z</time></trkpt><trkpt lat="54.0711396620028" lon="30.461434037489628"><ele>193.0</ele><time>2026-05-03T09:57:01Z</time></trkpt><trkpt lat="54.07143651930416" lon="30.461414262697406"><ele>193.0</ele><time>2026-05-03T09:57:02Z</time></trkpt><trkpt lat="54.07173386942115" lon="30.461386890832244"><ele>193.5</ele><time>2026-05-03T09:57:03Z</time></trkpt><trkpt lat="54.07203508296277" lon="30.46136201136767"><ele>194.0</ele><time>2026-05-03T09:57:04Z</time></trkpt><trkpt lat="54.07232871621319" lon="30.461339310244327"><ele>194.0</ele><time>2026-05-03T09:57:05Z</time></trkpt><trkpt lat="54.07263629288623" lon="30.46132183196755"><ele>194.0</ele><time>2026-05-03T09:57:06Z</time></trkpt><trkpt lat="54.07293558036899" lon="30.461311500509176"><ele>194.0</ele><time>2026-05-03T09:57:07Z</time></trkpt><trkpt lat="54.07323187579479" lon="30.461305824719773"><ele>194.0</ele><time>2026-05-03T09:57:08Z</time></trkpt><trkpt lat="54.073529619516265" lon="30.461278485205273"><ele>194.0</ele><time>2026-05-03T09:57:09Z</time></trkpt><trkpt lat="54.0738281947165" lon="30.461257204164973"><ele>194.0</ele><time>2026-05-03T09:57:10Z</time></trkpt><trkpt lat="54.07412801123668" lon="30.46123875371212"><ele>194.0</ele><time>2026-05-03T09:57:11Z</time></trkpt><trkpt lat="54.07442683010654" lon="30.461219033000773"><ele>194.0</ele><time>2026-05-03T09:57:12Z</time></trkpt><trkpt lat="54.074727719030975" lon="30.461197809698024"><ele>192.0</ele><time>2026-05-03T09:57:12.999Z</time></trkpt><trkpt lat="54.075030262946" lon="30.461181263859434"><ele>190.0</ele><time>2026-05-03T09:57:13.999Z</time></trkpt><trkpt lat="54.075328473091275" lon="30.461171639068816"><ele>190.0</ele><time>2026-05-03T09:57:14.999Z</time></trkpt><trkpt lat="54.07562577465611" lon="30.461155373799322"><ele>190.0</ele><time>2026-05-03T09:57:15.999Z</time></trkpt><trkpt lat="54.07592190606814" lon="30.46113516908439"><ele>189.5</ele><time>2026-05-03T09:57:16.999Z</time></trkpt><trkpt lat="54.076218167788646" lon="30.46111587784293"><ele>189.0</ele><time>2026-05-03T09:57:17.999Z</time></trkpt><trkpt lat="54.07651499050551" lon="30.461103092993497"><ele>188.5</ele><time>2026-05-03T09:57:18.999Z</time></trkpt><trkpt lat="54.07681282852786" lon="30.461083019711005"><ele>188.0</ele><time>2026-05-03T09:57:19.999Z</time></trkpt><trkpt lat="54.07711253518012" lon="30.461068495574974"><ele>188.0</ele><time>2026-05-03T09:57:20.999Z</time></trkpt><trkpt lat="54.077413609356086" lon="30.46105423136353"><ele>188.0</ele><time>2026-05-03T09:57:21.999Z</time></trkpt><trkpt lat="54.0777154699716" lon="30.46104104014712"><ele>188.0</ele><time>2026-05-03T09:57:22.999Z</time></trkpt><trkpt lat="54.07801381184377" lon="30.461017281932346"><ele>188.0</ele><time>2026-05-03T09:57:23.999Z</time></trkpt><trkpt lat="54.07831927436383" lon="30.461000695312304"><ele>188.5</ele><time>2026-05-03T09:57:24.999Z</time></trkpt><trkpt lat="54.07862018209228" lon="30.46098017254793"><ele>189.0</ele><time>2026-05-03T09:57:25.999Z</time></trkpt><trkpt lat="54.07892673671291" lon="30.460966720790175"><ele>189.0</ele><time>2026-05-03T09:57:26.999Z</time></trkpt><trkpt lat="54.07923394715048" lon="30.46094776091786"><ele>189.0</ele><time>2026-05-03T09:57:27.999Z</time></trkpt><trkpt lat="54.079539011685135" lon="30.46092773874027"><ele>189.0</ele><time>2026-05-03T09:57:28.999Z</time></trkpt><trkpt lat="54.07984789142237" lon="30.460907748079617"><ele>189.0</ele><time>2026-05-03T09:57:29.999Z</time></trkpt><trkpt lat="54.080161350456386" lon="30.46089367472675"><ele>189.0</ele><time>2026-05-03T09:57:30.999Z</time></trkpt><trkpt lat="54.08046672232419" lon="30.46087453436262"><ele>189.0</ele><time>2026-05-03T09:57:31.999Z</time></trkpt><trkpt lat="54.080785495977636" lon="30.460858092015993"><ele>189.0</ele><time>2026-05-03T09:57:32.999Z</time></trkpt><trkpt lat="54.08109289717126" lon="30.460835922269347"><ele>189.0</ele><time>2026-05-03T09:57:33.999Z</time></trkpt><trkpt lat="54.08139747075252" lon="30.46081338657789"><ele>191.0</ele><time>2026-05-03T09:57:34.999Z</time></trkpt><trkpt lat="54.081706654424316" lon="30.460790840488393"><ele>193.0</ele><time>2026-05-03T09:57:35.999Z</time></trkpt><trkpt lat="54.082014738190765" lon="30.460773912191485"><ele>193.0</ele><time>2026-05-03T09:57:36.999Z</time></trkpt><trkpt lat="54.082322303583716" lon="30.46075552175016"><ele>193.0</ele><time>2026-05-03T09:57:37.999Z</time></trkpt><trkpt lat="54.082630976163216" lon="30.46073417430954"><ele>195.5</ele><time>2026-05-03T09:57:38.999Z</time></trkpt><trkpt lat="54.08294108633009" lon="30.460713808339495"><ele>198.0</ele><time>2026-05-03T09:57:39.999Z</time></trkpt><trkpt lat="54.08324329916311" lon="30.460695370713566"><ele>199.0</ele><time>2026-05-03T09:57:40.999Z</time></trkpt><trkpt lat="54.08355376942969" lon="30.460674566622636"><ele>200.0</ele><time>2026-05-03T09:57:41.999Z</time></trkpt><trkpt lat="54.083860536290956" lon="30.460655676551678"><ele>199.0</ele><time>2026-05-03T09:57:42.999Z</time></trkpt><trkpt lat="54.08416731251465" lon="30.460639107055222"><ele>198.0</ele><time>2026-05-03T09:57:43.999Z</time></trkpt><trkpt lat="54.08447473019804" lon="30.460622195582253"><ele>198.0</ele><time>2026-05-03T09:57:44.999Z</time></trkpt><trkpt lat="54.08477389889879" lon="30.46060980675041"><ele>198.0</ele><time>2026-05-03T09:57:45.999Z</time></trkpt><trkpt lat="54.08505363365644" lon="30.46059332606386"><ele>197.0</ele><time>2026-05-03T09:57:46.999Z</time></trkpt><trkpt lat="54.085318817243035" lon="30.460576272208186"><ele>196.0</ele><time>2026-05-03T09:57:47.999Z</time></trkpt><trkpt lat="54.085575875648175" lon="30.460566322650198"><ele>195.0</ele><time>2026-05-03T09:57:48.999Z</time></trkpt><trkpt lat="54.08584024817372" lon="30.46055272459538"><ele>194.0</ele><time>2026-05-03T09:57:49.999Z</time></trkpt><trkpt lat="54.08610084644229" lon="30.460537539581388"><ele>194.0</ele><time>2026-05-03T09:57:50.999Z</time></trkpt><trkpt lat="54.0863492651652" lon="30.460523167854113"><ele>194.0</ele><time>2026-05-03T09:57:51.999Z</time></trkpt><trkpt lat="54.08657946989077" lon="30.46050814935391"><ele>194.5</ele><time>2026-05-03T09:57:52.999Z</time></trkpt><trkpt lat="54.08681050420549" lon="30.460497904489113"><ele>195.0</ele><time>2026-05-03T09:57:53.999Z</time></trkpt><trkpt lat="54.08703414814805" lon="30.46048456031977"><ele>195.0</ele><time>2026-05-03T09:57:54.999Z</time></trkpt><trkpt lat="54.08726025471088" lon="30.460475711243394"><ele>195.0</ele><time>2026-05-03T09:57:55.999Z</time></trkpt><trkpt lat="54.087492953693506" lon="30.460466427538556"><ele>195.5</ele><time>2026-05-03T09:57:56.999Z</time></trkpt><trkpt lat="54.08773201406616" lon="30.460456014606155"><ele>196.0</ele><time>2026-05-03T09:57:57.999Z</time></trkpt><trkpt lat="54.08797028592091" lon="30.460441689658566"><ele>198.0</ele><time>2026-05-03T09:57:58.999Z</time></trkpt><trkpt lat="54.0882032779262" lon="30.460431950561073"><ele>200.0</ele><time>2026-05-03T09:57:59.999Z</time></trkpt><trkpt lat="54.08844177711202" lon="30.46042021095498"><ele>201.0</ele><time>2026-05-03T09:58:00.999Z</time></trkpt><trkpt lat="54.08868859444282" lon="30.460407414818082"><ele>202.0</ele><time>2026-05-03T09:58:01.999Z</time></trkpt><trkpt lat="54.08892409667793" lon="30.460398702572466"><ele>202.5</ele><time>2026-05-03T09:58:02.999Z</time></trkpt><trkpt lat="54.08917709509695" lon="30.460378582308902"><ele>203.0</ele><time>2026-05-03T09:58:03.999Z</time></trkpt><trkpt lat="54.089423726587725" lon="30.460364172547592"><ele>203.0</ele><time>2026-05-03T09:58:04.999Z</time></trkpt><trkpt lat="54.0896742756332" lon="30.460345972638155"><ele>203.0</ele><time>2026-05-03T09:58:05.999Z</time></trkpt><trkpt lat="54.0899265452449" lon="30.4603300909423"><ele>201.5</ele><time>2026-05-03T09:58:06.999Z</time></trkpt><trkpt lat="54.090179098989736" lon="30.46031791116775"><ele>200.0</ele><time>2026-05-03T09:58:07.999Z</time></trkpt><trkpt lat="54.09043563595648" lon="30.460296073740068"><ele>200.0</ele><time>2026-05-03T09:58:08.999Z</time></trkpt><trkpt lat="54.09069001540609" lon="30.460272932745422"><ele>200.0</ele><time>2026-05-03T09:58:09.999Z</time></trkpt><trkpt lat="54.090942628943985" lon="30.460256656805992"><ele>197.5</ele><time>2026-05-03T09:58:10.999Z</time></trkpt><trkpt lat="54.09119843246023" lon="30.460236630412112"><ele>195.0</ele><time>2026-05-03T09:58:11.999Z</time></trkpt><trkpt lat="54.09145606531911" lon="30.460215052133048"><ele>194.5</ele><time>2026-05-03T09:58:12.999Z</time></trkpt><trkpt lat="54.091710943785" lon="30.46021321683138"><ele>194.0</ele><time>2026-05-03T09:58:13.999Z</time></trkpt><trkpt lat="54.09197508223043" lon="30.460186266863193"><ele>194.0</ele><time>2026-05-03T09:58:14.999Z</time></trkpt><trkpt lat="54.09224604757074" lon="30.460170022107633"><ele>194.0</ele><time>2026-05-03T09:58:15.999Z</time></trkpt><trkpt lat="54.092515881491565" lon="30.460150729557284"><ele>193.5</ele><time>2026-05-03T09:58:16.999Z</time></trkpt><trkpt lat="54.09278802746969" lon="30.46013982974843"><ele>193.0</ele><time>2026-05-03T09:58:17.999Z</time></trkpt><trkpt lat="54.09305700642124" lon="30.46011305547834"><ele>193.0</ele><time>2026-05-03T09:58:18.999Z</time></trkpt><trkpt lat="54.09333494112501" lon="30.460092181219814"><ele>193.0</ele><time>2026-05-03T09:58:19.999Z</time></trkpt><trkpt lat="54.09361000705947" lon="30.460069767340794"><ele>193.0</ele><time>2026-05-03T09:58:20.999Z</time></trkpt><trkpt lat="54.09388886052339" lon="30.460044077830744"><ele>193.0</ele><time>2026-05-03T09:58:21.999Z</time></trkpt><trkpt lat="54.09416332386028" lon="30.4600120569674"><ele>195.0</ele><time>2026-05-03T09:58:22.999Z</time></trkpt><trkpt lat="54.09444480062758" lon="30.459975003568097"><ele>197.0</ele><time>2026-05-03T09:58:23.999Z</time></trkpt><trkpt lat="54.09471441441421" lon="30.459931131365416"><ele>199.0</ele><time>2026-05-03T09:58:24.999Z</time></trkpt><trkpt lat="54.09498896844862" lon="30.459891562088657"><ele>201.0</ele><time>2026-05-03T09:58:25.999Z</time></trkpt><trkpt lat="54.095272111906134" lon="30.459857332510797"><ele>201.0</ele><time>2026-05-03T09:58:26.999Z</time></trkpt><trkpt lat="54.09554988877673" lon="30.459824179029905"><ele>201.0</ele><time>2026-05-03T09:58:27.999Z</time></trkpt><trkpt lat="54.09582981957582" lon="30.459779580772736"><ele>201.0</ele><time>2026-05-03T09:58:28.999Z</time></trkpt><trkpt lat="54.09611119335255" lon="30.459741945252677"><ele>201.0</ele><time>2026-05-03T09:58:29.999Z</time></trkpt><trkpt lat="54.096393735591555" lon="30.459676746938882"><ele>202.0</ele><time>2026-05-03T09:58:30.999Z</time></trkpt><trkpt lat="54.09668046980041" lon="30.459640489135534"><ele>203.0</ele><time>2026-05-03T09:58:31.999Z</time></trkpt><trkpt lat="54.096965378156206" lon="30.45959154784446"><ele>203.0</ele><time>2026-05-03T09:58:32.999Z</time></trkpt><trkpt lat="54.09725163120528" lon="30.459536737592575"><ele>203.0</ele><time>2026-05-03T09:58:34Z</time></trkpt><trkpt lat="54.09754044333377" lon="30.459490388029995"><ele>203.5</ele><time>2026-05-03T09:58:35Z</time></trkpt><trkpt lat="54.09783302685939" lon="30.459458833915836"><ele>204.0</ele><time>2026-05-03T09:58:36Z</time></trkpt><trkpt lat="54.09812874934306" lon="30.45943720077695"><ele>202.5</ele><time>2026-05-03T09:58:37Z</time></trkpt><trkpt lat="54.0984242244464" lon="30.459418781329475"><ele>201.0</ele><time>2026-05-03T09:58:38Z</time></trkpt><trkpt lat="54.09872196249751" lon="30.459399352096796"><ele>201.0</ele><time>2026-05-03T09:58:39Z</time></trkpt><trkpt lat="54.09901840132392" lon="30.45937940624888"><ele>201.0</ele><time>2026-05-03T09:58:40Z</time></trkpt><trkpt lat="54.099318281549955" lon="30.459362066401773"><ele>200.0</ele><time>2026-05-03T09:58:41Z</time></trkpt><trkpt lat="54.09961606835947" lon="30.459342304547278"><ele>199.0</ele><time>2026-05-03T09:58:42Z</time></trkpt><trkpt lat="54.09991476243524" lon="30.459322231827542"><ele>200.0</ele><time>2026-05-03T09:58:43Z</time></trkpt><trkpt lat="54.10022655734578" lon="30.459300838430124"><ele>201.0</ele><time>2026-05-03T09:58:44Z</time></trkpt><trkpt lat="54.1005282664174" lon="30.459284186252773"><ele>201.5</ele><time>2026-05-03T09:58:45Z</time></trkpt><trkpt lat="54.10083083159829" lon="30.459264940243333"><ele>202.0</ele><time>2026-05-03T09:58:46Z</time></trkpt><trkpt lat="54.1011377653279" lon="30.459246498800045"><ele>202.0</ele><time>2026-05-03T09:58:47Z</time></trkpt><trkpt lat="54.10144996347329" lon="30.459230555672306"><ele>202.0</ele><time>2026-05-03T09:58:48Z</time></trkpt><trkpt lat="54.101761370693595" lon="30.45921741548342"><ele>201.5</ele><time>2026-05-03T09:58:49Z</time></trkpt><trkpt lat="54.102071210663105" lon="30.4591999131465"><ele>201.0</ele><time>2026-05-03T09:58:50Z</time></trkpt><trkpt lat="54.102380422053976" lon="30.459179938376074"><ele>200.5</ele><time>2026-05-03T09:58:51Z</time></trkpt><trkpt lat="54.102695613182185" lon="30.459152184708838"><ele>200.0</ele><time>2026-05-03T09:58:52Z</time></trkpt><trkpt lat="54.10300791976576" lon="30.45912965698257"><ele>199.5</ele><time>2026-05-03T09:58:53Z</time></trkpt><trkpt lat="54.103319720025866" lon="30.45911308131677"><ele>199.0</ele><time>2026-05-03T09:58:54Z</time></trkpt><trkpt lat="54.10363240964088" lon="30.45909863242876"><ele>199.0</ele><time>2026-05-03T09:58:55Z</time></trkpt><trkpt lat="54.10395138107766" lon="30.459079745335824"><ele>199.0</ele><time>2026-05-03T09:58:56Z</time></trkpt><trkpt lat="54.10426655430075" lon="30.459070231656934"><ele>197.0</ele><time>2026-05-03T09:58:57Z</time></trkpt><trkpt lat="54.10458804795663" lon="30.459051854342242"><ele>195.0</ele><time>2026-05-03T09:58:58Z</time></trkpt><trkpt lat="54.10490586985175" lon="30.4590385458194"><ele>195.0</ele><time>2026-05-03T09:58:59Z</time></trkpt><trkpt lat="54.10522804191833" lon="30.459014107060945"><ele>195.0</ele><time>2026-05-03T09:59:00Z</time></trkpt><trkpt lat="54.10554705266329" lon="30.459006678503222"><ele>194.5</ele><time>2026-05-03T09:59:01Z</time></trkpt><trkpt lat="54.10586802351921" lon="30.45897705884858"><ele>194.0</ele><time>2026-05-03T09:59:02Z</time></trkpt><trkpt lat="54.10619117744122" lon="30.45895909504682"><ele>194.0</ele><time>2026-05-03T09:59:03Z</time></trkpt><trkpt lat="54.106498786638326" lon="30.45894742605146"><ele>194.0</ele><time>2026-05-03T09:59:04Z</time></trkpt><trkpt lat="54.106778854903425" lon="30.45892306419775"><ele>192.5</ele><time>2026-05-03T09:59:05Z</time></trkpt><trkpt lat="54.10707425379222" lon="30.45890156495738"><ele>191.0</ele><time>2026-05-03T09:59:06Z</time></trkpt><trkpt lat="54.107365677343864" lon="30.458898090558897"><ele>190.0</ele><time>2026-05-03T09:59:07Z</time></trkpt><trkpt lat="54.10765941537134" lon="30.458878051471928"><ele>189.0</ele><time>2026-05-03T09:59:08Z</time></trkpt><trkpt lat="54.10794294983655" lon="30.45886750247212"><ele>189.0</ele><time>2026-05-03T09:59:09Z</time></trkpt><trkpt lat="54.1082311558091" lon="30.458839087692134"><ele>189.0</ele><time>2026-05-03T09:59:10Z</time></trkpt><trkpt lat="54.10852140138439" lon="30.458820474187434"><ele>187.5</ele><time>2026-05-03T09:59:11Z</time></trkpt><trkpt lat="54.10880125364162" lon="30.458809163585055"><ele>186.0</ele><time>2026-05-03T09:59:12Z</time></trkpt><trkpt lat="54.10907667692076" lon="30.458796241406038"><ele>186.5</ele><time>2026-05-03T09:59:13Z</time></trkpt><trkpt lat="54.109347667435166" lon="30.458794067018424"><ele>187.0</ele><time>2026-05-03T09:59:14Z</time></trkpt><trkpt lat="54.10962466665629" lon="30.458774691373105"><ele>187.0</ele><time>2026-05-03T09:59:14.999Z</time></trkpt><trkpt lat="54.10990223093164" lon="30.458754192056468"><ele>187.0</ele><time>2026-05-03T09:59:15.999Z</time></trkpt><trkpt lat="54.11018191818884" lon="30.458724480399553"><ele>187.5</ele><time>2026-05-03T09:59:16.999Z</time></trkpt><trkpt lat="54.11046481287083" lon="30.458703243706452"><ele>188.0</ele><time>2026-05-03T09:59:17.999Z</time></trkpt><trkpt lat="54.110746286340145" lon="30.45868773613222"><ele>187.0</ele><time>2026-05-03T09:59:18.999Z</time></trkpt><trkpt lat="54.111030317580266" lon="30.45866593489503"><ele>186.0</ele><time>2026-05-03T09:59:19.999Z</time></trkpt><trkpt lat="54.11131943025635" lon="30.458646402915488"><ele>183.5</ele><time>2026-05-03T09:59:20.999Z</time></trkpt><trkpt lat="54.11160563481936" lon="30.458630189746586"><ele>181.0</ele><time>2026-05-03T09:59:21.999Z</time></trkpt><trkpt lat="54.1118917744222" lon="30.45861207170134"><ele>181.0</ele><time>2026-05-03T09:59:22.999Z</time></trkpt><trkpt lat="54.112175405572565" lon="30.458602315081258"><ele>181.0</ele><time>2026-05-03T09:59:23.999Z</time></trkpt><trkpt lat="54.11246113002574" lon="30.458589717257066"><ele>179.0</ele><time>2026-05-03T09:59:24.999Z</time></trkpt><trkpt lat="54.11274200705117" lon="30.458576178061033"><ele>177.0</ele><time>2026-05-03T09:59:25.999Z</time></trkpt><trkpt lat="54.11302646011357" lon="30.458554821298055"><ele>179.0</ele><time>2026-05-03T09:59:26.999Z</time></trkpt><trkpt lat="54.11330185908417" lon="30.458542212792924"><ele>181.0</ele><time>2026-05-03T09:59:27.999Z</time></trkpt><trkpt lat="54.11358479899908" lon="30.458524906401685"><ele>181.0</ele><time>2026-05-03T09:59:28.999Z</time></trkpt><trkpt lat="54.11385966535733" lon="30.458506432287148"><ele>181.0</ele><time>2026-05-03T09:59:29.999Z</time></trkpt><trkpt lat="54.114132481659304" lon="30.458489416878336"><ele>184.0</ele><time>2026-05-03T09:59:30.999Z</time></trkpt><trkpt lat="54.114401451435434" lon="30.458475769554042"><ele>187.0</ele><time>2026-05-03T09:59:31.999Z</time></trkpt><trkpt lat="54.11466597829753" lon="30.458464741091515"><ele>188.0</ele><time>2026-05-03T09:59:32.999Z</time></trkpt><trkpt lat="54.11493418662468" lon="30.45844512277164"><ele>189.0</ele><time>2026-05-03T09:59:33.999Z</time></trkpt><trkpt lat="54.11520475728718" lon="30.458426640705486"><ele>189.0</ele><time>2026-05-03T09:59:34.999Z</time></trkpt><trkpt lat="54.11547553957939" lon="30.458411456998135"><ele>189.0</ele><time>2026-05-03T09:59:35.999Z</time></trkpt><trkpt lat="54.115742568209036" lon="30.458398919054318"><ele>191.0</ele><time>2026-05-03T09:59:36.999Z</time></trkpt><trkpt lat="54.11601935207254" lon="30.45837392102634"><ele>193.0</ele><time>2026-05-03T09:59:37.999Z</time></trkpt><trkpt lat="54.11628935587186" lon="30.458364005464304"><ele>193.0</ele><time>2026-05-03T09:59:38.999Z</time></trkpt><trkpt lat="54.11655116214056" lon="30.45835706736212"><ele>193.0</ele><time>2026-05-03T09:59:39.999Z</time></trkpt><trkpt lat="54.11679202877474" lon="30.458331902546114"><ele>192.5</ele><time>2026-05-03T09:59:40.999Z</time></trkpt><trkpt lat="54.1170234628727" lon="30.45831597208953"><ele>192.0</ele><time>2026-05-03T09:59:41.999Z</time></trkpt><trkpt lat="54.117250774630854" lon="30.458304474067514"><ele>192.33333333333331</ele><time>2026-05-03T09:59:42.999Z</time></trkpt><trkpt lat="54.11747370985175" lon="30.458290591361855"><ele>192.66666666666666</ele><time>2026-05-03T09:59:43.999Z</time></trkpt><trkpt lat="54.11768066632733" lon="30.45828331895927"><ele>193.0</ele><time>2026-05-03T09:59:44.999Z</time></trkpt><trkpt lat="54.117855131243125" lon="30.45825591993548"><ele>193.0</ele><time>2026-05-03T09:59:45.999Z</time></trkpt><trkpt lat="54.11801417685456" lon="30.458252053798812"><ele>193.0</ele><time>2026-05-03T09:59:46.999Z</time></trkpt><trkpt lat="54.118158404312176" lon="30.458245797872173"><ele>193.0</ele><time>2026-05-03T09:59:47.999Z</time></trkpt><trkpt lat="54.11830614099566" lon="30.458241324578122"><ele>193.33333333333331</ele><time>2026-05-03T09:59:48.999Z</time></trkpt><trkpt lat="54.118460138994024" lon="30.458229151127167"><ele>193.66666666666669</ele><time>2026-05-03T09:59:49.999Z</time></trkpt><trkpt lat="54.11861786355765" lon="30.45821714831822"><ele>194.0</ele><time>2026-05-03T09:59:50.999Z</time></trkpt><trkpt lat="54.118774090830705" lon="30.45820193449313"><ele>194.0</ele><time>2026-05-03T09:59:51.999Z</time></trkpt><trkpt lat="54.118944275175664" lon="30.45818916200187"><ele>194.0</ele><time>2026-05-03T09:59:52.999Z</time></trkpt><trkpt lat="54.119127872116174" lon="30.45817376917544"><ele>194.0</ele><time>2026-05-03T09:59:53.999Z</time></trkpt><trkpt lat="54.119320338559795" lon="30.458162230198134"><ele>194.0</ele><time>2026-05-03T09:59:54.999Z</time></trkpt><trkpt lat="54.11951815217595" lon="30.458155611883186"><ele>194.0</ele><time>2026-05-03T09:59:55.999Z</time></trkpt><trkpt lat="54.11972187635524" lon="30.458145072204655"><ele>194.0</ele><time>2026-05-03T09:59:56.999Z</time></trkpt><trkpt lat="54.119932948043086" lon="30.458135687078798"><ele>194.33333333333334</ele><time>2026-05-03T09:59:57.999Z</time></trkpt><trkpt lat="54.12015202023922" lon="30.45813013380204"><ele>194.66666666666669</ele><time>2026-05-03T09:59:58.999Z</time></trkpt><trkpt lat="54.120371015975365" lon="30.45811736935782"><ele>195.0</ele><time>2026-05-03T09:59:59.999Z</time></trkpt><trkpt lat="54.12060055583304" lon="30.458109901891742"><ele>193.33333333333334</ele><time>2026-05-03T10:00:00.999Z</time></trkpt><trkpt lat="54.12082003600477" lon="30.458098241639085"><ele>191.66666666666669</ele><time>2026-05-03T10:00:01.999Z</time></trkpt><trkpt lat="54.12104260922853" lon="30.45808375075229"><ele>190.0</ele><time>2026-05-03T10:00:02.999Z</time></trkpt><trkpt lat="54.12125521758175" lon="30.458071552847866"><ele>190.0</ele><time>2026-05-03T10:00:03.999Z</time></trkpt><trkpt lat="54.121479776589595" lon="30.458056002039452"><ele>190.0</ele><time>2026-05-03T10:00:04.999Z</time></trkpt><trkpt lat="54.12171377807226" lon="30.45803967838776"><ele>190.0</ele><time>2026-05-03T10:00:05.999Z</time></trkpt><trkpt lat="54.12195460544764" lon="30.458025951221632"><ele>190.0</ele><time>2026-05-03T10:00:06.999Z</time></trkpt><trkpt lat="54.12219971636597" lon="30.458011765118844"><ele>191.0</ele><time>2026-05-03T10:00:07.999Z</time></trkpt><trkpt lat="54.12245146238868" lon="30.45799818989158"><ele>192.0</ele><time>2026-05-03T10:00:08.999Z</time></trkpt><trkpt lat="54.122705876928755" lon="30.45798470772022"><ele>192.0</ele><time>2026-05-03T10:00:09.999Z</time></trkpt><trkpt lat="54.12295927860615" lon="30.457979226868133"><ele>192.0</ele><time>2026-05-03T10:00:10.999Z</time></trkpt><trkpt lat="54.12321579908843" lon="30.457973400911463"><ele>193.5</ele><time>2026-05-03T10:00:11.999Z</time></trkpt><trkpt lat="54.12347503501567" lon="30.45795370125856"><ele>195.0</ele><time>2026-05-03T10:00:12.999Z</time></trkpt><trkpt lat="54.12374959885904" lon="30.457916118162426"><ele>195.0</ele><time>2026-05-03T10:00:13.999Z</time></trkpt><trkpt lat="54.12400595995338" lon="30.457889597804503"><ele>195.0</ele><time>2026-05-03T10:00:14.999Z</time></trkpt><trkpt lat="54.12426964450273" lon="30.457868692168198"><ele>196.0</ele><time>2026-05-03T10:00:15.999Z</time></trkpt><trkpt lat="54.124536067182724" lon="30.457845422209388"><ele>197.0</ele><time>2026-05-03T10:00:16.999Z</time></trkpt><trkpt lat="54.12478565672475" lon="30.457832705845174"><ele>197.5</ele><time>2026-05-03T10:00:17.999Z</time></trkpt><trkpt lat="54.12502185306944" lon="30.457822967419816"><ele>198.0</ele><time>2026-05-03T10:00:18.999Z</time></trkpt><trkpt lat="54.125245871249376" lon="30.4578070662122"><ele>198.0</ele><time>2026-05-03T10:00:19.999Z</time></trkpt><trkpt lat="54.12546203036383" lon="30.45778711765374"><ele>198.0</ele><time>2026-05-03T10:00:20.999Z</time></trkpt><trkpt lat="54.125692225503094" lon="30.457769439785725"><ele>198.0</ele><time>2026-05-03T10:00:21.999Z</time></trkpt><trkpt lat="54.125933696115546" lon="30.45775432744362"><ele>197.5</ele><time>2026-05-03T10:00:22.999Z</time></trkpt><trkpt lat="54.126188305503824" lon="30.457740974902197"><ele>197.0</ele><time>2026-05-03T10:00:23.999Z</time></trkpt><trkpt lat="54.126459003099036" lon="30.45772523045656"><ele>196.5</ele><time>2026-05-03T10:00:24.999Z</time></trkpt><trkpt lat="54.126738224122626" lon="30.45771439213523"><ele>196.0</ele><time>2026-05-03T10:00:25.999Z</time></trkpt><trkpt lat="54.12703022362427" lon="30.45770741404359"><ele>196.0</ele><time>2026-05-03T10:00:26.999Z</time></trkpt><trkpt lat="54.12732821561681" lon="30.45769504566675"><ele>196.0</ele><time>2026-05-03T10:00:27.999Z</time></trkpt><trkpt lat="54.127630728321115" lon="30.45767818232935"><ele>196.5</ele><time>2026-05-03T10:00:28.999Z</time></trkpt><trkpt lat="54.1279271401876" lon="30.457657281847805"><ele>197.0</ele><time>2026-05-03T10:00:29.999Z</time></trkpt><trkpt lat="54.12821940011564" lon="30.45764423127016"><ele>197.0</ele><time>2026-05-03T10:00:30.999Z</time></trkpt><trkpt lat="54.128528967179136" lon="30.457626552170783"><ele>197.0</ele><time>2026-05-03T10:00:31.999Z</time></trkpt><trkpt lat="54.1288342605444" lon="30.45760716273379"><ele>199.0</ele><time>2026-05-03T10:00:32.999Z</time></trkpt><trkpt lat="54.12913925779588" lon="30.457585087254216"><ele>201.0</ele><time>2026-05-03T10:00:33.999Z</time></trkpt><trkpt lat="54.12944795817685" lon="30.457564943584877"><ele>201.0</ele><time>2026-05-03T10:00:34.999Z</time></trkpt><trkpt lat="54.1297560435987" lon="30.4575517818697"><ele>201.0</ele><time>2026-05-03T10:00:35.999Z</time></trkpt><trkpt lat="54.130070442286254" lon="30.45754046318736"><ele>203.0</ele><time>2026-05-03T10:00:36.999Z</time></trkpt><trkpt lat="54.13038226649931" lon="30.457531022846812"><ele>205.0</ele><time>2026-05-03T10:00:37.999Z</time></trkpt><trkpt lat="54.13069758159078" lon="30.45751682747006"><ele>205.5</ele><time>2026-05-03T10:00:38.999Z</time></trkpt><trkpt lat="54.13101311229618" lon="30.457495711020805"><ele>206.0</ele><time>2026-05-03T10:00:40Z</time></trkpt><trkpt lat="54.13133178833366" lon="30.457472507115316"><ele>206.0</ele><time>2026-05-03T10:00:41Z</time></trkpt><trkpt lat="54.13164740377316" lon="30.457447747423068"><ele>206.0</ele><time>2026-05-03T10:00:42Z</time></trkpt><trkpt lat="54.13196528978724" lon="30.45742673310421"><ele>206.0</ele><time>2026-05-03T10:00:43Z</time></trkpt><trkpt lat="54.132288883645536" lon="30.457408881157154"><ele>206.0</ele><time>2026-05-03T10:00:44Z</time></trkpt><trkpt lat="54.13261602601527" lon="30.457390117301408"><ele>206.0</ele><time>2026-05-03T10:00:45Z</time></trkpt><trkpt lat="54.132942498532294" lon="30.457370782288397"><ele>206.0</ele><time>2026-05-03T10:00:46Z</time></trkpt><trkpt lat="54.13326927578126" lon="30.45735523788306"><ele>204.0</ele><time>2026-05-03T10:00:47Z</time></trkpt><trkpt lat="54.13359725987508" lon="30.457343303002556"><ele>202.0</ele><time>2026-05-03T10:00:48Z</time></trkpt><trkpt lat="54.13393231772804" lon="30.457325439568784"><ele>200.0</ele><time>2026-05-03T10:00:49Z</time></trkpt><trkpt lat="54.13427082385025" lon="30.457307058080115"><ele>198.0</ele><time>2026-05-03T10:00:50Z</time></trkpt><trkpt lat="54.13461545179555" lon="30.45728629031989"><ele>196.5</ele><time>2026-05-03T10:00:51Z</time></trkpt><trkpt lat="54.134960169606984" lon="30.457266392752466"><ele>195.0</ele><time>2026-05-03T10:00:52Z</time></trkpt><trkpt lat="54.13530877114272" lon="30.45724094782699"><ele>195.0</ele><time>2026-05-03T10:00:53Z</time></trkpt><trkpt lat="54.13564199737726" lon="30.45722598316917"><ele>195.0</ele><time>2026-05-03T10:00:54Z</time></trkpt><trkpt lat="54.135989536966036" lon="30.45720156516156"><ele>194.5</ele><time>2026-05-03T10:00:55Z</time></trkpt><trkpt lat="54.13633507498677" lon="30.457175195421886"><ele>194.0</ele><time>2026-05-03T10:00:56Z</time></trkpt><trkpt lat="54.13668370339126" lon="30.457140577620372"><ele>190.0</ele><time>2026-05-03T10:00:57Z</time></trkpt><trkpt lat="54.13702956923682" lon="30.45711865170781"><ele>186.0</ele><time>2026-05-03T10:00:58Z</time></trkpt><trkpt lat="54.137373825732865" lon="30.457104693123288"><ele>187.5</ele><time>2026-05-03T10:00:59Z</time></trkpt><trkpt lat="54.137723653910115" lon="30.45708951399502"><ele>189.0</ele><time>2026-05-03T10:01:00Z</time></trkpt><trkpt lat="54.138069043217946" lon="30.457071217833555"><ele>192.5</ele><time>2026-05-03T10:01:01Z</time></trkpt><trkpt lat="54.13841112204389" lon="30.45704529086048"><ele>196.0</ele><time>2026-05-03T10:01:02Z</time></trkpt><trkpt lat="54.138752561951556" lon="30.457023337998066"><ele>197.5</ele><time>2026-05-03T10:01:03Z</time></trkpt><trkpt lat="54.13909389582287" lon="30.45700533087513"><ele>199.0</ele><time>2026-05-03T10:01:04Z</time></trkpt><trkpt lat="54.139431783978566" lon="30.456992605472433"><ele>199.0</ele><time>2026-05-03T10:01:05Z</time></trkpt><trkpt lat="54.13977078087235" lon="30.456970322214627"><ele>199.0</ele><time>2026-05-03T10:01:06Z</time></trkpt><trkpt lat="54.14010231637774" lon="30.456951045010225"><ele>199.0</ele><time>2026-05-03T10:01:07Z</time></trkpt><trkpt lat="54.14043605249545" lon="30.456930361018337"><ele>199.0</ele><time>2026-05-03T10:01:08Z</time></trkpt><trkpt lat="54.14076687206191" lon="30.456902362911833"><ele>199.0</ele><time>2026-05-03T10:01:09Z</time></trkpt><trkpt lat="54.14109467594607" lon="30.456884348769165"><ele>199.0</ele><time>2026-05-03T10:01:10Z</time></trkpt><trkpt lat="54.14142266387501" lon="30.45686740958021"><ele>199.5</ele><time>2026-05-03T10:01:11Z</time></trkpt><trkpt lat="54.14174767032855" lon="30.45684744081223"><ele>200.0</ele><time>2026-05-03T10:01:12Z</time></trkpt><trkpt lat="54.14206650314639" lon="30.456829671109894"><ele>199.5</ele><time>2026-05-03T10:01:13Z</time></trkpt><trkpt lat="54.14238265606154" lon="30.456808458301786"><ele>199.0</ele><time>2026-05-03T10:01:14Z</time></trkpt><trkpt lat="54.14269553256679" lon="30.45679004087689"><ele>199.0</ele><time>2026-05-03T10:01:15Z</time></trkpt><trkpt lat="54.14300384487409" lon="30.456761240381507"><ele>199.0</ele><time>2026-05-03T10:01:16Z</time></trkpt><trkpt lat="54.14328376033479" lon="30.456754784210734"><ele>200.0</ele><time>2026-05-03T10:01:17Z</time></trkpt><trkpt lat="54.14356168724143" lon="30.4567706828205"><ele>201.0</ele><time>2026-05-03T10:01:18Z</time></trkpt><trkpt lat="54.14387413964141" lon="30.456719934707017"><ele>200.5</ele><time>2026-05-03T10:01:19Z</time></trkpt><trkpt lat="54.14414256328976" lon="30.456702860293287"><ele>200.0</ele><time>2026-05-03T10:01:20Z</time></trkpt><trkpt lat="54.14441879023539" lon="30.456679943850858"><ele>200.0</ele><time>2026-05-03T10:01:21Z</time></trkpt><trkpt lat="54.144693630247026" lon="30.45666536361713"><ele>200.0</ele><time>2026-05-03T10:01:22Z</time></trkpt><trkpt lat="54.14496915028713" lon="30.45665742669566"><ele>201.0</ele><time>2026-05-03T10:01:23Z</time></trkpt><trkpt lat="54.14523496161151" lon="30.456637764052505"><ele>202.0</ele><time>2026-05-03T10:01:24Z</time></trkpt><trkpt lat="54.14549431736334" lon="30.456651616304363"><ele>203.0</ele><time>2026-05-03T10:01:24.999Z</time></trkpt><trkpt lat="54.145757947723546" lon="30.456637587134065"><ele>204.0</ele><time>2026-05-03T10:01:25.999Z</time></trkpt><trkpt lat="54.14603098943048" lon="30.456622434343895"><ele>204.0</ele><time>2026-05-03T10:01:26.999Z</time></trkpt><trkpt lat="54.146297956589656" lon="30.456607429101272"><ele>204.0</ele><time>2026-05-03T10:01:27.999Z</time></trkpt><trkpt lat="54.14656062730547" lon="30.456592259464085"><ele>201.5</ele><time>2026-05-03T10:01:28.999Z</time></trkpt><trkpt lat="54.14681533816232" lon="30.456578022426626"><ele>199.0</ele><time>2026-05-03T10:01:29.999Z</time></trkpt><trkpt lat="54.14707005381523" lon="30.456564353007984"><ele>199.0</ele><time>2026-05-03T10:01:30.999Z</time></trkpt><trkpt lat="54.14732765053335" lon="30.456549429900438"><ele>199.0</ele><time>2026-05-03T10:01:31.999Z</time></trkpt><trkpt lat="54.14758492516438" lon="30.456535659840387"><ele>198.5</ele><time>2026-05-03T10:01:32.999Z</time></trkpt><trkpt lat="54.14784193064976" lon="30.456500937693534"><ele>198.0</ele><time>2026-05-03T10:01:33.999Z</time></trkpt><trkpt lat="54.14809690343642" lon="30.45649299189381"><ele>199.5</ele><time>2026-05-03T10:01:34.999Z</time></trkpt><trkpt lat="54.148352086667366" lon="30.456484233278417"><ele>201.0</ele><time>2026-05-03T10:01:35.999Z</time></trkpt><trkpt lat="54.1486072995425" lon="30.456463084616605"><ele>201.0</ele><time>2026-05-03T10:01:36.999Z</time></trkpt><trkpt lat="54.14885288650927" lon="30.456449775400085"><ele>201.0</ele><time>2026-05-03T10:01:37.999Z</time></trkpt><trkpt lat="54.14909522277652" lon="30.456435599475476"><ele>201.0</ele><time>2026-05-03T10:01:38.999Z</time></trkpt><trkpt lat="54.14934603943349" lon="30.45642181773156"><ele>201.0</ele><time>2026-05-03T10:01:39.999Z</time></trkpt><trkpt lat="54.14960691353575" lon="30.45641315883174"><ele>201.0</ele><time>2026-05-03T10:01:40.999Z</time></trkpt><trkpt lat="54.14985848543372" lon="30.4563979633866"><ele>201.0</ele><time>2026-05-03T10:01:41.999Z</time></trkpt><trkpt lat="54.150108873161564" lon="30.456381399682595"><ele>197.5</ele><time>2026-05-03T10:01:42.999Z</time></trkpt><trkpt lat="54.15035563021727" lon="30.456364451539734"><ele>194.0</ele><time>2026-05-03T10:01:43.999Z</time></trkpt><trkpt lat="54.15060532177362" lon="30.45634907301713"><ele>191.5</ele><time>2026-05-03T10:01:44.999Z</time></trkpt><trkpt lat="54.15086410363095" lon="30.456330624700932"><ele>189.0</ele><time>2026-05-03T10:01:45.999Z</time></trkpt><trkpt lat="54.151129836053954" lon="30.456309371439136"><ele>189.5</ele><time>2026-05-03T10:01:46.999Z</time></trkpt><trkpt lat="54.15140019570428" lon="30.45628075129322"><ele>190.0</ele><time>2026-05-03T10:01:47.999Z</time></trkpt><trkpt lat="54.1516810367903" lon="30.456282938712945"><ele>188.5</ele><time>2026-05-03T10:01:48.999Z</time></trkpt><trkpt lat="54.151972802270215" lon="30.456265053806398"><ele>187.0</ele><time>2026-05-03T10:01:49.999Z</time></trkpt><trkpt lat="54.152255702492035" lon="30.456247393096515"><ele>185.0</ele><time>2026-05-03T10:01:50.999Z</time></trkpt><trkpt lat="54.15254974800183" lon="30.4562293286139"><ele>183.0</ele><time>2026-05-03T10:01:51.999Z</time></trkpt><trkpt lat="54.1528474919901" lon="30.456210901259173"><ele>183.0</ele><time>2026-05-03T10:01:52.999Z</time></trkpt><trkpt lat="54.15314862643351" lon="30.456192127475965"><ele>183.0</ele><time>2026-05-03T10:01:53.999Z</time></trkpt><trkpt lat="54.15345077919423" lon="30.45617329020619"><ele>182.0</ele><time>2026-05-03T10:01:54.999Z</time></trkpt><trkpt lat="54.15375596166358" lon="30.456154506434267"><ele>181.0</ele><time>2026-05-03T10:01:55.999Z</time></trkpt><trkpt lat="54.15405735517508" lon="30.45613601256079"><ele>180.0</ele><time>2026-05-03T10:01:56.999Z</time></trkpt><trkpt lat="54.15436379049863" lon="30.456117313860588"><ele>179.0</ele><time>2026-05-03T10:01:57.999Z</time></trkpt><trkpt lat="54.15466156842216" lon="30.45609878059508"><ele>180.0</ele><time>2026-05-03T10:01:58.999Z</time></trkpt><trkpt lat="54.15496717662016" lon="30.456080577103293"><ele>181.0</ele><time>2026-05-03T10:01:59.999Z</time></trkpt><trkpt lat="54.15527446115712" lon="30.456061149547434"><ele>181.0</ele><time>2026-05-03T10:02:00.999Z</time></trkpt><trkpt lat="54.15558412714114" lon="30.456041982148836"><ele>181.0</ele><time>2026-05-03T10:02:01.999Z</time></trkpt><trkpt lat="54.155906226290625" lon="30.45602170693748"><ele>181.0</ele><time>2026-05-03T10:02:02.999Z</time></trkpt><trkpt lat="54.156243013609554" lon="30.45600050757495"><ele>181.0</ele><time>2026-05-03T10:02:03.999Z</time></trkpt><trkpt lat="54.15655244773618" lon="30.455965571253913"><ele>182.0</ele><time>2026-05-03T10:02:04.999Z</time></trkpt><trkpt lat="54.15686990771779" lon="30.455957568420768"><ele>183.0</ele><time>2026-05-03T10:02:05.999Z</time></trkpt><trkpt lat="54.15718305768731" lon="30.45594143372125"><ele>186.0</ele><time>2026-05-03T10:02:06.999Z</time></trkpt><trkpt lat="54.15749207618255" lon="30.45593222312646"><ele>189.0</ele><time>2026-05-03T10:02:07.999Z</time></trkpt><trkpt lat="54.15779247763948" lon="30.455909555298813"><ele>189.0</ele><time>2026-05-03T10:02:08.999Z</time></trkpt><trkpt lat="54.158088142956814" lon="30.45589203007835"><ele>189.0</ele><time>2026-05-03T10:02:09.999Z</time></trkpt><trkpt lat="54.15837907301162" lon="30.455862601148212"><ele>191.5</ele><time>2026-05-03T10:02:10.999Z</time></trkpt><trkpt lat="54.15867340650856" lon="30.45584267291702"><ele>194.0</ele><time>2026-05-03T10:02:11.999Z</time></trkpt><trkpt lat="54.15896473959196" lon="30.455825483710633"><ele>195.5</ele><time>2026-05-03T10:02:12.999Z</time></trkpt><trkpt lat="54.159260241844926" lon="30.455807590091325"><ele>197.0</ele><time>2026-05-03T10:02:13.999Z</time></trkpt><trkpt lat="54.15955720774727" lon="30.455790427535366"><ele>197.0</ele><time>2026-05-03T10:02:14.999Z</time></trkpt><trkpt lat="54.15985351667416" lon="30.455776859376076"><ele>197.0</ele><time>2026-05-03T10:02:15.999Z</time></trkpt><trkpt lat="54.16014680285148" lon="30.455760934096123"><ele>198.0</ele><time>2026-05-03T10:02:16.999Z</time></trkpt><trkpt lat="54.16043870036195" lon="30.455742294270813"><ele>199.0</ele><time>2026-05-03T10:02:17.999Z</time></trkpt><trkpt lat="54.160726920450934" lon="30.455724123124284"><ele>199.0</ele><time>2026-05-03T10:02:18.999Z</time></trkpt><trkpt lat="54.161016209229764" lon="30.455707876124166"><ele>199.0</ele><time>2026-05-03T10:02:19.999Z</time></trkpt><trkpt lat="54.16130309132923" lon="30.455686699066344"><ele>199.0</ele><time>2026-05-03T10:02:20.999Z</time></trkpt><trkpt lat="54.16159220635234" lon="30.45566793579006"><ele>199.0</ele><time>2026-05-03T10:02:21.999Z</time></trkpt><trkpt lat="54.161883274413604" lon="30.455657006170522"><ele>199.0</ele><time>2026-05-03T10:02:22.999Z</time></trkpt><trkpt lat="54.16217117233453" lon="30.455635172127096"><ele>199.0</ele><time>2026-05-03T10:02:23.999Z</time></trkpt><trkpt lat="54.16245028321875" lon="30.455613644128952"><ele>199.0</ele><time>2026-05-03T10:02:24.999Z</time></trkpt><trkpt lat="54.16271963912102" lon="30.455601589428458"><ele>199.0</ele><time>2026-05-03T10:02:25.999Z</time></trkpt><trkpt lat="54.16297904482753" lon="30.455592330283793"><ele>197.5</ele><time>2026-05-03T10:02:26.999Z</time></trkpt><trkpt lat="54.163229074801514" lon="30.45558300743184"><ele>196.0</ele><time>2026-05-03T10:02:27.999Z</time></trkpt><trkpt lat="54.16347992691294" lon="30.455577187417493"><ele>196.0</ele><time>2026-05-03T10:02:28.999Z</time></trkpt><trkpt lat="54.16372681389075" lon="30.455557182057948"><ele>196.0</ele><time>2026-05-03T10:02:29.999Z</time></trkpt><trkpt lat="54.16397827138275" lon="30.455537511860495"><ele>195.0</ele><time>2026-05-03T10:02:30.999Z</time></trkpt><trkpt lat="54.16423521661049" lon="30.455528062830894"><ele>194.0</ele><time>2026-05-03T10:02:31.999Z</time></trkpt><trkpt lat="54.164493547101976" lon="30.45551133875568"><ele>194.0</ele><time>2026-05-03T10:02:32.999Z</time></trkpt><trkpt lat="54.16475414582769" lon="30.455495499393948"><ele>194.0</ele><time>2026-05-03T10:02:33.999Z</time></trkpt><trkpt lat="54.165013184421376" lon="30.45548128669903"><ele>193.5</ele><time>2026-05-03T10:02:34.999Z</time></trkpt><trkpt lat="54.165278424473776" lon="30.455458772155733"><ele>193.0</ele><time>2026-05-03T10:02:35.999Z</time></trkpt><trkpt lat="54.165539761111326" lon="30.455444917730876"><ele>191.0</ele><time>2026-05-03T10:02:36.999Z</time></trkpt><trkpt lat="54.165794200856546" lon="30.455426894731424"><ele>189.0</ele><time>2026-05-03T10:02:37.999Z</time></trkpt><trkpt lat="54.166028543564416" lon="30.455417847141256"><ele>189.0</ele><time>2026-05-03T10:02:38.999Z</time></trkpt><trkpt lat="54.16626589660179" lon="30.45540293732156"><ele>189.0</ele><time>2026-05-03T10:02:39.999Z</time></trkpt><trkpt lat="54.166509660259884" lon="30.455392712078858"><ele>190.0</ele><time>2026-05-03T10:02:40.999Z</time></trkpt><trkpt lat="54.16675222457173" lon="30.45538300889217"><ele>191.0</ele><time>2026-05-03T10:02:41.999Z</time></trkpt><trkpt lat="54.16699383871458" lon="30.455365414207268"><ele>191.0</ele><time>2026-05-03T10:02:42.999Z</time></trkpt><trkpt lat="54.1672371561229" lon="30.455349538221633"><ele>191.0</ele><time>2026-05-03T10:02:43.999Z</time></trkpt><trkpt lat="54.1674759658252" lon="30.455333480037403"><ele>191.5</ele><time>2026-05-03T10:02:44.999Z</time></trkpt><trkpt lat="54.16770702112405" lon="30.45532425190608"><ele>192.0</ele><time>2026-05-03T10:02:46Z</time></trkpt><trkpt lat="54.1679281290618" lon="30.455313697890308"><ele>192.0</ele><time>2026-05-03T10:02:47Z</time></trkpt><trkpt lat="54.168140765688605" lon="30.45530080049188"><ele>192.0</ele><time>2026-05-03T10:02:48Z</time></trkpt><trkpt lat="54.16833161349654" lon="30.455289718265853"><ele>192.0</ele><time>2026-05-03T10:02:49Z</time></trkpt><trkpt lat="54.16852199932843" lon="30.455264006783516"><ele>191.0</ele><time>2026-05-03T10:02:50Z</time></trkpt><trkpt lat="54.16872062573315" lon="30.455269585323347"><ele>190.0</ele><time>2026-05-03T10:02:51Z</time></trkpt><trkpt lat="54.16892060851245" lon="30.45525413547004"><ele>189.0</ele><time>2026-05-03T10:02:52Z</time></trkpt><trkpt lat="54.169097930181536" lon="30.455237517589108"><ele>189.0</ele><time>2026-05-03T10:02:53Z</time></trkpt><trkpt lat="54.169280264286385" lon="30.455224916359015"><ele>189.0</ele><time>2026-05-03T10:02:54Z</time></trkpt><trkpt lat="54.16946801800531" lon="30.455223806159083"><ele>189.0</ele><time>2026-05-03T10:02:55Z</time></trkpt><trkpt lat="54.169643576730195" lon="30.455202623094788"><ele>189.0</ele><time>2026-05-03T10:02:56Z</time></trkpt><trkpt lat="54.169821679359785" lon="30.455191736890093"><ele>189.0</ele><time>2026-05-03T10:02:57Z</time></trkpt><trkpt lat="54.16999592897223" lon="30.4551863452755"><ele>189.0</ele><time>2026-05-03T10:02:58Z</time></trkpt><trkpt lat="54.170158840789355" lon="30.45517532270991"><ele>189.0</ele><time>2026-05-03T10:02:59Z</time></trkpt><trkpt lat="54.170319428513295" lon="30.45515889073527"><ele>189.0</ele><time>2026-05-03T10:03:00Z</time></trkpt><trkpt lat="54.17048831419526" lon="30.455149603693844"><ele>189.0</ele><time>2026-05-03T10:03:01Z</time></trkpt><trkpt lat="54.1706594801406" lon="30.45514965928665"><ele>186.66666666666666</ele><time>2026-05-03T10:03:02Z</time></trkpt><trkpt lat="54.170815890454584" lon="30.45513263249733"><ele>184.33333333333331</ele><time>2026-05-03T10:03:03Z</time></trkpt><trkpt lat="54.17096552352043" lon="30.45511868867207"><ele>182.0</ele><time>2026-05-03T10:03:04Z</time></trkpt><trkpt lat="54.17111950961715" lon="30.45511437884918"><ele>182.0</ele><time>2026-05-03T10:03:05Z</time></trkpt><trkpt lat="54.17128298566642" lon="30.455098773125098"><ele>182.0</ele><time>2026-05-03T10:03:06Z</time></trkpt><trkpt lat="54.171451621099756" lon="30.455089125776077"><ele>182.0</ele><time>2026-05-03T10:03:07Z</time></trkpt><trkpt lat="54.171628835437765" lon="30.455084190041184"><ele>182.0</ele><time>2026-05-03T10:03:08Z</time></trkpt><trkpt lat="54.171797346779236" lon="30.45507560014048"><ele>182.0</ele><time>2026-05-03T10:03:09Z</time></trkpt><trkpt lat="54.171970014932164" lon="30.455044203020083"><ele>182.0</ele><time>2026-05-03T10:03:10Z</time></trkpt><trkpt lat="54.17216568626816" lon="30.455047739791016"><ele>183.33333333333331</ele><time>2026-05-03T10:03:11Z</time></trkpt><trkpt lat="54.17236732928481" lon="30.455045860644045"><ele>184.66666666666666</ele><time>2026-05-03T10:03:12Z</time></trkpt><trkpt lat="54.172574282054164" lon="30.455033874615783"><ele>186.0</ele><time>2026-05-03T10:03:13Z</time></trkpt><trkpt lat="54.17279304648702" lon="30.455014392866516"><ele>186.0</ele><time>2026-05-03T10:03:14Z</time></trkpt><trkpt lat="54.173007089696576" lon="30.454999974977103"><ele>186.0</ele><time>2026-05-03T10:03:15Z</time></trkpt><trkpt lat="54.17323296280223" lon="30.45498209148971"><ele>186.0</ele><time>2026-05-03T10:03:16Z</time></trkpt><trkpt lat="54.173450847401384" lon="30.454968635776464"><ele>187.0</ele><time>2026-05-03T10:03:17Z</time></trkpt><trkpt lat="54.17366798391219" lon="30.454959768059158"><ele>188.0</ele><time>2026-05-03T10:03:18Z</time></trkpt><trkpt lat="54.17389851188781" lon="30.45494505291277"><ele>189.0</ele><time>2026-05-03T10:03:19Z</time></trkpt><trkpt lat="54.17412404630902" lon="30.45493305896007"><ele>194.0</ele><time>2026-05-03T10:03:20Z</time></trkpt><trkpt lat="54.174358297329" lon="30.454917504034274"><ele>199.0</ele><time>2026-05-03T10:03:21Z</time></trkpt><trkpt lat="54.17460526029898" lon="30.454908287443093"><ele>199.5</ele><time>2026-05-03T10:03:22Z</time></trkpt><trkpt lat="54.17486495175224" lon="30.454901214605297"><ele>200.0</ele><time>2026-05-03T10:03:23Z</time></trkpt><trkpt lat="54.17513644380993" lon="30.4548872596737"><ele>200.0</ele><time>2026-05-03T10:03:24Z</time></trkpt><trkpt lat="54.17541312152422" lon="30.454871928892437"><ele>200.0</ele><time>2026-05-03T10:03:25Z</time></trkpt><trkpt lat="54.17569467174629" lon="30.454852650571755"><ele>199.0</ele><time>2026-05-03T10:03:26Z</time></trkpt><trkpt lat="54.17594935035338" lon="30.454834152068376"><ele>198.0</ele><time>2026-05-03T10:03:27Z</time></trkpt><trkpt lat="54.17618308321071" lon="30.4548219883131"><ele>198.0</ele><time>2026-05-03T10:03:28Z</time></trkpt><trkpt lat="54.17641428623291" lon="30.45480724226624"><ele>198.0</ele><time>2026-05-03T10:03:29Z</time></trkpt><trkpt lat="54.176658033779006" lon="30.454789861078368"><ele>196.5</ele><time>2026-05-03T10:03:30Z</time></trkpt><trkpt lat="54.176905552833944" lon="30.454769404811298"><ele>195.0</ele><time>2026-05-03T10:03:31Z</time></trkpt><trkpt lat="54.17715458871674" lon="30.454749271367174"><ele>196.0</ele><time>2026-05-03T10:03:32Z</time></trkpt><trkpt lat="54.177405889235665" lon="30.45473559786216"><ele>197.0</ele><time>2026-05-03T10:03:33Z</time></trkpt><trkpt lat="54.17764723056945" lon="30.45472192841069"><ele>197.0</ele><time>2026-05-03T10:03:34Z</time></trkpt><trkpt lat="54.17788682582392" lon="30.454704302352535"><ele>197.0</ele><time>2026-05-03T10:03:35Z</time></trkpt><trkpt lat="54.17813762414802" lon="30.454718168795267"><ele>199.5</ele><time>2026-05-03T10:03:36Z</time></trkpt><trkpt lat="54.17839451292109" lon="30.454710637054795"><ele>202.0</ele><time>2026-05-03T10:03:37Z</time></trkpt><trkpt lat="54.17865456958702" lon="30.454697853177517"><ele>202.0</ele><time>2026-05-03T10:03:38Z</time></trkpt><trkpt lat="54.17889251757702" lon="30.45468615610987"><ele>202.0</ele><time>2026-05-03T10:03:39Z</time></trkpt><trkpt lat="54.17914658976784" lon="30.45467368786372"><ele>202.0</ele><time>2026-05-03T10:03:40Z</time></trkpt><trkpt lat="54.17940338161683" lon="30.454661424044513"><ele>202.0</ele><time>2026-05-03T10:03:41Z</time></trkpt><trkpt lat="54.17965706085635" lon="30.454649308879464"><ele>202.5</ele><time>2026-05-03T10:03:42Z</time></trkpt><trkpt lat="54.17991371053804" lon="30.4546365992975"><ele>203.0</ele><time>2026-05-03T10:03:43Z</time></trkpt><trkpt lat="54.18016348117553" lon="30.45462398461741"><ele>203.0</ele><time>2026-05-03T10:03:43.999Z</time></trkpt><trkpt lat="54.1804036651495" lon="30.454611854110507"><ele>203.0</ele><time>2026-05-03T10:03:44.999Z</time></trkpt><trkpt lat="54.18064422267244" lon="30.454582421407164"><ele>204.0</ele><time>2026-05-03T10:03:45.999Z</time></trkpt><trkpt lat="54.18088468827685" lon="30.45453037659662"><ele>205.0</ele><time>2026-05-03T10:03:46.999Z</time></trkpt><trkpt lat="54.181128730000104" lon="30.454518744238484"><ele>205.0</ele><time>2026-05-03T10:03:47.999Z</time></trkpt><trkpt lat="54.18136996684501" lon="30.454507012039873"><ele>205.0</ele><time>2026-05-03T10:03:48.999Z</time></trkpt><trkpt lat="54.18162029874983" lon="30.45450146809736"><ele>205.5</ele><time>2026-05-03T10:03:49.999Z</time></trkpt><trkpt lat="54.18187844995633" lon="30.454490861537764"><ele>206.0</ele><time>2026-05-03T10:03:50.999Z</time></trkpt><trkpt lat="54.182146287362215" lon="30.454481395714783"><ele>206.0</ele><time>2026-05-03T10:03:51.999Z</time></trkpt><trkpt lat="54.182416525074785" lon="30.454463667851137"><ele>206.0</ele><time>2026-05-03T10:03:52.999Z</time></trkpt><trkpt lat="54.182690250141704" lon="30.454449416193636"><ele>206.0</ele><time>2026-05-03T10:03:53.999Z</time></trkpt><trkpt lat="54.182963084130726" lon="30.454432245657223"><ele>206.0</ele><time>2026-05-03T10:03:54.999Z</time></trkpt><trkpt lat="54.18324472009155" lon="30.454412298901588"><ele>205.5</ele><time>2026-05-03T10:03:55.999Z</time></trkpt><trkpt lat="54.183526353003764" lon="30.454397754334725"><ele>205.0</ele><time>2026-05-03T10:03:56.999Z</time></trkpt><trkpt lat="54.18380944722426" lon="30.45438601545222"><ele>204.5</ele><time>2026-05-03T10:03:57.999Z</time></trkpt><trkpt lat="54.18409440873574" lon="30.454361555213485"><ele>204.0</ele><time>2026-05-03T10:03:58.999Z</time></trkpt><trkpt lat="54.18438260474564" lon="30.454349883223983"><ele>204.0</ele><time>2026-05-03T10:03:59.999Z</time></trkpt><trkpt lat="54.18467429007113" lon="30.454327025603796"><ele>204.0</ele><time>2026-05-03T10:04:00.999Z</time></trkpt><trkpt lat="54.18495697896934" lon="30.454304697993223"><ele>204.5</ele><time>2026-05-03T10:04:01.999Z</time></trkpt><trkpt lat="54.18524756343692" lon="30.454297335088434"><ele>205.0</ele><time>2026-05-03T10:04:02.999Z</time></trkpt><trkpt lat="54.185540938134785" lon="30.454277157901867"><ele>205.0</ele><time>2026-05-03T10:04:03.999Z</time></trkpt><trkpt lat="54.18583248606512" lon="30.454263666425746"><ele>205.0</ele><time>2026-05-03T10:04:04.999Z</time></trkpt><trkpt lat="54.18612910782809" lon="30.45424473240718"><ele>205.0</ele><time>2026-05-03T10:04:05.999Z</time></trkpt><trkpt lat="54.1864287681716" lon="30.454234118419482"><ele>205.0</ele><time>2026-05-03T10:04:06.999Z</time></trkpt><trkpt lat="54.18672664949603" lon="30.454217254436674"><ele>202.5</ele><time>2026-05-03T10:04:07.999Z</time></trkpt><trkpt lat="54.187027507942595" lon="30.454198276386663"><ele>200.0</ele><time>2026-05-03T10:04:08.999Z</time></trkpt><trkpt lat="54.18732728623862" lon="30.454189228847227"><ele>199.5</ele><time>2026-05-03T10:04:09.999Z</time></trkpt><trkpt lat="54.187630758656766" lon="30.454170420586966"><ele>199.0</ele><time>2026-05-03T10:04:10.999Z</time></trkpt><trkpt lat="54.18793481569102" lon="30.454148744555866"><ele>198.5</ele><time>2026-05-03T10:04:11.999Z</time></trkpt><trkpt lat="54.1882377408931" lon="30.45412648610349"><ele>198.0</ele><time>2026-05-03T10:04:12.999Z</time></trkpt><trkpt lat="54.18854020873509" lon="30.454120216304066"><ele>198.0</ele><time>2026-05-03T10:04:13.999Z</time></trkpt><trkpt lat="54.18882758360628" lon="30.454100037360327"><ele>198.0</ele><time>2026-05-03T10:04:14.999Z</time></trkpt><trkpt lat="54.18911247352535" lon="30.454085940890067"><ele>198.0</ele><time>2026-05-03T10:04:15.999Z</time></trkpt><trkpt lat="54.18939709685385" lon="30.4540680860031"><ele>198.0</ele><time>2026-05-03T10:04:16.999Z</time></trkpt><trkpt lat="54.18967769252807" lon="30.454049969036078"><ele>199.5</ele><time>2026-05-03T10:04:17.999Z</time></trkpt><trkpt lat="54.18995922801005" lon="30.45403247433496"><ele>201.0</ele><time>2026-05-03T10:04:18.999Z</time></trkpt><trkpt lat="54.19023855709214" lon="30.454014961020157"><ele>201.0</ele><time>2026-05-03T10:04:19.999Z</time></trkpt><trkpt lat="54.19051861124065" lon="30.454001519945763"><ele>201.0</ele><time>2026-05-03T10:04:20.999Z</time></trkpt><trkpt lat="54.19080108442846" lon="30.45398827975658"><ele>202.0</ele><time>2026-05-03T10:04:21.999Z</time></trkpt><trkpt lat="54.19107120024105" lon="30.453976456996465"><ele>203.0</ele><time>2026-05-03T10:04:22.999Z</time></trkpt><trkpt lat="54.19134762745503" lon="30.45396171519036"><ele>203.5</ele><time>2026-05-03T10:04:23.999Z</time></trkpt><trkpt lat="54.191628025722345" lon="30.45394538160267"><ele>204.0</ele><time>2026-05-03T10:04:24.999Z</time></trkpt><trkpt lat="54.19191113367242" lon="30.453928530132092"><ele>204.0</ele><time>2026-05-03T10:04:25.999Z</time></trkpt><trkpt lat="54.1922009313063" lon="30.45391370479309"><ele>204.0</ele><time>2026-05-03T10:04:26.999Z</time></trkpt><trkpt lat="54.192486660248775" lon="30.453895344907735"><ele>205.0</ele><time>2026-05-03T10:04:27.999Z</time></trkpt><trkpt lat="54.19278302280429" lon="30.453874123431838"><ele>206.0</ele><time>2026-05-03T10:04:28.999Z</time></trkpt><trkpt lat="54.19309508342721" lon="30.453850601297727"><ele>205.0</ele><time>2026-05-03T10:04:29.999Z</time></trkpt><trkpt lat="54.19341580477814" lon="30.453834951836637"><ele>204.0</ele><time>2026-05-03T10:04:30.999Z</time></trkpt><trkpt lat="54.19374617565865" lon="30.45382093811278"><ele>204.0</ele><time>2026-05-03T10:04:31.999Z</time></trkpt><trkpt lat="54.19408253693454" lon="30.453806242120844"><ele>204.0</ele><time>2026-05-03T10:04:32.999Z</time></trkpt><trkpt lat="54.194430623721004" lon="30.453793315234144"><ele>203.0</ele><time>2026-05-03T10:04:33.999Z</time></trkpt><trkpt lat="54.19477088457039" lon="30.45378077766918"><ele>202.0</ele><time>2026-05-03T10:04:34.999Z</time></trkpt><trkpt lat="54.195085902214295" lon="30.453764088128246"><ele>202.0</ele><time>2026-05-03T10:04:35.999Z</time></trkpt><trkpt lat="54.19538884609657" lon="30.453749235870532"><ele>202.0</ele><time>2026-05-03T10:04:36.999Z</time></trkpt><trkpt lat="54.19569883238946" lon="30.453733553161324"><ele>201.0</ele><time>2026-05-03T10:04:37.999Z</time></trkpt><trkpt lat="54.196003514473716" lon="30.45371018845602"><ele>200.0</ele><time>2026-05-03T10:04:38.999Z</time></trkpt><trkpt lat="54.19630986704423" lon="30.453687751600057"><ele>199.5</ele><time>2026-05-03T10:04:39.999Z</time></trkpt><trkpt lat="54.19661589146435" lon="30.453673015638802"><ele>199.0</ele><time>2026-05-03T10:04:40.999Z</time></trkpt><trkpt lat="54.19692323060674" lon="30.453662882016328"><ele>199.0</ele><time>2026-05-03T10:04:41.999Z</time></trkpt><trkpt lat="54.19723070912665" lon="30.453653406500727"><ele>199.0</ele><time>2026-05-03T10:04:42.999Z</time></trkpt><trkpt lat="54.197535105366015" lon="30.45363691322895"><ele>200.5</ele><time>2026-05-03T10:04:43.999Z</time></trkpt><trkpt lat="54.197843062480246" lon="30.453624558409896"><ele>202.0</ele><time>2026-05-03T10:04:44.999Z</time></trkpt><trkpt lat="54.198147212284454" lon="30.453607961400483"><ele>201.5</ele><time>2026-05-03T10:04:45.999Z</time></trkpt><trkpt lat="54.198442034391654" lon="30.453588464757786"><ele>201.0</ele><time>2026-05-03T10:04:46.999Z</time></trkpt><trkpt lat="54.198745236109374" lon="30.453578261106653"><ele>201.0</ele><time>2026-05-03T10:04:47.999Z</time></trkpt><trkpt lat="54.19904832155213" lon="30.45356669652283"><ele>201.0</ele><time>2026-05-03T10:04:48.999Z</time></trkpt><trkpt lat="54.199336767293396" lon="30.453545429073376"><ele>201.0</ele><time>2026-05-03T10:04:49.999Z</time></trkpt><trkpt lat="54.19963276961153" lon="30.4535260962425"><ele>201.0</ele><time>2026-05-03T10:04:50.999Z</time></trkpt><trkpt lat="54.199926689315674" lon="30.453507686594126"><ele>201.0</ele><time>2026-05-03T10:04:52Z</time></trkpt><trkpt lat="54.20022209934962" lon="30.45348914616489"><ele>201.0</ele><time>2026-05-03T10:04:53Z</time></trkpt><trkpt lat="54.2005115499202" lon="30.453476351723115"><ele>201.0</ele><time>2026-05-03T10:04:54Z</time></trkpt><trkpt lat="54.200800911920986" lon="30.453472971357456"><ele>201.0</ele><time>2026-05-03T10:04:55Z</time></trkpt><trkpt lat="54.2010953606933" lon="30.453467880166528"><ele>201.0</ele><time>2026-05-03T10:04:56Z</time></trkpt><trkpt lat="54.20138783841382" lon="30.45345478632674"><ele>201.0</ele><time>2026-05-03T10:04:57Z</time></trkpt><trkpt lat="54.201677052432274" lon="30.453444521175257"><ele>200.5</ele><time>2026-05-03T10:04:58Z</time></trkpt><trkpt lat="54.20197198683172" lon="30.453419792270374"><ele>200.0</ele><time>2026-05-03T10:04:59Z</time></trkpt><trkpt lat="54.2022683700448" lon="30.45340020405309"><ele>199.5</ele><time>2026-05-03T10:05:00Z</time></trkpt><trkpt lat="54.20255842493929" lon="30.453395312989116"><ele>199.0</ele><time>2026-05-03T10:05:01Z</time></trkpt><trkpt lat="54.202848711591706" lon="30.453374617333033"><ele>199.0</ele><time>2026-05-03T10:05:02Z</time></trkpt><trkpt lat="54.20314352094961" lon="30.453336927029184"><ele>199.0</ele><time>2026-05-03T10:05:03Z</time></trkpt><trkpt lat="54.20343875248661" lon="30.453342594557444"><ele>200.0</ele><time>2026-05-03T10:05:04Z</time></trkpt><trkpt lat="54.20370932720742" lon="30.453319502793484"><ele>201.0</ele><time>2026-05-03T10:05:05Z</time></trkpt><trkpt lat="54.203965165268265" lon="30.45330658777935"><ele>200.5</ele><time>2026-05-03T10:05:06Z</time></trkpt><trkpt lat="54.20421879320217" lon="30.453288926700107"><ele>200.0</ele><time>2026-05-03T10:05:07Z</time></trkpt><trkpt lat="54.20445568559389" lon="30.4532792016003"><ele>200.0</ele><time>2026-05-03T10:05:08Z</time></trkpt><trkpt lat="54.204688241586084" lon="30.45326788974054"><ele>200.0</ele><time>2026-05-03T10:05:09Z</time></trkpt><trkpt lat="54.2049145336981" lon="30.453252442352937"><ele>200.0</ele><time>2026-05-03T10:05:10Z</time></trkpt><trkpt lat="54.20513919812261" lon="30.453239080513214"><ele>200.0</ele><time>2026-05-03T10:05:11Z</time></trkpt><trkpt lat="54.20536781274128" lon="30.453229962333065"><ele>200.0</ele><time>2026-05-03T10:05:12Z</time></trkpt><trkpt lat="54.205577824740224" lon="30.453213347077185"><ele>200.0</ele><time>2026-05-03T10:05:13Z</time></trkpt><trkpt lat="54.205785011399634" lon="30.453199877435832"><ele>200.0</ele><time>2026-05-03T10:05:14Z</time></trkpt><trkpt lat="54.20598136954538" lon="30.453185686835795"><ele>200.0</ele><time>2026-05-03T10:05:15Z</time></trkpt><trkpt lat="54.20618417697279" lon="30.453175707937312"><ele>200.0</ele><time>2026-05-03T10:05:16Z</time></trkpt><trkpt lat="54.20638851457816" lon="30.453161925753612"><ele>200.0</ele><time>2026-05-03T10:05:17Z</time></trkpt><trkpt lat="54.20657197624744" lon="30.45315372034537"><ele>199.66666666666669</ele><time>2026-05-03T10:05:18Z</time></trkpt><trkpt lat="54.206759188694726" lon="30.453135356891483"><ele>199.33333333333331</ele><time>2026-05-03T10:05:19Z</time></trkpt><trkpt lat="54.20693687573248" lon="30.453129424981174"><ele>199.0</ele><time>2026-05-03T10:05:20Z</time></trkpt><trkpt lat="54.207105454768374" lon="30.45312184555059"><ele>199.0</ele><time>2026-05-03T10:05:21Z</time></trkpt><trkpt lat="54.20726635811902" lon="30.45311342743993"><ele>199.0</ele><time>2026-05-03T10:05:22Z</time></trkpt><trkpt lat="54.2074280662831" lon="30.453108553827928"><ele>199.0</ele><time>2026-05-03T10:05:23Z</time></trkpt><trkpt lat="54.20759720548348" lon="30.453098442375666"><ele>198.66666666666666</ele><time>2026-05-03T10:05:24Z</time></trkpt><trkpt lat="54.20776185741431" lon="30.45309095403587"><ele>198.33333333333331</ele><time>2026-05-03T10:05:25Z</time></trkpt><trkpt lat="54.20792957218751" lon="30.453078624212935"><ele>198.0</ele><time>2026-05-03T10:05:26Z</time></trkpt><trkpt lat="54.20809196509732" lon="30.453064933639542"><ele>197.66666666666669</ele><time>2026-05-03T10:05:27Z</time></trkpt><trkpt lat="54.208258462152166" lon="30.45305799860438"><ele>197.33333333333334</ele><time>2026-05-03T10:05:28Z</time></trkpt><trkpt lat="54.20841880211434" lon="30.453053903820418"><ele>197.0</ele><time>2026-05-03T10:05:29Z</time></trkpt><trkpt lat="54.20857511263155" lon="30.45304397242287"><ele>197.0</ele><time>2026-05-03T10:05:30Z</time></trkpt><trkpt lat="54.208738324695126" lon="30.453035630049357"><ele>197.0</ele><time>2026-05-03T10:05:31Z</time></trkpt><trkpt lat="54.20889871890043" lon="30.453027380703954"><ele>197.0</ele><time>2026-05-03T10:05:32Z</time></trkpt><trkpt lat="54.209048654901004" lon="30.453020768242066"><ele>198.66666666666669</ele><time>2026-05-03T10:05:33Z</time></trkpt><trkpt lat="54.209206471987585" lon="30.45301526350051"><ele>200.33333333333331</ele><time>2026-05-03T10:05:34Z</time></trkpt><trkpt lat="54.209375444351664" lon="30.453007007962405"><ele>202.0</ele><time>2026-05-03T10:05:35Z</time></trkpt><trkpt lat="54.209558242686036" lon="30.45299781622008"><ele>202.0</ele><time>2026-05-03T10:05:36Z</time></trkpt><trkpt lat="54.2097621591454" lon="30.452982998542286"><ele>202.0</ele><time>2026-05-03T10:05:37Z</time></trkpt><trkpt lat="54.20997637871604" lon="30.45296896434841"><ele>202.0</ele><time>2026-05-03T10:05:38Z</time></trkpt><trkpt lat="54.210203314096155" lon="30.45295829963856"><ele>200.5</ele><time>2026-05-03T10:05:39Z</time></trkpt><trkpt lat="54.21044382611704" lon="30.452950274525644"><ele>199.0</ele><time>2026-05-03T10:05:40Z</time></trkpt><trkpt lat="54.21069230318209" lon="30.452939937478543"><ele>198.0</ele><time>2026-05-03T10:05:41Z</time></trkpt><trkpt lat="54.210961110806366" lon="30.45292173974583"><ele>197.0</ele><time>2026-05-03T10:05:42Z</time></trkpt><trkpt lat="54.21123526020744" lon="30.452901260386163"><ele>197.0</ele><time>2026-05-03T10:05:43Z</time></trkpt><trkpt lat="54.21152240218803" lon="30.452885530795083"><ele>197.0</ele><time>2026-05-03T10:05:44Z</time></trkpt><trkpt lat="54.21181164058525" lon="30.452869704801476"><ele>197.0</ele><time>2026-05-03T10:05:45Z</time></trkpt><trkpt lat="54.21209015615672" lon="30.452850004067386"><ele>197.0</ele><time>2026-05-03T10:05:46Z</time></trkpt><trkpt lat="54.21236976765111" lon="30.452832505224087"><ele>198.0</ele><time>2026-05-03T10:05:47Z</time></trkpt><trkpt lat="54.21265231180876" lon="30.45281298316641"><ele>199.0</ele><time>2026-05-03T10:05:48Z</time></trkpt><trkpt lat="54.212935931267964" lon="30.45279339217334"><ele>199.5</ele><time>2026-05-03T10:05:49Z</time></trkpt><trkpt lat="54.21321920894364" lon="30.452779015493096"><ele>200.0</ele><time>2026-05-03T10:05:50Z</time></trkpt><trkpt lat="54.213501583465735" lon="30.452760222682592"><ele>200.0</ele><time>2026-05-03T10:05:51Z</time></trkpt><trkpt lat="54.213791054858554" lon="30.45274446176892"><ele>200.0</ele><time>2026-05-03T10:05:52Z</time></trkpt><trkpt lat="54.21407980460625" lon="30.45272133034063"><ele>199.0</ele><time>2026-05-03T10:05:53Z</time></trkpt><trkpt lat="54.21436851805995" lon="30.452696694874305"><ele>198.0</ele><time>2026-05-03T10:05:54Z</time></trkpt><trkpt lat="54.21465827684023" lon="30.452672867901587"><ele>198.5</ele><time>2026-05-03T10:05:55Z</time></trkpt><trkpt lat="54.21494697610047" lon="30.452653644764165"><ele>199.0</ele><time>2026-05-03T10:05:56Z</time></trkpt><trkpt lat="54.21523339032402" lon="30.452633793368406"><ele>199.0</ele><time>2026-05-03T10:05:57Z</time></trkpt><trkpt lat="54.21552585650742" lon="30.452616975170397"><ele>199.0</ele><time>2026-05-03T10:05:58Z</time></trkpt><trkpt lat="54.2158157867212" lon="30.45259995754017"><ele>199.0</ele><time>2026-05-03T10:05:59Z</time></trkpt><trkpt lat="54.216101519865184" lon="30.452593177897413"><ele>199.0</ele><time>2026-05-03T10:06:00Z</time></trkpt><trkpt lat="54.21639069259314" lon="30.45258500898242"><ele>199.0</ele><time>2026-05-03T10:06:01Z</time></trkpt><trkpt lat="54.21667713961647" lon="30.45257280003957"><ele>199.0</ele><time>2026-05-03T10:06:02Z</time></trkpt><trkpt lat="54.21696402969211" lon="30.452555487428576"><ele>199.0</ele><time>2026-05-03T10:06:03Z</time></trkpt><trkpt lat="54.21725608253352" lon="30.45253501726106"><ele>199.0</ele><time>2026-05-03T10:06:04Z</time></trkpt><trkpt lat="54.21754626561332" lon="30.452516068633916"><ele>200.5</ele><time>2026-05-03T10:06:04.999Z</time></trkpt><trkpt lat="54.217836811746864" lon="30.452503044253678"><ele>202.0</ele><time>2026-05-03T10:06:05.999Z</time></trkpt><trkpt lat="54.21813096133475" lon="30.452486749306296"><ele>202.0</ele><time>2026-05-03T10:06:06.999Z</time></trkpt><trkpt lat="54.21842558759345" lon="30.452471619267012"><ele>202.0</ele><time>2026-05-03T10:06:07.999Z</time></trkpt><trkpt lat="54.21871909766494" lon="30.452454050445045"><ele>203.0</ele><time>2026-05-03T10:06:08.999Z</time></trkpt><trkpt lat="54.21901933005359" lon="30.452437965646116"><ele>204.0</ele><time>2026-05-03T10:06:09.999Z</time></trkpt><trkpt lat="54.21931260273752" lon="30.45242675614756"><ele>204.0</ele><time>2026-05-03T10:06:10.999Z</time></trkpt><trkpt lat="54.21961104283788" lon="30.45241108562961"><ele>204.0</ele><time>2026-05-03T10:06:11.999Z</time></trkpt><trkpt lat="54.21991766246297" lon="30.45238865387877"><ele>203.5</ele><time>2026-05-03T10:06:12.999Z</time></trkpt><trkpt lat="54.22021364878409" lon="30.45237562359398"><ele>203.0</ele><time>2026-05-03T10:06:13.999Z</time></trkpt><trkpt lat="54.220515947817766" lon="30.452359001705894"><ele>202.0</ele><time>2026-05-03T10:06:14.999Z</time></trkpt><trkpt lat="54.22081885648279" lon="30.452340321050773"><ele>201.0</ele><time>2026-05-03T10:06:15.999Z</time></trkpt><trkpt lat="54.221118165720014" lon="30.452331438920528"><ele>201.0</ele><time>2026-05-03T10:06:16.999Z</time></trkpt><trkpt lat="54.221419987951535" lon="30.45231730934748"><ele>201.0</ele><time>2026-05-03T10:06:17.999Z</time></trkpt><trkpt lat="54.22200638491693" lon="30.45229339926925"><ele>201.0</ele><time>2026-05-03T10:06:19.999Z</time></trkpt><trkpt lat="54.2222844182826" lon="30.452266830661014"><ele>201.0</ele><time>2026-05-03T10:06:20.999Z</time></trkpt><trkpt lat="54.22255793697086" lon="30.452256078778525"><ele>201.0</ele><time>2026-05-03T10:06:21.999Z</time></trkpt><trkpt lat="54.22283365375912" lon="30.452238699712694"><ele>201.0</ele><time>2026-05-03T10:06:22.999Z</time></trkpt><trkpt lat="54.22312054858809" lon="30.452215685068204"><ele>201.5</ele><time>2026-05-03T10:06:23.999Z</time></trkpt><trkpt lat="54.223397439916546" lon="30.452197867762344"><ele>202.0</ele><time>2026-05-03T10:06:24.999Z</time></trkpt><trkpt lat="54.2236847344264" lon="30.452181324411807"><ele>202.0</ele><time>2026-05-03T10:06:25.999Z</time></trkpt><trkpt lat="54.22397265219135" lon="30.452163697615642"><ele>202.0</ele><time>2026-05-03T10:06:26.999Z</time></trkpt><trkpt lat="54.2242587253288" lon="30.45214595715259"><ele>201.0</ele><time>2026-05-03T10:06:27.999Z</time></trkpt><trkpt lat="54.22455971170395" lon="30.452126857618342"><ele>200.0</ele><time>2026-05-03T10:06:28.999Z</time></trkpt><trkpt lat="54.22484988523961" lon="30.452113225833095"><ele>200.0</ele><time>2026-05-03T10:06:29.999Z</time></trkpt><trkpt lat="54.225147342765574" lon="30.45210914194793"><ele>200.0</ele><time>2026-05-03T10:06:30.999Z</time></trkpt><trkpt lat="54.22544392249222" lon="30.452101955340375"><ele>200.0</ele><time>2026-05-03T10:06:31.999Z</time></trkpt><trkpt lat="54.2257485455761" lon="30.45208577000722"><ele>200.0</ele><time>2026-05-03T10:06:32.999Z</time></trkpt><trkpt lat="54.22604475929395" lon="30.452071448923693"><ele>200.0</ele><time>2026-05-03T10:06:33.999Z</time></trkpt><trkpt lat="54.226346443329156" lon="30.452055025362473"><ele>200.0</ele><time>2026-05-03T10:06:34.999Z</time></trkpt><trkpt lat="54.22665018904701" lon="30.452039868591424"><ele>199.5</ele><time>2026-05-03T10:06:35.999Z</time></trkpt><trkpt lat="54.22695330919944" lon="30.45203919656718"><ele>199.0</ele><time>2026-05-03T10:06:36.999Z</time></trkpt><trkpt lat="54.22726187255262" lon="30.452015599249755"><ele>198.0</ele><time>2026-05-03T10:06:37.999Z</time></trkpt><trkpt lat="54.2275737547299" lon="30.452004008139745"><ele>197.0</ele><time>2026-05-03T10:06:38.999Z</time></trkpt><trkpt lat="54.22789054500309" lon="30.451981468820495"><ele>197.0</ele><time>2026-05-03T10:06:39.999Z</time></trkpt><trkpt lat="54.22820542463458" lon="30.451967000418374"><ele>197.0</ele><time>2026-05-03T10:06:40.999Z</time></trkpt><trkpt lat="54.228526814645974" lon="30.451944071735557"><ele>197.0</ele><time>2026-05-03T10:06:41.999Z</time></trkpt><trkpt lat="54.22884785199183" lon="30.45192465092158"><ele>197.0</ele><time>2026-05-03T10:06:42.999Z</time></trkpt><trkpt lat="54.22917174674049" lon="30.451909278417265"><ele>196.0</ele><time>2026-05-03T10:06:43.999Z</time></trkpt><trkpt lat="54.22949701433492" lon="30.451896252551002"><ele>195.0</ele><time>2026-05-03T10:06:44.999Z</time></trkpt><trkpt lat="54.22982467529622" lon="30.451884006496616"><ele>193.5</ele><time>2026-05-03T10:06:45.999Z</time></trkpt><trkpt lat="54.23015202388359" lon="30.451868280300427"><ele>192.0</ele><time>2026-05-03T10:06:46.999Z</time></trkpt><trkpt lat="54.23047432983654" lon="30.451868860356036"><ele>191.0</ele><time>2026-05-03T10:06:47.999Z</time></trkpt><trkpt lat="54.23080324499022" lon="30.451849997434167"><ele>190.0</ele><time>2026-05-03T10:06:48.999Z</time></trkpt><trkpt lat="54.23113094304851" lon="30.451831154526143"><ele>190.0</ele><time>2026-05-03T10:06:49.999Z</time></trkpt><trkpt lat="54.23145589984283" lon="30.451810168354044"><ele>190.0</ele><time>2026-05-03T10:06:50.999Z</time></trkpt><trkpt lat="54.23177801432377" lon="30.451794127307213"><ele>191.0</ele><time>2026-05-03T10:06:51.999Z</time></trkpt><trkpt lat="54.232100209462644" lon="30.45177682775404"><ele>192.0</ele><time>2026-05-03T10:06:52.999Z</time></trkpt><trkpt lat="54.23241648430536" lon="30.451752279793137"><ele>193.5</ele><time>2026-05-03T10:06:53.999Z</time></trkpt><trkpt lat="54.23273200438713" lon="30.451739772192873"><ele>195.0</ele><time>2026-05-03T10:06:54.999Z</time></trkpt><trkpt lat="54.23304664490612" lon="30.451714637513064"><ele>196.0</ele><time>2026-05-03T10:06:55.999Z</time></trkpt><trkpt lat="54.233357536589494" lon="30.451693963793865"><ele>197.0</ele><time>2026-05-03T10:06:56.999Z</time></trkpt><trkpt lat="54.23366728312392" lon="30.451668704599182"><ele>197.5</ele><time>2026-05-03T10:06:58Z</time></trkpt><trkpt lat="54.23397775611816" lon="30.451640821628924"><ele>198.0</ele><time>2026-05-03T10:06:59Z</time></trkpt><trkpt lat="54.23429090646065" lon="30.451620099540726"><ele>198.0</ele><time>2026-05-03T10:07:00Z</time></trkpt><trkpt lat="54.2345923448396" lon="30.45161029704634"><ele>198.0</ele><time>2026-05-03T10:07:01Z</time></trkpt><trkpt lat="54.234900434559286" lon="30.451593820497045"><ele>198.0</ele><time>2026-05-03T10:07:02Z</time></trkpt><trkpt lat="54.235205468682246" lon="30.45158533900894"><ele>198.0</ele><time>2026-05-03T10:07:03Z</time></trkpt><trkpt lat="54.23551412178104" lon="30.451566607194312"><ele>198.5</ele><time>2026-05-03T10:07:04Z</time></trkpt><trkpt lat="54.23581884828661" lon="30.4515546462265"><ele>199.0</ele><time>2026-05-03T10:07:05Z</time></trkpt><trkpt lat="54.23612720951729" lon="30.45153011696135"><ele>199.0</ele><time>2026-05-03T10:07:06Z</time></trkpt><trkpt lat="54.236436803461494" lon="30.45151252098219"><ele>199.0</ele><time>2026-05-03T10:07:07Z</time></trkpt><trkpt lat="54.23674623087076" lon="30.451494918194157"><ele>198.5</ele><time>2026-05-03T10:07:08Z</time></trkpt><trkpt lat="54.23705320600503" lon="30.45148774068252"><ele>198.0</ele><time>2026-05-03T10:07:09Z</time></trkpt><trkpt lat="54.23736128762375" lon="30.451471392534256"><ele>198.0</ele><time>2026-05-03T10:07:10Z</time></trkpt><trkpt lat="54.237671792178986" lon="30.4514524417545"><ele>198.0</ele><time>2026-05-03T10:07:11Z</time></trkpt><trkpt lat="54.237979379385926" lon="30.45144102485465"><ele>198.0</ele><time>2026-05-03T10:07:12Z</time></trkpt><trkpt lat="54.238287229311204" lon="30.451432331030784"><ele>198.0</ele><time>2026-05-03T10:07:13Z</time></trkpt><trkpt lat="54.23859609439477" lon="30.451411150315007"><ele>198.0</ele><time>2026-05-03T10:07:14Z</time></trkpt><trkpt lat="54.23890418838078" lon="30.451397277617183"><ele>198.0</ele><time>2026-05-03T10:07:15Z</time></trkpt><trkpt lat="54.23920740158173" lon="30.451382332591425"><ele>197.5</ele><time>2026-05-03T10:07:16Z</time></trkpt><trkpt lat="54.239512186159146" lon="30.451360497544243"><ele>197.0</ele><time>2026-05-03T10:07:17Z</time></trkpt><trkpt lat="54.23982085355822" lon="30.451347502324303"><ele>196.5</ele><time>2026-05-03T10:07:18Z</time></trkpt><trkpt lat="54.240128866519605" lon="30.451331455986313"><ele>196.0</ele><time>2026-05-03T10:07:19Z</time></trkpt><trkpt lat="54.24043443139649" lon="30.45132109104745"><ele>196.5</ele><time>2026-05-03T10:07:20Z</time></trkpt><trkpt lat="54.24074232161209" lon="30.451313534042256"><ele>197.0</ele><time>2026-05-03T10:07:21Z</time></trkpt><trkpt lat="54.24104858413948" lon="30.451292090347984"><ele>196.5</ele><time>2026-05-03T10:07:22Z</time></trkpt><trkpt lat="54.24135643548739" lon="30.451275694075324"><ele>196.0</ele><time>2026-05-03T10:07:23Z</time></trkpt><trkpt lat="54.241661163482505" lon="30.45125567930693"><ele>196.0</ele><time>2026-05-03T10:07:24Z</time></trkpt><trkpt lat="54.241964508086326" lon="30.451242812213135"><ele>196.0</ele><time>2026-05-03T10:07:25Z</time></trkpt><trkpt lat="54.24226672859079" lon="30.451218663914343"><ele>196.5</ele><time>2026-05-03T10:07:26Z</time></trkpt><trkpt lat="54.242571374807326" lon="30.451210135359442"><ele>197.0</ele><time>2026-05-03T10:07:27Z</time></trkpt><trkpt lat="54.242875937323554" lon="30.45119772658898"><ele>195.5</ele><time>2026-05-03T10:07:28Z</time></trkpt><trkpt lat="54.243176675144944" lon="30.4511747836937"><ele>194.0</ele><time>2026-05-03T10:07:29Z</time></trkpt><trkpt lat="54.24347893252176" lon="30.45115952781502"><ele>194.0</ele><time>2026-05-03T10:07:30Z</time></trkpt><trkpt lat="54.24378305924482" lon="30.451147842969608"><ele>194.0</ele><time>2026-05-03T10:07:31Z</time></trkpt><trkpt lat="54.24408484623035" lon="30.451128341363816"><ele>195.0</ele><time>2026-05-03T10:07:32Z</time></trkpt><trkpt lat="54.24438778543743" lon="30.45110947258573"><ele>196.0</ele><time>2026-05-03T10:07:33Z</time></trkpt><trkpt lat="54.24469456024562" lon="30.451100175993723"><ele>196.0</ele><time>2026-05-03T10:07:34Z</time></trkpt><trkpt lat="54.24499656451354" lon="30.451084162121855"><ele>196.0</ele><time>2026-05-03T10:07:35Z</time></trkpt><trkpt lat="54.24530299821647" lon="30.451076311051665"><ele>196.0</ele><time>2026-05-03T10:07:36Z</time></trkpt><trkpt lat="54.24557212416863" lon="30.45106250533396"><ele>196.0</ele><time>2026-05-03T10:07:37Z</time></trkpt><trkpt lat="54.24582078893659" lon="30.451043047811286"><ele>196.0</ele><time>2026-05-03T10:07:38Z</time></trkpt><trkpt lat="54.24605188270733" lon="30.451025951095957"><ele>196.0</ele><time>2026-05-03T10:07:39Z</time></trkpt><trkpt lat="54.24629290061757" lon="30.451017048366367"><ele>196.0</ele><time>2026-05-03T10:07:40Z</time></trkpt><trkpt lat="54.246531440274374" lon="30.451006439033307"><ele>196.0</ele><time>2026-05-03T10:07:41Z</time></trkpt><trkpt lat="54.246772793471365" lon="30.450992662449845"><ele>196.0</ele><time>2026-05-03T10:07:42Z</time></trkpt><trkpt lat="54.24701095643303" lon="30.450986715317143"><ele>196.0</ele><time>2026-05-03T10:07:43Z</time></trkpt><trkpt lat="54.247240024653095" lon="30.45097431616613"><ele>196.5</ele><time>2026-05-03T10:07:44Z</time></trkpt><trkpt lat="54.247478852278455" lon="30.45096428853093"><ele>197.0</ele><time>2026-05-03T10:07:45Z</time></trkpt><trkpt lat="54.247711302823625" lon="30.45094618166214"><ele>197.0</ele><time>2026-05-03T10:07:46Z</time></trkpt><trkpt lat="54.247941299155784" lon="30.450929123520673"><ele>197.0</ele><time>2026-05-03T10:07:47Z</time></trkpt><trkpt lat="54.248174049381305" lon="30.450917437331817"><ele>197.0</ele><time>2026-05-03T10:07:48Z</time></trkpt><trkpt lat="54.24841029717709" lon="30.450904120766026"><ele>197.0</ele><time>2026-05-03T10:07:49Z</time></trkpt><trkpt lat="54.24862571900809" lon="30.45089966372124"><ele>197.0</ele><time>2026-05-03T10:07:50Z</time></trkpt><trkpt lat="54.24883601658282" lon="30.45089364917277"><ele>197.0</ele><time>2026-05-03T10:07:51Z</time></trkpt><trkpt lat="54.24903333486012" lon="30.450909236104174"><ele>197.0</ele><time>2026-05-03T10:07:52Z</time></trkpt><trkpt lat="54.24929106199483" lon="30.450840768424502"><ele>197.5</ele><time>2026-05-03T10:07:53Z</time></trkpt><trkpt lat="54.249517824513724" lon="30.450832989842734"><ele>198.0</ele><time>2026-05-03T10:07:54Z</time></trkpt><trkpt lat="54.249745688572325" lon="30.450812659515602"><ele>197.5</ele><time>2026-05-03T10:07:55Z</time></trkpt><trkpt lat="54.249975415591905" lon="30.450801322623224"><ele>197.0</ele><time>2026-05-03T10:07:56Z</time></trkpt><trkpt lat="54.25020866278624" lon="30.450791819461568"><ele>197.0</ele><time>2026-05-03T10:07:57Z</time></trkpt><trkpt lat="54.25044153842706" lon="30.450791098846054"><ele>197.0</ele><time>2026-05-03T10:07:58Z</time></trkpt><trkpt lat="54.25067486754281" lon="30.450780675888033"><ele>196.5</ele><time>2026-05-03T10:07:59Z</time></trkpt><trkpt lat="54.25091300264959" lon="30.450766974201816"><ele>196.0</ele><time>2026-05-03T10:08:00Z</time></trkpt><trkpt lat="54.2511500713521" lon="30.45075725761278"><ele>196.0</ele><time>2026-05-03T10:08:01Z</time></trkpt><trkpt lat="54.25139358710909" lon="30.45075152678779"><ele>196.0</ele><time>2026-05-03T10:08:02Z</time></trkpt><trkpt lat="54.25163175435595" lon="30.450741951244236"><ele>196.5</ele><time>2026-05-03T10:08:03Z</time></trkpt><trkpt lat="54.251870071376274" lon="30.450730811157324"><ele>197.0</ele><time>2026-05-03T10:08:04Z</time></trkpt><trkpt lat="54.252109450576185" lon="30.450715906610597"><ele>198.0</ele><time>2026-05-03T10:08:05Z</time></trkpt><trkpt lat="54.25234214923291" lon="30.45070142637957"><ele>199.0</ele><time>2026-05-03T10:08:06Z</time></trkpt><trkpt lat="54.252543803522144" lon="30.450696828791635"><ele>200.0</ele><time>2026-05-03T10:08:07Z</time></trkpt><trkpt lat="54.2527285258787" lon="30.450689000475904"><ele>200.0</ele><time>2026-05-03T10:08:08Z</time></trkpt><trkpt lat="54.252905755570815" lon="30.450681769672336"><ele>200.0</ele><time>2026-05-03T10:08:09Z</time></trkpt><trkpt lat="54.253056854637094" lon="30.450671775243933"><ele>200.0</ele><time>2026-05-03T10:08:10Z</time></trkpt><trkpt lat="54.25317791494224" lon="30.450661269573594"><ele>199.0</ele><time>2026-05-03T10:08:11Z</time></trkpt><trkpt lat="54.253316749460176" lon="30.450656150281716"><ele>198.0</ele><time>2026-05-03T10:08:12Z</time></trkpt><trkpt lat="54.253467354082694" lon="30.450652384518378"><ele>197.0</ele><time>2026-05-03T10:08:13Z</time></trkpt><trkpt lat="54.253626010311535" lon="30.45064835713616"><ele>196.0</ele><time>2026-05-03T10:08:14Z</time></trkpt><trkpt lat="54.2537892140566" lon="30.450635243932144"><ele>196.0</ele><time>2026-05-03T10:08:15Z</time></trkpt><trkpt lat="54.253954163454715" lon="30.45063149721979"><ele>196.0</ele><time>2026-05-03T10:08:16Z</time></trkpt><trkpt lat="54.25413136100267" lon="30.450633445446712"><ele>196.0</ele><time>2026-05-03T10:08:17Z</time></trkpt><trkpt lat="54.25430855929678" lon="30.450628655592574"><ele>196.0</ele><time>2026-05-03T10:08:18Z</time></trkpt><trkpt lat="54.254496383283794" lon="30.450604762447064"><ele>196.0</ele><time>2026-05-03T10:08:19Z</time></trkpt><trkpt lat="54.25470433826181" lon="30.450590312465483"><ele>196.0</ele><time>2026-05-03T10:08:20Z</time></trkpt><trkpt lat="54.25493297307054" lon="30.450578632471863"><ele>196.0</ele><time>2026-05-03T10:08:21Z</time></trkpt><trkpt lat="54.25517257257462" lon="30.45056166203988"><ele>196.0</ele><time>2026-05-03T10:08:22Z</time></trkpt><trkpt lat="54.25541645609742" lon="30.45055074630121"><ele>196.0</ele><time>2026-05-03T10:08:22.999Z</time></trkpt><trkpt lat="54.255678326458536" lon="30.45054146849109"><ele>196.0</ele><time>2026-05-03T10:08:23.999Z</time></trkpt><trkpt lat="54.25594843005236" lon="30.4505203654585"><ele>196.0</ele><time>2026-05-03T10:08:24.999Z</time></trkpt><trkpt lat="54.25622612561094" lon="30.45050575931622"><ele>196.0</ele><time>2026-05-03T10:08:25.999Z</time></trkpt><trkpt lat="54.25650785792547" lon="30.45049185227749"><ele>196.0</ele><time>2026-05-03T10:08:26.999Z</time></trkpt><trkpt lat="54.25679534110875" lon="30.450474359600243"><ele>196.0</ele><time>2026-05-03T10:08:27.999Z</time></trkpt><trkpt lat="54.25708509796069" lon="30.450461139252305"><ele>196.5</ele><time>2026-05-03T10:08:28.999Z</time></trkpt><trkpt lat="54.25737604540198" lon="30.45044454730894"><ele>197.0</ele><time>2026-05-03T10:08:29.999Z</time></trkpt><trkpt lat="54.2576709245509" lon="30.450439050646217"><ele>197.0</ele><time>2026-05-03T10:08:30.999Z</time></trkpt><trkpt lat="54.25796708040003" lon="30.450425703852684"><ele>197.0</ele><time>2026-05-03T10:08:31.999Z</time></trkpt><trkpt lat="54.25826312825782" lon="30.45040427686017"><ele>197.5</ele><time>2026-05-03T10:08:32.999Z</time></trkpt><trkpt lat="54.25856272630334" lon="30.450388538819958"><ele>198.0</ele><time>2026-05-03T10:08:33.999Z</time></trkpt><trkpt lat="54.25886310834516" lon="30.450374433952646"><ele>197.5</ele><time>2026-05-03T10:08:34.999Z</time></trkpt><trkpt lat="54.25916364537528" lon="30.450362231639133"><ele>197.0</ele><time>2026-05-03T10:08:35.999Z</time></trkpt><trkpt lat="54.259465265538864" lon="30.450348109034152"><ele>197.0</ele><time>2026-05-03T10:08:36.999Z</time></trkpt><trkpt lat="54.25976624324565" lon="30.450327922336204"><ele>197.0</ele><time>2026-05-03T10:08:37.999Z</time></trkpt><trkpt lat="54.2600692164601" lon="30.45031449376073"><ele>197.5</ele><time>2026-05-03T10:08:38.999Z</time></trkpt><trkpt lat="54.26037254691703" lon="30.45029686645863"><ele>198.0</ele><time>2026-05-03T10:08:39.999Z</time></trkpt><trkpt lat="54.26067737033073" lon="30.450268832697706"><ele>198.0</ele><time>2026-05-03T10:08:40.999Z</time></trkpt><trkpt lat="54.26098233950943" lon="30.450253347907324"><ele>198.0</ele><time>2026-05-03T10:08:41.999Z</time></trkpt><trkpt lat="54.261288561743534" lon="30.45023556910891"><ele>199.0</ele><time>2026-05-03T10:08:42.999Z</time></trkpt><trkpt lat="54.261596770942305" lon="30.450219205595026"><ele>200.0</ele><time>2026-05-03T10:08:43.999Z</time></trkpt><trkpt lat="54.26190315127412" lon="30.450206378453"><ele>200.0</ele><time>2026-05-03T10:08:44.999Z</time></trkpt><trkpt lat="54.26220909041805" lon="30.450185926974182"><ele>200.0</ele><time>2026-05-03T10:08:45.999Z</time></trkpt><trkpt lat="54.262514415457346" lon="30.45017125001831"><ele>200.5</ele><time>2026-05-03T10:08:46.999Z</time></trkpt><trkpt lat="54.26282245773603" lon="30.45015267484929"><ele>201.0</ele><time>2026-05-03T10:08:47.999Z</time></trkpt><trkpt lat="54.263129179416254" lon="30.45013596484966"><ele>201.0</ele><time>2026-05-03T10:08:48.999Z</time></trkpt><trkpt lat="54.26343693449604" lon="30.450122864905723"><ele>201.0</ele><time>2026-05-03T10:08:49.999Z</time></trkpt><trkpt lat="54.26374357947836" lon="30.450101361809374"><ele>201.5</ele><time>2026-05-03T10:08:50.999Z</time></trkpt><trkpt lat="54.26405115606255" lon="30.450084444059154"><ele>202.0</ele><time>2026-05-03T10:08:51.999Z</time></trkpt><trkpt lat="54.264359399328384" lon="30.450074826311607"><ele>202.0</ele><time>2026-05-03T10:08:52.999Z</time></trkpt><trkpt lat="54.26468264092442" lon="30.45005848995787"><ele>202.0</ele><time>2026-05-03T10:08:53.999Z</time></trkpt><trkpt lat="54.26500782347924" lon="30.45003712481159"><ele>202.5</ele><time>2026-05-03T10:08:54.999Z</time></trkpt><trkpt lat="54.265336860224096" lon="30.450020016409248"><ele>203.0</ele><time>2026-05-03T10:08:55.999Z</time></trkpt><trkpt lat="54.26563802822109" lon="30.450001319286457"><ele>203.0</ele><time>2026-05-03T10:08:56.999Z</time></trkpt><trkpt lat="54.26591629281845" lon="30.449984763169283"><ele>203.0</ele><time>2026-05-03T10:08:57.999Z</time></trkpt><trkpt lat="54.266182045167874" lon="30.44995151136161"><ele>203.5</ele><time>2026-05-03T10:08:58.999Z</time></trkpt><trkpt lat="54.266451876225524" lon="30.449925090659146"><ele>204.0</ele><time>2026-05-03T10:08:59.999Z</time></trkpt><trkpt lat="54.26670763783325" lon="30.44991227042751"><ele>204.0</ele><time>2026-05-03T10:09:00.999Z</time></trkpt><trkpt lat="54.2669534727743" lon="30.449906166083277"><ele>204.0</ele><time>2026-05-03T10:09:01.999Z</time></trkpt><trkpt lat="54.26720206266454" lon="30.4498906138087"><ele>204.0</ele><time>2026-05-03T10:09:02.999Z</time></trkpt><trkpt lat="54.267467211151846" lon="30.449873941146965"><ele>204.0</ele><time>2026-05-03T10:09:04.001Z</time></trkpt><trkpt lat="54.26773952309379" lon="30.44986063423875"><ele>204.0</ele><time>2026-05-03T10:09:05.001Z</time></trkpt><trkpt lat="54.268011877994866" lon="30.44985145566942"><ele>204.0</ele><time>2026-05-03T10:09:06.001Z</time></trkpt><trkpt lat="54.26829521082882" lon="30.449838045640455"><ele>203.5</ele><time>2026-05-03T10:09:07.001Z</time></trkpt><trkpt lat="54.268591967583916" lon="30.449828977869217"><ele>203.0</ele><time>2026-05-03T10:09:08.001Z</time></trkpt><trkpt lat="54.26890056151308" lon="30.44981985137634"><ele>205.0</ele><time>2026-05-03T10:09:09.001Z</time></trkpt><trkpt lat="54.269215080285036" lon="30.449807127806"><ele>207.0</ele><time>2026-05-03T10:09:10.001Z</time></trkpt><trkpt lat="54.2695374645131" lon="30.44979018565099"><ele>206.0</ele><time>2026-05-03T10:09:11.001Z</time></trkpt><trkpt lat="54.26986540910919" lon="30.449770750976818"><ele>205.0</ele><time>2026-05-03T10:09:12.001Z</time></trkpt><trkpt lat="54.270182994771154" lon="30.449751647978733"><ele>205.0</ele><time>2026-05-03T10:09:13.001Z</time></trkpt><trkpt lat="54.270492305042715" lon="30.449730038352982"><ele>205.0</ele><time>2026-05-03T10:09:14.001Z</time></trkpt><trkpt lat="54.27077259186366" lon="30.449711369115192"><ele>206.0</ele><time>2026-05-03T10:09:15.001Z</time></trkpt><trkpt lat="54.271024753909984" lon="30.449696175554344"><ele>207.0</ele><time>2026-05-03T10:09:16.001Z</time></trkpt><trkpt lat="54.27127843573577" lon="30.449706828431346"><ele>207.5</ele><time>2026-05-03T10:09:17.001Z</time></trkpt><trkpt lat="54.271545031285726" lon="30.449692629065925"><ele>208.0</ele><time>2026-05-03T10:09:18.001Z</time></trkpt><trkpt lat="54.27181530588068" lon="30.44967823206332"><ele>208.0</ele><time>2026-05-03T10:09:19.001Z</time></trkpt><trkpt lat="54.272091084914344" lon="30.449663323321197"><ele>208.0</ele><time>2026-05-03T10:09:20Z</time></trkpt><trkpt lat="54.272370214932955" lon="30.44962373730494"><ele>207.0</ele><time>2026-05-03T10:09:21Z</time></trkpt><trkpt lat="54.272657475573254" lon="30.44962282551059"><ele>206.0</ele><time>2026-05-03T10:09:22Z</time></trkpt><trkpt lat="54.272941235801255" lon="30.449614948955603"><ele>206.0</ele><time>2026-05-03T10:09:23Z</time></trkpt><trkpt lat="54.273222879847296" lon="30.449599810645566"><ele>206.0</ele><time>2026-05-03T10:09:24Z</time></trkpt><trkpt lat="54.2735182759014" lon="30.449582765110822"><ele>206.0</ele><time>2026-05-03T10:09:25Z</time></trkpt><trkpt lat="54.27380432071356" lon="30.449562939029395"><ele>206.0</ele><time>2026-05-03T10:09:26Z</time></trkpt><trkpt lat="54.274092642410835" lon="30.44954649968269"><ele>205.5</ele><time>2026-05-03T10:09:27Z</time></trkpt><trkpt lat="54.274385502387844" lon="30.44952988055324"><ele>205.0</ele><time>2026-05-03T10:09:28Z</time></trkpt><trkpt lat="54.27467203579025" lon="30.449516534208225"><ele>205.5</ele><time>2026-05-03T10:09:29Z</time></trkpt><trkpt lat="54.274956145661605" lon="30.449509361093412"><ele>206.0</ele><time>2026-05-03T10:09:30Z</time></trkpt><trkpt lat="54.275235444401304" lon="30.449499180372257"><ele>206.0</ele><time>2026-05-03T10:09:31Z</time></trkpt><trkpt lat="54.27549706167698" lon="30.44947053822491"><ele>206.0</ele><time>2026-05-03T10:09:32Z</time></trkpt><trkpt lat="54.27573648610606" lon="30.449451999212116"><ele>206.0</ele><time>2026-05-03T10:09:33Z</time></trkpt><trkpt lat="54.27597066852944" lon="30.44945695080961"><ele>206.0</ele><time>2026-05-03T10:09:34Z</time></trkpt><trkpt lat="54.27621622851983" lon="30.44944421320474"><ele>206.0</ele><time>2026-05-03T10:09:35Z</time></trkpt><trkpt lat="54.27647418572341" lon="30.449429916780677"><ele>206.0</ele><time>2026-05-03T10:09:36Z</time></trkpt><trkpt lat="54.27673260356236" lon="30.4494162239129"><ele>206.0</ele><time>2026-05-03T10:09:37Z</time></trkpt><trkpt lat="54.27698747613016" lon="30.449402772183312"><ele>206.0</ele><time>2026-05-03T10:09:38Z</time></trkpt><trkpt lat="54.27725269624687" lon="30.449388682756275"><ele>205.0</ele><time>2026-05-03T10:09:39Z</time></trkpt><trkpt lat="54.27752046995539" lon="30.449374384418885"><ele>204.0</ele><time>2026-05-03T10:09:40Z</time></trkpt><trkpt lat="54.2777888840707" lon="30.449351021504675"><ele>204.0</ele><time>2026-05-03T10:09:41Z</time></trkpt><trkpt lat="54.27806023921479" lon="30.449347488094894"><ele>204.0</ele><time>2026-05-03T10:09:42Z</time></trkpt><trkpt lat="54.27833013405177" lon="30.44933547316981"><ele>202.5</ele><time>2026-05-03T10:09:43Z</time></trkpt><trkpt lat="54.27859777115307" lon="30.449319701243066"><ele>201.0</ele><time>2026-05-03T10:09:44Z</time></trkpt><trkpt lat="54.27886001980751" lon="30.44929565970029"><ele>201.0</ele><time>2026-05-03T10:09:45Z</time></trkpt><trkpt lat="54.279125641244846" lon="30.44927837516714"><ele>201.0</ele><time>2026-05-03T10:09:46Z</time></trkpt><trkpt lat="54.27937041132572" lon="30.449261336680088"><ele>201.0</ele><time>2026-05-03T10:09:47Z</time></trkpt><trkpt lat="54.27958337103176" lon="30.449254081889308"><ele>201.0</ele><time>2026-05-03T10:09:48Z</time></trkpt><trkpt lat="54.27977430906858" lon="30.44923551478642"><ele>201.0</ele><time>2026-05-03T10:09:49Z</time></trkpt><trkpt lat="54.27995724824446" lon="30.44922752718588"><ele>201.0</ele><time>2026-05-03T10:09:50Z</time></trkpt><trkpt lat="54.280130815737294" lon="30.449224394633415"><ele>201.0</ele><time>2026-05-03T10:09:51Z</time></trkpt><trkpt lat="54.28030166500258" lon="30.449216751180025"><ele>201.0</ele><time>2026-05-03T10:09:52Z</time></trkpt><trkpt lat="54.28046555026586" lon="30.449208170736544"><ele>200.66666666666669</ele><time>2026-05-03T10:09:53Z</time></trkpt><trkpt lat="54.280620547122474" lon="30.449202690636223"><ele>200.33333333333334</ele><time>2026-05-03T10:09:54Z</time></trkpt><trkpt lat="54.280778632230636" lon="30.449193178283032"><ele>200.0</ele><time>2026-05-03T10:09:55Z</time></trkpt><trkpt lat="54.28094994825351" lon="30.449182819960882"><ele>200.0</ele><time>2026-05-03T10:09:56Z</time></trkpt><trkpt lat="54.28113869814131" lon="30.449171000013834"><ele>200.0</ele><time>2026-05-03T10:09:57Z</time></trkpt><trkpt lat="54.28133826571812" lon="30.44915857171777"><ele>200.0</ele><time>2026-05-03T10:09:58Z</time></trkpt><trkpt lat="54.28155644104597" lon="30.44915173673946"><ele>200.0</ele><time>2026-05-03T10:09:59Z</time></trkpt><trkpt lat="54.28178392524947" lon="30.44914855075164"><ele>200.0</ele><time>2026-05-03T10:10:00Z</time></trkpt><trkpt lat="54.282024205060004" lon="30.449139302295343"><ele>200.0</ele><time>2026-05-03T10:10:01Z</time></trkpt><trkpt lat="54.282275059231246" lon="30.449133299930896"><ele>200.0</ele><time>2026-05-03T10:10:02Z</time></trkpt><trkpt lat="54.28252508356722" lon="30.449124287538577"><ele>200.0</ele><time>2026-05-03T10:10:03Z</time></trkpt><trkpt lat="54.28279091934269" lon="30.449108345815723"><ele>200.0</ele><time>2026-05-03T10:10:04Z</time></trkpt><trkpt lat="54.28305944337049" lon="30.44908967886293"><ele>199.5</ele><time>2026-05-03T10:10:05Z</time></trkpt><trkpt lat="54.28332967179569" lon="30.44907007565759"><ele>199.0</ele><time>2026-05-03T10:10:06Z</time></trkpt><trkpt lat="54.28360581461724" lon="30.449056661588532"><ele>199.0</ele><time>2026-05-03T10:10:07Z</time></trkpt><trkpt lat="54.28387990899431" lon="30.44904822502001"><ele>199.0</ele><time>2026-05-03T10:10:08Z</time></trkpt><trkpt lat="54.284162805435855" lon="30.449039775141287"><ele>199.5</ele><time>2026-05-03T10:10:09Z</time></trkpt><trkpt lat="54.2844485334568" lon="30.44903168221973"><ele>200.0</ele><time>2026-05-03T10:10:10Z</time></trkpt><trkpt lat="54.28473150311923" lon="30.44902171408157"><ele>200.0</ele><time>2026-05-03T10:10:11Z</time></trkpt><trkpt lat="54.2850255824649" lon="30.449004753151986"><ele>200.0</ele><time>2026-05-03T10:10:12Z</time></trkpt><trkpt lat="54.28532530473949" lon="30.448984341647854"><ele>200.5</ele><time>2026-05-03T10:10:13Z</time></trkpt><trkpt lat="54.28562315849948" lon="30.448969502764804"><ele>201.0</ele><time>2026-05-03T10:10:14Z</time></trkpt><trkpt lat="54.28592691249626" lon="30.4489526931484"><ele>201.0</ele><time>2026-05-03T10:10:15Z</time></trkpt><trkpt lat="54.28622666845465" lon="30.448941123437084"><ele>201.0</ele><time>2026-05-03T10:10:16Z</time></trkpt><trkpt lat="54.28653057075664" lon="30.448928095510887"><ele>201.5</ele><time>2026-05-03T10:10:17Z</time></trkpt><trkpt lat="54.286839517585825" lon="30.448911662258908"><ele>202.0</ele><time>2026-05-03T10:10:18Z</time></trkpt><trkpt lat="54.287145966035155" lon="30.44889696216291"><ele>204.0</ele><time>2026-05-03T10:10:19Z</time></trkpt><trkpt lat="54.28745843309827" lon="30.448880301908122"><ele>206.0</ele><time>2026-05-03T10:10:20Z</time></trkpt><trkpt lat="54.28776388717591" lon="30.448866194977196"><ele>206.0</ele><time>2026-05-03T10:10:21Z</time></trkpt><trkpt lat="54.28807877462563" lon="30.44884243970801"><ele>206.0</ele><time>2026-05-03T10:10:22Z</time></trkpt><trkpt lat="54.28838975530342" lon="30.448827696841906"><ele>206.0</ele><time>2026-05-03T10:10:23Z</time></trkpt><trkpt lat="54.28870832604282" lon="30.44881074136734"><ele>206.0</ele><time>2026-05-03T10:10:24Z</time></trkpt><trkpt lat="54.28900424608398" lon="30.44880184814664"><ele>204.0</ele><time>2026-05-03T10:10:25Z</time></trkpt><trkpt lat="54.28924238958673" lon="30.448782084250343"><ele>202.0</ele><time>2026-05-03T10:10:26Z</time></trkpt><trkpt lat="54.28947100901094" lon="30.44876178151369"><ele>202.0</ele><time>2026-05-03T10:10:27Z</time></trkpt><trkpt lat="54.28970571671364" lon="30.448751241053913"><ele>202.0</ele><time>2026-05-03T10:10:28Z</time></trkpt><trkpt lat="54.28994312297849" lon="30.448740383565653"><ele>201.5</ele><time>2026-05-03T10:10:29Z</time></trkpt><trkpt lat="54.29018277453951" lon="30.448729570183076"><ele>201.0</ele><time>2026-05-03T10:10:30Z</time></trkpt><trkpt lat="54.29041378169957" lon="30.448716324062772"><ele>202.5</ele><time>2026-05-03T10:10:31Z</time></trkpt><trkpt lat="54.290648070702915" lon="30.448701139781694"><ele>204.0</ele><time>2026-05-03T10:10:32Z</time></trkpt><trkpt lat="54.29088988649955" lon="30.448688430428177"><ele>204.0</ele><time>2026-05-03T10:10:33Z</time></trkpt><trkpt lat="54.29113307789848" lon="30.448673856449112"><ele>204.0</ele><time>2026-05-03T10:10:34Z</time></trkpt><trkpt lat="54.29137615199859" lon="30.44866060792559"><ele>204.5</ele><time>2026-05-03T10:10:35Z</time></trkpt><trkpt lat="54.2916138666556" lon="30.4486504914077"><ele>205.0</ele><time>2026-05-03T10:10:36Z</time></trkpt><trkpt lat="54.29184573640911" lon="30.448640253087433"><ele>205.0</ele><time>2026-05-03T10:10:37Z</time></trkpt><trkpt lat="54.29207251850767" lon="30.448627935205856"><ele>205.0</ele><time>2026-05-03T10:10:38Z</time></trkpt><trkpt lat="54.292292610329106" lon="30.44861484876125"><ele>205.0</ele><time>2026-05-03T10:10:39Z</time></trkpt><trkpt lat="54.29250566346895" lon="30.448603305380047"><ele>205.66666666666666</ele><time>2026-05-03T10:10:40Z</time></trkpt><trkpt lat="54.29272445027181" lon="30.448597909040803"><ele>206.33333333333331</ele><time>2026-05-03T10:10:40.999Z</time></trkpt><trkpt lat="54.292940357794755" lon="30.448593924683244"><ele>207.0</ele><time>2026-05-03T10:10:41.999Z</time></trkpt><trkpt lat="54.29314614994134" lon="30.448587046092573"><ele>207.66666666666669</ele><time>2026-05-03T10:10:42.999Z</time></trkpt><trkpt lat="54.29335633645697" lon="30.448576009172893"><ele>208.33333333333334</ele><time>2026-05-03T10:10:43.999Z</time></trkpt><trkpt lat="54.293573759530105" lon="30.448564727010336"><ele>209.0</ele><time>2026-05-03T10:10:44.999Z</time></trkpt><trkpt lat="54.29378076318216" lon="30.44854986223355"><ele>208.33333333333334</ele><time>2026-05-03T10:10:45.999Z</time></trkpt><trkpt lat="54.29399073972055" lon="30.44853893852313"><ele>207.66666666666669</ele><time>2026-05-03T10:10:46.999Z</time></trkpt><trkpt lat="54.294200316312114" lon="30.448520214694014"><ele>207.0</ele><time>2026-05-03T10:10:47.999Z</time></trkpt><trkpt lat="54.294404230664995" lon="30.448506622238284"><ele>207.0</ele><time>2026-05-03T10:10:48.999Z</time></trkpt><trkpt lat="54.29461681073621" lon="30.448499177550726"><ele>207.0</ele><time>2026-05-03T10:10:49.999Z</time></trkpt><trkpt lat="54.29482783393803" lon="30.44848773918315"><ele>207.0</ele><time>2026-05-03T10:10:50.999Z</time></trkpt><trkpt lat="54.29504054695146" lon="30.448477138842247"><ele>206.66666666666669</ele><time>2026-05-03T10:10:51.999Z</time></trkpt><trkpt lat="54.295249054119914" lon="30.448463877955962"><ele>206.33333333333334</ele><time>2026-05-03T10:10:52.999Z</time></trkpt><trkpt lat="54.29545543028412" lon="30.448450128686915"><ele>206.0</ele><time>2026-05-03T10:10:53.999Z</time></trkpt><trkpt lat="54.295665129541966" lon="30.44843723925258"><ele>206.66666666666669</ele><time>2026-05-03T10:10:54.999Z</time></trkpt><trkpt lat="54.29586870554693" lon="30.448424273904998"><ele>207.33333333333331</ele><time>2026-05-03T10:10:55.999Z</time></trkpt><trkpt lat="54.296075804673556" lon="30.44841182070863"><ele>208.0</ele><time>2026-05-03T10:10:56.999Z</time></trkpt><trkpt lat="54.296291491179744" lon="30.44839543063634"><ele>207.66666666666666</ele><time>2026-05-03T10:10:57.999Z</time></trkpt><trkpt lat="54.29650022066812" lon="30.448385540516167"><ele>207.33333333333331</ele><time>2026-05-03T10:10:58.999Z</time></trkpt><trkpt lat="54.29671289392018" lon="30.448370883989806"><ele>207.0</ele><time>2026-05-03T10:10:59.999Z</time></trkpt><trkpt lat="54.29692588209331" lon="30.44836150327879"><ele>207.0</ele><time>2026-05-03T10:11:00.999Z</time></trkpt><trkpt lat="54.29713965226923" lon="30.448353906207817"><ele>207.0</ele><time>2026-05-03T10:11:01.999Z</time></trkpt><trkpt lat="54.29735415683916" lon="30.448344841646865"><ele>207.0</ele><time>2026-05-03T10:11:02.999Z</time></trkpt><trkpt lat="54.29757249993887" lon="30.448330859521686"><ele>206.66666666666669</ele><time>2026-05-03T10:11:03.999Z</time></trkpt><trkpt lat="54.2977883158887" lon="30.448325415108695"><ele>206.33333333333334</ele><time>2026-05-03T10:11:04.999Z</time></trkpt><trkpt lat="54.29801131422934" lon="30.448306821042628"><ele>206.0</ele><time>2026-05-03T10:11:05.999Z</time></trkpt><trkpt lat="54.29823008414042" lon="30.448298454942815"><ele>205.0</ele><time>2026-05-03T10:11:06.999Z</time></trkpt><trkpt lat="54.2984512956379" lon="30.448280626020775"><ele>204.0</ele><time>2026-05-03T10:11:07.999Z</time></trkpt><trkpt lat="54.29867087015385" lon="30.448269830564893"><ele>203.0</ele><time>2026-05-03T10:11:09.001Z</time></trkpt><trkpt lat="54.29889125488679" lon="30.448251038466537"><ele>202.66666666666669</ele><time>2026-05-03T10:11:10.001Z</time></trkpt><trkpt lat="54.299107245017304" lon="30.448246899701935"><ele>202.33333333333331</ele><time>2026-05-03T10:11:11.001Z</time></trkpt><trkpt lat="54.299325455279664" lon="30.44823462169749"><ele>202.0</ele><time>2026-05-03T10:11:12.001Z</time></trkpt><trkpt lat="54.29954301183719" lon="30.448228191692234"><ele>203.0</ele><time>2026-05-03T10:11:13.001Z</time></trkpt><trkpt lat="54.299756110794696" lon="30.44821631414271"><ele>204.0</ele><time>2026-05-03T10:11:14.001Z</time></trkpt><trkpt lat="54.29996935574098" lon="30.44821240632259"><ele>205.0</ele><time>2026-05-03T10:11:15.001Z</time></trkpt><trkpt lat="54.30017982112456" lon="30.448202163689878"><ele>205.0</ele><time>2026-05-03T10:11:16.001Z</time></trkpt><trkpt lat="54.30039791725341" lon="30.44824214943831"><ele>205.0</ele><time>2026-05-03T10:11:17.001Z</time></trkpt><trkpt lat="54.300613380779794" lon="30.448179748503147"><ele>205.0</ele><time>2026-05-03T10:11:18.001Z</time></trkpt><trkpt lat="54.30082847069275" lon="30.448168792849042"><ele>206.66666666666666</ele><time>2026-05-03T10:11:19.001Z</time></trkpt><trkpt lat="54.30104037256431" lon="30.44816328393519"><ele>208.33333333333331</ele><time>2026-05-03T10:11:20.001Z</time></trkpt><trkpt lat="54.301254182038186" lon="30.44815103191466"><ele>210.0</ele><time>2026-05-03T10:11:21.001Z</time></trkpt><trkpt lat="54.30147394656863" lon="30.44819060519198"><ele>210.0</ele><time>2026-05-03T10:11:22.001Z</time></trkpt><trkpt lat="54.301692574833154" lon="30.448177294880555"><ele>210.0</ele><time>2026-05-03T10:11:23.001Z</time></trkpt><trkpt lat="54.30191405119745" lon="30.448163811173096"><ele>210.0</ele><time>2026-05-03T10:11:24.001Z</time></trkpt><trkpt lat="54.302138610841865" lon="30.44815011293237"><ele>209.5</ele><time>2026-05-03T10:11:25.001Z</time></trkpt><trkpt lat="54.30236566791191" lon="30.448136219926475"><ele>209.0</ele><time>2026-05-03T10:11:26.001Z</time></trkpt><trkpt lat="54.30259489943101" lon="30.44812214714339"><ele>209.0</ele><time>2026-05-03T10:11:27.001Z</time></trkpt><trkpt lat="54.30282338796459" lon="30.448108119959862"><ele>209.0</ele><time>2026-05-03T10:11:28.001Z</time></trkpt><trkpt lat="54.30305559695322" lon="30.44809386438646"><ele>208.5</ele><time>2026-05-03T10:11:29.001Z</time></trkpt><trkpt lat="54.303292744179835" lon="30.448079305635932"><ele>208.0</ele><time>2026-05-03T10:11:30Z</time></trkpt><trkpt lat="54.30353186715123" lon="30.44806462559617"><ele>208.0</ele><time>2026-05-03T10:11:31Z</time></trkpt><trkpt lat="54.3037676431441" lon="30.44805001819974"><ele>208.0</ele><time>2026-05-03T10:11:32Z</time></trkpt><trkpt lat="54.30400422419613" lon="30.448034992507587"><ele>208.5</ele><time>2026-05-03T10:11:33Z</time></trkpt><trkpt lat="54.30424715450173" lon="30.448002819309"><ele>209.0</ele><time>2026-05-03T10:11:34Z</time></trkpt><trkpt lat="54.30449261482174" lon="30.447989691772946"><ele>209.0</ele><time>2026-05-03T10:11:35Z</time></trkpt><trkpt lat="54.3047424447341" lon="30.447968587136057"><ele>209.0</ele><time>2026-05-03T10:11:36Z</time></trkpt><trkpt lat="54.304996304678646" lon="30.447974757630867"><ele>209.0</ele><time>2026-05-03T10:11:37Z</time></trkpt><trkpt lat="54.30522941816687" lon="30.44795920152816"><ele>209.0</ele><time>2026-05-03T10:11:38Z</time></trkpt><trkpt lat="54.30547091063092" lon="30.447952578576224"><ele>209.5</ele><time>2026-05-03T10:11:39Z</time></trkpt><trkpt lat="54.30571170402353" lon="30.447944679976658"><ele>210.0</ele><time>2026-05-03T10:11:40Z</time></trkpt><trkpt lat="54.30596393486412" lon="30.44791737740616"><ele>210.0</ele><time>2026-05-03T10:11:41Z</time></trkpt><trkpt lat="54.30622684881282" lon="30.447891806547652"><ele>210.0</ele><time>2026-05-03T10:11:42Z</time></trkpt><trkpt lat="54.30647474977966" lon="30.44788324286955"><ele>210.5</ele><time>2026-05-03T10:11:43Z</time></trkpt><trkpt lat="54.30672231554708" lon="30.44786914601343"><ele>211.0</ele><time>2026-05-03T10:11:44Z</time></trkpt><trkpt lat="54.3069634587103" lon="30.447858947944034"><ele>211.0</ele><time>2026-05-03T10:11:45Z</time></trkpt><trkpt lat="54.307209270824856" lon="30.447842901681106"><ele>211.0</ele><time>2026-05-03T10:11:46Z</time></trkpt><trkpt lat="54.30747464616285" lon="30.447826164825706"><ele>210.5</ele><time>2026-05-03T10:11:47Z</time></trkpt><trkpt lat="54.307750670213046" lon="30.44781463082905"><ele>210.0</ele><time>2026-05-03T10:11:48Z</time></trkpt><trkpt lat="54.30803282224179" lon="30.44780438763712"><ele>210.0</ele><time>2026-05-03T10:11:49Z</time></trkpt><trkpt lat="54.30829771035242" lon="30.447787381899172"><ele>210.0</ele><time>2026-05-03T10:11:50Z</time></trkpt><trkpt lat="54.308567002469424" lon="30.44776837474104"><ele>210.0</ele><time>2026-05-03T10:11:51Z</time></trkpt><trkpt lat="54.3088537382044" lon="30.44774394366069"><ele>210.0</ele><time>2026-05-03T10:11:52Z</time></trkpt><trkpt lat="54.30914289155255" lon="30.447709431965464"><ele>210.0</ele><time>2026-05-03T10:11:53Z</time></trkpt><trkpt lat="54.30943863060985" lon="30.447682505159257"><ele>210.0</ele><time>2026-05-03T10:11:54Z</time></trkpt><trkpt lat="54.30973500774295" lon="30.447665617006482"><ele>210.0</ele><time>2026-05-03T10:11:55Z</time></trkpt><trkpt lat="54.31003271369356" lon="30.447647732711097"><ele>210.0</ele><time>2026-05-03T10:11:56Z</time></trkpt><trkpt lat="54.31033394825419" lon="30.447624582195548"><ele>209.0</ele><time>2026-05-03T10:11:57Z</time></trkpt><trkpt lat="54.310637604446605" lon="30.447606887808075"><ele>208.0</ele><time>2026-05-03T10:11:58Z</time></trkpt><trkpt lat="54.31093607766483" lon="30.447595151844684"><ele>208.0</ele><time>2026-05-03T10:11:59Z</time></trkpt><trkpt lat="54.31121858459012" lon="30.447579648008528"><ele>208.0</ele><time>2026-05-03T10:12:00Z</time></trkpt><trkpt lat="54.31149011730524" lon="30.447579887936076"><ele>208.0</ele><time>2026-05-03T10:12:01Z</time></trkpt><trkpt lat="54.311766628332826" lon="30.44756757115724"><ele>208.0</ele><time>2026-05-03T10:12:02Z</time></trkpt><trkpt lat="54.31203506417672" lon="30.447542875231242"><ele>208.5</ele><time>2026-05-03T10:12:03Z</time></trkpt><trkpt lat="54.31230485440236" lon="30.447517561128365"><ele>209.0</ele><time>2026-05-03T10:12:04Z</time></trkpt><trkpt lat="54.31258221332051" lon="30.447488613615604"><ele>209.0</ele><time>2026-05-03T10:12:05Z</time></trkpt><trkpt lat="54.3128535156341" lon="30.447467979117473"><ele>209.0</ele><time>2026-05-03T10:12:06Z</time></trkpt><trkpt lat="54.31312595102334" lon="30.447466364653234"><ele>209.0</ele><time>2026-05-03T10:12:07Z</time></trkpt><trkpt lat="54.31339802025024" lon="30.447472284321506"><ele>209.0</ele><time>2026-05-03T10:12:08Z</time></trkpt><trkpt lat="54.31366822003657" lon="30.447464190086905"><ele>210.0</ele><time>2026-05-03T10:12:09Z</time></trkpt><trkpt lat="54.31394505165612" lon="30.447446565245816"><ele>211.0</ele><time>2026-05-03T10:12:10Z</time></trkpt><trkpt lat="54.31421745793417" lon="30.447431130834804"><ele>211.0</ele><time>2026-05-03T10:12:11Z</time></trkpt><trkpt lat="54.31449448137807" lon="30.447418877649824"><ele>211.0</ele><time>2026-05-03T10:12:12Z</time></trkpt><trkpt lat="54.31477101689888" lon="30.447405578039366"><ele>211.5</ele><time>2026-05-03T10:12:13Z</time></trkpt><trkpt lat="54.31504877889377" lon="30.447394998301558"><ele>212.0</ele><time>2026-05-03T10:12:14Z</time></trkpt><trkpt lat="54.315327147894834" lon="30.447380513301603"><ele>211.0</ele><time>2026-05-03T10:12:15Z</time></trkpt><trkpt lat="54.31560868203289" lon="30.44736242919541"><ele>210.0</ele><time>2026-05-03T10:12:16Z</time></trkpt><trkpt lat="54.31589230100472" lon="30.44734558602326"><ele>210.0</ele><time>2026-05-03T10:12:17Z</time></trkpt><trkpt lat="54.31617542388569" lon="30.447332586082094"><ele>210.0</ele><time>2026-05-03T10:12:18Z</time></trkpt><trkpt lat="54.316459452453394" lon="30.447319092291103"><ele>210.0</ele><time>2026-05-03T10:12:19Z</time></trkpt><trkpt lat="54.316746217532405" lon="30.447305478849714"><ele>210.0</ele><time>2026-05-03T10:12:20Z</time></trkpt><trkpt lat="54.31703042581957" lon="30.447292598981637"><ele>208.5</ele><time>2026-05-03T10:12:21Z</time></trkpt><trkpt lat="54.317313015761435" lon="30.44728144736258"><ele>207.0</ele><time>2026-05-03T10:12:22Z</time></trkpt><trkpt lat="54.31760004119536" lon="30.447265523001146"><ele>207.0</ele><time>2026-05-03T10:12:23Z</time></trkpt><trkpt lat="54.31788435968529" lon="30.44724951453709"><ele>207.0</ele><time>2026-05-03T10:12:24Z</time></trkpt><trkpt lat="54.31816951068381" lon="30.44723519431475"><ele>205.5</ele><time>2026-05-03T10:12:25Z</time></trkpt><trkpt lat="54.31845600793389" lon="30.44721809805644"><ele>204.0</ele><time>2026-05-03T10:12:26Z</time></trkpt><trkpt lat="54.31874373648398" lon="30.447200232014154"><ele>204.0</ele><time>2026-05-03T10:12:27Z</time></trkpt><trkpt lat="54.319028970867436" lon="30.44718413870835"><ele>204.0</ele><time>2026-05-03T10:12:28Z</time></trkpt><trkpt lat="54.319313369646814" lon="30.447171175601017"><ele>204.0</ele><time>2026-05-03T10:12:29Z</time></trkpt><trkpt lat="54.31960173747617" lon="30.447157158745874"><ele>204.0</ele><time>2026-05-03T10:12:30Z</time></trkpt><trkpt lat="54.319884041994214" lon="30.447140072234625"><ele>204.5</ele><time>2026-05-03T10:12:31Z</time></trkpt><trkpt lat="54.320170666615965" lon="30.447122108667322"><ele>205.0</ele><time>2026-05-03T10:12:32Z</time></trkpt><trkpt lat="54.320456470305295" lon="30.44710520075049"><ele>206.5</ele><time>2026-05-03T10:12:33Z</time></trkpt><trkpt lat="54.32073519952335" lon="30.447091270655935"><ele>208.0</ele><time>2026-05-03T10:12:34Z</time></trkpt><trkpt lat="54.321029133074276" lon="30.447069870609223"><ele>208.0</ele><time>2026-05-03T10:12:35Z</time></trkpt><trkpt lat="54.32131641239816" lon="30.447050769557162"><ele>208.0</ele><time>2026-05-03T10:12:36Z</time></trkpt><trkpt lat="54.32160195044794" lon="30.44703868549854"><ele>208.0</ele><time>2026-05-03T10:12:37Z</time></trkpt><trkpt lat="54.32189076344105" lon="30.447027264843854"><ele>208.0</ele><time>2026-05-03T10:12:38Z</time></trkpt><trkpt lat="54.32218800818563" lon="30.447000209223187"><ele>207.0</ele><time>2026-05-03T10:12:39Z</time></trkpt><trkpt lat="54.32247730648629" lon="30.44698278776431"><ele>206.0</ele><time>2026-05-03T10:12:40Z</time></trkpt><trkpt lat="54.32276945399158" lon="30.446966021290898"><ele>206.0</ele><time>2026-05-03T10:12:41Z</time></trkpt><trkpt lat="54.323063968589146" lon="30.446955679465685"><ele>206.0</ele><time>2026-05-03T10:12:42Z</time></trkpt><trkpt lat="54.32336222985496" lon="30.446942042200792"><ele>206.5</ele><time>2026-05-03T10:12:43Z</time></trkpt><trkpt lat="54.32365937418898" lon="30.446925989611852"><ele>207.0</ele><time>2026-05-03T10:12:44Z</time></trkpt><trkpt lat="54.323959031275216" lon="30.446908037260364"><ele>207.0</ele><time>2026-05-03T10:12:45Z</time></trkpt><trkpt lat="54.32426082011829" lon="30.44689855509476"><ele>207.0</ele><time>2026-05-03T10:12:46Z</time></trkpt><trkpt lat="54.32456611357482" lon="30.44687524416175"><ele>208.0</ele><time>2026-05-03T10:12:47Z</time></trkpt><trkpt lat="54.32487087005826" lon="30.446860729311318"><ele>209.0</ele><time>2026-05-03T10:12:48Z</time></trkpt><trkpt lat="54.325180462839086" lon="30.446839492969655"><ele>209.0</ele><time>2026-05-03T10:12:48.999Z</time></trkpt><trkpt lat="54.32548834597459" lon="30.446823416597802"><ele>209.0</ele><time>2026-05-03T10:12:49.999Z</time></trkpt><trkpt lat="54.32579855624418" lon="30.446807619198538"><ele>209.5</ele><time>2026-05-03T10:12:50.999Z</time></trkpt><trkpt lat="54.32611577529141" lon="30.446791921413713"><ele>210.0</ele><time>2026-05-03T10:12:51.999Z</time></trkpt><trkpt lat="54.32642977809141" lon="30.446780514725287"><ele>210.0</ele><time>2026-05-03T10:12:52.999Z</time></trkpt><trkpt lat="54.326744965121954" lon="30.446770107716343"><ele>210.0</ele><time>2026-05-03T10:12:53.999Z</time></trkpt><trkpt lat="54.32706272655408" lon="30.44675364927888"><ele>210.0</ele><time>2026-05-03T10:12:54.999Z</time></trkpt><trkpt lat="54.32738074006096" lon="30.44672893941144"><ele>210.0</ele><time>2026-05-03T10:12:55.999Z</time></trkpt><trkpt lat="54.327703915784724" lon="30.446691544929575"><ele>210.0</ele><time>2026-05-03T10:12:56.999Z</time></trkpt><trkpt lat="54.32802748936764" lon="30.446653630328445"><ele>210.0</ele><time>2026-05-03T10:12:57.999Z</time></trkpt><trkpt lat="54.328348529892104" lon="30.446630608248153"><ele>210.0</ele><time>2026-05-03T10:12:58.999Z</time></trkpt><trkpt lat="54.32866976010773" lon="30.44661275447402"><ele>210.0</ele><time>2026-05-03T10:12:59.999Z</time></trkpt><trkpt lat="54.32899811312125" lon="30.446596123598933"><ele>210.0</ele><time>2026-05-03T10:13:00.999Z</time></trkpt><trkpt lat="54.32932343037784" lon="30.446596177723126"><ele>210.0</ele><time>2026-05-03T10:13:01.999Z</time></trkpt><trkpt lat="54.32965076518127" lon="30.446595775470016"><ele>210.5</ele><time>2026-05-03T10:13:02.999Z</time></trkpt><trkpt lat="54.329972395268136" lon="30.44659104273165"><ele>211.0</ele><time>2026-05-03T10:13:03.999Z</time></trkpt><trkpt lat="54.33030180517014" lon="30.44656817301201"><ele>211.5</ele><time>2026-05-03T10:13:04.998Z</time></trkpt><trkpt lat="54.33062657037" lon="30.446543303217915"><ele>212.0</ele><time>2026-05-03T10:13:05.998Z</time></trkpt><trkpt lat="54.33093415944632" lon="30.446525331667868"><ele>212.0</ele><time>2026-05-03T10:13:06.998Z</time></trkpt><trkpt lat="54.33122076875893" lon="30.446513185409316"><ele>212.0</ele><time>2026-05-03T10:13:07.998Z</time></trkpt><trkpt lat="54.33151717981337" lon="30.44650980452826"><ele>212.5</ele><time>2026-05-03T10:13:08.998Z</time></trkpt><trkpt lat="54.33181814807651" lon="30.4464930084547"><ele>213.0</ele><time>2026-05-03T10:13:09.998Z</time></trkpt><trkpt lat="54.332124367286994" lon="30.446463574756642"><ele>214.0</ele><time>2026-05-03T10:13:10.998Z</time></trkpt><trkpt lat="54.33242646760032" lon="30.44643800826235"><ele>215.0</ele><time>2026-05-03T10:13:11.998Z</time></trkpt><trkpt lat="54.3327340610292" lon="30.446430897170217"><ele>215.0</ele><time>2026-05-03T10:13:12.998Z</time></trkpt><trkpt lat="54.33303681875072" lon="30.446421925375716"><ele>215.0</ele><time>2026-05-03T10:13:13.998Z</time></trkpt><trkpt lat="54.33334591153365" lon="30.446413796922666"><ele>215.0</ele><time>2026-05-03T10:13:15Z</time></trkpt><trkpt lat="54.33365377123622" lon="30.446397012517902"><ele>215.0</ele><time>2026-05-03T10:13:16Z</time></trkpt><trkpt lat="54.33396522257497" lon="30.446376862134304"><ele>215.0</ele><time>2026-05-03T10:13:17Z</time></trkpt><trkpt lat="54.33427669603124" lon="30.446354523755655"><ele>215.0</ele><time>2026-05-03T10:13:18Z</time></trkpt><trkpt lat="54.3345863551956" lon="30.446335151553775"><ele>215.0</ele><time>2026-05-03T10:13:19Z</time></trkpt><trkpt lat="54.334896237280894" lon="30.44631875238543"><ele>215.0</ele><time>2026-05-03T10:13:20Z</time></trkpt><trkpt lat="54.33520640277711" lon="30.446303704840187"><ele>215.0</ele><time>2026-05-03T10:13:21Z</time></trkpt><trkpt lat="54.33551666917131" lon="30.446293974043314"><ele>215.0</ele><time>2026-05-03T10:13:22Z</time></trkpt><trkpt lat="54.335824989054636" lon="30.446280894078697"><ele>215.5</ele><time>2026-05-03T10:13:23Z</time></trkpt><trkpt lat="54.336133473038494" lon="30.446264591616185"><ele>216.0</ele><time>2026-05-03T10:13:24Z</time></trkpt><trkpt lat="54.336442546384426" lon="30.446244395794654"><ele>217.0</ele><time>2026-05-03T10:13:25Z</time></trkpt><trkpt lat="54.33675075109663" lon="30.446222493413792"><ele>218.0</ele><time>2026-05-03T10:13:26Z</time></trkpt><trkpt lat="54.33706262384208" lon="30.44620021561134"><ele>219.0</ele><time>2026-05-03T10:13:27Z</time></trkpt><trkpt lat="54.337359273322974" lon="30.446175508158888"><ele>220.0</ele><time>2026-05-03T10:13:28Z</time></trkpt><trkpt lat="54.33764699341941" lon="30.446187572670425"><ele>220.0</ele><time>2026-05-03T10:13:29Z</time></trkpt><trkpt lat="54.337945580395285" lon="30.44617357190955"><ele>220.0</ele><time>2026-05-03T10:13:30Z</time></trkpt><trkpt lat="54.33824467749197" lon="30.446156421365508"><ele>219.0</ele><time>2026-05-03T10:13:31Z</time></trkpt><trkpt lat="54.33854742140394" lon="30.44613829312341"><ele>218.0</ele><time>2026-05-03T10:13:32Z</time></trkpt><trkpt lat="54.33885518183218" lon="30.446093837487883"><ele>218.5</ele><time>2026-05-03T10:13:33Z</time></trkpt><trkpt lat="54.33917052838582" lon="30.44609399080653"><ele>219.0</ele><time>2026-05-03T10:13:34Z</time></trkpt><trkpt lat="54.3394846566652" lon="30.446086071345142"><ele>218.5</ele><time>2026-05-03T10:13:35Z</time></trkpt><trkpt lat="54.33980318781235" lon="30.446068999841714"><ele>218.0</ele><time>2026-05-03T10:13:36Z</time></trkpt><trkpt lat="54.34011755448669" lon="30.446053593071632"><ele>218.0</ele><time>2026-05-03T10:13:37Z</time></trkpt><trkpt lat="54.340436025785934" lon="30.446040367474048"><ele>218.0</ele><time>2026-05-03T10:13:38Z</time></trkpt><trkpt lat="54.34075713883912" lon="30.446030253329436"><ele>218.0</ele><time>2026-05-03T10:13:39Z</time></trkpt><trkpt lat="54.34108240331518" lon="30.446014850835834"><ele>218.0</ele><time>2026-05-03T10:13:40Z</time></trkpt><trkpt lat="54.34140756407597" lon="30.445999431977334"><ele>218.0</ele><time>2026-05-03T10:13:40.999Z</time></trkpt><trkpt lat="54.341734535461164" lon="30.445985849738875"><ele>218.0</ele><time>2026-05-03T10:13:41.999Z</time></trkpt><trkpt lat="54.34206151025664" lon="30.44596829887862"><ele>217.5</ele><time>2026-05-03T10:13:42.999Z</time></trkpt><trkpt lat="54.3423927713116" lon="30.44594514738458"><ele>217.0</ele><time>2026-05-03T10:13:43.999Z</time></trkpt><trkpt lat="54.34272315184032" lon="30.44592561725797"><ele>217.0</ele><time>2026-05-03T10:13:44.999Z</time></trkpt><trkpt lat="54.343050074692286" lon="30.445910834328174"><ele>217.0</ele><time>2026-05-03T10:13:45.999Z</time></trkpt><trkpt lat="54.343379965541615" lon="30.44589625958438"><ele>217.0</ele><time>2026-05-03T10:13:46.999Z</time></trkpt><trkpt lat="54.34370757663189" lon="30.445875815267996"><ele>217.0</ele><time>2026-05-03T10:13:47.999Z</time></trkpt><trkpt lat="54.344036919300926" lon="30.44585574478073"><ele>217.5</ele><time>2026-05-03T10:13:48.999Z</time></trkpt><trkpt lat="54.34436447504477" lon="30.445838107770996"><ele>218.0</ele><time>2026-05-03T10:13:49.999Z</time></trkpt><trkpt lat="54.34469349247427" lon="30.445820629345985"><ele>218.5</ele><time>2026-05-03T10:13:50.999Z</time></trkpt><trkpt lat="54.34501660850466" lon="30.445805647284953"><ele>219.0</ele><time>2026-05-03T10:13:51.999Z</time></trkpt><trkpt lat="54.34534172917031" lon="30.445788214765777"><ele>219.5</ele><time>2026-05-03T10:13:52.999Z</time></trkpt><trkpt lat="54.34566067660938" lon="30.445772484913437"><ele>220.0</ele><time>2026-05-03T10:13:53.999Z</time></trkpt><trkpt lat="54.34596111229083" lon="30.445747628052274"><ele>220.0</ele><time>2026-05-03T10:13:54.999Z</time></trkpt><trkpt lat="54.34625087320385" lon="30.44573025209789"><ele>220.0</ele><time>2026-05-03T10:13:55.999Z</time></trkpt><trkpt lat="54.34652592220157" lon="30.44571460373872"><ele>219.5</ele><time>2026-05-03T10:13:56.999Z</time></trkpt><trkpt lat="54.34678574466431" lon="30.445695633854697"><ele>219.0</ele><time>2026-05-03T10:13:57.999Z</time></trkpt><trkpt lat="54.34704028880457" lon="30.445681247866723"><ele>218.5</ele><time>2026-05-03T10:13:58.999Z</time></trkpt><trkpt lat="54.3472832617293" lon="30.445668842440863"><ele>218.0</ele><time>2026-05-03T10:13:59.999Z</time></trkpt><trkpt lat="54.347509895943226" lon="30.445656376801434"><ele>218.0</ele><time>2026-05-03T10:14:00.999Z</time></trkpt><trkpt lat="54.34771607035778" lon="30.445644788281648"><ele>218.0</ele><time>2026-05-03T10:14:01.999Z</time></trkpt><trkpt lat="54.347907146369316" lon="30.44563117562697"><ele>218.0</ele><time>2026-05-03T10:14:02.999Z</time></trkpt><trkpt lat="54.348098743416735" lon="30.44561609785925"><ele>217.66666666666669</ele><time>2026-05-03T10:14:03.999Z</time></trkpt><trkpt lat="54.34827968201555" lon="30.445607102790113"><ele>217.33333333333331</ele><time>2026-05-03T10:14:04.999Z</time></trkpt><trkpt lat="54.3484621002494" lon="30.44559551441673"><ele>217.0</ele><time>2026-05-03T10:14:05.999Z</time></trkpt><trkpt lat="54.34864159263004" lon="30.445586523346115"><ele>217.0</ele><time>2026-05-03T10:14:06.999Z</time></trkpt><trkpt lat="54.34881478909467" lon="30.445577654754405"><ele>217.0</ele><time>2026-05-03T10:14:07.999Z</time></trkpt><trkpt lat="54.34898733669591" lon="30.445568900352402"><ele>217.0</ele><time>2026-05-03T10:14:08.999Z</time></trkpt><trkpt lat="54.34916914079115" lon="30.44555582718217"><ele>216.33333333333331</ele><time>2026-05-03T10:14:09.999Z</time></trkpt><trkpt lat="54.34934154822304" lon="30.44554603284006"><ele>215.66666666666669</ele><time>2026-05-03T10:14:10.999Z</time></trkpt><trkpt lat="54.349510023791105" lon="30.445545062234626"><ele>215.0</ele><time>2026-05-03T10:14:11.999Z</time></trkpt><trkpt lat="54.34964549832259" lon="30.445535018869688"><ele>215.25</ele><time>2026-05-03T10:14:12.999Z</time></trkpt><trkpt lat="54.34977294068483" lon="30.44552913305091"><ele>215.5</ele><time>2026-05-03T10:14:13.999Z</time></trkpt><trkpt lat="54.3499113599006" lon="30.445524326327075"><ele>215.75</ele><time>2026-05-03T10:14:14.999Z</time></trkpt><trkpt lat="54.3500553721589" lon="30.445520282093863"><ele>216.0</ele><time>2026-05-03T10:14:15.999Z</time></trkpt><trkpt lat="54.35020165676597" lon="30.445512901305552"><ele>216.0</ele><time>2026-05-03T10:14:16.999Z</time></trkpt><trkpt lat="54.3503536324006" lon="30.44550448738681"><ele>216.0</ele><time>2026-05-03T10:14:17.999Z</time></trkpt><trkpt lat="54.35050729573694" lon="30.445494100712992"><ele>216.0</ele><time>2026-05-03T10:14:18.999Z</time></trkpt><trkpt lat="54.35066703470862" lon="30.445483831927547"><ele>216.33333333333331</ele><time>2026-05-03T10:14:19.999Z</time></trkpt><trkpt lat="54.35082293661826" lon="30.445471923100516"><ele>216.66666666666666</ele><time>2026-05-03T10:14:20.999Z</time></trkpt><trkpt lat="54.3509870373226" lon="30.445464285856662"><ele>217.0</ele><time>2026-05-03T10:14:21.999Z</time></trkpt><trkpt lat="54.35115770608483" lon="30.445451177259308"><ele>217.0</ele><time>2026-05-03T10:14:22.999Z</time></trkpt><trkpt lat="54.35133343538421" lon="30.445433507218326"><ele>217.0</ele><time>2026-05-03T10:14:23.999Z</time></trkpt><trkpt lat="54.35151953412476" lon="30.44541959501184"><ele>217.0</ele><time>2026-05-03T10:14:24.999Z</time></trkpt><trkpt lat="54.35172153823267" lon="30.445409301085654"><ele>217.0</ele><time>2026-05-03T10:14:25.999Z</time></trkpt><trkpt lat="54.351927759515355" lon="30.445400602030887"><ele>217.0</ele><time>2026-05-03T10:14:26.999Z</time></trkpt><trkpt lat="54.35214262369115" lon="30.445392849214493"><ele>217.0</ele><time>2026-05-03T10:14:27.999Z</time></trkpt><trkpt lat="54.352364447805364" lon="30.445382133965953"><ele>217.0</ele><time>2026-05-03T10:14:28.999Z</time></trkpt><trkpt lat="54.35256039771805" lon="30.445377973303998"><ele>217.0</ele><time>2026-05-03T10:14:29.999Z</time></trkpt><trkpt lat="54.35273615586763" lon="30.445363118002547"><ele>217.0</ele><time>2026-05-03T10:14:30.999Z</time></trkpt><trkpt lat="54.352915850522464" lon="30.445344814502246"><ele>217.33333333333331</ele><time>2026-05-03T10:14:31.999Z</time></trkpt><trkpt lat="54.35311963484782" lon="30.445334876776155"><ele>217.66666666666669</ele><time>2026-05-03T10:14:32.999Z</time></trkpt><trkpt lat="54.3533303398711" lon="30.44532560616484"><ele>218.0</ele><time>2026-05-03T10:14:33.999Z</time></trkpt><trkpt lat="54.353546983523536" lon="30.445317074547432"><ele>218.0</ele><time>2026-05-03T10:14:34.999Z</time></trkpt><trkpt lat="54.353771867034794" lon="30.4453072585729"><ele>218.0</ele><time>2026-05-03T10:14:35.999Z</time></trkpt><trkpt lat="54.35400004141637" lon="30.445290288148247"><ele>217.5</ele><time>2026-05-03T10:14:36.999Z</time></trkpt><trkpt lat="54.35423452574038" lon="30.445276394132886"><ele>217.0</ele><time>2026-05-03T10:14:37.999Z</time></trkpt><trkpt lat="54.35446407469662" lon="30.445258732807805"><ele>217.0</ele><time>2026-05-03T10:14:38.999Z</time></trkpt><trkpt lat="54.3546944107427" lon="30.44524761945717"><ele>217.0</ele><time>2026-05-03T10:14:39.999Z</time></trkpt><trkpt lat="54.354918308673" lon="30.445231556653315"><ele>216.0</ele><time>2026-05-03T10:14:40.999Z</time></trkpt><trkpt lat="54.35515127365525" lon="30.445218328161335"><ele>215.0</ele><time>2026-05-03T10:14:41.999Z</time></trkpt><trkpt lat="54.3553817918113" lon="30.445202653080205"><ele>215.5</ele><time>2026-05-03T10:14:42.999Z</time></trkpt><trkpt lat="54.35560807977841" lon="30.445188711518835"><ele>216.0</ele><time>2026-05-03T10:14:43.999Z</time></trkpt><trkpt lat="54.35584388713812" lon="30.445178512816664"><ele>216.0</ele><time>2026-05-03T10:14:44.999Z</time></trkpt><trkpt lat="54.356073631408606" lon="30.445168141263075"><ele>216.0</ele><time>2026-05-03T10:14:45.999Z</time></trkpt><trkpt lat="54.35630754979436" lon="30.445155665796754"><ele>216.5</ele><time>2026-05-03T10:14:46.999Z</time></trkpt><trkpt lat="54.35654428029727" lon="30.445142310900508"><ele>217.0</ele><time>2026-05-03T10:14:47.999Z</time></trkpt><trkpt lat="54.35678674688789" lon="30.44512660534142"><ele>217.0</ele><time>2026-05-03T10:14:48.999Z</time></trkpt><trkpt lat="54.357030032867335" lon="30.445115138883217"><ele>217.0</ele><time>2026-05-03T10:14:49.999Z</time></trkpt><trkpt lat="54.35728183916096" lon="30.445101615747003"><ele>217.5</ele><time>2026-05-03T10:14:50.999Z</time></trkpt><trkpt lat="54.35754048376894" lon="30.445089430444163"><ele>218.0</ele><time>2026-05-03T10:14:51.999Z</time></trkpt><trkpt lat="54.35780198767387" lon="30.44507751663172"><ele>218.0</ele><time>2026-05-03T10:14:52.999Z</time></trkpt><trkpt lat="54.35805880143391" lon="30.44506477058711"><ele>218.0</ele><time>2026-05-03T10:14:53.999Z</time></trkpt><trkpt lat="54.35832483514123" lon="30.445052716808743"><ele>218.0</ele><time>2026-05-03T10:14:54.999Z</time></trkpt><trkpt lat="54.35859058202687" lon="30.445033744605297"><ele>218.0</ele><time>2026-05-03T10:14:55.999Z</time></trkpt><trkpt lat="54.358850912076655" lon="30.44501494942766"><ele>218.0</ele><time>2026-05-03T10:14:56.999Z</time></trkpt><trkpt lat="54.359114140339855" lon="30.44499548617377"><ele>218.0</ele><time>2026-05-03T10:14:57.999Z</time></trkpt><trkpt lat="54.35937393190328" lon="30.444986062769377"><ele>218.0</ele><time>2026-05-03T10:14:58.998Z</time></trkpt><trkpt lat="54.3596427150157" lon="30.444970636274714"><ele>218.0</ele><time>2026-05-03T10:14:59.998Z</time></trkpt><trkpt lat="54.359905317261926" lon="30.444955199224363"><ele>218.0</ele><time>2026-05-03T10:15:00.998Z</time></trkpt><trkpt lat="54.360178423950586" lon="30.444934085605077"><ele>218.0</ele><time>2026-05-03T10:15:01.998Z</time></trkpt><trkpt lat="54.36044894901316" lon="30.444947763247253"><ele>218.0</ele><time>2026-05-03T10:15:02.998Z</time></trkpt><trkpt lat="54.36072440716963" lon="30.44493296811392"><ele>218.0</ele><time>2026-05-03T10:15:03.998Z</time></trkpt><trkpt lat="54.361002332076204" lon="30.444918226228854"><ele>218.0</ele><time>2026-05-03T10:15:04.998Z</time></trkpt><trkpt lat="54.36128380794961" lon="30.44490336664373"><ele>218.0</ele><time>2026-05-03T10:15:05.998Z</time></trkpt><trkpt lat="54.36155884377131" lon="30.44488756918672"><ele>216.5</ele><time>2026-05-03T10:15:06.998Z</time></trkpt><trkpt lat="54.36183298812905" lon="30.444873749821134"><ele>215.0</ele><time>2026-05-03T10:15:07.998Z</time></trkpt><trkpt lat="54.36212027120768" lon="30.444858111083647"><ele>214.0</ele><time>2026-05-03T10:15:08.998Z</time></trkpt><trkpt lat="54.36240665885803" lon="30.44484313997622"><ele>213.0</ele><time>2026-05-03T10:15:09.998Z</time></trkpt><trkpt lat="54.362694522672356" lon="30.44480621988138"><ele>213.0</ele><time>2026-05-03T10:15:10.998Z</time></trkpt><trkpt lat="54.36298918587126" lon="30.44479067363557"><ele>213.0</ele><time>2026-05-03T10:15:11.998Z</time></trkpt><trkpt lat="54.36328362708169" lon="30.444776418334744"><ele>213.0</ele><time>2026-05-03T10:15:12.998Z</time></trkpt><trkpt lat="54.36358577436805" lon="30.444766498033147"><ele>213.0</ele><time>2026-05-03T10:15:13.998Z</time></trkpt><trkpt lat="54.36388599088639" lon="30.444751609112306"><ele>212.0</ele><time>2026-05-03T10:15:14.998Z</time></trkpt><trkpt lat="54.36419111198196" lon="30.444741358951998"><ele>211.0</ele><time>2026-05-03T10:15:15.998Z</time></trkpt><trkpt lat="54.36449317669912" lon="30.444722636759753"><ele>210.5</ele><time>2026-05-03T10:15:16.998Z</time></trkpt><trkpt lat="54.364802163365894" lon="30.444703996865787"><ele>210.0</ele><time>2026-05-03T10:15:17.998Z</time></trkpt><trkpt lat="54.36511478791786" lon="30.444686538384744"><ele>210.0</ele><time>2026-05-03T10:15:18.998Z</time></trkpt><trkpt lat="54.3654246305689" lon="30.4446663775859"><ele>210.0</ele><time>2026-05-03T10:15:19.998Z</time></trkpt><trkpt lat="54.36573668712991" lon="30.444652431076065"><ele>208.5</ele><time>2026-05-03T10:15:21Z</time></trkpt><trkpt lat="54.36604281414978" lon="30.444639968342244"><ele>207.0</ele><time>2026-05-03T10:15:22Z</time></trkpt><trkpt lat="54.36635088637257" lon="30.444624352907887"><ele>207.0</ele><time>2026-05-03T10:15:23Z</time></trkpt><trkpt lat="54.36664115040207" lon="30.44460827227625"><ele>207.0</ele><time>2026-05-03T10:15:24Z</time></trkpt><trkpt lat="54.36692567350014" lon="30.444594167042197"><ele>206.0</ele><time>2026-05-03T10:15:25Z</time></trkpt><trkpt lat="54.367220039904375" lon="30.444586752017486"><ele>205.0</ele><time>2026-05-03T10:15:26Z</time></trkpt><trkpt lat="54.367517757280005" lon="30.444578819050438"><ele>205.0</ele><time>2026-05-03T10:15:27Z</time></trkpt><trkpt lat="54.367813053308524" lon="30.444563944108705"><ele>205.0</ele><time>2026-05-03T10:15:28Z</time></trkpt><trkpt lat="54.368111823656236" lon="30.444546840218823"><ele>203.5</ele><time>2026-05-03T10:15:29Z</time></trkpt><trkpt lat="54.36841531154128" lon="30.444532749290804"><ele>202.0</ele><time>2026-05-03T10:15:30Z</time></trkpt><trkpt lat="54.36870992935224" lon="30.444518259170962"><ele>201.0</ele><time>2026-05-03T10:15:31Z</time></trkpt><trkpt lat="54.369001396646354" lon="30.44450541150171"><ele>200.0</ele><time>2026-05-03T10:15:32Z</time></trkpt><trkpt lat="54.36929985569473" lon="30.44448465508361"><ele>200.0</ele><time>2026-05-03T10:15:33Z</time></trkpt><trkpt lat="54.36959142476764" lon="30.444460434967464"><ele>200.0</ele><time>2026-05-03T10:15:34Z</time></trkpt><trkpt lat="54.36988980142057" lon="30.44443437277462"><ele>200.0</ele><time>2026-05-03T10:15:35Z</time></trkpt><trkpt lat="54.37017744087575" lon="30.444417090902938"><ele>200.0</ele><time>2026-05-03T10:15:36Z</time></trkpt><trkpt lat="54.37046615107457" lon="30.444404168376185"><ele>200.0</ele><time>2026-05-03T10:15:37Z</time></trkpt><trkpt lat="54.370761645937726" lon="30.444388392431538"><ele>200.0</ele><time>2026-05-03T10:15:38Z</time></trkpt><trkpt lat="54.37104706977021" lon="30.444374630580015"><ele>200.0</ele><time>2026-05-03T10:15:39Z</time></trkpt><trkpt lat="54.37133400783951" lon="30.444356688991018"><ele>200.0</ele><time>2026-05-03T10:15:40Z</time></trkpt><trkpt lat="54.3716266072524" lon="30.444331491110272"><ele>200.0</ele><time>2026-05-03T10:15:41Z</time></trkpt><trkpt lat="54.371909569024936" lon="30.444328245770084"><ele>200.0</ele><time>2026-05-03T10:15:42Z</time></trkpt><trkpt lat="54.37220209570532" lon="30.44429526399747"><ele>200.0</ele><time>2026-05-03T10:15:43Z</time></trkpt><trkpt lat="54.37248518913505" lon="30.44428519814077"><ele>200.0</ele><time>2026-05-03T10:15:44Z</time></trkpt><trkpt lat="54.37275335548925" lon="30.444264362955224"><ele>199.0</ele><time>2026-05-03T10:15:45Z</time></trkpt><trkpt lat="54.37302735050211" lon="30.444255985932017"><ele>198.0</ele><time>2026-05-03T10:15:46Z</time></trkpt><trkpt lat="54.37329872857177" lon="30.4442385772632"><ele>198.0</ele><time>2026-05-03T10:15:47Z</time></trkpt><trkpt lat="54.37356431408443" lon="30.44422755549148"><ele>198.0</ele><time>2026-05-03T10:15:47.999Z</time></trkpt><trkpt lat="54.37382877257599" lon="30.444212937426684"><ele>197.5</ele><time>2026-05-03T10:15:48.999Z</time></trkpt><trkpt lat="54.37408985790128" lon="30.44419675537452"><ele>197.0</ele><time>2026-05-03T10:15:49.999Z</time></trkpt><trkpt lat="54.374354881999885" lon="30.444177387377927"><ele>197.0</ele><time>2026-05-03T10:15:50.999Z</time></trkpt><trkpt lat="54.37461927756151" lon="30.444164652860287"><ele>197.0</ele><time>2026-05-03T10:15:51.999Z</time></trkpt><trkpt lat="54.37488490953354" lon="30.44415252803706"><ele>196.5</ele><time>2026-05-03T10:15:52.999Z</time></trkpt><trkpt lat="54.37515487972411" lon="30.444142051093213"><ele>196.0</ele><time>2026-05-03T10:15:53.999Z</time></trkpt><trkpt lat="54.3754276452022" lon="30.444124972870394"><ele>194.5</ele><time>2026-05-03T10:15:54.999Z</time></trkpt><trkpt lat="54.375685081519286" lon="30.444117291266117"><ele>193.0</ele><time>2026-05-03T10:15:55.999Z</time></trkpt><trkpt lat="54.37592366673902" lon="30.444104956293085"><ele>193.0</ele><time>2026-05-03T10:15:56.999Z</time></trkpt><trkpt lat="54.37614199464564" lon="30.444095158631423"><ele>193.0</ele><time>2026-05-03T10:15:57.999Z</time></trkpt><trkpt lat="54.376349869842194" lon="30.444081411395487"><ele>193.0</ele><time>2026-05-03T10:15:58.999Z</time></trkpt><trkpt lat="54.37654796751346" lon="30.44407538841311"><ele>192.66666666666666</ele><time>2026-05-03T10:15:59.999Z</time></trkpt><trkpt lat="54.376737757053306" lon="30.444070878614976"><ele>192.33333333333331</ele><time>2026-05-03T10:16:00.999Z</time></trkpt><trkpt lat="54.37692307754708" lon="30.44406375914958"><ele>192.0</ele><time>2026-05-03T10:16:01.999Z</time></trkpt><trkpt lat="54.37710266243125" lon="30.444058205812617"><ele>192.66666666666669</ele><time>2026-05-03T10:16:02.999Z</time></trkpt><trkpt lat="54.377272072136634" lon="30.44404555564085"><ele>193.33333333333334</ele><time>2026-05-03T10:16:03.999Z</time></trkpt><trkpt lat="54.37742993484053" lon="30.444034154445"><ele>194.0</ele><time>2026-05-03T10:16:04.999Z</time></trkpt><trkpt lat="54.377579955894916" lon="30.444025497798524"><ele>194.0</ele><time>2026-05-03T10:16:05.999Z</time></trkpt><trkpt lat="54.377734577738714" lon="30.444014162394158"><ele>194.0</ele><time>2026-05-03T10:16:06.999Z</time></trkpt><trkpt lat="54.37790023075111" lon="30.44400594937003"><ele>194.0</ele><time>2026-05-03T10:16:07.999Z</time></trkpt><trkpt lat="54.37806784946555" lon="30.443996929408137"><ele>193.66666666666669</ele><time>2026-05-03T10:16:08.999Z</time></trkpt><trkpt lat="54.37823589220515" lon="30.443988353670818"><ele>193.33333333333331</ele><time>2026-05-03T10:16:09.999Z</time></trkpt><trkpt lat="54.37840943476144" lon="30.44398180954958"><ele>193.0</ele><time>2026-05-03T10:16:10.999Z</time></trkpt><trkpt lat="54.37858126739641" lon="30.44397190326064"><ele>193.0</ele><time>2026-05-03T10:16:11.999Z</time></trkpt><trkpt lat="54.37875490005445" lon="30.443959156468864"><ele>193.0</ele><time>2026-05-03T10:16:12.999Z</time></trkpt><trkpt lat="54.37892642952294" lon="30.44394757552177"><ele>193.0</ele><time>2026-05-03T10:16:13.999Z</time></trkpt><trkpt lat="54.379122367986966" lon="30.443934785940332"><ele>192.66666666666666</ele><time>2026-05-03T10:16:14.999Z</time></trkpt><trkpt lat="54.379316058223964" lon="30.44392408776107"><ele>192.33333333333331</ele><time>2026-05-03T10:16:15.999Z</time></trkpt><trkpt lat="54.379512734268694" lon="30.443914342490928"><ele>192.0</ele><time>2026-05-03T10:16:16.999Z</time></trkpt><trkpt lat="54.3797118023557" lon="30.443906976241294"><ele>191.33333333333334</ele><time>2026-05-03T10:16:17.999Z</time></trkpt><trkpt lat="54.37990772626535" lon="30.44390372012707"><ele>190.66666666666669</ele><time>2026-05-03T10:16:18.999Z</time></trkpt><trkpt lat="54.38010320906059" lon="30.44389524243774"><ele>190.0</ele><time>2026-05-03T10:16:19.999Z</time></trkpt><trkpt lat="54.38030142881682" lon="30.44388871323234"><ele>190.0</ele><time>2026-05-03T10:16:20.999Z</time></trkpt><trkpt lat="54.38050454232767" lon="30.44388702139272"><ele>190.0</ele><time>2026-05-03T10:16:21.999Z</time></trkpt><trkpt lat="54.38072144543881" lon="30.443877583777486"><ele>190.0</ele><time>2026-05-03T10:16:22.999Z</time></trkpt><trkpt lat="54.380947820566945" lon="30.443858187325755"><ele>189.5</ele><time>2026-05-03T10:16:23.999Z</time></trkpt><trkpt lat="54.38117427207449" lon="30.443838673089676"><ele>189.0</ele><time>2026-05-03T10:16:24.999Z</time></trkpt><trkpt lat="54.38140246996597" lon="30.443822862661115"><ele>188.0</ele><time>2026-05-03T10:16:25.999Z</time></trkpt><trkpt lat="54.38163494827605" lon="30.44380599695263"><ele>187.0</ele><time>2026-05-03T10:16:26.999Z</time></trkpt><trkpt lat="54.38187182024168" lon="30.443797651592046"><ele>188.0</ele><time>2026-05-03T10:16:27.999Z</time></trkpt><trkpt lat="54.38211889788526" lon="30.44378523232351"><ele>189.0</ele><time>2026-05-03T10:16:28.999Z</time></trkpt><trkpt lat="54.38236196355541" lon="30.443773201777617"><ele>187.0</ele><time>2026-05-03T10:16:29.999Z</time></trkpt><trkpt lat="54.38258612070419" lon="30.443761507626743"><ele>185.0</ele><time>2026-05-03T10:16:30.999Z</time></trkpt><trkpt lat="54.38278658116465" lon="30.443748493299484"><ele>183.0</ele><time>2026-05-03T10:16:31.999Z</time></trkpt><trkpt lat="54.38294772031504" lon="30.44373837115617"><ele>181.60000000000002</ele><time>2026-05-03T10:16:32.999Z</time></trkpt><trkpt lat="54.38305514238493" lon="30.44373385037496"><ele>180.20000000000002</ele><time>2026-05-03T10:16:33.999Z</time></trkpt><trkpt lat="54.38312184944308" lon="30.44370721904434"><ele>178.8</ele><time>2026-05-03T10:16:34.999Z</time></trkpt><trkpt lat="54.38316214964789" lon="30.44352475306535"><ele>177.4</ele><time>2026-05-03T10:16:37.999Z</time></trkpt><trkpt lat="54.38319276360904" lon="30.44337220049214"><ele>176.0</ele><time>2026-05-03T10:16:39.999Z</time></trkpt><trkpt lat="54.38321450032471" lon="30.44319638044982"><ele>176.0</ele><time>2026-05-03T10:16:41.999Z</time></trkpt><trkpt lat="54.383193896946054" lon="30.443078718740477"><ele>176.0</ele><time>2026-05-03T10:16:42.999Z</time></trkpt><trkpt lat="54.38317067937792" lon="30.442939603032677"><ele>176.0</ele><time>2026-05-03T10:16:43.999Z</time></trkpt><trkpt lat="54.38313819686889" lon="30.44279745704759"><ele>176.0</ele><time>2026-05-03T10:16:44.999Z</time></trkpt><trkpt lat="54.38309334362243" lon="30.442628991910684"><ele>176.0</ele><time>2026-05-03T10:16:45.999Z</time></trkpt><trkpt lat="54.383049749967725" lon="30.44246521964506"><ele>177.25</ele><time>2026-05-03T10:16:46.999Z</time></trkpt><trkpt lat="54.383006621210995" lon="30.442303367343612"><ele>178.5</ele><time>2026-05-03T10:16:47.999Z</time></trkpt><trkpt lat="54.3829615438198" lon="30.442133765290595"><ele>179.75</ele><time>2026-05-03T10:16:48.999Z</time></trkpt><trkpt lat="54.38291266191656" lon="30.441949604053217"><ele>181.0</ele><time>2026-05-03T10:16:49.999Z</time></trkpt><trkpt lat="54.382862306152916" lon="30.44175842401412"><ele>181.0</ele><time>2026-05-03T10:16:50.999Z</time></trkpt><trkpt lat="54.38281349272202" lon="30.44157513236536"><ele>181.0</ele><time>2026-05-03T10:16:51.999Z</time></trkpt><trkpt lat="54.382764516743116" lon="30.441391831953815"><ele>181.0</ele><time>2026-05-03T10:16:52.999Z</time></trkpt><trkpt lat="54.38271194188996" lon="30.441191585769023"><ele>181.0</ele><time>2026-05-03T10:16:53.999Z</time></trkpt><trkpt lat="54.38265783294857" lon="30.440988171374162"><ele>180.75</ele><time>2026-05-03T10:16:54.999Z</time></trkpt><trkpt lat="54.382604224827865" lon="30.44078758389741"><ele>180.5</ele><time>2026-05-03T10:16:55.999Z</time></trkpt><trkpt lat="54.38255150659606" lon="30.440587793517842"><ele>180.25</ele><time>2026-05-03T10:16:56.999Z</time></trkpt><trkpt lat="54.382492131232844" lon="30.440384900592733"><ele>180.0</ele><time>2026-05-03T10:16:57.999Z</time></trkpt><trkpt lat="54.38243074779688" lon="30.44020102162769"><ele>180.5</ele><time>2026-05-03T10:16:58.999Z</time></trkpt><trkpt lat="54.38236610265467" lon="30.440007371576623"><ele>181.0</ele><time>2026-05-03T10:16:59.999Z</time></trkpt><trkpt lat="54.382303215942756" lon="30.43981912806358"><ele>181.5</ele><time>2026-05-03T10:17:00.999Z</time></trkpt><trkpt lat="54.382242337913596" lon="30.439636784358996"><ele>182.0</ele><time>2026-05-03T10:17:01.999Z</time></trkpt><trkpt lat="54.38218793864845" lon="30.439473758014177"><ele>183.0</ele><time>2026-05-03T10:17:02.999Z</time></trkpt><trkpt lat="54.382130480548284" lon="30.439301126041638"><ele>184.0</ele><time>2026-05-03T10:17:03.999Z</time></trkpt><trkpt lat="54.38207134927702" lon="30.439123968907225"><ele>185.0</ele><time>2026-05-03T10:17:04.999Z</time></trkpt><trkpt lat="54.382014924921904" lon="30.43895621342437"><ele>186.0</ele><time>2026-05-03T10:17:05.998Z</time></trkpt><trkpt lat="54.38196223653357" lon="30.438797297605383"><ele>186.33333333333334</ele><time>2026-05-03T10:17:06.998Z</time></trkpt><trkpt lat="54.38191893406553" lon="30.438666688947972"><ele>186.66666666666666</ele><time>2026-05-03T10:17:07.998Z</time></trkpt><trkpt lat="54.381903085809846" lon="30.438544311787183"><ele>187.0</ele><time>2026-05-03T10:17:08.998Z</time></trkpt><trkpt lat="54.38187593619844" lon="30.438400412315694"><ele>187.33333333333331</ele><time>2026-05-03T10:17:09.998Z</time></trkpt><trkpt lat="54.3818485190123" lon="30.43825523580207"><ele>187.66666666666666</ele><time>2026-05-03T10:17:10.998Z</time></trkpt><trkpt lat="54.38182290442689" lon="30.438119602491042"><ele>188.0</ele><time>2026-05-03T10:17:11.998Z</time></trkpt><trkpt lat="54.38192065520154" lon="30.43811513133464"><ele>188.0</ele><time>2026-05-03T10:17:12.998Z</time></trkpt><trkpt lat="54.3819556327297" lon="30.43799803872135"><ele>188.0</ele><time>2026-05-03T10:17:13.998Z</time></trkpt><trkpt lat="54.3819971930234" lon="30.43785890870387"><ele>188.0</ele><time>2026-05-03T10:17:14.998Z</time></trkpt><trkpt lat="54.382038349281544" lon="30.437721306333295"><ele>188.0</ele><time>2026-05-03T10:17:15.998Z</time></trkpt><trkpt lat="54.382082180600804" lon="30.437572651340037"><ele>188.0</ele><time>2026-05-03T10:17:16.998Z</time></trkpt><trkpt lat="54.38212554867935" lon="30.437428087957688"><ele>187.83333333333331</ele><time>2026-05-03T10:17:17.998Z</time></trkpt><trkpt lat="54.38215928146346" lon="30.43731562462951"><ele>187.66666666666666</ele><time>2026-05-03T10:17:18.998Z</time></trkpt><trkpt lat="54.382173378462745" lon="30.43711722732827"><ele>187.5</ele><time>2026-05-03T10:17:19.998Z</time></trkpt><trkpt lat="54.382171596690505" lon="30.43699617704092"><ele>187.33333333333334</ele><time>2026-05-03T10:17:20.998Z</time></trkpt><trkpt lat="54.38216822697195" lon="30.43685249445463"><ele>187.16666666666669</ele><time>2026-05-03T10:17:21.998Z</time></trkpt><trkpt lat="54.38216468041924" lon="30.436709740805952"><ele>187.0</ele><time>2026-05-03T10:17:22.998Z</time></trkpt><trkpt lat="54.382024260819435" lon="30.43657903612644"><ele>187.66666666666669</ele><time>2026-05-03T10:17:23.998Z</time></trkpt><trkpt lat="54.381986859402346" lon="30.43644216355863"><ele>188.33333333333334</ele><time>2026-05-03T10:17:24.998Z</time></trkpt><trkpt lat="54.381928641333126" lon="30.436350016085196"><ele>189.0</ele><time>2026-05-03T10:17:25.998Z</time></trkpt><trkpt lat="54.38185019597618" lon="30.436411565803173"><ele>189.66666666666666</ele><time>2026-05-03T10:17:27Z</time></trkpt><trkpt lat="54.38177709157281" lon="30.43633452954309"><ele>190.33333333333331</ele><time>2026-05-03T10:17:28Z</time></trkpt><trkpt lat="54.381712642892495" lon="30.43626724887405"><ele>191.0</ele><time>2026-05-03T10:17:29Z</time></trkpt><trkpt lat="54.381652711127586" lon="30.436204731864894"><ele>192.20000000000002</ele><time>2026-05-03T10:17:30Z</time></trkpt><trkpt lat="54.38158159843664" lon="30.436130651488686"><ele>193.4</ele><time>2026-05-03T10:17:31Z</time></trkpt><trkpt lat="54.3815117376465" lon="30.43605791733144"><ele>194.6</ele><time>2026-05-03T10:17:32Z</time></trkpt><trkpt lat="54.381378293873524" lon="30.436009213921697"><ele>195.8</ele><time>2026-05-03T10:17:34Z</time></trkpt><trkpt lat="54.38127333387575" lon="30.435946459176822"><ele>197.0</ele><time>2026-05-03T10:17:35Z</time></trkpt><trkpt lat="54.381154750978254" lon="30.435874745031676"><ele>197.0</ele><time>2026-05-03T10:17:36Z</time></trkpt><trkpt lat="54.38105278190323" lon="30.435813792789006"><ele>197.0</ele><time>2026-05-03T10:17:37Z</time></trkpt><trkpt lat="54.38095033285507" lon="30.435752397812735"><ele>197.0</ele><time>2026-05-03T10:17:38Z</time></trkpt><trkpt lat="54.38071282480722" lon="30.435410295947836"><ele>197.39999999999998</ele><time>2026-05-03T10:17:39Z</time></trkpt><trkpt lat="54.3806554246201" lon="30.435287081634804"><ele>197.79999999999998</ele><time>2026-05-03T10:17:40Z</time></trkpt><trkpt lat="54.38059316714929" lon="30.435153288467873"><ele>198.2</ele><time>2026-05-03T10:17:41Z</time></trkpt><trkpt lat="54.38053562850526" lon="30.43502805754675"><ele>198.6</ele><time>2026-05-03T10:17:42Z</time></trkpt><trkpt lat="54.38047935860012" lon="30.43490659222213"><ele>199.0</ele><time>2026-05-03T10:17:43Z</time></trkpt><trkpt lat="54.38042734208209" lon="30.43479436783399"><ele>198.99999999999997</ele><time>2026-05-03T10:17:44Z</time></trkpt><trkpt lat="54.38038174924813" lon="30.434691133094372"><ele>199.0</ele><time>2026-05-03T10:17:45Z</time></trkpt><trkpt lat="54.38032547108375" lon="30.43458344707957"><ele>199.0</ele><time>2026-05-03T10:17:46Z</time></trkpt><trkpt lat="54.38026900090766" lon="30.434476085831474"><ele>199.0</ele><time>2026-05-03T10:17:47Z</time></trkpt><trkpt lat="54.38021534177481" lon="30.434374068759965"><ele>198.99999999999997</ele><time>2026-05-03T10:17:48Z</time></trkpt><trkpt lat="54.38016720532594" lon="30.43428243365001"><ele>199.0</ele><time>2026-05-03T10:17:49Z</time></trkpt><trkpt lat="54.38011759428412" lon="30.43418749443308"><ele>200.0</ele><time>2026-05-03T10:17:50Z</time></trkpt><trkpt lat="54.38005327374203" lon="30.434107369498005"><ele>201.0</ele><time>2026-05-03T10:17:51Z</time></trkpt><trkpt lat="54.38000098621039" lon="30.4340112008538"><ele>202.0</ele><time>2026-05-03T10:17:52Z</time></trkpt><trkpt lat="54.37993235940657" lon="30.43375820485302"><ele>203.0</ele><time>2026-05-03T10:17:54Z</time></trkpt><trkpt lat="54.379874896229914" lon="30.433702079519204"><ele>204.0</ele><time>2026-05-03T10:17:55Z</time></trkpt><trkpt lat="54.37981160003676" lon="30.433640259075133"><ele>204.16666666666666</ele><time>2026-05-03T10:17:56Z</time></trkpt><trkpt lat="54.379747320094936" lon="30.433577477563233"><ele>204.33333333333331</ele><time>2026-05-03T10:17:57Z</time></trkpt><trkpt lat="54.379682080083974" lon="30.43351375867296"><ele>204.5</ele><time>2026-05-03T10:17:58Z</time></trkpt><trkpt lat="54.37961536834798" lon="30.43344846481987"><ele>204.66666666666666</ele><time>2026-05-03T10:17:58.999Z</time></trkpt><trkpt lat="54.379541260537685" lon="30.43337601916464"><ele>204.83333333333331</ele><time>2026-05-03T10:17:59.999Z</time></trkpt><trkpt lat="54.37946633364066" lon="30.433302502897316"><ele>205.0</ele><time>2026-05-03T10:18:00.999Z</time></trkpt><trkpt lat="54.37939357786161" lon="30.433231117058504"><ele>204.99999999999997</ele><time>2026-05-03T10:18:01.999Z</time></trkpt><trkpt lat="54.379322799143445" lon="30.43316196646964"><ele>205.0</ele><time>2026-05-03T10:18:02.999Z</time></trkpt><trkpt lat="54.379250342772345" lon="30.433091355389614"><ele>205.0</ele><time>2026-05-03T10:18:03.999Z</time></trkpt><trkpt lat="54.37916981662194" lon="30.433012878692622"><ele>205.0</ele><time>2026-05-03T10:18:04.999Z</time></trkpt><trkpt lat="54.37909393180723" lon="30.432938923958275"><ele>204.99999999999997</ele><time>2026-05-03T10:18:05.999Z</time></trkpt><trkpt lat="54.379030084011184" lon="30.43283974971152"><ele>205.0</ele><time>2026-05-03T10:18:07.999Z</time></trkpt><trkpt lat="54.37895529036472" lon="30.43276319267374"><ele>204.0</ele><time>2026-05-03T10:18:08.999Z</time></trkpt><trkpt lat="54.37888068792696" lon="30.43269139129374"><ele>203.0</ele><time>2026-05-03T10:18:09.999Z</time></trkpt><trkpt lat="54.37845308728812" lon="30.43329490987326"><ele>203.0</ele><time>2026-05-03T10:18:10.999Z</time></trkpt><trkpt lat="54.37836224825805" lon="30.43324543425441"><ele>203.0</ele><time>2026-05-03T10:18:11.999Z</time></trkpt><trkpt lat="54.37827015179389" lon="30.43320088323017"><ele>203.0</ele><time>2026-05-03T10:18:12.999Z</time></trkpt><trkpt lat="54.37818084847809" lon="30.433148460387454"><ele>203.0</ele><time>2026-05-03T10:18:13.999Z</time></trkpt><trkpt lat="54.378101938165884" lon="30.433089358650303"><ele>203.0</ele><time>2026-05-03T10:18:14.999Z</time></trkpt><trkpt lat="54.37801670637413" lon="30.43302901280868"><ele>203.33333333333334</ele><time>2026-05-03T10:18:15.999Z</time></trkpt><trkpt lat="54.3779369825936" lon="30.432974767617065"><ele>203.66666666666669</ele><time>2026-05-03T10:18:16.999Z</time></trkpt><trkpt lat="54.37786323527809" lon="30.432913159393046"><ele>204.0</ele><time>2026-05-03T10:18:17.999Z</time></trkpt><trkpt lat="54.37778216424773" lon="30.432849803453095"><ele>204.33333333333331</ele><time>2026-05-03T10:18:18.999Z</time></trkpt><trkpt lat="54.37770487148183" lon="30.432800211251685"><ele>204.66666666666666</ele><time>2026-05-03T10:18:19.999Z</time></trkpt><trkpt lat="54.37762668917655" lon="30.432761090343806"><ele>205.0</ele><time>2026-05-03T10:18:20.999Z</time></trkpt><trkpt lat="54.37752755494646" lon="30.432686015141737"><ele>204.99999999999997</ele><time>2026-05-03T10:18:21.999Z</time></trkpt><trkpt lat="54.37740073228778" lon="30.432593147657716"><ele>205.0</ele><time>2026-05-03T10:18:23.999Z</time></trkpt><trkpt lat="54.377333890304534" lon="30.43253767629889"><ele>205.0</ele><time>2026-05-03T10:18:24.999Z</time></trkpt><trkpt lat="54.37727215455787" lon="30.432474693569517"><ele>205.0</ele><time>2026-05-03T10:18:25.999Z</time></trkpt><trkpt lat="54.37720698587015" lon="30.432404159339388"><ele>204.99999999999997</ele><time>2026-05-03T10:18:26.999Z</time></trkpt><trkpt lat="54.37713363736297" lon="30.432332450634632"><ele>205.0</ele><time>2026-05-03T10:18:27.999Z</time></trkpt><trkpt lat="54.37706104349964" lon="30.432253317651874"><ele>205.66666666666666</ele><time>2026-05-03T10:18:28.999Z</time></trkpt><trkpt lat="54.37699021079575" lon="30.43216674604799"><ele>206.33333333333331</ele><time>2026-05-03T10:18:29.999Z</time></trkpt><trkpt lat="54.376922460540186" lon="30.432080087867575"><ele>207.0</ele><time>2026-05-03T10:18:30.999Z</time></trkpt><trkpt lat="54.37685202923571" lon="30.43198689599483"><ele>207.66666666666669</ele><time>2026-05-03T10:18:31.999Z</time></trkpt><trkpt lat="54.37677814563728" lon="30.431902883554255"><ele>208.33333333333334</ele><time>2026-05-03T10:18:32.999Z</time></trkpt><trkpt lat="54.37670469950878" lon="30.431822664148804"><ele>209.0</ele><time>2026-05-03T10:18:33.999Z</time></trkpt><trkpt lat="54.37664355135262" lon="30.43176897845168"><ele>209.00000000000003</ele><time>2026-05-03T10:18:34.999Z</time></trkpt><trkpt lat="54.37655581988858" lon="30.431653351226146"><ele>209.0</ele><time>2026-05-03T10:18:36.999Z</time></trkpt><trkpt lat="54.37650150653687" lon="30.431572513772615"><ele>209.0</ele><time>2026-05-03T10:18:38.999Z</time></trkpt><trkpt lat="54.37646698406588" lon="30.43147858876515"><ele>209.0</ele><time>2026-05-03T10:18:40.999Z</time></trkpt><trkpt lat="54.376468480856296" lon="30.43136767794748"><ele>209.00000000000003</ele><time>2026-05-03T10:18:42.999Z</time></trkpt><trkpt lat="54.376498448013244" lon="30.431174414958473"><ele>209.0</ele><time>2026-05-03T10:18:44.999Z</time></trkpt><trkpt lat="54.37651121904295" lon="30.43097986796128"><ele>209.39999999999998</ele><time>2026-05-03T10:18:46.999Z</time></trkpt><trkpt lat="54.376519282291206" lon="30.430798481510816"><ele>209.8</ele><time>2026-05-03T10:18:48.999Z</time></trkpt><trkpt lat="54.3765392931721" lon="30.430589943674434"><ele>210.2</ele><time>2026-05-03T10:18:50.999Z</time></trkpt><trkpt lat="54.37657107550454" lon="30.430408095783708"><ele>210.60000000000002</ele><time>2026-05-03T10:18:52.999Z</time></trkpt><trkpt lat="54.37658887403244" lon="30.43024860944914"><ele>211.0</ele><time>2026-05-03T10:18:54.999Z</time></trkpt><trkpt lat="54.37663993593151" lon="30.430056294484945"><ele>210.99999999999997</ele><time>2026-05-03T10:18:56.999Z</time></trkpt><trkpt lat="54.376658704297824" lon="30.42993560538932"><ele>211.0</ele><time>2026-05-03T10:18:57.999Z</time></trkpt><trkpt lat="54.37667980365687" lon="30.42976988693759"><ele>211.0</ele><time>2026-05-03T10:18:59.999Z</time></trkpt><trkpt lat="54.37668573304431" lon="30.429620102995255"><ele>211.0</ele><time>2026-05-03T10:19:01.999Z</time></trkpt><trkpt lat="54.37667089655095" lon="30.42949487268838"><ele>210.99999999999997</ele><time>2026-05-03T10:19:03.999Z</time></trkpt><trkpt lat="54.37664040022052" lon="30.429398555495748"><ele>211.0</ele><time>2026-05-03T10:19:05.999Z</time></trkpt><trkpt lat="54.37658455363863" lon="30.42928135104659"><ele>210.99999999999997</ele><time>2026-05-03T10:19:07.999Z</time></trkpt><trkpt lat="54.376526040978575" lon="30.429206388482978"><ele>211.0</ele><time>2026-05-03T10:19:09.999Z</time></trkpt><trkpt lat="54.37646435348673" lon="30.42918138875574"><ele>211.0</ele><time>2026-05-03T10:19:11.999Z</time></trkpt><trkpt lat="54.376405555570614" lon="30.429223732490758"><ele>211.0</ele><time>2026-05-03T10:19:13.999Z</time></trkpt><trkpt lat="54.37640840015338" lon="30.42936929952655"><ele>210.99999999999997</ele><time>2026-05-03T10:19:16.999Z</time></trkpt><trkpt lat="54.37648854374152" lon="30.42953413670249"><ele>211.0</ele><time>2026-05-03T10:19:18.998Z</time></trkpt><trkpt lat="54.376553792207304" lon="30.429704582376193"><ele>211.0</ele><time>2026-05-03T10:19:20.998Z</time></trkpt><trkpt lat="54.3766211664588" lon="30.429882357729994"><ele>211.0</ele><time>2026-05-03T10:19:22.998Z</time></trkpt><trkpt lat="54.37665284753211" lon="30.430030618698964"><ele>211.0</ele><time>2026-05-03T10:19:24.998Z</time></trkpt><trkpt lat="54.376632384391115" lon="30.43024706718166"><ele>211.0</ele><time>2026-05-03T10:19:26.998Z</time></trkpt><trkpt lat="54.37661099280463" lon="30.430358113105378"><ele>211.0</ele><time>2026-05-03T10:19:27.998Z</time></trkpt><trkpt lat="54.376580713298594" lon="30.430484459267987"><ele>210.99999999999997</ele><time>2026-05-03T10:19:28.998Z</time></trkpt><trkpt lat="54.37656521443772" lon="30.430600026577284"><ele>211.0</ele><time>2026-05-03T10:19:29.998Z</time></trkpt><trkpt lat="54.37653619719399" lon="30.430748034232263"><ele>211.0</ele><time>2026-05-03T10:19:30.998Z</time></trkpt><trkpt lat="54.376516188954696" lon="30.430899477664997"><ele>211.0</ele><time>2026-05-03T10:19:32Z</time></trkpt><trkpt lat="54.37651012606363" lon="30.431052709807304"><ele>210.99999999999997</ele><time>2026-05-03T10:19:33Z</time></trkpt><trkpt lat="54.3765120941487" lon="30.431214703632254"><ele>211.0</ele><time>2026-05-03T10:19:34Z</time></trkpt><trkpt lat="54.37648618299386" lon="30.431387414544353"><ele>210.60000000000002</ele><time>2026-05-03T10:19:36Z</time></trkpt><trkpt lat="54.37642752127643" lon="30.43144435584451"><ele>210.2</ele><time>2026-05-03T10:19:38Z</time></trkpt><trkpt lat="54.376338541028176" lon="30.43136021919831"><ele>209.8</ele><time>2026-05-03T10:19:41Z</time></trkpt><trkpt lat="54.37628440541463" lon="30.431228967112634"><ele>209.39999999999998</ele><time>2026-05-03T10:19:43Z</time></trkpt><trkpt lat="54.37623472702971" lon="30.431038595601247"><ele>209.0</ele><time>2026-05-03T10:19:45Z</time></trkpt><trkpt lat="54.376202673102966" lon="30.430892212555584"><ele>208.79999999999998</ele><time>2026-05-03T10:19:47Z</time></trkpt><trkpt lat="54.3761579148795" lon="30.43074192746464"><ele>208.6</ele><time>2026-05-03T10:19:49Z</time></trkpt><trkpt lat="54.37611947835892" lon="30.430578254843418"><ele>208.4</ele><time>2026-05-03T10:19:51Z</time></trkpt><trkpt lat="54.37608513130846" lon="30.430394908146503"><ele>208.2</ele><time>2026-05-03T10:19:53Z</time></trkpt><trkpt lat="54.376049082664196" lon="30.430237762007366"><ele>208.0</ele><time>2026-05-03T10:19:55Z</time></trkpt><trkpt lat="54.37601848397465" lon="30.430064201141175"><ele>207.99999999999997</ele><time>2026-05-03T10:19:57Z</time></trkpt><trkpt lat="54.375994792008456" lon="30.429934713885526"><ele>208.0</ele><time>2026-05-03T10:19:59Z</time></trkpt><trkpt lat="54.3759700475054" lon="30.42978291534697"><ele>208.0</ele><time>2026-05-03T10:20:02Z</time></trkpt><trkpt lat="54.37592011692534" lon="30.4296446218898"><ele>208.0</ele><time>2026-05-03T10:20:04.999Z</time></trkpt><trkpt lat="54.375880314175134" lon="30.429553266136626"><ele>207.99999999999997</ele><time>2026-05-03T10:20:06.999Z</time></trkpt><trkpt lat="54.37583762225873" lon="30.429459085629784"><ele>208.0</ele><time>2026-05-03T10:20:08.999Z</time></trkpt><trkpt lat="54.37578988041354" lon="30.429341109883907"><ele>208.33333333333331</ele><time>2026-05-03T10:20:11.999Z</time></trkpt><trkpt lat="54.37576748413371" lon="30.429214540341583"><ele>208.66666666666666</ele><time>2026-05-03T10:20:14.999Z</time></trkpt><trkpt lat="54.3757812659293" lon="30.42905646029019"><ele>209.0</ele><time>2026-05-03T10:20:16.999Z</time></trkpt><trkpt lat="54.37581411565564" lon="30.428929256111925"><ele>209.33333333333331</ele><time>2026-05-03T10:20:18.999Z</time></trkpt><trkpt lat="54.37587065293666" lon="30.42881476243012"><ele>209.66666666666666</ele><time>2026-05-03T10:20:20.999Z</time></trkpt><trkpt lat="54.375947239201" lon="30.42875172278538"><ele>210.0</ele><time>2026-05-03T10:20:22.999Z</time></trkpt><trkpt lat="54.37604013127091" lon="30.428697143148213"><ele>210.0</ele><time>2026-05-03T10:20:24.999Z</time></trkpt><trkpt lat="54.37611999471096" lon="30.428652161314602"><ele>210.0</ele><time>2026-05-03T10:20:26.999Z</time></trkpt><trkpt lat="54.37619144232558" lon="30.428591772739757"><ele>210.0</ele><time>2026-05-03T10:20:28.999Z</time></trkpt><trkpt lat="54.376251522091685" lon="30.428527942674645"><ele>210.0</ele><time>2026-05-03T10:20:29.999Z</time></trkpt><trkpt lat="54.37630743086173" lon="30.428454772378675"><ele>210.0</ele><time>2026-05-03T10:20:30.999Z</time></trkpt><trkpt lat="54.37636488986873" lon="30.428394188619265"><ele>210.0</ele><time>2026-05-03T10:20:32.999Z</time></trkpt><trkpt lat="54.376452497551945" lon="30.42832900120807"><ele>210.16666666666666</ele><time>2026-05-03T10:20:34.999Z</time></trkpt><trkpt lat="54.37655729456329" lon="30.428293590468584"><ele>210.33333333333331</ele><time>2026-05-03T10:20:36.999Z</time></trkpt><trkpt lat="54.37665566731642" lon="30.42831435002236"><ele>210.5</ele><time>2026-05-03T10:20:38.999Z</time></trkpt><trkpt lat="54.37671515066629" lon="30.428367061827156"><ele>210.66666666666666</ele><time>2026-05-03T10:20:40.999Z</time></trkpt><trkpt lat="54.376786754158886" lon="30.428418148013765"><ele>210.83333333333331</ele><time>2026-05-03T10:20:42.999Z</time></trkpt><trkpt lat="54.376861696001406" lon="30.42839642136966"><ele>211.0</ele><time>2026-05-03T10:20:45.999Z</time></trkpt><trkpt lat="54.376839247203" lon="30.428255174220293"><ele>211.0</ele><time>2026-05-03T10:20:48.999Z</time></trkpt><trkpt lat="54.376776078485605" lon="30.428234981530643"><ele>211.0</ele><time>2026-05-03T10:20:50.999Z</time></trkpt><trkpt lat="54.37664000703998" lon="30.428263270905404"><ele>211.0</ele><time>2026-05-03T10:20:52.999Z</time></trkpt><trkpt lat="54.37655466961724" lon="30.42829662936827"><ele>211.0</ele><time>2026-05-03T10:20:53.999Z</time></trkpt><trkpt lat="54.37649246792976" lon="30.428324556630933"><ele>211.0</ele><time>2026-05-03T10:20:54.999Z</time></trkpt><trkpt lat="54.3763995950483" lon="30.428370519098667"><ele>210.8</ele><time>2026-05-03T10:20:56.999Z</time></trkpt><trkpt lat="54.37630362685307" lon="30.428461563761438"><ele>210.60000000000002</ele><time>2026-05-03T10:20:58.999Z</time></trkpt><trkpt lat="54.37624723469623" lon="30.428512642222458"><ele>210.4</ele><time>2026-05-03T10:20:59.999Z</time></trkpt><trkpt lat="54.376159687868096" lon="30.428583091572097"><ele>210.2</ele><time>2026-05-03T10:21:01.999Z</time></trkpt><trkpt lat="54.37607944786402" lon="30.428655341867202"><ele>210.0</ele><time>2026-05-03T10:21:03.999Z</time></trkpt><trkpt lat="54.37599144861759" lon="30.428760007606662"><ele>210.16666666666666</ele><time>2026-05-03T10:21:05.999Z</time></trkpt><trkpt lat="54.37591043511647" lon="30.42888840716533"><ele>210.33333333333331</ele><time>2026-05-03T10:21:07.999Z</time></trkpt><trkpt lat="54.37582766547583" lon="30.4289605270048"><ele>210.5</ele><time>2026-05-03T10:21:09.999Z</time></trkpt><trkpt lat="54.375782405753874" lon="30.42904445421497"><ele>210.66666666666666</ele><time>2026-05-03T10:21:11.999Z</time></trkpt><trkpt lat="54.375790169092014" lon="30.42920144051434"><ele>210.83333333333331</ele><time>2026-05-03T10:21:13.999Z</time></trkpt><trkpt lat="54.37579824624149" lon="30.429313165239698"><ele>211.0</ele><time>2026-05-03T10:21:15.999Z</time></trkpt><trkpt lat="54.37581636971223" lon="30.429420939488352"><ele>210.99999999999997</ele><time>2026-05-03T10:21:17.999Z</time></trkpt><trkpt lat="54.37587358218644" lon="30.42954041678064"><ele>211.0</ele><time>2026-05-03T10:21:19.999Z</time></trkpt><trkpt lat="54.37592225755518" lon="30.429659668384588"><ele>211.0</ele><time>2026-05-03T10:21:21.999Z</time></trkpt><trkpt lat="54.3759725080242" lon="30.429748330022704"><ele>211.0</ele><time>2026-05-03T10:21:23.998Z</time></trkpt><trkpt lat="54.37600103777193" lon="30.429886497407878"><ele>210.99999999999997</ele><time>2026-05-03T10:21:25.998Z</time></trkpt><trkpt lat="54.37602663913992" lon="30.430043513220397"><ele>211.0</ele><time>2026-05-03T10:21:28.998Z</time></trkpt><trkpt lat="54.37604459423597" lon="30.430166206884717"><ele>210.49999999999997</ele><time>2026-05-03T10:21:30.998Z</time></trkpt><trkpt lat="54.376057797700405" lon="30.430282056479907"><ele>210.0</ele><time>2026-05-03T10:21:32.998Z</time></trkpt><trkpt lat="54.376076836745476" lon="30.430403786571922"><ele>209.5</ele><time>2026-05-03T10:21:34.998Z</time></trkpt><trkpt lat="54.376113704585" lon="30.430511715084172"><ele>209.0</ele><time>2026-05-03T10:21:36.998Z</time></trkpt><trkpt lat="54.37616990705514" lon="30.430713904627844"><ele>208.49999999999997</ele><time>2026-05-03T10:21:39Z</time></trkpt><trkpt lat="54.37620788490764" lon="30.43081882499957"><ele>208.0</ele><time>2026-05-03T10:21:40Z</time></trkpt><trkpt lat="54.376235350919295" lon="30.430936564171045"><ele>208.16666666666666</ele><time>2026-05-03T10:21:41Z</time></trkpt><trkpt lat="54.37626350468059" lon="30.431056481623514"><ele>208.33333333333331</ele><time>2026-05-03T10:21:42Z</time></trkpt><trkpt lat="54.376286058449494" lon="30.431169228140316"><ele>208.5</ele><time>2026-05-03T10:21:43Z</time></trkpt><trkpt lat="54.376367275434134" lon="30.43134163976073"><ele>208.66666666666669</ele><time>2026-05-03T10:21:45Z</time></trkpt><trkpt lat="54.37642737101695" lon="30.43144145828655"><ele>208.83333333333334</ele><time>2026-05-03T10:21:46Z</time></trkpt><trkpt lat="54.376478554991124" lon="30.43152584373773"><ele>209.0</ele><time>2026-05-03T10:21:47Z</time></trkpt><trkpt lat="54.37652873824171" lon="30.43159944770266"><ele>209.0</ele><time>2026-05-03T10:21:48Z</time></trkpt><trkpt lat="54.376582432366156" lon="30.431666247086092"><ele>209.0</ele><time>2026-05-03T10:21:49Z</time></trkpt><trkpt lat="54.376687868269485" lon="30.43179517018555"><ele>209.0</ele><time>2026-05-03T10:21:51Z</time></trkpt><trkpt lat="54.37674283884136" lon="30.43184883823864"><ele>209.0</ele><time>2026-05-03T10:21:52Z</time></trkpt><trkpt lat="54.37684393504918" lon="30.431953975216903"><ele>209.0</ele><time>2026-05-03T10:21:54Z</time></trkpt><trkpt lat="54.37693724089077" lon="30.43205011115069"><ele>209.0</ele><time>2026-05-03T10:21:56Z</time></trkpt><trkpt lat="54.37698929425108" lon="30.432113110251244"><ele>209.0</ele><time>2026-05-03T10:21:57Z</time></trkpt><trkpt lat="54.377047315603164" lon="30.43218168023997"><ele>209.0</ele><time>2026-05-03T10:21:58Z</time></trkpt><trkpt lat="54.377106996034826" lon="30.432241819343673"><ele>209.0</ele><time>2026-05-03T10:21:59Z</time></trkpt><trkpt lat="54.377167278782565" lon="30.432305588246223"><ele>209.0</ele><time>2026-05-03T10:22:00Z</time></trkpt><trkpt lat="54.377224223358034" lon="30.432359011791135"><ele>209.0</ele><time>2026-05-03T10:22:01Z</time></trkpt><trkpt lat="54.3772820341857" lon="30.432412305747068"><ele>209.0</ele><time>2026-05-03T10:22:02Z</time></trkpt><trkpt lat="54.37734071721278" lon="30.43247140525184"><ele>208.42857142857142</ele><time>2026-05-03T10:22:03Z</time></trkpt><trkpt lat="54.377397890542795" lon="30.432539441594432"><ele>207.85714285714283</ele><time>2026-05-03T10:22:04Z</time></trkpt><trkpt lat="54.37745961913325" lon="30.432600496919186"><ele>207.28571428571428</ele><time>2026-05-03T10:22:05Z</time></trkpt><trkpt lat="54.37752419999465" lon="30.432652850601436"><ele>206.71428571428572</ele><time>2026-05-03T10:22:06Z</time></trkpt><trkpt lat="54.3775956149939" lon="30.43270310209422"><ele>206.14285714285714</ele><time>2026-05-03T10:22:07Z</time></trkpt><trkpt lat="54.37765277083062" lon="30.432758767201783"><ele>205.57142857142858</ele><time>2026-05-03T10:22:08Z</time></trkpt><trkpt lat="54.37771033265719" lon="30.432808154316906"><ele>205.0</ele><time>2026-05-03T10:22:09Z</time></trkpt><trkpt lat="54.37782883771421" lon="30.43288824420486"><ele>204.99999999999997</ele><time>2026-05-03T10:22:11Z</time></trkpt><trkpt lat="54.37789422068837" lon="30.432928530669503"><ele>205.0</ele><time>2026-05-03T10:22:12Z</time></trkpt><trkpt lat="54.377955767835815" lon="30.432967247801574"><ele>205.0</ele><time>2026-05-03T10:22:13Z</time></trkpt><trkpt lat="54.378077260007814" lon="30.433043498588255"><ele>205.0</ele><time>2026-05-03T10:22:15Z</time></trkpt><trkpt lat="54.37813705513514" lon="30.4330866645157"><ele>204.99999999999997</ele><time>2026-05-03T10:22:16Z</time></trkpt><trkpt lat="54.37820011494716" lon="30.433122985903132"><ele>205.0</ele><time>2026-05-03T10:22:16.999Z</time></trkpt><trkpt lat="54.37827249160296" lon="30.43314868818095"><ele>204.66666666666666</ele><time>2026-05-03T10:22:17.999Z</time></trkpt><trkpt lat="54.37834655192418" lon="30.433181650336753"><ele>204.33333333333331</ele><time>2026-05-03T10:22:18.999Z</time></trkpt><trkpt lat="54.37842055439082" lon="30.43321853139832"><ele>204.0</ele><time>2026-05-03T10:22:19.999Z</time></trkpt><trkpt lat="54.37849225904696" lon="30.433268220694714"><ele>203.66666666666669</ele><time>2026-05-03T10:22:20.999Z</time></trkpt><trkpt lat="54.37857259805649" lon="30.433308364332277"><ele>203.33333333333334</ele><time>2026-05-03T10:22:21.999Z</time></trkpt><trkpt lat="54.37866320470633" lon="30.433344002031504"><ele>203.0</ele><time>2026-05-03T10:22:22.999Z</time></trkpt><trkpt lat="54.37875283253857" lon="30.4333787413507"><ele>203.0</ele><time>2026-05-03T10:22:23.999Z</time></trkpt><trkpt lat="54.37884167645967" lon="30.43340976455976"><ele>203.0</ele><time>2026-05-03T10:22:24.999Z</time></trkpt><trkpt lat="54.37892898271042" lon="30.433434328164072"><ele>203.0</ele><time>2026-05-03T10:22:25.999Z</time></trkpt><trkpt lat="54.379029251024015" lon="30.433448193422475"><ele>203.0</ele><time>2026-05-03T10:22:26.999Z</time></trkpt><trkpt lat="54.37913250881341" lon="30.433456219463928"><ele>203.0</ele><time>2026-05-03T10:22:27.999Z</time></trkpt><trkpt lat="54.37921764204404" lon="30.433462286121962"><ele>203.33333333333334</ele><time>2026-05-03T10:22:28.999Z</time></trkpt><trkpt lat="54.37930198068839" lon="30.43347158604923"><ele>203.66666666666669</ele><time>2026-05-03T10:22:29.999Z</time></trkpt><trkpt lat="54.379383069908954" lon="30.433478504809365"><ele>204.0</ele><time>2026-05-03T10:22:30.999Z</time></trkpt><trkpt lat="54.37944766299074" lon="30.433507633919856"><ele>204.33333333333331</ele><time>2026-05-03T10:22:31.999Z</time></trkpt><trkpt lat="54.37953376692188" lon="30.43346704572265"><ele>204.66666666666666</ele><time>2026-05-03T10:22:32.999Z</time></trkpt><trkpt lat="54.37963938260478" lon="30.433570380682823"><ele>205.0</ele><time>2026-05-03T10:22:34.999Z</time></trkpt><trkpt lat="54.379699641526436" lon="30.433658503478647"><ele>204.8</ele><time>2026-05-03T10:22:35.999Z</time></trkpt><trkpt lat="54.37977397819606" lon="30.433701838548316"><ele>204.6</ele><time>2026-05-03T10:22:36.999Z</time></trkpt><trkpt lat="54.379859989174825" lon="30.433785844456818"><ele>204.39999999999998</ele><time>2026-05-03T10:22:37.999Z</time></trkpt><trkpt lat="54.379932052227694" lon="30.433962569945383"><ele>204.2</ele><time>2026-05-03T10:22:38.999Z</time></trkpt><trkpt lat="54.37998778996097" lon="30.43407091394819"><ele>204.0</ele><time>2026-05-03T10:22:39.999Z</time></trkpt><trkpt lat="54.3800472808558" lon="30.43418264060117"><ele>204.0</ele><time>2026-05-03T10:22:40.999Z</time></trkpt><trkpt lat="54.380090446474576" lon="30.434263706343103"><ele>204.0</ele><time>2026-05-03T10:22:41.999Z</time></trkpt><trkpt lat="54.38014340489257" lon="30.434364820263635"><ele>204.0</ele><time>2026-05-03T10:22:42.999Z</time></trkpt><trkpt lat="54.38020070540576" lon="30.434473841503145"><ele>204.0</ele><time>2026-05-03T10:22:43.999Z</time></trkpt><trkpt lat="54.38026561372204" lon="30.434597245825408"><ele>204.0</ele><time>2026-05-03T10:22:44.999Z</time></trkpt><trkpt lat="54.38033016935221" lon="30.434720486910628"><ele>204.0</ele><time>2026-05-03T10:22:45.999Z</time></trkpt><trkpt lat="54.38038005857566" lon="30.4348297389741"><ele>203.6</ele><time>2026-05-03T10:22:46.999Z</time></trkpt><trkpt lat="54.38043227287413" lon="30.43494235503132"><ele>203.2</ele><time>2026-05-03T10:22:47.999Z</time></trkpt><trkpt lat="54.380484977222764" lon="30.43505612340996"><ele>202.79999999999998</ele><time>2026-05-03T10:22:48.999Z</time></trkpt><trkpt lat="54.380550304366565" lon="30.435171555728544"><ele>202.39999999999998</ele><time>2026-05-03T10:22:49.999Z</time></trkpt><trkpt lat="54.38061356156938" lon="30.435334173520058"><ele>202.0</ele><time>2026-05-03T10:22:50.999Z</time></trkpt><trkpt lat="54.38068976690749" lon="30.4354654839365"><ele>199.5</ele><time>2026-05-03T10:22:51.999Z</time></trkpt><trkpt lat="54.38098752783494" lon="30.435865511406423"><ele>197.0</ele><time>2026-05-03T10:22:52.999Z</time></trkpt><trkpt lat="54.38108831027674" lon="30.435925343049643"><ele>197.0</ele><time>2026-05-03T10:22:53.999Z</time></trkpt><trkpt lat="54.38118448794709" lon="30.435983503732768"><ele>197.0</ele><time>2026-05-03T10:22:54.999Z</time></trkpt><trkpt lat="54.381287931827316" lon="30.436045629810987"><ele>197.0</ele><time>2026-05-03T10:22:55.999Z</time></trkpt><trkpt lat="54.38138555001174" lon="30.436104114089236"><ele>197.0</ele><time>2026-05-03T10:22:56.999Z</time></trkpt><trkpt lat="54.38148493277291" lon="30.43616396618577"><ele>197.0</ele><time>2026-05-03T10:22:57.999Z</time></trkpt><trkpt lat="54.381571092383176" lon="30.4362196674197"><ele>197.39999999999998</ele><time>2026-05-03T10:22:59.999Z</time></trkpt><trkpt lat="54.38164468993259" lon="30.436296370918914"><ele>197.79999999999998</ele><time>2026-05-03T10:23:00.999Z</time></trkpt><trkpt lat="54.38171979572649" lon="30.436374716908727"><ele>198.2</ele><time>2026-05-03T10:23:01.999Z</time></trkpt><trkpt lat="54.3818561301495" lon="30.436518102908444"><ele>198.6</ele><time>2026-05-03T10:23:03.999Z</time></trkpt><trkpt lat="54.38191476273194" lon="30.436459695723908"><ele>199.0</ele><time>2026-05-03T10:23:04.999Z</time></trkpt><trkpt lat="54.3819758889101" lon="30.436597008175124"><ele>197.66666666666666</ele><time>2026-05-03T10:23:05.999Z</time></trkpt><trkpt lat="54.38203300577998" lon="30.43672531258921"><ele>196.33333333333331</ele><time>2026-05-03T10:23:06.999Z</time></trkpt><trkpt lat="54.382085771130654" lon="30.436843402034352"><ele>195.0</ele><time>2026-05-03T10:23:07.999Z</time></trkpt><trkpt lat="54.38212770847098" lon="30.43694774609003"><ele>193.66666666666666</ele><time>2026-05-03T10:23:08.999Z</time></trkpt><trkpt lat="54.38213419157941" lon="30.437094422033883"><ele>192.33333333333331</ele><time>2026-05-03T10:23:09.999Z</time></trkpt><trkpt lat="54.38212445915553" lon="30.437242324844846"><ele>191.0</ele><time>2026-05-03T10:23:10.999Z</time></trkpt><trkpt lat="54.382095778439634" lon="30.437386747919987"><ele>190.5</ele><time>2026-05-03T10:23:11.999Z</time></trkpt><trkpt lat="54.3820600526204" lon="30.437535382760203"><ele>190.0</ele><time>2026-05-03T10:23:12.999Z</time></trkpt><trkpt lat="54.38201262314394" lon="30.437653261744686"><ele>189.5</ele><time>2026-05-03T10:23:13.999Z</time></trkpt><trkpt lat="54.381968414671036" lon="30.437768972651"><ele>189.0</ele><time>2026-05-03T10:23:14.999Z</time></trkpt><trkpt lat="54.381914725514584" lon="30.437895624031807"><ele>188.5</ele><time>2026-05-03T10:23:15.999Z</time></trkpt><trkpt lat="54.3818919855461" lon="30.4380236116553"><ele>188.0</ele><time>2026-05-03T10:23:16.999Z</time></trkpt><trkpt lat="54.38185417900172" lon="30.438150395700685"><ele>188.0</ele><time>2026-05-03T10:23:17.999Z</time></trkpt><trkpt lat="54.38181541406175" lon="30.43827742259153"><ele>188.0</ele><time>2026-05-03T10:23:18.999Z</time></trkpt><trkpt lat="54.381800695866865" lon="30.438425036582508"><ele>188.0</ele><time>2026-05-03T10:23:19.999Z</time></trkpt><trkpt lat="54.38185077091468" lon="30.438544636922877"><ele>188.0</ele><time>2026-05-03T10:23:20.999Z</time></trkpt><trkpt lat="54.38188224737081" lon="30.43870762197776"><ele>188.0</ele><time>2026-05-03T10:23:21.999Z</time></trkpt><trkpt lat="54.38192488998362" lon="30.438857601488323"><ele>187.60000000000002</ele><time>2026-05-03T10:23:22.999Z</time></trkpt><trkpt lat="54.38197510750386" lon="30.439009064867168"><ele>187.20000000000002</ele><time>2026-05-03T10:23:23.999Z</time></trkpt><trkpt lat="54.38203075407352" lon="30.439174338060802"><ele>186.8</ele><time>2026-05-03T10:23:24.999Z</time></trkpt><trkpt lat="54.38208558467711" lon="30.4393386730325"><ele>186.4</ele><time>2026-05-03T10:23:25.999Z</time></trkpt><trkpt lat="54.38213710758349" lon="30.439493528084896"><ele>186.0</ele><time>2026-05-03T10:23:26.999Z</time></trkpt><trkpt lat="54.38218067245885" lon="30.439669456097327"><ele>185.20000000000002</ele><time>2026-05-03T10:23:27.999Z</time></trkpt><trkpt lat="54.382237805097326" lon="30.43983214155786"><ele>184.4</ele><time>2026-05-03T10:23:28.999Z</time></trkpt><trkpt lat="54.382292306010406" lon="30.439983268817038"><ele>183.6</ele><time>2026-05-03T10:23:29.999Z</time></trkpt><trkpt lat="54.38234639005283" lon="30.44012882605892"><ele>182.8</ele><time>2026-05-03T10:23:30.999Z</time></trkpt><trkpt lat="54.38239653525794" lon="30.44026871314965"><ele>182.0</ele><time>2026-05-03T10:23:31.999Z</time></trkpt><trkpt lat="54.382448647949154" lon="30.44042724889758"><ele>181.5</ele><time>2026-05-03T10:23:32.999Z</time></trkpt><trkpt lat="54.38249731930976" lon="30.440598996299265"><ele>181.0</ele><time>2026-05-03T10:23:33.999Z</time></trkpt><trkpt lat="54.38254402066419" lon="30.440768427990914"><ele>180.5</ele><time>2026-05-03T10:23:34.999Z</time></trkpt><trkpt lat="54.38259179294104" lon="30.440952685446696"><ele>180.0</ele><time>2026-05-03T10:23:35.999Z</time></trkpt><trkpt lat="54.38264100035723" lon="30.441143109882997"><ele>180.25</ele><time>2026-05-03T10:23:36.999Z</time></trkpt><trkpt lat="54.382688208879756" lon="30.441328102354625"><ele>180.5</ele><time>2026-05-03T10:23:37.999Z</time></trkpt><trkpt lat="54.38274009509569" lon="30.44152107991382"><ele>180.75</ele><time>2026-05-03T10:23:38.998Z</time></trkpt><trkpt lat="54.38279197446161" lon="30.4417135785681"><ele>181.0</ele><time>2026-05-03T10:23:39.998Z</time></trkpt><trkpt lat="54.38284434347602" lon="30.441916585235614"><ele>181.0</ele><time>2026-05-03T10:23:40.998Z</time></trkpt><trkpt lat="54.382893219253376" lon="30.442111934454747"><ele>181.0</ele><time>2026-05-03T10:23:41.998Z</time></trkpt><trkpt lat="54.38294238402962" lon="30.442311411909024"><ele>181.0</ele><time>2026-05-03T10:23:42.998Z</time></trkpt><trkpt lat="54.38298449604166" lon="30.442491554454023"><ele>181.0</ele><time>2026-05-03T10:23:44Z</time></trkpt><trkpt lat="54.383029911207885" lon="30.442641927997766"><ele>180.16666666666669</ele><time>2026-05-03T10:23:45Z</time></trkpt><trkpt lat="54.38307593194667" lon="30.44276947504139"><ele>179.33333333333334</ele><time>2026-05-03T10:23:46Z</time></trkpt><trkpt lat="54.38311099716199" lon="30.4428927115386"><ele>178.5</ele><time>2026-05-03T10:23:47Z</time></trkpt><trkpt lat="54.38313050666845" lon="30.443009609738336"><ele>177.66666666666666</ele><time>2026-05-03T10:23:48Z</time></trkpt><trkpt lat="54.38314829833418" lon="30.443116214311143"><ele>176.83333333333331</ele><time>2026-05-03T10:23:49Z</time></trkpt><trkpt lat="54.38318240584832" lon="30.44331736928598"><ele>176.0</ele><time>2026-05-03T10:23:51Z</time></trkpt><trkpt lat="54.383186325534" lon="30.443437464144708"><ele>176.0</ele><time>2026-05-03T10:23:52Z</time></trkpt><trkpt lat="54.38320111658968" lon="30.44359732507459"><ele>176.0</ele><time>2026-05-03T10:23:54Z</time></trkpt><trkpt lat="54.3829950912294" lon="30.443747821787408"><ele>176.0</ele><time>2026-05-03T10:23:57Z</time></trkpt><trkpt lat="54.382915571713276" lon="30.44376916194835"><ele>176.0</ele><time>2026-05-03T10:23:58Z</time></trkpt><trkpt lat="54.38280333135845" lon="30.443766489019755"><ele>177.75</ele><time>2026-05-03T10:23:59Z</time></trkpt><trkpt lat="54.382659601182255" lon="30.443754816715572"><ele>179.5</ele><time>2026-05-03T10:24:00Z</time></trkpt><trkpt lat="54.38254422486961" lon="30.4437538551066"><ele>181.25</ele><time>2026-05-03T10:24:01Z</time></trkpt><trkpt lat="54.382417431996174" lon="30.44375884561811"><ele>183.0</ele><time>2026-05-03T10:24:02Z</time></trkpt><trkpt lat="54.38224403845197" lon="30.443758316967592"><ele>185.0</ele><time>2026-05-03T10:24:03Z</time></trkpt><trkpt lat="54.382035383817836" lon="30.443763609154924"><ele>187.0</ele><time>2026-05-03T10:24:04Z</time></trkpt><trkpt lat="54.38180318664513" lon="30.443777442025645"><ele>189.0</ele><time>2026-05-03T10:24:05Z</time></trkpt><trkpt lat="54.38159234850701" lon="30.443794782054084"><ele>189.0</ele><time>2026-05-03T10:24:06Z</time></trkpt><trkpt lat="54.38136960861907" lon="30.443811236002094"><ele>189.0</ele><time>2026-05-03T10:24:07Z</time></trkpt><trkpt lat="54.3811320860297" lon="30.44382623838954"><ele>189.0</ele><time>2026-05-03T10:24:08Z</time></trkpt><trkpt lat="54.380886893149146" lon="30.443836864505784"><ele>189.0</ele><time>2026-05-03T10:24:09Z</time></trkpt><trkpt lat="54.380634897126136" lon="30.44384532679858"><ele>189.5</ele><time>2026-05-03T10:24:10Z</time></trkpt><trkpt lat="54.38039074118297" lon="30.443856163457706"><ele>190.0</ele><time>2026-05-03T10:24:11Z</time></trkpt><trkpt lat="54.38014669085537" lon="30.44386879583591"><ele>190.0</ele><time>2026-05-03T10:24:12Z</time></trkpt><trkpt lat="54.37989460397724" lon="30.443883273436356"><ele>190.0</ele><time>2026-05-03T10:24:13Z</time></trkpt><trkpt lat="54.379639544399595" lon="30.44389637843678"><ele>191.0</ele><time>2026-05-03T10:24:14Z</time></trkpt><trkpt lat="54.37938494113994" lon="30.443907172897255"><ele>192.0</ele><time>2026-05-03T10:24:15Z</time></trkpt><trkpt lat="54.37913823785057" lon="30.443912707941365"><ele>192.0</ele><time>2026-05-03T10:24:16Z</time></trkpt><trkpt lat="54.37892600220626" lon="30.4439178937604"><ele>192.0</ele><time>2026-05-03T10:24:17Z</time></trkpt><trkpt lat="54.37874022055965" lon="30.44392921069726"><ele>192.0</ele><time>2026-05-03T10:24:18Z</time></trkpt><trkpt lat="54.37856075731262" lon="30.443943851483656"><ele>192.33333333333331</ele><time>2026-05-03T10:24:19Z</time></trkpt><trkpt lat="54.378392429921206" lon="30.443953186898526"><ele>192.66666666666666</ele><time>2026-05-03T10:24:20Z</time></trkpt><trkpt lat="54.37823160247177" lon="30.443961955513366"><ele>193.0</ele><time>2026-05-03T10:24:21Z</time></trkpt><trkpt lat="54.37807536639431" lon="30.443969394712266"><ele>193.33333333333331</ele><time>2026-05-03T10:24:22Z</time></trkpt><trkpt lat="54.37792275120162" lon="30.44397724594353"><ele>193.66666666666669</ele><time>2026-05-03T10:24:23Z</time></trkpt><trkpt lat="54.37776260162007" lon="30.44398644891635"><ele>194.0</ele><time>2026-05-03T10:24:24Z</time></trkpt><trkpt lat="54.37759305670777" lon="30.443994724634177"><ele>194.0</ele><time>2026-05-03T10:24:25Z</time></trkpt><trkpt lat="54.37741787446382" lon="30.44400390979881"><ele>194.0</ele><time>2026-05-03T10:24:26Z</time></trkpt><trkpt lat="54.37723708915851" lon="30.444011247315622"><ele>194.0</ele><time>2026-05-03T10:24:27Z</time></trkpt><trkpt lat="54.377058212153244" lon="30.444019550506304"><ele>193.33333333333334</ele><time>2026-05-03T10:24:28Z</time></trkpt><trkpt lat="54.37687481195309" lon="30.444032364260046"><ele>192.66666666666669</ele><time>2026-05-03T10:24:29Z</time></trkpt><trkpt lat="54.37667643622627" lon="30.444043556712266"><ele>192.0</ele><time>2026-05-03T10:24:30Z</time></trkpt><trkpt lat="54.37647465414221" lon="30.44402972057815"><ele>192.33333333333331</ele><time>2026-05-03T10:24:31Z</time></trkpt><trkpt lat="54.37625865511463" lon="30.44404237652142"><ele>192.66666666666666</ele><time>2026-05-03T10:24:32Z</time></trkpt><trkpt lat="54.37603904159365" lon="30.444083623013654"><ele>193.0</ele><time>2026-05-03T10:24:33Z</time></trkpt><trkpt lat="54.37581909873136" lon="30.44406820531393"><ele>193.0</ele><time>2026-05-03T10:24:34Z</time></trkpt><trkpt lat="54.375586229472525" lon="30.444104971507922"><ele>193.0</ele><time>2026-05-03T10:24:35Z</time></trkpt><trkpt lat="54.37536363251671" lon="30.444115540101595"><ele>194.5</ele><time>2026-05-03T10:24:36Z</time></trkpt><trkpt lat="54.37514466307972" lon="30.44412181549835"><ele>196.0</ele><time>2026-05-03T10:24:37Z</time></trkpt><trkpt lat="54.37491422752953" lon="30.444138820906765"><ele>196.5</ele><time>2026-05-03T10:24:37.999Z</time></trkpt><trkpt lat="54.374680307833984" lon="30.44416135161601"><ele>197.0</ele><time>2026-05-03T10:24:38.999Z</time></trkpt><trkpt lat="54.374442974980234" lon="30.444172651998013"><ele>197.0</ele><time>2026-05-03T10:24:39.999Z</time></trkpt><trkpt lat="54.37420106707304" lon="30.444186268319655"><ele>197.0</ele><time>2026-05-03T10:24:40.999Z</time></trkpt><trkpt lat="54.37395384767662" lon="30.44420105796814"><ele>197.5</ele><time>2026-05-03T10:24:41.999Z</time></trkpt><trkpt lat="54.37370310684928" lon="30.444212917940742"><ele>198.0</ele><time>2026-05-03T10:24:42.999Z</time></trkpt><trkpt lat="54.37345041707853" lon="30.444230325090636"><ele>198.0</ele><time>2026-05-03T10:24:43.999Z</time></trkpt><trkpt lat="54.37319058902533" lon="30.444244374806342"><ele>198.0</ele><time>2026-05-03T10:24:44.999Z</time></trkpt><trkpt lat="54.37293401487126" lon="30.44425672856965"><ele>199.0</ele><time>2026-05-03T10:24:45.999Z</time></trkpt><trkpt lat="54.37267450405956" lon="30.4442677877543"><ele>200.0</ele><time>2026-05-03T10:24:46.999Z</time></trkpt><trkpt lat="54.37240507352506" lon="30.44428230734156"><ele>200.5</ele><time>2026-05-03T10:24:47.999Z</time></trkpt><trkpt lat="54.372140140401" lon="30.44429269234283"><ele>201.0</ele><time>2026-05-03T10:24:48.999Z</time></trkpt><trkpt lat="54.37186405958558" lon="30.444308912388085"><ele>201.0</ele><time>2026-05-03T10:24:49.999Z</time></trkpt><trkpt lat="54.37158988461968" lon="30.444324662670994"><ele>201.0</ele><time>2026-05-03T10:24:50.999Z</time></trkpt><trkpt lat="54.371312380277566" lon="30.4443419242682"><ele>200.5</ele><time>2026-05-03T10:24:51.999Z</time></trkpt><trkpt lat="54.37103810979479" lon="30.444357637025877"><ele>200.0</ele><time>2026-05-03T10:24:52.999Z</time></trkpt><trkpt lat="54.37075498873172" lon="30.444382065999253"><ele>200.0</ele><time>2026-05-03T10:24:53.999Z</time></trkpt><trkpt lat="54.370471215217215" lon="30.44439640227375"><ele>200.0</ele><time>2026-05-03T10:24:54.999Z</time></trkpt><trkpt lat="54.37018679196951" lon="30.44441378595732"><ele>200.0</ele><time>2026-05-03T10:24:55.999Z</time></trkpt><trkpt lat="54.369896560562076" lon="30.444400796556618"><ele>200.0</ele><time>2026-05-03T10:24:56.999Z</time></trkpt><trkpt lat="54.369609829362986" lon="30.444414404935152"><ele>200.0</ele><time>2026-05-03T10:24:57.999Z</time></trkpt><trkpt lat="54.36932454374326" lon="30.444427796193718"><ele>200.0</ele><time>2026-05-03T10:24:58.999Z</time></trkpt><trkpt lat="54.369033246867055" lon="30.44444146962964"><ele>201.0</ele><time>2026-05-03T10:24:59.999Z</time></trkpt><trkpt lat="54.36873814816447" lon="30.44445564352869"><ele>202.0</ele><time>2026-05-03T10:25:00.999Z</time></trkpt><trkpt lat="54.368446834993506" lon="30.444468940307694"><ele>202.0</ele><time>2026-05-03T10:25:01.999Z</time></trkpt><trkpt lat="54.36815609853049" lon="30.44448243254352"><ele>202.0</ele><time>2026-05-03T10:25:02.999Z</time></trkpt><trkpt lat="54.367861124836885" lon="30.444496820123078"><ele>203.5</ele><time>2026-05-03T10:25:03.999Z</time></trkpt><trkpt lat="54.36756346863721" lon="30.4445127490101"><ele>205.0</ele><time>2026-05-03T10:25:04.999Z</time></trkpt><trkpt lat="54.367268804169676" lon="30.444527875475238"><ele>206.0</ele><time>2026-05-03T10:25:05.999Z</time></trkpt><trkpt lat="54.366972340606225" lon="30.44454322732798"><ele>207.0</ele><time>2026-05-03T10:25:06.999Z</time></trkpt><trkpt lat="54.36667407432452" lon="30.444559191715825"><ele>207.0</ele><time>2026-05-03T10:25:07.999Z</time></trkpt><trkpt lat="54.36638467170005" lon="30.444574191587392"><ele>207.0</ele><time>2026-05-03T10:25:08.999Z</time></trkpt><trkpt lat="54.36610690900979" lon="30.444588902077367"><ele>207.0</ele><time>2026-05-03T10:25:09.999Z</time></trkpt><trkpt lat="54.365842973742346" lon="30.444603065988883"><ele>207.0</ele><time>2026-05-03T10:25:10.999Z</time></trkpt><trkpt lat="54.365590547662855" lon="30.444616576420135"><ele>208.5</ele><time>2026-05-03T10:25:11.999Z</time></trkpt><trkpt lat="54.3653300176652" lon="30.444630514230834"><ele>210.0</ele><time>2026-05-03T10:25:12.999Z</time></trkpt><trkpt lat="54.365063507522535" lon="30.44464477197709"><ele>210.0</ele><time>2026-05-03T10:25:13.999Z</time></trkpt><trkpt lat="54.36478577006342" lon="30.44465978539076"><ele>210.0</ele><time>2026-05-03T10:25:14.999Z</time></trkpt><trkpt lat="54.36449729332094" lon="30.444675141630206"><ele>210.5</ele><time>2026-05-03T10:25:15.999Z</time></trkpt><trkpt lat="54.36420507338833" lon="30.4446903158591"><ele>211.0</ele><time>2026-05-03T10:25:16.999Z</time></trkpt><trkpt lat="54.36391041969968" lon="30.44470597548173"><ele>212.0</ele><time>2026-05-03T10:25:17.999Z</time></trkpt><trkpt lat="54.36361576138251" lon="30.444721583682497"><ele>213.0</ele><time>2026-05-03T10:25:18.999Z</time></trkpt><trkpt lat="54.36331621062983" lon="30.44473763711475"><ele>213.0</ele><time>2026-05-03T10:25:19.999Z</time></trkpt><trkpt lat="54.36301089594625" lon="30.444754287698643"><ele>213.0</ele><time>2026-05-03T10:25:20.999Z</time></trkpt><trkpt lat="54.36270144879907" lon="30.44477078614164"><ele>213.0</ele><time>2026-05-03T10:25:21.999Z</time></trkpt><trkpt lat="54.36239568289385" lon="30.444786770260883"><ele>213.0</ele><time>2026-05-03T10:25:22.999Z</time></trkpt><trkpt lat="54.36209030802134" lon="30.444802755229524"><ele>214.0</ele><time>2026-05-03T10:25:23.999Z</time></trkpt><trkpt lat="54.36179168900701" lon="30.44481905872274"><ele>215.0</ele><time>2026-05-03T10:25:24.999Z</time></trkpt><trkpt lat="54.36148855031392" lon="30.44483477673365"><ele>216.5</ele><time>2026-05-03T10:25:25.999Z</time></trkpt><trkpt lat="54.36118412214844" lon="30.444851685225593"><ele>218.0</ele><time>2026-05-03T10:25:26.999Z</time></trkpt><trkpt lat="54.36087900227178" lon="30.44486779302143"><ele>218.0</ele><time>2026-05-03T10:25:27.999Z</time></trkpt><trkpt lat="54.36057080443096" lon="30.444884275114514"><ele>218.0</ele><time>2026-05-03T10:25:28.999Z</time></trkpt><trkpt lat="54.3602606975399" lon="30.444899817039246"><ele>218.0</ele><time>2026-05-03T10:25:29.999Z</time></trkpt><trkpt lat="54.35995007530492" lon="30.444916576493963"><ele>218.0</ele><time>2026-05-03T10:25:30.999Z</time></trkpt><trkpt lat="54.359639124010116" lon="30.444933353675246"><ele>218.0</ele><time>2026-05-03T10:25:31.999Z</time></trkpt><trkpt lat="54.35932954138112" lon="30.444950057046498"><ele>218.0</ele><time>2026-05-03T10:25:32.999Z</time></trkpt><trkpt lat="54.35901621767767" lon="30.44496696562307"><ele>218.0</ele><time>2026-05-03T10:25:33.999Z</time></trkpt><trkpt lat="54.35870032315326" lon="30.444983877362947"><ele>218.0</ele><time>2026-05-03T10:25:34.999Z</time></trkpt><trkpt lat="54.35838842636275" lon="30.445000402931036"><ele>218.0</ele><time>2026-05-03T10:25:35.999Z</time></trkpt><trkpt lat="54.35807939519238" lon="30.44501677667586"><ele>218.0</ele><time>2026-05-03T10:25:36.999Z</time></trkpt><trkpt lat="54.35777795640305" lon="30.44503274811689"><ele>218.0</ele><time>2026-05-03T10:25:37.999Z</time></trkpt><trkpt lat="54.35748089888586" lon="30.44504851280237"><ele>218.0</ele><time>2026-05-03T10:25:38.999Z</time></trkpt><trkpt lat="54.3571723364754" lon="30.445064902616163"><ele>217.5</ele><time>2026-05-03T10:25:39.999Z</time></trkpt><trkpt lat="54.35687416127745" lon="30.44508074066506"><ele>217.0</ele><time>2026-05-03T10:25:40.999Z</time></trkpt><trkpt lat="54.356573325943295" lon="30.445096913187623"><ele>216.5</ele><time>2026-05-03T10:25:41.999Z</time></trkpt><trkpt lat="54.35627425722824" lon="30.445112304667987"><ele>216.0</ele><time>2026-05-03T10:25:42.999Z</time></trkpt><trkpt lat="54.35596905155221" lon="30.44512924204179"><ele>216.0</ele><time>2026-05-03T10:25:43.999Z</time></trkpt><trkpt lat="54.355661625434735" lon="30.445145491025187"><ele>216.0</ele><time>2026-05-03T10:25:44.999Z</time></trkpt><trkpt lat="54.355354987295904" lon="30.44516105739145"><ele>215.5</ele><time>2026-05-03T10:25:45.999Z</time></trkpt><trkpt lat="54.3550536336427" lon="30.445176687716312"><ele>215.0</ele><time>2026-05-03T10:25:46.999Z</time></trkpt><trkpt lat="54.3547477196115" lon="30.445192915851923"><ele>216.0</ele><time>2026-05-03T10:25:47.999Z</time></trkpt><trkpt lat="54.35443696063307" lon="30.44520948320244"><ele>217.0</ele><time>2026-05-03T10:25:48.999Z</time></trkpt><trkpt lat="54.35412981952394" lon="30.44522636797226"><ele>217.5</ele><time>2026-05-03T10:25:50Z</time></trkpt><trkpt lat="54.35382154076879" lon="30.44524296067966"><ele>218.0</ele><time>2026-05-03T10:25:51Z</time></trkpt><trkpt lat="54.35351264321117" lon="30.445258989049726"><ele>218.0</ele><time>2026-05-03T10:25:52Z</time></trkpt><trkpt lat="54.353200875345344" lon="30.445275469400666"><ele>218.0</ele><time>2026-05-03T10:25:53Z</time></trkpt><trkpt lat="54.35288625841812" lon="30.445292105185608"><ele>217.5</ele><time>2026-05-03T10:25:54Z</time></trkpt><trkpt lat="54.35257061771113" lon="30.445309295479444"><ele>217.0</ele><time>2026-05-03T10:25:55Z</time></trkpt><trkpt lat="54.35229952713184" lon="30.445323746652345"><ele>217.0</ele><time>2026-05-03T10:25:56Z</time></trkpt><trkpt lat="54.35207719220642" lon="30.44533523837392"><ele>217.0</ele><time>2026-05-03T10:25:57Z</time></trkpt><trkpt lat="54.35188955048912" lon="30.44534543930735"><ele>217.0</ele><time>2026-05-03T10:25:58Z</time></trkpt><trkpt lat="54.351690757227644" lon="30.44535659312881"><ele>217.0</ele><time>2026-05-03T10:25:59Z</time></trkpt><trkpt lat="54.351495696998605" lon="30.445366962677504"><ele>217.0</ele><time>2026-05-03T10:26:00Z</time></trkpt><trkpt lat="54.351297164218124" lon="30.445376851841687"><ele>217.0</ele><time>2026-05-03T10:26:01Z</time></trkpt><trkpt lat="54.35109888517493" lon="30.445387444957618"><ele>217.33333333333331</ele><time>2026-05-03T10:26:02Z</time></trkpt><trkpt lat="54.35090208298887" lon="30.445398136174667"><ele>217.66666666666669</ele><time>2026-05-03T10:26:03Z</time></trkpt><trkpt lat="54.350713810932426" lon="30.44540830011803"><ele>218.0</ele><time>2026-05-03T10:26:04Z</time></trkpt><trkpt lat="54.350533355950915" lon="30.445417852851957"><ele>218.0</ele><time>2026-05-03T10:26:05Z</time></trkpt><trkpt lat="54.35034980718268" lon="30.44542756938917"><ele>218.0</ele><time>2026-05-03T10:26:06Z</time></trkpt><trkpt lat="54.35016451125347" lon="30.445437431764272"><ele>218.0</ele><time>2026-05-03T10:26:07Z</time></trkpt><trkpt lat="54.349970029311955" lon="30.445447790437843"><ele>218.0</ele><time>2026-05-03T10:26:08Z</time></trkpt><trkpt lat="54.34975172989529" lon="30.44545941833732"><ele>218.0</ele><time>2026-05-03T10:26:09Z</time></trkpt><trkpt lat="54.34952164858967" lon="30.445471673809042"><ele>218.0</ele><time>2026-05-03T10:26:10Z</time></trkpt><trkpt lat="54.349279901786815" lon="30.445547154073946"><ele>217.5</ele><time>2026-05-03T10:26:11Z</time></trkpt><trkpt lat="54.34902263554801" lon="30.445561264153838"><ele>217.0</ele><time>2026-05-03T10:26:12Z</time></trkpt><trkpt lat="54.3487525974828" lon="30.445577160754095"><ele>217.0</ele><time>2026-05-03T10:26:13Z</time></trkpt><trkpt lat="54.348469990565086" lon="30.445596770151482"><ele>217.0</ele><time>2026-05-03T10:26:14Z</time></trkpt><trkpt lat="54.34818222369405" lon="30.44561699518128"><ele>217.5</ele><time>2026-05-03T10:26:15Z</time></trkpt><trkpt lat="54.347883857071245" lon="30.445630750184336"><ele>218.0</ele><time>2026-05-03T10:26:16Z</time></trkpt><trkpt lat="54.347588872633736" lon="30.445647076942024"><ele>218.0</ele><time>2026-05-03T10:26:17Z</time></trkpt><trkpt lat="54.34729021304931" lon="30.445668674717872"><ele>218.0</ele><time>2026-05-03T10:26:18Z</time></trkpt><trkpt lat="54.34698732872937" lon="30.445686710118313"><ele>218.5</ele><time>2026-05-03T10:26:19Z</time></trkpt><trkpt lat="54.3466869316" lon="30.445706810603184"><ele>219.0</ele><time>2026-05-03T10:26:20Z</time></trkpt><trkpt lat="54.34637696548114" lon="30.445724107918494"><ele>219.5</ele><time>2026-05-03T10:26:21Z</time></trkpt><trkpt lat="54.34606865154102" lon="30.44574083497858"><ele>220.0</ele><time>2026-05-03T10:26:22Z</time></trkpt><trkpt lat="54.34575671289035" lon="30.44575640001148"><ele>219.5</ele><time>2026-05-03T10:26:23Z</time></trkpt><trkpt lat="54.34544882716736" lon="30.44576968070185"><ele>219.0</ele><time>2026-05-03T10:26:24Z</time></trkpt><trkpt lat="54.3451335917315" lon="30.445783523174782"><ele>219.0</ele><time>2026-05-03T10:26:25Z</time></trkpt><trkpt lat="54.344815005543516" lon="30.445803666425956"><ele>219.0</ele><time>2026-05-03T10:26:26Z</time></trkpt><trkpt lat="54.34450902341634" lon="30.445822581894497"><ele>218.5</ele><time>2026-05-03T10:26:27Z</time></trkpt><trkpt lat="54.344206327858195" lon="30.44584336005196"><ele>218.0</ele><time>2026-05-03T10:26:28Z</time></trkpt><trkpt lat="54.343896184211246" lon="30.445860255656147"><ele>217.5</ele><time>2026-05-03T10:26:29Z</time></trkpt><trkpt lat="54.34359027504161" lon="30.445874731731042"><ele>217.0</ele><time>2026-05-03T10:26:30Z</time></trkpt><trkpt lat="54.34328463456789" lon="30.445890554552"><ele>217.0</ele><time>2026-05-03T10:26:31Z</time></trkpt><trkpt lat="54.34298027744196" lon="30.445903612505816"><ele>217.0</ele><time>2026-05-03T10:26:32Z</time></trkpt><trkpt lat="54.342676758506634" lon="30.445923971171077"><ele>217.0</ele><time>2026-05-03T10:26:33Z</time></trkpt><trkpt lat="54.342368913139666" lon="30.445942252046745"><ele>217.0</ele><time>2026-05-03T10:26:34Z</time></trkpt><trkpt lat="54.34206103751213" lon="30.445958062622328"><ele>217.5</ele><time>2026-05-03T10:26:35Z</time></trkpt><trkpt lat="54.341757074900414" lon="30.44597274914375"><ele>218.0</ele><time>2026-05-03T10:26:36Z</time></trkpt><trkpt lat="54.34145340440937" lon="30.445986854599003"><ele>218.5</ele><time>2026-05-03T10:26:37Z</time></trkpt><trkpt lat="54.34115101573882" lon="30.446000300146533"><ele>219.0</ele><time>2026-05-03T10:26:38Z</time></trkpt><trkpt lat="54.34084980151748" lon="30.446017071850967"><ele>218.5</ele><time>2026-05-03T10:26:39Z</time></trkpt><trkpt lat="54.34054575502495" lon="30.446033355739974"><ele>218.0</ele><time>2026-05-03T10:26:40Z</time></trkpt><trkpt lat="54.340247326990685" lon="30.44605268896859"><ele>218.0</ele><time>2026-05-03T10:26:41Z</time></trkpt><trkpt lat="54.33994478940636" lon="30.446071502096476"><ele>218.0</ele><time>2026-05-03T10:26:42Z</time></trkpt><trkpt lat="54.33964529067441" lon="30.446084614981697"><ele>218.5</ele><time>2026-05-03T10:26:43Z</time></trkpt><trkpt lat="54.339346409910604" lon="30.446097990639093"><ele>219.0</ele><time>2026-05-03T10:26:44Z</time></trkpt><trkpt lat="54.339063500006674" lon="30.446112059223253"><ele>218.5</ele><time>2026-05-03T10:26:45Z</time></trkpt><trkpt lat="54.33880523274346" lon="30.4461302468801"><ele>218.0</ele><time>2026-05-03T10:26:46Z</time></trkpt><trkpt lat="54.338569756431724" lon="30.44614381228901"><ele>218.0</ele><time>2026-05-03T10:26:47Z</time></trkpt><trkpt lat="54.338345715969204" lon="30.446154940342854"><ele>218.0</ele><time>2026-05-03T10:26:48Z</time></trkpt><trkpt lat="54.33813455348873" lon="30.446163691655215"><ele>218.0</ele><time>2026-05-03T10:26:49Z</time></trkpt><trkpt lat="54.337917745739084" lon="30.446177792290438"><ele>218.66666666666669</ele><time>2026-05-03T10:26:50Z</time></trkpt><trkpt lat="54.337709678565304" lon="30.446191748986013"><ele>219.33333333333331</ele><time>2026-05-03T10:26:51Z</time></trkpt><trkpt lat="54.33750992429643" lon="30.446207275619297"><ele>220.0</ele><time>2026-05-03T10:26:51.999Z</time></trkpt><trkpt lat="54.337333351262544" lon="30.4462143214178"><ele>219.33333333333331</ele><time>2026-05-03T10:26:52.999Z</time></trkpt><trkpt lat="54.33715735455392" lon="30.446223453434428"><ele>218.66666666666669</ele><time>2026-05-03T10:26:53.999Z</time></trkpt><trkpt lat="54.33698045326022" lon="30.446232494876455"><ele>218.0</ele><time>2026-05-03T10:26:54.999Z</time></trkpt><trkpt lat="54.33680501268399" lon="30.44624305343569"><ele>218.0</ele><time>2026-05-03T10:26:55.999Z</time></trkpt><trkpt lat="54.33663749394574" lon="30.446253372919998"><ele>218.0</ele><time>2026-05-03T10:26:56.999Z</time></trkpt><trkpt lat="54.33646495011782" lon="30.446263276455603"><ele>218.0</ele><time>2026-05-03T10:26:57.999Z</time></trkpt><trkpt lat="54.33627552465009" lon="30.446272643925305"><ele>217.33333333333334</ele><time>2026-05-03T10:26:58.999Z</time></trkpt><trkpt lat="54.33608103425965" lon="30.446283410676106"><ele>216.66666666666669</ele><time>2026-05-03T10:26:59.999Z</time></trkpt><trkpt lat="54.335893699664645" lon="30.446294564148385"><ele>216.0</ele><time>2026-05-03T10:27:00.999Z</time></trkpt><trkpt lat="54.335693365552814" lon="30.446301835478764"><ele>215.66666666666669</ele><time>2026-05-03T10:27:01.999Z</time></trkpt><trkpt lat="54.33549342831845" lon="30.446239015487556"><ele>215.33333333333334</ele><time>2026-05-03T10:27:02.999Z</time></trkpt><trkpt lat="54.335287227336025" lon="30.446250269410353"><ele>215.0</ele><time>2026-05-03T10:27:03.999Z</time></trkpt><trkpt lat="54.33506599360601" lon="30.446262340864642"><ele>215.0</ele><time>2026-05-03T10:27:04.999Z</time></trkpt><trkpt lat="54.33485168251321" lon="30.446274550101666"><ele>215.0</ele><time>2026-05-03T10:27:05.999Z</time></trkpt><trkpt lat="54.33462792771518" lon="30.44628729734453"><ele>215.0</ele><time>2026-05-03T10:27:06.999Z</time></trkpt><trkpt lat="54.334397194893334" lon="30.446297281204366"><ele>215.0</ele><time>2026-05-03T10:27:07.999Z</time></trkpt><trkpt lat="54.33415910528384" lon="30.446377396378672"><ele>215.0</ele><time>2026-05-03T10:27:08.999Z</time></trkpt><trkpt lat="54.333918563599816" lon="30.44639285913931"><ele>215.5</ele><time>2026-05-03T10:27:09.999Z</time></trkpt><trkpt lat="54.33367952071189" lon="30.446409409666867"><ele>216.0</ele><time>2026-05-03T10:27:10.999Z</time></trkpt><trkpt lat="54.333435285881706" lon="30.446419740077552"><ele>216.0</ele><time>2026-05-03T10:27:11.999Z</time></trkpt><trkpt lat="54.333186679702244" lon="30.44643604544609"><ele>216.0</ele><time>2026-05-03T10:27:12.999Z</time></trkpt><trkpt lat="54.3329310630154" lon="30.446448063108047"><ele>215.5</ele><time>2026-05-03T10:27:13.999Z</time></trkpt><trkpt lat="54.33267750848564" lon="30.446458358907414"><ele>215.0</ele><time>2026-05-03T10:27:14.999Z</time></trkpt><trkpt lat="54.332420667704554" lon="30.446469037941025"><ele>214.0</ele><time>2026-05-03T10:27:15.999Z</time></trkpt><trkpt lat="54.3321603191445" lon="30.446484666269665"><ele>213.0</ele><time>2026-05-03T10:27:16.999Z</time></trkpt><trkpt lat="54.331903525595614" lon="30.446496487523273"><ele>213.0</ele><time>2026-05-03T10:27:17.999Z</time></trkpt><trkpt lat="54.33165165993013" lon="30.446513824778155"><ele>213.0</ele><time>2026-05-03T10:27:18.999Z</time></trkpt><trkpt lat="54.331388306015924" lon="30.44652933336237"><ele>212.5</ele><time>2026-05-03T10:27:19.999Z</time></trkpt><trkpt lat="54.33112657527668" lon="30.44646577802827"><ele>212.0</ele><time>2026-05-03T10:27:20.999Z</time></trkpt><trkpt lat="54.33085958209273" lon="30.44655558858693"><ele>212.0</ele><time>2026-05-03T10:27:21.999Z</time></trkpt><trkpt lat="54.330597373953744" lon="30.446565573230817"><ele>212.0</ele><time>2026-05-03T10:27:22.999Z</time></trkpt><trkpt lat="54.33032571219895" lon="30.44657561524821"><ele>211.5</ele><time>2026-05-03T10:27:23.999Z</time></trkpt><trkpt lat="54.3300626779471" lon="30.446591359912013"><ele>211.0</ele><time>2026-05-03T10:27:24.999Z</time></trkpt><trkpt lat="54.32979190762924" lon="30.446534773932154"><ele>210.5</ele><time>2026-05-03T10:27:25.999Z</time></trkpt><trkpt lat="54.329531464765545" lon="30.446548279950694"><ele>210.0</ele><time>2026-05-03T10:27:26.999Z</time></trkpt><trkpt lat="54.32926677182535" lon="30.446561539822742"><ele>210.0</ele><time>2026-05-03T10:27:27.999Z</time></trkpt><trkpt lat="54.32900183073535" lon="30.4465748937081"><ele>210.0</ele><time>2026-05-03T10:27:28.999Z</time></trkpt><trkpt lat="54.32873413838633" lon="30.446589338829586"><ele>209.0</ele><time>2026-05-03T10:27:29.999Z</time></trkpt><trkpt lat="54.32846023248189" lon="30.446604913112647"><ele>208.0</ele><time>2026-05-03T10:27:30.999Z</time></trkpt><trkpt lat="54.328186166546786" lon="30.446619693647605"><ele>209.0</ele><time>2026-05-03T10:27:31.999Z</time></trkpt><trkpt lat="54.327913281325294" lon="30.446635498088153"><ele>210.0</ele><time>2026-05-03T10:27:32.999Z</time></trkpt><trkpt lat="54.32763397002005" lon="30.446651180825185"><ele>210.0</ele><time>2026-05-03T10:27:33.999Z</time></trkpt><trkpt lat="54.32735561619963" lon="30.446666658529654"><ele>210.0</ele><time>2026-05-03T10:27:34.999Z</time></trkpt><trkpt lat="54.32707755708301" lon="30.446682288759256"><ele>210.0</ele><time>2026-05-03T10:27:35.999Z</time></trkpt><trkpt lat="54.326796265676364" lon="30.446698269058757"><ele>210.0</ele><time>2026-05-03T10:27:36.999Z</time></trkpt><trkpt lat="54.326521216904695" lon="30.446713044230606"><ele>210.0</ele><time>2026-05-03T10:27:37.999Z</time></trkpt><trkpt lat="54.3262401104035" lon="30.44672903332504"><ele>210.0</ele><time>2026-05-03T10:27:38.999Z</time></trkpt><trkpt lat="54.325960130787024" lon="30.44674495831502"><ele>210.0</ele><time>2026-05-03T10:27:39.999Z</time></trkpt><trkpt lat="54.32567871781309" lon="30.446761038453708"><ele>210.0</ele><time>2026-05-03T10:27:40.999Z</time></trkpt><trkpt lat="54.32540016666568" lon="30.44677658670971"><ele>209.5</ele><time>2026-05-03T10:27:41.999Z</time></trkpt><trkpt lat="54.325118327567054" lon="30.446792459682573"><ele>209.0</ele><time>2026-05-03T10:27:42.999Z</time></trkpt><trkpt lat="54.32483469253373" lon="30.44680860085499"><ele>208.0</ele><time>2026-05-03T10:27:43.999Z</time></trkpt><trkpt lat="54.32455117002359" lon="30.446823859169914"><ele>207.0</ele><time>2026-05-03T10:27:44.999Z</time></trkpt><trkpt lat="54.32426676968256" lon="30.446839727808037"><ele>207.0</ele><time>2026-05-03T10:27:45.999Z</time></trkpt><trkpt lat="54.3239790931408" lon="30.446855966764733"><ele>207.0</ele><time>2026-05-03T10:27:46.999Z</time></trkpt><trkpt lat="54.32369077102473" lon="30.44687251879535"><ele>207.0</ele><time>2026-05-03T10:27:47.999Z</time></trkpt><trkpt lat="54.3233980356831" lon="30.44688882051565"><ele>207.0</ele><time>2026-05-03T10:27:48.999Z</time></trkpt><trkpt lat="54.323103862778396" lon="30.44690529262313"><ele>206.5</ele><time>2026-05-03T10:27:49.999Z</time></trkpt><trkpt lat="54.3228127874878" lon="30.44692123076712"><ele>206.0</ele><time>2026-05-03T10:27:50.999Z</time></trkpt><trkpt lat="54.32251852385784" lon="30.446937339024483"><ele>207.0</ele><time>2026-05-03T10:27:51.999Z</time></trkpt><trkpt lat="54.32222554894316" lon="30.446957001639493"><ele>208.0</ele><time>2026-05-03T10:27:52.999Z</time></trkpt><trkpt lat="54.32193358579614" lon="30.447043249084796"><ele>208.0</ele><time>2026-05-03T10:27:53.999Z</time></trkpt><trkpt lat="54.321638284472215" lon="30.4470564772656"><ele>208.0</ele><time>2026-05-03T10:27:54.999Z</time></trkpt><trkpt lat="54.32134837205875" lon="30.447072740818015"><ele>208.0</ele><time>2026-05-03T10:27:56Z</time></trkpt><trkpt lat="54.321050942559765" lon="30.447084409060594"><ele>208.0</ele><time>2026-05-03T10:27:57Z</time></trkpt><trkpt lat="54.32076049836538" lon="30.447103633074452"><ele>207.5</ele><time>2026-05-03T10:27:58Z</time></trkpt><trkpt lat="54.32046423124204" lon="30.447117438239516"><ele>207.0</ele><time>2026-05-03T10:27:59Z</time></trkpt><trkpt lat="54.3201683308151" lon="30.447131320147452"><ele>207.0</ele><time>2026-05-03T10:28:00Z</time></trkpt><trkpt lat="54.319874228257284" lon="30.447149287028605"><ele>207.0</ele><time>2026-05-03T10:28:01Z</time></trkpt><trkpt lat="54.31958204188806" lon="30.44716945571067"><ele>205.5</ele><time>2026-05-03T10:28:02Z</time></trkpt><trkpt lat="54.319288813730125" lon="30.447185017730458"><ele>204.0</ele><time>2026-05-03T10:28:03Z</time></trkpt><trkpt lat="54.31899452682043" lon="30.447197096673627"><ele>204.0</ele><time>2026-05-03T10:28:04Z</time></trkpt><trkpt lat="54.318700615270096" lon="30.447212941433808"><ele>204.0</ele><time>2026-05-03T10:28:05Z</time></trkpt><trkpt lat="54.31840308113957" lon="30.447226250913843"><ele>204.0</ele><time>2026-05-03T10:28:06Z</time></trkpt><trkpt lat="54.3181089727245" lon="30.447246160104665"><ele>204.0</ele><time>2026-05-03T10:28:07Z</time></trkpt><trkpt lat="54.317809711215524" lon="30.447265316987757"><ele>205.5</ele><time>2026-05-03T10:28:08Z</time></trkpt><trkpt lat="54.31750961108566" lon="30.447279882930115"><ele>207.0</ele><time>2026-05-03T10:28:09Z</time></trkpt><trkpt lat="54.31721222286013" lon="30.447298988014513"><ele>208.5</ele><time>2026-05-03T10:28:10Z</time></trkpt><trkpt lat="54.31691286602734" lon="30.44731441665302"><ele>210.0</ele><time>2026-05-03T10:28:11Z</time></trkpt><trkpt lat="54.31661284454556" lon="30.447328367169558"><ele>210.0</ele><time>2026-05-03T10:28:12Z</time></trkpt><trkpt lat="54.31631656559854" lon="30.44734316572154"><ele>210.0</ele><time>2026-05-03T10:28:13Z</time></trkpt><trkpt lat="54.316022548146734" lon="30.447360673733815"><ele>210.0</ele><time>2026-05-03T10:28:14Z</time></trkpt><trkpt lat="54.31573020250074" lon="30.44737609636196"><ele>210.0</ele><time>2026-05-03T10:28:15Z</time></trkpt><trkpt lat="54.315443230869086" lon="30.44739162852531"><ele>211.0</ele><time>2026-05-03T10:28:16Z</time></trkpt><trkpt lat="54.31516488328165" lon="30.447406312375424"><ele>212.0</ele><time>2026-05-03T10:28:17Z</time></trkpt><trkpt lat="54.31488956981339" lon="30.447420934493735"><ele>211.5</ele><time>2026-05-03T10:28:18Z</time></trkpt><trkpt lat="54.314624070268366" lon="30.447439168084575"><ele>211.0</ele><time>2026-05-03T10:28:19Z</time></trkpt><trkpt lat="54.314365662281496" lon="30.447448480439373"><ele>211.0</ele><time>2026-05-03T10:28:20Z</time></trkpt><trkpt lat="54.31412630719614" lon="30.44745475778495"><ele>211.0</ele><time>2026-05-03T10:28:21Z</time></trkpt><trkpt lat="54.313900263811824" lon="30.44746779964374"><ele>210.33333333333331</ele><time>2026-05-03T10:28:22Z</time></trkpt><trkpt lat="54.31369427906202" lon="30.44748096601421"><ele>209.66666666666669</ele><time>2026-05-03T10:28:23Z</time></trkpt><trkpt lat="54.31349939296368" lon="30.447490349339265"><ele>209.0</ele><time>2026-05-03T10:28:24Z</time></trkpt><trkpt lat="54.31330663880463" lon="30.447493721550728"><ele>209.0</ele><time>2026-05-03T10:28:25Z</time></trkpt><trkpt lat="54.313123910132354" lon="30.447503408806078"><ele>209.0</ele><time>2026-05-03T10:28:26Z</time></trkpt><trkpt lat="54.31293198823688" lon="30.447519522179828"><ele>209.0</ele><time>2026-05-03T10:28:27Z</time></trkpt><trkpt lat="54.31273070555819" lon="30.44753006825708"><ele>209.0</ele><time>2026-05-03T10:28:28Z</time></trkpt><trkpt lat="54.31252987289278" lon="30.44753918014683"><ele>209.0</ele><time>2026-05-03T10:28:29Z</time></trkpt><trkpt lat="54.31233176851149" lon="30.447551472308902"><ele>209.0</ele><time>2026-05-03T10:28:30Z</time></trkpt><trkpt lat="54.31214668792416" lon="30.44756686001031"><ele>208.66666666666669</ele><time>2026-05-03T10:28:31Z</time></trkpt><trkpt lat="54.31197124624551" lon="30.447581524354785"><ele>208.33333333333331</ele><time>2026-05-03T10:28:32Z</time></trkpt><trkpt lat="54.31181004705841" lon="30.44759174003811"><ele>208.0</ele><time>2026-05-03T10:28:33Z</time></trkpt><trkpt lat="54.31165930519841" lon="30.447596418151704"><ele>208.0</ele><time>2026-05-03T10:28:34Z</time></trkpt><trkpt lat="54.31151558077916" lon="30.447605131033093"><ele>208.0</ele><time>2026-05-03T10:28:35Z</time></trkpt><trkpt lat="54.31136006805445" lon="30.447614035838313"><ele>208.0</ele><time>2026-05-03T10:28:36Z</time></trkpt><trkpt lat="54.311177921746584" lon="30.447628120473667"><ele>208.0</ele><time>2026-05-03T10:28:37Z</time></trkpt><trkpt lat="54.31096721187532" lon="30.44765063601105"><ele>208.0</ele><time>2026-05-03T10:28:38Z</time></trkpt><trkpt lat="54.31074283831497" lon="30.447674895034623"><ele>208.0</ele><time>2026-05-03T10:28:39Z</time></trkpt><trkpt lat="54.31049433425349" lon="30.447685736478206"><ele>209.0</ele><time>2026-05-03T10:28:40Z</time></trkpt><trkpt lat="54.310241935491085" lon="30.447685566113336"><ele>210.0</ele><time>2026-05-03T10:28:41Z</time></trkpt><trkpt lat="54.30997490699225" lon="30.447691066859043"><ele>210.0</ele><time>2026-05-03T10:28:42Z</time></trkpt><trkpt lat="54.3097003557203" lon="30.44770124148267"><ele>210.0</ele><time>2026-05-03T10:28:43Z</time></trkpt><trkpt lat="54.30941936955348" lon="30.44771516393296"><ele>210.0</ele><time>2026-05-03T10:28:44Z</time></trkpt><trkpt lat="54.30914684037601" lon="30.44772687076078"><ele>210.0</ele><time>2026-05-03T10:28:45Z</time></trkpt><trkpt lat="54.3088859824933" lon="30.447745400777496"><ele>210.0</ele><time>2026-05-03T10:28:46Z</time></trkpt><trkpt lat="54.30862515727461" lon="30.44776416435475"><ele>210.0</ele><time>2026-05-03T10:28:47Z</time></trkpt><trkpt lat="54.30835345647499" lon="30.447780374498578"><ele>210.0</ele><time>2026-05-03T10:28:48Z</time></trkpt><trkpt lat="54.30807893162586" lon="30.447799044457806"><ele>210.0</ele><time>2026-05-03T10:28:49Z</time></trkpt><trkpt lat="54.30780550269643" lon="30.447813659442538"><ele>210.0</ele><time>2026-05-03T10:28:50Z</time></trkpt><trkpt lat="54.30752809560952" lon="30.44782802175256"><ele>210.0</ele><time>2026-05-03T10:28:51Z</time></trkpt><trkpt lat="54.30725238185908" lon="30.447839761330144"><ele>210.5</ele><time>2026-05-03T10:28:52Z</time></trkpt><trkpt lat="54.30697574700232" lon="30.44785426943699"><ele>211.0</ele><time>2026-05-03T10:28:53Z</time></trkpt><trkpt lat="54.30669563799711" lon="30.447868741631183"><ele>210.5</ele><time>2026-05-03T10:28:54Z</time></trkpt><trkpt lat="54.306410682980264" lon="30.447883436572315"><ele>210.0</ele><time>2026-05-03T10:28:55Z</time></trkpt><trkpt lat="54.30612358890481" lon="30.44790160543682"><ele>210.0</ele><time>2026-05-03T10:28:56Z</time></trkpt><trkpt lat="54.305844005467485" lon="30.447916834575352"><ele>210.0</ele><time>2026-05-03T10:28:57Z</time></trkpt><trkpt lat="54.30555918834878" lon="30.447933105090712"><ele>209.5</ele><time>2026-05-03T10:28:58Z</time></trkpt><trkpt lat="54.30527365912194" lon="30.447900983127468"><ele>209.0</ele><time>2026-05-03T10:28:59Z</time></trkpt><trkpt lat="54.30498370045514" lon="30.447918662152688"><ele>208.5</ele><time>2026-05-03T10:29:00Z</time></trkpt><trkpt lat="54.304701099457155" lon="30.447936088163406"><ele>208.0</ele><time>2026-05-03T10:29:01Z</time></trkpt><trkpt lat="54.30441344881785" lon="30.44795382554402"><ele>208.0</ele><time>2026-05-03T10:29:01.999Z</time></trkpt><trkpt lat="54.30413632183181" lon="30.44798524906949"><ele>208.0</ele><time>2026-05-03T10:29:02.999Z</time></trkpt><trkpt lat="54.3038577367765" lon="30.447984394354464"><ele>208.0</ele><time>2026-05-03T10:29:03.999Z</time></trkpt><trkpt lat="54.30358244050341" lon="30.44798869119077"><ele>208.0</ele><time>2026-05-03T10:29:04.999Z</time></trkpt><trkpt lat="54.30332448423531" lon="30.448008852287735"><ele>208.0</ele><time>2026-05-03T10:29:05.999Z</time></trkpt><trkpt lat="54.303082851747035" lon="30.448031672667344"><ele>208.0</ele><time>2026-05-03T10:29:06.999Z</time></trkpt><trkpt lat="54.302851288293176" lon="30.44804950304619"><ele>208.5</ele><time>2026-05-03T10:29:07.999Z</time></trkpt><trkpt lat="54.30262182170703" lon="30.448059690149098"><ele>209.0</ele><time>2026-05-03T10:29:08.999Z</time></trkpt><trkpt lat="54.302382307944065" lon="30.448066702892692"><ele>209.5</ele><time>2026-05-03T10:29:09.999Z</time></trkpt><trkpt lat="54.30214925871273" lon="30.44808088262564"><ele>210.0</ele><time>2026-05-03T10:29:10.999Z</time></trkpt><trkpt lat="54.301923639879114" lon="30.448093529581417"><ele>210.0</ele><time>2026-05-03T10:29:11.999Z</time></trkpt><trkpt lat="54.30171084399637" lon="30.44810821956191"><ele>210.0</ele><time>2026-05-03T10:29:12.999Z</time></trkpt><trkpt lat="54.301499290064356" lon="30.44811880236004"><ele>210.0</ele><time>2026-05-03T10:29:13.999Z</time></trkpt><trkpt lat="54.301287331447" lon="30.44813042548998"><ele>210.0</ele><time>2026-05-03T10:29:14.999Z</time></trkpt><trkpt lat="54.30107398072921" lon="30.448144235419065"><ele>210.0</ele><time>2026-05-03T10:29:15.999Z</time></trkpt><trkpt lat="54.30086123067728" lon="30.448157319741572"><ele>210.0</ele><time>2026-05-03T10:29:16.999Z</time></trkpt><trkpt lat="54.30064192832776" lon="30.448166973724813"><ele>208.33333333333331</ele><time>2026-05-03T10:29:17.999Z</time></trkpt><trkpt lat="54.300436790046454" lon="30.448174649034595"><ele>206.66666666666666</ele><time>2026-05-03T10:29:18.999Z</time></trkpt><trkpt lat="54.300230975794875" lon="30.448183939225594"><ele>205.0</ele><time>2026-05-03T10:29:19.999Z</time></trkpt><trkpt lat="54.30002972927658" lon="30.448199209386512"><ele>205.0</ele><time>2026-05-03T10:29:20.999Z</time></trkpt><trkpt lat="54.299831289651216" lon="30.448176363317614"><ele>205.0</ele><time>2026-05-03T10:29:21.999Z</time></trkpt><trkpt lat="54.29963007165096" lon="30.44817882152699"><ele>205.0</ele><time>2026-05-03T10:29:22.999Z</time></trkpt><trkpt lat="54.29941291988849" lon="30.448189457609708"><ele>204.33333333333331</ele><time>2026-05-03T10:29:23.999Z</time></trkpt><trkpt lat="54.299202520718644" lon="30.44820013695129"><ele>203.66666666666669</ele><time>2026-05-03T10:29:24.999Z</time></trkpt><trkpt lat="54.298979162980224" lon="30.44821144062357"><ele>203.0</ele><time>2026-05-03T10:29:25.999Z</time></trkpt><trkpt lat="54.29876405231269" lon="30.44822220559361"><ele>203.0</ele><time>2026-05-03T10:29:26.999Z</time></trkpt><trkpt lat="54.29853680352991" lon="30.448233621907157"><ele>203.0</ele><time>2026-05-03T10:29:27.999Z</time></trkpt><trkpt lat="54.29832157673248" lon="30.448244673869286"><ele>203.0</ele><time>2026-05-03T10:29:28.999Z</time></trkpt><trkpt lat="54.298099098527274" lon="30.448256238779386"><ele>204.0</ele><time>2026-05-03T10:29:29.999Z</time></trkpt><trkpt lat="54.297887098969326" lon="30.448266306574915"><ele>205.0</ele><time>2026-05-03T10:29:30.999Z</time></trkpt><trkpt lat="54.29767571783712" lon="30.44827672260103"><ele>206.0</ele><time>2026-05-03T10:29:31.999Z</time></trkpt><trkpt lat="54.297463107941184" lon="30.448287596540876"><ele>206.33333333333334</ele><time>2026-05-03T10:29:32.999Z</time></trkpt><trkpt lat="54.29725170537329" lon="30.448298519820884"><ele>206.66666666666669</ele><time>2026-05-03T10:29:33.999Z</time></trkpt><trkpt lat="54.297040050056694" lon="30.448308807210775"><ele>207.0</ele><time>2026-05-03T10:29:34.999Z</time></trkpt><trkpt lat="54.29682415277708" lon="30.448319653860104"><ele>207.0</ele><time>2026-05-03T10:29:35.999Z</time></trkpt><trkpt lat="54.29660464529255" lon="30.448331141873815"><ele>207.0</ele><time>2026-05-03T10:29:36.999Z</time></trkpt><trkpt lat="54.29638489552671" lon="30.448341775905867"><ele>207.0</ele><time>2026-05-03T10:29:37.999Z</time></trkpt><trkpt lat="54.296160738558804" lon="30.448353427780557"><ele>207.5</ele><time>2026-05-03T10:29:38.999Z</time></trkpt><trkpt lat="54.29593230165976" lon="30.448365602600052"><ele>208.0</ele><time>2026-05-03T10:29:39.999Z</time></trkpt><trkpt lat="54.29570214974904" lon="30.448376349701157"><ele>207.0</ele><time>2026-05-03T10:29:40.999Z</time></trkpt><trkpt lat="54.2954707710944" lon="30.4483878997116"><ele>206.0</ele><time>2026-05-03T10:29:41.999Z</time></trkpt><trkpt lat="54.29524400443712" lon="30.448399707422812"><ele>206.0</ele><time>2026-05-03T10:29:42.999Z</time></trkpt><trkpt lat="54.2950153108356" lon="30.448411258482945"><ele>206.0</ele><time>2026-05-03T10:29:43.999Z</time></trkpt><trkpt lat="54.29478856011317" lon="30.448422674026983"><ele>206.5</ele><time>2026-05-03T10:29:44.999Z</time></trkpt><trkpt lat="54.29455122604499" lon="30.448434990144484"><ele>207.0</ele><time>2026-05-03T10:29:45.999Z</time></trkpt><trkpt lat="54.29431738258616" lon="30.44844615558975"><ele>207.0</ele><time>2026-05-03T10:29:46.999Z</time></trkpt><trkpt lat="54.29407586268645" lon="30.44845866294684"><ele>207.0</ele><time>2026-05-03T10:29:47.999Z</time></trkpt><trkpt lat="54.29382540964121" lon="30.448487687010083"><ele>207.66666666666669</ele><time>2026-05-03T10:29:48.999Z</time></trkpt><trkpt lat="54.293636740947264" lon="30.448480883779926"><ele>208.33333333333334</ele><time>2026-05-03T10:29:49.999Z</time></trkpt><trkpt lat="54.293411743381576" lon="30.44849286251739"><ele>209.0</ele><time>2026-05-03T10:29:50.999Z</time></trkpt><trkpt lat="54.29318188576479" lon="30.44850443402346"><ele>208.0</ele><time>2026-05-03T10:29:51.999Z</time></trkpt><trkpt lat="54.29294737929493" lon="30.44851631432969"><ele>207.0</ele><time>2026-05-03T10:29:52.999Z</time></trkpt><trkpt lat="54.29270615536674" lon="30.44852794871579"><ele>207.0</ele><time>2026-05-03T10:29:53.999Z</time></trkpt><trkpt lat="54.29247892766426" lon="30.448539615092802"><ele>207.0</ele><time>2026-05-03T10:29:54.999Z</time></trkpt><trkpt lat="54.29226598103953" lon="30.44855054336455"><ele>207.0</ele><time>2026-05-03T10:29:55.999Z</time></trkpt><trkpt lat="54.29205648036176" lon="30.448560342556792"><ele>206.33333333333331</ele><time>2026-05-03T10:29:56.999Z</time></trkpt><trkpt lat="54.2918586818518" lon="30.448569594710747"><ele>205.66666666666666</ele><time>2026-05-03T10:29:57.999Z</time></trkpt><trkpt lat="54.29164591698805" lon="30.448579546925913"><ele>205.0</ele><time>2026-05-03T10:29:58.999Z</time></trkpt><trkpt lat="54.291425375563605" lon="30.44866135134159"><ele>204.5</ele><time>2026-05-03T10:29:59.999Z</time></trkpt><trkpt lat="54.29119709904155" lon="30.44866897854463"><ele>204.0</ele><time>2026-05-03T10:30:00.999Z</time></trkpt><trkpt lat="54.290966744410746" lon="30.4486801112778"><ele>204.0</ele><time>2026-05-03T10:30:02Z</time></trkpt><trkpt lat="54.29073680563413" lon="30.44868771319421"><ele>204.0</ele><time>2026-05-03T10:30:03Z</time></trkpt><trkpt lat="54.290504966692154" lon="30.448700811909845"><ele>202.5</ele><time>2026-05-03T10:30:04Z</time></trkpt><trkpt lat="54.29027171491412" lon="30.448711874809682"><ele>201.0</ele><time>2026-05-03T10:30:05Z</time></trkpt><trkpt lat="54.29003384971548" lon="30.448720276008277"><ele>201.0</ele><time>2026-05-03T10:30:06Z</time></trkpt><trkpt lat="54.289801835329584" lon="30.448734347048305"><ele>201.0</ele><time>2026-05-03T10:30:07Z</time></trkpt><trkpt lat="54.28956265404631" lon="30.448744891823846"><ele>201.5</ele><time>2026-05-03T10:30:08Z</time></trkpt><trkpt lat="54.28931834793774" lon="30.44876266731324"><ele>202.0</ele><time>2026-05-03T10:30:09Z</time></trkpt><trkpt lat="54.289076755281805" lon="30.448789375834274"><ele>204.0</ele><time>2026-05-03T10:30:10Z</time></trkpt><trkpt lat="54.28882397384277" lon="30.44879815363411"><ele>206.0</ele><time>2026-05-03T10:30:11Z</time></trkpt><trkpt lat="54.288599732189276" lon="30.44879903245135"><ele>206.0</ele><time>2026-05-03T10:30:12Z</time></trkpt><trkpt lat="54.28837179448355" lon="30.44880219990001"><ele>206.0</ele><time>2026-05-03T10:30:13Z</time></trkpt><trkpt lat="54.28813741953034" lon="30.44880991348019"><ele>206.0</ele><time>2026-05-03T10:30:14Z</time></trkpt><trkpt lat="54.28790689527037" lon="30.448820160111456"><ele>206.0</ele><time>2026-05-03T10:30:15Z</time></trkpt><trkpt lat="54.28768200155252" lon="30.44882963306407"><ele>206.0</ele><time>2026-05-03T10:30:16Z</time></trkpt><trkpt lat="54.287451291151356" lon="30.448837008724116"><ele>206.0</ele><time>2026-05-03T10:30:17Z</time></trkpt><trkpt lat="54.28721986089861" lon="30.448849021581456"><ele>204.66666666666669</ele><time>2026-05-03T10:30:18Z</time></trkpt><trkpt lat="54.28699283166677" lon="30.448866771338867"><ele>203.33333333333331</ele><time>2026-05-03T10:30:19Z</time></trkpt><trkpt lat="54.28677207500016" lon="30.448887712048705"><ele>202.0</ele><time>2026-05-03T10:30:20Z</time></trkpt><trkpt lat="54.286554259786286" lon="30.448902030386414"><ele>201.66666666666666</ele><time>2026-05-03T10:30:21Z</time></trkpt><trkpt lat="54.28634009887055" lon="30.44891574329844"><ele>201.33333333333331</ele><time>2026-05-03T10:30:22Z</time></trkpt><trkpt lat="54.28611912053091" lon="30.448926659096948"><ele>201.0</ele><time>2026-05-03T10:30:23Z</time></trkpt><trkpt lat="54.28590378157075" lon="30.448941128636065"><ele>201.0</ele><time>2026-05-03T10:30:24Z</time></trkpt><trkpt lat="54.28570669081754" lon="30.44896040053365"><ele>201.0</ele><time>2026-05-03T10:30:25Z</time></trkpt><trkpt lat="54.2855235291831" lon="30.448974925644052"><ele>201.0</ele><time>2026-05-03T10:30:26Z</time></trkpt><trkpt lat="54.285352139067264" lon="30.448988008772595"><ele>200.66666666666669</ele><time>2026-05-03T10:30:27Z</time></trkpt><trkpt lat="54.285180170994586" lon="30.448996005982295"><ele>200.33333333333334</ele><time>2026-05-03T10:30:28Z</time></trkpt><trkpt lat="54.28500006948877" lon="30.449004812410255"><ele>200.0</ele><time>2026-05-03T10:30:29Z</time></trkpt><trkpt lat="54.284827134122" lon="30.4490205806986"><ele>200.0</ele><time>2026-05-03T10:30:30Z</time></trkpt><trkpt lat="54.284649620555385" lon="30.449034721734787"><ele>200.0</ele><time>2026-05-03T10:30:31Z</time></trkpt><trkpt lat="54.28446414938275" lon="30.44904453628912"><ele>200.0</ele><time>2026-05-03T10:30:32Z</time></trkpt><trkpt lat="54.284279346987816" lon="30.44905136164928"><ele>200.0</ele><time>2026-05-03T10:30:33Z</time></trkpt><trkpt lat="54.28408861405625" lon="30.449060508661002"><ele>200.0</ele><time>2026-05-03T10:30:34Z</time></trkpt><trkpt lat="54.28390020061748" lon="30.449060985575105"><ele>200.0</ele><time>2026-05-03T10:30:35Z</time></trkpt><trkpt lat="54.283719038327426" lon="30.449075699149926"><ele>199.66666666666669</ele><time>2026-05-03T10:30:36Z</time></trkpt><trkpt lat="54.2835369543311" lon="30.449090414097583"><ele>199.33333333333331</ele><time>2026-05-03T10:30:37Z</time></trkpt><trkpt lat="54.2833616566892" lon="30.449100131915984"><ele>199.0</ele><time>2026-05-03T10:30:38Z</time></trkpt><trkpt lat="54.283179386414304" lon="30.449108948000585"><ele>199.33333333333331</ele><time>2026-05-03T10:30:39Z</time></trkpt><trkpt lat="54.28300984592438" lon="30.44911797933873"><ele>199.66666666666669</ele><time>2026-05-03T10:30:40Z</time></trkpt><trkpt lat="54.28284149747041" lon="30.449121281613525"><ele>200.0</ele><time>2026-05-03T10:30:41Z</time></trkpt><trkpt lat="54.282670049347544" lon="30.449126991032323"><ele>200.0</ele><time>2026-05-03T10:30:42Z</time></trkpt><trkpt lat="54.28250788364388" lon="30.449138611853293"><ele>200.0</ele><time>2026-05-03T10:30:43Z</time></trkpt><trkpt lat="54.282343714353736" lon="30.44914736892498"><ele>200.0</ele><time>2026-05-03T10:30:44Z</time></trkpt><trkpt lat="54.28218662240332" lon="30.449158260077752"><ele>200.0</ele><time>2026-05-03T10:30:45Z</time></trkpt><trkpt lat="54.28202901422481" lon="30.449166196266653"><ele>200.0</ele><time>2026-05-03T10:30:46Z</time></trkpt><trkpt lat="54.281870432175396" lon="30.44917129998514"><ele>200.0</ele><time>2026-05-03T10:30:47Z</time></trkpt><trkpt lat="54.281725382577484" lon="30.449184502704306"><ele>200.0</ele><time>2026-05-03T10:30:48Z</time></trkpt><trkpt lat="54.28156998385252" lon="30.44918807032468"><ele>200.0</ele><time>2026-05-03T10:30:49Z</time></trkpt><trkpt lat="54.28141582395498" lon="30.44919670053237"><ele>200.0</ele><time>2026-05-03T10:30:50Z</time></trkpt><trkpt lat="54.281257752190086" lon="30.449207073811667"><ele>200.0</ele><time>2026-05-03T10:30:51Z</time></trkpt><trkpt lat="54.28109621421099" lon="30.44921390839097"><ele>200.0</ele><time>2026-05-03T10:30:52Z</time></trkpt><trkpt lat="54.280934821682884" lon="30.4492225282373"><ele>200.0</ele><time>2026-05-03T10:30:53Z</time></trkpt><trkpt lat="54.28077041218392" lon="30.449230307826095"><ele>200.0</ele><time>2026-05-03T10:30:54Z</time></trkpt><trkpt lat="54.280607636576576" lon="30.449241360062025"><ele>200.0</ele><time>2026-05-03T10:30:55Z</time></trkpt><trkpt lat="54.28044547130679" lon="30.449248490217652"><ele>200.0</ele><time>2026-05-03T10:30:56Z</time></trkpt><trkpt lat="54.28028377921338" lon="30.44925384485595"><ele>200.33333333333334</ele><time>2026-05-03T10:30:57Z</time></trkpt><trkpt lat="54.28012071782998" lon="30.449261842709063"><ele>200.66666666666669</ele><time>2026-05-03T10:30:58Z</time></trkpt><trkpt lat="54.279949230766064" lon="30.44927140498022"><ele>201.0</ele><time>2026-05-03T10:30:59Z</time></trkpt><trkpt lat="54.27977309655454" lon="30.44928243005166"><ele>201.0</ele><time>2026-05-03T10:31:00Z</time></trkpt><trkpt lat="54.27959044361963" lon="30.44929900254675"><ele>201.0</ele><time>2026-05-03T10:31:01Z</time></trkpt><trkpt lat="54.27939708414515" lon="30.44932120605994"><ele>201.0</ele><time>2026-05-03T10:31:02Z</time></trkpt><trkpt lat="54.2791917554558" lon="30.44933262528773"><ele>201.0</ele><time>2026-05-03T10:31:03Z</time></trkpt><trkpt lat="54.27898202849037" lon="30.44934804384111"><ele>201.0</ele><time>2026-05-03T10:31:04Z</time></trkpt><trkpt lat="54.27876568960812" lon="30.44936620097219"><ele>201.0</ele><time>2026-05-03T10:31:05Z</time></trkpt><trkpt lat="54.278533590458984" lon="30.449375956263907"><ele>201.0</ele><time>2026-05-03T10:31:06Z</time></trkpt><trkpt lat="54.27830166214683" lon="30.449276050196417"><ele>201.0</ele><time>2026-05-03T10:31:07Z</time></trkpt><trkpt lat="54.278063070312335" lon="30.44928849034588"><ele>202.5</ele><time>2026-05-03T10:31:08Z</time></trkpt><trkpt lat="54.27781530052489" lon="30.449302250711483"><ele>204.0</ele><time>2026-05-03T10:31:09Z</time></trkpt><trkpt lat="54.27757406705425" lon="30.44931469517417"><ele>204.0</ele><time>2026-05-03T10:31:10Z</time></trkpt><trkpt lat="54.27732223354293" lon="30.449328142350506"><ele>204.0</ele><time>2026-05-03T10:31:11Z</time></trkpt><trkpt lat="54.27707257045685" lon="30.449341454378384"><ele>205.0</ele><time>2026-05-03T10:31:12Z</time></trkpt><trkpt lat="54.27682018906603" lon="30.449354774621785"><ele>206.0</ele><time>2026-05-03T10:31:13Z</time></trkpt><trkpt lat="54.27656042209834" lon="30.4493684846643"><ele>206.0</ele><time>2026-05-03T10:31:14Z</time></trkpt><trkpt lat="54.27630397746195" lon="30.44938252054888"><ele>206.0</ele><time>2026-05-03T10:31:15Z</time></trkpt><trkpt lat="54.27604264808643" lon="30.449396404792182"><ele>206.0</ele><time>2026-05-03T10:31:16Z</time></trkpt><trkpt lat="54.27577946482483" lon="30.449410008093015"><ele>206.0</ele><time>2026-05-03T10:31:17Z</time></trkpt><trkpt lat="54.27551219238352" lon="30.449424081220506"><ele>206.0</ele><time>2026-05-03T10:31:18Z</time></trkpt><trkpt lat="54.27523982591172" lon="30.449438567523465"><ele>206.0</ele><time>2026-05-03T10:31:18.999Z</time></trkpt><trkpt lat="54.27496677202307" lon="30.449453636267567"><ele>205.5</ele><time>2026-05-03T10:31:19.999Z</time></trkpt><trkpt lat="54.27469239103885" lon="30.44946835915491"><ele>205.0</ele><time>2026-05-03T10:31:20.999Z</time></trkpt><trkpt lat="54.27441497546897" lon="30.449482823079578"><ele>205.0</ele><time>2026-05-03T10:31:21.999Z</time></trkpt><trkpt lat="54.27413555502168" lon="30.449497378143022"><ele>205.0</ele><time>2026-05-03T10:31:22.999Z</time></trkpt><trkpt lat="54.27385215863764" lon="30.449513117363377"><ele>205.5</ele><time>2026-05-03T10:31:23.999Z</time></trkpt><trkpt lat="54.27357741888157" lon="30.449527820091856"><ele>206.0</ele><time>2026-05-03T10:31:24.999Z</time></trkpt><trkpt lat="54.27329423947007" lon="30.449542948342057"><ele>206.0</ele><time>2026-05-03T10:31:25.999Z</time></trkpt><trkpt lat="54.273010969506046" lon="30.4495581086795"><ele>206.0</ele><time>2026-05-03T10:31:26.999Z</time></trkpt><trkpt lat="54.272728699616195" lon="30.449573062923374"><ele>206.0</ele><time>2026-05-03T10:31:27.999Z</time></trkpt><trkpt lat="54.27244665108905" lon="30.449587279805797"><ele>206.0</ele><time>2026-05-03T10:31:28.999Z</time></trkpt><trkpt lat="54.27216007777786" lon="30.449602772092547"><ele>206.0</ele><time>2026-05-03T10:31:29.999Z</time></trkpt><trkpt lat="54.271874920840155" lon="30.449618187808206"><ele>206.0</ele><time>2026-05-03T10:31:30.999Z</time></trkpt><trkpt lat="54.271589958658375" lon="30.449633481908815"><ele>206.5</ele><time>2026-05-03T10:31:31.999Z</time></trkpt><trkpt lat="54.27130326303116" lon="30.449648680047652"><ele>207.0</ele><time>2026-05-03T10:31:32.999Z</time></trkpt><trkpt lat="54.27101638881568" lon="30.449664693138608"><ele>207.0</ele><time>2026-05-03T10:31:33.999Z</time></trkpt><trkpt lat="54.27072963767317" lon="30.449679362258262"><ele>207.0</ele><time>2026-05-03T10:31:34.999Z</time></trkpt><trkpt lat="54.270442067557454" lon="30.44969466118496"><ele>206.0</ele><time>2026-05-03T10:31:35.999Z</time></trkpt><trkpt lat="54.270155182738" lon="30.449710308565127"><ele>205.0</ele><time>2026-05-03T10:31:36.999Z</time></trkpt><trkpt lat="54.26986706651364" lon="30.44972545816539"><ele>206.0</ele><time>2026-05-03T10:31:37.999Z</time></trkpt><trkpt lat="54.26957530318213" lon="30.449740327128346"><ele>207.0</ele><time>2026-05-03T10:31:38.999Z</time></trkpt><trkpt lat="54.26928420649974" lon="30.449754869637992"><ele>207.0</ele><time>2026-05-03T10:31:39.999Z</time></trkpt><trkpt lat="54.26899803298475" lon="30.44976951873636"><ele>207.0</ele><time>2026-05-03T10:31:40.999Z</time></trkpt><trkpt lat="54.268704390702275" lon="30.449784154607947"><ele>205.0</ele><time>2026-05-03T10:31:41.999Z</time></trkpt><trkpt lat="54.26841213671602" lon="30.449799074647657"><ele>203.0</ele><time>2026-05-03T10:31:42.999Z</time></trkpt><trkpt lat="54.26811875400386" lon="30.44981387718904"><ele>203.5</ele><time>2026-05-03T10:31:43.999Z</time></trkpt><trkpt lat="54.267823208034855" lon="30.449828835884254"><ele>204.0</ele><time>2026-05-03T10:31:44.999Z</time></trkpt><trkpt lat="54.26752802718374" lon="30.449843942974915"><ele>204.0</ele><time>2026-05-03T10:31:45.999Z</time></trkpt><trkpt lat="54.267233225370056" lon="30.44985921580082"><ele>204.0</ele><time>2026-05-03T10:31:46.999Z</time></trkpt><trkpt lat="54.26693651054575" lon="30.449874181952136"><ele>204.0</ele><time>2026-05-03T10:31:47.999Z</time></trkpt><trkpt lat="54.266638125595925" lon="30.44988936526436"><ele>204.0</ele><time>2026-05-03T10:31:48.999Z</time></trkpt><trkpt lat="54.2663431042512" lon="30.449904254959073"><ele>203.5</ele><time>2026-05-03T10:31:49.999Z</time></trkpt><trkpt lat="54.26604464536886" lon="30.44991972915442"><ele>203.0</ele><time>2026-05-03T10:31:50.999Z</time></trkpt><trkpt lat="54.26574634480159" lon="30.449934967565888"><ele>203.0</ele><time>2026-05-03T10:31:51.999Z</time></trkpt><trkpt lat="54.26544921096353" lon="30.449949793274353"><ele>203.0</ele><time>2026-05-03T10:31:52.999Z</time></trkpt><trkpt lat="54.2651514035868" lon="30.44996443826139"><ele>203.0</ele><time>2026-05-03T10:31:53.999Z</time></trkpt><trkpt lat="54.264848040549104" lon="30.44997965080413"><ele>203.0</ele><time>2026-05-03T10:31:54.999Z</time></trkpt><trkpt lat="54.2645470223902" lon="30.44999745658457"><ele>202.5</ele><time>2026-05-03T10:31:55.999Z</time></trkpt><trkpt lat="54.264246657873606" lon="30.450059103939825"><ele>202.0</ele><time>2026-05-03T10:31:56.999Z</time></trkpt><trkpt lat="54.26394431858247" lon="30.450065265290032"><ele>201.5</ele><time>2026-05-03T10:31:57.999Z</time></trkpt><trkpt lat="54.263641325043395" lon="30.450094388886704"><ele>201.0</ele><time>2026-05-03T10:31:58.999Z</time></trkpt><trkpt lat="54.263339053290835" lon="30.45010368986905"><ele>201.0</ele><time>2026-05-03T10:31:59.999Z</time></trkpt><trkpt lat="54.263038216058426" lon="30.450115229627713"><ele>201.0</ele><time>2026-05-03T10:32:00.999Z</time></trkpt><trkpt lat="54.26273379984351" lon="30.45014365676462"><ele>201.0</ele><time>2026-05-03T10:32:01.999Z</time></trkpt><trkpt lat="54.26243309643022" lon="30.450169817902527"><ele>201.0</ele><time>2026-05-03T10:32:02.999Z</time></trkpt><trkpt lat="54.26213104990723" lon="30.450186845693917"><ele>200.5</ele><time>2026-05-03T10:32:03.999Z</time></trkpt><trkpt lat="54.26183101826402" lon="30.4501909304864"><ele>200.0</ele><time>2026-05-03T10:32:04.999Z</time></trkpt><trkpt lat="54.26155291692877" lon="30.45019666539726"><ele>199.0</ele><time>2026-05-03T10:32:05.999Z</time></trkpt><trkpt lat="54.26129261290139" lon="30.450229794917124"><ele>198.0</ele><time>2026-05-03T10:32:06.999Z</time></trkpt><trkpt lat="54.261056265665516" lon="30.450232866620954"><ele>198.0</ele><time>2026-05-03T10:32:08.001Z</time></trkpt><trkpt lat="54.26083020726331" lon="30.450244598477205"><ele>198.0</ele><time>2026-05-03T10:32:09.001Z</time></trkpt><trkpt lat="54.26059805489617" lon="30.450267977383"><ele>198.0</ele><time>2026-05-03T10:32:10.001Z</time></trkpt><trkpt lat="54.260380609241594" lon="30.450269644655"><ele>198.0</ele><time>2026-05-03T10:32:11.001Z</time></trkpt><trkpt lat="54.26017502761641" lon="30.450285450950254"><ele>198.0</ele><time>2026-05-03T10:32:12.001Z</time></trkpt><trkpt lat="54.25998568252572" lon="30.450294760205125"><ele>198.0</ele><time>2026-05-03T10:32:13.001Z</time></trkpt><trkpt lat="54.25980635396164" lon="30.450306796861682"><ele>198.0</ele><time>2026-05-03T10:32:14.001Z</time></trkpt><trkpt lat="54.25963823635318" lon="30.450322492495633"><ele>198.0</ele><time>2026-05-03T10:32:15.001Z</time></trkpt><trkpt lat="54.25948466026223" lon="30.450334331468593"><ele>198.0</ele><time>2026-05-03T10:32:16.001Z</time></trkpt><trkpt lat="54.259336015260544" lon="30.450347240542786"><ele>198.0</ele><time>2026-05-03T10:32:17.001Z</time></trkpt><trkpt lat="54.25919544730285" lon="30.450355591320207"><ele>198.0</ele><time>2026-05-03T10:32:18.001Z</time></trkpt><trkpt lat="54.25906005451373" lon="30.450359892587617"><ele>198.0</ele><time>2026-05-03T10:32:19.001Z</time></trkpt><trkpt lat="54.25889457827024" lon="30.45036517263961"><ele>198.0</ele><time>2026-05-03T10:32:20.001Z</time></trkpt><trkpt lat="54.25871470831778" lon="30.45037177627455"><ele>198.0</ele><time>2026-05-03T10:32:21.001Z</time></trkpt><trkpt lat="54.258524060647794" lon="30.45037970145813"><ele>198.0</ele><time>2026-05-03T10:32:22.001Z</time></trkpt><trkpt lat="54.25832888340491" lon="30.45039065718988"><ele>198.0</ele><time>2026-05-03T10:32:23.001Z</time></trkpt><trkpt lat="54.25813606742078" lon="30.450402818384806"><ele>198.0</ele><time>2026-05-03T10:32:24Z</time></trkpt><trkpt lat="54.25794242613361" lon="30.45041363037195"><ele>198.0</ele><time>2026-05-03T10:32:25Z</time></trkpt><trkpt lat="54.25774763870388" lon="30.450423484934607"><ele>197.66666666666669</ele><time>2026-05-03T10:32:26Z</time></trkpt><trkpt lat="54.25755929133788" lon="30.450432978876883"><ele>197.33333333333334</ele><time>2026-05-03T10:32:27Z</time></trkpt><trkpt lat="54.257389147202765" lon="30.450443889497553"><ele>197.0</ele><time>2026-05-03T10:32:28Z</time></trkpt><trkpt lat="54.25720973134325" lon="30.450456594382075"><ele>196.66666666666669</ele><time>2026-05-03T10:32:29Z</time></trkpt><trkpt lat="54.25701831879805" lon="30.450464112675867"><ele>196.33333333333331</ele><time>2026-05-03T10:32:30Z</time></trkpt><trkpt lat="54.25683154557972" lon="30.450476639904906"><ele>196.0</ele><time>2026-05-03T10:32:31Z</time></trkpt><trkpt lat="54.256638498939374" lon="30.450486264934888"><ele>196.0</ele><time>2026-05-03T10:32:32Z</time></trkpt><trkpt lat="54.25645556443374" lon="30.450496719731774"><ele>196.0</ele><time>2026-05-03T10:32:33Z</time></trkpt><trkpt lat="54.25628767803205" lon="30.450507281181952"><ele>196.0</ele><time>2026-05-03T10:32:34Z</time></trkpt><trkpt lat="54.25611666529904" lon="30.450517125773924"><ele>196.0</ele><time>2026-05-03T10:32:35Z</time></trkpt><trkpt lat="54.25594269108443" lon="30.45052762466654"><ele>196.0</ele><time>2026-05-03T10:32:36Z</time></trkpt><trkpt lat="54.2557711436646" lon="30.450535489374765"><ele>196.0</ele><time>2026-05-03T10:32:37Z</time></trkpt><trkpt lat="54.25559945202093" lon="30.4505419521515"><ele>196.0</ele><time>2026-05-03T10:32:38Z</time></trkpt><trkpt lat="54.25542628389556" lon="30.450546772326458"><ele>196.0</ele><time>2026-05-03T10:32:39Z</time></trkpt><trkpt lat="54.25525629210137" lon="30.450556704499604"><ele>196.0</ele><time>2026-05-03T10:32:40Z</time></trkpt><trkpt lat="54.255086969874505" lon="30.4505687629156"><ele>196.0</ele><time>2026-05-03T10:32:41Z</time></trkpt><trkpt lat="54.25491223801504" lon="30.450577407097285"><ele>196.0</ele><time>2026-05-03T10:32:42Z</time></trkpt><trkpt lat="54.25474449918438" lon="30.450587053331706"><ele>196.0</ele><time>2026-05-03T10:32:43Z</time></trkpt><trkpt lat="54.25456811083638" lon="30.450592353082918"><ele>195.33333333333331</ele><time>2026-05-03T10:32:44Z</time></trkpt><trkpt lat="54.25439166689245" lon="30.450599966705536"><ele>194.66666666666669</ele><time>2026-05-03T10:32:45Z</time></trkpt><trkpt lat="54.254214234592325" lon="30.450609122769645"><ele>194.0</ele><time>2026-05-03T10:32:46Z</time></trkpt><trkpt lat="54.25404519383128" lon="30.450619177597765"><ele>194.66666666666669</ele><time>2026-05-03T10:32:47Z</time></trkpt><trkpt lat="54.25387776854195" lon="30.450624891676153"><ele>195.33333333333331</ele><time>2026-05-03T10:32:48Z</time></trkpt><trkpt lat="54.253711733735166" lon="30.45063334726756"><ele>196.0</ele><time>2026-05-03T10:32:49Z</time></trkpt><trkpt lat="54.25354243533826" lon="30.450637365112172"><ele>196.0</ele><time>2026-05-03T10:32:50Z</time></trkpt><trkpt lat="54.253377488247395" lon="30.450649067268525"><ele>196.0</ele><time>2026-05-03T10:32:51Z</time></trkpt><trkpt lat="54.25321246164999" lon="30.450659090404937"><ele>196.0</ele><time>2026-05-03T10:32:52Z</time></trkpt><trkpt lat="54.25304220898077" lon="30.45066651344027"><ele>197.33333333333331</ele><time>2026-05-03T10:32:53Z</time></trkpt><trkpt lat="54.252858707472434" lon="30.450671970987596"><ele>198.66666666666669</ele><time>2026-05-03T10:32:54Z</time></trkpt><trkpt lat="54.252658418347764" lon="30.450681914938084"><ele>200.0</ele><time>2026-05-03T10:32:55Z</time></trkpt><trkpt lat="54.25244871795563" lon="30.450687332128513"><ele>199.0</ele><time>2026-05-03T10:32:56Z</time></trkpt><trkpt lat="54.25222767491219" lon="30.450694229044334"><ele>198.0</ele><time>2026-05-03T10:32:57Z</time></trkpt><trkpt lat="54.25200207463896" lon="30.45070602718723"><ele>197.0</ele><time>2026-05-03T10:32:58Z</time></trkpt><trkpt lat="54.25178755872416" lon="30.450723003426734"><ele>197.0</ele><time>2026-05-03T10:32:59Z</time></trkpt><trkpt lat="54.25157610754874" lon="30.45073679793753"><ele>197.0</ele><time>2026-05-03T10:33:00Z</time></trkpt><trkpt lat="54.25136018929638" lon="30.4507428246534"><ele>197.0</ele><time>2026-05-03T10:33:01Z</time></trkpt><trkpt lat="54.25113163805718" lon="30.450750419640848"><ele>196.5</ele><time>2026-05-03T10:33:02Z</time></trkpt><trkpt lat="54.25090573671076" lon="30.450764436502773"><ele>196.0</ele><time>2026-05-03T10:33:03Z</time></trkpt><trkpt lat="54.25067941967418" lon="30.45077815048022"><ele>196.5</ele><time>2026-05-03T10:33:04Z</time></trkpt><trkpt lat="54.25044284686412" lon="30.450788049439375"><ele>197.0</ele><time>2026-05-03T10:33:05Z</time></trkpt><trkpt lat="54.2502040126043" lon="30.450801591269837"><ele>197.0</ele><time>2026-05-03T10:33:06Z</time></trkpt><trkpt lat="54.249967180598986" lon="30.450819388659937"><ele>197.0</ele><time>2026-05-03T10:33:07Z</time></trkpt><trkpt lat="54.249725421905055" lon="30.45083434711945"><ele>197.5</ele><time>2026-05-03T10:33:08Z</time></trkpt><trkpt lat="54.24948393663774" lon="30.45085038087688"><ele>198.0</ele><time>2026-05-03T10:33:09Z</time></trkpt><trkpt lat="54.24923433457689" lon="30.450860380744874"><ele>198.0</ele><time>2026-05-03T10:33:10Z</time></trkpt><trkpt lat="54.24899200926556" lon="30.450873298163884"><ele>198.0</ele><time>2026-05-03T10:33:11Z</time></trkpt><trkpt lat="54.24873666918531" lon="30.450881194324925"><ele>197.5</ele><time>2026-05-03T10:33:12Z</time></trkpt><trkpt lat="54.24848980407929" lon="30.450890562155124"><ele>197.0</ele><time>2026-05-03T10:33:13Z</time></trkpt><trkpt lat="54.24823892112233" lon="30.450899375359565"><ele>197.0</ele><time>2026-05-03T10:33:14Z</time></trkpt><trkpt lat="54.24799204591193" lon="30.450912655422936"><ele>197.0</ele><time>2026-05-03T10:33:15Z</time></trkpt><trkpt lat="54.24776526695911" lon="30.450923047685986"><ele>197.0</ele><time>2026-05-03T10:33:16Z</time></trkpt><trkpt lat="54.247542914495845" lon="30.450861243897343"><ele>197.0</ele><time>2026-05-03T10:33:17Z</time></trkpt><trkpt lat="54.2473043469356" lon="30.450873505713094"><ele>196.5</ele><time>2026-05-03T10:33:18Z</time></trkpt><trkpt lat="54.24705637332754" lon="30.450886087689256"><ele>196.0</ele><time>2026-05-03T10:33:19Z</time></trkpt><trkpt lat="54.24679466640126" lon="30.45089947802782"><ele>196.0</ele><time>2026-05-03T10:33:20Z</time></trkpt><trkpt lat="54.24651518643628" lon="30.450914208308408"><ele>196.0</ele><time>2026-05-03T10:33:21Z</time></trkpt><trkpt lat="54.24622708121091" lon="30.450929405677883"><ele>196.0</ele><time>2026-05-03T10:33:22Z</time></trkpt><trkpt lat="54.245930855716296" lon="30.450946109435613"><ele>196.0</ele><time>2026-05-03T10:33:23Z</time></trkpt><trkpt lat="54.245619037401546" lon="30.450962683457774"><ele>196.0</ele><time>2026-05-03T10:33:24Z</time></trkpt><trkpt lat="54.24530488097039" lon="30.450979383840917"><ele>196.0</ele><time>2026-05-03T10:33:25Z</time></trkpt><trkpt lat="54.244971708189226" lon="30.45099711189271"><ele>196.0</ele><time>2026-05-03T10:33:26Z</time></trkpt><trkpt lat="54.244631767748686" lon="30.451015200066102"><ele>196.0</ele><time>2026-05-03T10:33:27Z</time></trkpt><trkpt lat="54.244287565536126" lon="30.45103360630656"><ele>195.0</ele><time>2026-05-03T10:33:28Z</time></trkpt><trkpt lat="54.243931463865984" lon="30.45105265915816"><ele>194.0</ele><time>2026-05-03T10:33:29Z</time></trkpt><trkpt lat="54.24357202649918" lon="30.451072050316167"><ele>194.0</ele><time>2026-05-03T10:33:30Z</time></trkpt><trkpt lat="54.24320365645949" lon="30.45109218148489"><ele>194.0</ele><time>2026-05-03T10:33:31Z</time></trkpt><trkpt lat="54.24282766620421" lon="30.451112394130462"><ele>195.0</ele><time>2026-05-03T10:33:31.999Z</time></trkpt><trkpt lat="54.24244820553269" lon="30.451132717883237"><ele>196.0</ele><time>2026-05-03T10:33:32.999Z</time></trkpt><trkpt lat="54.24206481159106" lon="30.451152876477213"><ele>196.0</ele><time>2026-05-03T10:33:33.999Z</time></trkpt><trkpt lat="54.24169726107632" lon="30.451172633932362"><ele>196.0</ele><time>2026-05-03T10:33:34.999Z</time></trkpt><trkpt lat="54.241362155817015" lon="30.45119080799908"><ele>195.0</ele><time>2026-05-03T10:33:35.999Z</time></trkpt><trkpt lat="54.241048864465554" lon="30.451208555293377"><ele>194.0</ele><time>2026-05-03T10:33:36.999Z</time></trkpt><trkpt lat="54.24073937515014" lon="30.451224874480186"><ele>194.5</ele><time>2026-05-03T10:33:37.999Z</time></trkpt><trkpt lat="54.24043303635356" lon="30.45124070239946"><ele>195.0</ele><time>2026-05-03T10:33:38.999Z</time></trkpt><trkpt lat="54.24012927884629" lon="30.45125702806361"><ele>195.0</ele><time>2026-05-03T10:33:39.999Z</time></trkpt><trkpt lat="54.23982613794565" lon="30.45127341678525"><ele>195.0</ele><time>2026-05-03T10:33:40.999Z</time></trkpt><trkpt lat="54.239520644214124" lon="30.45129036035062"><ele>196.0</ele><time>2026-05-03T10:33:41.999Z</time></trkpt><trkpt lat="54.23921343846148" lon="30.451307047377558"><ele>197.0</ele><time>2026-05-03T10:33:42.999Z</time></trkpt><trkpt lat="54.2389137967289" lon="30.451322841363115"><ele>197.5</ele><time>2026-05-03T10:33:43.999Z</time></trkpt><trkpt lat="54.23861524701741" lon="30.451338574480463"><ele>198.0</ele><time>2026-05-03T10:33:44.999Z</time></trkpt><trkpt lat="54.238313431877465" lon="30.451355453376298"><ele>198.0</ele><time>2026-05-03T10:33:45.999Z</time></trkpt><trkpt lat="54.23800708618051" lon="30.451371087113028"><ele>198.0</ele><time>2026-05-03T10:33:46.999Z</time></trkpt><trkpt lat="54.2377075765283" lon="30.451387246137323"><ele>198.0</ele><time>2026-05-03T10:33:47.999Z</time></trkpt><trkpt lat="54.23740734101471" lon="30.45140412549885"><ele>198.0</ele><time>2026-05-03T10:33:48.999Z</time></trkpt><trkpt lat="54.23710720081271" lon="30.45141938571239"><ele>198.0</ele><time>2026-05-03T10:33:49.999Z</time></trkpt><trkpt lat="54.236809686707325" lon="30.45143572439895"><ele>198.0</ele><time>2026-05-03T10:33:50.999Z</time></trkpt><trkpt lat="54.23651240637108" lon="30.451452055494666"><ele>198.5</ele><time>2026-05-03T10:33:51.999Z</time></trkpt><trkpt lat="54.23621431996379" lon="30.451468839977235"><ele>199.0</ele><time>2026-05-03T10:33:52.999Z</time></trkpt><trkpt lat="54.23591738401578" lon="30.451485021486537"><ele>198.5</ele><time>2026-05-03T10:33:53.999Z</time></trkpt><trkpt lat="54.23562313507642" lon="30.45150132872734"><ele>198.0</ele><time>2026-05-03T10:33:54.999Z</time></trkpt><trkpt lat="54.23532740774883" lon="30.451517800226586"><ele>198.0</ele><time>2026-05-03T10:33:55.999Z</time></trkpt><trkpt lat="54.235031030362116" lon="30.451534437509167"><ele>198.0</ele><time>2026-05-03T10:33:56.999Z</time></trkpt><trkpt lat="54.23474101774396" lon="30.451550753186833"><ele>198.0</ele><time>2026-05-03T10:33:57.999Z</time></trkpt><trkpt lat="54.23445059557795" lon="30.451567094506306"><ele>198.0</ele><time>2026-05-03T10:33:58.999Z</time></trkpt><trkpt lat="54.234157223208115" lon="30.45158360182425"><ele>197.5</ele><time>2026-05-03T10:33:59.999Z</time></trkpt><trkpt lat="54.233863051947424" lon="30.451600153945446"><ele>197.0</ele><time>2026-05-03T10:34:00.999Z</time></trkpt><trkpt lat="54.23357198748748" lon="30.451616534677356"><ele>197.0</ele><time>2026-05-03T10:34:01.999Z</time></trkpt><trkpt lat="54.233278847092706" lon="30.4516380541932"><ele>197.0</ele><time>2026-05-03T10:34:02.999Z</time></trkpt><trkpt lat="54.23299349431912" lon="30.451742955991012"><ele>196.0</ele><time>2026-05-03T10:34:03.999Z</time></trkpt><trkpt lat="54.2327022256601" lon="30.45176250826695"><ele>195.0</ele><time>2026-05-03T10:34:04.999Z</time></trkpt><trkpt lat="54.23241305355503" lon="30.451775684213853"><ele>193.5</ele><time>2026-05-03T10:34:05.999Z</time></trkpt><trkpt lat="54.23212130025099" lon="30.451787613677855"><ele>192.0</ele><time>2026-05-03T10:34:06.999Z</time></trkpt><trkpt lat="54.23182682713045" lon="30.451802197909934"><ele>192.0</ele><time>2026-05-03T10:34:07.999Z</time></trkpt><trkpt lat="54.23152488470892" lon="30.45182503623396"><ele>192.0</ele><time>2026-05-03T10:34:08.999Z</time></trkpt><trkpt lat="54.231228516621535" lon="30.451841623060254"><ele>192.0</ele><time>2026-05-03T10:34:09.999Z</time></trkpt><trkpt lat="54.23092995770885" lon="30.45186252644997"><ele>192.0</ele><time>2026-05-03T10:34:10.999Z</time></trkpt><trkpt lat="54.230631748886005" lon="30.45188179748665"><ele>192.0</ele><time>2026-05-03T10:34:11.999Z</time></trkpt><trkpt lat="54.23033096826441" lon="30.45190147595806"><ele>192.0</ele><time>2026-05-03T10:34:13.001Z</time></trkpt><trkpt lat="54.230039549807415" lon="30.45190175666873"><ele>193.5</ele><time>2026-05-03T10:34:14.001Z</time></trkpt><trkpt lat="54.22974399513955" lon="30.451914043819272"><ele>195.0</ele><time>2026-05-03T10:34:15.001Z</time></trkpt><trkpt lat="54.229453159576934" lon="30.451922444130226"><ele>195.0</ele><time>2026-05-03T10:34:16.001Z</time></trkpt><trkpt lat="54.229162772516105" lon="30.451934015165595"><ele>195.0</ele><time>2026-05-03T10:34:17.001Z</time></trkpt><trkpt lat="54.2288763283214" lon="30.45195599195472"><ele>196.0</ele><time>2026-05-03T10:34:18.001Z</time></trkpt><trkpt lat="54.228589011677705" lon="30.451966781157992"><ele>197.0</ele><time>2026-05-03T10:34:19.001Z</time></trkpt><trkpt lat="54.2283017820763" lon="30.45198001826684"><ele>197.0</ele><time>2026-05-03T10:34:20.001Z</time></trkpt><trkpt lat="54.22801827161093" lon="30.45198808452186"><ele>197.0</ele><time>2026-05-03T10:34:21.001Z</time></trkpt><trkpt lat="54.22773215238465" lon="30.452006897395247"><ele>197.0</ele><time>2026-05-03T10:34:22.001Z</time></trkpt><trkpt lat="54.227447485185394" lon="30.452026984950088"><ele>197.0</ele><time>2026-05-03T10:34:23.001Z</time></trkpt><trkpt lat="54.227160098990446" lon="30.45204879320627"><ele>198.0</ele><time>2026-05-03T10:34:24.001Z</time></trkpt><trkpt lat="54.22687083310602" lon="30.452066362254424"><ele>199.0</ele><time>2026-05-03T10:34:25.001Z</time></trkpt><trkpt lat="54.22658057406107" lon="30.45207204561899"><ele>199.5</ele><time>2026-05-03T10:34:26.001Z</time></trkpt><trkpt lat="54.22628679289759" lon="30.452092315909137"><ele>200.0</ele><time>2026-05-03T10:34:27.001Z</time></trkpt><trkpt lat="54.225990465690835" lon="30.45210553015043"><ele>200.0</ele><time>2026-05-03T10:34:28.001Z</time></trkpt><trkpt lat="54.2256930781101" lon="30.452119140391513"><ele>200.0</ele><time>2026-05-03T10:34:29.001Z</time></trkpt><trkpt lat="54.22539451593184" lon="30.45214173106809"><ele>200.0</ele><time>2026-05-03T10:34:30.001Z</time></trkpt><trkpt lat="54.225092453007605" lon="30.45216230385807"><ele>200.0</ele><time>2026-05-03T10:34:31.001Z</time></trkpt><trkpt lat="54.22478868747782" lon="30.452177784511225"><ele>200.0</ele><time>2026-05-03T10:34:32.001Z</time></trkpt><trkpt lat="54.22449045334825" lon="30.45218216651828"><ele>200.0</ele><time>2026-05-03T10:34:33.001Z</time></trkpt><trkpt lat="54.22419178057807" lon="30.452194213007626"><ele>201.0</ele><time>2026-05-03T10:34:34.001Z</time></trkpt><trkpt lat="54.2238958648462" lon="30.452215974058305"><ele>202.0</ele><time>2026-05-03T10:34:35.001Z</time></trkpt><trkpt lat="54.22359761342581" lon="30.452227568858486"><ele>202.0</ele><time>2026-05-03T10:34:36Z</time></trkpt><trkpt lat="54.223299135616834" lon="30.452237686596153"><ele>202.0</ele><time>2026-05-03T10:34:37Z</time></trkpt><trkpt lat="54.2230023216614" lon="30.4522495509537"><ele>201.5</ele><time>2026-05-03T10:34:38Z</time></trkpt><trkpt lat="54.22270875066374" lon="30.452257124285786"><ele>201.0</ele><time>2026-05-03T10:34:39Z</time></trkpt><trkpt lat="54.22242287378879" lon="30.452274532524097"><ele>201.0</ele><time>2026-05-03T10:34:40Z</time></trkpt><trkpt lat="54.222140435449724" lon="30.452298129888838"><ele>201.0</ele><time>2026-05-03T10:34:41Z</time></trkpt><trkpt lat="54.22186676471953" lon="30.452310853360448"><ele>201.0</ele><time>2026-05-03T10:34:42Z</time></trkpt><trkpt lat="54.221608415507056" lon="30.452327639845432"><ele>201.0</ele><time>2026-05-03T10:34:43Z</time></trkpt><trkpt lat="54.22134246928956" lon="30.45233895395555"><ele>201.0</ele><time>2026-05-03T10:34:44Z</time></trkpt><trkpt lat="54.22107097624252" lon="30.45235600667263"><ele>201.0</ele><time>2026-05-03T10:34:45Z</time></trkpt><trkpt lat="54.22080848154061" lon="30.452372931692363"><ele>202.0</ele><time>2026-05-03T10:34:46Z</time></trkpt><trkpt lat="54.220541533791796" lon="30.452396367137606"><ele>203.0</ele><time>2026-05-03T10:34:47Z</time></trkpt><trkpt lat="54.22027514615339" lon="30.452404621966206"><ele>203.0</ele><time>2026-05-03T10:34:48Z</time></trkpt><trkpt lat="54.220005362124205" lon="30.452411087483902"><ele>203.0</ele><time>2026-05-03T10:34:49Z</time></trkpt><trkpt lat="54.21973690440934" lon="30.452414944485685"><ele>203.5</ele><time>2026-05-03T10:34:50Z</time></trkpt><trkpt lat="54.219464268959115" lon="30.45242575830839"><ele>204.0</ele><time>2026-05-03T10:34:51Z</time></trkpt><trkpt lat="54.219191363788205" lon="30.45244420296373"><ele>203.0</ele><time>2026-05-03T10:34:52Z</time></trkpt><trkpt lat="54.21891606125261" lon="30.45246256214261"><ele>202.0</ele><time>2026-05-03T10:34:53Z</time></trkpt><trkpt lat="54.21863708241572" lon="30.452484256555074"><ele>202.0</ele><time>2026-05-03T10:34:54Z</time></trkpt><trkpt lat="54.21835825886114" lon="30.45250625234118"><ele>202.0</ele><time>2026-05-03T10:34:55Z</time></trkpt><trkpt lat="54.21807637395543" lon="30.452527390964317"><ele>202.0</ele><time>2026-05-03T10:34:56Z</time></trkpt><trkpt lat="54.21779156744773" lon="30.452546805202847"><ele>202.0</ele><time>2026-05-03T10:34:57Z</time></trkpt><trkpt lat="54.217502140394444" lon="30.45255401859504"><ele>200.5</ele><time>2026-05-03T10:34:58Z</time></trkpt><trkpt lat="54.21721754228937" lon="30.452564853174238"><ele>199.0</ele><time>2026-05-03T10:34:59Z</time></trkpt><trkpt lat="54.21692772881435" lon="30.452578224258048"><ele>199.0</ele><time>2026-05-03T10:35:00Z</time></trkpt><trkpt lat="54.21663215934296" lon="30.45259923634537"><ele>199.0</ele><time>2026-05-03T10:35:01Z</time></trkpt><trkpt lat="54.21633861603812" lon="30.45261668278429"><ele>199.0</ele><time>2026-05-03T10:35:02Z</time></trkpt><trkpt lat="54.21605052685858" lon="30.45263582464859"><ele>199.0</ele><time>2026-05-03T10:35:03Z</time></trkpt><trkpt lat="54.21578151076912" lon="30.452655373790343"><ele>199.0</ele><time>2026-05-03T10:35:04Z</time></trkpt><trkpt lat="54.21553209400608" lon="30.452671517201235"><ele>199.0</ele><time>2026-05-03T10:35:05Z</time></trkpt><trkpt lat="54.21528026361312" lon="30.452683886618065"><ele>199.0</ele><time>2026-05-03T10:35:06Z</time></trkpt><trkpt lat="54.215024812318674" lon="30.45259066916402"><ele>199.0</ele><time>2026-05-03T10:35:07Z</time></trkpt><trkpt lat="54.21478248522166" lon="30.452603747157063"><ele>198.5</ele><time>2026-05-03T10:35:08Z</time></trkpt><trkpt lat="54.21453798814818" lon="30.452617291719356"><ele>198.0</ele><time>2026-05-03T10:35:09Z</time></trkpt><trkpt lat="54.21429839776234" lon="30.45263052427721"><ele>198.0</ele><time>2026-05-03T10:35:10Z</time></trkpt><trkpt lat="54.214053611902706" lon="30.452644853947252"><ele>198.0</ele><time>2026-05-03T10:35:11Z</time></trkpt><trkpt lat="54.21381581533823" lon="30.452659539665376"><ele>199.0</ele><time>2026-05-03T10:35:12Z</time></trkpt><trkpt lat="54.21358345059444" lon="30.452673499864716"><ele>200.0</ele><time>2026-05-03T10:35:13Z</time></trkpt><trkpt lat="54.213362473811365" lon="30.45268677588705"><ele>199.66666666666669</ele><time>2026-05-03T10:35:14Z</time></trkpt><trkpt lat="54.213154086359665" lon="30.452699295567093"><ele>199.33333333333331</ele><time>2026-05-03T10:35:15Z</time></trkpt><trkpt lat="54.2129441862857" lon="30.452711710562777"><ele>199.0</ele><time>2026-05-03T10:35:16Z</time></trkpt><trkpt lat="54.21273960641118" lon="30.45272377988732"><ele>199.0</ele><time>2026-05-03T10:35:17Z</time></trkpt><trkpt lat="54.21253612584039" lon="30.452736377518473"><ele>199.0</ele><time>2026-05-03T10:35:18Z</time></trkpt><trkpt lat="54.21234777716408" lon="30.452747963087702"><ele>199.0</ele><time>2026-05-03T10:35:19Z</time></trkpt><trkpt lat="54.212153811594575" lon="30.452759713262413"><ele>198.33333333333331</ele><time>2026-05-03T10:35:20Z</time></trkpt><trkpt lat="54.21197812622991" lon="30.45276991257455"><ele>197.66666666666669</ele><time>2026-05-03T10:35:21Z</time></trkpt><trkpt lat="54.211802968919905" lon="30.452780459978626"><ele>197.0</ele><time>2026-05-03T10:35:22Z</time></trkpt><trkpt lat="54.21161648495492" lon="30.452791957801594"><ele>197.0</ele><time>2026-05-03T10:35:23Z</time></trkpt><trkpt lat="54.21143455379296" lon="30.452803395610776"><ele>197.0</ele><time>2026-05-03T10:35:24Z</time></trkpt><trkpt lat="54.211257873888236" lon="30.452814114919235"><ele>197.0</ele><time>2026-05-03T10:35:25Z</time></trkpt><trkpt lat="54.211075533341734" lon="30.45282518095761"><ele>197.0</ele><time>2026-05-03T10:35:26Z</time></trkpt><trkpt lat="54.21091048625286" lon="30.45283519448431"><ele>197.0</ele><time>2026-05-03T10:35:27Z</time></trkpt><trkpt lat="54.21075481135725" lon="30.452844639418707"><ele>197.0</ele><time>2026-05-03T10:35:28Z</time></trkpt><trkpt lat="54.210608991417295" lon="30.452852642211965"><ele>197.5</ele><time>2026-05-03T10:35:29Z</time></trkpt><trkpt lat="54.21046728342189" lon="30.45286137083448"><ele>198.0</ele><time>2026-05-03T10:35:30Z</time></trkpt><trkpt lat="54.21032914281658" lon="30.45286987972636"><ele>198.5</ele><time>2026-05-03T10:35:31Z</time></trkpt><trkpt lat="54.21018870793405" lon="30.45287852989959"><ele>199.0</ele><time>2026-05-03T10:35:32Z</time></trkpt><trkpt lat="54.210051514999705" lon="30.45288698040679"><ele>199.0</ele><time>2026-05-03T10:35:33Z</time></trkpt><trkpt lat="54.209917470850314" lon="30.452894657300245"><ele>199.0</ele><time>2026-05-03T10:35:34Z</time></trkpt><trkpt lat="54.20978460201387" lon="30.45290248072568"><ele>199.0</ele><time>2026-05-03T10:35:35Z</time></trkpt><trkpt lat="54.209651006528695" lon="30.45291157366412"><ele>199.0</ele><time>2026-05-03T10:35:36Z</time></trkpt><trkpt lat="54.20951162301657" lon="30.452919641438594"><ele>199.25</ele><time>2026-05-03T10:35:37Z</time></trkpt><trkpt lat="54.20936791852276" lon="30.452926663282003"><ele>199.5</ele><time>2026-05-03T10:35:38Z</time></trkpt><trkpt lat="54.20922050002126" lon="30.452934432373645"><ele>199.75</ele><time>2026-05-03T10:35:39Z</time></trkpt><trkpt lat="54.20906930577593" lon="30.45294181785477"><ele>200.0</ele><time>2026-05-03T10:35:40Z</time></trkpt><trkpt lat="54.20891179555581" lon="30.45294936420876"><ele>199.0</ele><time>2026-05-03T10:35:41Z</time></trkpt><trkpt lat="54.20875013485842" lon="30.452957567635654"><ele>198.0</ele><time>2026-05-03T10:35:41.999Z</time></trkpt><trkpt lat="54.208574647895766" lon="30.452966539390346"><ele>197.0</ele><time>2026-05-03T10:35:42.999Z</time></trkpt><trkpt lat="54.208393064718535" lon="30.45297599328522"><ele>197.0</ele><time>2026-05-03T10:35:43.999Z</time></trkpt><trkpt lat="54.208194050293365" lon="30.45298632944777"><ele>197.0</ele><time>2026-05-03T10:35:44.999Z</time></trkpt><trkpt lat="54.20799284223044" lon="30.452996816552908"><ele>197.0</ele><time>2026-05-03T10:35:45.999Z</time></trkpt><trkpt lat="54.20777911680915" lon="30.453008767711903"><ele>197.33333333333334</ele><time>2026-05-03T10:35:46.999Z</time></trkpt><trkpt lat="54.207569674396844" lon="30.45302048509007"><ele>197.66666666666669</ele><time>2026-05-03T10:35:47.999Z</time></trkpt><trkpt lat="54.207366942517254" lon="30.453030970681684"><ele>198.0</ele><time>2026-05-03T10:35:48.999Z</time></trkpt><trkpt lat="54.207173567775364" lon="30.453041449685106"><ele>198.33333333333331</ele><time>2026-05-03T10:35:49.999Z</time></trkpt><trkpt lat="54.20698574853476" lon="30.453052079562294"><ele>198.66666666666666</ele><time>2026-05-03T10:35:50.999Z</time></trkpt><trkpt lat="54.206781197704885" lon="30.45306366406861"><ele>199.0</ele><time>2026-05-03T10:35:51.999Z</time></trkpt><trkpt lat="54.20655275255668" lon="30.45307867693743"><ele>199.5</ele><time>2026-05-03T10:35:52.999Z</time></trkpt><trkpt lat="54.2063078236813" lon="30.45309316389273"><ele>200.0</ele><time>2026-05-03T10:35:53.999Z</time></trkpt><trkpt lat="54.20605689665741" lon="30.45310881270186"><ele>200.0</ele><time>2026-05-03T10:35:54.999Z</time></trkpt><trkpt lat="54.2058124199666" lon="30.45312303746946"><ele>200.0</ele><time>2026-05-03T10:35:55.999Z</time></trkpt><trkpt lat="54.205573931617096" lon="30.453137540264226"><ele>200.0</ele><time>2026-05-03T10:35:56.999Z</time></trkpt><trkpt lat="54.205322772626396" lon="30.453152875697377"><ele>200.0</ele><time>2026-05-03T10:35:57.999Z</time></trkpt><trkpt lat="54.20506803335439" lon="30.453168429792974"><ele>200.0</ele><time>2026-05-03T10:35:58.999Z</time></trkpt><trkpt lat="54.20480010964625" lon="30.453184583437764"><ele>200.0</ele><time>2026-05-03T10:35:59.999Z</time></trkpt><trkpt lat="54.204525855278774" lon="30.45320179162923"><ele>200.0</ele><time>2026-05-03T10:36:00.999Z</time></trkpt><trkpt lat="54.20424355217229" lon="30.453216249255828"><ele>200.0</ele><time>2026-05-03T10:36:01.999Z</time></trkpt><trkpt lat="54.20396768732865" lon="30.453230635226657"><ele>200.5</ele><time>2026-05-03T10:36:02.999Z</time></trkpt><trkpt lat="54.203685904999084" lon="30.453244485034155"><ele>201.0</ele><time>2026-05-03T10:36:03.999Z</time></trkpt><trkpt lat="54.20339611534112" lon="30.4532589642416"><ele>200.0</ele><time>2026-05-03T10:36:04.999Z</time></trkpt><trkpt lat="54.20310492583717" lon="30.453273853023326"><ele>199.0</ele><time>2026-05-03T10:36:05.999Z</time></trkpt><trkpt lat="54.202814790769935" lon="30.453288986401496"><ele>199.0</ele><time>2026-05-03T10:36:06.999Z</time></trkpt><trkpt lat="54.202519102977426" lon="30.453304422231785"><ele>199.0</ele><time>2026-05-03T10:36:07.999Z</time></trkpt><trkpt lat="54.202229199506675" lon="30.453318354707704"><ele>199.5</ele><time>2026-05-03T10:36:08.999Z</time></trkpt><trkpt lat="54.201951537393434" lon="30.45333260828916"><ele>200.0</ele><time>2026-05-03T10:36:09.999Z</time></trkpt><trkpt lat="54.20166840065826" lon="30.45334695174312"><ele>200.5</ele><time>2026-05-03T10:36:10.999Z</time></trkpt><trkpt lat="54.20137715693053" lon="30.453362549896532"><ele>201.0</ele><time>2026-05-03T10:36:11.999Z</time></trkpt><trkpt lat="54.20108844072049" lon="30.453377176324953"><ele>201.0</ele><time>2026-05-03T10:36:12.999Z</time></trkpt><trkpt lat="54.20079693815298" lon="30.453391369676282"><ele>201.0</ele><time>2026-05-03T10:36:13.999Z</time></trkpt><trkpt lat="54.20050005641608" lon="30.453406103420463"><ele>201.0</ele><time>2026-05-03T10:36:14.999Z</time></trkpt><trkpt lat="54.20020389038343" lon="30.4534213581475"><ele>201.0</ele><time>2026-05-03T10:36:15.999Z</time></trkpt><trkpt lat="54.19990757461565" lon="30.453437042586984"><ele>201.0</ele><time>2026-05-03T10:36:16.999Z</time></trkpt><trkpt lat="54.199615142736945" lon="30.45345175641667"><ele>201.0</ele><time>2026-05-03T10:36:17.999Z</time></trkpt><trkpt lat="54.19930635419629" lon="30.453466739462087"><ele>201.0</ele><time>2026-05-03T10:36:19.001Z</time></trkpt><trkpt lat="54.199009297368384" lon="30.453482180644084"><ele>201.0</ele><time>2026-05-03T10:36:20.001Z</time></trkpt><trkpt lat="54.19871079276048" lon="30.453498284774074"><ele>201.0</ele><time>2026-05-03T10:36:21.001Z</time></trkpt><trkpt lat="54.198416920407226" lon="30.453512932187515"><ele>201.0</ele><time>2026-05-03T10:36:22.001Z</time></trkpt><trkpt lat="54.19812241690409" lon="30.453528629434057"><ele>201.5</ele><time>2026-05-03T10:36:23.001Z</time></trkpt><trkpt lat="54.1978262287057" lon="30.4535454205529"><ele>202.0</ele><time>2026-05-03T10:36:24.001Z</time></trkpt><trkpt lat="54.19752901152008" lon="30.4535619265211"><ele>200.5</ele><time>2026-05-03T10:36:25.001Z</time></trkpt><trkpt lat="54.19723770078533" lon="30.453578833922894"><ele>199.0</ele><time>2026-05-03T10:36:26.001Z</time></trkpt><trkpt lat="54.19693868100998" lon="30.453595590986122"><ele>199.0</ele><time>2026-05-03T10:36:27.001Z</time></trkpt><trkpt lat="54.19665292013318" lon="30.45361190879723"><ele>199.0</ele><time>2026-05-03T10:36:28.001Z</time></trkpt><trkpt lat="54.19636589081411" lon="30.45362823321811"><ele>199.5</ele><time>2026-05-03T10:36:29.001Z</time></trkpt><trkpt lat="54.19608441871708" lon="30.453644146313607"><ele>200.0</ele><time>2026-05-03T10:36:30.001Z</time></trkpt><trkpt lat="54.19579759638906" lon="30.453659953763125"><ele>201.0</ele><time>2026-05-03T10:36:31.001Z</time></trkpt><trkpt lat="54.19551918101035" lon="30.453675768613678"><ele>202.0</ele><time>2026-05-03T10:36:32.001Z</time></trkpt><trkpt lat="54.19524050373335" lon="30.453691432371038"><ele>202.0</ele><time>2026-05-03T10:36:33.001Z</time></trkpt><trkpt lat="54.19495872690187" lon="30.453707652699997"><ele>202.0</ele><time>2026-05-03T10:36:34.001Z</time></trkpt><trkpt lat="54.19468115632151" lon="30.453722570513904"><ele>202.0</ele><time>2026-05-03T10:36:35.001Z</time></trkpt><trkpt lat="54.19439512093847" lon="30.453740029617226"><ele>202.0</ele><time>2026-05-03T10:36:36.001Z</time></trkpt><trkpt lat="54.194119274305606" lon="30.453756866381372"><ele>202.0</ele><time>2026-05-03T10:36:37.001Z</time></trkpt><trkpt lat="54.19383586474497" lon="30.453777858399416"><ele>202.0</ele><time>2026-05-03T10:36:38.001Z</time></trkpt><trkpt lat="54.19355494208171" lon="30.453861740961848"><ele>203.0</ele><time>2026-05-03T10:36:39.001Z</time></trkpt><trkpt lat="54.19326744586137" lon="30.453877517710815"><ele>204.0</ele><time>2026-05-03T10:36:40.001Z</time></trkpt><trkpt lat="54.192985852121055" lon="30.453895966354235"><ele>205.0</ele><time>2026-05-03T10:36:41.001Z</time></trkpt><trkpt lat="54.192695726044064" lon="30.45391041241099"><ele>206.0</ele><time>2026-05-03T10:36:42.001Z</time></trkpt><trkpt lat="54.192413069749605" lon="30.45392634507978"><ele>205.0</ele><time>2026-05-03T10:36:43.001Z</time></trkpt><trkpt lat="54.192125314099876" lon="30.45394349889607"><ele>204.0</ele><time>2026-05-03T10:36:44.001Z</time></trkpt><trkpt lat="54.19183449128557" lon="30.45396291242016"><ele>204.0</ele><time>2026-05-03T10:36:45.001Z</time></trkpt><trkpt lat="54.191540960051384" lon="30.453982295893606"><ele>204.0</ele><time>2026-05-03T10:36:46.001Z</time></trkpt><trkpt lat="54.19125071882083" lon="30.45399969573478"><ele>203.5</ele><time>2026-05-03T10:36:47Z</time></trkpt><trkpt lat="54.190960662400144" lon="30.45401198056835"><ele>203.0</ele><time>2026-05-03T10:36:48Z</time></trkpt><trkpt lat="54.19068798717294" lon="30.45402447591828"><ele>202.0</ele><time>2026-05-03T10:36:49Z</time></trkpt><trkpt lat="54.19042159199593" lon="30.454040560251624"><ele>201.0</ele><time>2026-05-03T10:36:50Z</time></trkpt><trkpt lat="54.19016300019794" lon="30.454060511881906"><ele>201.0</ele><time>2026-05-03T10:36:51Z</time></trkpt><trkpt lat="54.18989673017644" lon="30.454077495225192"><ele>201.0</ele><time>2026-05-03T10:36:52Z</time></trkpt><trkpt lat="54.189621547184316" lon="30.454092379044912"><ele>199.5</ele><time>2026-05-03T10:36:53Z</time></trkpt><trkpt lat="54.18934335630202" lon="30.45410398993969"><ele>198.0</ele><time>2026-05-03T10:36:54Z</time></trkpt><trkpt lat="54.189066026272556" lon="30.454116327763206"><ele>198.0</ele><time>2026-05-03T10:36:55Z</time></trkpt><trkpt lat="54.18878765032051" lon="30.454130658336865"><ele>198.0</ele><time>2026-05-03T10:36:56Z</time></trkpt><trkpt lat="54.18850819105294" lon="30.454146819285025"><ele>198.0</ele><time>2026-05-03T10:36:57Z</time></trkpt><trkpt lat="54.188227031298915" lon="30.45416719052392"><ele>198.0</ele><time>2026-05-03T10:36:58Z</time></trkpt><trkpt lat="54.187945409672274" lon="30.45418810331552"><ele>198.5</ele><time>2026-05-03T10:36:59Z</time></trkpt><trkpt lat="54.187662443060454" lon="30.454204346179157"><ele>199.0</ele><time>2026-05-03T10:37:00Z</time></trkpt><trkpt lat="54.18737973556197" lon="30.4542163730237"><ele>199.5</ele><time>2026-05-03T10:37:01Z</time></trkpt><trkpt lat="54.187096026468474" lon="30.4542306374552"><ele>200.0</ele><time>2026-05-03T10:37:02Z</time></trkpt><trkpt lat="54.1868141022608" lon="30.45424835023068"><ele>200.0</ele><time>2026-05-03T10:37:03Z</time></trkpt><trkpt lat="54.18653044675702" lon="30.45426456854549"><ele>200.0</ele><time>2026-05-03T10:37:04Z</time></trkpt><trkpt lat="54.1862450593585" lon="30.454282878234313"><ele>202.5</ele><time>2026-05-03T10:37:05Z</time></trkpt><trkpt lat="54.18595705908348" lon="30.45429665719237"><ele>205.0</ele><time>2026-05-03T10:37:06Z</time></trkpt><trkpt lat="54.18567165761968" lon="30.454311107139667"><ele>205.0</ele><time>2026-05-03T10:37:07Z</time></trkpt><trkpt lat="54.185390027879876" lon="30.454325088111705"><ele>205.0</ele><time>2026-05-03T10:37:08Z</time></trkpt><trkpt lat="54.18510219153495" lon="30.454341857219433"><ele>204.5</ele><time>2026-05-03T10:37:09Z</time></trkpt><trkpt lat="54.18481669646067" lon="30.454355873959326"><ele>204.0</ele><time>2026-05-03T10:37:10Z</time></trkpt><trkpt lat="54.184529139916506" lon="30.45437009342105"><ele>204.0</ele><time>2026-05-03T10:37:11Z</time></trkpt><trkpt lat="54.18424014064958" lon="30.454386797709287"><ele>204.0</ele><time>2026-05-03T10:37:12Z</time></trkpt><trkpt lat="54.18395739032152" lon="30.454405972764892"><ele>204.5</ele><time>2026-05-03T10:37:13Z</time></trkpt><trkpt lat="54.18367378802614" lon="30.45442276708136"><ele>205.0</ele><time>2026-05-03T10:37:14Z</time></trkpt><trkpt lat="54.1833851288986" lon="30.454441106105115"><ele>205.5</ele><time>2026-05-03T10:37:15Z</time></trkpt><trkpt lat="54.183098315771005" lon="30.454457843100123"><ele>206.0</ele><time>2026-05-03T10:37:16Z</time></trkpt><trkpt lat="54.18281756517754" lon="30.454473867475098"><ele>206.0</ele><time>2026-05-03T10:37:17Z</time></trkpt><trkpt lat="54.18253359364378" lon="30.454488173685817"><ele>206.0</ele><time>2026-05-03T10:37:18Z</time></trkpt><trkpt lat="54.18225215461151" lon="30.454501673605968"><ele>206.0</ele><time>2026-05-03T10:37:19Z</time></trkpt><trkpt lat="54.18197433356542" lon="30.454512797471644"><ele>206.0</ele><time>2026-05-03T10:37:20Z</time></trkpt><trkpt lat="54.18169827192774" lon="30.454528528080946"><ele>205.5</ele><time>2026-05-03T10:37:21Z</time></trkpt><trkpt lat="54.18141533026669" lon="30.454553511347658"><ele>205.0</ele><time>2026-05-03T10:37:22Z</time></trkpt><trkpt lat="54.181139762034476" lon="30.45457454188604"><ele>205.0</ele><time>2026-05-03T10:37:23Z</time></trkpt><trkpt lat="54.1808687333161" lon="30.454591195424666"><ele>205.0</ele><time>2026-05-03T10:37:24Z</time></trkpt><trkpt lat="54.18058974336149" lon="30.45460522878754"><ele>204.0</ele><time>2026-05-03T10:37:25Z</time></trkpt><trkpt lat="54.180312842077505" lon="30.454616256306732"><ele>203.0</ele><time>2026-05-03T10:37:26Z</time></trkpt><trkpt lat="54.18003111412112" lon="30.454635069028253"><ele>202.5</ele><time>2026-05-03T10:37:27Z</time></trkpt><trkpt lat="54.179755701559934" lon="30.454648042716926"><ele>202.0</ele><time>2026-05-03T10:37:28Z</time></trkpt><trkpt lat="54.179475333744215" lon="30.454661651001672"><ele>202.0</ele><time>2026-05-03T10:37:29Z</time></trkpt><trkpt lat="54.17919243496997" lon="30.454675489967343"><ele>202.0</ele><time>2026-05-03T10:37:30Z</time></trkpt><trkpt lat="54.178912551079016" lon="30.45468862263523"><ele>202.0</ele><time>2026-05-03T10:37:31Z</time></trkpt><trkpt lat="54.17865630538124" lon="30.454703292269915"><ele>202.0</ele><time>2026-05-03T10:37:32Z</time></trkpt><trkpt lat="54.17840561386722" lon="30.454716438207605"><ele>199.5</ele><time>2026-05-03T10:37:33Z</time></trkpt><trkpt lat="54.17816905522497" lon="30.454733784637416"><ele>197.0</ele><time>2026-05-03T10:37:34Z</time></trkpt><trkpt lat="54.17793793649608" lon="30.454744739475025"><ele>197.0</ele><time>2026-05-03T10:37:35Z</time></trkpt><trkpt lat="54.1777077785318" lon="30.454750329298577"><ele>197.0</ele><time>2026-05-03T10:37:36Z</time></trkpt><trkpt lat="54.177478064401335" lon="30.45476323526734"><ele>196.0</ele><time>2026-05-03T10:37:37Z</time></trkpt><trkpt lat="54.17722373281984" lon="30.454779474494057"><ele>195.0</ele><time>2026-05-03T10:37:38Z</time></trkpt><trkpt lat="54.17696699229065" lon="30.45479767139575"><ele>195.0</ele><time>2026-05-03T10:37:39Z</time></trkpt><trkpt lat="54.176699462929705" lon="30.45481164667649"><ele>195.0</ele><time>2026-05-03T10:37:40Z</time></trkpt><trkpt lat="54.17644501309918" lon="30.454751865403324"><ele>196.0</ele><time>2026-05-03T10:37:41Z</time></trkpt><trkpt lat="54.176224226996446" lon="30.454765554998108"><ele>197.0</ele><time>2026-05-03T10:37:41.999Z</time></trkpt><trkpt lat="54.176040953453274" lon="30.45477674843229"><ele>198.0</ele><time>2026-05-03T10:37:42.999Z</time></trkpt><trkpt lat="54.17585695244619" lon="30.454787680423784"><ele>198.66666666666669</ele><time>2026-05-03T10:37:43.999Z</time></trkpt><trkpt lat="54.17566120066238" lon="30.45479949574371"><ele>199.33333333333334</ele><time>2026-05-03T10:37:44.999Z</time></trkpt><trkpt lat="54.175454264214" lon="30.45481193814884"><ele>200.0</ele><time>2026-05-03T10:37:45.999Z</time></trkpt><trkpt lat="54.175259852157275" lon="30.454823515227854"><ele>200.0</ele><time>2026-05-03T10:37:46.999Z</time></trkpt><trkpt lat="54.17506749062581" lon="30.45483498002652"><ele>200.0</ele><time>2026-05-03T10:37:47.999Z</time></trkpt><trkpt lat="54.17487257950365" lon="30.45484694841086"><ele>200.0</ele><time>2026-05-03T10:37:48.998Z</time></trkpt><trkpt lat="54.17468667081897" lon="30.45485820630647"><ele>199.66666666666669</ele><time>2026-05-03T10:37:49.998Z</time></trkpt><trkpt lat="54.17450338621344" lon="30.454868512625215"><ele>199.33333333333331</ele><time>2026-05-03T10:37:50.998Z</time></trkpt><trkpt lat="54.174316655154335" lon="30.45487983082161"><ele>199.0</ele><time>2026-05-03T10:37:51.998Z</time></trkpt><trkpt lat="54.174137395434315" lon="30.454890696158206"><ele>195.66666666666666</ele><time>2026-05-03T10:37:52.998Z</time></trkpt><trkpt lat="54.173971569665355" lon="30.454900496781732"><ele>192.33333333333331</ele><time>2026-05-03T10:37:53.998Z</time></trkpt><trkpt lat="54.17380766669983" lon="30.4549098032217"><ele>189.0</ele><time>2026-05-03T10:37:54.998Z</time></trkpt><trkpt lat="54.17363274366608" lon="30.45491973538987"><ele>189.0</ele><time>2026-05-03T10:37:55.998Z</time></trkpt><trkpt lat="54.17345913289687" lon="30.454929473940453"><ele>189.0</ele><time>2026-05-03T10:37:56.998Z</time></trkpt><trkpt lat="54.17329333929705" lon="30.454938734338526"><ele>189.0</ele><time>2026-05-03T10:37:57.998Z</time></trkpt><trkpt lat="54.17312331428514" lon="30.454948231161016"><ele>188.0</ele><time>2026-05-03T10:37:58.998Z</time></trkpt><trkpt lat="54.17294491427338" lon="30.454962536446885"><ele>187.0</ele><time>2026-05-03T10:37:59.998Z</time></trkpt><trkpt lat="54.17277336286628" lon="30.454974905719407"><ele>186.0</ele><time>2026-05-03T10:38:00.998Z</time></trkpt><trkpt lat="54.172601051424714" lon="30.45498728281756"><ele>186.0</ele><time>2026-05-03T10:38:01.998Z</time></trkpt><trkpt lat="54.17243282765984" lon="30.454999363166436"><ele>186.0</ele><time>2026-05-03T10:38:02.998Z</time></trkpt><trkpt lat="54.17226678208663" lon="30.45501059737663"><ele>186.0</ele><time>2026-05-03T10:38:03.998Z</time></trkpt><trkpt lat="54.17210719415953" lon="30.45502239885276"><ele>185.0</ele><time>2026-05-03T10:38:04.998Z</time></trkpt><trkpt lat="54.171954525732815" lon="30.455033493650976"><ele>184.0</ele><time>2026-05-03T10:38:05.998Z</time></trkpt><trkpt lat="54.17181643517306" lon="30.455043148625663"><ele>183.0</ele><time>2026-05-03T10:38:06.998Z</time></trkpt><trkpt lat="54.17167638681958" lon="30.455048178928152"><ele>182.0</ele><time>2026-05-03T10:38:07.998Z</time></trkpt><trkpt lat="54.171527413354234" lon="30.4550518763383"><ele>182.0</ele><time>2026-05-03T10:38:08.998Z</time></trkpt><trkpt lat="54.17137660793739" lon="30.455060035363978"><ele>182.0</ele><time>2026-05-03T10:38:09.998Z</time></trkpt><trkpt lat="54.17122267568044" lon="30.455067632148776"><ele>182.0</ele><time>2026-05-03T10:38:10.998Z</time></trkpt><trkpt lat="54.171082835087056" lon="30.45507463338751"><ele>182.0</ele><time>2026-05-03T10:38:11.998Z</time></trkpt><trkpt lat="54.17093400392941" lon="30.455082084751844"><ele>182.0</ele><time>2026-05-03T10:38:12.998Z</time></trkpt><trkpt lat="54.17078479367204" lon="30.455090413645163"><ele>182.0</ele><time>2026-05-03T10:38:13.998Z</time></trkpt><trkpt lat="54.170629153525404" lon="30.45510017218344"><ele>182.0</ele><time>2026-05-03T10:38:14.998Z</time></trkpt><trkpt lat="54.170467985851985" lon="30.455110749778505"><ele>184.33333333333331</ele><time>2026-05-03T10:38:15.998Z</time></trkpt><trkpt lat="54.17029961448803" lon="30.455121887651046"><ele>186.66666666666666</ele><time>2026-05-03T10:38:16.998Z</time></trkpt><trkpt lat="54.17013432887718" lon="30.455224593288275"><ele>189.0</ele><time>2026-05-03T10:38:17.998Z</time></trkpt><trkpt lat="54.16997196899505" lon="30.45523171669906"><ele>189.0</ele><time>2026-05-03T10:38:18.998Z</time></trkpt><trkpt lat="54.16980489232305" lon="30.455240265824866"><ele>189.0</ele><time>2026-05-03T10:38:19.998Z</time></trkpt><trkpt lat="54.16962051896682" lon="30.45525775212824"><ele>189.0</ele><time>2026-05-03T10:38:20.998Z</time></trkpt><trkpt lat="54.16941924533145" lon="30.45527396124036"><ele>189.0</ele><time>2026-05-03T10:38:21.998Z</time></trkpt><trkpt lat="54.16920334690336" lon="30.455288128283698"><ele>189.0</ele><time>2026-05-03T10:38:22.998Z</time></trkpt><trkpt lat="54.16898393947387" lon="30.455304707148372"><ele>189.0</ele><time>2026-05-03T10:38:23.998Z</time></trkpt><trkpt lat="54.16875144947529" lon="30.455315344411737"><ele>189.0</ele><time>2026-05-03T10:38:25Z</time></trkpt><trkpt lat="54.16850238187502" lon="30.45532733004895"><ele>189.0</ele><time>2026-05-03T10:38:26Z</time></trkpt><trkpt lat="54.168250647725834" lon="30.45534156109724"><ele>190.5</ele><time>2026-05-03T10:38:27Z</time></trkpt><trkpt lat="54.16799287203952" lon="30.455356058856974"><ele>192.0</ele><time>2026-05-03T10:38:28Z</time></trkpt><trkpt lat="54.16774569909743" lon="30.45536823597859"><ele>192.0</ele><time>2026-05-03T10:38:29Z</time></trkpt><trkpt lat="54.16751098759102" lon="30.455385462264523"><ele>192.0</ele><time>2026-05-03T10:38:30Z</time></trkpt><trkpt lat="54.16727284582353" lon="30.45539862886049"><ele>191.5</ele><time>2026-05-03T10:38:31Z</time></trkpt><trkpt lat="54.16703158689635" lon="30.45540489228635"><ele>191.0</ele><time>2026-05-03T10:38:32Z</time></trkpt><trkpt lat="54.166801347071534" lon="30.455423273560278"><ele>191.0</ele><time>2026-05-03T10:38:33Z</time></trkpt><trkpt lat="54.16655310989946" lon="30.45543815983906"><ele>191.0</ele><time>2026-05-03T10:38:34Z</time></trkpt><trkpt lat="54.1663093896635" lon="30.45545419413654"><ele>190.0</ele><time>2026-05-03T10:38:35Z</time></trkpt><trkpt lat="54.16606688515026" lon="30.455466734528805"><ele>189.0</ele><time>2026-05-03T10:38:36Z</time></trkpt><trkpt lat="54.16581698720149" lon="30.455483365397402"><ele>190.5</ele><time>2026-05-03T10:38:37Z</time></trkpt><trkpt lat="54.16555340345936" lon="30.45549256735157"><ele>192.0</ele><time>2026-05-03T10:38:38Z</time></trkpt><trkpt lat="54.16530062777241" lon="30.4555100629499"><ele>192.0</ele><time>2026-05-03T10:38:39Z</time></trkpt><trkpt lat="54.16504485907946" lon="30.455525480964887"><ele>192.0</ele><time>2026-05-03T10:38:40Z</time></trkpt><trkpt lat="54.16478524525668" lon="30.455538050764876"><ele>193.0</ele><time>2026-05-03T10:38:41Z</time></trkpt><trkpt lat="54.16452965047336" lon="30.455550087249193"><ele>194.0</ele><time>2026-05-03T10:38:42Z</time></trkpt><trkpt lat="54.164270084438925" lon="30.455565249861948"><ele>195.0</ele><time>2026-05-03T10:38:43Z</time></trkpt><trkpt lat="54.16401202972882" lon="30.455582819004434"><ele>196.0</ele><time>2026-05-03T10:38:44Z</time></trkpt><trkpt lat="54.16375722381483" lon="30.455596431578446"><ele>196.0</ele><time>2026-05-03T10:38:45Z</time></trkpt><trkpt lat="54.1634885055079" lon="30.45560995398728"><ele>196.0</ele><time>2026-05-03T10:38:46Z</time></trkpt><trkpt lat="54.16323048432626" lon="30.45562203363462"><ele>197.5</ele><time>2026-05-03T10:38:47Z</time></trkpt><trkpt lat="54.162960355934565" lon="30.455635496350602"><ele>199.0</ele><time>2026-05-03T10:38:48Z</time></trkpt><trkpt lat="54.16269378233924" lon="30.455650392232144"><ele>199.0</ele><time>2026-05-03T10:38:49Z</time></trkpt><trkpt lat="54.16242019415542" lon="30.455670815973527"><ele>199.0</ele><time>2026-05-03T10:38:50Z</time></trkpt><trkpt lat="54.162154872882226" lon="30.455686159244873"><ele>199.0</ele><time>2026-05-03T10:38:51Z</time></trkpt><trkpt lat="54.161880871614954" lon="30.455696940880024"><ele>199.0</ele><time>2026-05-03T10:38:51.999Z</time></trkpt><trkpt lat="54.16160039021161" lon="30.45570291960103"><ele>199.0</ele><time>2026-05-03T10:38:52.999Z</time></trkpt><trkpt lat="54.16132910687236" lon="30.455719609128078"><ele>199.0</ele><time>2026-05-03T10:38:53.999Z</time></trkpt><trkpt lat="54.16104156963442" lon="30.455724394995435"><ele>199.0</ele><time>2026-05-03T10:38:54.999Z</time></trkpt><trkpt lat="54.160763746492975" lon="30.455739347150626"><ele>199.0</ele><time>2026-05-03T10:38:55.999Z</time></trkpt><trkpt lat="54.160481369696065" lon="30.455763714759854"><ele>199.0</ele><time>2026-05-03T10:38:56.999Z</time></trkpt><trkpt lat="54.16018611285818" lon="30.455781730908328"><ele>199.0</ele><time>2026-05-03T10:38:57.999Z</time></trkpt><trkpt lat="54.15990441519598" lon="30.455797630551324"><ele>198.0</ele><time>2026-05-03T10:38:58.999Z</time></trkpt><trkpt lat="54.15960378412405" lon="30.455813255907167"><ele>197.0</ele><time>2026-05-03T10:38:59.999Z</time></trkpt><trkpt lat="54.15931653185605" lon="30.455836583452164"><ele>195.5</ele><time>2026-05-03T10:39:00.999Z</time></trkpt><trkpt lat="54.15901377027745" lon="30.45584981634634"><ele>194.0</ele><time>2026-05-03T10:39:01.999Z</time></trkpt><trkpt lat="54.15871133588248" lon="30.455867660434336"><ele>194.0</ele><time>2026-05-03T10:39:02.999Z</time></trkpt><trkpt lat="54.158415384852496" lon="30.455883639798184"><ele>194.0</ele><time>2026-05-03T10:39:03.999Z</time></trkpt><trkpt lat="54.15811262046379" lon="30.45590319935054"><ele>191.5</ele><time>2026-05-03T10:39:04.999Z</time></trkpt><trkpt lat="54.157812034891535" lon="30.45592114349347"><ele>189.0</ele><time>2026-05-03T10:39:05.999Z</time></trkpt><trkpt lat="54.15750567003292" lon="30.45593857047345"><ele>186.0</ele><time>2026-05-03T10:39:06.999Z</time></trkpt><trkpt lat="54.15720109258277" lon="30.45595411678126"><ele>183.0</ele><time>2026-05-03T10:39:07.999Z</time></trkpt><trkpt lat="54.15690467503195" lon="30.455978772313962"><ele>183.0</ele><time>2026-05-03T10:39:08.999Z</time></trkpt><trkpt lat="54.15660215465773" lon="30.45599193545438"><ele>183.0</ele><time>2026-05-03T10:39:09.999Z</time></trkpt><trkpt lat="54.15629857173257" lon="30.456009522715608"><ele>182.0</ele><time>2026-05-03T10:39:10.999Z</time></trkpt><trkpt lat="54.15599919709648" lon="30.456025933858722"><ele>181.0</ele><time>2026-05-03T10:39:11.999Z</time></trkpt><trkpt lat="54.155698560386945" lon="30.456044993950105"><ele>181.0</ele><time>2026-05-03T10:39:12.999Z</time></trkpt><trkpt lat="54.155402339989344" lon="30.456067531871874"><ele>181.0</ele><time>2026-05-03T10:39:13.999Z</time></trkpt><trkpt lat="54.15511268161779" lon="30.45609466220648"><ele>180.0</ele><time>2026-05-03T10:39:14.999Z</time></trkpt><trkpt lat="54.15482800471003" lon="30.456123492944656"><ele>179.0</ele><time>2026-05-03T10:39:15.999Z</time></trkpt><trkpt lat="54.15453094756794" lon="30.456129883601605"><ele>179.0</ele><time>2026-05-03T10:39:16.999Z</time></trkpt><trkpt lat="54.15424195459148" lon="30.456141718274118"><ele>179.0</ele><time>2026-05-03T10:39:17.999Z</time></trkpt><trkpt lat="54.1539536641105" lon="30.456155330056497"><ele>180.0</ele><time>2026-05-03T10:39:18.999Z</time></trkpt><trkpt lat="54.153668839536216" lon="30.456171312287083"><ele>181.0</ele><time>2026-05-03T10:39:19.999Z</time></trkpt><trkpt lat="54.153377964594206" lon="30.456186862764746"><ele>182.0</ele><time>2026-05-03T10:39:20.999Z</time></trkpt><trkpt lat="54.153089392238826" lon="30.456207917520018"><ele>183.0</ele><time>2026-05-03T10:39:21.999Z</time></trkpt><trkpt lat="54.15280049114762" lon="30.4562291063521"><ele>183.0</ele><time>2026-05-03T10:39:22.999Z</time></trkpt><trkpt lat="54.15251583149432" lon="30.456251408012907"><ele>183.0</ele><time>2026-05-03T10:39:23.999Z</time></trkpt><trkpt lat="54.152223519133614" lon="30.456259832224642"><ele>184.5</ele><time>2026-05-03T10:39:24.999Z</time></trkpt><trkpt lat="54.15194168063816" lon="30.45627700893688"><ele>186.0</ele><time>2026-05-03T10:39:25.999Z</time></trkpt><trkpt lat="54.151652066112284" lon="30.456293780589032"><ele>187.5</ele><time>2026-05-03T10:39:26.999Z</time></trkpt><trkpt lat="54.151366132351036" lon="30.45631234472811"><ele>189.0</ele><time>2026-05-03T10:39:27.999Z</time></trkpt><trkpt lat="54.151077191588165" lon="30.45633041336017"><ele>189.0</ele><time>2026-05-03T10:39:28.999Z</time></trkpt><trkpt lat="54.150787101131314" lon="30.45634549737681"><ele>189.0</ele><time>2026-05-03T10:39:29.999Z</time></trkpt><trkpt lat="54.150498916155954" lon="30.456299829565136"><ele>191.5</ele><time>2026-05-03T10:39:30.999Z</time></trkpt><trkpt lat="54.150210980593776" lon="30.456317744845375"><ele>194.0</ele><time>2026-05-03T10:39:31.999Z</time></trkpt><trkpt lat="54.149928123852376" lon="30.456334731159636"><ele>197.5</ele><time>2026-05-03T10:39:32.999Z</time></trkpt><trkpt lat="54.14965387880083" lon="30.456352145277418"><ele>201.0</ele><time>2026-05-03T10:39:33.999Z</time></trkpt><trkpt lat="54.14939917778123" lon="30.45636806159725"><ele>201.0</ele><time>2026-05-03T10:39:34.999Z</time></trkpt><trkpt lat="54.14916193073124" lon="30.456383089651524"><ele>201.0</ele><time>2026-05-03T10:39:35.999Z</time></trkpt><trkpt lat="54.14892328000316" lon="30.45639756882122"><ele>201.0</ele><time>2026-05-03T10:39:36.999Z</time></trkpt><trkpt lat="54.14867734457171" lon="30.45641211896737"><ele>201.0</ele><time>2026-05-03T10:39:37.999Z</time></trkpt><trkpt lat="54.14843903226019" lon="30.45642780729018"><ele>199.5</ele><time>2026-05-03T10:39:38.999Z</time></trkpt><trkpt lat="54.1481998167164" lon="30.456442150858674"><ele>198.0</ele><time>2026-05-03T10:39:39.999Z</time></trkpt><trkpt lat="54.14796039563679" lon="30.456457304809774"><ele>198.0</ele><time>2026-05-03T10:39:40.999Z</time></trkpt><trkpt lat="54.1477316187032" lon="30.45647128438701"><ele>198.0</ele><time>2026-05-03T10:39:41.999Z</time></trkpt><trkpt lat="54.14750305060411" lon="30.456483322620578"><ele>198.5</ele><time>2026-05-03T10:39:42.999Z</time></trkpt><trkpt lat="54.1472791439105" lon="30.456495874471184"><ele>199.0</ele><time>2026-05-03T10:39:43.999Z</time></trkpt><trkpt lat="54.14704869544879" lon="30.45650884913752"><ele>199.0</ele><time>2026-05-03T10:39:44.999Z</time></trkpt><trkpt lat="54.146833614034634" lon="30.45652039135796"><ele>199.0</ele><time>2026-05-03T10:39:45.999Z</time></trkpt><trkpt lat="54.1466575108315" lon="30.456530145355494"><ele>199.0</ele><time>2026-05-03T10:39:46.999Z</time></trkpt><trkpt lat="54.14651939136139" lon="30.456537987484097"><ele>200.25</ele><time>2026-05-03T10:39:47.999Z</time></trkpt><trkpt lat="54.14643091024362" lon="30.45654310080168"><ele>201.5</ele><time>2026-05-03T10:39:48.999Z</time></trkpt><trkpt lat="54.146342460119406" lon="30.456548212328585"><ele>202.75</ele><time>2026-05-03T10:39:50.999Z</time></trkpt><trkpt lat="54.14630061924269" lon="30.45693657300497"><ele>204.0</ele><time>2026-05-03T10:39:52.998Z</time></trkpt><trkpt lat="54.14633516416492" lon="30.457047992163602"><ele>204.6</ele><time>2026-05-03T10:39:53.998Z</time></trkpt><trkpt lat="54.14636363503397" lon="30.45718787287609"><ele>205.2</ele><time>2026-05-03T10:39:54.998Z</time></trkpt><trkpt lat="54.14639351490925" lon="30.45733438165261"><ele>205.79999999999998</ele><time>2026-05-03T10:39:55.998Z</time></trkpt><trkpt lat="54.14642093326987" lon="30.457525757056107"><ele>206.39999999999998</ele><time>2026-05-03T10:39:56.998Z</time></trkpt><trkpt lat="54.14647177608857" lon="30.457740968699817"><ele>207.0</ele><time>2026-05-03T10:39:57.998Z</time></trkpt><trkpt lat="54.14652258170424" lon="30.457975396749582"><ele>207.0</ele><time>2026-05-03T10:39:58.998Z</time></trkpt><trkpt lat="54.14658397343436" lon="30.458222353186482"><ele>207.0</ele><time>2026-05-03T10:39:59.998Z</time></trkpt><trkpt lat="54.146650085648666" lon="30.45848667547838"><ele>207.0</ele><time>2026-05-03T10:40:00.998Z</time></trkpt><trkpt lat="54.14672360361759" lon="30.458763097792314"><ele>208.0</ele><time>2026-05-03T10:40:01.998Z</time></trkpt><trkpt lat="54.146795734709144" lon="30.459061980107087"><ele>209.0</ele><time>2026-05-03T10:40:02.998Z</time></trkpt><trkpt lat="54.14685484330214" lon="30.459387521584418"><ele>210.0</ele><time>2026-05-03T10:40:03.998Z</time></trkpt><trkpt lat="54.146916158912525" lon="30.459689211722065"><ele>210.33333333333331</ele><time>2026-05-03T10:40:04.998Z</time></trkpt><trkpt lat="54.14697330166979" lon="30.459970874218115"><ele>210.66666666666666</ele><time>2026-05-03T10:40:05.998Z</time></trkpt><trkpt lat="54.14702575963041" lon="30.460225938729856"><ele>211.0</ele><time>2026-05-03T10:40:06.998Z</time></trkpt><trkpt lat="54.14707294774081" lon="30.460459117771656"><ele>211.0</ele><time>2026-05-03T10:40:07.998Z</time></trkpt><trkpt lat="54.14711950683857" lon="30.46068951093546"><ele>211.0</ele><time>2026-05-03T10:40:08.998Z</time></trkpt><trkpt lat="54.14716540630793" lon="30.460914420504874"><ele>211.0</ele><time>2026-05-03T10:40:09.998Z</time></trkpt><trkpt lat="54.14721438328341" lon="30.461158067398696"><ele>211.0</ele><time>2026-05-03T10:40:10.998Z</time></trkpt><trkpt lat="54.14726062555361" lon="30.461407102591142"><ele>211.0</ele><time>2026-05-03T10:40:11.998Z</time></trkpt><trkpt lat="54.14727780378865" lon="30.46167773941276"><ele>211.0</ele><time>2026-05-03T10:40:12.998Z</time></trkpt><trkpt lat="54.14728651102869" lon="30.46196197313905"><ele>211.0</ele><time>2026-05-03T10:40:13.998Z</time></trkpt><trkpt lat="54.147288632630776" lon="30.46226476077713"><ele>211.0</ele><time>2026-05-03T10:40:14.998Z</time></trkpt><trkpt lat="54.14728844370009" lon="30.462578827715607"><ele>211.0</ele><time>2026-05-03T10:40:15.998Z</time></trkpt><trkpt lat="54.14728154824381" lon="30.462902118601573"><ele>211.0</ele><time>2026-05-03T10:40:16.998Z</time></trkpt><trkpt lat="54.147270703164196" lon="30.46323625384902"><ele>211.0</ele><time>2026-05-03T10:40:17.998Z</time></trkpt><trkpt lat="54.1472711569046" lon="30.46355513395957"><ele>211.0</ele><time>2026-05-03T10:40:18.998Z</time></trkpt><trkpt lat="54.147258376265754" lon="30.463896147154042"><ele>211.0</ele><time>2026-05-03T10:40:19.998Z</time></trkpt><trkpt lat="54.147250989858264" lon="30.464209035358902"><ele>211.66666666666666</ele><time>2026-05-03T10:40:20.998Z</time></trkpt><trkpt lat="54.147243886292" lon="30.464519679799334"><ele>212.33333333333331</ele><time>2026-05-03T10:40:21.998Z</time></trkpt><trkpt lat="54.14723896055367" lon="30.464848136840832"><ele>213.0</ele><time>2026-05-03T10:40:22.998Z</time></trkpt><trkpt lat="54.1472319121601" lon="30.46519416573395"><ele>213.0</ele><time>2026-05-03T10:40:23.998Z</time></trkpt><trkpt lat="54.147225188534335" lon="30.465558219836073"><ele>213.0</ele><time>2026-05-03T10:40:24.998Z</time></trkpt><trkpt lat="54.14721825798442" lon="30.465923202491762"><ele>213.0</ele><time>2026-05-03T10:40:25.998Z</time></trkpt><trkpt lat="54.147209507597076" lon="30.46629465851746"><ele>213.0</ele><time>2026-05-03T10:40:26.998Z</time></trkpt><trkpt lat="54.147207966648274" lon="30.46666230517439"><ele>213.0</ele><time>2026-05-03T10:40:27.998Z</time></trkpt><trkpt lat="54.14720600649942" lon="30.467038901488923"><ele>213.0</ele><time>2026-05-03T10:40:28.998Z</time></trkpt><trkpt lat="54.14719897910757" lon="30.467425579280075"><ele>213.0</ele><time>2026-05-03T10:40:29.998Z</time></trkpt><trkpt lat="54.147194420462675" lon="30.467822957916923"><ele>213.0</ele><time>2026-05-03T10:40:31Z</time></trkpt><trkpt lat="54.14718006448062" lon="30.46821449699327"><ele>213.0</ele><time>2026-05-03T10:40:32Z</time></trkpt><trkpt lat="54.14716982801713" lon="30.46860805771091"><ele>213.0</ele><time>2026-05-03T10:40:33Z</time></trkpt><trkpt lat="54.147158355296966" lon="30.469005654550656"><ele>213.0</ele><time>2026-05-03T10:40:34Z</time></trkpt><trkpt lat="54.14715017945663" lon="30.469401680544863"><ele>213.0</ele><time>2026-05-03T10:40:35Z</time></trkpt><trkpt lat="54.14714547105675" lon="30.469812366282575"><ele>213.0</ele><time>2026-05-03T10:40:36Z</time></trkpt><trkpt lat="54.147143247649566" lon="30.47021751302983"><ele>213.0</ele><time>2026-05-03T10:40:37Z</time></trkpt><trkpt lat="54.14714104336068" lon="30.470625394411336"><ele>212.5</ele><time>2026-05-03T10:40:38Z</time></trkpt><trkpt lat="54.14713971790602" lon="30.471041517639257"><ele>212.0</ele><time>2026-05-03T10:40:39Z</time></trkpt><trkpt lat="54.14713465074799" lon="30.47146407320175"><ele>212.0</ele><time>2026-05-03T10:40:40Z</time></trkpt><trkpt lat="54.14713438368687" lon="30.471884759188978"><ele>212.0</ele><time>2026-05-03T10:40:41Z</time></trkpt><trkpt lat="54.147111776412125" lon="30.472304239988816"><ele>210.0</ele><time>2026-05-03T10:40:42Z</time></trkpt><trkpt lat="54.14710385499452" lon="30.472712010877547"><ele>208.0</ele><time>2026-05-03T10:40:43Z</time></trkpt><trkpt lat="54.1470961472948" lon="30.473140797724014"><ele>206.0</ele><time>2026-05-03T10:40:44Z</time></trkpt><trkpt lat="54.14708803041665" lon="30.473571901174783"><ele>204.0</ele><time>2026-05-03T10:40:45Z</time></trkpt><trkpt lat="54.14707926157047" lon="30.474008463309666"><ele>203.5</ele><time>2026-05-03T10:40:46Z</time></trkpt><trkpt lat="54.14707565444148" lon="30.474460312958204"><ele>203.0</ele><time>2026-05-03T10:40:47Z</time></trkpt><trkpt lat="54.14705578586432" lon="30.474902785051974"><ele>202.0</ele><time>2026-05-03T10:40:48Z</time></trkpt><trkpt lat="54.14703552116483" lon="30.475357720867624"><ele>201.0</ele><time>2026-05-03T10:40:49Z</time></trkpt><trkpt lat="54.147017378886275" lon="30.475814017679"><ele>204.5</ele><time>2026-05-03T10:40:50Z</time></trkpt><trkpt lat="54.147010289242374" lon="30.476263066649057"><ele>208.0</ele><time>2026-05-03T10:40:51Z</time></trkpt><trkpt lat="54.14699980760259" lon="30.476721023170015"><ele>209.5</ele><time>2026-05-03T10:40:52Z</time></trkpt><trkpt lat="54.14698173110106" lon="30.477196946757964"><ele>211.0</ele><time>2026-05-03T10:40:53Z</time></trkpt><trkpt lat="54.14696192979528" lon="30.47766906526728"><ele>210.5</ele><time>2026-05-03T10:40:54Z</time></trkpt><trkpt lat="54.14693656101163" lon="30.4781355917399"><ele>210.0</ele><time>2026-05-03T10:40:55Z</time></trkpt><trkpt lat="54.14691880133714" lon="30.47859971722437"><ele>210.0</ele><time>2026-05-03T10:40:56Z</time></trkpt><trkpt lat="54.14691002390644" lon="30.479070764200657"><ele>210.0</ele><time>2026-05-03T10:40:56.999Z</time></trkpt><trkpt lat="54.14690801200897" lon="30.479541235937965"><ele>207.5</ele><time>2026-05-03T10:40:57.999Z</time></trkpt><trkpt lat="54.14691174122087" lon="30.48002065711566"><ele>205.0</ele><time>2026-05-03T10:40:58.999Z</time></trkpt><trkpt lat="54.14691919694721" lon="30.480500974719934"><ele>204.0</ele><time>2026-05-03T10:40:59.999Z</time></trkpt><trkpt lat="54.14693250132313" lon="30.480971138679056"><ele>203.0</ele><time>2026-05-03T10:41:00.999Z</time></trkpt><trkpt lat="54.146950699041604" lon="30.481459708963552"><ele>202.0</ele><time>2026-05-03T10:41:01.999Z</time></trkpt><trkpt lat="54.1469631082607" lon="30.481904169005297"><ele>201.0</ele><time>2026-05-03T10:41:02.999Z</time></trkpt><trkpt lat="54.14697332427228" lon="30.482316196723996"><ele>200.33333333333331</ele><time>2026-05-03T10:41:03.999Z</time></trkpt><trkpt lat="54.146979577956316" lon="30.48270726976315"><ele>199.66666666666666</ele><time>2026-05-03T10:41:04.999Z</time></trkpt><trkpt lat="54.146986932612684" lon="30.48307878318737"><ele>199.0</ele><time>2026-05-03T10:41:05.999Z</time></trkpt><trkpt lat="54.14699516775089" lon="30.483418585229668"><ele>199.0</ele><time>2026-05-03T10:41:06.999Z</time></trkpt><trkpt lat="54.147001236084485" lon="30.483750868296003"><ele>199.0</ele><time>2026-05-03T10:41:07.999Z</time></trkpt><trkpt lat="54.147006781787105" lon="30.484047657797234"><ele>199.0</ele><time>2026-05-03T10:41:08.999Z</time></trkpt><trkpt lat="54.1470132349627" lon="30.48434021742788"><ele>199.0</ele><time>2026-05-03T10:41:09.999Z</time></trkpt><trkpt lat="54.14702303625554" lon="30.4846126281964"><ele>199.0</ele><time>2026-05-03T10:41:10.999Z</time></trkpt><trkpt lat="54.14703055324861" lon="30.484879413440186"><ele>199.0</ele><time>2026-05-03T10:41:11.999Z</time></trkpt><trkpt lat="54.14703537084938" lon="30.48513970842955"><ele>199.0</ele><time>2026-05-03T10:41:12.999Z</time></trkpt><trkpt lat="54.14703908025915" lon="30.485435744992127"><ele>199.0</ele><time>2026-05-03T10:41:13.999Z</time></trkpt><trkpt lat="54.147046160520055" lon="30.48573581636277"><ele>199.0</ele><time>2026-05-03T10:41:14.999Z</time></trkpt><trkpt lat="54.14705646106971" lon="30.486036019674657"><ele>198.66666666666666</ele><time>2026-05-03T10:41:15.999Z</time></trkpt><trkpt lat="54.14706453248544" lon="30.486328781825932"><ele>198.33333333333331</ele><time>2026-05-03T10:41:16.999Z</time></trkpt><trkpt lat="54.1470687790917" lon="30.486631636776725"><ele>198.0</ele><time>2026-05-03T10:41:17.999Z</time></trkpt><trkpt lat="54.147072712329226" lon="30.48694208565278"><ele>198.33333333333331</ele><time>2026-05-03T10:41:18.999Z</time></trkpt><trkpt lat="54.147079512386746" lon="30.48725317552276"><ele>198.66666666666666</ele><time>2026-05-03T10:41:19.999Z</time></trkpt><trkpt lat="54.1470852882069" lon="30.487558716630748"><ele>199.0</ele><time>2026-05-03T10:41:20.999Z</time></trkpt><trkpt lat="54.14709073759156" lon="30.487881432643942"><ele>199.33333333333331</ele><time>2026-05-03T10:41:21.999Z</time></trkpt><trkpt lat="54.14709603733432" lon="30.48819727760905"><ele>199.66666666666669</ele><time>2026-05-03T10:41:22.999Z</time></trkpt><trkpt lat="54.14710284758227" lon="30.48851181581119"><ele>200.0</ele><time>2026-05-03T10:41:23.999Z</time></trkpt><trkpt lat="54.14711184137784" lon="30.488836679771143"><ele>200.0</ele><time>2026-05-03T10:41:24.999Z</time></trkpt><trkpt lat="54.14713093053376" lon="30.489150423032395"><ele>200.0</ele><time>2026-05-03T10:41:25.999Z</time></trkpt><trkpt lat="54.14716054492146" lon="30.489483033716642"><ele>200.0</ele><time>2026-05-03T10:41:26.999Z</time></trkpt><trkpt lat="54.14719795376532" lon="30.489811731988848"><ele>200.0</ele><time>2026-05-03T10:41:27.999Z</time></trkpt><trkpt lat="54.1472340045288" lon="30.490139154994804"><ele>200.0</ele><time>2026-05-03T10:41:28.999Z</time></trkpt><trkpt lat="54.147268214741544" lon="30.49048618626344"><ele>200.0</ele><time>2026-05-03T10:41:29.999Z</time></trkpt><trkpt lat="54.14729902245493" lon="30.490822232501625"><ele>200.0</ele><time>2026-05-03T10:41:30.999Z</time></trkpt><trkpt lat="54.1473274327135" lon="30.49113982257337"><ele>200.0</ele><time>2026-05-03T10:41:31.999Z</time></trkpt><trkpt lat="54.14734837515594" lon="30.49143133694659"><ele>200.0</ele><time>2026-05-03T10:41:32.999Z</time></trkpt><trkpt lat="54.147369244120256" lon="30.491711077104963"><ele>200.33333333333334</ele><time>2026-05-03T10:41:33.999Z</time></trkpt><trkpt lat="54.14739316903889" lon="30.491991290019417"><ele>200.66666666666669</ele><time>2026-05-03T10:41:34.999Z</time></trkpt><trkpt lat="54.14741261942561" lon="30.492251207009602"><ele>201.0</ele><time>2026-05-03T10:41:35.999Z</time></trkpt><trkpt lat="54.14743126194496" lon="30.492504119077783"><ele>201.33333333333331</ele><time>2026-05-03T10:41:36.999Z</time></trkpt><trkpt lat="54.14744758920041" lon="30.492750943307342"><ele>201.66666666666666</ele><time>2026-05-03T10:41:37.999Z</time></trkpt><trkpt lat="54.147462229042034" lon="30.49302221104745"><ele>202.0</ele><time>2026-05-03T10:41:38.999Z</time></trkpt><trkpt lat="54.147471037246234" lon="30.493308933522403"><ele>202.0</ele><time>2026-05-03T10:41:39.999Z</time></trkpt><trkpt lat="54.14747554266916" lon="30.493589900726253"><ele>202.0</ele><time>2026-05-03T10:41:40.999Z</time></trkpt><trkpt lat="54.14747372089306" lon="30.49386887821133"><ele>202.0</ele><time>2026-05-03T10:41:41.999Z</time></trkpt><trkpt lat="54.14745950627396" lon="30.49415107654306"><ele>202.0</ele><time>2026-05-03T10:41:42.999Z</time></trkpt><trkpt lat="54.14743523555041" lon="30.494423678104145"><ele>202.0</ele><time>2026-05-03T10:41:43.999Z</time></trkpt><trkpt lat="54.14740513278987" lon="30.49467404279619"><ele>202.0</ele><time>2026-05-03T10:41:44.999Z</time></trkpt><trkpt lat="54.147382625245164" lon="30.49488747684953"><ele>202.0</ele><time>2026-05-03T10:41:45.999Z</time></trkpt><trkpt lat="54.14736648027322" lon="30.495075910325394"><ele>202.25</ele><time>2026-05-03T10:41:46.999Z</time></trkpt><trkpt lat="54.14734829282201" lon="30.495277571345245"><ele>202.5</ele><time>2026-05-03T10:41:47.999Z</time></trkpt><trkpt lat="54.14732889807873" lon="30.495517378387245"><ele>202.75</ele><time>2026-05-03T10:41:48.999Z</time></trkpt><trkpt lat="54.14730034089308" lon="30.495779566689404"><ele>203.0</ele><time>2026-05-03T10:41:49.999Z</time></trkpt><trkpt lat="54.14726835742709" lon="30.49604460928001"><ele>203.0</ele><time>2026-05-03T10:41:50.999Z</time></trkpt><trkpt lat="54.147240004059675" lon="30.496286991617836"><ele>203.0</ele><time>2026-05-03T10:41:51.999Z</time></trkpt><trkpt lat="54.14721591201464" lon="30.496512300906254"><ele>203.0</ele><time>2026-05-03T10:41:52.999Z</time></trkpt><trkpt lat="54.14719399175593" lon="30.496732223359405"><ele>203.0</ele><time>2026-05-03T10:41:53.999Z</time></trkpt><trkpt lat="54.147171132941395" lon="30.496972990779916"><ele>202.33333333333334</ele><time>2026-05-03T10:41:54.999Z</time></trkpt><trkpt lat="54.14714966602523" lon="30.49722043050803"><ele>201.66666666666669</ele><time>2026-05-03T10:41:55.999Z</time></trkpt><trkpt lat="54.14711968750106" lon="30.497488013009068"><ele>201.0</ele><time>2026-05-03T10:41:56.999Z</time></trkpt><trkpt lat="54.14708615531873" lon="30.49775124764607"><ele>200.33333333333331</ele><time>2026-05-03T10:41:57.999Z</time></trkpt><trkpt lat="54.14703658074706" lon="30.498018676714896"><ele>199.66666666666666</ele><time>2026-05-03T10:41:58.999Z</time></trkpt><trkpt lat="54.14696863598164" lon="30.498286216759716"><ele>199.0</ele><time>2026-05-03T10:41:59.999Z</time></trkpt><trkpt lat="54.146891748912864" lon="30.49855240475478"><ele>198.66666666666666</ele><time>2026-05-03T10:42:00.998Z</time></trkpt><trkpt lat="54.14682090741858" lon="30.49883120995982"><ele>198.33333333333331</ele><time>2026-05-03T10:42:01.998Z</time></trkpt><trkpt lat="54.14675822385095" lon="30.499127216627492"><ele>198.0</ele><time>2026-05-03T10:42:02.998Z</time></trkpt><trkpt lat="54.14670038150992" lon="30.499432248168965"><ele>197.33333333333331</ele><time>2026-05-03T10:42:03.998Z</time></trkpt><trkpt lat="54.14665053732983" lon="30.499741685492463"><ele>196.66666666666666</ele><time>2026-05-03T10:42:04.998Z</time></trkpt><trkpt lat="54.14660433976776" lon="30.500061038186477"><ele>196.0</ele><time>2026-05-03T10:42:05.998Z</time></trkpt><trkpt lat="54.146573265592835" lon="30.500375799604818"><ele>196.0</ele><time>2026-05-03T10:42:06.998Z</time></trkpt><trkpt lat="54.14655805877105" lon="30.500700892358736"><ele>196.0</ele><time>2026-05-03T10:42:07.998Z</time></trkpt><trkpt lat="54.146545123261724" lon="30.501030729122736"><ele>196.0</ele><time>2026-05-03T10:42:08.998Z</time></trkpt><trkpt lat="54.14652703530016" lon="30.501353347658117"><ele>196.0</ele><time>2026-05-03T10:42:09.998Z</time></trkpt><trkpt lat="54.146510946287506" lon="30.50168103895154"><ele>196.0</ele><time>2026-05-03T10:42:10.998Z</time></trkpt><trkpt lat="54.14649561182338" lon="30.502010340876488"><ele>196.0</ele><time>2026-05-03T10:42:11.998Z</time></trkpt><trkpt lat="54.14647942357396" lon="30.502336926474307"><ele>195.33333333333331</ele><time>2026-05-03T10:42:12.998Z</time></trkpt><trkpt lat="54.14645980306422" lon="30.502678787493295"><ele>194.66666666666669</ele><time>2026-05-03T10:42:13.998Z</time></trkpt><trkpt lat="54.14644644017973" lon="30.50300487545973"><ele>194.0</ele><time>2026-05-03T10:42:14.998Z</time></trkpt><trkpt lat="54.146444760405764" lon="30.503338467368476"><ele>194.0</ele><time>2026-05-03T10:42:15.998Z</time></trkpt><trkpt lat="54.14645832071901" lon="30.503677728705995"><ele>194.0</ele><time>2026-05-03T10:42:16.998Z</time></trkpt><trkpt lat="54.14648588648286" lon="30.504019696727205"><ele>194.0</ele><time>2026-05-03T10:42:17.998Z</time></trkpt><trkpt lat="54.14652425709405" lon="30.504355826653125"><ele>193.33333333333334</ele><time>2026-05-03T10:42:18.998Z</time></trkpt><trkpt lat="54.14656851072207" lon="30.50469482117147"><ele>192.66666666666669</ele><time>2026-05-03T10:42:19.998Z</time></trkpt><trkpt lat="54.146607844001366" lon="30.505004501537815"><ele>192.0</ele><time>2026-05-03T10:42:20.998Z</time></trkpt><trkpt lat="54.14665453157906" lon="30.50533705900599"><ele>191.66666666666666</ele><time>2026-05-03T10:42:21.998Z</time></trkpt><trkpt lat="54.14669181510982" lon="30.505642707779067"><ele>191.33333333333331</ele><time>2026-05-03T10:42:22.998Z</time></trkpt><trkpt lat="54.14673217952221" lon="30.50595721251996"><ele>191.0</ele><time>2026-05-03T10:42:23.998Z</time></trkpt><trkpt lat="54.14677597850754" lon="30.506269953705512"><ele>190.33333333333331</ele><time>2026-05-03T10:42:24.998Z</time></trkpt><trkpt lat="54.14681892724557" lon="30.50661841205427"><ele>189.66666666666666</ele><time>2026-05-03T10:42:25.998Z</time></trkpt><trkpt lat="54.14686040834401" lon="30.506936846968518"><ele>189.0</ele><time>2026-05-03T10:42:26.998Z</time></trkpt><trkpt lat="54.14690173828255" lon="30.507269475315915"><ele>189.0</ele><time>2026-05-03T10:42:27.998Z</time></trkpt><trkpt lat="54.14694386264261" lon="30.507596216221643"><ele>189.0</ele><time>2026-05-03T10:42:28.998Z</time></trkpt><trkpt lat="54.146983292519174" lon="30.507937610787405"><ele>189.0</ele><time>2026-05-03T10:42:29.998Z</time></trkpt><trkpt lat="54.147023959000286" lon="30.50829348838944"><ele>189.0</ele><time>2026-05-03T10:42:30.998Z</time></trkpt><trkpt lat="54.147071434916825" lon="30.508637111153533"><ele>189.0</ele><time>2026-05-03T10:42:31.998Z</time></trkpt><trkpt lat="54.147118148907374" lon="30.508996506697006"><ele>189.0</ele><time>2026-05-03T10:42:32.998Z</time></trkpt><trkpt lat="54.14716476329237" lon="30.50936283533314"><ele>189.33333333333334</ele><time>2026-05-03T10:42:33.998Z</time></trkpt><trkpt lat="54.147213460551576" lon="30.50970899624365"><ele>189.66666666666669</ele><time>2026-05-03T10:42:34.998Z</time></trkpt><trkpt lat="54.147258288282316" lon="30.510080634873805"><ele>190.0</ele><time>2026-05-03T10:42:35.998Z</time></trkpt><trkpt lat="54.14730634593381" lon="30.51043797568343"><ele>190.0</ele><time>2026-05-03T10:42:37Z</time></trkpt><trkpt lat="54.14735486604781" lon="30.51079530995144"><ele>190.0</ele><time>2026-05-03T10:42:38Z</time></trkpt><trkpt lat="54.14739940377369" lon="30.511157405672098"><ele>190.0</ele><time>2026-05-03T10:42:39Z</time></trkpt><trkpt lat="54.147445684657164" lon="30.511515607819575"><ele>189.33333333333334</ele><time>2026-05-03T10:42:40Z</time></trkpt><trkpt lat="54.147493018964035" lon="30.511869135508068"><ele>188.66666666666666</ele><time>2026-05-03T10:42:41Z</time></trkpt><trkpt lat="54.147541586359544" lon="30.51225286117736"><ele>188.0</ele><time>2026-05-03T10:42:42Z</time></trkpt><trkpt lat="54.14758147550814" lon="30.512579485724387"><ele>188.0</ele><time>2026-05-03T10:42:43Z</time></trkpt><trkpt lat="54.14762693180973" lon="30.512929087208686"><ele>188.0</ele><time>2026-05-03T10:42:44Z</time></trkpt><trkpt lat="54.14767588538106" lon="30.51328527352027"><ele>188.0</ele><time>2026-05-03T10:42:45Z</time></trkpt><trkpt lat="54.147719120128095" lon="30.51364787892112"><ele>188.0</ele><time>2026-05-03T10:42:46Z</time></trkpt><trkpt lat="54.14776620670076" lon="30.514010844788096"><ele>188.0</ele><time>2026-05-03T10:42:47Z</time></trkpt><trkpt lat="54.147809644702235" lon="30.514377208138942"><ele>188.0</ele><time>2026-05-03T10:42:48Z</time></trkpt><trkpt lat="54.1478574803076" lon="30.514731125500816"><ele>188.0</ele><time>2026-05-03T10:42:49Z</time></trkpt><trkpt lat="54.14790569238925" lon="30.51508759483717"><ele>188.0</ele><time>2026-05-03T10:42:50Z</time></trkpt><trkpt lat="54.147954743071345" lon="30.515442531776074"><ele>188.0</ele><time>2026-05-03T10:42:51Z</time></trkpt><trkpt lat="54.148000971821276" lon="30.51580447292774"><ele>188.0</ele><time>2026-05-03T10:42:52Z</time></trkpt><trkpt lat="54.14804603422199" lon="30.516170146038647"><ele>188.0</ele><time>2026-05-03T10:42:53Z</time></trkpt><trkpt lat="54.14809520326817" lon="30.516520154954108"><ele>188.0</ele><time>2026-05-03T10:42:54Z</time></trkpt><trkpt lat="54.148143082402285" lon="30.51687939125882"><ele>188.33333333333331</ele><time>2026-05-03T10:42:55Z</time></trkpt><trkpt lat="54.14819936572376" lon="30.517231482830564"><ele>188.66666666666666</ele><time>2026-05-03T10:42:56Z</time></trkpt><trkpt lat="54.14825766371743" lon="30.51759520003129"><ele>189.0</ele><time>2026-05-03T10:42:57Z</time></trkpt><trkpt lat="54.148318625304015" lon="30.517967558679032"><ele>188.0</ele><time>2026-05-03T10:42:58Z</time></trkpt><trkpt lat="54.14837961215829" lon="30.518342101109408"><ele>187.0</ele><time>2026-05-03T10:42:59Z</time></trkpt><trkpt lat="54.14845108184098" lon="30.518727489534974"><ele>187.0</ele><time>2026-05-03T10:43:00Z</time></trkpt><trkpt lat="54.14851685267133" lon="30.51911093345469"><ele>187.0</ele><time>2026-05-03T10:43:01Z</time></trkpt><trkpt lat="54.1485850290435" lon="30.519493871938757"><ele>187.0</ele><time>2026-05-03T10:43:01.999Z</time></trkpt><trkpt lat="54.1486459778629" lon="30.519875923214663"><ele>187.0</ele><time>2026-05-03T10:43:02.999Z</time></trkpt><trkpt lat="54.14870598450731" lon="30.520249870205"><ele>187.0</ele><time>2026-05-03T10:43:03.999Z</time></trkpt><trkpt lat="54.14876809243581" lon="30.520622922127977"><ele>187.0</ele><time>2026-05-03T10:43:04.999Z</time></trkpt><trkpt lat="54.14883207994987" lon="30.521009483854492"><ele>187.33333333333334</ele><time>2026-05-03T10:43:05.999Z</time></trkpt><trkpt lat="54.148888927415896" lon="30.521368003341045"><ele>187.66666666666666</ele><time>2026-05-03T10:43:06.999Z</time></trkpt><trkpt lat="54.14894859323507" lon="30.52174645873033"><ele>188.0</ele><time>2026-05-03T10:43:07.999Z</time></trkpt><trkpt lat="54.149006645573635" lon="30.522116218630913"><ele>187.66666666666666</ele><time>2026-05-03T10:43:08.999Z</time></trkpt><trkpt lat="54.14906406653517" lon="30.522460759112818"><ele>187.33333333333334</ele><time>2026-05-03T10:43:09.999Z</time></trkpt><trkpt lat="54.14912015846369" lon="30.522828607778095"><ele>187.0</ele><time>2026-05-03T10:43:10.999Z</time></trkpt><trkpt lat="54.149180137634424" lon="30.52316973545242"><ele>187.66666666666669</ele><time>2026-05-03T10:43:11.999Z</time></trkpt><trkpt lat="54.14922476192316" lon="30.523488818196906"><ele>188.33333333333334</ele><time>2026-05-03T10:43:12.999Z</time></trkpt><trkpt lat="54.14928227917104" lon="30.523825679402467"><ele>189.0</ele><time>2026-05-03T10:43:13.999Z</time></trkpt><trkpt lat="54.14933200449704" lon="30.52415761197238"><ele>189.33333333333334</ele><time>2026-05-03T10:43:14.999Z</time></trkpt><trkpt lat="54.14937827527753" lon="30.524483541942423"><ele>189.66666666666669</ele><time>2026-05-03T10:43:15.999Z</time></trkpt><trkpt lat="54.14942869025978" lon="30.524813655610014"><ele>190.0</ele><time>2026-05-03T10:43:16.999Z</time></trkpt><trkpt lat="54.14946681697942" lon="30.52511800849244"><ele>191.0</ele><time>2026-05-03T10:43:17.999Z</time></trkpt><trkpt lat="54.14951328509581" lon="30.525445697612337"><ele>192.0</ele><time>2026-05-03T10:43:18.999Z</time></trkpt><trkpt lat="54.14955694917604" lon="30.52574071469793"><ele>193.0</ele><time>2026-05-03T10:43:19.999Z</time></trkpt><trkpt lat="54.1496015287077" lon="30.5260235534365"><ele>193.0</ele><time>2026-05-03T10:43:20.999Z</time></trkpt><trkpt lat="54.149637945898505" lon="30.52630546391688"><ele>193.0</ele><time>2026-05-03T10:43:21.999Z</time></trkpt><trkpt lat="54.149671383928066" lon="30.526561591576034"><ele>193.0</ele><time>2026-05-03T10:43:22.999Z</time></trkpt><trkpt lat="54.14969358261135" lon="30.526749463792825"><ele>193.0</ele><time>2026-05-03T10:43:23.999Z</time></trkpt><trkpt lat="54.14972054632831" lon="30.526914816475525"><ele>193.0</ele><time>2026-05-03T10:43:25.999Z</time></trkpt><trkpt lat="54.149775944948466" lon="30.52702438927053"><ele>193.0</ele><time>2026-05-03T10:43:28.999Z</time></trkpt><trkpt lat="54.14988225429484" lon="30.526987728844617"><ele>193.0</ele><time>2026-05-03T10:43:29.999Z</time></trkpt><trkpt lat="54.14999148518012" lon="30.526953502774223"><ele>193.0</ele><time>2026-05-03T10:43:31.999Z</time></trkpt><trkpt lat="54.150032818000454" lon="30.52683024866093"><ele>193.0</ele><time>2026-05-03T10:43:32.999Z</time></trkpt><trkpt lat="54.15009195602957" lon="30.526782843976438"><ele>192.8</ele><time>2026-05-03T10:43:33.999Z</time></trkpt><trkpt lat="54.1501498498003" lon="30.5267030687613"><ele>192.60000000000002</ele><time>2026-05-03T10:43:34.999Z</time></trkpt><trkpt lat="54.15020264318665" lon="30.526531213485455"><ele>192.39999999999998</ele><time>2026-05-03T10:43:35.999Z</time></trkpt><trkpt lat="54.15025321514206" lon="30.526386129056036"><ele>192.2</ele><time>2026-05-03T10:43:36.999Z</time></trkpt><trkpt lat="54.15031153656152" lon="30.526218290725307"><ele>192.0</ele><time>2026-05-03T10:43:37.999Z</time></trkpt><trkpt lat="54.15038268492387" lon="30.526011961351585"><ele>191.75</ele><time>2026-05-03T10:43:38.999Z</time></trkpt><trkpt lat="54.150450424174196" lon="30.525817017003806"><ele>191.5</ele><time>2026-05-03T10:43:39.999Z</time></trkpt><trkpt lat="54.15051148277343" lon="30.525644545529598"><ele>191.25</ele><time>2026-05-03T10:43:40.999Z</time></trkpt><trkpt lat="54.15057559790378" lon="30.525504371097558"><ele>191.0</ele><time>2026-05-03T10:43:41.999Z</time></trkpt><trkpt lat="54.15063398705346" lon="30.525370142771823"><ele>190.60000000000002</ele><time>2026-05-03T10:43:42.999Z</time></trkpt><trkpt lat="54.15069085950743" lon="30.525240052077955"><ele>190.2</ele><time>2026-05-03T10:43:43.999Z</time></trkpt><trkpt lat="54.15075830445747" lon="30.52510993755739"><ele>189.8</ele><time>2026-05-03T10:43:44.999Z</time></trkpt><trkpt lat="54.150841300008985" lon="30.524989487960024"><ele>189.39999999999998</ele><time>2026-05-03T10:43:45.999Z</time></trkpt><trkpt lat="54.15093280647293" lon="30.52485668417582"><ele>189.0</ele><time>2026-05-03T10:43:46.999Z</time></trkpt><trkpt lat="54.15101046294987" lon="30.524743980931433"><ele>188.6</ele><time>2026-05-03T10:43:47.999Z</time></trkpt><trkpt lat="54.15108616629904" lon="30.52465046548965"><ele>188.2</ele><time>2026-05-03T10:43:48.999Z</time></trkpt><trkpt lat="54.15117823718518" lon="30.524550405393075"><ele>187.79999999999998</ele><time>2026-05-03T10:43:49.999Z</time></trkpt><trkpt lat="54.15125726798309" lon="30.5244645167753"><ele>187.39999999999998</ele><time>2026-05-03T10:43:50.999Z</time></trkpt><trkpt lat="54.151337807413206" lon="30.524377151216786"><ele>187.0</ele><time>2026-05-03T10:43:51.999Z</time></trkpt><trkpt lat="54.15140971460786" lon="30.52429933024123"><ele>186.85714285714286</ele><time>2026-05-03T10:43:52.999Z</time></trkpt><trkpt lat="54.15147787031029" lon="30.524225569232183"><ele>186.71428571428572</ele><time>2026-05-03T10:43:53.999Z</time></trkpt><trkpt lat="54.15154386391608" lon="30.52415386454455"><ele>186.57142857142858</ele><time>2026-05-03T10:43:54.999Z</time></trkpt><trkpt lat="54.15161267018764" lon="30.524079016918698"><ele>186.42857142857144</ele><time>2026-05-03T10:43:55.999Z</time></trkpt><trkpt lat="54.151668958101816" lon="30.52401808232856"><ele>186.28571428571428</ele><time>2026-05-03T10:43:56.999Z</time></trkpt><trkpt lat="54.15173259185134" lon="30.52394953321252"><ele>186.14285714285717</ele><time>2026-05-03T10:43:57.999Z</time></trkpt><trkpt lat="54.15178590950352" lon="30.523891709090883"><ele>186.0</ele><time>2026-05-03T10:43:58.999Z</time></trkpt><trkpt lat="54.15184284585629" lon="30.52382996047928"><ele>186.2857142857143</ele><time>2026-05-03T10:43:59.999Z</time></trkpt><trkpt lat="54.1519020229711" lon="30.52376578173163"><ele>186.57142857142858</ele><time>2026-05-03T10:44:00.999Z</time></trkpt><trkpt lat="54.151958268005814" lon="30.523704782730235"><ele>186.85714285714286</ele><time>2026-05-03T10:44:01.999Z</time></trkpt><trkpt lat="54.15201329295355" lon="30.52364229462238"><ele>187.14285714285717</ele><time>2026-05-03T10:44:02.999Z</time></trkpt><trkpt lat="54.15206802372737" lon="30.523570512340832"><ele>187.42857142857142</ele><time>2026-05-03T10:44:03.999Z</time></trkpt><trkpt lat="54.15213138957641" lon="30.52352454242652"><ele>187.71428571428572</ele><time>2026-05-03T10:44:04.999Z</time></trkpt><trkpt lat="54.15219045717983" lon="30.52346378779412"><ele>188.0</ele><time>2026-05-03T10:44:05.999Z</time></trkpt><trkpt lat="54.152248947011415" lon="30.523404239996"><ele>188.0</ele><time>2026-05-03T10:44:06.998Z</time></trkpt><trkpt lat="54.152339536848906" lon="30.52332095692821"><ele>188.0</ele><time>2026-05-03T10:44:08.998Z</time></trkpt><trkpt lat="54.15244377837229" lon="30.52322958337674"><ele>188.0</ele><time>2026-05-03T10:44:10.998Z</time></trkpt><trkpt lat="54.15249950835815" lon="30.523174084178898"><ele>188.0</ele><time>2026-05-03T10:44:11.998Z</time></trkpt><trkpt lat="54.15258329012485" lon="30.523118201140555"><ele>188.0</ele><time>2026-05-03T10:44:13.998Z</time></trkpt><trkpt lat="54.15266466455797" lon="30.523025348104685"><ele>188.2</ele><time>2026-05-03T10:44:15.998Z</time></trkpt><trkpt lat="54.152762875173906" lon="30.52294038297825"><ele>188.4</ele><time>2026-05-03T10:44:17.998Z</time></trkpt><trkpt lat="54.15285237292724" lon="30.52288304344418"><ele>188.6</ele><time>2026-05-03T10:44:19.998Z</time></trkpt><trkpt lat="54.152928255911874" lon="30.52281104566367"><ele>188.79999999999998</ele><time>2026-05-03T10:44:21.998Z</time></trkpt><trkpt lat="54.15301956787979" lon="30.52273515334383"><ele>189.0</ele><time>2026-05-03T10:44:23.998Z</time></trkpt><trkpt lat="54.15311559837902" lon="30.522658026851754"><ele>189.0</ele><time>2026-05-03T10:44:25.998Z</time></trkpt><trkpt lat="54.153197901648625" lon="30.52260296575331"><ele>189.0</ele><time>2026-05-03T10:44:27.998Z</time></trkpt><trkpt lat="54.15326526196132" lon="30.522554014273044"><ele>189.0</ele><time>2026-05-03T10:44:29.998Z</time></trkpt><trkpt lat="54.15334380497483" lon="30.522478367453395"><ele>189.0</ele><time>2026-05-03T10:44:31.998Z</time></trkpt><trkpt lat="54.15341979914656" lon="30.522383740095474"><ele>189.0</ele><time>2026-05-03T10:44:33.998Z</time></trkpt><trkpt lat="54.153520945584546" lon="30.52229675812841"><ele>189.16666666666666</ele><time>2026-05-03T10:44:35.998Z</time></trkpt><trkpt lat="54.153613822065076" lon="30.522222980838503"><ele>189.33333333333334</ele><time>2026-05-03T10:44:37.998Z</time></trkpt><trkpt lat="54.153685635208866" lon="30.52216587331266"><ele>189.5</ele><time>2026-05-03T10:44:38.998Z</time></trkpt><trkpt lat="54.15375189243775" lon="30.522113144536178"><ele>189.66666666666669</ele><time>2026-05-03T10:44:39.998Z</time></trkpt><trkpt lat="54.153826770656245" lon="30.522053356672558"><ele>189.83333333333334</ele><time>2026-05-03T10:44:40.998Z</time></trkpt><trkpt lat="54.153897511005184" lon="30.521992093196232"><ele>190.0</ele><time>2026-05-03T10:44:41.998Z</time></trkpt><trkpt lat="54.1539859777366" lon="30.521963560620154"><ele>189.5</ele><time>2026-05-03T10:44:43Z</time></trkpt><trkpt lat="54.15407316277556" lon="30.521935441473584"><ele>189.0</ele><time>2026-05-03T10:44:44Z</time></trkpt><trkpt lat="54.15417218420319" lon="30.521905227252887"><ele>188.5</ele><time>2026-05-03T10:44:45Z</time></trkpt><trkpt lat="54.15424146261732" lon="30.521883244426917"><ele>188.0</ele><time>2026-05-03T10:44:46Z</time></trkpt><trkpt lat="54.1543045947409" lon="30.521863211886846"><ele>187.5</ele><time>2026-05-03T10:44:47Z</time></trkpt><trkpt lat="54.154362416962805" lon="30.521818914724857"><ele>187.0</ele><time>2026-05-03T10:44:48Z</time></trkpt><trkpt lat="54.154470242672396" lon="30.521851360387444"><ele>187.0</ele><time>2026-05-03T10:44:50Z</time></trkpt><trkpt lat="54.15458516729293" lon="30.521871847294094"><ele>187.0</ele><time>2026-05-03T10:44:52Z</time></trkpt><trkpt lat="54.154693179467955" lon="30.521889016504872"><ele>187.0</ele><time>2026-05-03T10:44:54Z</time></trkpt><trkpt lat="54.15477902395286" lon="30.521920239759588"><ele>187.0</ele><time>2026-05-03T10:44:56Z</time></trkpt><trkpt lat="54.1548518844206" lon="30.52194268007713"><ele>187.0</ele><time>2026-05-03T10:44:58Z</time></trkpt><trkpt lat="54.154935797038505" lon="30.52195601873063"><ele>187.5</ele><time>2026-05-03T10:45:00Z</time></trkpt><trkpt lat="54.15503479280724" lon="30.521971754985397"><ele>188.0</ele><time>2026-05-03T10:45:02Z</time></trkpt><trkpt lat="54.15505150684604" lon="30.522284083047847"><ele>188.5</ele><time>2026-05-03T10:45:03Z</time></trkpt><trkpt lat="54.15510301189528" lon="30.522435859593514"><ele>189.0</ele><time>2026-05-03T10:45:05Z</time></trkpt><trkpt lat="54.15515392120934" lon="30.5225939442008"><ele>189.0</ele><time>2026-05-03T10:45:07Z</time></trkpt><trkpt lat="54.15522124746242" lon="30.52277311841195"><ele>189.0</ele><time>2026-05-03T10:45:08.999Z</time></trkpt><trkpt lat="54.15530545033866" lon="30.52287565053627"><ele>189.0</ele><time>2026-05-03T10:45:10.999Z</time></trkpt><trkpt lat="54.155366772935515" lon="30.522920715982753"><ele>189.0</ele><time>2026-05-03T10:45:11.999Z</time></trkpt><trkpt lat="54.15543111389762" lon="30.522967759958497"><ele>189.0</ele><time>2026-05-03T10:45:12.999Z</time></trkpt><trkpt lat="54.155502417193134" lon="30.523001084975096"><ele>189.0</ele><time>2026-05-03T10:45:13.999Z</time></trkpt><trkpt lat="54.15558529877867" lon="30.52302769546111"><ele>189.16666666666666</ele><time>2026-05-03T10:45:14.999Z</time></trkpt><trkpt lat="54.15565919742349" lon="30.523066988076764"><ele>189.33333333333334</ele><time>2026-05-03T10:45:15.999Z</time></trkpt><trkpt lat="54.155735951403415" lon="30.52310592905682"><ele>189.5</ele><time>2026-05-03T10:45:16.999Z</time></trkpt><trkpt lat="54.15580911781326" lon="30.523148548003537"><ele>189.66666666666669</ele><time>2026-05-03T10:45:17.999Z</time></trkpt><trkpt lat="54.15589046708478" lon="30.523208345725116"><ele>189.83333333333334</ele><time>2026-05-03T10:45:19.999Z</time></trkpt><trkpt lat="54.155950470827456" lon="30.523242282602148"><ele>190.0</ele><time>2026-05-03T10:45:21.999Z</time></trkpt><trkpt lat="54.15603881266444" lon="30.52327730736008"><ele>189.66666666666669</ele><time>2026-05-03T10:45:24.999Z</time></trkpt><trkpt lat="54.1561250383015" lon="30.523313996947568"><ele>189.33333333333334</ele><time>2026-05-03T10:45:27.999Z</time></trkpt><trkpt lat="54.15619893455396" lon="30.523372534337724"><ele>189.0</ele><time>2026-05-03T10:45:30.999Z</time></trkpt><trkpt lat="54.15626137688518" lon="30.523426065712016"><ele>188.66666666666666</ele><time>2026-05-03T10:45:33.999Z</time></trkpt><trkpt lat="54.15633850337199" lon="30.523482006375847"><ele>188.33333333333331</ele><time>2026-05-03T10:45:37.999Z</time></trkpt><trkpt lat="54.156406540753416" lon="30.523525661270007"><ele>188.0</ele><time>2026-05-03T10:45:40.999Z</time></trkpt><trkpt lat="54.15645584589483" lon="30.523599368773787"><ele>188.0</ele><time>2026-05-03T10:45:44.999Z</time></trkpt><trkpt lat="54.156496027954105" lon="30.52369679474743"><ele>188.0</ele><time>2026-05-03T10:45:50.999Z</time></trkpt><trkpt lat="54.156490726642545" lon="30.52380857709308"><ele>188.0</ele><time>2026-05-03T10:45:58.999Z</time></trkpt><trkpt lat="54.156426332632364" lon="30.523822729790755"><ele>188.0</ele><time>2026-05-03T10:46:04.999Z</time></trkpt><trkpt lat="54.15636034473962" lon="30.523746747581985"><ele>188.0</ele><time>2026-05-03T10:46:12.999Z</time></trkpt><trkpt lat="54.15628684266027" lon="30.523685523246428"><ele>188.0</ele><time>2026-05-03T10:46:14.998Z</time></trkpt><trkpt lat="54.15621834975611" lon="30.52360924949464"><ele>188.0</ele><time>2026-05-03T10:46:16.998Z</time></trkpt><trkpt lat="54.15611525050266" lon="30.523512212154653"><ele>188.0</ele><time>2026-05-03T10:46:18.998Z</time></trkpt><trkpt lat="54.15605779431306" lon="30.523455792381895"><ele>188.0</ele><time>2026-05-03T10:46:19.998Z</time></trkpt><trkpt lat="54.15599931215406" lon="30.523398206490604"><ele>188.0</ele><time>2026-05-03T10:46:20.998Z</time></trkpt><trkpt lat="54.155906827654235" lon="30.52331683270707"><ele>188.0</ele><time>2026-05-03T10:46:22.998Z</time></trkpt><trkpt lat="54.1558019364558" lon="30.523231523285244"><ele>188.0</ele><time>2026-05-03T10:46:24.998Z</time></trkpt><trkpt lat="54.155687767212704" lon="30.523136333026205"><ele>188.14285714285714</ele><time>2026-05-03T10:46:26.998Z</time></trkpt><trkpt lat="54.15562131926219" lon="30.52309633996496"><ele>188.28571428571428</ele><time>2026-05-03T10:46:27.998Z</time></trkpt><trkpt lat="54.15554751921347" lon="30.523056700156232"><ele>188.42857142857144</ele><time>2026-05-03T10:46:28.998Z</time></trkpt><trkpt lat="54.15547036524562" lon="30.52304020555391"><ele>188.57142857142856</ele><time>2026-05-03T10:46:29.998Z</time></trkpt><trkpt lat="54.155401497385725" lon="30.523019433788317"><ele>188.71428571428572</ele><time>2026-05-03T10:46:30.998Z</time></trkpt><trkpt lat="54.15532898395649" lon="30.522973269073226"><ele>188.85714285714286</ele><time>2026-05-03T10:46:31.998Z</time></trkpt><trkpt lat="54.155266224080904" lon="30.522923521855557"><ele>189.0</ele><time>2026-05-03T10:46:32.998Z</time></trkpt><trkpt lat="54.15520172964913" lon="30.522851762199057"><ele>189.0</ele><time>2026-05-03T10:46:33.998Z</time></trkpt><trkpt lat="54.15514649336667" lon="30.52276641995044"><ele>189.0</ele><time>2026-05-03T10:46:34.998Z</time></trkpt><trkpt lat="54.155075762656054" lon="30.522564271900233"><ele>189.0</ele><time>2026-05-03T10:46:36.998Z</time></trkpt><trkpt lat="54.15508037082542" lon="30.52245007876776"><ele>189.0</ele><time>2026-05-03T10:46:37.998Z</time></trkpt><trkpt lat="54.15504283546079" lon="30.522287703444686"><ele>189.0</ele><time>2026-05-03T10:46:39.998Z</time></trkpt><trkpt lat="54.15498307380056" lon="30.52216294970425"><ele>189.0</ele><time>2026-05-03T10:46:41.998Z</time></trkpt><trkpt lat="54.15489874789724" lon="30.522038286270732"><ele>189.0</ele><time>2026-05-03T10:46:43.998Z</time></trkpt><trkpt lat="54.154798854921204" lon="30.521951008968824"><ele>189.0</ele><time>2026-05-03T10:46:45.998Z</time></trkpt><trkpt lat="54.154743602365414" lon="30.52189770625899"><ele>189.0</ele><time>2026-05-03T10:46:46.998Z</time></trkpt><trkpt lat="54.154635669683294" lon="30.52182299882642"><ele>189.0</ele><time>2026-05-03T10:46:49Z</time></trkpt><trkpt lat="54.15450331639151" lon="30.521802387696148"><ele>188.66666666666666</ele><time>2026-05-03T10:46:51Z</time></trkpt><trkpt lat="54.15444051790231" lon="30.521792798893774"><ele>188.33333333333334</ele><time>2026-05-03T10:46:52Z</time></trkpt><trkpt lat="54.15435845989257" lon="30.52178851581896"><ele>188.0</ele><time>2026-05-03T10:46:53Z</time></trkpt><trkpt lat="54.15427938327952" lon="30.521813607714552"><ele>187.66666666666669</ele><time>2026-05-03T10:46:54Z</time></trkpt><trkpt lat="54.154205872020945" lon="30.521846656236534"><ele>187.33333333333334</ele><time>2026-05-03T10:46:55Z</time></trkpt><trkpt lat="54.154132128325216" lon="30.52186910910518"><ele>187.0</ele><time>2026-05-03T10:46:56Z</time></trkpt><trkpt lat="54.15405258328398" lon="30.521880554247765"><ele>187.14285714285714</ele><time>2026-05-03T10:46:57Z</time></trkpt><trkpt lat="54.153970327036774" lon="30.521905568287966"><ele>187.2857142857143</ele><time>2026-05-03T10:46:58Z</time></trkpt><trkpt lat="54.15390551449791" lon="30.521946210335038"><ele>187.42857142857144</ele><time>2026-05-03T10:46:59Z</time></trkpt><trkpt lat="54.15383620871079" lon="30.52198103153978"><ele>187.57142857142856</ele><time>2026-05-03T10:47:00Z</time></trkpt><trkpt lat="54.15377097485458" lon="30.522010634938916"><ele>187.71428571428572</ele><time>2026-05-03T10:47:01Z</time></trkpt><trkpt lat="54.15370413079636" lon="30.52205279191752"><ele>187.85714285714286</ele><time>2026-05-03T10:47:02Z</time></trkpt><trkpt lat="54.15364487389369" lon="30.522100740386534"><ele>188.0</ele><time>2026-05-03T10:47:03Z</time></trkpt><trkpt lat="54.153585984272624" lon="30.52215285651031"><ele>188.16666666666666</ele><time>2026-05-03T10:47:04Z</time></trkpt><trkpt lat="54.15353014328797" lon="30.522212336882752"><ele>188.33333333333331</ele><time>2026-05-03T10:47:05Z</time></trkpt><trkpt lat="54.15346348867788" lon="30.522279910242105"><ele>188.5</ele><time>2026-05-03T10:47:06Z</time></trkpt><trkpt lat="54.15340016273132" lon="30.522330205534228"><ele>188.66666666666666</ele><time>2026-05-03T10:47:07Z</time></trkpt><trkpt lat="54.15331062857432" lon="30.522401315901412"><ele>188.83333333333334</ele><time>2026-05-03T10:47:09Z</time></trkpt><trkpt lat="54.15323250158047" lon="30.52246336643567"><ele>189.0</ele><time>2026-05-03T10:47:11Z</time></trkpt><trkpt lat="54.15314253836433" lon="30.5225396974734"><ele>189.0</ele><time>2026-05-03T10:47:13Z</time></trkpt><trkpt lat="54.15305794583004" lon="30.52261741381372"><ele>189.0</ele><time>2026-05-03T10:47:15Z</time></trkpt><trkpt lat="54.152958386093495" lon="30.52270888061677"><ele>189.0</ele><time>2026-05-03T10:47:16.999Z</time></trkpt><trkpt lat="54.15290163887818" lon="30.52276101508825"><ele>189.0</ele><time>2026-05-03T10:47:17.999Z</time></trkpt><trkpt lat="54.152831110751215" lon="30.52282580409193"><ele>189.0</ele><time>2026-05-03T10:47:18.999Z</time></trkpt><trkpt lat="54.15275300006086" lon="30.52289755766201"><ele>189.0</ele><time>2026-05-03T10:47:19.999Z</time></trkpt><trkpt lat="54.1526765652573" lon="30.522967771741914"><ele>189.0</ele><time>2026-05-03T10:47:20.999Z</time></trkpt><trkpt lat="54.15262005489167" lon="30.523019682956047"><ele>189.0</ele><time>2026-05-03T10:47:21.999Z</time></trkpt><trkpt lat="54.15256059203162" lon="30.523074306390306"><ele>189.0</ele><time>2026-05-03T10:47:22.999Z</time></trkpt><trkpt lat="54.15248362938116" lon="30.52314506735659"><ele>189.0</ele><time>2026-05-03T10:47:24.999Z</time></trkpt><trkpt lat="54.15238896420002" lon="30.523232190051832"><ele>189.0</ele><time>2026-05-03T10:47:26.999Z</time></trkpt><trkpt lat="54.152293133487824" lon="30.523320385378284"><ele>189.0</ele><time>2026-05-03T10:47:28.999Z</time></trkpt><trkpt lat="54.15222146022843" lon="30.523386348077423"><ele>188.79999999999998</ele><time>2026-05-03T10:47:29.999Z</time></trkpt><trkpt lat="54.15213658570867" lon="30.523464460074464"><ele>188.6</ele><time>2026-05-03T10:47:30.999Z</time></trkpt><trkpt lat="54.15206179605272" lon="30.523533290822623"><ele>188.4</ele><time>2026-05-03T10:47:31.999Z</time></trkpt><trkpt lat="54.151931352574174" lon="30.523666842076782"><ele>188.2</ele><time>2026-05-03T10:47:33.999Z</time></trkpt><trkpt lat="54.151871418918255" lon="30.523756728003175"><ele>188.0</ele><time>2026-05-03T10:47:34.999Z</time></trkpt><trkpt lat="54.15176703826132" lon="30.523821838553463"><ele>188.0</ele><time>2026-05-03T10:47:35.999Z</time></trkpt><trkpt lat="54.151678397799756" lon="30.523890787192496"><ele>188.0</ele><time>2026-05-03T10:47:36.999Z</time></trkpt><trkpt lat="54.15159152360645" lon="30.52396877796019"><ele>188.0</ele><time>2026-05-03T10:47:37.999Z</time></trkpt><trkpt lat="54.15152352464424" lon="30.524054363592604"><ele>188.0</ele><time>2026-05-03T10:47:38.999Z</time></trkpt><trkpt lat="54.151468432375324" lon="30.524115157948376"><ele>188.0</ele><time>2026-05-03T10:47:39.999Z</time></trkpt><trkpt lat="54.1514109625002" lon="30.524195771492145"><ele>188.0</ele><time>2026-05-03T10:47:40.999Z</time></trkpt><trkpt lat="54.15134475088489" lon="30.524279880856543"><ele>187.8</ele><time>2026-05-03T10:47:41.999Z</time></trkpt><trkpt lat="54.15128661350372" lon="30.52435815677728"><ele>187.60000000000002</ele><time>2026-05-03T10:47:42.999Z</time></trkpt><trkpt lat="54.15123242650019" lon="30.52442222436732"><ele>187.39999999999998</ele><time>2026-05-03T10:47:43.999Z</time></trkpt><trkpt lat="54.151122151311995" lon="30.524548241027716"><ele>187.2</ele><time>2026-05-03T10:47:45.999Z</time></trkpt><trkpt lat="54.15103728938437" lon="30.524666626322748"><ele>187.0</ele><time>2026-05-03T10:47:46.999Z</time></trkpt><trkpt lat="54.15093942012671" lon="30.52477565319938"><ele>187.0</ele><time>2026-05-03T10:47:47.999Z</time></trkpt><trkpt lat="54.15084363789171" lon="30.524879044763203"><ele>187.0</ele><time>2026-05-03T10:47:48.999Z</time></trkpt><trkpt lat="54.15076952558045" lon="30.524974510871317"><ele>187.0</ele><time>2026-05-03T10:47:49.999Z</time></trkpt><trkpt lat="54.150704606501776" lon="30.525070255421664"><ele>187.0</ele><time>2026-05-03T10:47:50.999Z</time></trkpt><trkpt lat="54.150635496940914" lon="30.525189167487483"><ele>187.0</ele><time>2026-05-03T10:47:51.999Z</time></trkpt><trkpt lat="54.15059038834351" lon="30.52532766718667"><ele>187.66666666666669</ele><time>2026-05-03T10:47:52.999Z</time></trkpt><trkpt lat="54.150540427805865" lon="30.52544245637397"><ele>188.33333333333334</ele><time>2026-05-03T10:47:53.999Z</time></trkpt><trkpt lat="54.150502503276456" lon="30.525530431666127"><ele>189.0</ele><time>2026-05-03T10:47:54.999Z</time></trkpt><trkpt lat="54.150444351394334" lon="30.52566532500018"><ele>189.66666666666666</ele><time>2026-05-03T10:47:56.999Z</time></trkpt><trkpt lat="54.150394287608606" lon="30.52581160462517"><ele>190.33333333333331</ele><time>2026-05-03T10:47:58.999Z</time></trkpt><trkpt lat="54.15035801321229" lon="30.525915813833144"><ele>191.0</ele><time>2026-05-03T10:47:59.999Z</time></trkpt><trkpt lat="54.150304680477724" lon="30.526035651011668"><ele>191.0</ele><time>2026-05-03T10:48:00.999Z</time></trkpt><trkpt lat="54.150262602323906" lon="30.526164832380676"><ele>191.0</ele><time>2026-05-03T10:48:01.999Z</time></trkpt><trkpt lat="54.15021525511805" lon="30.526304793784657"><ele>191.0</ele><time>2026-05-03T10:48:02.999Z</time></trkpt><trkpt lat="54.15015962213662" lon="30.526474924297183"><ele>191.0</ele><time>2026-05-03T10:48:03.999Z</time></trkpt><trkpt lat="54.150106604566346" lon="30.52662732407662"><ele>191.0</ele><time>2026-05-03T10:48:04.999Z</time></trkpt><trkpt lat="54.150060242441846" lon="30.526773386857435"><ele>191.20000000000002</ele><time>2026-05-03T10:48:05.999Z</time></trkpt><trkpt lat="54.14999341115231" lon="30.526864435909314"><ele>191.4</ele><time>2026-05-03T10:48:06.999Z</time></trkpt><trkpt lat="54.14994639181245" lon="30.52694687545075"><ele>191.6</ele><time>2026-05-03T10:48:07.999Z</time></trkpt><trkpt lat="54.14988621041261" lon="30.526993532983994"><ele>191.8</ele><time>2026-05-03T10:48:08.999Z</time></trkpt><trkpt lat="54.14976696041585" lon="30.52701682781944"><ele>192.0</ele><time>2026-05-03T10:48:10.999Z</time></trkpt><trkpt lat="54.14976674335432" lon="30.52678420621677"><ele>192.25</ele><time>2026-05-03T10:48:13.999Z</time></trkpt><trkpt lat="54.14974954655891" lon="30.526669758396924"><ele>192.5</ele><time>2026-05-03T10:48:14.999Z</time></trkpt><trkpt lat="54.14972482540827" lon="30.526505203342825"><ele>192.75</ele><time>2026-05-03T10:48:15.999Z</time></trkpt><trkpt lat="54.14969358606271" lon="30.526296868706623"><ele>193.0</ele><time>2026-05-03T10:48:16.999Z</time></trkpt><trkpt lat="54.14965428028371" lon="30.526034738997403"><ele>193.0</ele><time>2026-05-03T10:48:17.999Z</time></trkpt><trkpt lat="54.1496065394305" lon="30.52571635602993"><ele>193.0</ele><time>2026-05-03T10:48:18.999Z</time></trkpt><trkpt lat="54.14956033445046" lon="30.525408434982282"><ele>193.0</ele><time>2026-05-03T10:48:19.999Z</time></trkpt><trkpt lat="54.14951402327087" lon="30.52510002842347"><ele>192.66666666666666</ele><time>2026-05-03T10:48:20.999Z</time></trkpt><trkpt lat="54.149464023914916" lon="30.524767060558563"><ele>192.33333333333331</ele><time>2026-05-03T10:48:21.999Z</time></trkpt><trkpt lat="54.14941139194553" lon="30.524413827295774"><ele>192.0</ele><time>2026-05-03T10:48:22.999Z</time></trkpt><trkpt lat="54.14935975408765" lon="30.524069093476374"><ele>191.0</ele><time>2026-05-03T10:48:23.999Z</time></trkpt><trkpt lat="54.149308088720716" lon="30.523725823387064"><ele>190.0</ele><time>2026-05-03T10:48:24.999Z</time></trkpt><trkpt lat="54.149257453404964" lon="30.523386349463618"><ele>189.0</ele><time>2026-05-03T10:48:25.999Z</time></trkpt><trkpt lat="54.14920119182516" lon="30.52301060674532"><ele>188.66666666666666</ele><time>2026-05-03T10:48:26.999Z</time></trkpt><trkpt lat="54.1491509318817" lon="30.522675075894835"><ele>188.33333333333331</ele><time>2026-05-03T10:48:27.998Z</time></trkpt><trkpt lat="54.14909190898466" lon="30.522281071446766"><ele>188.0</ele><time>2026-05-03T10:48:28.998Z</time></trkpt><trkpt lat="54.149037649480505" lon="30.521918860993136"><ele>188.0</ele><time>2026-05-03T10:48:29.998Z</time></trkpt><trkpt lat="54.14897732569465" lon="30.521516162808012"><ele>188.0</ele><time>2026-05-03T10:48:30.998Z</time></trkpt><trkpt lat="54.14891476140903" lon="30.52111058443025"><ele>187.5</ele><time>2026-05-03T10:48:31.998Z</time></trkpt><trkpt lat="54.14885092290386" lon="30.520727465381718"><ele>187.0</ele><time>2026-05-03T10:48:32.998Z</time></trkpt><trkpt lat="54.1487860870154" lon="30.520337380473652"><ele>187.0</ele><time>2026-05-03T10:48:33.998Z</time></trkpt><trkpt lat="54.148718640833366" lon="30.519930574408885"><ele>187.0</ele><time>2026-05-03T10:48:34.998Z</time></trkpt><trkpt lat="54.14865029470659" lon="30.519521409010316"><ele>187.0</ele><time>2026-05-03T10:48:35.998Z</time></trkpt><trkpt lat="54.148580148881386" lon="30.51910314853008"><ele>187.0</ele><time>2026-05-03T10:48:36.998Z</time></trkpt><trkpt lat="54.14851212717854" lon="30.518694638859753"><ele>187.0</ele><time>2026-05-03T10:48:37.998Z</time></trkpt><trkpt lat="54.14844492358613" lon="30.5182910424627"><ele>187.0</ele><time>2026-05-03T10:48:38.998Z</time></trkpt><trkpt lat="54.14837722743257" lon="30.517884651996205"><ele>187.0</ele><time>2026-05-03T10:48:39.998Z</time></trkpt><trkpt lat="54.1483087848884" lon="30.517472949656"><ele>187.0</ele><time>2026-05-03T10:48:40.998Z</time></trkpt><trkpt lat="54.1482386372225" lon="30.517052947351225"><ele>187.5</ele><time>2026-05-03T10:48:41.998Z</time></trkpt><trkpt lat="54.14817118273287" lon="30.51664904580311"><ele>188.0</ele><time>2026-05-03T10:48:42.998Z</time></trkpt><trkpt lat="54.14810626790702" lon="30.516243868225555"><ele>187.5</ele><time>2026-05-03T10:48:43.998Z</time></trkpt><trkpt lat="54.148059800054234" lon="30.51587420739697"><ele>187.0</ele><time>2026-05-03T10:48:44.998Z</time></trkpt><trkpt lat="54.14801084375968" lon="30.51548402939035"><ele>187.5</ele><time>2026-05-03T10:48:45.998Z</time></trkpt><trkpt lat="54.14795903757845" lon="30.51507274932864"><ele>188.0</ele><time>2026-05-03T10:48:46.998Z</time></trkpt><trkpt lat="54.1479088672415" lon="30.514670254937936"><ele>188.5</ele><time>2026-05-03T10:48:47.998Z</time></trkpt><trkpt lat="54.14785882359687" lon="30.514274307324204"><ele>189.0</ele><time>2026-05-03T10:48:48.998Z</time></trkpt><trkpt lat="54.147806874899715" lon="30.51385961169362"><ele>188.5</ele><time>2026-05-03T10:48:49.998Z</time></trkpt><trkpt lat="54.14775313691601" lon="30.513430912432142"><ele>188.0</ele><time>2026-05-03T10:48:50.998Z</time></trkpt><trkpt lat="54.147700416582865" lon="30.513013192603392"><ele>188.0</ele><time>2026-05-03T10:48:51.998Z</time></trkpt><trkpt lat="54.14764768607783" lon="30.51259422520553"><ele>188.0</ele><time>2026-05-03T10:48:52.998Z</time></trkpt><trkpt lat="54.14759398194094" lon="30.512172025638197"><ele>188.0</ele><time>2026-05-03T10:48:53.998Z</time></trkpt><trkpt lat="54.14753941699692" lon="30.511745400225216"><ele>188.0</ele><time>2026-05-03T10:48:55Z</time></trkpt><trkpt lat="54.14748576484448" lon="30.511328911517683"><ele>188.0</ele><time>2026-05-03T10:48:56Z</time></trkpt><trkpt lat="54.14743236088138" lon="30.51091434931406"><ele>188.0</ele><time>2026-05-03T10:48:57Z</time></trkpt><trkpt lat="54.14737513031604" lon="30.51047345111056"><ele>189.0</ele><time>2026-05-03T10:48:58Z</time></trkpt><trkpt lat="54.147319037956" lon="30.510037237288167"><ele>190.0</ele><time>2026-05-03T10:48:59Z</time></trkpt><trkpt lat="54.14726171582411" lon="30.509592608307972"><ele>190.0</ele><time>2026-05-03T10:49:00Z</time></trkpt><trkpt lat="54.14720633776079" lon="30.509170800130356"><ele>190.0</ele><time>2026-05-03T10:49:01Z</time></trkpt><trkpt lat="54.14714707516372" lon="30.508722989208874"><ele>189.5</ele><time>2026-05-03T10:49:02Z</time></trkpt><trkpt lat="54.147086352485786" lon="30.508262464179065"><ele>189.0</ele><time>2026-05-03T10:49:03Z</time></trkpt><trkpt lat="54.14702503631471" lon="30.50779704003371"><ele>189.0</ele><time>2026-05-03T10:49:04Z</time></trkpt><trkpt lat="54.1469648640072" lon="30.50734029756627"><ele>189.0</ele><time>2026-05-03T10:49:05Z</time></trkpt><trkpt lat="54.146902919358894" lon="30.50687010251786"><ele>189.0</ele><time>2026-05-03T10:49:06Z</time></trkpt><trkpt lat="54.14684984476444" lon="30.506425914375956"><ele>189.0</ele><time>2026-05-03T10:49:07Z</time></trkpt><trkpt lat="54.14679693516205" lon="30.505987174140845"><ele>190.0</ele><time>2026-05-03T10:49:08Z</time></trkpt><trkpt lat="54.146745325508356" lon="30.505552178463546"><ele>191.0</ele><time>2026-05-03T10:49:09Z</time></trkpt><trkpt lat="54.14669489063499" lon="30.505133662571836"><ele>191.5</ele><time>2026-05-03T10:49:10Z</time></trkpt><trkpt lat="54.146646615458906" lon="30.50473172713243"><ele>192.0</ele><time>2026-05-03T10:49:11Z</time></trkpt><trkpt lat="54.14660324988801" lon="30.50437023420563"><ele>192.66666666666669</ele><time>2026-05-03T10:49:12Z</time></trkpt><trkpt lat="54.146563470458275" lon="30.504038632503264"><ele>193.33333333333334</ele><time>2026-05-03T10:49:13Z</time></trkpt><trkpt lat="54.14651769076781" lon="30.50366023137022"><ele>194.0</ele><time>2026-05-03T10:49:14Z</time></trkpt><trkpt lat="54.1465100743881" lon="30.503274171186757"><ele>194.0</ele><time>2026-05-03T10:49:15Z</time></trkpt><trkpt lat="54.146499764418266" lon="30.502901271050977"><ele>194.0</ele><time>2026-05-03T10:49:16Z</time></trkpt><trkpt lat="54.146509429361885" lon="30.502554410580508"><ele>194.0</ele><time>2026-05-03T10:49:17Z</time></trkpt><trkpt lat="54.146521047898965" lon="30.502199235420765"><ele>194.33333333333334</ele><time>2026-05-03T10:49:18Z</time></trkpt><trkpt lat="54.14653352692259" lon="30.501823360672173"><ele>194.66666666666669</ele><time>2026-05-03T10:49:19Z</time></trkpt><trkpt lat="54.146557919880806" lon="30.501459118936342"><ele>195.0</ele><time>2026-05-03T10:49:20Z</time></trkpt><trkpt lat="54.14658475742106" lon="30.501080122817225"><ele>195.0</ele><time>2026-05-03T10:49:21Z</time></trkpt><trkpt lat="54.14661111944489" lon="30.500704137124018"><ele>195.0</ele><time>2026-05-03T10:49:22Z</time></trkpt><trkpt lat="54.146638392164064" lon="30.500321235616294"><ele>195.0</ele><time>2026-05-03T10:49:23Z</time></trkpt><trkpt lat="54.14666591678482" lon="30.49993479777388"><ele>196.0</ele><time>2026-05-03T10:49:24Z</time></trkpt><trkpt lat="54.14669222767649" lon="30.499565399519327"><ele>197.0</ele><time>2026-05-03T10:49:25Z</time></trkpt><trkpt lat="54.14677033955821" lon="30.49922860492593"><ele>198.0</ele><time>2026-05-03T10:49:26Z</time></trkpt><trkpt lat="54.1468500001655" lon="30.49888076918344"><ele>198.33333333333331</ele><time>2026-05-03T10:49:27Z</time></trkpt><trkpt lat="54.14692880278145" lon="30.498537163494245"><ele>198.66666666666666</ele><time>2026-05-03T10:49:28Z</time></trkpt><trkpt lat="54.14700705390695" lon="30.498195961982766"><ele>199.0</ele><time>2026-05-03T10:49:29Z</time></trkpt><trkpt lat="54.14708588850433" lon="30.49786274910009"><ele>199.66666666666666</ele><time>2026-05-03T10:49:30Z</time></trkpt><trkpt lat="54.147164494169864" lon="30.497536876966016"><ele>200.33333333333331</ele><time>2026-05-03T10:49:31Z</time></trkpt><trkpt lat="54.147244413425575" lon="30.497205559139424"><ele>201.0</ele><time>2026-05-03T10:49:31.999Z</time></trkpt><trkpt lat="54.147317071854374" lon="30.496871216843193"><ele>202.0</ele><time>2026-05-03T10:49:32.999Z</time></trkpt><trkpt lat="54.14721445289799" lon="30.49642484889726"><ele>203.0</ele><time>2026-05-03T10:49:33.999Z</time></trkpt><trkpt lat="54.14724675346461" lon="30.49611003644406"><ele>203.0</ele><time>2026-05-03T10:49:34.999Z</time></trkpt><trkpt lat="54.147281228328666" lon="30.495818590985998"><ele>203.0</ele><time>2026-05-03T10:49:35.999Z</time></trkpt><trkpt lat="54.147316267752316" lon="30.495539709640003"><ele>203.0</ele><time>2026-05-03T10:49:36.999Z</time></trkpt><trkpt lat="54.14734381182389" lon="30.49529894231401"><ele>203.0</ele><time>2026-05-03T10:49:37.999Z</time></trkpt><trkpt lat="54.147364824460105" lon="30.495107854925116"><ele>203.0</ele><time>2026-05-03T10:49:38.999Z</time></trkpt><trkpt lat="54.14737919766127" lon="30.494978652377718"><ele>203.0</ele><time>2026-05-03T10:49:39.999Z</time></trkpt><trkpt lat="54.14739731166061" lon="30.49477560093335"><ele>203.0</ele><time>2026-05-03T10:49:41.999Z</time></trkpt><trkpt lat="54.14741116087814" lon="30.494599233093748"><ele>203.0</ele><time>2026-05-03T10:49:43.999Z</time></trkpt><trkpt lat="54.14741836120336" lon="30.49448063211146"><ele>202.83333333333334</ele><time>2026-05-03T10:49:44.999Z</time></trkpt><trkpt lat="54.14743143937033" lon="30.494336931389796"><ele>202.66666666666669</ele><time>2026-05-03T10:49:45.999Z</time></trkpt><trkpt lat="54.14744256625949" lon="30.494196340841224"><ele>202.5</ele><time>2026-05-03T10:49:46.999Z</time></trkpt><trkpt lat="54.14745286451265" lon="30.49404835155519"><ele>202.33333333333331</ele><time>2026-05-03T10:49:47.999Z</time></trkpt><trkpt lat="54.14746580534799" lon="30.493894029352496"><ele>202.16666666666666</ele><time>2026-05-03T10:49:48.999Z</time></trkpt><trkpt lat="54.14747921447064" lon="30.493726345816544"><ele>202.0</ele><time>2026-05-03T10:49:49.999Z</time></trkpt><trkpt lat="54.14748520133039" lon="30.493552408201012"><ele>202.0</ele><time>2026-05-03T10:49:50.999Z</time></trkpt><trkpt lat="54.14748577182135" lon="30.493364541562237"><ele>202.0</ele><time>2026-05-03T10:49:51.999Z</time></trkpt><trkpt lat="54.14748050366663" lon="30.493178767064972"><ele>202.0</ele><time>2026-05-03T10:49:52.999Z</time></trkpt><trkpt lat="54.1474735576128" lon="30.49296939139577"><ele>202.0</ele><time>2026-05-03T10:49:53.999Z</time></trkpt><trkpt lat="54.147455158430255" lon="30.492753700195767"><ele>202.0</ele><time>2026-05-03T10:49:54.999Z</time></trkpt><trkpt lat="54.147431179711404" lon="30.492504434327312"><ele>202.0</ele><time>2026-05-03T10:49:55.999Z</time></trkpt><trkpt lat="54.14740769764346" lon="30.492236210753532"><ele>202.0</ele><time>2026-05-03T10:49:56.999Z</time></trkpt><trkpt lat="54.14738651332972" lon="30.491964609129806"><ele>201.33333333333331</ele><time>2026-05-03T10:49:57.999Z</time></trkpt><trkpt lat="54.14736429383927" lon="30.4916718642575"><ele>200.66666666666669</ele><time>2026-05-03T10:49:58.999Z</time></trkpt><trkpt lat="54.147340178189744" lon="30.49135602428081"><ele>200.0</ele><time>2026-05-03T10:49:59.999Z</time></trkpt><trkpt lat="54.147318214274414" lon="30.491023803892197"><ele>200.0</ele><time>2026-05-03T10:50:00.999Z</time></trkpt><trkpt lat="54.14729505120093" lon="30.49068789231364"><ele>200.0</ele><time>2026-05-03T10:50:01.999Z</time></trkpt><trkpt lat="54.147267687581575" lon="30.490349622983207"><ele>200.0</ele><time>2026-05-03T10:50:02.999Z</time></trkpt><trkpt lat="54.1472379919607" lon="30.489999912151234"><ele>200.0</ele><time>2026-05-03T10:50:03.999Z</time></trkpt><trkpt lat="54.14720530059915" lon="30.489681673893067"><ele>200.0</ele><time>2026-05-03T10:50:04.999Z</time></trkpt><trkpt lat="54.14717084512757" lon="30.489372196573193"><ele>200.0</ele><time>2026-05-03T10:50:05.999Z</time></trkpt><trkpt lat="54.14713907488982" lon="30.489040787150937"><ele>200.0</ele><time>2026-05-03T10:50:06.999Z</time></trkpt><trkpt lat="54.14711613027599" lon="30.488686280542193"><ele>200.0</ele><time>2026-05-03T10:50:07.999Z</time></trkpt><trkpt lat="54.14710021505454" lon="30.488321714385368"><ele>200.0</ele><time>2026-05-03T10:50:08.999Z</time></trkpt><trkpt lat="54.14709366961651" lon="30.487944161273084"><ele>199.5</ele><time>2026-05-03T10:50:09.999Z</time></trkpt><trkpt lat="54.14708994535523" lon="30.487558580605754"><ele>199.0</ele><time>2026-05-03T10:50:10.999Z</time></trkpt><trkpt lat="54.14708563568471" lon="30.487167374540046"><ele>199.0</ele><time>2026-05-03T10:50:11.999Z</time></trkpt><trkpt lat="54.14707873158286" lon="30.486789119106742"><ele>199.0</ele><time>2026-05-03T10:50:12.999Z</time></trkpt><trkpt lat="54.147067806682436" lon="30.486425547218502"><ele>199.0</ele><time>2026-05-03T10:50:13.999Z</time></trkpt><trkpt lat="54.14705582635727" lon="30.48604906574873"><ele>199.0</ele><time>2026-05-03T10:50:14.999Z</time></trkpt><trkpt lat="54.14704350849266" lon="30.485672842737152"><ele>199.0</ele><time>2026-05-03T10:50:15.999Z</time></trkpt><trkpt lat="54.147037796336676" lon="30.485286272763986"><ele>199.0</ele><time>2026-05-03T10:50:16.999Z</time></trkpt><trkpt lat="54.147028952685226" lon="30.484910011543047"><ele>199.0</ele><time>2026-05-03T10:50:17.999Z</time></trkpt><trkpt lat="54.147018438164125" lon="30.484531252376666"><ele>199.0</ele><time>2026-05-03T10:50:18.999Z</time></trkpt><trkpt lat="54.14701085550218" lon="30.48413849012214"><ele>199.0</ele><time>2026-05-03T10:50:19.999Z</time></trkpt><trkpt lat="54.14700400459741" lon="30.4837424824655"><ele>199.0</ele><time>2026-05-03T10:50:20.999Z</time></trkpt><trkpt lat="54.14699628594442" lon="30.48334377979743"><ele>199.0</ele><time>2026-05-03T10:50:21.999Z</time></trkpt><trkpt lat="54.14698501490033" lon="30.48293996642093"><ele>199.0</ele><time>2026-05-03T10:50:22.999Z</time></trkpt><trkpt lat="54.14697351952202" lon="30.482526049860642"><ele>199.0</ele><time>2026-05-03T10:50:23.999Z</time></trkpt><trkpt lat="54.14696214223485" lon="30.482109434565043"><ele>199.0</ele><time>2026-05-03T10:50:24.999Z</time></trkpt><trkpt lat="54.146952678506274" lon="30.48169178586156"><ele>200.0</ele><time>2026-05-03T10:50:25.999Z</time></trkpt><trkpt lat="54.14694574778221" lon="30.48127314502962"><ele>201.0</ele><time>2026-05-03T10:50:26.999Z</time></trkpt><trkpt lat="54.146940680179576" lon="30.480847098602077"><ele>203.0</ele><time>2026-05-03T10:50:27.999Z</time></trkpt><trkpt lat="54.14693621127602" lon="30.48042416754868"><ele>205.0</ele><time>2026-05-03T10:50:28.999Z</time></trkpt><trkpt lat="54.146927799740176" lon="30.479998014668976"><ele>207.5</ele><time>2026-05-03T10:50:29.999Z</time></trkpt><trkpt lat="54.146920381877734" lon="30.479555716437012"><ele>210.0</ele><time>2026-05-03T10:50:30.999Z</time></trkpt><trkpt lat="54.146920959494814" lon="30.479127067663523"><ele>210.0</ele><time>2026-05-03T10:50:31.999Z</time></trkpt><trkpt lat="54.146926125874785" lon="30.478690882140032"><ele>210.0</ele><time>2026-05-03T10:50:32.999Z</time></trkpt><trkpt lat="54.14693828855191" lon="30.478258337774978"><ele>210.5</ele><time>2026-05-03T10:50:33.999Z</time></trkpt><trkpt lat="54.14699537130747" lon="30.47781773141651"><ele>211.0</ele><time>2026-05-03T10:50:34.999Z</time></trkpt><trkpt lat="54.14700952502673" lon="30.47737991967692"><ele>210.5</ele><time>2026-05-03T10:50:35.999Z</time></trkpt><trkpt lat="54.14702478995031" lon="30.476925627427246"><ele>210.0</ele><time>2026-05-03T10:50:36.999Z</time></trkpt><trkpt lat="54.14703837616876" lon="30.476487136089226"><ele>209.0</ele><time>2026-05-03T10:50:37.999Z</time></trkpt><trkpt lat="54.14705300980873" lon="30.476034669093483"><ele>208.0</ele><time>2026-05-03T10:50:38.999Z</time></trkpt><trkpt lat="54.14706805352347" lon="30.47557662115231"><ele>204.5</ele><time>2026-05-03T10:50:39.999Z</time></trkpt><trkpt lat="54.14708297041267" lon="30.47511854882167"><ele>201.0</ele><time>2026-05-03T10:50:40.999Z</time></trkpt><trkpt lat="54.14709818119482" lon="30.47465469852237"><ele>202.0</ele><time>2026-05-03T10:50:41.999Z</time></trkpt><trkpt lat="54.14710956285819" lon="30.47419071562241"><ele>203.0</ele><time>2026-05-03T10:50:42.998Z</time></trkpt><trkpt lat="54.147118472979514" lon="30.47372523417688"><ele>203.5</ele><time>2026-05-03T10:50:43.998Z</time></trkpt><trkpt lat="54.14712712521879" lon="30.473262683290343"><ele>204.0</ele><time>2026-05-03T10:50:44.998Z</time></trkpt><trkpt lat="54.14713555466093" lon="30.472792026595492"><ele>206.0</ele><time>2026-05-03T10:50:45.998Z</time></trkpt><trkpt lat="54.147144864810876" lon="30.47231304864504"><ele>208.0</ele><time>2026-05-03T10:50:46.998Z</time></trkpt><trkpt lat="54.14713757866528" lon="30.471846116790786"><ele>210.0</ele><time>2026-05-03T10:50:47.998Z</time></trkpt><trkpt lat="54.14716206184014" lon="30.471411134301736"><ele>212.0</ele><time>2026-05-03T10:50:48.998Z</time></trkpt><trkpt lat="54.1471701941175" lon="30.470987316677782"><ele>212.0</ele><time>2026-05-03T10:50:49.998Z</time></trkpt><trkpt lat="54.14717896442114" lon="30.47053633270974"><ele>212.0</ele><time>2026-05-03T10:50:50.998Z</time></trkpt><trkpt lat="54.147187240805614" lon="30.470080349132253"><ele>212.5</ele><time>2026-05-03T10:50:51.998Z</time></trkpt><trkpt lat="54.147196293513986" lon="30.469623782374406"><ele>213.0</ele><time>2026-05-03T10:50:52.998Z</time></trkpt><trkpt lat="54.14720468637459" lon="30.469160191519347"><ele>213.0</ele><time>2026-05-03T10:50:53.998Z</time></trkpt><trkpt lat="54.14721407679222" lon="30.468682685706906"><ele>213.0</ele><time>2026-05-03T10:50:54.998Z</time></trkpt><trkpt lat="54.147223206669544" lon="30.46821213477075"><ele>213.0</ele><time>2026-05-03T10:50:55.998Z</time></trkpt><trkpt lat="54.14723212688961" lon="30.467731578253197"><ele>213.0</ele><time>2026-05-03T10:50:56.998Z</time></trkpt><trkpt lat="54.14724143978634" lon="30.467249766285192"><ele>213.0</ele><time>2026-05-03T10:50:57.998Z</time></trkpt><trkpt lat="54.14725081072668" lon="30.466764225873835"><ele>213.0</ele><time>2026-05-03T10:50:58.998Z</time></trkpt><trkpt lat="54.147260178009205" lon="30.466271737297923"><ele>213.0</ele><time>2026-05-03T10:50:59.998Z</time></trkpt><trkpt lat="54.147269493237" lon="30.465774396901338"><ele>213.0</ele><time>2026-05-03T10:51:01Z</time></trkpt><trkpt lat="54.14727867139723" lon="30.465276558386194"><ele>213.0</ele><time>2026-05-03T10:51:02Z</time></trkpt><trkpt lat="54.14728831863874" lon="30.464770814402748"><ele>213.0</ele><time>2026-05-03T10:51:03Z</time></trkpt><trkpt lat="54.14729803669893" lon="30.464268774480303"><ele>213.0</ele><time>2026-05-03T10:51:04Z</time></trkpt><trkpt lat="54.147306802309934" lon="30.46380677447024"><ele>213.0</ele><time>2026-05-03T10:51:05Z</time></trkpt><trkpt lat="54.14731473249815" lon="30.463380617607672"><ele>212.0</ele><time>2026-05-03T10:51:06Z</time></trkpt><trkpt lat="54.147319020057246" lon="30.46297521202315"><ele>211.0</ele><time>2026-05-03T10:51:07Z</time></trkpt><trkpt lat="54.147319820055074" lon="30.46259653078352"><ele>211.0</ele><time>2026-05-03T10:51:08Z</time></trkpt><trkpt lat="54.147319820054165" lon="30.46223836068311"><ele>211.0</ele><time>2026-05-03T10:51:09Z</time></trkpt><trkpt lat="54.14732022788735" lon="30.461890484299456"><ele>211.0</ele><time>2026-05-03T10:51:10Z</time></trkpt><trkpt lat="54.1473206200534" lon="30.461557935525338"><ele>211.0</ele><time>2026-05-03T10:51:11Z</time></trkpt><trkpt lat="54.147256675577836" lon="30.4612044649865"><ele>211.0</ele><time>2026-05-03T10:51:12Z</time></trkpt><trkpt lat="54.14721451725656" lon="30.46084541002488"><ele>211.0</ele><time>2026-05-03T10:51:13Z</time></trkpt><trkpt lat="54.14715763702287" lon="30.460512498565436"><ele>211.0</ele><time>2026-05-03T10:51:14Z</time></trkpt><trkpt lat="54.147088514540755" lon="30.460154956728434"><ele>211.0</ele><time>2026-05-03T10:51:15Z</time></trkpt><trkpt lat="54.14700088196108" lon="30.459784134793434"><ele>210.5</ele><time>2026-05-03T10:51:16Z</time></trkpt><trkpt lat="54.146908972978444" lon="30.45941552440957"><ele>210.0</ele><time>2026-05-03T10:51:17Z</time></trkpt><trkpt lat="54.14681728516997" lon="30.45903928071235"><ele>208.5</ele><time>2026-05-03T10:51:18Z</time></trkpt><trkpt lat="54.14672819392579" lon="30.458664692458804"><ele>207.0</ele><time>2026-05-03T10:51:19Z</time></trkpt><trkpt lat="54.14667105090642" lon="30.45831072406626"><ele>207.0</ele><time>2026-05-03T10:51:20Z</time></trkpt><trkpt lat="54.1466007129158" lon="30.457963789946035"><ele>207.0</ele><time>2026-05-03T10:51:21Z</time></trkpt><trkpt lat="54.14654000826375" lon="30.45766558391842"><ele>207.0</ele><time>2026-05-03T10:51:22Z</time></trkpt><trkpt lat="54.146487662343745" lon="30.45740779710034"><ele>207.0</ele><time>2026-05-03T10:51:23Z</time></trkpt><trkpt lat="54.14644338600311" lon="30.457190698258078"><ele>207.0</ele><time>2026-05-03T10:51:24Z</time></trkpt><trkpt lat="54.146409770595284" lon="30.457025690478453"><ele>207.0</ele><time>2026-05-03T10:51:25Z</time></trkpt><trkpt lat="54.14638402924436" lon="30.456898832437847"><ele>207.0</ele><time>2026-05-03T10:51:26Z</time></trkpt><trkpt lat="54.146353285617835" lon="30.45674716275818"><ele>207.0</ele><time>2026-05-03T10:51:28Z</time></trkpt><trkpt lat="54.14632849328928" lon="30.456624838351566"><ele>206.25</ele><time>2026-05-03T10:51:36Z</time></trkpt><trkpt lat="54.14616804409134" lon="30.456559067659548"><ele>205.5</ele><time>2026-05-03T10:51:38Z</time></trkpt><trkpt lat="54.146075861678916" lon="30.456544619133282"><ele>204.75</ele><time>2026-05-03T10:51:39Z</time></trkpt><trkpt lat="54.14595470048001" lon="30.456559901521526"><ele>204.0</ele><time>2026-05-03T10:51:40Z</time></trkpt><trkpt lat="54.14583222774831" lon="30.456577773566313"><ele>203.33333333333331</ele><time>2026-05-03T10:51:41Z</time></trkpt><trkpt lat="54.14568568561145" lon="30.456594185184628"><ele>202.66666666666666</ele><time>2026-05-03T10:51:42Z</time></trkpt><trkpt lat="54.14551785843924" lon="30.45660919012741"><ele>202.0</ele><time>2026-05-03T10:51:43Z</time></trkpt><trkpt lat="54.1453086555437" lon="30.45662263431906"><ele>202.0</ele><time>2026-05-03T10:51:44Z</time></trkpt><trkpt lat="54.14511061062117" lon="30.456632731356194"><ele>202.0</ele><time>2026-05-03T10:51:45Z</time></trkpt><trkpt lat="54.14492271646128" lon="30.4566433957524"><ele>202.0</ele><time>2026-05-03T10:51:46Z</time></trkpt><trkpt lat="54.14472159774955" lon="30.45665058999478"><ele>201.66666666666666</ele><time>2026-05-03T10:51:47Z</time></trkpt><trkpt lat="54.14450292474456" lon="30.456656418176845"><ele>201.33333333333331</ele><time>2026-05-03T10:51:48Z</time></trkpt><trkpt lat="54.144282148707774" lon="30.456665199905064"><ele>201.0</ele><time>2026-05-03T10:51:48.999Z</time></trkpt><trkpt lat="54.144046389225394" lon="30.456677218973166"><ele>201.0</ele><time>2026-05-03T10:51:49.999Z</time></trkpt><trkpt lat="54.14380566465879" lon="30.456697685211335"><ele>201.0</ele><time>2026-05-03T10:51:50.999Z</time></trkpt><trkpt lat="54.1435747519526" lon="30.45671352006229"><ele>201.0</ele><time>2026-05-03T10:51:51.999Z</time></trkpt><trkpt lat="54.14334540818173" lon="30.456733996154206"><ele>201.0</ele><time>2026-05-03T10:51:52.999Z</time></trkpt><trkpt lat="54.14312170388105" lon="30.45675437620853"><ele>200.0</ele><time>2026-05-03T10:51:53.999Z</time></trkpt><trkpt lat="54.14287629979288" lon="30.456766795995602"><ele>199.0</ele><time>2026-05-03T10:51:54.999Z</time></trkpt><trkpt lat="54.142633978868275" lon="30.456752908291673"><ele>199.0</ele><time>2026-05-03T10:51:55.999Z</time></trkpt><trkpt lat="54.14238287801578" lon="30.456766732102313"><ele>199.0</ele><time>2026-05-03T10:51:56.999Z</time></trkpt><trkpt lat="54.14212322246542" lon="30.456781027931346"><ele>199.5</ele><time>2026-05-03T10:51:57.999Z</time></trkpt><trkpt lat="54.141864397363584" lon="30.456795276975793"><ele>200.0</ele><time>2026-05-03T10:51:58.999Z</time></trkpt><trkpt lat="54.14159274277394" lon="30.456810721552014"><ele>199.5</ele><time>2026-05-03T10:51:59.999Z</time></trkpt><trkpt lat="54.14132484278991" lon="30.456826140533053"><ele>199.0</ele><time>2026-05-03T10:52:00.999Z</time></trkpt><trkpt lat="54.14104696828788" lon="30.456841531291857"><ele>199.0</ele><time>2026-05-03T10:52:01.999Z</time></trkpt><trkpt lat="54.14077540142063" lon="30.456855894984677"><ele>199.0</ele><time>2026-05-03T10:52:02.999Z</time></trkpt><trkpt lat="54.14049335573457" lon="30.456871975309678"><ele>199.0</ele><time>2026-05-03T10:52:03.999Z</time></trkpt><trkpt lat="54.14022374527898" lon="30.45688675625621"><ele>199.0</ele><time>2026-05-03T10:52:04.999Z</time></trkpt><trkpt lat="54.139962921338366" lon="30.456901022299217"><ele>199.0</ele><time>2026-05-03T10:52:05.999Z</time></trkpt><trkpt lat="54.13970934673512" lon="30.456914891828433"><ele>199.0</ele><time>2026-05-03T10:52:06.999Z</time></trkpt><trkpt lat="54.13944939595654" lon="30.45692962116245"><ele>199.0</ele><time>2026-05-03T10:52:07.999Z</time></trkpt><trkpt lat="54.139214691637044" lon="30.45694313495591"><ele>199.0</ele><time>2026-05-03T10:52:08.999Z</time></trkpt><trkpt lat="54.13895726051638" lon="30.456957161166443"><ele>197.5</ele><time>2026-05-03T10:52:09.999Z</time></trkpt><trkpt lat="54.138697825407306" lon="30.45697134344565"><ele>196.0</ele><time>2026-05-03T10:52:10.999Z</time></trkpt><trkpt lat="54.13844708663116" lon="30.45698510792843"><ele>192.5</ele><time>2026-05-03T10:52:11.999Z</time></trkpt><trkpt lat="54.138189063436634" lon="30.456999157876783"><ele>189.0</ele><time>2026-05-03T10:52:12.999Z</time></trkpt><trkpt lat="54.13792647120737" lon="30.457014384338823"><ele>189.0</ele><time>2026-05-03T10:52:13.999Z</time></trkpt><trkpt lat="54.137671656861905" lon="30.457028424465214"><ele>189.0</ele><time>2026-05-03T10:52:14.999Z</time></trkpt><trkpt lat="54.137411545791586" lon="30.457041910091696"><ele>187.5</ele><time>2026-05-03T10:52:15.999Z</time></trkpt><trkpt lat="54.137145488843494" lon="30.45705746179378"><ele>186.0</ele><time>2026-05-03T10:52:16.999Z</time></trkpt><trkpt lat="54.1368781634714" lon="30.45707195993424"><ele>186.0</ele><time>2026-05-03T10:52:17.999Z</time></trkpt><trkpt lat="54.13660581047315" lon="30.45708644128657"><ele>186.0</ele><time>2026-05-03T10:52:18.999Z</time></trkpt><trkpt lat="54.136327236039044" lon="30.457101065016076"><ele>190.0</ele><time>2026-05-03T10:52:19.999Z</time></trkpt><trkpt lat="54.13604811909104" lon="30.457119772896576"><ele>194.0</ele><time>2026-05-03T10:52:20.999Z</time></trkpt><trkpt lat="54.135763723219604" lon="30.457227940121715"><ele>194.5</ele><time>2026-05-03T10:52:21.999Z</time></trkpt><trkpt lat="54.135455928412334" lon="30.457250172581716"><ele>195.0</ele><time>2026-05-03T10:52:22.999Z</time></trkpt><trkpt lat="54.13513612279401" lon="30.457271030652493"><ele>196.5</ele><time>2026-05-03T10:52:23.999Z</time></trkpt><trkpt lat="54.13481403143788" lon="30.45728275812153"><ele>198.0</ele><time>2026-05-03T10:52:24.999Z</time></trkpt><trkpt lat="54.13447822831716" lon="30.457297038830138"><ele>198.0</ele><time>2026-05-03T10:52:25.999Z</time></trkpt><trkpt lat="54.13415273930943" lon="30.45731270249489"><ele>198.0</ele><time>2026-05-03T10:52:26.999Z</time></trkpt><trkpt lat="54.1338311938448" lon="30.45732568227017"><ele>200.0</ele><time>2026-05-03T10:52:27.999Z</time></trkpt><trkpt lat="54.13350621148391" lon="30.457341686621284"><ele>202.0</ele><time>2026-05-03T10:52:28.999Z</time></trkpt><trkpt lat="54.13318064309719" lon="30.45736501448419"><ele>204.0</ele><time>2026-05-03T10:52:29.999Z</time></trkpt><trkpt lat="54.13285100438862" lon="30.457384536225707"><ele>206.0</ele><time>2026-05-03T10:52:30.999Z</time></trkpt><trkpt lat="54.13253692526833" lon="30.457404988862162"><ele>206.0</ele><time>2026-05-03T10:52:31.999Z</time></trkpt><trkpt lat="54.13222828999331" lon="30.45742296128157"><ele>206.0</ele><time>2026-05-03T10:52:32.999Z</time></trkpt><trkpt lat="54.13191198206965" lon="30.457441750144284"><ele>206.0</ele><time>2026-05-03T10:52:33.999Z</time></trkpt><trkpt lat="54.13159182218742" lon="30.457456100285373"><ele>206.0</ele><time>2026-05-03T10:52:34.999Z</time></trkpt><trkpt lat="54.13127338737581" lon="30.457465299611467"><ele>206.0</ele><time>2026-05-03T10:52:35.999Z</time></trkpt><trkpt lat="54.1309514411907" lon="30.45748110101372"><ele>206.0</ele><time>2026-05-03T10:52:36.999Z</time></trkpt><trkpt lat="54.130628702383454" lon="30.457498212565895"><ele>205.5</ele><time>2026-05-03T10:52:37.999Z</time></trkpt><trkpt lat="54.13030489637925" lon="30.45751728913857"><ele>205.0</ele><time>2026-05-03T10:52:38.999Z</time></trkpt><trkpt lat="54.129981406021514" lon="30.457541270636685"><ele>203.0</ele><time>2026-05-03T10:52:39.999Z</time></trkpt><trkpt lat="54.1296589061364" lon="30.457564344084133"><ele>201.0</ele><time>2026-05-03T10:52:40.999Z</time></trkpt><trkpt lat="54.129336667245546" lon="30.457580189298994"><ele>199.0</ele><time>2026-05-03T10:52:41.999Z</time></trkpt><trkpt lat="54.12900443627242" lon="30.457594674666908"><ele>197.0</ele><time>2026-05-03T10:52:42.999Z</time></trkpt><trkpt lat="54.12867638234937" lon="30.457616034702227"><ele>197.0</ele><time>2026-05-03T10:52:43.999Z</time></trkpt><trkpt lat="54.12834494182579" lon="30.457633387997728"><ele>197.0</ele><time>2026-05-03T10:52:44.999Z</time></trkpt><trkpt lat="54.12801641418211" lon="30.457654487002117"><ele>197.0</ele><time>2026-05-03T10:52:45.999Z</time></trkpt><trkpt lat="54.12768631429852" lon="30.45767990157222"><ele>197.0</ele><time>2026-05-03T10:52:46.999Z</time></trkpt><trkpt lat="54.127354981843524" lon="30.457706637341882"><ele>196.5</ele><time>2026-05-03T10:52:47.999Z</time></trkpt><trkpt lat="54.127017860541784" lon="30.457733216139175"><ele>196.0</ele><time>2026-05-03T10:52:48.999Z</time></trkpt><trkpt lat="54.12668788908119" lon="30.457755461982092"><ele>196.5</ele><time>2026-05-03T10:52:49.999Z</time></trkpt><trkpt lat="54.12636047062829" lon="30.457780098052755"><ele>197.0</ele><time>2026-05-03T10:52:50.999Z</time></trkpt><trkpt lat="54.12603617403538" lon="30.457797982380914"><ele>197.5</ele><time>2026-05-03T10:52:51.999Z</time></trkpt><trkpt lat="54.12570581476063" lon="30.457817962229047"><ele>198.0</ele><time>2026-05-03T10:52:52.999Z</time></trkpt><trkpt lat="54.125376886111994" lon="30.457833958280467"><ele>198.0</ele><time>2026-05-03T10:52:53.999Z</time></trkpt><trkpt lat="54.12505027635188" lon="30.45785702368436"><ele>198.0</ele><time>2026-05-03T10:52:54.999Z</time></trkpt><trkpt lat="54.12472690602809" lon="30.457870850940612"><ele>197.5</ele><time>2026-05-03T10:52:55.999Z</time></trkpt><trkpt lat="54.124403317625585" lon="30.45788643825643"><ele>197.0</ele><time>2026-05-03T10:52:56.999Z</time></trkpt><trkpt lat="54.124073049550766" lon="30.457914594569733"><ele>196.0</ele><time>2026-05-03T10:52:57.999Z</time></trkpt><trkpt lat="54.12374985733518" lon="30.457937100097023"><ele>195.0</ele><time>2026-05-03T10:52:58.998Z</time></trkpt><trkpt lat="54.12340644978601" lon="30.45795844500751"><ele>193.5</ele><time>2026-05-03T10:52:59.998Z</time></trkpt><trkpt lat="54.12306557612078" lon="30.457978218252794"><ele>192.0</ele><time>2026-05-03T10:53:00.998Z</time></trkpt><trkpt lat="54.12270756073876" lon="30.45799987489425"><ele>191.0</ele><time>2026-05-03T10:53:01.998Z</time></trkpt><trkpt lat="54.12235175484368" lon="30.45801940775317"><ele>190.0</ele><time>2026-05-03T10:53:02.998Z</time></trkpt><trkpt lat="54.12199497281527" lon="30.458040152104314"><ele>190.0</ele><time>2026-05-03T10:53:03.998Z</time></trkpt><trkpt lat="54.121639374574414" lon="30.458061999633323"><ele>190.0</ele><time>2026-05-03T10:53:04.998Z</time></trkpt><trkpt lat="54.121283696515206" lon="30.45807986560715"><ele>190.0</ele><time>2026-05-03T10:53:05.998Z</time></trkpt><trkpt lat="54.120929478418404" lon="30.458102452857904"><ele>190.0</ele><time>2026-05-03T10:53:07Z</time></trkpt><trkpt lat="54.120595783815084" lon="30.458124568147635"><ele>192.5</ele><time>2026-05-03T10:53:08Z</time></trkpt><trkpt lat="54.12028561019646" lon="30.45814922143111"><ele>195.0</ele><time>2026-05-03T10:53:09Z</time></trkpt><trkpt lat="54.119992474742965" lon="30.458166892748153"><ele>194.5</ele><time>2026-05-03T10:53:10Z</time></trkpt><trkpt lat="54.11969270046591" lon="30.4581776302412"><ele>194.0</ele><time>2026-05-03T10:53:11Z</time></trkpt><trkpt lat="54.11939601440694" lon="30.458198005680973"><ele>194.0</ele><time>2026-05-03T10:53:12Z</time></trkpt><trkpt lat="54.119110701441265" lon="30.45821402884554"><ele>194.0</ele><time>2026-05-03T10:53:13Z</time></trkpt><trkpt lat="54.1188506045469" lon="30.458227764195794"><ele>194.0</ele><time>2026-05-03T10:53:14Z</time></trkpt><trkpt lat="54.118619406662056" lon="30.458257631911803"><ele>194.0</ele><time>2026-05-03T10:53:15Z</time></trkpt><trkpt lat="54.11844444431428" lon="30.4582676224981"><ele>194.0</ele><time>2026-05-03T10:53:16Z</time></trkpt><trkpt lat="54.11829690689744" lon="30.4582754134508"><ele>193.66666666666669</ele><time>2026-05-03T10:53:17Z</time></trkpt><trkpt lat="54.118128734088586" lon="30.45828323628359"><ele>193.33333333333331</ele><time>2026-05-03T10:53:18Z</time></trkpt><trkpt lat="54.117941731467255" lon="30.458293554325742"><ele>193.0</ele><time>2026-05-03T10:53:19Z</time></trkpt><trkpt lat="54.117743004001184" lon="30.458307062764778"><ele>193.0</ele><time>2026-05-03T10:53:20Z</time></trkpt><trkpt lat="54.117523439654235" lon="30.45831808319944"><ele>193.0</ele><time>2026-05-03T10:53:21Z</time></trkpt><trkpt lat="54.11728555249535" lon="30.458328123064806"><ele>192.5</ele><time>2026-05-03T10:53:22Z</time></trkpt><trkpt lat="54.117038728584426" lon="30.45833899462035"><ele>192.0</ele><time>2026-05-03T10:53:23Z</time></trkpt><trkpt lat="54.11677168602783" lon="30.458272176127693"><ele>192.5</ele><time>2026-05-03T10:53:24Z</time></trkpt><trkpt lat="54.116495357186906" lon="30.458293962760216"><ele>193.0</ele><time>2026-05-03T10:53:25Z</time></trkpt><trkpt lat="54.11621025994455" lon="30.458395959567433"><ele>193.0</ele><time>2026-05-03T10:53:26Z</time></trkpt><trkpt lat="54.11591117685185" lon="30.45841287607624"><ele>193.0</ele><time>2026-05-03T10:53:27Z</time></trkpt><trkpt lat="54.11559839044426" lon="30.45842447111506"><ele>191.0</ele><time>2026-05-03T10:53:28Z</time></trkpt><trkpt lat="54.11527249557552" lon="30.45844509108069"><ele>189.0</ele><time>2026-05-03T10:53:29Z</time></trkpt><trkpt lat="54.11494480949409" lon="30.458389413406337"><ele>188.0</ele><time>2026-05-03T10:53:30Z</time></trkpt><trkpt lat="54.11461436489453" lon="30.458406773944276"><ele>187.0</ele><time>2026-05-03T10:53:31Z</time></trkpt><trkpt lat="54.11427215794838" lon="30.458424774697228"><ele>184.0</ele><time>2026-05-03T10:53:32Z</time></trkpt><trkpt lat="54.113927106367825" lon="30.458443078680816"><ele>181.0</ele><time>2026-05-03T10:53:33Z</time></trkpt><trkpt lat="54.11358523855652" lon="30.458463290474985"><ele>179.0</ele><time>2026-05-03T10:53:34Z</time></trkpt><trkpt lat="54.113235037728415" lon="30.458485036795672"><ele>177.0</ele><time>2026-05-03T10:53:35Z</time></trkpt><trkpt lat="54.11289190013201" lon="30.458506470010757"><ele>177.0</ele><time>2026-05-03T10:53:36Z</time></trkpt><trkpt lat="54.11254773613275" lon="30.45852862987229"><ele>177.0</ele><time>2026-05-03T10:53:37Z</time></trkpt><trkpt lat="54.11221696168579" lon="30.458548636358827"><ele>179.0</ele><time>2026-05-03T10:53:38Z</time></trkpt><trkpt lat="54.11187342171228" lon="30.45857008261911"><ele>181.0</ele><time>2026-05-03T10:53:39Z</time></trkpt><trkpt lat="54.1115250531998" lon="30.45859243054482"><ele>183.5</ele><time>2026-05-03T10:53:40Z</time></trkpt><trkpt lat="54.11117677149739" lon="30.458613403257786"><ele>186.0</ele><time>2026-05-03T10:53:41Z</time></trkpt><trkpt lat="54.11082669770072" lon="30.458635582483886"><ele>187.0</ele><time>2026-05-03T10:53:42Z</time></trkpt><trkpt lat="54.110476053805066" lon="30.458658002484274"><ele>188.0</ele><time>2026-05-03T10:53:43Z</time></trkpt><trkpt lat="54.11012687324008" lon="30.45867932242754"><ele>187.5</ele><time>2026-05-03T10:53:44Z</time></trkpt><trkpt lat="54.10977646063142" lon="30.458701164543356"><ele>187.0</ele><time>2026-05-03T10:53:45Z</time></trkpt><trkpt lat="54.10943077247282" lon="30.458801417067573"><ele>186.5</ele><time>2026-05-03T10:53:46Z</time></trkpt><trkpt lat="54.10907713762087" lon="30.45882003473604"><ele>186.0</ele><time>2026-05-03T10:53:47Z</time></trkpt><trkpt lat="54.10872774047077" lon="30.4588368428528"><ele>186.0</ele><time>2026-05-03T10:53:48Z</time></trkpt><trkpt lat="54.10838472283207" lon="30.45885478193963"><ele>186.0</ele><time>2026-05-03T10:53:49Z</time></trkpt><trkpt lat="54.108033097161005" lon="30.458804269627404"><ele>187.5</ele><time>2026-05-03T10:53:50Z</time></trkpt><trkpt lat="54.1076791070086" lon="30.458824983590993"><ele>189.0</ele><time>2026-05-03T10:53:51Z</time></trkpt><trkpt lat="54.10732540577064" lon="30.458846067037125"><ele>190.0</ele><time>2026-05-03T10:53:52Z</time></trkpt><trkpt lat="54.106971964615944" lon="30.458865889920695"><ele>191.0</ele><time>2026-05-03T10:53:53Z</time></trkpt><trkpt lat="54.10662379971398" lon="30.458968161155706"><ele>192.5</ele><time>2026-05-03T10:53:54Z</time></trkpt><trkpt lat="54.10627880610187" lon="30.45898657266159"><ele>194.0</ele><time>2026-05-03T10:53:55Z</time></trkpt><trkpt lat="54.10592073390661" lon="30.45900991205493"><ele>194.5</ele><time>2026-05-03T10:53:56Z</time></trkpt><trkpt lat="54.105570162809755" lon="30.459024574981747"><ele>195.0</ele><time>2026-05-03T10:53:57Z</time></trkpt><trkpt lat="54.1052131562241" lon="30.458968841015608"><ele>195.0</ele><time>2026-05-03T10:53:58Z</time></trkpt><trkpt lat="54.1048638874151" lon="30.458989480756443"><ele>195.0</ele><time>2026-05-03T10:53:59Z</time></trkpt><trkpt lat="54.10450801388324" lon="30.459010062147264"><ele>195.0</ele><time>2026-05-03T10:54:00Z</time></trkpt><trkpt lat="54.10415368953759" lon="30.45903567692217"><ele>195.0</ele><time>2026-05-03T10:54:01Z</time></trkpt><trkpt lat="54.10379633993478" lon="30.459064596117624"><ele>197.0</ele><time>2026-05-03T10:54:02Z</time></trkpt><trkpt lat="54.10344256739628" lon="30.459140125540536"><ele>199.0</ele><time>2026-05-03T10:54:03Z</time></trkpt><trkpt lat="54.10308572198656" lon="30.45915580063122"><ele>199.5</ele><time>2026-05-03T10:54:04Z</time></trkpt><trkpt lat="54.10273105226064" lon="30.459176795968133"><ele>200.0</ele><time>2026-05-03T10:54:05Z</time></trkpt><trkpt lat="54.10237155383912" lon="30.459200416830438"><ele>200.5</ele><time>2026-05-03T10:54:06Z</time></trkpt><trkpt lat="54.102004627547224" lon="30.459231594988935"><ele>201.0</ele><time>2026-05-03T10:54:06.999Z</time></trkpt><trkpt lat="54.10164283566511" lon="30.459256066337577"><ele>201.5</ele><time>2026-05-03T10:54:07.999Z</time></trkpt><trkpt lat="54.10127645799778" lon="30.45928552550822"><ele>202.0</ele><time>2026-05-03T10:54:08.999Z</time></trkpt><trkpt lat="54.10091758911389" lon="30.459302451037853"><ele>201.5</ele><time>2026-05-03T10:54:09.999Z</time></trkpt><trkpt lat="54.100551790859555" lon="30.459322712922823"><ele>201.0</ele><time>2026-05-03T10:54:10.999Z</time></trkpt><trkpt lat="54.10018669868461" lon="30.45934152732849"><ele>200.0</ele><time>2026-05-03T10:54:11.999Z</time></trkpt><trkpt lat="54.09982050633438" lon="30.459364143044873"><ele>199.0</ele><time>2026-05-03T10:54:12.999Z</time></trkpt><trkpt lat="54.09945529229717" lon="30.45938484569834"><ele>199.0</ele><time>2026-05-03T10:54:13.999Z</time></trkpt><trkpt lat="54.099088212468004" lon="30.459414584222042"><ele>199.0</ele><time>2026-05-03T10:54:14.999Z</time></trkpt><trkpt lat="54.09872105628286" lon="30.459436434998302"><ele>200.0</ele><time>2026-05-03T10:54:15.999Z</time></trkpt><trkpt lat="54.09834603869785" lon="30.459459582105715"><ele>201.0</ele><time>2026-05-03T10:54:16.999Z</time></trkpt><trkpt lat="54.09797013242606" lon="30.459485546492154"><ele>202.0</ele><time>2026-05-03T10:54:17.999Z</time></trkpt><trkpt lat="54.09759886366665" lon="30.45951933058585"><ele>203.0</ele><time>2026-05-03T10:54:18.999Z</time></trkpt><trkpt lat="54.097264880821726" lon="30.45956853416326"><ele>203.0</ele><time>2026-05-03T10:54:19.999Z</time></trkpt><trkpt lat="54.09694537289297" lon="30.459609057820792"><ele>203.0</ele><time>2026-05-03T10:54:20.999Z</time></trkpt><trkpt lat="54.09663763572807" lon="30.459662594007288"><ele>202.0</ele><time>2026-05-03T10:54:21.999Z</time></trkpt><trkpt lat="54.09635153706655" lon="30.459731764094133"><ele>201.0</ele><time>2026-05-03T10:54:22.999Z</time></trkpt><trkpt lat="54.096059726520586" lon="30.459796981849752"><ele>201.0</ele><time>2026-05-03T10:54:23.999Z</time></trkpt><trkpt lat="54.0957621920088" lon="30.45985831196363"><ele>201.0</ele><time>2026-05-03T10:54:24.999Z</time></trkpt><trkpt lat="54.09544774558649" lon="30.459912076046905"><ele>201.0</ele><time>2026-05-03T10:54:25.999Z</time></trkpt><trkpt lat="54.095139391863896" lon="30.459956105452886"><ele>201.0</ele><time>2026-05-03T10:54:26.999Z</time></trkpt><trkpt lat="54.09482439461532" lon="30.459990612723846"><ele>199.0</ele><time>2026-05-03T10:54:27.999Z</time></trkpt><trkpt lat="54.09450059244071" lon="30.460017504124174"><ele>197.0</ele><time>2026-05-03T10:54:28.999Z</time></trkpt><trkpt lat="54.09417978851769" lon="30.460037035479605"><ele>195.0</ele><time>2026-05-03T10:54:29.999Z</time></trkpt><trkpt lat="54.093852490091855" lon="30.460070986015644"><ele>193.0</ele><time>2026-05-03T10:54:30.999Z</time></trkpt><trkpt lat="54.09352176141055" lon="30.4601010224778"><ele>193.0</ele><time>2026-05-03T10:54:31.999Z</time></trkpt><trkpt lat="54.09318866300952" lon="30.460130634018366"><ele>193.0</ele><time>2026-05-03T10:54:32.999Z</time></trkpt><trkpt lat="54.09286109987196" lon="30.460152055203825"><ele>193.0</ele><time>2026-05-03T10:54:33.999Z</time></trkpt><trkpt lat="54.09254058506365" lon="30.460173076512973"><ele>193.0</ele><time>2026-05-03T10:54:34.999Z</time></trkpt><trkpt lat="54.09224716166895" lon="30.46019633826743"><ele>193.5</ele><time>2026-05-03T10:54:35.999Z</time></trkpt><trkpt lat="54.09194790949242" lon="30.460221755407566"><ele>194.0</ele><time>2026-05-03T10:54:36.999Z</time></trkpt><trkpt lat="54.09163766806189" lon="30.46024845927765"><ele>194.5</ele><time>2026-05-03T10:54:37.999Z</time></trkpt><trkpt lat="54.09132862269679" lon="30.460271747374446"><ele>195.0</ele><time>2026-05-03T10:54:38.999Z</time></trkpt><trkpt lat="54.09102286780199" lon="30.46029556556763"><ele>197.5</ele><time>2026-05-03T10:54:39.999Z</time></trkpt><trkpt lat="54.09071424305049" lon="30.460316729368156"><ele>200.0</ele><time>2026-05-03T10:54:40.999Z</time></trkpt><trkpt lat="54.09040335955138" lon="30.46032404695901"><ele>200.0</ele><time>2026-05-03T10:54:41.999Z</time></trkpt><trkpt lat="54.090087909487536" lon="30.460325260003252"><ele>200.0</ele><time>2026-05-03T10:54:42.999Z</time></trkpt><trkpt lat="54.08976195849363" lon="30.46032814959414"><ele>201.5</ele><time>2026-05-03T10:54:43.999Z</time></trkpt><trkpt lat="54.08944561016256" lon="30.46034405271326"><ele>203.0</ele><time>2026-05-03T10:54:44.999Z</time></trkpt><trkpt lat="54.089127648467546" lon="30.4603643068373"><ele>202.5</ele><time>2026-05-03T10:54:45.999Z</time></trkpt><trkpt lat="54.08879966851234" lon="30.460377802768715"><ele>202.0</ele><time>2026-05-03T10:54:46.999Z</time></trkpt><trkpt lat="54.08848116096837" lon="30.46040101816248"><ele>201.0</ele><time>2026-05-03T10:54:47.999Z</time></trkpt><trkpt lat="54.08815050352881" lon="30.46041708504955"><ele>200.0</ele><time>2026-05-03T10:54:48.999Z</time></trkpt><trkpt lat="54.08782404191598" lon="30.46043645103711"><ele>200.0</ele><time>2026-05-03T10:54:49.999Z</time></trkpt><trkpt lat="54.08750718683197" lon="30.460446941711883"><ele>200.0</ele><time>2026-05-03T10:54:50.999Z</time></trkpt><trkpt lat="54.08717924556575" lon="30.460463741480957"><ele>197.5</ele><time>2026-05-03T10:54:51.999Z</time></trkpt><trkpt lat="54.08685563424921" lon="30.460476561182112"><ele>195.0</ele><time>2026-05-03T10:54:52.999Z</time></trkpt><trkpt lat="54.08653049736052" lon="30.46049227589882"><ele>194.5</ele><time>2026-05-03T10:54:53.999Z</time></trkpt><trkpt lat="54.08620594548065" lon="30.46050733818522"><ele>194.0</ele><time>2026-05-03T10:54:54.999Z</time></trkpt><trkpt lat="54.08588088006755" lon="30.46047601502828"><ele>195.0</ele><time>2026-05-03T10:54:55.999Z</time></trkpt><trkpt lat="54.08555560643584" lon="30.46049406001802"><ele>196.0</ele><time>2026-05-03T10:54:56.999Z</time></trkpt><trkpt lat="54.08522380679464" lon="30.460511162084558"><ele>197.0</ele><time>2026-05-03T10:54:57.999Z</time></trkpt><trkpt lat="54.08489605264754" lon="30.460529403621543"><ele>198.0</ele><time>2026-05-03T10:54:58.999Z</time></trkpt><trkpt lat="54.084569827919" lon="30.46054678829823"><ele>198.0</ele><time>2026-05-03T10:54:59.999Z</time></trkpt><trkpt lat="54.084236697993" lon="30.46056385319007"><ele>198.0</ele><time>2026-05-03T10:55:00.999Z</time></trkpt><trkpt lat="54.0839118889017" lon="30.460582128240823"><ele>198.0</ele><time>2026-05-03T10:55:01.999Z</time></trkpt><trkpt lat="54.08358075023657" lon="30.460599107236575"><ele>198.0</ele><time>2026-05-03T10:55:02.999Z</time></trkpt><trkpt lat="54.083243968332646" lon="30.46061871293873"><ele>198.0</ele><time>2026-05-03T10:55:03.999Z</time></trkpt><trkpt lat="54.08291495817693" lon="30.460639642116515"><ele>198.0</ele><time>2026-05-03T10:55:04.999Z</time></trkpt><trkpt lat="54.08258311933709" lon="30.46066073885862"><ele>195.5</ele><time>2026-05-03T10:55:05.999Z</time></trkpt><trkpt lat="54.08224546677434" lon="30.460681110283947"><ele>193.0</ele><time>2026-05-03T10:55:06.999Z</time></trkpt><trkpt lat="54.0819042576617" lon="30.460702539787928"><ele>191.0</ele><time>2026-05-03T10:55:07.999Z</time></trkpt><trkpt lat="54.08156931563279" lon="30.460724435360927"><ele>189.0</ele><time>2026-05-03T10:55:08.999Z</time></trkpt><trkpt lat="54.08123295760837" lon="30.46074509312336"><ele>189.0</ele><time>2026-05-03T10:55:09.999Z</time></trkpt><trkpt lat="54.08090024778262" lon="30.46076635861922"><ele>189.0</ele><time>2026-05-03T10:55:10.999Z</time></trkpt><trkpt lat="54.080565176619075" lon="30.460787201290913"><ele>189.0</ele><time>2026-05-03T10:55:11.999Z</time></trkpt><trkpt lat="54.080226939462236" lon="30.46080843841652"><ele>189.0</ele><time>2026-05-03T10:55:13Z</time></trkpt><trkpt lat="54.079893407067786" lon="30.460829172099615"><ele>189.0</ele><time>2026-05-03T10:55:14Z</time></trkpt><trkpt lat="54.07956138091227" lon="30.4608497551853"><ele>189.0</ele><time>2026-05-03T10:55:15Z</time></trkpt><trkpt lat="54.07922912199314" lon="30.460870518407045"><ele>189.0</ele><time>2026-05-03T10:55:16Z</time></trkpt><trkpt lat="54.07889365776371" lon="30.46089186189743"><ele>189.0</ele><time>2026-05-03T10:55:17Z</time></trkpt><trkpt lat="54.07856250189545" lon="30.460911973490365"><ele>188.5</ele><time>2026-05-03T10:55:18Z</time></trkpt><trkpt lat="54.078232678037544" lon="30.46093235550733"><ele>188.0</ele><time>2026-05-03T10:55:19Z</time></trkpt><trkpt lat="54.07790010678371" lon="30.460953479563454"><ele>188.0</ele><time>2026-05-03T10:55:20Z</time></trkpt><trkpt lat="54.077568403717414" lon="30.460974536546022"><ele>188.0</ele><time>2026-05-03T10:55:21Z</time></trkpt><trkpt lat="54.07723813718643" lon="30.460994909641606"><ele>188.0</ele><time>2026-05-03T10:55:22Z</time></trkpt><trkpt lat="54.07690885421879" lon="30.461039476216495"><ele>188.0</ele><time>2026-05-03T10:55:23Z</time></trkpt><trkpt lat="54.076573809642106" lon="30.461036908806598"><ele>188.5</ele><time>2026-05-03T10:55:24Z</time></trkpt><trkpt lat="54.07624408170856" lon="30.46105669628181"><ele>189.0</ele><time>2026-05-03T10:55:25Z</time></trkpt><trkpt lat="54.07591438060278" lon="30.46110442307285"><ele>189.5</ele><time>2026-05-03T10:55:26Z</time></trkpt><trkpt lat="54.07559118359977" lon="30.461097580912604"><ele>190.0</ele><time>2026-05-03T10:55:27Z</time></trkpt><trkpt lat="54.07526575352573" lon="30.461143152823684"><ele>190.0</ele><time>2026-05-03T10:55:28Z</time></trkpt><trkpt lat="54.07494544449927" lon="30.461138181041967"><ele>190.0</ele><time>2026-05-03T10:55:29Z</time></trkpt><trkpt lat="54.07462409961748" lon="30.46115788938849"><ele>192.0</ele><time>2026-05-03T10:55:30Z</time></trkpt><trkpt lat="54.0742995714779" lon="30.461195024648337"><ele>194.0</ele><time>2026-05-03T10:55:31Z</time></trkpt><trkpt lat="54.07397411431557" lon="30.461215931932944"><ele>197.0</ele><time>2026-05-03T10:55:32Z</time></trkpt><trkpt lat="54.07365095469615" lon="30.46124489626717"><ele>200.0</ele><time>2026-05-03T10:55:33Z</time></trkpt><trkpt lat="54.07332680240885" lon="30.461239169313096"><ele>199.0</ele><time>2026-05-03T10:55:34Z</time></trkpt><trkpt lat="54.07300440370764" lon="30.4612595659454"><ele>198.0</ele><time>2026-05-03T10:55:35Z</time></trkpt><trkpt lat="54.07267789017252" lon="30.46128028344692"><ele>196.0</ele><time>2026-05-03T10:55:36Z</time></trkpt><trkpt lat="54.07235031392873" lon="30.46129995857535"><ele>194.0</ele><time>2026-05-03T10:55:37Z</time></trkpt><trkpt lat="54.07201846293025" lon="30.461319890945525"><ele>194.0</ele><time>2026-05-03T10:55:38Z</time></trkpt><trkpt lat="54.071693321196726" lon="30.46133942045458"><ele>194.0</ele><time>2026-05-03T10:55:39Z</time></trkpt><trkpt lat="54.07136451051211" lon="30.461396927290494"><ele>194.0</ele><time>2026-05-03T10:55:40Z</time></trkpt><trkpt lat="54.071030178830476" lon="30.46142487838282"><ele>194.0</ele><time>2026-05-03T10:55:41Z</time></trkpt><trkpt lat="54.070698654926865" lon="30.46144073132991"><ele>194.0</ele><time>2026-05-03T10:55:42Z</time></trkpt><trkpt lat="54.07036250792797" lon="30.46146286012849"><ele>194.0</ele><time>2026-05-03T10:55:43Z</time></trkpt><trkpt lat="54.07002415165212" lon="30.461486469886776"><ele>194.0</ele><time>2026-05-03T10:55:44Z</time></trkpt><trkpt lat="54.069691631543215" lon="30.461505894080794"><ele>194.0</ele><time>2026-05-03T10:55:45Z</time></trkpt><trkpt lat="54.06935460776781" lon="30.461530483285433"><ele>193.0</ele><time>2026-05-03T10:55:46Z</time></trkpt><trkpt lat="54.06901913696789" lon="30.461558192468008"><ele>192.0</ele><time>2026-05-03T10:55:47Z</time></trkpt><trkpt lat="54.06867478454792" lon="30.461578294703614"><ele>192.0</ele><time>2026-05-03T10:55:48Z</time></trkpt><trkpt lat="54.06833140109114" lon="30.461605236476817"><ele>192.0</ele><time>2026-05-03T10:55:49Z</time></trkpt><trkpt lat="54.06798830268417" lon="30.461631993520133"><ele>188.5</ele><time>2026-05-03T10:55:50Z</time></trkpt><trkpt lat="54.06768183848659" lon="30.46165801432414"><ele>185.0</ele><time>2026-05-03T10:55:51Z</time></trkpt><trkpt lat="54.06736674767888" lon="30.461675296558642"><ele>182.0</ele><time>2026-05-03T10:55:52Z</time></trkpt><trkpt lat="54.06704797425484" lon="30.461701754131376"><ele>179.0</ele><time>2026-05-03T10:55:53Z</time></trkpt><trkpt lat="54.06673085593653" lon="30.461721598960434"><ele>178.0</ele><time>2026-05-03T10:55:54Z</time></trkpt><trkpt lat="54.066412788140894" lon="30.461736630110046"><ele>177.0</ele><time>2026-05-03T10:55:55Z</time></trkpt><trkpt lat="54.06607525753314" lon="30.46176515893504"><ele>179.0</ele><time>2026-05-03T10:55:56Z</time></trkpt><trkpt lat="54.06573262702234" lon="30.461802706978453"><ele>181.0</ele><time>2026-05-03T10:55:57Z</time></trkpt><trkpt lat="54.065384980302" lon="30.461833297128972"><ele>181.0</ele><time>2026-05-03T10:55:58Z</time></trkpt><trkpt lat="54.06503332690661" lon="30.461868722885274"><ele>181.0</ele><time>2026-05-03T10:55:59Z</time></trkpt><trkpt lat="54.064706164142024" lon="30.461885324058912"><ele>183.0</ele><time>2026-05-03T10:56:00Z</time></trkpt><trkpt lat="54.06436894848906" lon="30.46190128489735"><ele>185.0</ele><time>2026-05-03T10:56:01Z</time></trkpt><trkpt lat="54.06402737878309" lon="30.461901804827058"><ele>185.5</ele><time>2026-05-03T10:56:02Z</time></trkpt><trkpt lat="54.06368398768536" lon="30.461901174140017"><ele>186.0</ele><time>2026-05-03T10:56:03Z</time></trkpt><trkpt lat="54.06334015119401" lon="30.461923618318394"><ele>184.0</ele><time>2026-05-03T10:56:04Z</time></trkpt><trkpt lat="54.06299454989634" lon="30.461941476399947"><ele>182.0</ele><time>2026-05-03T10:56:05Z</time></trkpt><trkpt lat="54.06264240145803" lon="30.461963564525004"><ele>179.5</ele><time>2026-05-03T10:56:06Z</time></trkpt><trkpt lat="54.06229631212154" lon="30.461992998866013"><ele>177.0</ele><time>2026-05-03T10:56:07Z</time></trkpt><trkpt lat="54.061978920364254" lon="30.462010460331967"><ele>177.0</ele><time>2026-05-03T10:56:08Z</time></trkpt><trkpt lat="54.061674453173254" lon="30.4620324387802"><ele>177.0</ele><time>2026-05-03T10:56:09Z</time></trkpt><trkpt lat="54.061374349698056" lon="30.46204019436037"><ele>176.0</ele><time>2026-05-03T10:56:10Z</time></trkpt><trkpt lat="54.06107552377864" lon="30.462062112237398"><ele>175.0</ele><time>2026-05-03T10:56:11Z</time></trkpt><trkpt lat="54.060770349972856" lon="30.46207700282842"><ele>173.5</ele><time>2026-05-03T10:56:12Z</time></trkpt><trkpt lat="54.06045624931314" lon="30.462101444080673"><ele>172.0</ele><time>2026-05-03T10:56:13Z</time></trkpt><trkpt lat="54.060136085140456" lon="30.462132090530606"><ele>172.0</ele><time>2026-05-03T10:56:14Z</time></trkpt><trkpt lat="54.05980794611071" lon="30.462152161970657"><ele>172.0</ele><time>2026-05-03T10:56:15Z</time></trkpt><trkpt lat="54.05947727238374" lon="30.462167516756896"><ele>172.0</ele><time>2026-05-03T10:56:16Z</time></trkpt><trkpt lat="54.05914492309354" lon="30.46217986629938"><ele>172.0</ele><time>2026-05-03T10:56:17Z</time></trkpt><trkpt lat="54.058808864391445" lon="30.46218882774397"><ele>171.5</ele><time>2026-05-03T10:56:18Z</time></trkpt><trkpt lat="54.05848251132335" lon="30.462190257517214"><ele>171.0</ele><time>2026-05-03T10:56:19Z</time></trkpt><trkpt lat="54.058153531337936" lon="30.46219944946275"><ele>166.0</ele><time>2026-05-03T10:56:19.999Z</time></trkpt><trkpt lat="54.05782546054171" lon="30.462189782942783"><ele>161.0</ele><time>2026-05-03T10:56:20.999Z</time></trkpt><trkpt lat="54.057496242161704" lon="30.46218571759909"><ele>159.0</ele><time>2026-05-03T10:56:21.999Z</time></trkpt><trkpt lat="54.05717349764563" lon="30.462204071645253"><ele>157.0</ele><time>2026-05-03T10:56:22.999Z</time></trkpt><trkpt lat="54.056839962315735" lon="30.462207261349945"><ele>156.5</ele><time>2026-05-03T10:56:23.999Z</time></trkpt><trkpt lat="54.056513477359104" lon="30.462203940435643"><ele>156.0</ele><time>2026-05-03T10:56:24.999Z</time></trkpt><trkpt lat="54.05618069806245" lon="30.462196264987725"><ele>156.0</ele><time>2026-05-03T10:56:25.999Z</time></trkpt><trkpt lat="54.055850051689376" lon="30.462189345678457"><ele>156.0</ele><time>2026-05-03T10:56:26.999Z</time></trkpt><trkpt lat="54.05551918011415" lon="30.46217996824437"><ele>157.0</ele><time>2026-05-03T10:56:27.999Z</time></trkpt><trkpt lat="54.0551931746396" lon="30.46216705432772"><ele>158.0</ele><time>2026-05-03T10:56:28.999Z</time></trkpt><trkpt lat="54.05486791115395" lon="30.462146263367256"><ele>159.0</ele><time>2026-05-03T10:56:29.999Z</time></trkpt><trkpt lat="54.05453836542021" lon="30.462126528673693"><ele>160.0</ele><time>2026-05-03T10:56:30.999Z</time></trkpt><trkpt lat="54.054214559148775" lon="30.462111994373537"><ele>159.0</ele><time>2026-05-03T10:56:31.999Z</time></trkpt><trkpt lat="54.0538906375055" lon="30.462049179461665"><ele>158.0</ele><time>2026-05-03T10:56:32.999Z</time></trkpt><trkpt lat="54.05356184970215" lon="30.462052504901326"><ele>157.5</ele><time>2026-05-03T10:56:33.999Z</time></trkpt><trkpt lat="54.053231553922" lon="30.462056847805464"><ele>157.0</ele><time>2026-05-03T10:56:34.999Z</time></trkpt><trkpt lat="54.0529033064542" lon="30.462077907113922"><ele>157.0</ele><time>2026-05-03T10:56:35.999Z</time></trkpt><trkpt lat="54.05257116586996" lon="30.462099286940287"><ele>157.0</ele><time>2026-05-03T10:56:36.999Z</time></trkpt><trkpt lat="54.052242758469426" lon="30.462120445918494"><ele>157.5</ele><time>2026-05-03T10:56:37.999Z</time></trkpt><trkpt lat="54.05191505762157" lon="30.46214261681217"><ele>158.0</ele><time>2026-05-03T10:56:38.999Z</time></trkpt><trkpt lat="54.05158297287072" lon="30.462163423592006"><ele>158.0</ele><time>2026-05-03T10:56:39.999Z</time></trkpt><trkpt lat="54.051251264855274" lon="30.462185054229185"><ele>158.0</ele><time>2026-05-03T10:56:40.999Z</time></trkpt><trkpt lat="54.050921185129894" lon="30.46220642597665"><ele>158.0</ele><time>2026-05-03T10:56:41.999Z</time></trkpt><trkpt lat="54.05058624090731" lon="30.462228118165537"><ele>158.0</ele><time>2026-05-03T10:56:42.999Z</time></trkpt><trkpt lat="54.050258124026186" lon="30.46224984362698"><ele>158.5</ele><time>2026-05-03T10:56:43.999Z</time></trkpt><trkpt lat="54.049921034038356" lon="30.46227127134714"><ele>159.0</ele><time>2026-05-03T10:56:44.999Z</time></trkpt><trkpt lat="54.04957038366" lon="30.46229374012056"><ele>159.0</ele><time>2026-05-03T10:56:45.999Z</time></trkpt><trkpt lat="54.04921407966761" lon="30.462315978247084"><ele>159.0</ele><time>2026-05-03T10:56:46.999Z</time></trkpt><trkpt lat="54.048851055946486" lon="30.462338617929873"><ele>158.5</ele><time>2026-05-03T10:56:47.999Z</time></trkpt><trkpt lat="54.048485833503676" lon="30.46236183491391"><ele>158.0</ele><time>2026-05-03T10:56:48.999Z</time></trkpt><trkpt lat="54.04812141105817" lon="30.462383915967077"><ele>159.5</ele><time>2026-05-03T10:56:49.999Z</time></trkpt><trkpt lat="54.047786958460236" lon="30.46240413810374"><ele>161.0</ele><time>2026-05-03T10:56:50.999Z</time></trkpt><trkpt lat="54.047482228789434" lon="30.462422946258055"><ele>163.5</ele><time>2026-05-03T10:56:51.999Z</time></trkpt><trkpt lat="54.04720105470728" lon="30.46244030803174"><ele>166.0</ele><time>2026-05-03T10:56:52.999Z</time></trkpt><trkpt lat="54.04693400438026" lon="30.46245709021955"><ele>166.0</ele><time>2026-05-03T10:56:53.999Z</time></trkpt><trkpt lat="54.04668844700686" lon="30.462471458345618"><ele>166.0</ele><time>2026-05-03T10:56:54.999Z</time></trkpt><trkpt lat="54.04645448239551" lon="30.462486530930406"><ele>169.66666666666669</ele><time>2026-05-03T10:56:55.999Z</time></trkpt><trkpt lat="54.04624403624696" lon="30.462499789694036"><ele>173.33333333333334</ele><time>2026-05-03T10:56:56.999Z</time></trkpt><trkpt lat="54.04604662126147" lon="30.462510752956554"><ele>177.0</ele><time>2026-05-03T10:56:57.999Z</time></trkpt><trkpt lat="54.04586006422168" lon="30.46252132269807"><ele>179.0</ele><time>2026-05-03T10:56:58.999Z</time></trkpt><trkpt lat="54.04566984475912" lon="30.462532453705702"><ele>181.0</ele><time>2026-05-03T10:56:59.999Z</time></trkpt><trkpt lat="54.04548275249073" lon="30.462544438170372"><ele>183.0</ele><time>2026-05-03T10:57:00.999Z</time></trkpt><trkpt lat="54.04530471539746" lon="30.46255485454703"><ele>183.0</ele><time>2026-05-03T10:57:01.999Z</time></trkpt><trkpt lat="54.04512489278601" lon="30.462565173562247"><ele>183.0</ele><time>2026-05-03T10:57:02.999Z</time></trkpt><trkpt lat="54.04495326400768" lon="30.462575356283413"><ele>183.0</ele><time>2026-05-03T10:57:03.999Z</time></trkpt><trkpt lat="54.04479042471398" lon="30.46258486545819"><ele>182.33333333333334</ele><time>2026-05-03T10:57:04.999Z</time></trkpt><trkpt lat="54.04463809932531" lon="30.462593881169944"><ele>181.66666666666669</ele><time>2026-05-03T10:57:05.999Z</time></trkpt><trkpt lat="54.044485856690066" lon="30.46260289199656"><ele>181.0</ele><time>2026-05-03T10:57:06.999Z</time></trkpt><trkpt lat="54.04432811831972" lon="30.462612169340407"><ele>181.0</ele><time>2026-05-03T10:57:07.999Z</time></trkpt><trkpt lat="54.04417022379494" lon="30.46262144971592"><ele>181.0</ele><time>2026-05-03T10:57:08.999Z</time></trkpt><trkpt lat="54.04401433169575" lon="30.46263061239746"><ele>181.0</ele><time>2026-05-03T10:57:09.999Z</time></trkpt><trkpt lat="54.0438455972983" lon="30.462640564636313"><ele>181.0</ele><time>2026-05-03T10:57:10.999Z</time></trkpt><trkpt lat="54.043679247095845" lon="30.462650956155482"><ele>181.0</ele><time>2026-05-03T10:57:11.999Z</time></trkpt><trkpt lat="54.04351896147659" lon="30.46266014883461"><ele>181.0</ele><time>2026-05-03T10:57:12.999Z</time></trkpt><trkpt lat="54.04335613310235" lon="30.462669771511578"><ele>180.33333333333334</ele><time>2026-05-03T10:57:13.999Z</time></trkpt><trkpt lat="54.043207073521806" lon="30.462678715347604"><ele>179.66666666666666</ele><time>2026-05-03T10:57:14.999Z</time></trkpt><trkpt lat="54.04305312760315" lon="30.46268705823383"><ele>179.0</ele><time>2026-05-03T10:57:15.999Z</time></trkpt><trkpt lat="54.04290385265746" lon="30.462691637235853"><ele>179.0</ele><time>2026-05-03T10:57:16.999Z</time></trkpt><trkpt lat="54.04274616727898" lon="30.462752011633448"><ele>179.0</ele><time>2026-05-03T10:57:17.999Z</time></trkpt><trkpt lat="54.042593455230595" lon="30.462762512184764"><ele>179.0</ele><time>2026-05-03T10:57:19Z</time></trkpt><trkpt lat="54.042438462660236" lon="30.46276736127155"><ele>178.0</ele><time>2026-05-03T10:57:20Z</time></trkpt><trkpt lat="54.04228095593392" lon="30.46277568263266"><ele>177.0</ele><time>2026-05-03T10:57:21Z</time></trkpt><trkpt lat="54.04211906226129" lon="30.462783535810363"><ele>176.0</ele><time>2026-05-03T10:57:22Z</time></trkpt><trkpt lat="54.04196915977728" lon="30.46279706508189"><ele>176.0</ele><time>2026-05-03T10:57:23Z</time></trkpt><trkpt lat="54.04181429535438" lon="30.46280275282501"><ele>176.0</ele><time>2026-05-03T10:57:24Z</time></trkpt><trkpt lat="54.04166147506365" lon="30.462812474815042"><ele>176.0</ele><time>2026-05-03T10:57:25Z</time></trkpt><trkpt lat="54.0414983507742" lon="30.462821654154354"><ele>174.33333333333331</ele><time>2026-05-03T10:57:26Z</time></trkpt><trkpt lat="54.04134104699884" lon="30.4628325433189"><ele>172.66666666666666</ele><time>2026-05-03T10:57:27Z</time></trkpt><trkpt lat="54.04117893716706" lon="30.4628396326897"><ele>171.0</ele><time>2026-05-03T10:57:28Z</time></trkpt><trkpt lat="54.04101412478762" lon="30.462849456027676"><ele>171.0</ele><time>2026-05-03T10:57:29Z</time></trkpt><trkpt lat="54.040848736656464" lon="30.462859785295496"><ele>171.0</ele><time>2026-05-03T10:57:30Z</time></trkpt><trkpt lat="54.04067893119138" lon="30.46287086791992"><ele>171.0</ele><time>2026-05-03T10:57:31Z</time></trkpt><trkpt lat="54.04051674937958" lon="30.4628751973119"><ele>169.0</ele><time>2026-05-03T10:57:32Z</time></trkpt><trkpt lat="54.04034412456685" lon="30.462882326001896"><ele>167.0</ele><time>2026-05-03T10:57:33Z</time></trkpt><trkpt lat="54.04017604211742" lon="30.462886729448943"><ele>165.0</ele><time>2026-05-03T10:57:34Z</time></trkpt><trkpt lat="54.04001318164931" lon="30.462898697060176"><ele>164.33333333333334</ele><time>2026-05-03T10:57:35Z</time></trkpt><trkpt lat="54.03985026028179" lon="30.462916309295778"><ele>163.66666666666669</ele><time>2026-05-03T10:57:36Z</time></trkpt><trkpt lat="54.03969187744421" lon="30.46292204363327"><ele>163.0</ele><time>2026-05-03T10:57:37Z</time></trkpt><trkpt lat="54.039538066088745" lon="30.462930253673647"><ele>163.0</ele><time>2026-05-03T10:57:38Z</time></trkpt><trkpt lat="54.039382759672705" lon="30.462940210504133"><ele>163.0</ele><time>2026-05-03T10:57:39Z</time></trkpt><trkpt lat="54.03922285327132" lon="30.46295492881865"><ele>163.0</ele><time>2026-05-03T10:57:40Z</time></trkpt><trkpt lat="54.03906825407177" lon="30.462957893933666"><ele>164.66666666666669</ele><time>2026-05-03T10:57:41Z</time></trkpt><trkpt lat="54.0389071635873" lon="30.462960179216644"><ele>166.33333333333334</ele><time>2026-05-03T10:57:42Z</time></trkpt><trkpt lat="54.038740658535566" lon="30.46296829830579"><ele>168.0</ele><time>2026-05-03T10:57:43Z</time></trkpt><trkpt lat="54.03857538805929" lon="30.462977674010506"><ele>168.0</ele><time>2026-05-03T10:57:44Z</time></trkpt><trkpt lat="54.03841685805778" lon="30.4629839239916"><ele>168.0</ele><time>2026-05-03T10:57:45Z</time></trkpt><trkpt lat="54.03825568972722" lon="30.462997440153515"><ele>168.0</ele><time>2026-05-03T10:57:46Z</time></trkpt><trkpt lat="54.038098954381276" lon="30.463004574152798"><ele>169.0</ele><time>2026-05-03T10:57:47Z</time></trkpt><trkpt lat="54.03794720691917" lon="30.46300754568556"><ele>170.0</ele><time>2026-05-03T10:57:48Z</time></trkpt><trkpt lat="54.03778440822754" lon="30.463025538164217"><ele>171.0</ele><time>2026-05-03T10:57:49Z</time></trkpt><trkpt lat="54.037629227908425" lon="30.46297158410799"><ele>171.0</ele><time>2026-05-03T10:57:50Z</time></trkpt><trkpt lat="54.037473305389916" lon="30.46297927133325"><ele>171.0</ele><time>2026-05-03T10:57:51Z</time></trkpt><trkpt lat="54.037314223204966" lon="30.46298746742301"><ele>171.0</ele><time>2026-05-03T10:57:52Z</time></trkpt><trkpt lat="54.03716486461927" lon="30.462995234905023"><ele>172.0</ele><time>2026-05-03T10:57:53Z</time></trkpt><trkpt lat="54.03700654260083" lon="30.463004301309"><ele>173.0</ele><time>2026-05-03T10:57:54Z</time></trkpt><trkpt lat="54.03685863774105" lon="30.46301168712066"><ele>174.0</ele><time>2026-05-03T10:57:55Z</time></trkpt><trkpt lat="54.03671049129813" lon="30.46301919584649"><ele>175.0</ele><time>2026-05-03T10:57:56Z</time></trkpt><trkpt lat="54.03656022370663" lon="30.463027462496395"><ele>176.0</ele><time>2026-05-03T10:57:57Z</time></trkpt><trkpt lat="54.03640860453127" lon="30.463034897980936"><ele>177.0</ele><time>2026-05-03T10:57:58Z</time></trkpt><trkpt lat="54.036258317236864" lon="30.46304263029945"><ele>177.0</ele><time>2026-05-03T10:57:59Z</time></trkpt><trkpt lat="54.03611244221473" lon="30.46305064886936"><ele>177.0</ele><time>2026-05-03T10:58:00Z</time></trkpt><trkpt lat="54.035971091165145" lon="30.463058418760806"><ele>177.0</ele><time>2026-05-03T10:58:01Z</time></trkpt><trkpt lat="54.03583986065143" lon="30.463065465937923"><ele>177.0</ele><time>2026-05-03T10:58:02Z</time></trkpt><trkpt lat="54.03570298609533" lon="30.463072276401327"><ele>178.0</ele><time>2026-05-03T10:58:03Z</time></trkpt><trkpt lat="54.03556537611265" lon="30.463079123455753"><ele>179.0</ele><time>2026-05-03T10:58:04Z</time></trkpt><trkpt lat="54.035437858662924" lon="30.463185237434054"><ele>180.0</ele><time>2026-05-03T10:58:05Z</time></trkpt><trkpt lat="54.035304634402614" lon="30.463186585280543"><ele>181.0</ele><time>2026-05-03T10:58:06Z</time></trkpt><trkpt lat="54.03517583937889" lon="30.463195850066857"><ele>181.0</ele><time>2026-05-03T10:58:07Z</time></trkpt><trkpt lat="54.035038376967016" lon="30.46320355421519"><ele>181.0</ele><time>2026-05-03T10:58:08Z</time></trkpt><trkpt lat="54.03490335490726" lon="30.4632103505349"><ele>181.0</ele><time>2026-05-03T10:58:09Z</time></trkpt><trkpt lat="54.03477131199046" lon="30.46321877294331"><ele>181.0</ele><time>2026-05-03T10:58:10Z</time></trkpt><trkpt lat="54.034629269999414" lon="30.46322905155797"><ele>181.5</ele><time>2026-05-03T10:58:11Z</time></trkpt><trkpt lat="54.03449253997416" lon="30.463233810202112"><ele>182.0</ele><time>2026-05-03T10:58:12Z</time></trkpt><trkpt lat="54.03435752036245" lon="30.463237961010737"><ele>182.5</ele><time>2026-05-03T10:58:13Z</time></trkpt><trkpt lat="54.0342244564404" lon="30.46324936720586"><ele>183.0</ele><time>2026-05-03T10:58:14Z</time></trkpt><trkpt lat="54.03408725442133" lon="30.463253595557006"><ele>183.5</ele><time>2026-05-03T10:58:15Z</time></trkpt><trkpt lat="54.03395070346363" lon="30.463261028281188"><ele>184.0</ele><time>2026-05-03T10:58:16Z</time></trkpt><trkpt lat="54.03380983829977" lon="30.463270962633917"><ele>184.5</ele><time>2026-05-03T10:58:17Z</time></trkpt><trkpt lat="54.03366847756613" lon="30.463277629843805"><ele>185.0</ele><time>2026-05-03T10:58:18Z</time></trkpt><trkpt lat="54.03352887685331" lon="30.46328830826704"><ele>185.0</ele><time>2026-05-03T10:58:19Z</time></trkpt><trkpt lat="54.033384634936276" lon="30.463298471098284"><ele>185.0</ele><time>2026-05-03T10:58:20Z</time></trkpt><trkpt lat="54.033241730104265" lon="30.463309484918632"><ele>185.0</ele><time>2026-05-03T10:58:21Z</time></trkpt><trkpt lat="54.033093098772135" lon="30.463317233475326"><ele>185.0</ele><time>2026-05-03T10:58:22Z</time></trkpt><trkpt lat="54.032945879845755" lon="30.463329441090668"><ele>185.5</ele><time>2026-05-03T10:58:23Z</time></trkpt><trkpt lat="54.032800686646425" lon="30.463334979520052"><ele>186.0</ele><time>2026-05-03T10:58:24Z</time></trkpt><trkpt lat="54.03264925758457" lon="30.463346180047346"><ele>186.5</ele><time>2026-05-03T10:58:25Z</time></trkpt><trkpt lat="54.03250630507803" lon="30.46335303871154"><ele>187.0</ele><time>2026-05-03T10:58:26Z</time></trkpt><trkpt lat="54.03236574232773" lon="30.463363674158145"><ele>187.5</ele><time>2026-05-03T10:58:27Z</time></trkpt><trkpt lat="54.0322242266601" lon="30.463375132305902"><ele>188.0</ele><time>2026-05-03T10:58:28Z</time></trkpt><trkpt lat="54.03208217828185" lon="30.463384608935225"><ele>188.5</ele><time>2026-05-03T10:58:29Z</time></trkpt><trkpt lat="54.03193919559643" lon="30.46339321895344"><ele>189.0</ele><time>2026-05-03T10:58:30Z</time></trkpt><trkpt lat="54.031797255365404" lon="30.46339997266402"><ele>189.0</ele><time>2026-05-03T10:58:31Z</time></trkpt><trkpt lat="54.031658822343424" lon="30.463403064725366"><ele>189.0</ele><time>2026-05-03T10:58:32Z</time></trkpt><trkpt lat="54.031524180688386" lon="30.463415065784307"><ele>189.0</ele><time>2026-05-03T10:58:33Z</time></trkpt><trkpt lat="54.03138026966884" lon="30.463419986497712"><ele>189.0</ele><time>2026-05-03T10:58:33.999Z</time></trkpt><trkpt lat="54.0312237337025" lon="30.463434311929717"><ele>189.25</ele><time>2026-05-03T10:58:34.999Z</time></trkpt><trkpt lat="54.03108000538676" lon="30.46344080151932"><ele>189.5</ele><time>2026-05-03T10:58:35.999Z</time></trkpt><trkpt lat="54.03092619561665" lon="30.46344702751356"><ele>189.75</ele><time>2026-05-03T10:58:36.999Z</time></trkpt><trkpt lat="54.0307796627216" lon="30.46346352938207"><ele>190.0</ele><time>2026-05-03T10:58:37.999Z</time></trkpt><trkpt lat="54.03062778760161" lon="30.463464708548013"><ele>189.0</ele><time>2026-05-03T10:58:38.999Z</time></trkpt><trkpt lat="54.03046410638226" lon="30.46337059359003"><ele>188.0</ele><time>2026-05-03T10:58:39.999Z</time></trkpt><trkpt lat="54.030309940911366" lon="30.46347492299876"><ele>187.0</ele><time>2026-05-03T10:58:40.999Z</time></trkpt><trkpt lat="54.03015694792705" lon="30.4634781565861"><ele>187.0</ele><time>2026-05-03T10:58:41.999Z</time></trkpt><trkpt lat="54.03000360512631" lon="30.46348961049444"><ele>187.0</ele><time>2026-05-03T10:58:42.999Z</time></trkpt><trkpt lat="54.02981596901939" lon="30.463498586743878"><ele>187.0</ele><time>2026-05-03T10:58:43.999Z</time></trkpt><trkpt lat="54.02960435933843" lon="30.463420119325434"><ele>187.0</ele><time>2026-05-03T10:58:44.999Z</time></trkpt><trkpt lat="54.02938171967366" lon="30.46343294971207"><ele>187.0</ele><time>2026-05-03T10:58:45.999Z</time></trkpt><trkpt lat="54.02915564651671" lon="30.46344538772033"><ele>187.0</ele><time>2026-05-03T10:58:46.999Z</time></trkpt><trkpt lat="54.02893310323724" lon="30.4634586845872"><ele>187.0</ele><time>2026-05-03T10:58:47.999Z</time></trkpt><trkpt lat="54.02869766711024" lon="30.46347237190483"><ele>187.0</ele><time>2026-05-03T10:58:48.999Z</time></trkpt><trkpt lat="54.028456548474786" lon="30.463485304089076"><ele>189.0</ele><time>2026-05-03T10:58:49.999Z</time></trkpt><trkpt lat="54.02820901354823" lon="30.463499887803682"><ele>191.0</ele><time>2026-05-03T10:58:50.999Z</time></trkpt><trkpt lat="54.02795113197063" lon="30.463514580214206"><ele>191.0</ele><time>2026-05-03T10:58:51.999Z</time></trkpt><trkpt lat="54.02770075788287" lon="30.463528744687753"><ele>191.0</ele><time>2026-05-03T10:58:52.999Z</time></trkpt><trkpt lat="54.027427268261995" lon="30.46354434111176"><ele>189.5</ele><time>2026-05-03T10:58:53.999Z</time></trkpt><trkpt lat="54.02715235660328" lon="30.463560337833847"><ele>188.0</ele><time>2026-05-03T10:58:54.999Z</time></trkpt><trkpt lat="54.02687235920967" lon="30.46357615428154"><ele>191.5</ele><time>2026-05-03T10:58:55.999Z</time></trkpt><trkpt lat="54.026589429907816" lon="30.463592574092416"><ele>195.0</ele><time>2026-05-03T10:58:56.999Z</time></trkpt><trkpt lat="54.02630813948855" lon="30.46360876724978"><ele>195.0</ele><time>2026-05-03T10:58:57.999Z</time></trkpt><trkpt lat="54.026032703626505" lon="30.46362427215701"><ele>195.0</ele><time>2026-05-03T10:58:58.999Z</time></trkpt><trkpt lat="54.025744956191105" lon="30.463640470125437"><ele>197.0</ele><time>2026-05-03T10:58:59.999Z</time></trkpt><trkpt lat="54.02546068362922" lon="30.46365704920804"><ele>199.0</ele><time>2026-05-03T10:59:00.999Z</time></trkpt><trkpt lat="54.02517957665556" lon="30.463673590680898"><ele>200.0</ele><time>2026-05-03T10:59:01.999Z</time></trkpt><trkpt lat="54.02488997721063" lon="30.46369006911299"><ele>201.0</ele><time>2026-05-03T10:59:02.999Z</time></trkpt><trkpt lat="54.02460179637231" lon="30.46370636765809"><ele>201.0</ele><time>2026-05-03T10:59:03.999Z</time></trkpt><trkpt lat="54.02430520636573" lon="30.46372301678198"><ele>201.0</ele><time>2026-05-03T10:59:04.999Z</time></trkpt><trkpt lat="54.024012529451866" lon="30.463739805804654"><ele>201.0</ele><time>2026-05-03T10:59:05.999Z</time></trkpt><trkpt lat="54.02371143436079" lon="30.46375658339822"><ele>201.0</ele><time>2026-05-03T10:59:06.999Z</time></trkpt><trkpt lat="54.023418254273345" lon="30.463773637038393"><ele>199.5</ele><time>2026-05-03T10:59:07.999Z</time></trkpt><trkpt lat="54.023125771088274" lon="30.46379074650416"><ele>198.0</ele><time>2026-05-03T10:59:08.999Z</time></trkpt><trkpt lat="54.022827359126715" lon="30.463808120764394"><ele>198.0</ele><time>2026-05-03T10:59:09.999Z</time></trkpt><trkpt lat="54.02252772776623" lon="30.46382506320876"><ele>198.0</ele><time>2026-05-03T10:59:10.999Z</time></trkpt><trkpt lat="54.022222271590394" lon="30.463842628099574"><ele>198.5</ele><time>2026-05-03T10:59:11.999Z</time></trkpt><trkpt lat="54.021916030797634" lon="30.46385986902739"><ele>199.0</ele><time>2026-05-03T10:59:12.999Z</time></trkpt><trkpt lat="54.02160713496293" lon="30.46387732199401"><ele>199.5</ele><time>2026-05-03T10:59:13.999Z</time></trkpt><trkpt lat="54.021295290424064" lon="30.463895122016293"><ele>200.0</ele><time>2026-05-03T10:59:14.999Z</time></trkpt><trkpt lat="54.0209848467005" lon="30.46391283881716"><ele>201.0</ele><time>2026-05-03T10:59:15.999Z</time></trkpt><trkpt lat="54.02067469574099" lon="30.463930538893603"><ele>202.0</ele><time>2026-05-03T10:59:16.999Z</time></trkpt><trkpt lat="54.02036135987303" lon="30.463948420042524"><ele>202.0</ele><time>2026-05-03T10:59:17.999Z</time></trkpt><trkpt lat="54.02004573772034" lon="30.46396953155277"><ele>202.0</ele><time>2026-05-03T10:59:18.999Z</time></trkpt><trkpt lat="54.019730607092605" lon="30.464046714117895"><ele>202.0</ele><time>2026-05-03T10:59:19.999Z</time></trkpt><trkpt lat="54.01941339595774" lon="30.46406155757662"><ele>202.0</ele><time>2026-05-03T10:59:20.999Z</time></trkpt><trkpt lat="54.01909805095993" lon="30.464083449670245"><ele>201.0</ele><time>2026-05-03T10:59:21.999Z</time></trkpt><trkpt lat="54.01877361025818" lon="30.464105979463046"><ele>200.0</ele><time>2026-05-03T10:59:22.999Z</time></trkpt><trkpt lat="54.01844790805458" lon="30.46412480290531"><ele>201.0</ele><time>2026-05-03T10:59:23.999Z</time></trkpt><trkpt lat="54.018120999745875" lon="30.464149848178433"><ele>202.0</ele><time>2026-05-03T10:59:25.001Z</time></trkpt><trkpt lat="54.017795410197316" lon="30.46417006334154"><ele>201.5</ele><time>2026-05-03T10:59:26.001Z</time></trkpt><trkpt lat="54.01748245211972" lon="30.46416808702201"><ele>201.0</ele><time>2026-05-03T10:59:27.001Z</time></trkpt><trkpt lat="54.017157109129215" lon="30.464183498020457"><ele>201.0</ele><time>2026-05-03T10:59:28.001Z</time></trkpt><trkpt lat="54.01682541508948" lon="30.46420177994073"><ele>201.0</ele><time>2026-05-03T10:59:29.001Z</time></trkpt><trkpt lat="54.01649742125242" lon="30.464213522204204"><ele>200.5</ele><time>2026-05-03T10:59:30.001Z</time></trkpt><trkpt lat="54.01616473016011" lon="30.46423795867983"><ele>200.0</ele><time>2026-05-03T10:59:31.001Z</time></trkpt><trkpt lat="54.01583267676858" lon="30.464264408042677"><ele>199.0</ele><time>2026-05-03T10:59:32.001Z</time></trkpt><trkpt lat="54.01549611104852" lon="30.46428586869765"><ele>198.0</ele><time>2026-05-03T10:59:33.001Z</time></trkpt><trkpt lat="54.01516187692697" lon="30.464299478265524"><ele>197.0</ele><time>2026-05-03T10:59:34.001Z</time></trkpt><trkpt lat="54.01483763356118" lon="30.464324698793938"><ele>196.0</ele><time>2026-05-03T10:59:35.001Z</time></trkpt><trkpt lat="54.014507713280445" lon="30.46434559127898"><ele>196.0</ele><time>2026-05-03T10:59:36.001Z</time></trkpt><trkpt lat="54.01417993395521" lon="30.46436507018185"><ele>196.0</ele><time>2026-05-03T10:59:37.001Z</time></trkpt><trkpt lat="54.01386716823231" lon="30.464387965213216"><ele>196.0</ele><time>2026-05-03T10:59:38.001Z</time></trkpt><trkpt lat="54.013533733501006" lon="30.46441414851789"><ele>196.0</ele><time>2026-05-03T10:59:39.001Z</time></trkpt><trkpt lat="54.01319117228147" lon="30.464433052879265"><ele>196.5</ele><time>2026-05-03T10:59:40Z</time></trkpt><trkpt lat="54.01283877453936" lon="30.464450209375897"><ele>197.0</ele><time>2026-05-03T10:59:41Z</time></trkpt><trkpt lat="54.01248401528701" lon="30.464462107544747"><ele>197.5</ele><time>2026-05-03T10:59:42Z</time></trkpt><trkpt lat="54.012124094575576" lon="30.464474168990492"><ele>198.0</ele><time>2026-05-03T10:59:43Z</time></trkpt><trkpt lat="54.011754198336604" lon="30.46448735870475"><ele>198.5</ele><time>2026-05-03T10:59:44Z</time></trkpt><trkpt lat="54.011380271285454" lon="30.46450333581347"><ele>199.0</ele><time>2026-05-03T10:59:45Z</time></trkpt><trkpt lat="54.01100907526097" lon="30.46453022777882"><ele>199.0</ele><time>2026-05-03T10:59:46Z</time></trkpt><trkpt lat="54.01065743709959" lon="30.464566547740308"><ele>199.0</ele><time>2026-05-03T10:59:47Z</time></trkpt><trkpt lat="54.010325910436286" lon="30.464597764020134"><ele>198.0</ele><time>2026-05-03T10:59:48Z</time></trkpt><trkpt lat="54.0099966176565" lon="30.464622693987376"><ele>197.0</ele><time>2026-05-03T10:59:49Z</time></trkpt><trkpt lat="54.00965597440298" lon="30.46464106341802"><ele>195.0</ele><time>2026-05-03T10:59:50Z</time></trkpt><trkpt lat="54.00932171296765" lon="30.464659441753486"><ele>193.0</ele><time>2026-05-03T10:59:51Z</time></trkpt><trkpt lat="54.00899413798439" lon="30.46467672240054"><ele>188.0</ele><time>2026-05-03T10:59:52Z</time></trkpt><trkpt lat="54.00865799062098" lon="30.464696286119043"><ele>183.0</ele><time>2026-05-03T10:59:53Z</time></trkpt><trkpt lat="54.00832701888332" lon="30.46472297788813"><ele>180.5</ele><time>2026-05-03T10:59:54Z</time></trkpt><trkpt lat="54.00798665957605" lon="30.46474213614436"><ele>178.0</ele><time>2026-05-03T10:59:55Z</time></trkpt><trkpt lat="54.00764743915582" lon="30.464760817113103"><ele>177.5</ele><time>2026-05-03T10:59:56Z</time></trkpt><trkpt lat="54.007300181562314" lon="30.464780971831512"><ele>177.0</ele><time>2026-05-03T10:59:57Z</time></trkpt><trkpt lat="54.00695738882548" lon="30.46479497783223"><ele>177.5</ele><time>2026-05-03T10:59:58Z</time></trkpt><trkpt lat="54.006613404189345" lon="30.464813401129017"><ele>178.0</ele><time>2026-05-03T10:59:59Z</time></trkpt><trkpt lat="54.00626558790796" lon="30.464832095830708"><ele>178.0</ele><time>2026-05-03T11:00:00Z</time></trkpt><trkpt lat="54.005912288658465" lon="30.464857694832894"><ele>178.0</ele><time>2026-05-03T11:00:01Z</time></trkpt><trkpt lat="54.00556226074113" lon="30.464882200943162"><ele>178.0</ele><time>2026-05-03T11:00:02Z</time></trkpt><trkpt lat="54.00521218199314" lon="30.464904620100427"><ele>178.0</ele><time>2026-05-03T11:00:03Z</time></trkpt><trkpt lat="54.004859379028076" lon="30.464925484591447"><ele>178.5</ele><time>2026-05-03T11:00:04Z</time></trkpt><trkpt lat="54.00451632806616" lon="30.464947470064242"><ele>179.0</ele><time>2026-05-03T11:00:05Z</time></trkpt><trkpt lat="54.0041659406714" lon="30.464969857995705"><ele>181.5</ele><time>2026-05-03T11:00:06Z</time></trkpt><trkpt lat="54.00381498378262" lon="30.464991394854366"><ele>184.0</ele><time>2026-05-03T11:00:07Z</time></trkpt><trkpt lat="54.003468666354024" lon="30.4650074866337"><ele>185.0</ele><time>2026-05-03T11:00:08Z</time></trkpt><trkpt lat="54.00311857691523" lon="30.465032451675086"><ele>186.0</ele><time>2026-05-03T11:00:09Z</time></trkpt><trkpt lat="54.00276996831143" lon="30.465050401234507"><ele>187.0</ele><time>2026-05-03T11:00:10Z</time></trkpt><trkpt lat="54.00242879605156" lon="30.465068312186045"><ele>188.0</ele><time>2026-05-03T11:00:11Z</time></trkpt><trkpt lat="54.002092900620454" lon="30.465029089741503"><ele>188.0</ele><time>2026-05-03T11:00:12Z</time></trkpt><trkpt lat="54.001755801866764" lon="30.465050260650745"><ele>188.0</ele><time>2026-05-03T11:00:13Z</time></trkpt><trkpt lat="54.00142533614264" lon="30.465071463765426"><ele>187.0</ele><time>2026-05-03T11:00:14Z</time></trkpt><trkpt lat="54.0010912504184" lon="30.465092195735398"><ele>186.0</ele><time>2026-05-03T11:00:15Z</time></trkpt><trkpt lat="54.00075965039139" lon="30.465113274290808"><ele>186.0</ele><time>2026-05-03T11:00:16Z</time></trkpt><trkpt lat="54.00042686029779" lon="30.465134457196733"><ele>186.0</ele><time>2026-05-03T11:00:17Z</time></trkpt><trkpt lat="54.000103608646796" lon="30.465154705009574"><ele>186.0</ele><time>2026-05-03T11:00:18Z</time></trkpt><trkpt lat="53.999776120022204" lon="30.465174553303864"><ele>186.0</ele><time>2026-05-03T11:00:19Z</time></trkpt><trkpt lat="53.99947630568458" lon="30.46519369570085"><ele>186.0</ele><time>2026-05-03T11:00:20Z</time></trkpt><trkpt lat="53.99920075800775" lon="30.465211048184226"><ele>186.0</ele><time>2026-05-03T11:00:21Z</time></trkpt><trkpt lat="53.99893294222123" lon="30.46522791376753"><ele>188.0</ele><time>2026-05-03T11:00:22Z</time></trkpt><trkpt lat="53.998664052382765" lon="30.465245038883285"><ele>190.0</ele><time>2026-05-03T11:00:23Z</time></trkpt><trkpt lat="53.998403896799566" lon="30.46528988196672"><ele>191.0</ele><time>2026-05-03T11:00:24Z</time></trkpt><trkpt lat="53.998147031937194" lon="30.465303454732602"><ele>192.0</ele><time>2026-05-03T11:00:25Z</time></trkpt><trkpt lat="53.99787967068352" lon="30.465294052213785"><ele>192.0</ele><time>2026-05-03T11:00:26Z</time></trkpt><trkpt lat="53.99761580136511" lon="30.46531114569657"><ele>192.0</ele><time>2026-05-03T11:00:27Z</time></trkpt><trkpt lat="53.997344389846056" lon="30.4653284421855"><ele>193.0</ele><time>2026-05-03T11:00:28Z</time></trkpt><trkpt lat="53.99705784954254" lon="30.465346609526595"><ele>194.0</ele><time>2026-05-03T11:00:29Z</time></trkpt><trkpt lat="53.996766040064884" lon="30.46536428033055"><ele>194.0</ele><time>2026-05-03T11:00:30Z</time></trkpt><trkpt lat="53.996475757533396" lon="30.465409843506485"><ele>194.0</ele><time>2026-05-03T11:00:31Z</time></trkpt><trkpt lat="53.99618428139316" lon="30.465419173288105"><ele>194.0</ele><time>2026-05-03T11:00:32Z</time></trkpt><trkpt lat="53.9958905584256" lon="30.465434679811"><ele>194.0</ele><time>2026-05-03T11:00:33Z</time></trkpt><trkpt lat="53.99559197644209" lon="30.46544868919491"><ele>194.5</ele><time>2026-05-03T11:00:34Z</time></trkpt><trkpt lat="53.9952973851199" lon="30.465437326220133"><ele>195.0</ele><time>2026-05-03T11:00:35Z</time></trkpt><trkpt lat="53.995002868592266" lon="30.465449089426734"><ele>195.0</ele><time>2026-05-03T11:00:36Z</time></trkpt><trkpt lat="53.99470021211034" lon="30.465460805151963"><ele>195.0</ele><time>2026-05-03T11:00:37Z</time></trkpt><trkpt lat="53.99440101164975" lon="30.465514248162396"><ele>195.0</ele><time>2026-05-03T11:00:38Z</time></trkpt><trkpt lat="53.99409710442226" lon="30.465529218302752"><ele>195.0</ele><time>2026-05-03T11:00:38.999Z</time></trkpt><trkpt lat="53.99379881739294" lon="30.465544316777734"><ele>195.0</ele><time>2026-05-03T11:00:39.999Z</time></trkpt><trkpt lat="53.99349279814252" lon="30.465561731189826"><ele>195.0</ele><time>2026-05-03T11:00:40.999Z</time></trkpt><trkpt lat="53.99319128944737" lon="30.465537816967114"><ele>195.0</ele><time>2026-05-03T11:00:41.999Z</time></trkpt><trkpt lat="53.99288906971601" lon="30.46555359258476"><ele>195.0</ele><time>2026-05-03T11:00:42.999Z</time></trkpt><trkpt lat="53.99258562977965" lon="30.465568737633355"><ele>195.0</ele><time>2026-05-03T11:00:43.999Z</time></trkpt><trkpt lat="53.9922804012769" lon="30.465583959263277"><ele>195.0</ele><time>2026-05-03T11:00:44.999Z</time></trkpt><trkpt lat="53.99196975242042" lon="30.46559973065964"><ele>196.0</ele><time>2026-05-03T11:00:45.999Z</time></trkpt><trkpt lat="53.991662619800145" lon="30.465615480086665"><ele>197.0</ele><time>2026-05-03T11:00:46.999Z</time></trkpt><trkpt lat="53.99134845867461" lon="30.465628335239902"><ele>197.0</ele><time>2026-05-03T11:00:47.999Z</time></trkpt><trkpt lat="53.99103457733224" lon="30.465641455659725"><ele>197.0</ele><time>2026-05-03T11:00:48.999Z</time></trkpt><trkpt lat="53.990724458616405" lon="30.465654219257253"><ele>197.0</ele><time>2026-05-03T11:00:49.999Z</time></trkpt><trkpt lat="53.990399643803585" lon="30.465674065197106"><ele>197.0</ele><time>2026-05-03T11:00:50.999Z</time></trkpt><trkpt lat="53.99008586869193" lon="30.4656907895483"><ele>196.0</ele><time>2026-05-03T11:00:51.999Z</time></trkpt><trkpt lat="53.989763867029936" lon="30.465709150493954"><ele>195.0</ele><time>2026-05-03T11:00:52.999Z</time></trkpt><trkpt lat="53.98943964479236" lon="30.46572802376785"><ele>195.0</ele><time>2026-05-03T11:00:53.999Z</time></trkpt><trkpt lat="53.98911644343758" lon="30.465754364141677"><ele>195.0</ele><time>2026-05-03T11:00:54.999Z</time></trkpt><trkpt lat="53.98879706713713" lon="30.46577955958945"><ele>195.0</ele><time>2026-05-03T11:00:55.999Z</time></trkpt><trkpt lat="53.988499474037404" lon="30.46580440778633"><ele>195.0</ele><time>2026-05-03T11:00:56.999Z</time></trkpt><trkpt lat="53.98822141706324" lon="30.46582740712704"><ele>195.0</ele><time>2026-05-03T11:00:57.999Z</time></trkpt><trkpt lat="53.98796537020225" lon="30.465843930679686"><ele>195.0</ele><time>2026-05-03T11:00:58.999Z</time></trkpt><trkpt lat="53.987719101855006" lon="30.465857805720816"><ele>194.5</ele><time>2026-05-03T11:00:59.999Z</time></trkpt><trkpt lat="53.98748489173883" lon="30.465870855352858"><ele>194.0</ele><time>2026-05-03T11:01:00.999Z</time></trkpt><trkpt lat="53.98726728485787" lon="30.465882275032076"><ele>194.0</ele><time>2026-05-03T11:01:01.999Z</time></trkpt><trkpt lat="53.98706045706431" lon="30.465893714751523"><ele>194.0</ele><time>2026-05-03T11:01:02.999Z</time></trkpt><trkpt lat="53.98686264191882" lon="30.46590467523036"><ele>194.0</ele><time>2026-05-03T11:01:03.999Z</time></trkpt><trkpt lat="53.9866608762255" lon="30.46591602117049"><ele>194.33333333333334</ele><time>2026-05-03T11:01:04.999Z</time></trkpt><trkpt lat="53.98644851790367" lon="30.46592839232894"><ele>194.66666666666669</ele><time>2026-05-03T11:01:05.999Z</time></trkpt><trkpt lat="53.986229668174" lon="30.465976069462485"><ele>195.0</ele><time>2026-05-03T11:01:06.999Z</time></trkpt><trkpt lat="53.98601049755788" lon="30.465992944714422"><ele>197.0</ele><time>2026-05-03T11:01:07.999Z</time></trkpt><trkpt lat="53.98578041888529" lon="30.46597460865039"><ele>199.0</ele><time>2026-05-03T11:01:08.999Z</time></trkpt><trkpt lat="53.9855506139325" lon="30.465983485008447"><ele>199.0</ele><time>2026-05-03T11:01:09.999Z</time></trkpt><trkpt lat="53.98531375067888" lon="30.465993087270334"><ele>199.0</ele><time>2026-05-03T11:01:10.999Z</time></trkpt><trkpt lat="53.98507041486451" lon="30.466003053242655"><ele>199.5</ele><time>2026-05-03T11:01:11.999Z</time></trkpt><trkpt lat="53.98484235532787" lon="30.46601193265697"><ele>200.0</ele><time>2026-05-03T11:01:12.999Z</time></trkpt><trkpt lat="53.984618030270795" lon="30.46602409557249"><ele>200.0</ele><time>2026-05-03T11:01:13.999Z</time></trkpt><trkpt lat="53.98438137439924" lon="30.4660376408461"><ele>200.0</ele><time>2026-05-03T11:01:14.999Z</time></trkpt><trkpt lat="53.98413199761407" lon="30.466053141752937"><ele>201.5</ele><time>2026-05-03T11:01:15.999Z</time></trkpt><trkpt lat="53.98387264666784" lon="30.466069023895834"><ele>203.0</ele><time>2026-05-03T11:01:16.999Z</time></trkpt><trkpt lat="53.98361297497192" lon="30.466084164345084"><ele>203.0</ele><time>2026-05-03T11:01:17.999Z</time></trkpt><trkpt lat="53.9833426758513" lon="30.46610050243213"><ele>203.0</ele><time>2026-05-03T11:01:18.999Z</time></trkpt><trkpt lat="53.98305460419631" lon="30.46611812158769"><ele>203.0</ele><time>2026-05-03T11:01:19.999Z</time></trkpt><trkpt lat="53.98276070050102" lon="30.466135284539988"><ele>203.0</ele><time>2026-05-03T11:01:20.999Z</time></trkpt><trkpt lat="53.98245448097002" lon="30.466153009582257"><ele>202.0</ele><time>2026-05-03T11:01:21.999Z</time></trkpt><trkpt lat="53.98213654611087" lon="30.46617014223386"><ele>201.0</ele><time>2026-05-03T11:01:22.999Z</time></trkpt><trkpt lat="53.98180605943167" lon="30.466187879186958"><ele>201.0</ele><time>2026-05-03T11:01:23.999Z</time></trkpt><trkpt lat="53.98146936924523" lon="30.466232775014067"><ele>201.0</ele><time>2026-05-03T11:01:24.999Z</time></trkpt><trkpt lat="53.98112562298432" lon="30.46624674303333"><ele>201.0</ele><time>2026-05-03T11:01:25.999Z</time></trkpt><trkpt lat="53.98078333635795" lon="30.46626684784569"><ele>201.0</ele><time>2026-05-03T11:01:26.999Z</time></trkpt><trkpt lat="53.980461275288846" lon="30.466285724492526"><ele>202.0</ele><time>2026-05-03T11:01:27.999Z</time></trkpt><trkpt lat="53.980163310221634" lon="30.46630564013691"><ele>203.0</ele><time>2026-05-03T11:01:28.999Z</time></trkpt><trkpt lat="53.97988965174243" lon="30.466320299692487"><ele>203.0</ele><time>2026-05-03T11:01:29.999Z</time></trkpt><trkpt lat="53.979632685398705" lon="30.466306926718982"><ele>203.0</ele><time>2026-05-03T11:01:31.001Z</time></trkpt><trkpt lat="53.97938826895935" lon="30.466319774225365"><ele>202.0</ele><time>2026-05-03T11:01:32.001Z</time></trkpt><trkpt lat="53.9791451400098" lon="30.466332937842974"><ele>201.0</ele><time>2026-05-03T11:01:33.001Z</time></trkpt><trkpt lat="53.97889787260227" lon="30.46634629574485"><ele>201.0</ele><time>2026-05-03T11:01:34.001Z</time></trkpt><trkpt lat="53.97865679158197" lon="30.466360897588665"><ele>201.0</ele><time>2026-05-03T11:01:35.001Z</time></trkpt><trkpt lat="53.978422732534554" lon="30.466374697528135"><ele>201.5</ele><time>2026-05-03T11:01:36.001Z</time></trkpt><trkpt lat="53.978184912438856" lon="30.466415014754045"><ele>202.0</ele><time>2026-05-03T11:01:37.001Z</time></trkpt><trkpt lat="53.97793825299182" lon="30.466421813174975"><ele>202.0</ele><time>2026-05-03T11:01:38.001Z</time></trkpt><trkpt lat="53.97770626885811" lon="30.46643644947947"><ele>202.0</ele><time>2026-05-03T11:01:39.001Z</time></trkpt><trkpt lat="53.977465823591004" lon="30.466451288676964"><ele>203.0</ele><time>2026-05-03T11:01:40.001Z</time></trkpt><trkpt lat="53.97722723411834" lon="30.46646539642286"><ele>204.0</ele><time>2026-05-03T11:01:41.001Z</time></trkpt><trkpt lat="53.976969694883536" lon="30.466481517931253"><ele>204.0</ele><time>2026-05-03T11:01:42.001Z</time></trkpt><trkpt lat="53.97671273033447" lon="30.466467432508736"><ele>204.0</ele><time>2026-05-03T11:01:43.001Z</time></trkpt><trkpt lat="53.97646016818587" lon="30.46648074943604"><ele>202.5</ele><time>2026-05-03T11:01:44.001Z</time></trkpt><trkpt lat="53.97619791396952" lon="30.466495827567478"><ele>201.0</ele><time>2026-05-03T11:01:45.001Z</time></trkpt><trkpt lat="53.975940571580175" lon="30.466509751776975"><ele>201.0</ele><time>2026-05-03T11:01:46.001Z</time></trkpt><trkpt lat="53.975676793942505" lon="30.466524208820317"><ele>201.0</ele><time>2026-05-03T11:01:47.001Z</time></trkpt><trkpt lat="53.97541483638289" lon="30.46653818369995"><ele>201.0</ele><time>2026-05-03T11:01:48Z</time></trkpt><trkpt lat="53.975157474177166" lon="30.466551940763175"><ele>201.0</ele><time>2026-05-03T11:01:49Z</time></trkpt><trkpt lat="53.974913246220225" lon="30.466565310273346"><ele>200.5</ele><time>2026-05-03T11:01:50Z</time></trkpt><trkpt lat="53.97467961173799" lon="30.46657846559225"><ele>200.0</ele><time>2026-05-03T11:01:51Z</time></trkpt><trkpt lat="53.97444821786047" lon="30.466591528168905"><ele>200.0</ele><time>2026-05-03T11:01:52Z</time></trkpt><trkpt lat="53.974205666114216" lon="30.466604586158546"><ele>200.0</ele><time>2026-05-03T11:01:53Z</time></trkpt><trkpt lat="53.973952782367576" lon="30.466617863065537"><ele>199.5</ele><time>2026-05-03T11:01:54Z</time></trkpt><trkpt lat="53.97369819040454" lon="30.46663186514141"><ele>199.0</ele><time>2026-05-03T11:01:55Z</time></trkpt><trkpt lat="53.97344435711005" lon="30.46664563365291"><ele>199.0</ele><time>2026-05-03T11:01:56Z</time></trkpt><trkpt lat="53.97322863148807" lon="30.466657513809945"><ele>199.0</ele><time>2026-05-03T11:01:57Z</time></trkpt><trkpt lat="53.97302702764661" lon="30.46666916368265"><ele>199.0</ele><time>2026-05-03T11:01:58Z</time></trkpt><trkpt lat="53.97281750044125" lon="30.46668064836864"><ele>199.0</ele><time>2026-05-03T11:01:59Z</time></trkpt><trkpt lat="53.97261316013647" lon="30.466690786004612"><ele>199.0</ele><time>2026-05-03T11:02:00Z</time></trkpt><trkpt lat="53.97242197424572" lon="30.46670135104753"><ele>199.0</ele><time>2026-05-03T11:02:01Z</time></trkpt><trkpt lat="53.9722244688433" lon="30.466712290308028"><ele>199.0</ele><time>2026-05-03T11:02:02Z</time></trkpt><trkpt lat="53.97202919297823" lon="30.466725566632615"><ele>199.0</ele><time>2026-05-03T11:02:03Z</time></trkpt><trkpt lat="53.97183704626757" lon="30.466735992053557"><ele>199.0</ele><time>2026-05-03T11:02:04Z</time></trkpt><trkpt lat="53.97166428763216" lon="30.466743735364307"><ele>199.33333333333331</ele><time>2026-05-03T11:02:05Z</time></trkpt><trkpt lat="53.971505967753494" lon="30.466752083958163"><ele>199.66666666666669</ele><time>2026-05-03T11:02:06Z</time></trkpt><trkpt lat="53.971355747423274" lon="30.466760293201048"><ele>200.0</ele><time>2026-05-03T11:02:07Z</time></trkpt><trkpt lat="53.97119452462638" lon="30.466769796597024"><ele>200.0</ele><time>2026-05-03T11:02:08Z</time></trkpt><trkpt lat="53.971039460692914" lon="30.466778728100056"><ele>200.0</ele><time>2026-05-03T11:02:09Z</time></trkpt><trkpt lat="53.97087806182026" lon="30.466815808540822"><ele>200.0</ele><time>2026-05-03T11:02:10Z</time></trkpt><trkpt lat="53.97071235947218" lon="30.46679706742048"><ele>199.0</ele><time>2026-05-03T11:02:11Z</time></trkpt><trkpt lat="53.9705409916137" lon="30.466807209230787"><ele>198.0</ele><time>2026-05-03T11:02:12Z</time></trkpt><trkpt lat="53.970358989014535" lon="30.466817980420803"><ele>197.0</ele><time>2026-05-03T11:02:13Z</time></trkpt><trkpt lat="53.97016335079378" lon="30.466827989137585"><ele>196.33333333333334</ele><time>2026-05-03T11:02:14Z</time></trkpt><trkpt lat="53.96995456066415" lon="30.46683790420862"><ele>195.66666666666669</ele><time>2026-05-03T11:02:15Z</time></trkpt><trkpt lat="53.969730344482684" lon="30.46684795482101"><ele>195.0</ele><time>2026-05-03T11:02:16Z</time></trkpt><trkpt lat="53.96948770034976" lon="30.466860444309923"><ele>195.0</ele><time>2026-05-03T11:02:17Z</time></trkpt><trkpt lat="53.969227070714" lon="30.46687890019394"><ele>195.0</ele><time>2026-05-03T11:02:18Z</time></trkpt><trkpt lat="53.96894279949868" lon="30.466898102239877"><ele>193.5</ele><time>2026-05-03T11:02:19Z</time></trkpt><trkpt lat="53.968648456035396" lon="30.466944144631636"><ele>192.0</ele><time>2026-05-03T11:02:20Z</time></trkpt><trkpt lat="53.96834001459317" lon="30.46693605708779"><ele>191.0</ele><time>2026-05-03T11:02:21Z</time></trkpt><trkpt lat="53.968034066668" lon="30.46695543583522"><ele>190.0</ele><time>2026-05-03T11:02:22Z</time></trkpt><trkpt lat="53.967752943263044" lon="30.466971258135363"><ele>190.0</ele><time>2026-05-03T11:02:23Z</time></trkpt><trkpt lat="53.96747350825669" lon="30.46698672313105"><ele>190.0</ele><time>2026-05-03T11:02:24Z</time></trkpt><trkpt lat="53.967189713441314" lon="30.467001062787006"><ele>190.0</ele><time>2026-05-03T11:02:25Z</time></trkpt><trkpt lat="53.96690099798086" lon="30.467016873594503"><ele>190.0</ele><time>2026-05-03T11:02:26Z</time></trkpt><trkpt lat="53.966611920750765" lon="30.46703317084031"><ele>187.5</ele><time>2026-05-03T11:02:27Z</time></trkpt><trkpt lat="53.966312946263386" lon="30.467049694181352"><ele>185.0</ele><time>2026-05-03T11:02:28Z</time></trkpt><trkpt lat="53.96601102934073" lon="30.46706585915602"><ele>184.5</ele><time>2026-05-03T11:02:29Z</time></trkpt><trkpt lat="53.96571479114641" lon="30.467081469741778"><ele>184.0</ele><time>2026-05-03T11:02:30Z</time></trkpt><trkpt lat="53.965409212627" lon="30.467098262881063"><ele>184.0</ele><time>2026-05-03T11:02:31Z</time></trkpt><trkpt lat="53.965112907080425" lon="30.467114646169694"><ele>184.0</ele><time>2026-05-03T11:02:32Z</time></trkpt><trkpt lat="53.96481460087641" lon="30.467129635663937"><ele>184.0</ele><time>2026-05-03T11:02:33Z</time></trkpt><trkpt lat="53.96452800062809" lon="30.46714563038723"><ele>184.0</ele><time>2026-05-03T11:02:34Z</time></trkpt><trkpt lat="53.96424769551094" lon="30.467160419660228"><ele>183.5</ele><time>2026-05-03T11:02:35Z</time></trkpt><trkpt lat="53.96397400816213" lon="30.46717503344189"><ele>183.0</ele><time>2026-05-03T11:02:36Z</time></trkpt><trkpt lat="53.96372157491169" lon="30.467189646109873"><ele>183.0</ele><time>2026-05-03T11:02:37Z</time></trkpt><trkpt lat="53.963481233617955" lon="30.46720276475859"><ele>183.0</ele><time>2026-05-03T11:02:38Z</time></trkpt><trkpt lat="53.96325523776535" lon="30.4672147258575"><ele>182.33333333333334</ele><time>2026-05-03T11:02:39Z</time></trkpt><trkpt lat="53.963034661958844" lon="30.467226400095292"><ele>181.66666666666669</ele><time>2026-05-03T11:02:40Z</time></trkpt><trkpt lat="53.962809761520674" lon="30.46723830322527"><ele>181.0</ele><time>2026-05-03T11:02:41Z</time></trkpt><trkpt lat="53.96259230561802" lon="30.467250304254787"><ele>181.33333333333334</ele><time>2026-05-03T11:02:42Z</time></trkpt><trkpt lat="53.96238304486054" lon="30.467261410424985"><ele>181.66666666666666</ele><time>2026-05-03T11:02:42.999Z</time></trkpt><trkpt lat="53.96217844551296" lon="30.46727250917698"><ele>182.0</ele><time>2026-05-03T11:02:43.999Z</time></trkpt><trkpt lat="53.961980164630354" lon="30.467283172136334"><ele>182.0</ele><time>2026-05-03T11:02:44.999Z</time></trkpt><trkpt lat="53.961777703819195" lon="30.467293787951192"><ele>182.0</ele><time>2026-05-03T11:02:45.999Z</time></trkpt><trkpt lat="53.96157385966369" lon="30.467304913744087"><ele>182.0</ele><time>2026-05-03T11:02:46.999Z</time></trkpt><trkpt lat="53.96137601606195" lon="30.467316106053033"><ele>182.33333333333331</ele><time>2026-05-03T11:02:47.999Z</time></trkpt><trkpt lat="53.961175381494236" lon="30.467327206797634"><ele>182.66666666666666</ele><time>2026-05-03T11:02:48.999Z</time></trkpt><trkpt lat="53.960972603359714" lon="30.4673380416805"><ele>183.0</ele><time>2026-05-03T11:02:49.998Z</time></trkpt><trkpt lat="53.9607812804806" lon="30.467348332224883"><ele>182.33333333333334</ele><time>2026-05-03T11:02:50.998Z</time></trkpt><trkpt lat="53.96058258682158" lon="30.46735901919906"><ele>181.66666666666669</ele><time>2026-05-03T11:02:51.998Z</time></trkpt><trkpt lat="53.960389203437025" lon="30.467369420570694"><ele>181.0</ele><time>2026-05-03T11:02:52.998Z</time></trkpt><trkpt lat="53.960197307604005" lon="30.46737986847844"><ele>180.66666666666669</ele><time>2026-05-03T11:02:53.998Z</time></trkpt><trkpt lat="53.960002903213805" lon="30.467390698166753"><ele>180.33333333333334</ele><time>2026-05-03T11:02:54.998Z</time></trkpt><trkpt lat="53.95983090229407" lon="30.467400331429015"><ele>180.0</ele><time>2026-05-03T11:02:55.998Z</time></trkpt><trkpt lat="53.95964788397382" lon="30.46741058174231"><ele>180.0</ele><time>2026-05-03T11:02:56.998Z</time></trkpt><trkpt lat="53.959458851426426" lon="30.467420785303695"><ele>180.0</ele><time>2026-05-03T11:02:57.998Z</time></trkpt><trkpt lat="53.95926788014622" lon="30.467430812800966"><ele>180.0</ele><time>2026-05-03T11:02:58.998Z</time></trkpt><trkpt lat="53.959076629702864" lon="30.46744113721293"><ele>179.0</ele><time>2026-05-03T11:02:59.998Z</time></trkpt><trkpt lat="53.95890081930057" lon="30.467452095556467"><ele>178.0</ele><time>2026-05-03T11:03:00.998Z</time></trkpt><trkpt lat="53.95873847550011" lon="30.467461239440635"><ele>177.0</ele><time>2026-05-03T11:03:01.998Z</time></trkpt><trkpt lat="53.9585831823343" lon="30.46747012048154"><ele>177.0</ele><time>2026-05-03T11:03:02.998Z</time></trkpt><trkpt lat="53.95843988247927" lon="30.46747796808469"><ele>177.0</ele><time>2026-05-03T11:03:03.998Z</time></trkpt><trkpt lat="53.95831254483063" lon="30.467484941541276"><ele>177.0</ele><time>2026-05-03T11:03:04.998Z</time></trkpt><trkpt lat="53.95819244001343" lon="30.46749151890582"><ele>177.0</ele><time>2026-05-03T11:03:05.998Z</time></trkpt><trkpt lat="53.958073955630724" lon="30.467498473917125"><ele>177.0</ele><time>2026-05-03T11:03:06.998Z</time></trkpt><trkpt lat="53.957938265865245" lon="30.46750661427492"><ele>177.0</ele><time>2026-05-03T11:03:07.998Z</time></trkpt><trkpt lat="53.95779262050922" lon="30.467514711267295"><ele>177.0</ele><time>2026-05-03T11:03:08.998Z</time></trkpt><trkpt lat="53.9576392615492" lon="30.467522147340496"><ele>177.0</ele><time>2026-05-03T11:03:09.998Z</time></trkpt><trkpt lat="53.957484793039534" lon="30.46752669053335"><ele>177.66666666666666</ele><time>2026-05-03T11:03:10.998Z</time></trkpt><trkpt lat="53.95732807309389" lon="30.467531300064245"><ele>178.33333333333331</ele><time>2026-05-03T11:03:11.998Z</time></trkpt><trkpt lat="53.95717291965932" lon="30.467539844000058"><ele>179.0</ele><time>2026-05-03T11:03:12.998Z</time></trkpt><trkpt lat="53.95700918767784" lon="30.467547058196956"><ele>179.0</ele><time>2026-05-03T11:03:13.998Z</time></trkpt><trkpt lat="53.9568407637787" lon="30.467554267141907"><ele>179.0</ele><time>2026-05-03T11:03:14.998Z</time></trkpt><trkpt lat="53.95666591518868" lon="30.46756175107685"><ele>179.0</ele><time>2026-05-03T11:03:15.998Z</time></trkpt><trkpt lat="53.95647968320747" lon="30.46756972435305"><ele>179.0</ele><time>2026-05-03T11:03:16.998Z</time></trkpt><trkpt lat="53.95628838577912" lon="30.467577914739977"><ele>179.0</ele><time>2026-05-03T11:03:17.998Z</time></trkpt><trkpt lat="53.95609083242889" lon="30.467586299795876"><ele>179.0</ele><time>2026-05-03T11:03:18.998Z</time></trkpt><trkpt lat="53.955894983137924" lon="30.467594892373622"><ele>178.33333333333331</ele><time>2026-05-03T11:03:19.998Z</time></trkpt><trkpt lat="53.95569111117442" lon="30.46760375637465"><ele>177.66666666666666</ele><time>2026-05-03T11:03:20.998Z</time></trkpt><trkpt lat="53.95548977484774" lon="30.467612510121526"><ele>177.0</ele><time>2026-05-03T11:03:21.998Z</time></trkpt><trkpt lat="53.95528641627609" lon="30.46762100988324"><ele>177.0</ele><time>2026-05-03T11:03:22.998Z</time></trkpt><trkpt lat="53.95507289706352" lon="30.467633694712678"><ele>177.0</ele><time>2026-05-03T11:03:23.998Z</time></trkpt><trkpt lat="53.9548627004607" lon="30.46764777348463"><ele>177.0</ele><time>2026-05-03T11:03:24.998Z</time></trkpt><trkpt lat="53.954646822157876" lon="30.46766244836148"><ele>173.5</ele><time>2026-05-03T11:03:25.998Z</time></trkpt><trkpt lat="53.954419297093665" lon="30.467677175870165"><ele>170.0</ele><time>2026-05-03T11:03:26.998Z</time></trkpt><trkpt lat="53.95419023574372" lon="30.467691930046907"><ele>167.0</ele><time>2026-05-03T11:03:27.998Z</time></trkpt><trkpt lat="53.95395289931283" lon="30.4677077099769"><ele>164.0</ele><time>2026-05-03T11:03:28.998Z</time></trkpt><trkpt lat="53.95370271402173" lon="30.46772455806719"><ele>164.0</ele><time>2026-05-03T11:03:29.998Z</time></trkpt><trkpt lat="53.95344075563074" lon="30.467742818641746"><ele>164.0</ele><time>2026-05-03T11:03:30.998Z</time></trkpt><trkpt lat="53.95317330019259" lon="30.467760260873387"><ele>161.5</ele><time>2026-05-03T11:03:31.998Z</time></trkpt><trkpt lat="53.95289827021038" lon="30.4677778010261"><ele>159.0</ele><time>2026-05-03T11:03:32.998Z</time></trkpt><trkpt lat="53.952620415649356" lon="30.46779331678517"><ele>161.5</ele><time>2026-05-03T11:03:33.998Z</time></trkpt><trkpt lat="53.952336012355126" lon="30.467808930239176"><ele>164.0</ele><time>2026-05-03T11:03:34.998Z</time></trkpt><trkpt lat="53.95204625656932" lon="30.4678247121455"><ele>164.0</ele><time>2026-05-03T11:03:35.998Z</time></trkpt><trkpt lat="53.95175231612251" lon="30.467840753813007"><ele>164.0</ele><time>2026-05-03T11:03:37Z</time></trkpt><trkpt lat="53.95146074744922" lon="30.467857858392033"><ele>170.0</ele><time>2026-05-03T11:03:38Z</time></trkpt><trkpt lat="53.951191273874294" lon="30.467872620195763"><ele>176.0</ele><time>2026-05-03T11:03:39Z</time></trkpt><trkpt lat="53.950931099930045" lon="30.467887301663705"><ele>179.0</ele><time>2026-05-03T11:03:40Z</time></trkpt><trkpt lat="53.950659207276786" lon="30.467901486988644"><ele>182.0</ele><time>2026-05-03T11:03:41Z</time></trkpt><trkpt lat="53.950384447787904" lon="30.46791706577564"><ele>182.0</ele><time>2026-05-03T11:03:42Z</time></trkpt><trkpt lat="53.95009732654565" lon="30.467933457251785"><ele>182.0</ele><time>2026-05-03T11:03:43Z</time></trkpt><trkpt lat="53.94980845489951" lon="30.46794915631311"><ele>181.5</ele><time>2026-05-03T11:03:44Z</time></trkpt><trkpt lat="53.94951707400286" lon="30.467965105419"><ele>181.0</ele><time>2026-05-03T11:03:45Z</time></trkpt><trkpt lat="53.94922016446092" lon="30.467982049665927"><ele>179.0</ele><time>2026-05-03T11:03:46Z</time></trkpt><trkpt lat="53.948913222709116" lon="30.467999450639013"><ele>177.0</ele><time>2026-05-03T11:03:47Z</time></trkpt><trkpt lat="53.948598268029485" lon="30.468016898122503"><ele>177.5</ele><time>2026-05-03T11:03:48Z</time></trkpt><trkpt lat="53.948285341548754" lon="30.46803450196066"><ele>178.0</ele><time>2026-05-03T11:03:49Z</time></trkpt><trkpt lat="53.9479868720071" lon="30.46805078021277"><ele>178.0</ele><time>2026-05-03T11:03:50Z</time></trkpt><trkpt lat="53.9476939708179" lon="30.468066805018143"><ele>178.0</ele><time>2026-05-03T11:03:51Z</time></trkpt><trkpt lat="53.94739845496501" lon="30.46808323077822"><ele>178.0</ele><time>2026-05-03T11:03:52Z</time></trkpt><trkpt lat="53.94709506369733" lon="30.468100127922284"><ele>178.0</ele><time>2026-05-03T11:03:53Z</time></trkpt><trkpt lat="53.94679257911935" lon="30.468117500513145"><ele>176.0</ele><time>2026-05-03T11:03:53.999Z</time></trkpt><trkpt lat="53.9464838830026" lon="30.468134123638524"><ele>174.0</ele><time>2026-05-03T11:03:54.999Z</time></trkpt><trkpt lat="53.946172763067366" lon="30.46815224238796"><ele>171.5</ele><time>2026-05-03T11:03:55.999Z</time></trkpt><trkpt lat="53.94585893501966" lon="30.46816902495899"><ele>169.0</ele><time>2026-05-03T11:03:56.999Z</time></trkpt><trkpt lat="53.945542961294215" lon="30.46818514731343"><ele>169.0</ele><time>2026-05-03T11:03:57.999Z</time></trkpt><trkpt lat="53.94522837676587" lon="30.46819994449027"><ele>169.0</ele><time>2026-05-03T11:03:58.999Z</time></trkpt><trkpt lat="53.94490447475067" lon="30.468216102367492"><ele>170.0</ele><time>2026-05-03T11:03:59.999Z</time></trkpt><trkpt lat="53.944586196499" lon="30.4682306912755"><ele>171.0</ele><time>2026-05-03T11:04:00.999Z</time></trkpt><trkpt lat="53.944266342121786" lon="30.468246354532713"><ele>171.5</ele><time>2026-05-03T11:04:01.999Z</time></trkpt><trkpt lat="53.94394019433955" lon="30.46826152888913"><ele>172.0</ele><time>2026-05-03T11:04:02.999Z</time></trkpt><trkpt lat="53.9436166714534" lon="30.46827676010004"><ele>171.0</ele><time>2026-05-03T11:04:03.999Z</time></trkpt><trkpt lat="53.94328265806704" lon="30.468291906177033"><ele>170.0</ele><time>2026-05-03T11:04:04.999Z</time></trkpt><trkpt lat="53.94295401819983" lon="30.468308220903037"><ele>170.0</ele><time>2026-05-03T11:04:05.999Z</time></trkpt><trkpt lat="53.94261957096687" lon="30.46832427826124"><ele>170.0</ele><time>2026-05-03T11:04:06.999Z</time></trkpt><trkpt lat="53.94228559607622" lon="30.468339623755703"><ele>168.0</ele><time>2026-05-03T11:04:07.999Z</time></trkpt><trkpt lat="53.94195369295484" lon="30.46835530843466"><ele>166.0</ele><time>2026-05-03T11:04:08.999Z</time></trkpt><trkpt lat="53.94162548471313" lon="30.468370993752007"><ele>166.0</ele><time>2026-05-03T11:04:09.999Z</time></trkpt><trkpt lat="53.94129130830608" lon="30.46839883115006"><ele>166.0</ele><time>2026-05-03T11:04:10.999Z</time></trkpt><trkpt lat="53.94096467046326" lon="30.46843016976726"><ele>164.0</ele><time>2026-05-03T11:04:11.999Z</time></trkpt><trkpt lat="53.940635796273355" lon="30.46845363221921"><ele>162.0</ele><time>2026-05-03T11:04:12.999Z</time></trkpt><trkpt lat="53.94030185592032" lon="30.46846656873039"><ele>161.0</ele><time>2026-05-03T11:04:13.999Z</time></trkpt><trkpt lat="53.93997464733225" lon="30.46848051509937"><ele>160.0</ele><time>2026-05-03T11:04:14.999Z</time></trkpt><trkpt lat="53.939647606449014" lon="30.468493635408915"><ele>160.0</ele><time>2026-05-03T11:04:15.999Z</time></trkpt><trkpt lat="53.939317206039924" lon="30.468506246299214"><ele>160.0</ele><time>2026-05-03T11:04:16.999Z</time></trkpt><trkpt lat="53.938983330059294" lon="30.468519719095553"><ele>160.0</ele><time>2026-05-03T11:04:17.999Z</time></trkpt><trkpt lat="53.938653364333064" lon="30.46853303410308"><ele>160.0</ele><time>2026-05-03T11:04:18.999Z</time></trkpt><trkpt lat="53.93832740268648" lon="30.468546187502557"><ele>160.0</ele><time>2026-05-03T11:04:19.999Z</time></trkpt><trkpt lat="53.93801930569867" lon="30.46855861991976"><ele>160.0</ele><time>2026-05-03T11:04:20.999Z</time></trkpt><trkpt lat="53.937705467895135" lon="30.46857577876851"><ele>159.0</ele><time>2026-05-03T11:04:21.999Z</time></trkpt><trkpt lat="53.93739625356203" lon="30.468674250297166"><ele>158.0</ele><time>2026-05-03T11:04:22.999Z</time></trkpt><trkpt lat="53.937083743533464" lon="30.468687946444074"><ele>158.0</ele><time>2026-05-03T11:04:23.999Z</time></trkpt><trkpt lat="53.936777650889596" lon="30.46870957588921"><ele>158.0</ele><time>2026-05-03T11:04:24.999Z</time></trkpt><trkpt lat="53.936473695244246" lon="30.468730888896598"><ele>157.5</ele><time>2026-05-03T11:04:25.999Z</time></trkpt><trkpt lat="53.93615907429787" lon="30.46874967531757"><ele>157.0</ele><time>2026-05-03T11:04:26.999Z</time></trkpt><trkpt lat="53.93584378768124" lon="30.468768335558032"><ele>159.0</ele><time>2026-05-03T11:04:27.999Z</time></trkpt><trkpt lat="53.935523961157365" lon="30.468786307198208"><ele>161.0</ele><time>2026-05-03T11:04:28.999Z</time></trkpt><trkpt lat="53.93519159055375" lon="30.468801657912802"><ele>161.0</ele><time>2026-05-03T11:04:29.999Z</time></trkpt><trkpt lat="53.93484731634745" lon="30.46881868015073"><ele>161.0</ele><time>2026-05-03T11:04:30.999Z</time></trkpt><trkpt lat="53.93449891545915" lon="30.46882896691057"><ele>160.0</ele><time>2026-05-03T11:04:31.999Z</time></trkpt><trkpt lat="53.93413606284115" lon="30.468847606421726"><ele>159.0</ele><time>2026-05-03T11:04:32.999Z</time></trkpt><trkpt lat="53.93376764216843" lon="30.46886600027233"><ele>159.0</ele><time>2026-05-03T11:04:33.999Z</time></trkpt><trkpt lat="53.93339004994385" lon="30.468885710548683"><ele>159.0</ele><time>2026-05-03T11:04:34.999Z</time></trkpt><trkpt lat="53.93300706694557" lon="30.468907463012272"><ele>158.0</ele><time>2026-05-03T11:04:35.999Z</time></trkpt><trkpt lat="53.93262187385496" lon="30.46892822870787"><ele>157.0</ele><time>2026-05-03T11:04:36.999Z</time></trkpt><trkpt lat="53.932252729861446" lon="30.468950055863317"><ele>157.0</ele><time>2026-05-03T11:04:37.999Z</time></trkpt><trkpt lat="53.93188427522056" lon="30.46896912780986"><ele>157.0</ele><time>2026-05-03T11:04:38.999Z</time></trkpt><trkpt lat="53.93150228560038" lon="30.468991697442494"><ele>157.0</ele><time>2026-05-03T11:04:39.999Z</time></trkpt><trkpt lat="53.931116342412295" lon="30.46901510089073"><ele>157.0</ele><time>2026-05-03T11:04:40.999Z</time></trkpt><trkpt lat="53.9307468025303" lon="30.469042281755335"><ele>156.5</ele><time>2026-05-03T11:04:41.999Z</time></trkpt><trkpt lat="53.93038991918693" lon="30.469063687524436"><ele>156.0</ele><time>2026-05-03T11:04:42.999Z</time></trkpt><trkpt lat="53.9300397562584" lon="30.46908232091273"><ele>155.5</ele><time>2026-05-03T11:04:43.999Z</time></trkpt><trkpt lat="53.92968710010789" lon="30.46909150535292"><ele>155.0</ele><time>2026-05-03T11:04:44.999Z</time></trkpt><trkpt lat="53.92934841701308" lon="30.46910922293852"><ele>154.0</ele><time>2026-05-03T11:04:45.999Z</time></trkpt><trkpt lat="53.928997995775376" lon="30.469124127489852"><ele>153.0</ele><time>2026-05-03T11:04:46.999Z</time></trkpt><trkpt lat="53.928659330926706" lon="30.469141190045324"><ele>153.0</ele><time>2026-05-03T11:04:47.999Z</time></trkpt><trkpt lat="53.928316637417744" lon="30.469159148807893"><ele>153.0</ele><time>2026-05-03T11:04:48.999Z</time></trkpt><trkpt lat="53.92798097268094" lon="30.46917854671459"><ele>153.0</ele><time>2026-05-03T11:04:49.999Z</time></trkpt><trkpt lat="53.92763430894742" lon="30.46919754643512"><ele>153.0</ele><time>2026-05-03T11:04:50.999Z</time></trkpt><trkpt lat="53.92729707422132" lon="30.46921064851917"><ele>153.0</ele><time>2026-05-03T11:04:51.999Z</time></trkpt><trkpt lat="53.92696289992191" lon="30.469226689473686"><ele>153.0</ele><time>2026-05-03T11:04:52.999Z</time></trkpt><trkpt lat="53.9266242715607" lon="30.469246933557056"><ele>152.5</ele><time>2026-05-03T11:04:53.999Z</time></trkpt><trkpt lat="53.926291522316845" lon="30.46925901144589"><ele>152.0</ele><time>2026-05-03T11:04:54.999Z</time></trkpt><trkpt lat="53.92595956885464" lon="30.469277584555137"><ele>151.5</ele><time>2026-05-03T11:04:55.999Z</time></trkpt><trkpt lat="53.925613549912164" lon="30.46930091187111"><ele>151.0</ele><time>2026-05-03T11:04:56.999Z</time></trkpt><trkpt lat="53.92527862124042" lon="30.469318598319585"><ele>150.5</ele><time>2026-05-03T11:04:57.998Z</time></trkpt><trkpt lat="53.92493925713383" lon="30.4693407138141"><ele>150.0</ele><time>2026-05-03T11:04:58.998Z</time></trkpt><trkpt lat="53.924599052700145" lon="30.469357715607547"><ele>150.0</ele><time>2026-05-03T11:04:59.998Z</time></trkpt><trkpt lat="53.92425915927021" lon="30.469377617208384"><ele>150.0</ele><time>2026-05-03T11:05:00.998Z</time></trkpt><trkpt lat="53.923921986717374" lon="30.469395223521374"><ele>150.0</ele><time>2026-05-03T11:05:01.998Z</time></trkpt><trkpt lat="53.92358173110022" lon="30.469413971202545"><ele>150.0</ele><time>2026-05-03T11:05:02.998Z</time></trkpt><trkpt lat="53.92323240710187" lon="30.469435147059695"><ele>150.5</ele><time>2026-05-03T11:05:03.998Z</time></trkpt><trkpt lat="53.922880240298745" lon="30.46945636564687"><ele>151.0</ele><time>2026-05-03T11:05:04.998Z</time></trkpt><trkpt lat="53.92254281356469" lon="30.469469813587807"><ele>151.5</ele><time>2026-05-03T11:05:05.998Z</time></trkpt><trkpt lat="53.92219323374406" lon="30.46949302872958"><ele>152.0</ele><time>2026-05-03T11:05:06.998Z</time></trkpt><trkpt lat="53.921838999284454" lon="30.469515819872683"><ele>151.5</ele><time>2026-05-03T11:05:07.998Z</time></trkpt><trkpt lat="53.92149631553004" lon="30.469535394971192"><ele>151.0</ele><time>2026-05-03T11:05:08.998Z</time></trkpt><trkpt lat="53.921151320371436" lon="30.469552015204258"><ele>151.5</ele><time>2026-05-03T11:05:09.998Z</time></trkpt><trkpt lat="53.92080598939806" lon="30.469563787290788"><ele>152.0</ele><time>2026-05-03T11:05:10.998Z</time></trkpt><trkpt lat="53.9204538042202" lon="30.46958519671714"><ele>152.0</ele><time>2026-05-03T11:05:11.998Z</time></trkpt><trkpt lat="53.920104708928086" lon="30.469607766847737"><ele>152.0</ele><time>2026-05-03T11:05:12.998Z</time></trkpt><trkpt lat="53.91975070705145" lon="30.46963457026985"><ele>151.5</ele><time>2026-05-03T11:05:13.998Z</time></trkpt><trkpt lat="53.91940519409995" lon="30.469650425234292"><ele>151.0</ele><time>2026-05-03T11:05:14.998Z</time></trkpt><trkpt lat="53.91905958752247" lon="30.46966574070677"><ele>151.0</ele><time>2026-05-03T11:05:15.998Z</time></trkpt><trkpt lat="53.91870733815877" lon="30.46968485956663"><ele>151.0</ele><time>2026-05-03T11:05:16.998Z</time></trkpt><trkpt lat="53.91835936438637" lon="30.469704295033278"><ele>150.0</ele><time>2026-05-03T11:05:17.998Z</time></trkpt><trkpt lat="53.918007124969385" lon="30.469652227432846"><ele>149.0</ele><time>2026-05-03T11:05:18.998Z</time></trkpt><trkpt lat="53.91765389166503" lon="30.469667524891623"><ele>150.5</ele><time>2026-05-03T11:05:19.998Z</time></trkpt><trkpt lat="53.91731211379446" lon="30.46968300716402"><ele>152.0</ele><time>2026-05-03T11:05:20.998Z</time></trkpt><trkpt lat="53.91696580443408" lon="30.469698543609997"><ele>151.0</ele><time>2026-05-03T11:05:21.998Z</time></trkpt><trkpt lat="53.916610608544744" lon="30.469716815030278"><ele>150.0</ele><time>2026-05-03T11:05:22.998Z</time></trkpt><trkpt lat="53.916254028561106" lon="30.46973558119671"><ele>150.0</ele><time>2026-05-03T11:05:23.998Z</time></trkpt><trkpt lat="53.91589219022691" lon="30.469755512774444"><ele>150.0</ele><time>2026-05-03T11:05:24.998Z</time></trkpt><trkpt lat="53.91553221623757" lon="30.46977408942344"><ele>150.0</ele><time>2026-05-03T11:05:25.998Z</time></trkpt><trkpt lat="53.915168920506204" lon="30.469793340724845"><ele>150.0</ele><time>2026-05-03T11:05:26.998Z</time></trkpt><trkpt lat="53.91480254763759" lon="30.469813686973605"><ele>149.5</ele><time>2026-05-03T11:05:27.998Z</time></trkpt><trkpt lat="53.914438527626714" lon="30.469833345183837"><ele>149.0</ele><time>2026-05-03T11:05:28.998Z</time></trkpt><trkpt lat="53.91408083165889" lon="30.469854058549043"><ele>149.0</ele><time>2026-05-03T11:05:29.998Z</time></trkpt><trkpt lat="53.913759543536074" lon="30.46987216436573"><ele>149.0</ele><time>2026-05-03T11:05:30.998Z</time></trkpt><trkpt lat="53.91343470206534" lon="30.469890886042286"><ele>149.5</ele><time>2026-05-03T11:05:31.998Z</time></trkpt><trkpt lat="53.91310491965824" lon="30.46990947672602"><ele>150.0</ele><time>2026-05-03T11:05:32.998Z</time></trkpt><trkpt lat="53.912771709383556" lon="30.46992874986781"><ele>150.0</ele><time>2026-05-03T11:05:33.998Z</time></trkpt><trkpt lat="53.91244928298131" lon="30.469948061259906"><ele>150.0</ele><time>2026-05-03T11:05:34.998Z</time></trkpt><trkpt lat="53.91213340762076" lon="30.46996578020372"><ele>150.0</ele><time>2026-05-03T11:05:35.998Z</time></trkpt><trkpt lat="53.91182989414909" lon="30.469983104471275"><ele>150.0</ele><time>2026-05-03T11:05:36.998Z</time></trkpt><trkpt lat="53.9115510421612" lon="30.46999977435209"><ele>150.5</ele><time>2026-05-03T11:05:37.998Z</time></trkpt><trkpt lat="53.91128048229914" lon="30.47001486029116"><ele>151.0</ele><time>2026-05-03T11:05:38.998Z</time></trkpt><trkpt lat="53.91101445660595" lon="30.470030291149193"><ele>150.0</ele><time>2026-05-03T11:05:39.998Z</time></trkpt><trkpt lat="53.910762333169394" lon="30.470045210254906"><ele>149.0</ele><time>2026-05-03T11:05:40.998Z</time></trkpt><trkpt lat="53.91052397067198" lon="30.47005857669696"><ele>149.0</ele><time>2026-05-03T11:05:41.998Z</time></trkpt><trkpt lat="53.91027822220185" lon="30.470072357312674"><ele>149.0</ele><time>2026-05-03T11:05:43Z</time></trkpt><trkpt lat="53.91001556602637" lon="30.47008915542365"><ele>149.5</ele><time>2026-05-03T11:05:44Z</time></trkpt><trkpt lat="53.909747737520554" lon="30.47011205115255"><ele>150.0</ele><time>2026-05-03T11:05:45Z</time></trkpt><trkpt lat="53.90947489618905" lon="30.470125146917916"><ele>152.0</ele><time>2026-05-03T11:05:46Z</time></trkpt><trkpt lat="53.90919600071923" lon="30.470138674166897"><ele>154.0</ele><time>2026-05-03T11:05:47Z</time></trkpt><trkpt lat="53.90890927522156" lon="30.470152516084685"><ele>154.0</ele><time>2026-05-03T11:05:48Z</time></trkpt><trkpt lat="53.908611961035845" lon="30.47016728402074"><ele>154.0</ele><time>2026-05-03T11:05:49Z</time></trkpt><trkpt lat="53.90831229381492" lon="30.47018165946828"><ele>155.0</ele><time>2026-05-03T11:05:50Z</time></trkpt><trkpt lat="53.908003556419125" lon="30.47019636534407"><ele>156.0</ele><time>2026-05-03T11:05:51Z</time></trkpt><trkpt lat="53.907694022144796" lon="30.47021152747629"><ele>156.5</ele><time>2026-05-03T11:05:52Z</time></trkpt><trkpt lat="53.907377750369996" lon="30.470226428429743"><ele>157.0</ele><time>2026-05-03T11:05:53Z</time></trkpt><trkpt lat="53.90706118004765" lon="30.470241590593474"><ele>157.0</ele><time>2026-05-03T11:05:54Z</time></trkpt><trkpt lat="53.90675078915431" lon="30.47025663297772"><ele>157.0</ele><time>2026-05-03T11:05:55Z</time></trkpt><trkpt lat="53.90644128651051" lon="30.470271495152268"><ele>157.0</ele><time>2026-05-03T11:05:56Z</time></trkpt><trkpt lat="53.906130237239665" lon="30.47028695668604"><ele>157.0</ele><time>2026-05-03T11:05:57Z</time></trkpt><trkpt lat="53.905820864828875" lon="30.47030198630892"><ele>157.5</ele><time>2026-05-03T11:05:58Z</time></trkpt><trkpt lat="53.905516232299966" lon="30.470316634897227"><ele>158.0</ele><time>2026-05-03T11:05:59Z</time></trkpt><trkpt lat="53.90520596290814" lon="30.470331963104876"><ele>156.0</ele><time>2026-05-03T11:06:00Z</time></trkpt><trkpt lat="53.90489879213932" lon="30.470442140923826"><ele>154.0</ele><time>2026-05-03T11:06:01Z</time></trkpt><trkpt lat="53.904593640172834" lon="30.470460765260476"><ele>154.0</ele><time>2026-05-03T11:06:02Z</time></trkpt><trkpt lat="53.90428937362192" lon="30.470475815179952"><ele>154.0</ele><time>2026-05-03T11:06:03Z</time></trkpt><trkpt lat="53.90397625946454" lon="30.470484588801718"><ele>153.5</ele><time>2026-05-03T11:06:04Z</time></trkpt><trkpt lat="53.903669913271145" lon="30.470488765624168"><ele>153.0</ele><time>2026-05-03T11:06:05Z</time></trkpt><trkpt lat="53.90335929599789" lon="30.470495923175942"><ele>152.5</ele><time>2026-05-03T11:06:05.999Z</time></trkpt><trkpt lat="53.90304422827328" lon="30.470509204481154"><ele>152.0</ele><time>2026-05-03T11:06:06.999Z</time></trkpt><trkpt lat="53.9027278273314" lon="30.470518337094376"><ele>153.5</ele><time>2026-05-03T11:06:07.999Z</time></trkpt><trkpt lat="53.90242333678003" lon="30.470522967392288"><ele>155.0</ele><time>2026-05-03T11:06:08.999Z</time></trkpt><trkpt lat="53.90210939168502" lon="30.470537967322038"><ele>155.0</ele><time>2026-05-03T11:06:09.999Z</time></trkpt><trkpt lat="53.90179417274202" lon="30.470552426494223"><ele>155.0</ele><time>2026-05-03T11:06:10.999Z</time></trkpt><trkpt lat="53.90147617075947" lon="30.47056889689179"><ele>155.0</ele><time>2026-05-03T11:06:11.999Z</time></trkpt><trkpt lat="53.901163133376414" lon="30.47057347257718"><ele>155.0</ele><time>2026-05-03T11:06:12.999Z</time></trkpt><trkpt lat="53.90085220499128" lon="30.470591890273003"><ele>155.0</ele><time>2026-05-03T11:06:13.999Z</time></trkpt><trkpt lat="53.9005371837922" lon="30.47061198538582"><ele>155.0</ele><time>2026-05-03T11:06:14.999Z</time></trkpt><trkpt lat="53.900213508351996" lon="30.47062643792282"><ele>154.0</ele><time>2026-05-03T11:06:15.999Z</time></trkpt><trkpt lat="53.89989462886869" lon="30.470646887591787"><ele>153.0</ele><time>2026-05-03T11:06:16.999Z</time></trkpt><trkpt lat="53.89958782308221" lon="30.470674113442467"><ele>153.0</ele><time>2026-05-03T11:06:17.999Z</time></trkpt><trkpt lat="53.899327926006265" lon="30.470693448552225"><ele>153.0</ele><time>2026-05-03T11:06:18.999Z</time></trkpt><trkpt lat="53.899106188988995" lon="30.47070208972502"><ele>153.0</ele><time>2026-05-03T11:06:19.999Z</time></trkpt><trkpt lat="53.898895311053955" lon="30.470702091038756"><ele>153.0</ele><time>2026-05-03T11:06:20.999Z</time></trkpt><trkpt lat="53.898677420180064" lon="30.470630877007157"><ele>153.0</ele><time>2026-05-03T11:06:21.999Z</time></trkpt><trkpt lat="53.8984468776501" lon="30.470528293670366"><ele>155.5</ele><time>2026-05-03T11:06:22.999Z</time></trkpt><trkpt lat="53.89821578110937" lon="30.47033791997346"><ele>158.0</ele><time>2026-05-03T11:06:23.999Z</time></trkpt><trkpt lat="53.89798567769783" lon="30.47014174475728"><ele>158.0</ele><time>2026-05-03T11:06:24.999Z</time></trkpt><trkpt lat="53.89776079913776" lon="30.469914380674627"><ele>158.0</ele><time>2026-05-03T11:06:25.999Z</time></trkpt><trkpt lat="53.897545273792105" lon="30.46967144737313"><ele>158.0</ele><time>2026-05-03T11:06:26.999Z</time></trkpt><trkpt lat="53.897351131974034" lon="30.46944483293188"><ele>158.0</ele><time>2026-05-03T11:06:27.999Z</time></trkpt><trkpt lat="53.897183454750454" lon="30.46923426573846"><ele>158.0</ele><time>2026-05-03T11:06:28.999Z</time></trkpt><trkpt lat="53.897027714947896" lon="30.46903748369295"><ele>158.0</ele><time>2026-05-03T11:06:29.999Z</time></trkpt><trkpt lat="53.896847242513495" lon="30.46882720801509"><ele>158.0</ele><time>2026-05-03T11:06:30.999Z</time></trkpt><trkpt lat="53.89666931617076" lon="30.468573790809934"><ele>156.0</ele><time>2026-05-03T11:06:31.999Z</time></trkpt><trkpt lat="53.896507463109224" lon="30.4682919460249"><ele>154.0</ele><time>2026-05-03T11:06:32.999Z</time></trkpt><trkpt lat="53.89637987439246" lon="30.467975890714737"><ele>154.0</ele><time>2026-05-03T11:06:33.999Z</time></trkpt><trkpt lat="53.896276308955485" lon="30.46763481396277"><ele>154.0</ele><time>2026-05-03T11:06:34.999Z</time></trkpt><trkpt lat="53.89619464777715" lon="30.467326386722004"><ele>154.0</ele><time>2026-05-03T11:06:35.999Z</time></trkpt><trkpt lat="53.89613003320101" lon="30.46707819786021"><ele>153.75</ele><time>2026-05-03T11:06:36.999Z</time></trkpt><trkpt lat="53.89607212176961" lon="30.46685460412162"><ele>153.5</ele><time>2026-05-03T11:06:37.999Z</time></trkpt><trkpt lat="53.89601447277416" lon="30.466653025844142"><ele>153.25</ele><time>2026-05-03T11:06:38.999Z</time></trkpt><trkpt lat="53.895956800874835" lon="30.46644200839157"><ele>153.0</ele><time>2026-05-03T11:06:39.999Z</time></trkpt><trkpt lat="53.89589739196078" lon="30.466214209209905"><ele>152.75</ele><time>2026-05-03T11:06:40.999Z</time></trkpt><trkpt lat="53.89584103767048" lon="30.46599451674054"><ele>152.5</ele><time>2026-05-03T11:06:41.999Z</time></trkpt><trkpt lat="53.89577988845149" lon="30.465789052083213"><ele>152.25</ele><time>2026-05-03T11:06:42.999Z</time></trkpt><trkpt lat="53.89571826366353" lon="30.46558688634355"><ele>152.0</ele><time>2026-05-03T11:06:43.999Z</time></trkpt><trkpt lat="53.895657352774485" lon="30.465369503852337"><ele>153.0</ele><time>2026-05-03T11:06:44.999Z</time></trkpt><trkpt lat="53.89559106405995" lon="30.465142582983056"><ele>154.0</ele><time>2026-05-03T11:06:45.999Z</time></trkpt><trkpt lat="53.89552344894895" lon="30.46490432429762"><ele>155.0</ele><time>2026-05-03T11:06:46.999Z</time></trkpt><trkpt lat="53.89545921084186" lon="30.464691836077122"><ele>156.0</ele><time>2026-05-03T11:06:47.999Z</time></trkpt><trkpt lat="53.89538959782457" lon="30.464463047290593"><ele>157.33333333333334</ele><time>2026-05-03T11:06:48.999Z</time></trkpt><trkpt lat="53.89531436375358" lon="30.464222372441373"><ele>158.66666666666669</ele><time>2026-05-03T11:06:49.999Z</time></trkpt><trkpt lat="53.89524493033405" lon="30.463965075236377"><ele>160.0</ele><time>2026-05-03T11:06:50.999Z</time></trkpt><trkpt lat="53.895172053222076" lon="30.463707713147485"><ele>160.66666666666669</ele><time>2026-05-03T11:06:51.999Z</time></trkpt><trkpt lat="53.89509434852284" lon="30.463448068713074"><ele>161.33333333333334</ele><time>2026-05-03T11:06:52.999Z</time></trkpt><trkpt lat="53.89501472090929" lon="30.463179903126306"><ele>162.0</ele><time>2026-05-03T11:06:53.999Z</time></trkpt><trkpt lat="53.89493461454626" lon="30.462913426753126"><ele>160.66666666666666</ele><time>2026-05-03T11:06:54.999Z</time></trkpt><trkpt lat="53.89485428843678" lon="30.46264571186772"><ele>159.33333333333331</ele><time>2026-05-03T11:06:55.999Z</time></trkpt><trkpt lat="53.89478085228559" lon="30.462382845539228"><ele>158.0</ele><time>2026-05-03T11:06:56.999Z</time></trkpt><trkpt lat="53.89471209443696" lon="30.46213561359249"><ele>158.66666666666666</ele><time>2026-05-03T11:06:57.999Z</time></trkpt><trkpt lat="53.894642137115525" lon="30.461891222715984"><ele>159.33333333333334</ele><time>2026-05-03T11:06:58.999Z</time></trkpt><trkpt lat="53.89457484092095" lon="30.461664879138358"><ele>160.0</ele><time>2026-05-03T11:06:59.999Z</time></trkpt><trkpt lat="53.894508795483844" lon="30.461440608630628"><ele>160.33333333333334</ele><time>2026-05-03T11:07:00.999Z</time></trkpt><trkpt lat="53.894441831694216" lon="30.46120150570063"><ele>160.66666666666666</ele><time>2026-05-03T11:07:01.999Z</time></trkpt><trkpt lat="53.89437714332547" lon="30.460969813439636"><ele>161.0</ele><time>2026-05-03T11:07:02.999Z</time></trkpt><trkpt lat="53.89430993184152" lon="30.460738033520684"><ele>160.0</ele><time>2026-05-03T11:07:03.999Z</time></trkpt><trkpt lat="53.89424553303024" lon="30.460503235999077"><ele>159.0</ele><time>2026-05-03T11:07:04.999Z</time></trkpt><trkpt lat="53.89418232246615" lon="30.46027801899134"><ele>158.0</ele><time>2026-05-03T11:07:05.999Z</time></trkpt><trkpt lat="53.89411113265607" lon="30.46003885099268"><ele>157.33333333333331</ele><time>2026-05-03T11:07:06.999Z</time></trkpt><trkpt lat="53.894043074058935" lon="30.459807161699"><ele>156.66666666666666</ele><time>2026-05-03T11:07:07.999Z</time></trkpt><trkpt lat="53.89397599733922" lon="30.459578652454425"><ele>156.0</ele><time>2026-05-03T11:07:08.999Z</time></trkpt><trkpt lat="53.89390757573016" lon="30.45933790081547"><ele>155.33333333333334</ele><time>2026-05-03T11:07:09.999Z</time></trkpt><trkpt lat="53.89384077652813" lon="30.459099813888027"><ele>154.66666666666669</ele><time>2026-05-03T11:07:10.999Z</time></trkpt><trkpt lat="53.89377214534294" lon="30.45885749515045"><ele>154.0</ele><time>2026-05-03T11:07:11.999Z</time></trkpt><trkpt lat="53.893697273628234" lon="30.45860832072554"><ele>153.66666666666669</ele><time>2026-05-03T11:07:12.998Z</time></trkpt><trkpt lat="53.89361463405912" lon="30.458332393275633"><ele>153.33333333333334</ele><time>2026-05-03T11:07:13.998Z</time></trkpt><trkpt lat="53.8935234478306" lon="30.458029672361295"><ele>153.0</ele><time>2026-05-03T11:07:14.998Z</time></trkpt><trkpt lat="53.893433097653286" lon="30.457714066931093"><ele>155.0</ele><time>2026-05-03T11:07:15.998Z</time></trkpt><trkpt lat="53.89333776320979" lon="30.457372858525773"><ele>157.0</ele><time>2026-05-03T11:07:16.998Z</time></trkpt><trkpt lat="53.893233315662165" lon="30.45699864926001"><ele>157.5</ele><time>2026-05-03T11:07:17.998Z</time></trkpt><trkpt lat="53.89311330454461" lon="30.456586310754844"><ele>158.0</ele><time>2026-05-03T11:07:18.998Z</time></trkpt><trkpt lat="53.89299611729338" lon="30.456185098579358"><ele>158.0</ele><time>2026-05-03T11:07:19.998Z</time></trkpt><trkpt lat="53.89288352738109" lon="30.455791462326147"><ele>158.0</ele><time>2026-05-03T11:07:20.998Z</time></trkpt><trkpt lat="53.892763535669246" lon="30.45537331965892"><ele>158.5</ele><time>2026-05-03T11:07:21.998Z</time></trkpt><trkpt lat="53.89263905478856" lon="30.45494991727869"><ele>159.0</ele><time>2026-05-03T11:07:22.998Z</time></trkpt><trkpt lat="53.89251334001419" lon="30.45452112338625"><ele>160.5</ele><time>2026-05-03T11:07:23.998Z</time></trkpt><trkpt lat="53.892388951210734" lon="30.454085257940775"><ele>162.0</ele><time>2026-05-03T11:07:24.998Z</time></trkpt><trkpt lat="53.89226049200765" lon="30.453638810191897"><ele>162.0</ele><time>2026-05-03T11:07:25.998Z</time></trkpt><trkpt lat="53.89215713025265" lon="30.45317024492983"><ele>162.0</ele><time>2026-05-03T11:07:26.998Z</time></trkpt><trkpt lat="53.892026296873276" lon="30.45271514173071"><ele>162.0</ele><time>2026-05-03T11:07:27.998Z</time></trkpt><trkpt lat="53.891902577135056" lon="30.452284217420047"><ele>162.0</ele><time>2026-05-03T11:07:28.998Z</time></trkpt><trkpt lat="53.89177072087274" lon="30.451822860620194"><ele>165.5</ele><time>2026-05-03T11:07:29.998Z</time></trkpt><trkpt lat="53.891633067827584" lon="30.451344375805753"><ele>169.0</ele><time>2026-05-03T11:07:30.998Z</time></trkpt><trkpt lat="53.89149222299456" lon="30.45085361681065"><ele>168.0</ele><time>2026-05-03T11:07:31.998Z</time></trkpt><trkpt lat="53.89135325613349" lon="30.450366071020667"><ele>167.0</ele><time>2026-05-03T11:07:32.998Z</time></trkpt><trkpt lat="53.89121471921333" lon="30.449881073019483"><ele>167.5</ele><time>2026-05-03T11:07:33.998Z</time></trkpt><trkpt lat="53.89107496943021" lon="30.44939092391788"><ele>168.0</ele><time>2026-05-03T11:07:34.998Z</time></trkpt><trkpt lat="53.89093532822318" lon="30.448900120874967"><ele>169.0</ele><time>2026-05-03T11:07:35.998Z</time></trkpt><trkpt lat="53.89079599318575" lon="30.448411363140025"><ele>170.0</ele><time>2026-05-03T11:07:36.998Z</time></trkpt><trkpt lat="53.89065678226835" lon="30.44792316341007"><ele>167.5</ele><time>2026-05-03T11:07:37.998Z</time></trkpt><trkpt lat="53.89051608885436" lon="30.44743002134115"><ele>165.0</ele><time>2026-05-03T11:07:38.998Z</time></trkpt><trkpt lat="53.890377588878046" lon="30.44694265199389"><ele>164.5</ele><time>2026-05-03T11:07:39.998Z</time></trkpt><trkpt lat="53.89023596906764" lon="30.446445491642287"><ele>164.0</ele><time>2026-05-03T11:07:40.998Z</time></trkpt><trkpt lat="53.89009631608132" lon="30.445955716311108"><ele>166.5</ele><time>2026-05-03T11:07:41.998Z</time></trkpt><trkpt lat="53.88995685733702" lon="30.445467511603393"><ele>169.0</ele><time>2026-05-03T11:07:42.998Z</time></trkpt><trkpt lat="53.889816241840045" lon="30.444974308256445"><ele>170.5</ele><time>2026-05-03T11:07:43.998Z</time></trkpt><trkpt lat="53.88968534068432" lon="30.444497920195452"><ele>172.0</ele><time>2026-05-03T11:07:44.998Z</time></trkpt><trkpt lat="53.889573706366996" lon="30.44405427758141"><ele>172.0</ele><time>2026-05-03T11:07:45.998Z</time></trkpt><trkpt lat="53.889469307126205" lon="30.44360769510701"><ele>172.0</ele><time>2026-05-03T11:07:46.998Z</time></trkpt><trkpt lat="53.88937286756887" lon="30.443148667081356"><ele>171.5</ele><time>2026-05-03T11:07:48Z</time></trkpt><trkpt lat="53.88926394116062" lon="30.442686195574655"><ele>171.0</ele><time>2026-05-03T11:07:49Z</time></trkpt><trkpt lat="53.889184075215155" lon="30.442220867838962"><ele>171.0</ele><time>2026-05-03T11:07:50Z</time></trkpt><trkpt lat="53.88910110043406" lon="30.441756035586888"><ele>171.0</ele><time>2026-05-03T11:07:51Z</time></trkpt><trkpt lat="53.88901762440462" lon="30.441289667904833"><ele>171.5</ele><time>2026-05-03T11:07:52Z</time></trkpt><trkpt lat="53.88893301294246" lon="30.44082617635301"><ele>172.0</ele><time>2026-05-03T11:07:53Z</time></trkpt><trkpt lat="53.888849896189214" lon="30.440349521208777"><ele>173.0</ele><time>2026-05-03T11:07:54Z</time></trkpt><trkpt lat="53.88876719102948" lon="30.439890085635906"><ele>174.0</ele><time>2026-05-03T11:07:55Z</time></trkpt><trkpt lat="53.888685837679226" lon="30.43942262395707"><ele>175.0</ele><time>2026-05-03T11:07:56Z</time></trkpt><trkpt lat="53.88859900278949" lon="30.438944749892393"><ele>176.0</ele><time>2026-05-03T11:07:57Z</time></trkpt><trkpt lat="53.888518623272304" lon="30.4384718032125"><ele>176.5</ele><time>2026-05-03T11:07:58Z</time></trkpt><trkpt lat="53.88844769418506" lon="30.437981750631014"><ele>177.0</ele><time>2026-05-03T11:07:59Z</time></trkpt><trkpt lat="53.88836168895445" lon="30.437484434692657"><ele>175.0</ele><time>2026-05-03T11:08:00Z</time></trkpt><trkpt lat="53.88827751144126" lon="30.43700128957242"><ele>173.0</ele><time>2026-05-03T11:08:01Z</time></trkpt><trkpt lat="53.88817490542336" lon="30.43650867688817"><ele>172.5</ele><time>2026-05-03T11:08:02Z</time></trkpt><trkpt lat="53.88810199247597" lon="30.43598980786562"><ele>172.0</ele><time>2026-05-03T11:08:03Z</time></trkpt><trkpt lat="53.88801518958163" lon="30.43549368652996"><ele>172.0</ele><time>2026-05-03T11:08:04Z</time></trkpt><trkpt lat="53.88792724916068" lon="30.434984082701952"><ele>172.0</ele><time>2026-05-03T11:08:05Z</time></trkpt><trkpt lat="53.8878389557207" lon="30.434472425591146"><ele>173.0</ele><time>2026-05-03T11:08:06Z</time></trkpt><trkpt lat="53.887749313323546" lon="30.433959810590615"><ele>174.0</ele><time>2026-05-03T11:08:07Z</time></trkpt><trkpt lat="53.887635617209405" lon="30.433453916147737"><ele>173.5</ele><time>2026-05-03T11:08:08Z</time></trkpt><trkpt lat="53.88754292271305" lon="30.432942516091302"><ele>173.0</ele><time>2026-05-03T11:08:09Z</time></trkpt><trkpt lat="53.88744937263743" lon="30.432430175959798"><ele>175.5</ele><time>2026-05-03T11:08:10Z</time></trkpt><trkpt lat="53.887355736511566" lon="30.431916137720513"><ele>178.0</ele><time>2026-05-03T11:08:11Z</time></trkpt><trkpt lat="53.8872686413774" lon="30.43141537739143"><ele>179.5</ele><time>2026-05-03T11:08:12Z</time></trkpt><trkpt lat="53.88718753432215" lon="30.430966606499393"><ele>181.0</ele><time>2026-05-03T11:08:13Z</time></trkpt><trkpt lat="53.88711041225933" lon="30.430551496506588"><ele>181.33333333333334</ele><time>2026-05-03T11:08:14Z</time></trkpt><trkpt lat="53.8870447666082" lon="30.430172076685515"><ele>181.66666666666666</ele><time>2026-05-03T11:08:15Z</time></trkpt><trkpt lat="53.88698490483084" lon="30.42984358634727"><ele>182.0</ele><time>2026-05-03T11:08:15.999Z</time></trkpt><trkpt lat="53.886928218425446" lon="30.429548300084356"><ele>182.5</ele><time>2026-05-03T11:08:16.999Z</time></trkpt><trkpt lat="53.88687996613001" lon="30.429288254570654"><ele>183.0</ele><time>2026-05-03T11:08:17.999Z</time></trkpt><trkpt lat="53.88683594590292" lon="30.42904289023078"><ele>183.5</ele><time>2026-05-03T11:08:18.999Z</time></trkpt><trkpt lat="53.886795564730264" lon="30.428831533826962"><ele>184.0</ele><time>2026-05-03T11:08:19.999Z</time></trkpt><trkpt lat="53.88676840364957" lon="30.428685007116478"><ele>184.0</ele><time>2026-05-03T11:08:20.999Z</time></trkpt><trkpt lat="53.88674630948541" lon="30.428545660583385"><ele>184.0</ele><time>2026-05-03T11:08:21.999Z</time></trkpt><trkpt lat="53.88670835572128" lon="30.428352883735826"><ele>184.0</ele><time>2026-05-03T11:08:22.999Z</time></trkpt><trkpt lat="53.88667250391579" lon="30.428144191616237"><ele>184.0</ele><time>2026-05-03T11:08:23.999Z</time></trkpt><trkpt lat="53.88663483141891" lon="30.427934431903342"><ele>184.0</ele><time>2026-05-03T11:08:24.999Z</time></trkpt><trkpt lat="53.886595910027786" lon="30.42772241623881"><ele>184.0</ele><time>2026-05-03T11:08:25.999Z</time></trkpt><trkpt lat="53.88655603051152" lon="30.42750454532463"><ele>184.0</ele><time>2026-05-03T11:08:26.999Z</time></trkpt><trkpt lat="53.88651681653307" lon="30.427293386705895"><ele>184.0</ele><time>2026-05-03T11:08:27.999Z</time></trkpt><trkpt lat="53.88648060666192" lon="30.427092696404724"><ele>184.25</ele><time>2026-05-03T11:08:28.999Z</time></trkpt><trkpt lat="53.886442314239986" lon="30.426881386173445"><ele>184.5</ele><time>2026-05-03T11:08:29.999Z</time></trkpt><trkpt lat="53.88640136566424" lon="30.42666297677638"><ele>184.75</ele><time>2026-05-03T11:08:30.999Z</time></trkpt><trkpt lat="53.886360260731486" lon="30.426424704900594"><ele>185.0</ele><time>2026-05-03T11:08:31.999Z</time></trkpt><trkpt lat="53.88631246708778" lon="30.426177140907715"><ele>185.66666666666666</ele><time>2026-05-03T11:08:32.999Z</time></trkpt><trkpt lat="53.88626211911393" lon="30.42591481731169"><ele>186.33333333333334</ele><time>2026-05-03T11:08:33.999Z</time></trkpt><trkpt lat="53.88621183062338" lon="30.425649187657687"><ele>187.0</ele><time>2026-05-03T11:08:34.999Z</time></trkpt><trkpt lat="53.88616303841906" lon="30.42537179151462"><ele>187.33333333333334</ele><time>2026-05-03T11:08:35.999Z</time></trkpt><trkpt lat="53.88611445682812" lon="30.425104961989"><ele>187.66666666666666</ele><time>2026-05-03T11:08:36.999Z</time></trkpt><trkpt lat="53.88606202848832" lon="30.42483728464981"><ele>188.0</ele><time>2026-05-03T11:08:37.999Z</time></trkpt><trkpt lat="53.88600789400014" lon="30.424549931459897"><ele>188.0</ele><time>2026-05-03T11:08:38.999Z</time></trkpt><trkpt lat="53.88595291464701" lon="30.424255962305466"><ele>188.0</ele><time>2026-05-03T11:08:39.999Z</time></trkpt><trkpt lat="53.88589249903116" lon="30.423952728228222"><ele>188.0</ele><time>2026-05-03T11:08:40.999Z</time></trkpt><trkpt lat="53.885832441172234" lon="30.42363355132316"><ele>186.0</ele><time>2026-05-03T11:08:41.999Z</time></trkpt><trkpt lat="53.88578051707192" lon="30.42332047099007"><ele>184.0</ele><time>2026-05-03T11:08:42.999Z</time></trkpt><trkpt lat="53.885719640524364" lon="30.42299235199863"><ele>182.0</ele><time>2026-05-03T11:08:43.999Z</time></trkpt><trkpt lat="53.88566020625793" lon="30.422679642058895"><ele>182.0</ele><time>2026-05-03T11:08:44.999Z</time></trkpt><trkpt lat="53.88560725946902" lon="30.42236972937988"><ele>182.0</ele><time>2026-05-03T11:08:45.999Z</time></trkpt><trkpt lat="53.88554993986142" lon="30.42209018122477"><ele>182.0</ele><time>2026-05-03T11:08:46.999Z</time></trkpt><trkpt lat="53.885496902851216" lon="30.421816602617497"><ele>183.0</ele><time>2026-05-03T11:08:47.999Z</time></trkpt><trkpt lat="53.88544288201379" lon="30.421558475541474"><ele>184.0</ele><time>2026-05-03T11:08:48.999Z</time></trkpt><trkpt lat="53.88539060792043" lon="30.42131293394249"><ele>185.0</ele><time>2026-05-03T11:08:49.999Z</time></trkpt><trkpt lat="53.88534316358921" lon="30.421076954612232"><ele>185.25</ele><time>2026-05-03T11:08:50.999Z</time></trkpt><trkpt lat="53.885295016708135" lon="30.420819763966293"><ele>185.5</ele><time>2026-05-03T11:08:51.999Z</time></trkpt><trkpt lat="53.88524815900478" lon="30.420578751108707"><ele>185.75</ele><time>2026-05-03T11:08:52.999Z</time></trkpt><trkpt lat="53.88520447687191" lon="30.42035231876529"><ele>186.0</ele><time>2026-05-03T11:08:53.999Z</time></trkpt><trkpt lat="53.88516052541149" lon="30.420124453253173"><ele>186.33333333333334</ele><time>2026-05-03T11:08:54.999Z</time></trkpt><trkpt lat="53.88511466058603" lon="30.41987119916201"><ele>186.66666666666669</ele><time>2026-05-03T11:08:55.999Z</time></trkpt><trkpt lat="53.88506179945024" lon="30.41959561970213"><ele>187.0</ele><time>2026-05-03T11:08:56.999Z</time></trkpt><trkpt lat="53.8850104974461" lon="30.419308594786248"><ele>185.0</ele><time>2026-05-03T11:08:57.999Z</time></trkpt><trkpt lat="53.88495834321406" lon="30.419027135101903"><ele>183.0</ele><time>2026-05-03T11:08:58.999Z</time></trkpt><trkpt lat="53.884908855208835" lon="30.41877156663276"><ele>181.0</ele><time>2026-05-03T11:08:59.999Z</time></trkpt><trkpt lat="53.884865106364565" lon="30.418547296249486"><ele>181.0</ele><time>2026-05-03T11:09:00.999Z</time></trkpt><trkpt lat="53.88481723605171" lon="30.418320178233426"><ele>181.0</ele><time>2026-05-03T11:09:01.999Z</time></trkpt><trkpt lat="53.88476824501391" lon="30.418074137804023"><ele>181.0</ele><time>2026-05-03T11:09:02.999Z</time></trkpt><trkpt lat="53.88471402763152" lon="30.417794942042544"><ele>180.66666666666669</ele><time>2026-05-03T11:09:03.999Z</time></trkpt><trkpt lat="53.884643770851234" lon="30.41747366778821"><ele>180.33333333333334</ele><time>2026-05-03T11:09:04.999Z</time></trkpt><trkpt lat="53.88457097082621" lon="30.417119806239633"><ele>180.0</ele><time>2026-05-03T11:09:05.999Z</time></trkpt><trkpt lat="53.88449646806108" lon="30.41672365667226"><ele>179.5</ele><time>2026-05-03T11:09:06.999Z</time></trkpt><trkpt lat="53.884419721245855" lon="30.416301099511134"><ele>179.0</ele><time>2026-05-03T11:09:07.999Z</time></trkpt><trkpt lat="53.88433169790524" lon="30.415859195034663"><ele>178.5</ele><time>2026-05-03T11:09:08.999Z</time></trkpt><trkpt lat="53.884248183979345" lon="30.415455749693304"><ele>178.0</ele><time>2026-05-03T11:09:09.999Z</time></trkpt><trkpt lat="53.88417648623046" lon="30.415095544606267"><ele>178.0</ele><time>2026-05-03T11:09:10.999Z</time></trkpt><trkpt lat="53.88411067438652" lon="30.414734963468092"><ele>178.0</ele><time>2026-05-03T11:09:11.999Z</time></trkpt><trkpt lat="53.88404121073483" lon="30.414371982028925"><ele>178.0</ele><time>2026-05-03T11:09:12.999Z</time></trkpt><trkpt lat="53.883967626805614" lon="30.413989986661164"><ele>178.0</ele><time>2026-05-03T11:09:13.999Z</time></trkpt><trkpt lat="53.883890038349804" lon="30.413590802414532"><ele>178.0</ele><time>2026-05-03T11:09:14.999Z</time></trkpt><trkpt lat="53.883809311861036" lon="30.413173087581928"><ele>178.5</ele><time>2026-05-03T11:09:15.999Z</time></trkpt><trkpt lat="53.88372607457116" lon="30.412748386038473"><ele>179.0</ele><time>2026-05-03T11:09:16.999Z</time></trkpt><trkpt lat="53.883649467088" lon="30.41232947008853"><ele>178.66666666666666</ele><time>2026-05-03T11:09:17.999Z</time></trkpt><trkpt lat="53.88358617738277" lon="30.41194303839064"><ele>178.33333333333334</ele><time>2026-05-03T11:09:18.998Z</time></trkpt><trkpt lat="53.883531967956905" lon="30.411611170234444"><ele>178.0</ele><time>2026-05-03T11:09:19.998Z</time></trkpt><trkpt lat="53.88348000072449" lon="30.411340097689163"><ele>177.66666666666669</ele><time>2026-05-03T11:09:20.998Z</time></trkpt><trkpt lat="53.88343176132347" lon="30.41106671822894"><ele>177.33333333333334</ele><time>2026-05-03T11:09:21.998Z</time></trkpt><trkpt lat="53.88339215550757" lon="30.410784007076035"><ele>177.0</ele><time>2026-05-03T11:09:22.998Z</time></trkpt><trkpt lat="53.88334587073725" lon="30.410522755223543"><ele>176.2</ele><time>2026-05-03T11:09:23.998Z</time></trkpt><trkpt lat="53.88330979262551" lon="30.410338262765663"><ele>175.39999999999998</ele><time>2026-05-03T11:09:24.998Z</time></trkpt><trkpt lat="53.88327806271796" lon="30.41017113358194"><ele>174.60000000000002</ele><time>2026-05-03T11:09:25.998Z</time></trkpt><trkpt lat="53.883252189861075" lon="30.4100392311467"><ele>173.8</ele><time>2026-05-03T11:09:26.998Z</time></trkpt><trkpt lat="53.88322864361826" lon="30.40991683998364"><ele>173.0</ele><time>2026-05-03T11:09:27.998Z</time></trkpt><trkpt lat="53.88320072843901" lon="30.40978459471493"><ele>172.8</ele><time>2026-05-03T11:09:28.998Z</time></trkpt><trkpt lat="53.88316493055031" lon="30.409617263923174"><ele>172.60000000000002</ele><time>2026-05-03T11:09:29.998Z</time></trkpt><trkpt lat="53.883129320640286" lon="30.40943773190573"><ele>172.39999999999998</ele><time>2026-05-03T11:09:30.998Z</time></trkpt><trkpt lat="53.88309649576376" lon="30.40925744450595"><ele>172.2</ele><time>2026-05-03T11:09:31.998Z</time></trkpt><trkpt lat="53.883059933178636" lon="30.40907672240167"><ele>172.0</ele><time>2026-05-03T11:09:32.998Z</time></trkpt><trkpt lat="53.88301999591259" lon="30.408895827036197"><ele>171.83333333333334</ele><time>2026-05-03T11:09:33.998Z</time></trkpt><trkpt lat="53.882991541806554" lon="30.408753787390122"><ele>171.66666666666669</ele><time>2026-05-03T11:09:34.998Z</time></trkpt><trkpt lat="53.88297141599687" lon="30.408641789479724"><ele>171.5</ele><time>2026-05-03T11:09:35.998Z</time></trkpt><trkpt lat="53.88293576748195" lon="30.408449740117202"><ele>171.33333333333334</ele><time>2026-05-03T11:09:37.998Z</time></trkpt><trkpt lat="53.8829125764099" lon="30.408314249720608"><ele>171.16666666666666</ele><time>2026-05-03T11:09:39.998Z</time></trkpt><trkpt lat="53.88288842396698" lon="30.408179858932105"><ele>171.0</ele><time>2026-05-03T11:09:41.998Z</time></trkpt><trkpt lat="53.88285829397982" lon="30.407994891271162"><ele>171.0</ele><time>2026-05-03T11:10:07Z</time></trkpt><trkpt lat="53.882837215898654" lon="30.40787385174941"><ele>171.0</ele><time>2026-05-03T11:10:08Z</time></trkpt><trkpt lat="53.88281672581721" lon="30.40776041410001"><ele>171.0</ele><time>2026-05-03T11:10:09Z</time></trkpt><trkpt lat="53.88277873184314" lon="30.407547124517578"><ele>171.0</ele><time>2026-05-03T11:10:11Z</time></trkpt><trkpt lat="53.88275323017494" lon="30.40741372225596"><ele>171.0</ele><time>2026-05-03T11:10:12Z</time></trkpt><trkpt lat="53.88271973762123" lon="30.407243370679044"><ele>170.75</ele><time>2026-05-03T11:10:13Z</time></trkpt><trkpt lat="53.88268732308101" lon="30.407076584387713"><ele>170.5</ele><time>2026-05-03T11:10:14Z</time></trkpt><trkpt lat="53.88265648666098" lon="30.406912504412013"><ele>170.25</ele><time>2026-05-03T11:10:15Z</time></trkpt><trkpt lat="53.882619024825935" lon="30.40672483822175"><ele>170.0</ele><time>2026-05-03T11:10:16Z</time></trkpt><trkpt lat="53.88257294481945" lon="30.406499897714742"><ele>169.33333333333331</ele><time>2026-05-03T11:10:17Z</time></trkpt><trkpt lat="53.88250026896969" lon="30.406218098432728"><ele>168.66666666666666</ele><time>2026-05-03T11:10:18Z</time></trkpt><trkpt lat="53.88244532693399" lon="30.405941208664046"><ele>168.0</ele><time>2026-05-03T11:10:19Z</time></trkpt><trkpt lat="53.88238819078382" lon="30.405641354441556"><ele>168.33333333333334</ele><time>2026-05-03T11:10:20Z</time></trkpt><trkpt lat="53.882321464680196" lon="30.40532096848242"><ele>168.66666666666669</ele><time>2026-05-03T11:10:21Z</time></trkpt><trkpt lat="53.88223493566579" lon="30.404974251065152"><ele>169.0</ele><time>2026-05-03T11:10:22Z</time></trkpt><trkpt lat="53.88214453315637" lon="30.40458642858408"><ele>169.0</ele><time>2026-05-03T11:10:22.999Z</time></trkpt><trkpt lat="53.88207153960281" lon="30.40421293766543"><ele>169.0</ele><time>2026-05-03T11:10:23.999Z</time></trkpt><trkpt lat="53.882010295209454" lon="30.403884160274224"><ele>169.0</ele><time>2026-05-03T11:10:24.999Z</time></trkpt><trkpt lat="53.88195616792459" lon="30.403590149415354"><ele>170.33333333333334</ele><time>2026-05-03T11:10:25.999Z</time></trkpt><trkpt lat="53.88189886946642" lon="30.403314282723574"><ele>171.66666666666666</ele><time>2026-05-03T11:10:26.999Z</time></trkpt><trkpt lat="53.88184785573231" lon="30.403044837387238"><ele>173.0</ele><time>2026-05-03T11:10:27.999Z</time></trkpt><trkpt lat="53.881796409675964" lon="30.402774400257776"><ele>173.0</ele><time>2026-05-03T11:10:28.999Z</time></trkpt><trkpt lat="53.881740364669646" lon="30.40247764617017"><ele>173.0</ele><time>2026-05-03T11:10:29.999Z</time></trkpt><trkpt lat="53.88168818472127" lon="30.402217053328886"><ele>173.0</ele><time>2026-05-03T11:10:30.999Z</time></trkpt><trkpt lat="53.88164119710915" lon="30.401968009705143"><ele>173.33333333333331</ele><time>2026-05-03T11:10:31.999Z</time></trkpt><trkpt lat="53.88159463677731" lon="30.401728049755363"><ele>173.66666666666666</ele><time>2026-05-03T11:10:32.999Z</time></trkpt><trkpt lat="53.88154659066814" lon="30.40148599940144"><ele>174.0</ele><time>2026-05-03T11:10:33.999Z</time></trkpt><trkpt lat="53.881494730460176" lon="30.40123958433883"><ele>174.33333333333334</ele><time>2026-05-03T11:10:34.999Z</time></trkpt><trkpt lat="53.88144470959775" lon="30.40097653985733"><ele>174.66666666666669</ele><time>2026-05-03T11:10:35.999Z</time></trkpt><trkpt lat="53.88139404950406" lon="30.400712572302357"><ele>175.0</ele><time>2026-05-03T11:10:36.999Z</time></trkpt><trkpt lat="53.88134264757665" lon="30.400447702729018"><ele>175.0</ele><time>2026-05-03T11:10:37.999Z</time></trkpt><trkpt lat="53.881289380653755" lon="30.400173186679663"><ele>175.0</ele><time>2026-05-03T11:10:38.999Z</time></trkpt><trkpt lat="53.881236054339986" lon="30.399903827023664"><ele>175.0</ele><time>2026-05-03T11:10:39.999Z</time></trkpt><trkpt lat="53.881184073620076" lon="30.399638318572897"><ele>175.25</ele><time>2026-05-03T11:10:40.999Z</time></trkpt><trkpt lat="53.8811350122136" lon="30.39939395240064"><ele>175.5</ele><time>2026-05-03T11:10:41.999Z</time></trkpt><trkpt lat="53.88109043566732" lon="30.399164867861455"><ele>175.75</ele><time>2026-05-03T11:10:42.999Z</time></trkpt><trkpt lat="53.88104617376978" lon="30.398933584433053"><ele>176.0</ele><time>2026-05-03T11:10:43.999Z</time></trkpt><trkpt lat="53.880999778572495" lon="30.398692389953812"><ele>176.0</ele><time>2026-05-03T11:10:44.999Z</time></trkpt><trkpt lat="53.88095764262621" lon="30.39846096083771"><ele>176.0</ele><time>2026-05-03T11:10:45.999Z</time></trkpt><trkpt lat="53.880914760478255" lon="30.398244915987974"><ele>176.0</ele><time>2026-05-03T11:10:46.999Z</time></trkpt><trkpt lat="53.88087683273168" lon="30.39804542783761"><ele>176.0</ele><time>2026-05-03T11:10:47.999Z</time></trkpt><trkpt lat="53.8808414249959" lon="30.397852629599306"><ele>175.5</ele><time>2026-05-03T11:10:48.999Z</time></trkpt><trkpt lat="53.88080175283035" lon="30.39764607071354"><ele>175.0</ele><time>2026-05-03T11:10:49.999Z</time></trkpt><trkpt lat="53.88076238184979" lon="30.39743583591122"><ele>174.5</ele><time>2026-05-03T11:10:50.999Z</time></trkpt><trkpt lat="53.880723734689674" lon="30.39723969250835"><ele>174.0</ele><time>2026-05-03T11:10:51.999Z</time></trkpt><trkpt lat="53.88068688777991" lon="30.397032674956403"><ele>174.0</ele><time>2026-05-03T11:10:52.999Z</time></trkpt><trkpt lat="53.880649114655526" lon="30.396830960651855"><ele>174.0</ele><time>2026-05-03T11:10:53.999Z</time></trkpt><trkpt lat="53.88061453513071" lon="30.396625621926315"><ele>174.0</ele><time>2026-05-03T11:10:54.999Z</time></trkpt><trkpt lat="53.880580344360965" lon="30.396439954485004"><ele>174.0</ele><time>2026-05-03T11:10:55.999Z</time></trkpt><trkpt lat="53.88054614582806" lon="30.396263959362923"><ele>173.79999999999998</ele><time>2026-05-03T11:10:56.999Z</time></trkpt><trkpt lat="53.880515286685" lon="30.39609499298366"><ele>173.6</ele><time>2026-05-03T11:10:57.999Z</time></trkpt><trkpt lat="53.880487105370456" lon="30.39592397983202"><ele>173.4</ele><time>2026-05-03T11:10:58.999Z</time></trkpt><trkpt lat="53.88046056026333" lon="30.39578294998647"><ele>173.2</ele><time>2026-05-03T11:10:59.999Z</time></trkpt><trkpt lat="53.8804340004273" lon="30.39563808282119"><ele>173.0</ele><time>2026-05-03T11:11:00.999Z</time></trkpt><trkpt lat="53.88040990022396" lon="30.395504882609266"><ele>172.60000000000002</ele><time>2026-05-03T11:11:01.999Z</time></trkpt><trkpt lat="53.88038553112217" lon="30.39538534037238"><ele>172.20000000000002</ele><time>2026-05-03T11:11:02.999Z</time></trkpt><trkpt lat="53.88035718366468" lon="30.3952312836129"><ele>171.8</ele><time>2026-05-03T11:11:03.999Z</time></trkpt><trkpt lat="53.88032775407968" lon="30.395088676623967"><ele>171.4</ele><time>2026-05-03T11:11:04.999Z</time></trkpt><trkpt lat="53.88029737174873" lon="30.39493967768728"><ele>171.0</ele><time>2026-05-03T11:11:05.999Z</time></trkpt><trkpt lat="53.880267240798226" lon="30.394780861592647"><ele>171.0</ele><time>2026-05-03T11:11:06.999Z</time></trkpt><trkpt lat="53.88024268025918" lon="30.394647038389035"><ele>171.0</ele><time>2026-05-03T11:11:07.999Z</time></trkpt><trkpt lat="53.88019585131607" lon="30.39443193703302"><ele>171.0</ele><time>2026-05-03T11:11:09.999Z</time></trkpt><trkpt lat="53.88016188789177" lon="30.3942759440878"><ele>171.0</ele><time>2026-05-03T11:11:10.999Z</time></trkpt><trkpt lat="53.88012500855792" lon="30.39408989153989"><ele>171.0</ele><time>2026-05-03T11:11:11.999Z</time></trkpt><trkpt lat="53.88008272915738" lon="30.39386852049899"><ele>170.75</ele><time>2026-05-03T11:11:12.999Z</time></trkpt><trkpt lat="53.88004384378369" lon="30.39364899841544"><ele>170.5</ele><time>2026-05-03T11:11:13.999Z</time></trkpt><trkpt lat="53.88001309092994" lon="30.393461813489537"><ele>170.25</ele><time>2026-05-03T11:11:14.999Z</time></trkpt><trkpt lat="53.879981910284634" lon="30.39327674503241"><ele>170.0</ele><time>2026-05-03T11:11:15.999Z</time></trkpt><trkpt lat="53.87995053769948" lon="30.39311544609811"><ele>169.8</ele><time>2026-05-03T11:11:16.999Z</time></trkpt><trkpt lat="53.87991664113884" lon="30.39297261770508"><ele>169.6</ele><time>2026-05-03T11:11:17.999Z</time></trkpt><trkpt lat="53.87989126663105" lon="30.392853977107766"><ele>169.39999999999998</ele><time>2026-05-03T11:11:18.999Z</time></trkpt><trkpt lat="53.87985762358406" lon="30.392641839075313"><ele>169.2</ele><time>2026-05-03T11:11:20.999Z</time></trkpt><trkpt lat="53.8798321569279" lon="30.392499291719325"><ele>169.0</ele><time>2026-05-03T11:11:21.999Z</time></trkpt><trkpt lat="53.87979983270058" lon="30.392350551115513"><ele>169.0</ele><time>2026-05-03T11:11:22.999Z</time></trkpt><trkpt lat="53.87976953388457" lon="30.392196328456848"><ele>169.0</ele><time>2026-05-03T11:11:23.999Z</time></trkpt><trkpt lat="53.879741715987514" lon="30.392052145326605"><ele>169.0</ele><time>2026-05-03T11:11:24.999Z</time></trkpt><trkpt lat="53.87971564213562" lon="30.39192470231102"><ele>169.0</ele><time>2026-05-03T11:11:25.999Z</time></trkpt><trkpt lat="53.87969083734375" lon="30.39179114319938"><ele>169.0</ele><time>2026-05-03T11:11:26.998Z</time></trkpt><trkpt lat="53.879667152380044" lon="30.391654713031347"><ele>169.0</ele><time>2026-05-03T11:11:27.998Z</time></trkpt><trkpt lat="53.87964301764842" lon="30.391546998579496"><ele>169.0</ele><time>2026-05-03T11:11:28.998Z</time></trkpt><trkpt lat="53.879610886743585" lon="30.391348959872534"><ele>169.0</ele><time>2026-05-03T11:11:30.998Z</time></trkpt><trkpt lat="53.8795887750292" lon="30.39124732754078"><ele>169.0</ele><time>2026-05-03T11:11:31.998Z</time></trkpt><trkpt lat="53.87955979068362" lon="30.39110443971591"><ele>169.0</ele><time>2026-05-03T11:11:32.998Z</time></trkpt><trkpt lat="53.87953068758144" lon="30.39095056744301"><ele>169.0</ele><time>2026-05-03T11:11:33.998Z</time></trkpt><trkpt lat="53.87950396379185" lon="30.39081947033586"><ele>169.0</ele><time>2026-05-03T11:11:34.998Z</time></trkpt><trkpt lat="53.87947484661613" lon="30.39069990509653"><ele>169.0</ele><time>2026-05-03T11:11:35.998Z</time></trkpt><trkpt lat="53.87943178342435" lon="30.390577372181713"><ele>169.0</ele><time>2026-05-03T11:11:36.998Z</time></trkpt><trkpt lat="53.87941277572338" lon="30.390423394131286"><ele>169.0</ele><time>2026-05-03T11:11:37.998Z</time></trkpt><trkpt lat="53.8793844445301" lon="30.390279151873894"><ele>169.0</ele><time>2026-05-03T11:11:38.998Z</time></trkpt><trkpt lat="53.879359245788514" lon="30.39015094780809"><ele>169.0</ele><time>2026-05-03T11:11:39.998Z</time></trkpt><trkpt lat="53.87933515554001" lon="30.39002843480589"><ele>169.0</ele><time>2026-05-03T11:11:40.998Z</time></trkpt><trkpt lat="53.87931456534521" lon="30.389923722064623"><ele>169.0</ele><time>2026-05-03T11:11:41.998Z</time></trkpt><trkpt lat="53.87929124406214" lon="30.38980512005808"><ele>169.0</ele><time>2026-05-03T11:11:43.998Z</time></trkpt><trkpt lat="53.87926442419019" lon="30.389668286081378"><ele>169.0</ele><time>2026-05-03T11:12:46.999Z</time></trkpt><trkpt lat="53.87924369886654" lon="30.38956197997527"><ele>169.0</ele><time>2026-05-03T11:12:47.999Z</time></trkpt><trkpt lat="53.87903139880023" lon="30.38954438553132"><ele>170.0</ele><time>2026-05-03T11:12:49.999Z</time></trkpt><trkpt lat="53.87896451238186" lon="30.389584515634542"><ele>171.0</ele><time>2026-05-03T11:12:50.999Z</time></trkpt><trkpt lat="53.87886421776389" lon="30.38965974717415"><ele>172.0</ele><time>2026-05-03T11:12:51.999Z</time></trkpt><trkpt lat="53.87875667696621" lon="30.389730179594522"><ele>173.0</ele><time>2026-05-03T11:12:52.999Z</time></trkpt><trkpt lat="53.878664732829144" lon="30.38979910341127"><ele>174.0</ele><time>2026-05-03T11:12:53.999Z</time></trkpt><trkpt lat="53.87859622858352" lon="30.38977306783775"><ele>174.0</ele><time>2026-05-03T11:12:54.999Z</time></trkpt><trkpt lat="53.87849199367738" lon="30.389795224875535"><ele>174.0</ele><time>2026-05-03T11:12:56.999Z</time></trkpt><trkpt lat="53.878452045096225" lon="30.389684282786266"><ele>174.0</ele><time>2026-05-03T11:12:58.999Z</time></trkpt><trkpt lat="53.87845373341635" lon="30.38957652691294"><ele>174.0</ele><time>2026-05-03T11:13:00.999Z</time></trkpt><trkpt lat="53.87831194978084" lon="30.389651832110054"><ele>174.0</ele><time>2026-05-03T11:13:01.999Z</time></trkpt><trkpt lat="53.878399039982675" lon="30.38968058714712"><ele>174.0</ele><time>2026-05-03T11:13:03.999Z</time></trkpt><trkpt lat="53.878373367106285" lon="30.38928777996094"><ele>174.0</ele><time>2026-05-03T11:13:08.999Z</time></trkpt><trkpt lat="53.87843686619582" lon="30.389269925525564"><ele>174.0</ele><time>2026-05-03T11:13:42.998Z</time></trkpt><trkpt lat="53.87849416192838" lon="30.389203989792655"><ele>174.0</ele><time>2026-05-03T11:13:48.998Z</time></trkpt><trkpt lat="53.87837370832372" lon="30.38931855905953"><ele>174.0</ele><time>2026-05-03T11:14:08.606Z</time></trkpt><trkpt lat="53.878326706326646" lon="30.389392450376185"><ele>174.0</ele><time>2026-05-03T11:14:19.033Z</time></trkpt><trkpt lat="53.87833458610666" lon="30.389258148640963"><ele>174.0</ele><time>2026-05-03T11:14:27.033Z</time></trkpt><trkpt lat="53.878403674801525" lon="30.389174276599572"><ele>174.0</ele><time>2026-05-03T11:14:32.028Z</time></trkpt><trkpt lat="53.87845231674379" lon="30.389255332853285"><ele>174.0</ele><time>2026-05-03T11:14:51.999Z</time></trkpt><trkpt lat="53.878473072665216" lon="30.389148559970742"><ele>174.0</ele><time>2026-05-03T11:17:19Z</time></trkpt><trkpt lat="53.878490855945486" lon="30.389028231556114"><ele>174.0</ele><time>2026-05-03T11:17:24Z</time></trkpt><trkpt lat="53.87853599344612" lon="30.388930655642135"><ele>173.66666666666666</ele><time>2026-05-03T11:17:29Z</time></trkpt><trkpt lat="53.87853832860095" lon="30.388815150676795"><ele>173.33333333333334</ele><time>2026-05-03T11:17:54.999Z</time></trkpt><trkpt lat="53.878584092924044" lon="30.388680536124383"><ele>173.0</ele><time>2026-05-03T11:17:57.999Z</time></trkpt><trkpt lat="53.87861014187388" lon="30.388579449740117"><ele>172.66666666666669</ele><time>2026-05-03T11:18:00.999Z</time></trkpt><trkpt lat="53.878593934781804" lon="30.388440179519247"><ele>172.33333333333334</ele><time>2026-05-03T11:18:04.999Z</time></trkpt><trkpt lat="53.87858724601475" lon="30.388637511814785"><ele>172.0</ele><time>2026-05-03T11:18:53Z</time></trkpt><trkpt lat="53.87852426448902" lon="30.38873148381427"><ele>171.83333333333334</ele><time>2026-05-03T11:19:04Z</time></trkpt><trkpt lat="53.87849077672261" lon="30.388843397283935"><ele>171.66666666666669</ele><time>2026-05-03T11:19:30Z</time></trkpt><trkpt lat="53.87849588060639" lon="30.388988475164396"><ele>171.5</ele><time>2026-05-03T11:19:36Z</time></trkpt><trkpt lat="53.87843327176483" lon="30.38918997943355"><ele>171.33333333333334</ele><time>2026-05-03T11:19:48Z</time></trkpt><trkpt lat="53.87842349552002" lon="30.389303434924443"><ele>171.16666666666666</ele><time>2026-05-03T11:19:51.999Z</time></trkpt><trkpt lat="53.87841829032384" lon="30.38941500558601"><ele>171.0</ele><time>2026-05-03T11:19:56.999Z</time></trkpt><trkpt lat="53.87834690233936" lon="30.389476521846547"><ele>171.0</ele><time>2026-05-03T11:20:39.999Z</time></trkpt><trkpt lat="53.87845538471045" lon="30.389437941363088"><ele>171.0</ele><time>2026-05-03T11:20:47.999Z</time></trkpt><trkpt lat="53.8784412460539" lon="30.38932191544497"><ele>171.0</ele><time>2026-05-03T11:20:53.999Z</time></trkpt><trkpt lat="53.87849173911103" lon="30.389396294438683"><ele>171.0</ele><time>2026-05-03T11:22:49.999Z</time></trkpt><trkpt lat="53.87843969056585" lon="30.3893176732295"><ele>171.0</ele><time>2026-05-03T11:23:04Z</time></trkpt><trkpt lat="53.87842356312284" lon="30.389433046317926"><ele>171.0</ele><time>2026-05-03T11:23:58Z</time></trkpt><trkpt lat="53.87835195173731" lon="30.389472395645665"><ele>171.0</ele><time>2026-05-03T11:24:24Z</time></trkpt><trkpt lat="53.87846154779324" lon="30.38949846205594"><ele>171.0</ele><time>2026-05-03T11:27:36.948Z</time></trkpt><trkpt lat="53.87843536134206" lon="30.389373819670748"><ele>171.0</ele><time>2026-05-03T11:27:41.999Z</time></trkpt><trkpt lat="53.87843209552421" lon="30.389243754233483"><ele>171.0</ele><time>2026-05-03T11:28:08.999Z</time></trkpt><trkpt lat="53.878358805031425" lon="30.389210703916294"><ele>171.0</ele><time>2026-05-03T11:28:11.999Z</time></trkpt><trkpt lat="53.87827572295565" lon="30.389298603133682"><ele>171.0</ele><time>2026-05-03T11:28:13.999Z</time></trkpt><trkpt lat="53.87821092377766" lon="30.389441007490266"><ele>171.0</ele><time>2026-05-03T11:28:15.999Z</time></trkpt><trkpt lat="53.878247818359775" lon="30.3895954250226"><ele>171.0</ele><time>2026-05-03T11:28:17.999Z</time></trkpt><trkpt lat="53.87829028982265" lon="30.3897429004019"><ele>171.0</ele><time>2026-05-03T11:28:19.999Z</time></trkpt><trkpt lat="53.87836407141621" lon="30.38974913873492"><ele>171.0</ele><time>2026-05-03T11:28:20.999Z</time></trkpt><trkpt lat="53.878460737274686" lon="30.389826146731593"><ele>171.0</ele><time>2026-05-03T11:28:22.999Z</time></trkpt><trkpt lat="53.878569168226456" lon="30.38983994264644"><ele>171.5</ele><time>2026-05-03T11:28:24.999Z</time></trkpt><trkpt lat="53.87867029371848" lon="30.3898214153446"><ele>172.0</ele><time>2026-05-03T11:28:26.999Z</time></trkpt><trkpt lat="53.878764183698266" lon="30.38981789150804"><ele>172.5</ele><time>2026-05-03T11:28:28.999Z</time></trkpt><trkpt lat="53.878834682328886" lon="30.38978558889288"><ele>173.0</ele><time>2026-05-03T11:28:30.999Z</time></trkpt><trkpt lat="53.878924443519104" lon="30.389750738195332"><ele>173.5</ele><time>2026-05-03T11:28:35.998Z</time></trkpt><trkpt lat="53.878981544173854" lon="30.389681889392712"><ele>174.0</ele><time>2026-05-03T11:28:37.998Z</time></trkpt><trkpt lat="53.87906102286755" lon="30.389663514908726"><ele>174.0</ele><time>2026-05-03T11:28:40.998Z</time></trkpt><trkpt lat="53.87914460496666" lon="30.38961159647444"><ele>174.0</ele><time>2026-05-03T11:29:33Z</time></trkpt><trkpt lat="53.87921850227325" lon="30.38953535644346"><ele>174.0</ele><time>2026-05-03T11:29:35Z</time></trkpt><trkpt lat="53.87916517153036" lon="30.389144800825324"><ele>174.0</ele><time>2026-05-03T11:29:36Z</time></trkpt><trkpt lat="53.879153085521814" lon="30.38901408874359"><ele>174.0</ele><time>2026-05-03T11:29:37Z</time></trkpt><trkpt lat="53.87913914955784" lon="30.3888826071278"><ele>174.0</ele><time>2026-05-03T11:29:38Z</time></trkpt><trkpt lat="53.87912961163288" lon="30.388771488015323"><ele>174.0</ele><time>2026-05-03T11:29:39Z</time></trkpt><trkpt lat="53.879102933263255" lon="30.388587454009425"><ele>174.0</ele><time>2026-05-03T11:29:41Z</time></trkpt><trkpt lat="53.87908118921998" lon="30.388409186190287"><ele>174.0</ele><time>2026-05-03T11:29:43Z</time></trkpt><trkpt lat="53.87907284408012" lon="30.38820865768737"><ele>173.66666666666666</ele><time>2026-05-03T11:29:44.999Z</time></trkpt><trkpt lat="53.879068993781445" lon="30.388101035429575"><ele>173.33333333333334</ele><time>2026-05-03T11:29:45.999Z</time></trkpt><trkpt lat="53.87908215276881" lon="30.387963501160858"><ele>173.0</ele><time>2026-05-03T11:29:47.999Z</time></trkpt><trkpt lat="53.87908812714743" lon="30.387823063643634"><ele>172.66666666666669</ele><time>2026-05-03T11:29:49.999Z</time></trkpt><trkpt lat="53.87909962755614" lon="30.387670432753676"><ele>172.33333333333334</ele><time>2026-05-03T11:29:51.999Z</time></trkpt><trkpt lat="53.87910751057121" lon="30.387545569465292"><ele>172.0</ele><time>2026-05-03T11:29:52.999Z</time></trkpt><trkpt lat="53.87913433760584" lon="30.387372601724664"><ele>171.33333333333334</ele><time>2026-05-03T11:29:53.999Z</time></trkpt><trkpt lat="53.87915575347813" lon="30.38708398010214"><ele>170.66666666666666</ele><time>2026-05-03T11:29:54.999Z</time></trkpt><trkpt lat="53.879171023815026" lon="30.386836124849374"><ele>170.0</ele><time>2026-05-03T11:29:55.999Z</time></trkpt><trkpt lat="53.879187757084054" lon="30.386602706430683"><ele>169.33333333333331</ele><time>2026-05-03T11:29:56.999Z</time></trkpt><trkpt lat="53.87920794977101" lon="30.386319200170536"><ele>168.66666666666666</ele><time>2026-05-03T11:29:57.999Z</time></trkpt><trkpt lat="53.879230262523784" lon="30.386007008053106"><ele>168.0</ele><time>2026-05-03T11:29:58.999Z</time></trkpt><trkpt lat="53.8792506782094" lon="30.385676975037626"><ele>167.66666666666666</ele><time>2026-05-03T11:29:59.999Z</time></trkpt><trkpt lat="53.879248487721505" lon="30.385323221946347"><ele>167.33333333333331</ele><time>2026-05-03T11:30:00.999Z</time></trkpt><trkpt lat="53.87927143256492" lon="30.384953375926866"><ele>167.0</ele><time>2026-05-03T11:30:01.999Z</time></trkpt><trkpt lat="53.87930994904794" lon="30.3845703564588"><ele>165.0</ele><time>2026-05-03T11:30:02.999Z</time></trkpt><trkpt lat="53.87934918542006" lon="30.384227574264525"><ele>163.0</ele><time>2026-05-03T11:30:03.999Z</time></trkpt><trkpt lat="53.879397323337834" lon="30.3839388190453"><ele>161.0</ele><time>2026-05-03T11:30:04.999Z</time></trkpt><trkpt lat="53.87948240484456" lon="30.38371111564658"><ele>160.0</ele><time>2026-05-03T11:30:05.999Z</time></trkpt><trkpt lat="53.87957383591923" lon="30.383518017655113"><ele>159.0</ele><time>2026-05-03T11:30:06.999Z</time></trkpt><trkpt lat="53.87967838436742" lon="30.383333656592708"><ele>158.0</ele><time>2026-05-03T11:30:07.999Z</time></trkpt><trkpt lat="53.87979678865943" lon="30.38315267072999"><ele>158.0</ele><time>2026-05-03T11:30:08.999Z</time></trkpt><trkpt lat="53.87994717399158" lon="30.383031497251253"><ele>158.0</ele><time>2026-05-03T11:30:09.999Z</time></trkpt><trkpt lat="53.88012019897919" lon="30.38291852089873"><ele>158.0</ele><time>2026-05-03T11:30:10.999Z</time></trkpt><trkpt lat="53.88029506330049" lon="30.382798843014346"><ele>157.33333333333331</ele><time>2026-05-03T11:30:11.999Z</time></trkpt><trkpt lat="53.88047570102288" lon="30.382663507815778"><ele>156.66666666666666</ele><time>2026-05-03T11:30:12.999Z</time></trkpt><trkpt lat="53.880665027260505" lon="30.382522361328743"><ele>156.0</ele><time>2026-05-03T11:30:13.999Z</time></trkpt><trkpt lat="53.88087331105309" lon="30.382347880293576"><ele>153.5</ele><time>2026-05-03T11:30:14.999Z</time></trkpt><trkpt lat="53.88110757351402" lon="30.382147907260816"><ele>151.0</ele><time>2026-05-03T11:30:15.999Z</time></trkpt><trkpt lat="53.881349653261964" lon="30.381978273247448"><ele>151.0</ele><time>2026-05-03T11:30:16.999Z</time></trkpt><trkpt lat="53.88156177638684" lon="30.381832058421566"><ele>151.0</ele><time>2026-05-03T11:30:17.999Z</time></trkpt><trkpt lat="53.88175320271175" lon="30.381711939694107"><ele>151.0</ele><time>2026-05-03T11:30:18.999Z</time></trkpt><trkpt lat="53.88195051238859" lon="30.38157960894582"><ele>150.33333333333334</ele><time>2026-05-03T11:30:19.999Z</time></trkpt><trkpt lat="53.882154130807976" lon="30.381443089320477"><ele>149.66666666666666</ele><time>2026-05-03T11:30:20.999Z</time></trkpt><trkpt lat="53.88236068981686" lon="30.38130782276137"><ele>149.0</ele><time>2026-05-03T11:30:21.999Z</time></trkpt><trkpt lat="53.882556651123195" lon="30.38117431453292"><ele>149.33333333333331</ele><time>2026-05-03T11:30:22.999Z</time></trkpt><trkpt lat="53.8827602287471" lon="30.38103547610475"><ele>149.66666666666666</ele><time>2026-05-03T11:30:23.999Z</time></trkpt><trkpt lat="53.882962763259904" lon="30.380894944431493"><ele>150.0</ele><time>2026-05-03T11:30:24.999Z</time></trkpt><trkpt lat="53.88316392706115" lon="30.38074894973109"><ele>150.0</ele><time>2026-05-03T11:30:25.999Z</time></trkpt><trkpt lat="53.883365575157164" lon="30.38063892019509"><ele>150.0</ele><time>2026-05-03T11:30:26.999Z</time></trkpt><trkpt lat="53.883576504148536" lon="30.380512353503587"><ele>150.0</ele><time>2026-05-03T11:30:27.999Z</time></trkpt><trkpt lat="53.88379212263758" lon="30.38033673739696"><ele>150.5</ele><time>2026-05-03T11:30:28.999Z</time></trkpt><trkpt lat="53.884027717863155" lon="30.380201949447045"><ele>151.0</ele><time>2026-05-03T11:30:29.999Z</time></trkpt><trkpt lat="53.884265815368714" lon="30.38004922160818"><ele>150.0</ele><time>2026-05-03T11:30:30.999Z</time></trkpt><trkpt lat="53.884498148707934" lon="30.379887072259866"><ele>149.0</ele><time>2026-05-03T11:30:31.999Z</time></trkpt><trkpt lat="53.88473342446648" lon="30.379723008951135"><ele>148.5</ele><time>2026-05-03T11:30:32.999Z</time></trkpt><trkpt lat="53.88495968776601" lon="30.379564851662145"><ele>148.0</ele><time>2026-05-03T11:30:33.999Z</time></trkpt><trkpt lat="53.88519039976989" lon="30.37940391489636"><ele>148.0</ele><time>2026-05-03T11:30:34.999Z</time></trkpt><trkpt lat="53.88540609943578" lon="30.379245331367933"><ele>148.0</ele><time>2026-05-03T11:30:35.999Z</time></trkpt><trkpt lat="53.8856226943793" lon="30.37907727183402"><ele>148.0</ele><time>2026-05-03T11:30:36.999Z</time></trkpt><trkpt lat="53.885841294936476" lon="30.378914468242748"><ele>148.0</ele><time>2026-05-03T11:30:37.999Z</time></trkpt><trkpt lat="53.88606422668246" lon="30.37877203968346"><ele>148.0</ele><time>2026-05-03T11:30:38.999Z</time></trkpt><trkpt lat="53.88629171764559" lon="30.37863378666947"><ele>148.0</ele><time>2026-05-03T11:30:39.999Z</time></trkpt><trkpt lat="53.88652259966308" lon="30.378486628049426"><ele>148.0</ele><time>2026-05-03T11:30:40.999Z</time></trkpt><trkpt lat="53.88675247567891" lon="30.378336257422287"><ele>148.0</ele><time>2026-05-03T11:30:41.999Z</time></trkpt><trkpt lat="53.88697972271232" lon="30.378174903259357"><ele>148.5</ele><time>2026-05-03T11:30:42.999Z</time></trkpt><trkpt lat="53.88720864257004" lon="30.378004268770198"><ele>149.0</ele><time>2026-05-03T11:30:43.999Z</time></trkpt><trkpt lat="53.88743885381446" lon="30.377832685547776"><ele>149.5</ele><time>2026-05-03T11:30:44.999Z</time></trkpt><trkpt lat="53.88767168749998" lon="30.377662310525018"><ele>150.0</ele><time>2026-05-03T11:30:45.999Z</time></trkpt><trkpt lat="53.88791127260096" lon="30.3775012505323"><ele>150.0</ele><time>2026-05-03T11:30:46.999Z</time></trkpt><trkpt lat="53.888149893513315" lon="30.37733973930063"><ele>150.0</ele><time>2026-05-03T11:30:47.999Z</time></trkpt><trkpt lat="53.88838967888253" lon="30.377176114989677"><ele>150.5</ele><time>2026-05-03T11:30:48.999Z</time></trkpt><trkpt lat="53.88863172942503" lon="30.37700587610241"><ele>151.0</ele><time>2026-05-03T11:30:49.999Z</time></trkpt><trkpt lat="53.88886916939388" lon="30.376842573963806"><ele>151.0</ele><time>2026-05-03T11:30:50.999Z</time></trkpt><trkpt lat="53.88910612695663" lon="30.37668687408944"><ele>151.0</ele><time>2026-05-03T11:30:51.999Z</time></trkpt><trkpt lat="53.8893206197147" lon="30.376534358288858"><ele>149.33333333333334</ele><time>2026-05-03T11:30:52.999Z</time></trkpt><trkpt lat="53.88952286735889" lon="30.376399490485547"><ele>147.66666666666666</ele><time>2026-05-03T11:30:53.999Z</time></trkpt><trkpt lat="53.889731558837376" lon="30.37625722361421"><ele>146.0</ele><time>2026-05-03T11:30:54.999Z</time></trkpt><trkpt lat="53.88994749751146" lon="30.376109073324002"><ele>141.0</ele><time>2026-05-03T11:30:55.999Z</time></trkpt><trkpt lat="53.890165204269984" lon="30.375957130578485"><ele>136.0</ele><time>2026-05-03T11:30:56.999Z</time></trkpt><trkpt lat="53.89037845882937" lon="30.37581042998223"><ele>136.0</ele><time>2026-05-03T11:30:57.998Z</time></trkpt><trkpt lat="53.890597033133076" lon="30.375657163125997"><ele>136.0</ele><time>2026-05-03T11:30:58.998Z</time></trkpt><trkpt lat="53.89081021186686" lon="30.37551001730812"><ele>136.0</ele><time>2026-05-03T11:30:59.998Z</time></trkpt><trkpt lat="53.89101415015121" lon="30.37537166603049"><ele>136.0</ele><time>2026-05-03T11:31:00.998Z</time></trkpt><trkpt lat="53.891216128136435" lon="30.37523491574063"><ele>136.0</ele><time>2026-05-03T11:31:01.998Z</time></trkpt><trkpt lat="53.89141585550446" lon="30.37509647163239"><ele>136.0</ele><time>2026-05-03T11:31:02.998Z</time></trkpt><trkpt lat="53.891607384697764" lon="30.374964124335563"><ele>136.0</ele><time>2026-05-03T11:31:03.998Z</time></trkpt><trkpt lat="53.891797379836575" lon="30.374833423308317"><ele>136.0</ele><time>2026-05-03T11:31:04.998Z</time></trkpt><trkpt lat="53.89196930769331" lon="30.374712753726627"><ele>140.0</ele><time>2026-05-03T11:31:05.998Z</time></trkpt><trkpt lat="53.89212758261662" lon="30.37459842962219"><ele>144.0</ele><time>2026-05-03T11:31:06.998Z</time></trkpt><trkpt lat="53.89228109866511" lon="30.374493802493994"><ele>148.0</ele><time>2026-05-03T11:31:07.998Z</time></trkpt><trkpt lat="53.89244369322307" lon="30.37438443236961"><ele>148.33333333333334</ele><time>2026-05-03T11:31:08.998Z</time></trkpt><trkpt lat="53.892613821353876" lon="30.37426756489827"><ele>148.66666666666666</ele><time>2026-05-03T11:31:09.998Z</time></trkpt><trkpt lat="53.89277146622483" lon="30.374157375171887"><ele>149.0</ele><time>2026-05-03T11:31:10.998Z</time></trkpt><trkpt lat="53.892926940233565" lon="30.374048436510712"><ele>149.0</ele><time>2026-05-03T11:31:11.998Z</time></trkpt><trkpt lat="53.89308274086625" lon="30.37394025468172"><ele>149.0</ele><time>2026-05-03T11:31:12.998Z</time></trkpt><trkpt lat="53.89323767438607" lon="30.373840876906698"><ele>149.0</ele><time>2026-05-03T11:31:13.998Z</time></trkpt><trkpt lat="53.89340453200354" lon="30.373727072568435"><ele>149.66666666666666</ele><time>2026-05-03T11:31:14.998Z</time></trkpt><trkpt lat="53.89357085361548" lon="30.37361347218351"><ele>150.33333333333334</ele><time>2026-05-03T11:31:15.998Z</time></trkpt><trkpt lat="53.893744959962" lon="30.37349636393384"><ele>151.0</ele><time>2026-05-03T11:31:16.998Z</time></trkpt><trkpt lat="53.89391886706481" lon="30.37337767987893"><ele>151.0</ele><time>2026-05-03T11:31:17.998Z</time></trkpt><trkpt lat="53.89409127120328" lon="30.37325816421102"><ele>151.0</ele><time>2026-05-03T11:31:18.998Z</time></trkpt><trkpt lat="53.89426003591722" lon="30.37313847567971"><ele>151.0</ele><time>2026-05-03T11:31:19.998Z</time></trkpt><trkpt lat="53.8944354827835" lon="30.373018234594596"><ele>150.66666666666669</ele><time>2026-05-03T11:31:20.998Z</time></trkpt><trkpt lat="53.8946172312572" lon="30.372901328688855"><ele>150.33333333333334</ele><time>2026-05-03T11:31:21.998Z</time></trkpt><trkpt lat="53.89480396034364" lon="30.372774540585493"><ele>150.0</ele><time>2026-05-03T11:31:22.998Z</time></trkpt><trkpt lat="53.894985407419945" lon="30.3726473857947"><ele>149.33333333333334</ele><time>2026-05-03T11:31:23.998Z</time></trkpt><trkpt lat="53.89516737591619" lon="30.372522124542677"><ele>148.66666666666669</ele><time>2026-05-03T11:31:24.998Z</time></trkpt><trkpt lat="53.89534004102707" lon="30.3723986095746"><ele>148.0</ele><time>2026-05-03T11:31:25.998Z</time></trkpt><trkpt lat="53.895524759586436" lon="30.372270959497804"><ele>148.33333333333334</ele><time>2026-05-03T11:31:26.998Z</time></trkpt><trkpt lat="53.895704878818535" lon="30.37214702563979"><ele>148.66666666666666</ele><time>2026-05-03T11:31:28Z</time></trkpt><trkpt lat="53.895880879736765" lon="30.372026356997182"><ele>149.0</ele><time>2026-05-03T11:31:29Z</time></trkpt><trkpt lat="53.89606459328915" lon="30.371901258231237"><ele>149.0</ele><time>2026-05-03T11:31:30Z</time></trkpt><trkpt lat="53.89624902586331" lon="30.371774874992774"><ele>149.0</ele><time>2026-05-03T11:31:31Z</time></trkpt><trkpt lat="53.89643313001876" lon="30.371652426291558"><ele>149.0</ele><time>2026-05-03T11:31:32Z</time></trkpt><trkpt lat="53.896618917013825" lon="30.371525959615973"><ele>149.33333333333331</ele><time>2026-05-03T11:31:33Z</time></trkpt><trkpt lat="53.89680339663473" lon="30.371401205761824"><ele>149.66666666666666</ele><time>2026-05-03T11:31:34Z</time></trkpt><trkpt lat="53.89699274698724" lon="30.37126773452157"><ele>150.0</ele><time>2026-05-03T11:31:35Z</time></trkpt><trkpt lat="53.897185901193" lon="30.37113563390249"><ele>150.0</ele><time>2026-05-03T11:31:36Z</time></trkpt><trkpt lat="53.89738189497526" lon="30.371006073238412"><ele>150.0</ele><time>2026-05-03T11:31:37Z</time></trkpt><trkpt lat="53.8975820492284" lon="30.370870384383004"><ele>150.0</ele><time>2026-05-03T11:31:38Z</time></trkpt><trkpt lat="53.89778077757115" lon="30.37072613612497"><ele>150.0</ele><time>2026-05-03T11:31:39Z</time></trkpt><trkpt lat="53.897982133945526" lon="30.37058665903988"><ele>150.0</ele><time>2026-05-03T11:31:40Z</time></trkpt><trkpt lat="53.89818371822685" lon="30.37045309786517"><ele>150.0</ele><time>2026-05-03T11:31:41Z</time></trkpt><trkpt lat="53.898387219568384" lon="30.370309388189582"><ele>151.0</ele><time>2026-05-03T11:31:42Z</time></trkpt><trkpt lat="53.89858975588122" lon="30.370169846676195"><ele>152.0</ele><time>2026-05-03T11:31:43Z</time></trkpt><trkpt lat="53.898792152006074" lon="30.370038830944807"><ele>153.0</ele><time>2026-05-03T11:31:44Z</time></trkpt><trkpt lat="53.89900053109402" lon="30.36988693358844"><ele>153.0</ele><time>2026-05-03T11:31:45Z</time></trkpt><trkpt lat="53.899208559527985" lon="30.3697414127536"><ele>153.0</ele><time>2026-05-03T11:31:46Z</time></trkpt><trkpt lat="53.89941226692163" lon="30.3695971348556"><ele>153.0</ele><time>2026-05-03T11:31:47Z</time></trkpt><trkpt lat="53.89960376501485" lon="30.369469579048083"><ele>155.33333333333334</ele><time>2026-05-03T11:31:48Z</time></trkpt><trkpt lat="53.89978141653162" lon="30.369345046001296"><ele>157.66666666666669</ele><time>2026-05-03T11:31:49Z</time></trkpt><trkpt lat="53.899970531596196" lon="30.369219681748184"><ele>160.0</ele><time>2026-05-03T11:31:50Z</time></trkpt><trkpt lat="53.900153490398274" lon="30.369097652487337"><ele>163.66666666666669</ele><time>2026-05-03T11:31:51Z</time></trkpt><trkpt lat="53.90033328769133" lon="30.368979089988848"><ele>167.33333333333334</ele><time>2026-05-03T11:31:52Z</time></trkpt><trkpt lat="53.900513450662054" lon="30.368853305043277"><ele>171.0</ele><time>2026-05-03T11:31:53Z</time></trkpt><trkpt lat="53.90069989498824" lon="30.368727330081406"><ele>171.0</ele><time>2026-05-03T11:31:54Z</time></trkpt><trkpt lat="53.900892204245686" lon="30.36859592448391"><ele>171.0</ele><time>2026-05-03T11:31:55Z</time></trkpt><trkpt lat="53.901088435544665" lon="30.36846768248965"><ele>171.0</ele><time>2026-05-03T11:31:56Z</time></trkpt><trkpt lat="53.901281411380815" lon="30.368340255634322"><ele>172.0</ele><time>2026-05-03T11:31:57Z</time></trkpt><trkpt lat="53.90148086572316" lon="30.36820320319141"><ele>173.0</ele><time>2026-05-03T11:31:57.999Z</time></trkpt><trkpt lat="53.901684338908765" lon="30.36807560508358"><ele>174.0</ele><time>2026-05-03T11:31:58.999Z</time></trkpt><trkpt lat="53.90189504668396" lon="30.36795974352305"><ele>175.33333333333334</ele><time>2026-05-03T11:31:59.999Z</time></trkpt><trkpt lat="53.90210621626647" lon="30.367852438821874"><ele>176.66666666666669</ele><time>2026-05-03T11:32:00.999Z</time></trkpt><trkpt lat="53.902321296112675" lon="30.36775293868025"><ele>178.0</ele><time>2026-05-03T11:32:01.999Z</time></trkpt><trkpt lat="53.90253959542335" lon="30.367661751179874"><ele>178.0</ele><time>2026-05-03T11:32:02.999Z</time></trkpt><trkpt lat="53.90276618828409" lon="30.36757303929645"><ele>178.0</ele><time>2026-05-03T11:32:03.999Z</time></trkpt><trkpt lat="53.902992316686145" lon="30.36749065319253"><ele>178.0</ele><time>2026-05-03T11:32:04.999Z</time></trkpt><trkpt lat="53.90321732341277" lon="30.367417791077596"><ele>178.0</ele><time>2026-05-03T11:32:05.999Z</time></trkpt><trkpt lat="53.903430481788284" lon="30.367343904487925"><ele>178.0</ele><time>2026-05-03T11:32:06.999Z</time></trkpt><trkpt lat="53.90364342653103" lon="30.3672812017336"><ele>178.0</ele><time>2026-05-03T11:32:07.999Z</time></trkpt><trkpt lat="53.903847778762795" lon="30.36721712669014"><ele>178.0</ele><time>2026-05-03T11:32:08.999Z</time></trkpt><trkpt lat="53.904025376445645" lon="30.367160225563143"><ele>178.0</ele><time>2026-05-03T11:32:09.999Z</time></trkpt><trkpt lat="53.90420132853059" lon="30.36709552197803"><ele>177.66666666666669</ele><time>2026-05-03T11:32:10.999Z</time></trkpt><trkpt lat="53.90438030899125" lon="30.367003406354645"><ele>177.33333333333334</ele><time>2026-05-03T11:32:11.999Z</time></trkpt><trkpt lat="53.90456771056181" lon="30.366880706032884"><ele>177.0</ele><time>2026-05-03T11:32:12.999Z</time></trkpt><trkpt lat="53.904744248534364" lon="30.366743812731734"><ele>177.0</ele><time>2026-05-03T11:32:13.999Z</time></trkpt><trkpt lat="53.90491734587308" lon="30.36660743986593"><ele>177.0</ele><time>2026-05-03T11:32:14.999Z</time></trkpt><trkpt lat="53.905069476589816" lon="30.36647671829665"><ele>177.0</ele><time>2026-05-03T11:32:15.999Z</time></trkpt><trkpt lat="53.905205806212855" lon="30.366343782414994"><ele>178.0</ele><time>2026-05-03T11:32:16.999Z</time></trkpt><trkpt lat="53.90534034624146" lon="30.36619719456548"><ele>179.0</ele><time>2026-05-03T11:32:17.999Z</time></trkpt><trkpt lat="53.9054865474329" lon="30.36603167746522"><ele>180.0</ele><time>2026-05-03T11:32:18.999Z</time></trkpt><trkpt lat="53.90564848166703" lon="30.365848433870642"><ele>180.0</ele><time>2026-05-03T11:32:19.999Z</time></trkpt><trkpt lat="53.905823640350334" lon="30.36565393967704"><ele>180.0</ele><time>2026-05-03T11:32:20.999Z</time></trkpt><trkpt lat="53.906005410005264" lon="30.36546308794914"><ele>180.0</ele><time>2026-05-03T11:32:21.999Z</time></trkpt><trkpt lat="53.90615737118064" lon="30.365299906652016"><ele>179.5</ele><time>2026-05-03T11:32:22.999Z</time></trkpt><trkpt lat="53.90630280460456" lon="30.365176602622807"><ele>179.0</ele><time>2026-05-03T11:32:23.999Z</time></trkpt><trkpt lat="53.90641703095701" lon="30.365026466105206"><ele>178.5</ele><time>2026-05-03T11:32:24.999Z</time></trkpt><trkpt lat="53.90653118251223" lon="30.364904981483974"><ele>178.0</ele><time>2026-05-03T11:32:25.999Z</time></trkpt><trkpt lat="53.906636129312744" lon="30.364798302805436"><ele>178.0</ele><time>2026-05-03T11:32:26.999Z</time></trkpt><trkpt lat="53.906709630698" lon="30.364721858086718"><ele>178.0</ele><time>2026-05-03T11:32:27.999Z</time></trkpt><trkpt lat="53.90677906531069" lon="30.364648829512745"><ele>178.0</ele><time>2026-05-03T11:32:28.999Z</time></trkpt><trkpt lat="53.90687159350859" lon="30.3645554480435"><ele>178.0</ele><time>2026-05-03T11:32:30.999Z</time></trkpt><trkpt lat="53.90695671981123" lon="30.364465312328303"><ele>178.0</ele><time>2026-05-03T11:32:32.999Z</time></trkpt><trkpt lat="53.907021984223135" lon="30.36440180924049"><ele>177.66666666666669</ele><time>2026-05-03T11:32:34.999Z</time></trkpt><trkpt lat="53.90707865450859" lon="30.364343883917744"><ele>177.33333333333334</ele><time>2026-05-03T11:32:35.999Z</time></trkpt><trkpt lat="53.90713981846813" lon="30.36427489783752"><ele>177.0</ele><time>2026-05-03T11:32:36.999Z</time></trkpt><trkpt lat="53.90721401326444" lon="30.364194651750125"><ele>176.66666666666666</ele><time>2026-05-03T11:32:37.999Z</time></trkpt><trkpt lat="53.9072952843071" lon="30.364110093080242"><ele>176.33333333333331</ele><time>2026-05-03T11:32:38.999Z</time></trkpt><trkpt lat="53.907386792779" lon="30.364011205823843"><ele>176.0</ele><time>2026-05-03T11:32:39.999Z</time></trkpt><trkpt lat="53.90747834418015" lon="30.363921973836376"><ele>176.25</ele><time>2026-05-03T11:32:40.999Z</time></trkpt><trkpt lat="53.907568552262774" lon="30.363818813877973"><ele>176.5</ele><time>2026-05-03T11:32:41.999Z</time></trkpt><trkpt lat="53.90767728204691" lon="30.36370139107405"><ele>176.75</ele><time>2026-05-03T11:32:42.999Z</time></trkpt><trkpt lat="53.90779086058577" lon="30.363575865961757"><ele>177.0</ele><time>2026-05-03T11:32:43.999Z</time></trkpt><trkpt lat="53.90790563125402" lon="30.363453443045067"><ele>177.5</ele><time>2026-05-03T11:32:44.999Z</time></trkpt><trkpt lat="53.908019535636015" lon="30.363330461076703"><ele>178.0</ele><time>2026-05-03T11:32:45.999Z</time></trkpt><trkpt lat="53.90813327869589" lon="30.363204299566323"><ele>178.5</ele><time>2026-05-03T11:32:46.999Z</time></trkpt><trkpt lat="53.90824396452496" lon="30.363079980877938"><ele>179.0</ele><time>2026-05-03T11:32:47.999Z</time></trkpt><trkpt lat="53.90835028487592" lon="30.362957272000127"><ele>178.25</ele><time>2026-05-03T11:32:48.999Z</time></trkpt><trkpt lat="53.908455821765045" lon="30.3628386326053"><ele>177.5</ele><time>2026-05-03T11:32:49.999Z</time></trkpt><trkpt lat="53.90855953798275" lon="30.362722884335405"><ele>176.75</ele><time>2026-05-03T11:32:50.999Z</time></trkpt><trkpt lat="53.90866424010784" lon="30.36260877513209"><ele>176.0</ele><time>2026-05-03T11:32:51.999Z</time></trkpt><trkpt lat="53.908765417967" lon="30.362495666673823"><ele>176.0</ele><time>2026-05-03T11:32:52.999Z</time></trkpt><trkpt lat="53.90886420015206" lon="30.362379075875413"><ele>176.0</ele><time>2026-05-03T11:32:53.999Z</time></trkpt><trkpt lat="53.908957108146375" lon="30.36227666013705"><ele>176.0</ele><time>2026-05-03T11:32:54.999Z</time></trkpt><trkpt lat="53.90905508483065" lon="30.362177776251897"><ele>176.0</ele><time>2026-05-03T11:32:55.999Z</time></trkpt><trkpt lat="53.90916792403076" lon="30.3620766736421"><ele>176.4</ele><time>2026-05-03T11:32:56.999Z</time></trkpt><trkpt lat="53.90926514861733" lon="30.361943582269863"><ele>176.8</ele><time>2026-05-03T11:32:57.999Z</time></trkpt><trkpt lat="53.909360880965345" lon="30.36185198128446"><ele>177.20000000000002</ele><time>2026-05-03T11:32:58.999Z</time></trkpt><trkpt lat="53.90944330988445" lon="30.361771565968528"><ele>177.60000000000002</ele><time>2026-05-03T11:32:59.999Z</time></trkpt><trkpt lat="53.90951964945178" lon="30.361700632034463"><ele>178.0</ele><time>2026-05-03T11:33:00.999Z</time></trkpt><trkpt lat="53.90959473595131" lon="30.361642264331007"><ele>178.0</ele><time>2026-05-03T11:33:01.999Z</time></trkpt><trkpt lat="53.90966564464976" lon="30.36157918253537"><ele>178.0</ele><time>2026-05-03T11:33:02.999Z</time></trkpt><trkpt lat="53.90974723421089" lon="30.361513562054302"><ele>178.0</ele><time>2026-05-03T11:33:03.999Z</time></trkpt><trkpt lat="53.909831982812776" lon="30.361434499488873"><ele>178.0</ele><time>2026-05-03T11:33:04.999Z</time></trkpt><trkpt lat="53.90992264374873" lon="30.361353857779385"><ele>178.0</ele><time>2026-05-03T11:33:05.999Z</time></trkpt><trkpt lat="53.91001987527896" lon="30.361276552081385"><ele>177.8</ele><time>2026-05-03T11:33:06.999Z</time></trkpt><trkpt lat="53.91010441832091" lon="30.36118487508098"><ele>177.60000000000002</ele><time>2026-05-03T11:33:07.999Z</time></trkpt><trkpt lat="53.91019635716499" lon="30.361085292685637"><ele>177.39999999999998</ele><time>2026-05-03T11:33:08.998Z</time></trkpt><trkpt lat="53.91028913405822" lon="30.360985045278337"><ele>177.2</ele><time>2026-05-03T11:33:09.998Z</time></trkpt><trkpt lat="53.910382285877446" lon="30.360888515580022"><ele>177.0</ele><time>2026-05-03T11:33:10.998Z</time></trkpt><trkpt lat="53.91046105934009" lon="30.360807198191505"><ele>177.0</ele><time>2026-05-03T11:33:11.998Z</time></trkpt><trkpt lat="53.91052908143666" lon="30.360736979393383"><ele>177.0</ele><time>2026-05-03T11:33:12.998Z</time></trkpt><trkpt lat="53.91059055767018" lon="30.36067351783186"><ele>177.0</ele><time>2026-05-03T11:33:13.998Z</time></trkpt><trkpt lat="53.91063341258978" lon="30.360496068004004"><ele>177.0</ele><time>2026-05-03T11:33:15.998Z</time></trkpt><trkpt lat="53.91059404366082" lon="30.360342719956055"><ele>177.0</ele><time>2026-05-03T11:33:16.998Z</time></trkpt><trkpt lat="53.91053661937298" lon="30.360192044317948"><ele>176.8</ele><time>2026-05-03T11:33:17.998Z</time></trkpt><trkpt lat="53.910453417446135" lon="30.360084496792528"><ele>176.6</ele><time>2026-05-03T11:33:18.998Z</time></trkpt><trkpt lat="53.91033703757588" lon="30.360040773183403"><ele>176.4</ele><time>2026-05-03T11:33:19.998Z</time></trkpt><trkpt lat="53.91023717294822" lon="30.360008929058953"><ele>176.20000000000002</ele><time>2026-05-03T11:33:20.998Z</time></trkpt><trkpt lat="53.91015480139078" lon="30.359935011246485"><ele>176.0</ele><time>2026-05-03T11:33:21.998Z</time></trkpt><trkpt lat="53.910083343994444" lon="30.35987579823205"><ele>176.0</ele><time>2026-05-03T11:33:22.998Z</time></trkpt><trkpt lat="53.909973868074424" lon="30.359920703776744"><ele>176.0</ele><time>2026-05-03T11:33:23.998Z</time></trkpt><trkpt lat="53.909888408113716" lon="30.359847647893854"><ele>176.0</ele><time>2026-05-03T11:33:24.998Z</time></trkpt><trkpt lat="53.909800261734205" lon="30.359738248350624"><ele>176.0</ele><time>2026-05-03T11:33:25.998Z</time></trkpt><trkpt lat="53.909698606565065" lon="30.359592520211134"><ele>176.0</ele><time>2026-05-03T11:33:26.998Z</time></trkpt><trkpt lat="53.90959660304991" lon="30.359424414254686"><ele>176.0</ele><time>2026-05-03T11:33:27.998Z</time></trkpt><trkpt lat="53.909510726576826" lon="30.359234774658987"><ele>176.0</ele><time>2026-05-03T11:33:28.998Z</time></trkpt><trkpt lat="53.909418683922276" lon="30.35904611217653"><ele>176.0</ele><time>2026-05-03T11:33:29.998Z</time></trkpt><trkpt lat="53.90933433336883" lon="30.35887319665944"><ele>175.5</ele><time>2026-05-03T11:33:30.998Z</time></trkpt><trkpt lat="53.90924548494684" lon="30.358691060676275"><ele>175.0</ele><time>2026-05-03T11:33:31.998Z</time></trkpt><trkpt lat="53.909158381807984" lon="30.358487409137812"><ele>174.5</ele><time>2026-05-03T11:33:32.998Z</time></trkpt><trkpt lat="53.909058851186536" lon="30.358292441071583"><ele>174.0</ele><time>2026-05-03T11:33:34Z</time></trkpt><trkpt lat="53.90897229366539" lon="30.3580713575994"><ele>173.66666666666666</ele><time>2026-05-03T11:33:35Z</time></trkpt><trkpt lat="53.90891451673749" lon="30.357825387287036"><ele>173.33333333333331</ele><time>2026-05-03T11:33:36Z</time></trkpt><trkpt lat="53.90884472749928" lon="30.357586871897826"><ele>173.0</ele><time>2026-05-03T11:33:37Z</time></trkpt><trkpt lat="53.90877399015588" lon="30.3573433009794"><ele>172.66666666666666</ele><time>2026-05-03T11:33:38Z</time></trkpt><trkpt lat="53.90870241358945" lon="30.357096840334982"><ele>172.33333333333334</ele><time>2026-05-03T11:33:39Z</time></trkpt><trkpt lat="53.90863102438514" lon="30.35685148107476"><ele>172.0</ele><time>2026-05-03T11:33:40Z</time></trkpt><trkpt lat="53.90856340499682" lon="30.35660431077828"><ele>171.66666666666669</ele><time>2026-05-03T11:33:41Z</time></trkpt><trkpt lat="53.90850756092778" lon="30.356358849293276"><ele>171.33333333333334</ele><time>2026-05-03T11:33:42Z</time></trkpt><trkpt lat="53.908449123846474" lon="30.356101980724983"><ele>171.0</ele><time>2026-05-03T11:33:43Z</time></trkpt><trkpt lat="53.9083917755038" lon="30.35584989363769"><ele>171.66666666666666</ele><time>2026-05-03T11:33:44Z</time></trkpt><trkpt lat="53.90833115479307" lon="30.355584755663337"><ele>172.33333333333331</ele><time>2026-05-03T11:33:45Z</time></trkpt><trkpt lat="53.90827445296379" lon="30.35533500959077"><ele>173.0</ele><time>2026-05-03T11:33:46Z</time></trkpt><trkpt lat="53.90821913911344" lon="30.355072729258385"><ele>173.0</ele><time>2026-05-03T11:33:47Z</time></trkpt><trkpt lat="53.90817705561448" lon="30.35480218614579"><ele>173.0</ele><time>2026-05-03T11:33:48Z</time></trkpt><trkpt lat="53.90814550600672" lon="30.354511563198056"><ele>173.0</ele><time>2026-05-03T11:33:49Z</time></trkpt><trkpt lat="53.90812097200831" lon="30.3542136036044"><ele>173.0</ele><time>2026-05-03T11:33:50Z</time></trkpt><trkpt lat="53.90809662766973" lon="30.35391006013127"><ele>173.0</ele><time>2026-05-03T11:33:51Z</time></trkpt><trkpt lat="53.90807151777415" lon="30.353597470929614"><ele>173.0</ele><time>2026-05-03T11:33:52Z</time></trkpt><trkpt lat="53.90804606836286" lon="30.353281857067874"><ele>173.0</ele><time>2026-05-03T11:33:53Z</time></trkpt><trkpt lat="53.9080365486591" lon="30.352976422458973"><ele>173.0</ele><time>2026-05-03T11:33:54Z</time></trkpt><trkpt lat="53.90803404542639" lon="30.352702206368296"><ele>173.0</ele><time>2026-05-03T11:33:55Z</time></trkpt><trkpt lat="53.908032454129184" lon="30.352453554623864"><ele>173.0</ele><time>2026-05-03T11:33:56Z</time></trkpt><trkpt lat="53.90803580994817" lon="30.35225846337808"><ele>173.0</ele><time>2026-05-03T11:33:57Z</time></trkpt><trkpt lat="53.90803771732911" lon="30.352140855104228"><ele>173.0</ele><time>2026-05-03T11:33:58Z</time></trkpt><trkpt lat="53.90787606391479" lon="30.35202840770143"><ele>173.0</ele><time>2026-05-03T11:34:01Z</time></trkpt><trkpt lat="53.90778403240255" lon="30.352125696843306"><ele>173.0</ele><time>2026-05-03T11:34:03Z</time></trkpt><trkpt lat="53.90770059741821" lon="30.35220035398004"><ele>173.0</ele><time>2026-05-03T11:34:04Z</time></trkpt><trkpt lat="53.90759484800422" lon="30.352307562452797"><ele>173.0</ele><time>2026-05-03T11:34:05Z</time></trkpt><trkpt lat="53.907508257679126" lon="30.352395347250948"><ele>173.0</ele><time>2026-05-03T11:34:06Z</time></trkpt><trkpt lat="53.90746016149238" lon="30.35247668475881"><ele>173.0</ele><time>2026-05-03T11:34:07Z</time></trkpt><trkpt lat="53.90736661337269" lon="30.352535075340327"><ele>173.16666666666666</ele><time>2026-05-03T11:34:09Z</time></trkpt><trkpt lat="53.90729980078794" lon="30.35258878602993"><ele>173.33333333333331</ele><time>2026-05-03T11:34:10.999Z</time></trkpt><trkpt lat="53.90724231491843" lon="30.35267043570551"><ele>173.5</ele><time>2026-05-03T11:34:11.999Z</time></trkpt><trkpt lat="53.90717518120266" lon="30.352773444323553"><ele>173.66666666666666</ele><time>2026-05-03T11:34:12.999Z</time></trkpt><trkpt lat="53.90710221449055" lon="30.352894989183778"><ele>173.83333333333334</ele><time>2026-05-03T11:34:13.999Z</time></trkpt><trkpt lat="53.90703335712572" lon="30.35299724150114"><ele>174.0</ele><time>2026-05-03T11:34:14.999Z</time></trkpt><trkpt lat="53.906962934817244" lon="30.353087725283697"><ele>174.0</ele><time>2026-05-03T11:34:15.999Z</time></trkpt><trkpt lat="53.906875665918044" lon="30.353187931175633"><ele>174.0</ele><time>2026-05-03T11:34:16.999Z</time></trkpt><trkpt lat="53.906781190223164" lon="30.353309878823573"><ele>174.0</ele><time>2026-05-03T11:34:17.999Z</time></trkpt><trkpt lat="53.90668910861916" lon="30.353448811354184"><ele>174.0</ele><time>2026-05-03T11:34:18.999Z</time></trkpt><trkpt lat="53.906604395419635" lon="30.353573491421578"><ele>174.5</ele><time>2026-05-03T11:34:19.999Z</time></trkpt><trkpt lat="53.90654487336475" lon="30.353660233419053"><ele>175.0</ele><time>2026-05-03T11:34:20.999Z</time></trkpt><trkpt lat="53.90647802931311" lon="30.353749795437093"><ele>175.5</ele><time>2026-05-03T11:34:22.999Z</time></trkpt><trkpt lat="53.90642396412825" lon="30.353830185252264"><ele>176.0</ele><time>2026-05-03T11:34:25.999Z</time></trkpt><trkpt lat="53.906517188840894" lon="30.353984483642975"><ele>176.5</ele><time>2026-05-03T11:34:26.999Z</time></trkpt><trkpt lat="53.906561352051725" lon="30.354074227068523"><ele>177.0</ele><time>2026-05-03T11:34:27.999Z</time></trkpt><trkpt lat="53.906648693806915" lon="30.35425171298413"><ele>177.0</ele><time>2026-05-03T11:34:29.999Z</time></trkpt><trkpt lat="53.90671341629244" lon="30.35438212851764"><ele>177.0</ele><time>2026-05-03T11:34:30.999Z</time></trkpt><trkpt lat="53.90677011113664" lon="30.35449595508775"><ele>177.0</ele><time>2026-05-03T11:34:31.999Z</time></trkpt><trkpt lat="53.90682417144393" lon="30.3546181153495"><ele>177.0</ele><time>2026-05-03T11:34:32.999Z</time></trkpt><trkpt lat="53.90689107141896" lon="30.35473099330216"><ele>177.0</ele><time>2026-05-03T11:34:33.999Z</time></trkpt><trkpt lat="53.906953486975226" lon="30.35485393631644"><ele>176.2</ele><time>2026-05-03T11:34:34.999Z</time></trkpt><trkpt lat="53.907009934581424" lon="30.35497007817523"><ele>175.39999999999998</ele><time>2026-05-03T11:34:35.999Z</time></trkpt><trkpt lat="53.907066323560414" lon="30.355076363550946"><ele>174.60000000000002</ele><time>2026-05-03T11:34:36.999Z</time></trkpt><trkpt lat="53.90711179137111" lon="30.355165002920447"><ele>173.8</ele><time>2026-05-03T11:34:37.999Z</time></trkpt><trkpt lat="53.90715850793746" lon="30.35528360740232"><ele>173.0</ele><time>2026-05-03T11:34:39.999Z</time></trkpt><trkpt lat="53.90732695834503" lon="30.35507652694488"><ele>173.0</ele><time>2026-05-03T11:35:01.999Z</time></trkpt><trkpt lat="53.90738184537027" lon="30.355022206240058"><ele>173.0</ele><time>2026-05-03T11:35:03.999Z</time></trkpt><trkpt lat="53.907437642357245" lon="30.354953446799545"><ele>173.0</ele><time>2026-05-03T11:35:06.999Z</time></trkpt><trkpt lat="53.907494522951005" lon="30.354853717589094"><ele>173.0</ele><time>2026-05-03T11:35:09.999Z</time></trkpt><trkpt lat="53.90743669689937" lon="30.35496648059519"><ele>173.0</ele><time>2026-05-03T11:36:02Z</time></trkpt><trkpt lat="53.90745850608575" lon="30.354859769087177"><ele>173.0</ele><time>2026-05-03T11:36:12Z</time></trkpt></trkseg></trk></gpx>